<?xml version="1.0" encoding="UTF-8"?>
<gpx version="1.1" creator="https://www.youtrack.es" xsi:schemaLocation="http://www.topografix.com/GPX/1/1 http://www.topografix.com/GPX/1/1/gpx.xsd http://www.garmin.com/xmlschemas/GpxExtensions/v3 http://www.garmin.com/xmlschemas/GpxExtensionsv3.xsd http://www.garmin.com/xmlschemas/TrackPointExtension/v1 http://www.garmin.com/xmlschemas/TrackPointExtensionv1.xsd" xmlns:gpxtpx="http://www.garmin.com/xmlschemas/TrackPointExtension/v1" xmlns:gpxx="http://www.garmin.com/xmlschemas/GpxExtensions/v3" xmlns:xsi="http://www.w3.org/2001/XMLSchema-instance">
  <metadata>
    <link href="https://www.youtrack.es">
      <text>YouTrack.es</text>
    </link>
    <time>2026-05-09T03:33:26Z</time>
  </metadata>
  <trk>
    <src>https://www.youtrack.es</src>
    <link href="https://www.youtrack.es/ruta/12748-watopia-fer">
      <text>YouTrack.es</text>
    </link>
    <trkseg>
      <trkpt lat="-11.6402910" lon="166.9466110">
        <ele>13.2</ele>
        <time>2020-04-19T13:00:20Z</time>
      </trkpt>
      <trkpt lat="-11.6402820" lon="166.9466330">
        <ele>13.0</ele>
        <time>2020-04-19T13:00:21Z</time>
      </trkpt>
      <trkpt lat="-11.6402720" lon="166.9466440">
        <ele>13.0</ele>
        <time>2020-04-19T13:00:22Z</time>
      </trkpt>
      <trkpt lat="-11.6402610" lon="166.9466540">
        <ele>13.0</ele>
        <time>2020-04-19T13:00:23Z</time>
      </trkpt>
      <trkpt lat="-11.6402480" lon="166.9466760">
        <ele>13.0</ele>
        <time>2020-04-19T13:00:24Z</time>
      </trkpt>
      <trkpt lat="-11.6402330" lon="166.9467080">
        <ele>12.8</ele>
        <time>2020-04-19T13:00:25Z</time>
      </trkpt>
      <trkpt lat="-11.6402160" lon="166.9467190">
        <ele>12.8</ele>
        <time>2020-04-19T13:00:26Z</time>
      </trkpt>
      <trkpt lat="-11.6401980" lon="166.9467510">
        <ele>12.8</ele>
        <time>2020-04-19T13:00:27Z</time>
      </trkpt>
      <trkpt lat="-11.6401810" lon="166.9467620">
        <ele>12.6</ele>
        <time>2020-04-19T13:00:28Z</time>
      </trkpt>
      <trkpt lat="-11.6401650" lon="166.9467940">
        <ele>12.6</ele>
        <time>2020-04-19T13:00:29Z</time>
      </trkpt>
      <trkpt lat="-11.6401510" lon="166.9468470">
        <ele>12.4</ele>
        <time>2020-04-19T13:00:30Z</time>
      </trkpt>
      <trkpt lat="-11.6401390" lon="166.9468690">
        <ele>12.4</ele>
        <time>2020-04-19T13:00:31Z</time>
      </trkpt>
      <trkpt lat="-11.6401260" lon="166.9469230">
        <ele>12.2</ele>
        <time>2020-04-19T13:00:32Z</time>
      </trkpt>
      <trkpt lat="-11.6401100" lon="166.9469440">
        <ele>12.0</ele>
        <time>2020-04-19T13:00:33Z</time>
      </trkpt>
      <trkpt lat="-11.6400860" lon="166.9469980">
        <ele>12.0</ele>
        <time>2020-04-19T13:00:34Z</time>
      </trkpt>
      <trkpt lat="-11.6400630" lon="166.9470410">
        <ele>11.8</ele>
        <time>2020-04-19T13:00:35Z</time>
      </trkpt>
      <trkpt lat="-11.6400400" lon="166.9470830">
        <ele>11.6</ele>
        <time>2020-04-19T13:00:36Z</time>
      </trkpt>
      <trkpt lat="-11.6400210" lon="166.9471370">
        <ele>11.4</ele>
        <time>2020-04-19T13:00:37Z</time>
      </trkpt>
      <trkpt lat="-11.6400040" lon="166.9471910">
        <ele>11.4</ele>
        <time>2020-04-19T13:00:38Z</time>
      </trkpt>
      <trkpt lat="-11.6399820" lon="166.9472550">
        <ele>11.2</ele>
        <time>2020-04-19T13:00:39Z</time>
      </trkpt>
      <trkpt lat="-11.6399610" lon="166.9472980">
        <ele>11.0</ele>
        <time>2020-04-19T13:00:40Z</time>
      </trkpt>
      <trkpt lat="-11.6399330" lon="166.9473620">
        <ele>10.8</ele>
        <time>2020-04-19T13:00:41Z</time>
      </trkpt>
      <trkpt lat="-11.6399070" lon="166.9474270">
        <ele>10.6</ele>
        <time>2020-04-19T13:00:42Z</time>
      </trkpt>
      <trkpt lat="-11.6398790" lon="166.9474800">
        <ele>10.2</ele>
        <time>2020-04-19T13:00:43Z</time>
      </trkpt>
      <trkpt lat="-11.6398480" lon="166.9475560">
        <ele>10.0</ele>
        <time>2020-04-19T13:00:44Z</time>
      </trkpt>
      <trkpt lat="-11.6398090" lon="166.9476200">
        <ele>9.8</ele>
        <time>2020-04-19T13:00:45Z</time>
      </trkpt>
      <trkpt lat="-11.6397760" lon="166.9476840">
        <ele>9.6</ele>
        <time>2020-04-19T13:00:46Z</time>
      </trkpt>
      <trkpt lat="-11.6397460" lon="166.9477590">
        <ele>9.4</ele>
        <time>2020-04-19T13:00:47Z</time>
      </trkpt>
      <trkpt lat="-11.6397170" lon="166.9478340">
        <ele>9.0</ele>
        <time>2020-04-19T13:00:48Z</time>
      </trkpt>
      <trkpt lat="-11.6396810" lon="166.9479100">
        <ele>8.8</ele>
        <time>2020-04-19T13:00:49Z</time>
      </trkpt>
      <trkpt lat="-11.6396380" lon="166.9479850">
        <ele>8.6</ele>
        <time>2020-04-19T13:00:50Z</time>
      </trkpt>
      <trkpt lat="-11.6395950" lon="166.9480490">
        <ele>8.2</ele>
        <time>2020-04-19T13:00:51Z</time>
      </trkpt>
      <trkpt lat="-11.6395450" lon="166.9481240">
        <ele>8.0</ele>
        <time>2020-04-19T13:00:52Z</time>
      </trkpt>
      <trkpt lat="-11.6394940" lon="166.9481990">
        <ele>7.6</ele>
        <time>2020-04-19T13:00:53Z</time>
      </trkpt>
      <trkpt lat="-11.6394430" lon="166.9482740">
        <ele>7.2</ele>
        <time>2020-04-19T13:00:54Z</time>
      </trkpt>
      <trkpt lat="-11.6393860" lon="166.9483390">
        <ele>7.0</ele>
        <time>2020-04-19T13:00:55Z</time>
      </trkpt>
      <trkpt lat="-11.6393170" lon="166.9484030">
        <ele>6.6</ele>
        <time>2020-04-19T13:00:56Z</time>
      </trkpt>
      <trkpt lat="-11.6392440" lon="166.9484570">
        <ele>6.2</ele>
        <time>2020-04-19T13:00:57Z</time>
      </trkpt>
      <trkpt lat="-11.6391660" lon="166.9485210">
        <ele>6.0</ele>
        <time>2020-04-19T13:00:58Z</time>
      </trkpt>
      <trkpt lat="-11.6390840" lon="166.9485640">
        <ele>5.6</ele>
        <time>2020-04-19T13:00:59Z</time>
      </trkpt>
      <trkpt lat="-11.6389980" lon="166.9486180">
        <ele>5.4</ele>
        <time>2020-04-19T13:01:00Z</time>
      </trkpt>
      <trkpt lat="-11.6389080" lon="166.9486710">
        <ele>5.0</ele>
        <time>2020-04-19T13:01:01Z</time>
      </trkpt>
      <trkpt lat="-11.6388240" lon="166.9487040">
        <ele>4.8</ele>
        <time>2020-04-19T13:01:02Z</time>
      </trkpt>
      <trkpt lat="-11.6387330" lon="166.9487460">
        <ele>4.6</ele>
        <time>2020-04-19T13:01:03Z</time>
      </trkpt>
      <trkpt lat="-11.6386360" lon="166.9487790">
        <ele>4.4</ele>
        <time>2020-04-19T13:01:04Z</time>
      </trkpt>
      <trkpt lat="-11.6385380" lon="166.9488220">
        <ele>4.0</ele>
        <time>2020-04-19T13:01:05Z</time>
      </trkpt>
      <trkpt lat="-11.6384400" lon="166.9488540">
        <ele>3.8</ele>
        <time>2020-04-19T13:01:06Z</time>
      </trkpt>
      <trkpt lat="-11.6383420" lon="166.9489070">
        <ele>3.6</ele>
        <time>2020-04-19T13:01:07Z</time>
      </trkpt>
      <trkpt lat="-11.6382430" lon="166.9489290">
        <ele>3.4</ele>
        <time>2020-04-19T13:01:08Z</time>
      </trkpt>
      <trkpt lat="-11.6381460" lon="166.9489610">
        <ele>3.2</ele>
        <time>2020-04-19T13:01:09Z</time>
      </trkpt>
      <trkpt lat="-11.6380390" lon="166.9490040">
        <ele>3.0</ele>
        <time>2020-04-19T13:01:10Z</time>
      </trkpt>
      <trkpt lat="-11.6379450" lon="166.9490360">
        <ele>2.8</ele>
        <time>2020-04-19T13:01:11Z</time>
      </trkpt>
      <trkpt lat="-11.6378490" lon="166.9490680">
        <ele>2.4</ele>
        <time>2020-04-19T13:01:12Z</time>
      </trkpt>
      <trkpt lat="-11.6377520" lon="166.9491110">
        <ele>2.2</ele>
        <time>2020-04-19T13:01:13Z</time>
      </trkpt>
      <trkpt lat="-11.6376570" lon="166.9491650">
        <ele>2.2</ele>
        <time>2020-04-19T13:01:14Z</time>
      </trkpt>
      <trkpt lat="-11.6375600" lon="166.9492080">
        <ele>2.0</ele>
        <time>2020-04-19T13:01:15Z</time>
      </trkpt>
      <trkpt lat="-11.6374640" lon="166.9492510">
        <ele>1.8</ele>
        <time>2020-04-19T13:01:16Z</time>
      </trkpt>
      <trkpt lat="-11.6373700" lon="166.9493040">
        <ele>1.6</ele>
        <time>2020-04-19T13:01:17Z</time>
      </trkpt>
      <trkpt lat="-11.6372760" lon="166.9493580">
        <ele>1.6</ele>
        <time>2020-04-19T13:01:18Z</time>
      </trkpt>
      <trkpt lat="-11.6371850" lon="166.9494220">
        <ele>1.4</ele>
        <time>2020-04-19T13:01:19Z</time>
      </trkpt>
      <trkpt lat="-11.6370920" lon="166.9494650">
        <ele>1.4</ele>
        <time>2020-04-19T13:01:20Z</time>
      </trkpt>
      <trkpt lat="-11.6369960" lon="166.9495300">
        <ele>1.4</ele>
        <time>2020-04-19T13:01:21Z</time>
      </trkpt>
      <trkpt lat="-11.6369110" lon="166.9495730">
        <ele>1.2</ele>
        <time>2020-04-19T13:01:22Z</time>
      </trkpt>
      <trkpt lat="-11.6368210" lon="166.9496370">
        <ele>1.2</ele>
        <time>2020-04-19T13:01:23Z</time>
      </trkpt>
      <trkpt lat="-11.6367420" lon="166.9496910">
        <ele>1.2</ele>
        <time>2020-04-19T13:01:24Z</time>
      </trkpt>
      <trkpt lat="-11.6366660" lon="166.9497550">
        <ele>1.2</ele>
        <time>2020-04-19T13:01:25Z</time>
      </trkpt>
      <trkpt lat="-11.6365880" lon="166.9498300">
        <ele>1.4</ele>
        <time>2020-04-19T13:01:26Z</time>
      </trkpt>
      <trkpt lat="-11.6365080" lon="166.9498940">
        <ele>1.4</ele>
        <time>2020-04-19T13:01:27Z</time>
      </trkpt>
      <trkpt lat="-11.6364290" lon="166.9499590">
        <ele>1.4</ele>
        <time>2020-04-19T13:01:28Z</time>
      </trkpt>
      <trkpt lat="-11.6363530" lon="166.9500120">
        <ele>1.4</ele>
        <time>2020-04-19T13:01:29Z</time>
      </trkpt>
      <trkpt lat="-11.6362820" lon="166.9500770">
        <ele>1.4</ele>
        <time>2020-04-19T13:01:30Z</time>
      </trkpt>
      <trkpt lat="-11.6362180" lon="166.9501520">
        <ele>1.4</ele>
        <time>2020-04-19T13:01:31Z</time>
      </trkpt>
      <trkpt lat="-11.6361590" lon="166.9502270">
        <ele>1.4</ele>
        <time>2020-04-19T13:01:32Z</time>
      </trkpt>
      <trkpt lat="-11.6361010" lon="166.9503020">
        <ele>1.6</ele>
        <time>2020-04-19T13:01:33Z</time>
      </trkpt>
      <trkpt lat="-11.6360460" lon="166.9503770">
        <ele>1.6</ele>
        <time>2020-04-19T13:01:34Z</time>
      </trkpt>
      <trkpt lat="-11.6359970" lon="166.9504740">
        <ele>1.6</ele>
        <time>2020-04-19T13:01:35Z</time>
      </trkpt>
      <trkpt lat="-11.6359500" lon="166.9505490">
        <ele>1.6</ele>
        <time>2020-04-19T13:01:36Z</time>
      </trkpt>
      <trkpt lat="-11.6359000" lon="166.9506240">
        <ele>1.6</ele>
        <time>2020-04-19T13:01:37Z</time>
      </trkpt>
      <trkpt lat="-11.6358590" lon="166.9507210">
        <ele>1.6</ele>
        <time>2020-04-19T13:01:38Z</time>
      </trkpt>
      <trkpt lat="-11.6358140" lon="166.9507960">
        <ele>1.6</ele>
        <time>2020-04-19T13:01:39Z</time>
      </trkpt>
      <trkpt lat="-11.6357710" lon="166.9508810">
        <ele>1.6</ele>
        <time>2020-04-19T13:01:40Z</time>
      </trkpt>
      <trkpt lat="-11.6357350" lon="166.9509670">
        <ele>1.6</ele>
        <time>2020-04-19T13:01:41Z</time>
      </trkpt>
      <trkpt lat="-11.6356980" lon="166.9510530">
        <ele>1.6</ele>
        <time>2020-04-19T13:01:42Z</time>
      </trkpt>
      <trkpt lat="-11.6356590" lon="166.9511500">
        <ele>1.6</ele>
        <time>2020-04-19T13:01:43Z</time>
      </trkpt>
      <trkpt lat="-11.6356240" lon="166.9512250">
        <ele>1.6</ele>
        <time>2020-04-19T13:01:44Z</time>
      </trkpt>
      <trkpt lat="-11.6355970" lon="166.9513110">
        <ele>1.6</ele>
        <time>2020-04-19T13:01:45Z</time>
      </trkpt>
      <trkpt lat="-11.6355740" lon="166.9514180">
        <ele>1.6</ele>
        <time>2020-04-19T13:01:46Z</time>
      </trkpt>
      <trkpt lat="-11.6355540" lon="166.9515140">
        <ele>1.6</ele>
        <time>2020-04-19T13:01:47Z</time>
      </trkpt>
      <trkpt lat="-11.6355330" lon="166.9516000">
        <ele>1.6</ele>
        <time>2020-04-19T13:01:48Z</time>
      </trkpt>
      <trkpt lat="-11.6355140" lon="166.9516970">
        <ele>1.6</ele>
        <time>2020-04-19T13:01:49Z</time>
      </trkpt>
      <trkpt lat="-11.6354980" lon="166.9517830">
        <ele>1.6</ele>
        <time>2020-04-19T13:01:50Z</time>
      </trkpt>
      <trkpt lat="-11.6354880" lon="166.9518790">
        <ele>1.6</ele>
        <time>2020-04-19T13:01:51Z</time>
      </trkpt>
      <trkpt lat="-11.6354880" lon="166.9519870">
        <ele>1.6</ele>
        <time>2020-04-19T13:01:52Z</time>
      </trkpt>
      <trkpt lat="-11.6354960" lon="166.9520720">
        <ele>1.6</ele>
        <time>2020-04-19T13:01:53Z</time>
      </trkpt>
      <trkpt lat="-11.6355070" lon="166.9521690">
        <ele>1.6</ele>
        <time>2020-04-19T13:01:54Z</time>
      </trkpt>
      <trkpt lat="-11.6355250" lon="166.9522550">
        <ele>1.6</ele>
        <time>2020-04-19T13:01:55Z</time>
      </trkpt>
      <trkpt lat="-11.6355540" lon="166.9523620">
        <ele>1.6</ele>
        <time>2020-04-19T13:01:56Z</time>
      </trkpt>
      <trkpt lat="-11.6355940" lon="166.9524590">
        <ele>1.6</ele>
        <time>2020-04-19T13:01:57Z</time>
      </trkpt>
      <trkpt lat="-11.6356390" lon="166.9525340">
        <ele>1.6</ele>
        <time>2020-04-19T13:01:58Z</time>
      </trkpt>
      <trkpt lat="-11.6356920" lon="166.9526090">
        <ele>1.6</ele>
        <time>2020-04-19T13:01:59Z</time>
      </trkpt>
      <trkpt lat="-11.6357550" lon="166.9526840">
        <ele>1.6</ele>
        <time>2020-04-19T13:02:00Z</time>
      </trkpt>
      <trkpt lat="-11.6358220" lon="166.9527590">
        <ele>1.6</ele>
        <time>2020-04-19T13:02:01Z</time>
      </trkpt>
      <trkpt lat="-11.6358910" lon="166.9528340">
        <ele>1.6</ele>
        <time>2020-04-19T13:02:02Z</time>
      </trkpt>
      <trkpt lat="-11.6359560" lon="166.9528990">
        <ele>1.6</ele>
        <time>2020-04-19T13:02:03Z</time>
      </trkpt>
      <trkpt lat="-11.6360290" lon="166.9529630">
        <ele>1.6</ele>
        <time>2020-04-19T13:02:04Z</time>
      </trkpt>
      <trkpt lat="-11.6361120" lon="166.9530270">
        <ele>1.6</ele>
        <time>2020-04-19T13:02:05Z</time>
      </trkpt>
      <trkpt lat="-11.6361910" lon="166.9530700">
        <ele>1.6</ele>
        <time>2020-04-19T13:02:06Z</time>
      </trkpt>
      <trkpt lat="-11.6362700" lon="166.9531240">
        <ele>1.6</ele>
        <time>2020-04-19T13:02:07Z</time>
      </trkpt>
      <trkpt lat="-11.6363490" lon="166.9531770">
        <ele>1.6</ele>
        <time>2020-04-19T13:02:08Z</time>
      </trkpt>
      <trkpt lat="-11.6364300" lon="166.9532310">
        <ele>1.6</ele>
        <time>2020-04-19T13:02:09Z</time>
      </trkpt>
      <trkpt lat="-11.6365120" lon="166.9532950">
        <ele>1.6</ele>
        <time>2020-04-19T13:02:10Z</time>
      </trkpt>
      <trkpt lat="-11.6365920" lon="166.9533600">
        <ele>1.6</ele>
        <time>2020-04-19T13:02:11Z</time>
      </trkpt>
      <trkpt lat="-11.6366660" lon="166.9534240">
        <ele>1.6</ele>
        <time>2020-04-19T13:02:12Z</time>
      </trkpt>
      <trkpt lat="-11.6367460" lon="166.9534670">
        <ele>1.6</ele>
        <time>2020-04-19T13:02:13Z</time>
      </trkpt>
      <trkpt lat="-11.6368240" lon="166.9535210">
        <ele>1.6</ele>
        <time>2020-04-19T13:02:14Z</time>
      </trkpt>
      <trkpt lat="-11.6368940" lon="166.9535740">
        <ele>1.6</ele>
        <time>2020-04-19T13:02:15Z</time>
      </trkpt>
      <trkpt lat="-11.6369580" lon="166.9536280">
        <ele>1.6</ele>
        <time>2020-04-19T13:02:16Z</time>
      </trkpt>
      <trkpt lat="-11.6370230" lon="166.9536920">
        <ele>1.6</ele>
        <time>2020-04-19T13:02:17Z</time>
      </trkpt>
      <trkpt lat="-11.6370980" lon="166.9537570">
        <ele>1.6</ele>
        <time>2020-04-19T13:02:18Z</time>
      </trkpt>
      <trkpt lat="-11.6371620" lon="166.9538100">
        <ele>1.6</ele>
        <time>2020-04-19T13:02:19Z</time>
      </trkpt>
      <trkpt lat="-11.6372280" lon="166.9538750">
        <ele>1.6</ele>
        <time>2020-04-19T13:02:20Z</time>
      </trkpt>
      <trkpt lat="-11.6372960" lon="166.9539390">
        <ele>1.6</ele>
        <time>2020-04-19T13:02:21Z</time>
      </trkpt>
      <trkpt lat="-11.6373540" lon="166.9540040">
        <ele>1.6</ele>
        <time>2020-04-19T13:02:22Z</time>
      </trkpt>
      <trkpt lat="-11.6373940" lon="166.9540890">
        <ele>1.6</ele>
        <time>2020-04-19T13:02:23Z</time>
      </trkpt>
      <trkpt lat="-11.6374130" lon="166.9541650">
        <ele>1.8</ele>
        <time>2020-04-19T13:02:24Z</time>
      </trkpt>
      <trkpt lat="-11.6374130" lon="166.9542400">
        <ele>1.8</ele>
        <time>2020-04-19T13:02:25Z</time>
      </trkpt>
      <trkpt lat="-11.6373930" lon="166.9543360">
        <ele>1.8</ele>
        <time>2020-04-19T13:02:26Z</time>
      </trkpt>
      <trkpt lat="-11.6373580" lon="166.9544010">
        <ele>2.0</ele>
        <time>2020-04-19T13:02:27Z</time>
      </trkpt>
      <trkpt lat="-11.6373110" lon="166.9544760">
        <ele>2.0</ele>
        <time>2020-04-19T13:02:28Z</time>
      </trkpt>
      <trkpt lat="-11.6372570" lon="166.9545190">
        <ele>2.2</ele>
        <time>2020-04-19T13:02:29Z</time>
      </trkpt>
      <trkpt lat="-11.6372040" lon="166.9545830">
        <ele>2.2</ele>
        <time>2020-04-19T13:02:30Z</time>
      </trkpt>
      <trkpt lat="-11.6371470" lon="166.9546260">
        <ele>2.2</ele>
        <time>2020-04-19T13:02:31Z</time>
      </trkpt>
      <trkpt lat="-11.6370880" lon="166.9546690">
        <ele>2.4</ele>
        <time>2020-04-19T13:02:32Z</time>
      </trkpt>
      <trkpt lat="-11.6370250" lon="166.9547120">
        <ele>2.4</ele>
        <time>2020-04-19T13:02:33Z</time>
      </trkpt>
      <trkpt lat="-11.6369650" lon="166.9547440">
        <ele>2.6</ele>
        <time>2020-04-19T13:02:34Z</time>
      </trkpt>
      <trkpt lat="-11.6369050" lon="166.9547980">
        <ele>2.6</ele>
        <time>2020-04-19T13:02:35Z</time>
      </trkpt>
      <trkpt lat="-11.6368350" lon="166.9548190">
        <ele>2.8</ele>
        <time>2020-04-19T13:02:36Z</time>
      </trkpt>
      <trkpt lat="-11.6367660" lon="166.9548510">
        <ele>2.8</ele>
        <time>2020-04-19T13:02:37Z</time>
      </trkpt>
      <trkpt lat="-11.6367090" lon="166.9549160">
        <ele>3.0</ele>
        <time>2020-04-19T13:02:38Z</time>
      </trkpt>
      <trkpt lat="-11.6366540" lon="166.9549580">
        <ele>3.0</ele>
        <time>2020-04-19T13:02:39Z</time>
      </trkpt>
      <trkpt lat="-11.6366030" lon="166.9550230">
        <ele>3.2</ele>
        <time>2020-04-19T13:02:40Z</time>
      </trkpt>
      <trkpt lat="-11.6365690" lon="166.9550980">
        <ele>3.4</ele>
        <time>2020-04-19T13:02:41Z</time>
      </trkpt>
      <trkpt lat="-11.6365510" lon="166.9551620">
        <ele>3.6</ele>
        <time>2020-04-19T13:02:42Z</time>
      </trkpt>
      <trkpt lat="-11.6365510" lon="166.9552370">
        <ele>3.8</ele>
        <time>2020-04-19T13:02:43Z</time>
      </trkpt>
      <trkpt lat="-11.6365800" lon="166.9553120">
        <ele>4.0</ele>
        <time>2020-04-19T13:02:44Z</time>
      </trkpt>
      <trkpt lat="-11.6366360" lon="166.9553550">
        <ele>4.2</ele>
        <time>2020-04-19T13:02:45Z</time>
      </trkpt>
      <trkpt lat="-11.6366970" lon="166.9553880">
        <ele>4.4</ele>
        <time>2020-04-19T13:02:46Z</time>
      </trkpt>
      <trkpt lat="-11.6367610" lon="166.9553980">
        <ele>4.4</ele>
        <time>2020-04-19T13:02:47Z</time>
      </trkpt>
      <trkpt lat="-11.6368280" lon="166.9554310">
        <ele>4.6</ele>
        <time>2020-04-19T13:02:48Z</time>
      </trkpt>
      <trkpt lat="-11.6368980" lon="166.9554520">
        <ele>4.6</ele>
        <time>2020-04-19T13:02:49Z</time>
      </trkpt>
      <trkpt lat="-11.6369700" lon="166.9554630">
        <ele>4.6</ele>
        <time>2020-04-19T13:02:50Z</time>
      </trkpt>
      <trkpt lat="-11.6370470" lon="166.9554630">
        <ele>4.6</ele>
        <time>2020-04-19T13:02:51Z</time>
      </trkpt>
      <trkpt lat="-11.6371180" lon="166.9554840">
        <ele>4.6</ele>
        <time>2020-04-19T13:02:52Z</time>
      </trkpt>
      <trkpt lat="-11.6371840" lon="166.9555060">
        <ele>4.8</ele>
        <time>2020-04-19T13:02:53Z</time>
      </trkpt>
      <trkpt lat="-11.6372090" lon="166.9555810">
        <ele>4.8</ele>
        <time>2020-04-19T13:02:54Z</time>
      </trkpt>
      <trkpt lat="-11.6372080" lon="166.9556670">
        <ele>4.6</ele>
        <time>2020-04-19T13:02:55Z</time>
      </trkpt>
      <trkpt lat="-11.6372000" lon="166.9557420">
        <ele>4.6</ele>
        <time>2020-04-19T13:02:56Z</time>
      </trkpt>
      <trkpt lat="-11.6371840" lon="166.9558270">
        <ele>4.6</ele>
        <time>2020-04-19T13:02:57Z</time>
      </trkpt>
      <trkpt lat="-11.6371670" lon="166.9559030">
        <ele>4.6</ele>
        <time>2020-04-19T13:02:58Z</time>
      </trkpt>
      <trkpt lat="-11.6371510" lon="166.9559990">
        <ele>4.6</ele>
        <time>2020-04-19T13:02:59Z</time>
      </trkpt>
      <trkpt lat="-11.6371310" lon="166.9560850">
        <ele>4.6</ele>
        <time>2020-04-19T13:03:00Z</time>
      </trkpt>
      <trkpt lat="-11.6371100" lon="166.9561820">
        <ele>4.6</ele>
        <time>2020-04-19T13:03:01Z</time>
      </trkpt>
      <trkpt lat="-11.6370950" lon="166.9562570">
        <ele>4.4</ele>
        <time>2020-04-19T13:03:02Z</time>
      </trkpt>
      <trkpt lat="-11.6370820" lon="166.9563530">
        <ele>4.4</ele>
        <time>2020-04-19T13:03:03Z</time>
      </trkpt>
      <trkpt lat="-11.6370670" lon="166.9564390">
        <ele>4.4</ele>
        <time>2020-04-19T13:03:04Z</time>
      </trkpt>
      <trkpt lat="-11.6370470" lon="166.9565360">
        <ele>4.4</ele>
        <time>2020-04-19T13:03:05Z</time>
      </trkpt>
      <trkpt lat="-11.6370290" lon="166.9566430">
        <ele>4.2</ele>
        <time>2020-04-19T13:03:06Z</time>
      </trkpt>
      <trkpt lat="-11.6370130" lon="166.9567180">
        <ele>4.2</ele>
        <time>2020-04-19T13:03:07Z</time>
      </trkpt>
      <trkpt lat="-11.6369930" lon="166.9568250">
        <ele>4.0</ele>
        <time>2020-04-19T13:03:08Z</time>
      </trkpt>
      <trkpt lat="-11.6369730" lon="166.9569110">
        <ele>3.8</ele>
        <time>2020-04-19T13:03:09Z</time>
      </trkpt>
      <trkpt lat="-11.6369490" lon="166.9570180">
        <ele>3.4</ele>
        <time>2020-04-19T13:03:10Z</time>
      </trkpt>
      <trkpt lat="-11.6369230" lon="166.9571150">
        <ele>3.2</ele>
        <time>2020-04-19T13:03:11Z</time>
      </trkpt>
      <trkpt lat="-11.6368990" lon="166.9572220">
        <ele>2.8</ele>
        <time>2020-04-19T13:03:12Z</time>
      </trkpt>
      <trkpt lat="-11.6368760" lon="166.9573300">
        <ele>2.4</ele>
        <time>2020-04-19T13:03:13Z</time>
      </trkpt>
      <trkpt lat="-11.6368510" lon="166.9574370">
        <ele>2.2</ele>
        <time>2020-04-19T13:03:14Z</time>
      </trkpt>
      <trkpt lat="-11.6368310" lon="166.9575440">
        <ele>1.8</ele>
        <time>2020-04-19T13:03:15Z</time>
      </trkpt>
      <trkpt lat="-11.6368160" lon="166.9576410">
        <ele>1.6</ele>
        <time>2020-04-19T13:03:16Z</time>
      </trkpt>
      <trkpt lat="-11.6368040" lon="166.9577690">
        <ele>1.4</ele>
        <time>2020-04-19T13:03:17Z</time>
      </trkpt>
      <trkpt lat="-11.6367990" lon="166.9578870">
        <ele>1.0</ele>
        <time>2020-04-19T13:03:18Z</time>
      </trkpt>
      <trkpt lat="-11.6367920" lon="166.9579950">
        <ele>0.8</ele>
        <time>2020-04-19T13:03:19Z</time>
      </trkpt>
      <trkpt lat="-11.6367920" lon="166.9581230">
        <ele>0.6</ele>
        <time>2020-04-19T13:03:20Z</time>
      </trkpt>
      <trkpt lat="-11.6368050" lon="166.9582310">
        <ele>0.6</ele>
        <time>2020-04-19T13:03:21Z</time>
      </trkpt>
      <trkpt lat="-11.6368260" lon="166.9583270">
        <ele>0.4</ele>
        <time>2020-04-19T13:03:22Z</time>
      </trkpt>
      <trkpt lat="-11.6368480" lon="166.9584560">
        <ele>0.4</ele>
        <time>2020-04-19T13:03:23Z</time>
      </trkpt>
      <trkpt lat="-11.6368700" lon="166.9585420">
        <ele>0.4</ele>
        <time>2020-04-19T13:03:24Z</time>
      </trkpt>
      <trkpt lat="-11.6368980" lon="166.9586490">
        <ele>0.4</ele>
        <time>2020-04-19T13:03:25Z</time>
      </trkpt>
      <trkpt lat="-11.6369140" lon="166.9587560">
        <ele>0.4</ele>
        <time>2020-04-19T13:03:26Z</time>
      </trkpt>
      <trkpt lat="-11.6369460" lon="166.9588530">
        <ele>0.4</ele>
        <time>2020-04-19T13:03:27Z</time>
      </trkpt>
      <trkpt lat="-11.6369900" lon="166.9589390">
        <ele>0.4</ele>
        <time>2020-04-19T13:03:28Z</time>
      </trkpt>
      <trkpt lat="-11.6370390" lon="166.9590350">
        <ele>0.6</ele>
        <time>2020-04-19T13:03:29Z</time>
      </trkpt>
      <trkpt lat="-11.6370950" lon="166.9591210">
        <ele>0.6</ele>
        <time>2020-04-19T13:03:30Z</time>
      </trkpt>
      <trkpt lat="-11.6371490" lon="166.9592180">
        <ele>0.6</ele>
        <time>2020-04-19T13:03:31Z</time>
      </trkpt>
      <trkpt lat="-11.6372080" lon="166.9592930">
        <ele>0.6</ele>
        <time>2020-04-19T13:03:32Z</time>
      </trkpt>
      <trkpt lat="-11.6372690" lon="166.9593890">
        <ele>0.6</ele>
        <time>2020-04-19T13:03:33Z</time>
      </trkpt>
      <trkpt lat="-11.6373300" lon="166.9594650">
        <ele>0.6</ele>
        <time>2020-04-19T13:03:34Z</time>
      </trkpt>
      <trkpt lat="-11.6373970" lon="166.9595500">
        <ele>0.6</ele>
        <time>2020-04-19T13:03:35Z</time>
      </trkpt>
      <trkpt lat="-11.6374690" lon="166.9596250">
        <ele>0.6</ele>
        <time>2020-04-19T13:03:36Z</time>
      </trkpt>
      <trkpt lat="-11.6375440" lon="166.9597010">
        <ele>0.6</ele>
        <time>2020-04-19T13:03:37Z</time>
      </trkpt>
      <trkpt lat="-11.6376230" lon="166.9597650">
        <ele>0.6</ele>
        <time>2020-04-19T13:03:38Z</time>
      </trkpt>
      <trkpt lat="-11.6377110" lon="166.9598400">
        <ele>0.6</ele>
        <time>2020-04-19T13:03:39Z</time>
      </trkpt>
      <trkpt lat="-11.6378020" lon="166.9599040">
        <ele>0.6</ele>
        <time>2020-04-19T13:03:40Z</time>
      </trkpt>
      <trkpt lat="-11.6378920" lon="166.9599470">
        <ele>0.6</ele>
        <time>2020-04-19T13:03:41Z</time>
      </trkpt>
      <trkpt lat="-11.6379870" lon="166.9600120">
        <ele>0.6</ele>
        <time>2020-04-19T13:03:42Z</time>
      </trkpt>
      <trkpt lat="-11.6380820" lon="166.9600550">
        <ele>0.6</ele>
        <time>2020-04-19T13:03:43Z</time>
      </trkpt>
      <trkpt lat="-11.6381810" lon="166.9601190">
        <ele>0.6</ele>
        <time>2020-04-19T13:03:44Z</time>
      </trkpt>
      <trkpt lat="-11.6382740" lon="166.9601620">
        <ele>0.6</ele>
        <time>2020-04-19T13:03:45Z</time>
      </trkpt>
      <trkpt lat="-11.6383680" lon="166.9602050">
        <ele>0.6</ele>
        <time>2020-04-19T13:03:46Z</time>
      </trkpt>
      <trkpt lat="-11.6384600" lon="166.9602370">
        <ele>0.6</ele>
        <time>2020-04-19T13:03:47Z</time>
      </trkpt>
      <trkpt lat="-11.6385490" lon="166.9602690">
        <ele>0.6</ele>
        <time>2020-04-19T13:03:48Z</time>
      </trkpt>
      <trkpt lat="-11.6386400" lon="166.9603120">
        <ele>0.6</ele>
        <time>2020-04-19T13:03:49Z</time>
      </trkpt>
      <trkpt lat="-11.6387390" lon="166.9603440">
        <ele>0.6</ele>
        <time>2020-04-19T13:03:50Z</time>
      </trkpt>
      <trkpt lat="-11.6388290" lon="166.9603770">
        <ele>0.6</ele>
        <time>2020-04-19T13:03:51Z</time>
      </trkpt>
      <trkpt lat="-11.6389230" lon="166.9604090">
        <ele>0.6</ele>
        <time>2020-04-19T13:03:52Z</time>
      </trkpt>
      <trkpt lat="-11.6390200" lon="166.9604410">
        <ele>0.6</ele>
        <time>2020-04-19T13:03:53Z</time>
      </trkpt>
      <trkpt lat="-11.6391130" lon="166.9604730">
        <ele>0.8</ele>
        <time>2020-04-19T13:03:54Z</time>
      </trkpt>
      <trkpt lat="-11.6392060" lon="166.9604950">
        <ele>1.0</ele>
        <time>2020-04-19T13:03:55Z</time>
      </trkpt>
      <trkpt lat="-11.6393030" lon="166.9605160">
        <ele>1.0</ele>
        <time>2020-04-19T13:03:56Z</time>
      </trkpt>
      <trkpt lat="-11.6394000" lon="166.9605480">
        <ele>0.8</ele>
        <time>2020-04-19T13:03:57Z</time>
      </trkpt>
      <trkpt lat="-11.6395020" lon="166.9605800">
        <ele>0.8</ele>
        <time>2020-04-19T13:03:58Z</time>
      </trkpt>
      <trkpt lat="-11.6395950" lon="166.9605910">
        <ele>0.6</ele>
        <time>2020-04-19T13:03:59Z</time>
      </trkpt>
      <trkpt lat="-11.6396990" lon="166.9606020">
        <ele>0.2</ele>
        <time>2020-04-19T13:04:00Z</time>
      </trkpt>
      <trkpt lat="-11.6398030" lon="166.9606230">
        <ele>-0.2</ele>
        <time>2020-04-19T13:04:01Z</time>
      </trkpt>
      <trkpt lat="-11.6399180" lon="166.9606550">
        <ele>-0.6</ele>
        <time>2020-04-19T13:04:02Z</time>
      </trkpt>
      <trkpt lat="-11.6400240" lon="166.9606660">
        <ele>-1.0</ele>
        <time>2020-04-19T13:04:03Z</time>
      </trkpt>
      <trkpt lat="-11.6401330" lon="166.9606770">
        <ele>-1.4</ele>
        <time>2020-04-19T13:04:04Z</time>
      </trkpt>
      <trkpt lat="-11.6402490" lon="166.9607090">
        <ele>-1.8</ele>
        <time>2020-04-19T13:04:05Z</time>
      </trkpt>
      <trkpt lat="-11.6403540" lon="166.9607310">
        <ele>-2.2</ele>
        <time>2020-04-19T13:04:06Z</time>
      </trkpt>
      <trkpt lat="-11.6404690" lon="166.9607630">
        <ele>-2.6</ele>
        <time>2020-04-19T13:04:07Z</time>
      </trkpt>
      <trkpt lat="-11.6405870" lon="166.9607730">
        <ele>-3.0</ele>
        <time>2020-04-19T13:04:08Z</time>
      </trkpt>
      <trkpt lat="-11.6407000" lon="166.9608060">
        <ele>-3.6</ele>
        <time>2020-04-19T13:04:09Z</time>
      </trkpt>
      <trkpt lat="-11.6408130" lon="166.9608160">
        <ele>-4.0</ele>
        <time>2020-04-19T13:04:10Z</time>
      </trkpt>
      <trkpt lat="-11.6409330" lon="166.9608380">
        <ele>-4.4</ele>
        <time>2020-04-19T13:04:11Z</time>
      </trkpt>
      <trkpt lat="-11.6410490" lon="166.9608700">
        <ele>-4.8</ele>
        <time>2020-04-19T13:04:12Z</time>
      </trkpt>
      <trkpt lat="-11.6411690" lon="166.9608810">
        <ele>-5.2</ele>
        <time>2020-04-19T13:04:13Z</time>
      </trkpt>
      <trkpt lat="-11.6412870" lon="166.9609130">
        <ele>-5.6</ele>
        <time>2020-04-19T13:04:14Z</time>
      </trkpt>
      <trkpt lat="-11.6414040" lon="166.9609450">
        <ele>-5.8</ele>
        <time>2020-04-19T13:04:15Z</time>
      </trkpt>
      <trkpt lat="-11.6415220" lon="166.9609560">
        <ele>-5.8</ele>
        <time>2020-04-19T13:04:16Z</time>
      </trkpt>
      <trkpt lat="-11.6416250" lon="166.9609880">
        <ele>-6.0</ele>
        <time>2020-04-19T13:04:17Z</time>
      </trkpt>
      <trkpt lat="-11.6417270" lon="166.9610200">
        <ele>-6.0</ele>
        <time>2020-04-19T13:04:18Z</time>
      </trkpt>
      <trkpt lat="-11.6418260" lon="166.9610310">
        <ele>-6.0</ele>
        <time>2020-04-19T13:04:19Z</time>
      </trkpt>
      <trkpt lat="-11.6419270" lon="166.9610630">
        <ele>-5.8</ele>
        <time>2020-04-19T13:04:20Z</time>
      </trkpt>
      <trkpt lat="-11.6420200" lon="166.9610950">
        <ele>-5.8</ele>
        <time>2020-04-19T13:04:21Z</time>
      </trkpt>
      <trkpt lat="-11.6421110" lon="166.9611280">
        <ele>-5.8</ele>
        <time>2020-04-19T13:04:22Z</time>
      </trkpt>
      <trkpt lat="-11.6421930" lon="166.9611700">
        <ele>-5.6</ele>
        <time>2020-04-19T13:04:23Z</time>
      </trkpt>
      <trkpt lat="-11.6422820" lon="166.9612030">
        <ele>-5.6</ele>
        <time>2020-04-19T13:04:24Z</time>
      </trkpt>
      <trkpt lat="-11.6423630" lon="166.9612460">
        <ele>-5.6</ele>
        <time>2020-04-19T13:04:25Z</time>
      </trkpt>
      <trkpt lat="-11.6424370" lon="166.9612880">
        <ele>-5.6</ele>
        <time>2020-04-19T13:04:26Z</time>
      </trkpt>
      <trkpt lat="-11.6425060" lon="166.9613420">
        <ele>-5.6</ele>
        <time>2020-04-19T13:04:27Z</time>
      </trkpt>
      <trkpt lat="-11.6425720" lon="166.9613960">
        <ele>-5.4</ele>
        <time>2020-04-19T13:04:28Z</time>
      </trkpt>
      <trkpt lat="-11.6426310" lon="166.9614600">
        <ele>-5.4</ele>
        <time>2020-04-19T13:04:29Z</time>
      </trkpt>
      <trkpt lat="-11.6426810" lon="166.9615240">
        <ele>-5.4</ele>
        <time>2020-04-19T13:04:30Z</time>
      </trkpt>
      <trkpt lat="-11.6427260" lon="166.9615780">
        <ele>-5.4</ele>
        <time>2020-04-19T13:04:31Z</time>
      </trkpt>
      <trkpt lat="-11.6427610" lon="166.9616320">
        <ele>-5.4</ele>
        <time>2020-04-19T13:04:32Z</time>
      </trkpt>
      <trkpt lat="-11.6427930" lon="166.9616850">
        <ele>-5.4</ele>
        <time>2020-04-19T13:04:33Z</time>
      </trkpt>
      <trkpt lat="-11.6428180" lon="166.9617390">
        <ele>-5.4</ele>
        <time>2020-04-19T13:04:34Z</time>
      </trkpt>
      <trkpt lat="-11.6428420" lon="166.9617610">
        <ele>-5.4</ele>
        <time>2020-04-19T13:04:35Z</time>
      </trkpt>
      <trkpt lat="-11.6428660" lon="166.9618140">
        <ele>-5.4</ele>
        <time>2020-04-19T13:04:36Z</time>
      </trkpt>
      <trkpt lat="-11.6428870" lon="166.9618570">
        <ele>-5.4</ele>
        <time>2020-04-19T13:04:37Z</time>
      </trkpt>
      <trkpt lat="-11.6429100" lon="166.9619000">
        <ele>-5.4</ele>
        <time>2020-04-19T13:04:38Z</time>
      </trkpt>
      <trkpt lat="-11.6429300" lon="166.9619540">
        <ele>-5.4</ele>
        <time>2020-04-19T13:04:39Z</time>
      </trkpt>
      <trkpt lat="-11.6429540" lon="166.9620070">
        <ele>-5.4</ele>
        <time>2020-04-19T13:04:40Z</time>
      </trkpt>
      <trkpt lat="-11.6429770" lon="166.9620500">
        <ele>-5.4</ele>
        <time>2020-04-19T13:04:41Z</time>
      </trkpt>
      <trkpt lat="-11.6430010" lon="166.9621040">
        <ele>-5.4</ele>
        <time>2020-04-19T13:04:42Z</time>
      </trkpt>
      <trkpt lat="-11.6430270" lon="166.9621570">
        <ele>-5.4</ele>
        <time>2020-04-19T13:04:43Z</time>
      </trkpt>
      <trkpt lat="-11.6430510" lon="166.9622220">
        <ele>-5.4</ele>
        <time>2020-04-19T13:04:44Z</time>
      </trkpt>
      <trkpt lat="-11.6430760" lon="166.9622860">
        <ele>-5.4</ele>
        <time>2020-04-19T13:04:45Z</time>
      </trkpt>
      <trkpt lat="-11.6431030" lon="166.9623510">
        <ele>-5.4</ele>
        <time>2020-04-19T13:04:46Z</time>
      </trkpt>
      <trkpt lat="-11.6431300" lon="166.9624040">
        <ele>-5.4</ele>
        <time>2020-04-19T13:04:47Z</time>
      </trkpt>
      <trkpt lat="-11.6431580" lon="166.9624690">
        <ele>-5.4</ele>
        <time>2020-04-19T13:04:48Z</time>
      </trkpt>
      <trkpt lat="-11.6431890" lon="166.9625330">
        <ele>-5.4</ele>
        <time>2020-04-19T13:04:49Z</time>
      </trkpt>
      <trkpt lat="-11.6432200" lon="166.9625870">
        <ele>-5.4</ele>
        <time>2020-04-19T13:04:50Z</time>
      </trkpt>
      <trkpt lat="-11.6432520" lon="166.9626510">
        <ele>-5.4</ele>
        <time>2020-04-19T13:04:51Z</time>
      </trkpt>
      <trkpt lat="-11.6432860" lon="166.9626940">
        <ele>-5.4</ele>
        <time>2020-04-19T13:04:52Z</time>
      </trkpt>
      <trkpt lat="-11.6433200" lon="166.9627580">
        <ele>-5.4</ele>
        <time>2020-04-19T13:04:53Z</time>
      </trkpt>
      <trkpt lat="-11.6433580" lon="166.9628010">
        <ele>-5.4</ele>
        <time>2020-04-19T13:04:54Z</time>
      </trkpt>
      <trkpt lat="-11.6433980" lon="166.9628660">
        <ele>-5.4</ele>
        <time>2020-04-19T13:04:55Z</time>
      </trkpt>
      <trkpt lat="-11.6434400" lon="166.9629090">
        <ele>-5.4</ele>
        <time>2020-04-19T13:04:56Z</time>
      </trkpt>
      <trkpt lat="-11.6434840" lon="166.9629410">
        <ele>-5.4</ele>
        <time>2020-04-19T13:04:57Z</time>
      </trkpt>
      <trkpt lat="-11.6435300" lon="166.9629840">
        <ele>-5.4</ele>
        <time>2020-04-19T13:04:58Z</time>
      </trkpt>
      <trkpt lat="-11.6435730" lon="166.9630370">
        <ele>-5.4</ele>
        <time>2020-04-19T13:04:59Z</time>
      </trkpt>
      <trkpt lat="-11.6436170" lon="166.9630590">
        <ele>-5.4</ele>
        <time>2020-04-19T13:05:00Z</time>
      </trkpt>
      <trkpt lat="-11.6436640" lon="166.9631120">
        <ele>-5.4</ele>
        <time>2020-04-19T13:05:01Z</time>
      </trkpt>
      <trkpt lat="-11.6437080" lon="166.9631340">
        <ele>-5.4</ele>
        <time>2020-04-19T13:05:02Z</time>
      </trkpt>
      <trkpt lat="-11.6437520" lon="166.9631660">
        <ele>-5.4</ele>
        <time>2020-04-19T13:05:03Z</time>
      </trkpt>
      <trkpt lat="-11.6437980" lon="166.9631980">
        <ele>-5.4</ele>
        <time>2020-04-19T13:05:04Z</time>
      </trkpt>
      <trkpt lat="-11.6438410" lon="166.9632300">
        <ele>-5.4</ele>
        <time>2020-04-19T13:05:05Z</time>
      </trkpt>
      <trkpt lat="-11.6438780" lon="166.9632410">
        <ele>-5.4</ele>
        <time>2020-04-19T13:05:06Z</time>
      </trkpt>
      <trkpt lat="-11.6439090" lon="166.9632630">
        <ele>-5.4</ele>
        <time>2020-04-19T13:05:07Z</time>
      </trkpt>
      <trkpt lat="-11.6439350" lon="166.9632730">
        <ele>-5.4</ele>
        <time>2020-04-19T13:05:08Z</time>
      </trkpt>
      <trkpt lat="-11.6439530" lon="166.9632950">
        <ele>-5.4</ele>
        <time>2020-04-19T13:05:09Z</time>
      </trkpt>
      <trkpt lat="-11.6439680" lon="166.9632950">
        <ele>-5.4</ele>
        <time>2020-04-19T13:05:10Z</time>
      </trkpt>
      <trkpt lat="-11.6439740" lon="166.9633050">
        <ele>-5.4</ele>
        <time>2020-04-19T13:05:11Z</time>
      </trkpt>
      <trkpt lat="-11.6439740" lon="166.9633050">
        <ele>-5.4</ele>
        <time>2020-04-19T13:05:12Z</time>
      </trkpt>
      <trkpt lat="-11.6439740" lon="166.9633050">
        <ele>-5.4</ele>
        <time>2020-04-19T13:05:13Z</time>
      </trkpt>
      <trkpt lat="-11.6439740" lon="166.9633050">
        <ele>-5.4</ele>
        <time>2020-04-19T13:05:14Z</time>
      </trkpt>
      <trkpt lat="-11.6439740" lon="166.9633050">
        <ele>-5.4</ele>
        <time>2020-04-19T13:05:15Z</time>
      </trkpt>
      <trkpt lat="-11.6439740" lon="166.9633050">
        <ele>-5.4</ele>
        <time>2020-04-19T13:05:16Z</time>
      </trkpt>
      <trkpt lat="-11.6439740" lon="166.9633050">
        <ele>-5.4</ele>
        <time>2020-04-19T13:05:17Z</time>
      </trkpt>
      <trkpt lat="-11.6439740" lon="166.9633050">
        <ele>-5.4</ele>
        <time>2020-04-19T13:05:18Z</time>
      </trkpt>
      <trkpt lat="-11.6439740" lon="166.9633050">
        <ele>-5.4</ele>
        <time>2020-04-19T13:05:19Z</time>
      </trkpt>
      <trkpt lat="-11.6439740" lon="166.9633050">
        <ele>-5.4</ele>
        <time>2020-04-19T13:05:20Z</time>
      </trkpt>
      <trkpt lat="-11.6439740" lon="166.9633050">
        <ele>-5.4</ele>
        <time>2020-04-19T13:05:21Z</time>
      </trkpt>
      <trkpt lat="-11.6439740" lon="166.9633050">
        <ele>-5.4</ele>
        <time>2020-04-19T13:05:22Z</time>
      </trkpt>
      <trkpt lat="-11.6439740" lon="166.9633050">
        <ele>-5.4</ele>
        <time>2020-04-19T13:05:23Z</time>
      </trkpt>
      <trkpt lat="-11.6439740" lon="166.9633050">
        <ele>-5.4</ele>
        <time>2020-04-19T13:05:24Z</time>
      </trkpt>
      <trkpt lat="-11.6439740" lon="166.9633050">
        <ele>-5.4</ele>
        <time>2020-04-19T13:05:25Z</time>
      </trkpt>
      <trkpt lat="-11.6439740" lon="166.9633050">
        <ele>-5.4</ele>
        <time>2020-04-19T13:05:26Z</time>
      </trkpt>
      <trkpt lat="-11.6439740" lon="166.9633050">
        <ele>-5.4</ele>
        <time>2020-04-19T13:05:27Z</time>
      </trkpt>
      <trkpt lat="-11.6439740" lon="166.9633050">
        <ele>-5.4</ele>
        <time>2020-04-19T13:05:28Z</time>
      </trkpt>
      <trkpt lat="-11.6439740" lon="166.9633050">
        <ele>-5.4</ele>
        <time>2020-04-19T13:05:29Z</time>
      </trkpt>
      <trkpt lat="-11.6439740" lon="166.9633050">
        <ele>-5.4</ele>
        <time>2020-04-19T13:05:30Z</time>
      </trkpt>
      <trkpt lat="-11.6439740" lon="166.9633050">
        <ele>-5.4</ele>
        <time>2020-04-19T13:05:31Z</time>
      </trkpt>
      <trkpt lat="-11.6439740" lon="166.9633050">
        <ele>-5.4</ele>
        <time>2020-04-19T13:05:32Z</time>
      </trkpt>
      <trkpt lat="-11.6439740" lon="166.9633050">
        <ele>-5.4</ele>
        <time>2020-04-19T13:05:33Z</time>
      </trkpt>
      <trkpt lat="-11.6439740" lon="166.9633050">
        <ele>-5.4</ele>
        <time>2020-04-19T13:05:34Z</time>
      </trkpt>
      <trkpt lat="-11.6439740" lon="166.9633050">
        <ele>-5.4</ele>
        <time>2020-04-19T13:05:35Z</time>
      </trkpt>
      <trkpt lat="-11.6439740" lon="166.9633050">
        <ele>-5.4</ele>
        <time>2020-04-19T13:05:36Z</time>
      </trkpt>
      <trkpt lat="-11.6439740" lon="166.9633050">
        <ele>-5.4</ele>
        <time>2020-04-19T13:05:37Z</time>
      </trkpt>
      <trkpt lat="-11.6439740" lon="166.9633050">
        <ele>-5.4</ele>
        <time>2020-04-19T13:05:38Z</time>
      </trkpt>
      <trkpt lat="-11.6439740" lon="166.9633050">
        <ele>-5.4</ele>
        <time>2020-04-19T13:05:39Z</time>
      </trkpt>
      <trkpt lat="-11.6439750" lon="166.9633050">
        <ele>-5.4</ele>
        <time>2020-04-19T13:05:40Z</time>
      </trkpt>
      <trkpt lat="-11.6439790" lon="166.9633050">
        <ele>-5.4</ele>
        <time>2020-04-19T13:05:41Z</time>
      </trkpt>
      <trkpt lat="-11.6439860" lon="166.9633050">
        <ele>-5.4</ele>
        <time>2020-04-19T13:05:42Z</time>
      </trkpt>
      <trkpt lat="-11.6440000" lon="166.9633050">
        <ele>-5.4</ele>
        <time>2020-04-19T13:05:43Z</time>
      </trkpt>
      <trkpt lat="-11.6440190" lon="166.9633270">
        <ele>-5.4</ele>
        <time>2020-04-19T13:05:44Z</time>
      </trkpt>
      <trkpt lat="-11.6440420" lon="166.9633380">
        <ele>-5.4</ele>
        <time>2020-04-19T13:05:45Z</time>
      </trkpt>
      <trkpt lat="-11.6440670" lon="166.9633480">
        <ele>-5.4</ele>
        <time>2020-04-19T13:05:46Z</time>
      </trkpt>
      <trkpt lat="-11.6440980" lon="166.9633480">
        <ele>-5.4</ele>
        <time>2020-04-19T13:05:47Z</time>
      </trkpt>
      <trkpt lat="-11.6441330" lon="166.9633810">
        <ele>-5.4</ele>
        <time>2020-04-19T13:05:48Z</time>
      </trkpt>
      <trkpt lat="-11.6441710" lon="166.9634020">
        <ele>-5.4</ele>
        <time>2020-04-19T13:05:49Z</time>
      </trkpt>
      <trkpt lat="-11.6442120" lon="166.9634130">
        <ele>-5.4</ele>
        <time>2020-04-19T13:05:50Z</time>
      </trkpt>
      <trkpt lat="-11.6442570" lon="166.9634230">
        <ele>-5.4</ele>
        <time>2020-04-19T13:05:51Z</time>
      </trkpt>
      <trkpt lat="-11.6443020" lon="166.9634450">
        <ele>-5.4</ele>
        <time>2020-04-19T13:05:52Z</time>
      </trkpt>
      <trkpt lat="-11.6443580" lon="166.9634560">
        <ele>-5.4</ele>
        <time>2020-04-19T13:05:53Z</time>
      </trkpt>
      <trkpt lat="-11.6444090" lon="166.9634770">
        <ele>-5.4</ele>
        <time>2020-04-19T13:05:54Z</time>
      </trkpt>
      <trkpt lat="-11.6444670" lon="166.9634880">
        <ele>-5.4</ele>
        <time>2020-04-19T13:05:55Z</time>
      </trkpt>
      <trkpt lat="-11.6445310" lon="166.9634880">
        <ele>-5.4</ele>
        <time>2020-04-19T13:05:56Z</time>
      </trkpt>
      <trkpt lat="-11.6445930" lon="166.9635090">
        <ele>-5.4</ele>
        <time>2020-04-19T13:05:57Z</time>
      </trkpt>
      <trkpt lat="-11.6446600" lon="166.9635090">
        <ele>-5.4</ele>
        <time>2020-04-19T13:05:58Z</time>
      </trkpt>
      <trkpt lat="-11.6447290" lon="166.9635090">
        <ele>-5.4</ele>
        <time>2020-04-19T13:05:59Z</time>
      </trkpt>
      <trkpt lat="-11.6448010" lon="166.9635090">
        <ele>-5.4</ele>
        <time>2020-04-19T13:06:00Z</time>
      </trkpt>
      <trkpt lat="-11.6448730" lon="166.9635090">
        <ele>-5.4</ele>
        <time>2020-04-19T13:06:01Z</time>
      </trkpt>
      <trkpt lat="-11.6449510" lon="166.9635090">
        <ele>-5.4</ele>
        <time>2020-04-19T13:06:02Z</time>
      </trkpt>
      <trkpt lat="-11.6450250" lon="166.9634880">
        <ele>-5.4</ele>
        <time>2020-04-19T13:06:03Z</time>
      </trkpt>
      <trkpt lat="-11.6451010" lon="166.9634770">
        <ele>-5.4</ele>
        <time>2020-04-19T13:06:04Z</time>
      </trkpt>
      <trkpt lat="-11.6451820" lon="166.9634450">
        <ele>-5.4</ele>
        <time>2020-04-19T13:06:05Z</time>
      </trkpt>
      <trkpt lat="-11.6452610" lon="166.9634230">
        <ele>-5.4</ele>
        <time>2020-04-19T13:06:06Z</time>
      </trkpt>
      <trkpt lat="-11.6453390" lon="166.9633810">
        <ele>-5.4</ele>
        <time>2020-04-19T13:06:07Z</time>
      </trkpt>
      <trkpt lat="-11.6454110" lon="166.9633480">
        <ele>-5.4</ele>
        <time>2020-04-19T13:06:08Z</time>
      </trkpt>
      <trkpt lat="-11.6454900" lon="166.9633050">
        <ele>-5.4</ele>
        <time>2020-04-19T13:06:09Z</time>
      </trkpt>
      <trkpt lat="-11.6455640" lon="166.9632630">
        <ele>-5.4</ele>
        <time>2020-04-19T13:06:10Z</time>
      </trkpt>
      <trkpt lat="-11.6456420" lon="166.9632200">
        <ele>-5.4</ele>
        <time>2020-04-19T13:06:11Z</time>
      </trkpt>
      <trkpt lat="-11.6457160" lon="166.9631660">
        <ele>-5.4</ele>
        <time>2020-04-19T13:06:12Z</time>
      </trkpt>
      <trkpt lat="-11.6457830" lon="166.9631120">
        <ele>-5.4</ele>
        <time>2020-04-19T13:06:13Z</time>
      </trkpt>
      <trkpt lat="-11.6458520" lon="166.9630370">
        <ele>-5.4</ele>
        <time>2020-04-19T13:06:14Z</time>
      </trkpt>
      <trkpt lat="-11.6459140" lon="166.9629730">
        <ele>-5.4</ele>
        <time>2020-04-19T13:06:15Z</time>
      </trkpt>
      <trkpt lat="-11.6459760" lon="166.9629090">
        <ele>-5.4</ele>
        <time>2020-04-19T13:06:16Z</time>
      </trkpt>
      <trkpt lat="-11.6460320" lon="166.9628330">
        <ele>-5.4</ele>
        <time>2020-04-19T13:06:17Z</time>
      </trkpt>
      <trkpt lat="-11.6460910" lon="166.9627580">
        <ele>-5.4</ele>
        <time>2020-04-19T13:06:18Z</time>
      </trkpt>
      <trkpt lat="-11.6461460" lon="166.9626830">
        <ele>-5.4</ele>
        <time>2020-04-19T13:06:19Z</time>
      </trkpt>
      <trkpt lat="-11.6462040" lon="166.9626080">
        <ele>-5.4</ele>
        <time>2020-04-19T13:06:20Z</time>
      </trkpt>
      <trkpt lat="-11.6462600" lon="166.9625330">
        <ele>-5.4</ele>
        <time>2020-04-19T13:06:21Z</time>
      </trkpt>
      <trkpt lat="-11.6463160" lon="166.9624470">
        <ele>-5.4</ele>
        <time>2020-04-19T13:06:22Z</time>
      </trkpt>
      <trkpt lat="-11.6463730" lon="166.9623720">
        <ele>-5.4</ele>
        <time>2020-04-19T13:06:23Z</time>
      </trkpt>
      <trkpt lat="-11.6464280" lon="166.9622970">
        <ele>-5.4</ele>
        <time>2020-04-19T13:06:24Z</time>
      </trkpt>
      <trkpt lat="-11.6464850" lon="166.9622220">
        <ele>-5.4</ele>
        <time>2020-04-19T13:06:25Z</time>
      </trkpt>
      <trkpt lat="-11.6465440" lon="166.9621570">
        <ele>-5.4</ele>
        <time>2020-04-19T13:06:26Z</time>
      </trkpt>
      <trkpt lat="-11.6466030" lon="166.9620820">
        <ele>-5.4</ele>
        <time>2020-04-19T13:06:27Z</time>
      </trkpt>
      <trkpt lat="-11.6466640" lon="166.9619970">
        <ele>-5.4</ele>
        <time>2020-04-19T13:06:28Z</time>
      </trkpt>
      <trkpt lat="-11.6467260" lon="166.9619320">
        <ele>-5.4</ele>
        <time>2020-04-19T13:06:29Z</time>
      </trkpt>
      <trkpt lat="-11.6467870" lon="166.9618570">
        <ele>-5.4</ele>
        <time>2020-04-19T13:06:30Z</time>
      </trkpt>
      <trkpt lat="-11.6468540" lon="166.9617930">
        <ele>-5.4</ele>
        <time>2020-04-19T13:06:31Z</time>
      </trkpt>
      <trkpt lat="-11.6469280" lon="166.9617180">
        <ele>-5.4</ele>
        <time>2020-04-19T13:06:32Z</time>
      </trkpt>
      <trkpt lat="-11.6470000" lon="166.9616640">
        <ele>-5.4</ele>
        <time>2020-04-19T13:06:33Z</time>
      </trkpt>
      <trkpt lat="-11.6470820" lon="166.9616000">
        <ele>-5.4</ele>
        <time>2020-04-19T13:06:34Z</time>
      </trkpt>
      <trkpt lat="-11.6471680" lon="166.9615570">
        <ele>-5.4</ele>
        <time>2020-04-19T13:06:35Z</time>
      </trkpt>
      <trkpt lat="-11.6472630" lon="166.9615240">
        <ele>-5.4</ele>
        <time>2020-04-19T13:06:36Z</time>
      </trkpt>
      <trkpt lat="-11.6473600" lon="166.9614920">
        <ele>-5.4</ele>
        <time>2020-04-19T13:06:37Z</time>
      </trkpt>
      <trkpt lat="-11.6474560" lon="166.9614600">
        <ele>-5.4</ele>
        <time>2020-04-19T13:06:38Z</time>
      </trkpt>
      <trkpt lat="-11.6475570" lon="166.9614490">
        <ele>-5.4</ele>
        <time>2020-04-19T13:06:39Z</time>
      </trkpt>
      <trkpt lat="-11.6476580" lon="166.9614490">
        <ele>-5.4</ele>
        <time>2020-04-19T13:06:40Z</time>
      </trkpt>
      <trkpt lat="-11.6477580" lon="166.9614490">
        <ele>-5.4</ele>
        <time>2020-04-19T13:06:41Z</time>
      </trkpt>
      <trkpt lat="-11.6478590" lon="166.9614490">
        <ele>-5.4</ele>
        <time>2020-04-19T13:06:42Z</time>
      </trkpt>
      <trkpt lat="-11.6479530" lon="166.9614600">
        <ele>-5.4</ele>
        <time>2020-04-19T13:06:43Z</time>
      </trkpt>
      <trkpt lat="-11.6480510" lon="166.9614710">
        <ele>-5.4</ele>
        <time>2020-04-19T13:06:44Z</time>
      </trkpt>
      <trkpt lat="-11.6481360" lon="166.9614920">
        <ele>-5.4</ele>
        <time>2020-04-19T13:06:45Z</time>
      </trkpt>
      <trkpt lat="-11.6482250" lon="166.9615030">
        <ele>-5.4</ele>
        <time>2020-04-19T13:06:46Z</time>
      </trkpt>
      <trkpt lat="-11.6483160" lon="166.9615350">
        <ele>-5.4</ele>
        <time>2020-04-19T13:06:47Z</time>
      </trkpt>
      <trkpt lat="-11.6484030" lon="166.9615570">
        <ele>-5.4</ele>
        <time>2020-04-19T13:06:48Z</time>
      </trkpt>
      <trkpt lat="-11.6484920" lon="166.9615670">
        <ele>-5.4</ele>
        <time>2020-04-19T13:06:49Z</time>
      </trkpt>
      <trkpt lat="-11.6485840" lon="166.9615780">
        <ele>-5.4</ele>
        <time>2020-04-19T13:06:50Z</time>
      </trkpt>
      <trkpt lat="-11.6486730" lon="166.9616000">
        <ele>-5.4</ele>
        <time>2020-04-19T13:06:51Z</time>
      </trkpt>
      <trkpt lat="-11.6487680" lon="166.9616100">
        <ele>-5.4</ele>
        <time>2020-04-19T13:06:52Z</time>
      </trkpt>
      <trkpt lat="-11.6488590" lon="166.9616430">
        <ele>-5.4</ele>
        <time>2020-04-19T13:06:53Z</time>
      </trkpt>
      <trkpt lat="-11.6489610" lon="166.9616640">
        <ele>-5.4</ele>
        <time>2020-04-19T13:06:54Z</time>
      </trkpt>
      <trkpt lat="-11.6490510" lon="166.9616850">
        <ele>-5.4</ele>
        <time>2020-04-19T13:06:55Z</time>
      </trkpt>
      <trkpt lat="-11.6491410" lon="166.9617070">
        <ele>-5.4</ele>
        <time>2020-04-19T13:06:56Z</time>
      </trkpt>
      <trkpt lat="-11.6492370" lon="166.9617390">
        <ele>-5.4</ele>
        <time>2020-04-19T13:06:57Z</time>
      </trkpt>
      <trkpt lat="-11.6493380" lon="166.9617610">
        <ele>-5.4</ele>
        <time>2020-04-19T13:06:58Z</time>
      </trkpt>
      <trkpt lat="-11.6494320" lon="166.9617930">
        <ele>-5.4</ele>
        <time>2020-04-19T13:06:59Z</time>
      </trkpt>
      <trkpt lat="-11.6495150" lon="166.9618250">
        <ele>-5.4</ele>
        <time>2020-04-19T13:07:00Z</time>
      </trkpt>
      <trkpt lat="-11.6496000" lon="166.9618570">
        <ele>-5.4</ele>
        <time>2020-04-19T13:07:01Z</time>
      </trkpt>
      <trkpt lat="-11.6496880" lon="166.9618890">
        <ele>-5.4</ele>
        <time>2020-04-19T13:07:02Z</time>
      </trkpt>
      <trkpt lat="-11.6497750" lon="166.9619210">
        <ele>-5.4</ele>
        <time>2020-04-19T13:07:03Z</time>
      </trkpt>
      <trkpt lat="-11.6498720" lon="166.9619540">
        <ele>-5.4</ele>
        <time>2020-04-19T13:07:04Z</time>
      </trkpt>
      <trkpt lat="-11.6499620" lon="166.9619970">
        <ele>-5.4</ele>
        <time>2020-04-19T13:07:05Z</time>
      </trkpt>
      <trkpt lat="-11.6500570" lon="166.9620290">
        <ele>-5.4</ele>
        <time>2020-04-19T13:07:06Z</time>
      </trkpt>
      <trkpt lat="-11.6501520" lon="166.9620500">
        <ele>-5.4</ele>
        <time>2020-04-19T13:07:07Z</time>
      </trkpt>
      <trkpt lat="-11.6502500" lon="166.9620820">
        <ele>-5.4</ele>
        <time>2020-04-19T13:07:08Z</time>
      </trkpt>
      <trkpt lat="-11.6503420" lon="166.9621360">
        <ele>-5.4</ele>
        <time>2020-04-19T13:07:09Z</time>
      </trkpt>
      <trkpt lat="-11.6504420" lon="166.9621570">
        <ele>-5.4</ele>
        <time>2020-04-19T13:07:10Z</time>
      </trkpt>
      <trkpt lat="-11.6505380" lon="166.9621900">
        <ele>-5.4</ele>
        <time>2020-04-19T13:07:11Z</time>
      </trkpt>
      <trkpt lat="-11.6506380" lon="166.9622430">
        <ele>-5.4</ele>
        <time>2020-04-19T13:07:12Z</time>
      </trkpt>
      <trkpt lat="-11.6507310" lon="166.9622650">
        <ele>-5.4</ele>
        <time>2020-04-19T13:07:13Z</time>
      </trkpt>
      <trkpt lat="-11.6508280" lon="166.9623180">
        <ele>-5.4</ele>
        <time>2020-04-19T13:07:14Z</time>
      </trkpt>
      <trkpt lat="-11.6509270" lon="166.9623510">
        <ele>-5.4</ele>
        <time>2020-04-19T13:07:15Z</time>
      </trkpt>
      <trkpt lat="-11.6510240" lon="166.9623940">
        <ele>-5.4</ele>
        <time>2020-04-19T13:07:16Z</time>
      </trkpt>
      <trkpt lat="-11.6511220" lon="166.9624260">
        <ele>-5.4</ele>
        <time>2020-04-19T13:07:17Z</time>
      </trkpt>
      <trkpt lat="-11.6512180" lon="166.9624470">
        <ele>-5.4</ele>
        <time>2020-04-19T13:07:18Z</time>
      </trkpt>
      <trkpt lat="-11.6513170" lon="166.9625120">
        <ele>-5.4</ele>
        <time>2020-04-19T13:07:19Z</time>
      </trkpt>
      <trkpt lat="-11.6513600" lon="166.9626080">
        <ele>-5.4</ele>
        <time>2020-04-19T13:07:20Z</time>
      </trkpt>
      <trkpt lat="-11.6513350" lon="166.9627150">
        <ele>-5.4</ele>
        <time>2020-04-19T13:07:21Z</time>
      </trkpt>
      <trkpt lat="-11.6512910" lon="166.9628010">
        <ele>-5.4</ele>
        <time>2020-04-19T13:07:22Z</time>
      </trkpt>
      <trkpt lat="-11.6512420" lon="166.9628980">
        <ele>-5.4</ele>
        <time>2020-04-19T13:07:23Z</time>
      </trkpt>
      <trkpt lat="-11.6511980" lon="166.9630050">
        <ele>-5.4</ele>
        <time>2020-04-19T13:07:24Z</time>
      </trkpt>
      <trkpt lat="-11.6511580" lon="166.9630910">
        <ele>-5.4</ele>
        <time>2020-04-19T13:07:25Z</time>
      </trkpt>
      <trkpt lat="-11.6511180" lon="166.9631870">
        <ele>-5.4</ele>
        <time>2020-04-19T13:07:26Z</time>
      </trkpt>
      <trkpt lat="-11.6510760" lon="166.9632730">
        <ele>-5.4</ele>
        <time>2020-04-19T13:07:27Z</time>
      </trkpt>
      <trkpt lat="-11.6510370" lon="166.9633700">
        <ele>-5.4</ele>
        <time>2020-04-19T13:07:28Z</time>
      </trkpt>
      <trkpt lat="-11.6510000" lon="166.9634560">
        <ele>-5.4</ele>
        <time>2020-04-19T13:07:29Z</time>
      </trkpt>
      <trkpt lat="-11.6509630" lon="166.9635520">
        <ele>-5.4</ele>
        <time>2020-04-19T13:07:30Z</time>
      </trkpt>
      <trkpt lat="-11.6509300" lon="166.9636380">
        <ele>-5.4</ele>
        <time>2020-04-19T13:07:31Z</time>
      </trkpt>
      <trkpt lat="-11.6508910" lon="166.9637350">
        <ele>-5.4</ele>
        <time>2020-04-19T13:07:32Z</time>
      </trkpt>
      <trkpt lat="-11.6508550" lon="166.9638100">
        <ele>-5.4</ele>
        <time>2020-04-19T13:07:33Z</time>
      </trkpt>
      <trkpt lat="-11.6508230" lon="166.9639060">
        <ele>-5.4</ele>
        <time>2020-04-19T13:07:34Z</time>
      </trkpt>
      <trkpt lat="-11.6507970" lon="166.9639920">
        <ele>-5.4</ele>
        <time>2020-04-19T13:07:35Z</time>
      </trkpt>
      <trkpt lat="-11.6507880" lon="166.9640890">
        <ele>-5.4</ele>
        <time>2020-04-19T13:07:36Z</time>
      </trkpt>
      <trkpt lat="-11.6508020" lon="166.9641750">
        <ele>-5.4</ele>
        <time>2020-04-19T13:07:37Z</time>
      </trkpt>
      <trkpt lat="-11.6508450" lon="166.9642500">
        <ele>-5.4</ele>
        <time>2020-04-19T13:07:38Z</time>
      </trkpt>
      <trkpt lat="-11.6509140" lon="166.9643140">
        <ele>-5.4</ele>
        <time>2020-04-19T13:07:39Z</time>
      </trkpt>
      <trkpt lat="-11.6509890" lon="166.9643570">
        <ele>-5.4</ele>
        <time>2020-04-19T13:07:40Z</time>
      </trkpt>
      <trkpt lat="-11.6510690" lon="166.9644210">
        <ele>-5.4</ele>
        <time>2020-04-19T13:07:41Z</time>
      </trkpt>
      <trkpt lat="-11.6511460" lon="166.9644530">
        <ele>-5.4</ele>
        <time>2020-04-19T13:07:42Z</time>
      </trkpt>
      <trkpt lat="-11.6512250" lon="166.9644960">
        <ele>-5.4</ele>
        <time>2020-04-19T13:07:43Z</time>
      </trkpt>
      <trkpt lat="-11.6513080" lon="166.9645290">
        <ele>-5.4</ele>
        <time>2020-04-19T13:07:44Z</time>
      </trkpt>
      <trkpt lat="-11.6513940" lon="166.9645710">
        <ele>-5.4</ele>
        <time>2020-04-19T13:07:45Z</time>
      </trkpt>
      <trkpt lat="-11.6514780" lon="166.9646040">
        <ele>-5.4</ele>
        <time>2020-04-19T13:07:46Z</time>
      </trkpt>
      <trkpt lat="-11.6515670" lon="166.9646470">
        <ele>-5.4</ele>
        <time>2020-04-19T13:07:47Z</time>
      </trkpt>
      <trkpt lat="-11.6516500" lon="166.9646790">
        <ele>-5.4</ele>
        <time>2020-04-19T13:07:48Z</time>
      </trkpt>
      <trkpt lat="-11.6517370" lon="166.9647110">
        <ele>-5.4</ele>
        <time>2020-04-19T13:07:49Z</time>
      </trkpt>
      <trkpt lat="-11.6518200" lon="166.9647430">
        <ele>-5.4</ele>
        <time>2020-04-19T13:07:50Z</time>
      </trkpt>
      <trkpt lat="-11.6519120" lon="166.9647860">
        <ele>-5.4</ele>
        <time>2020-04-19T13:07:51Z</time>
      </trkpt>
      <trkpt lat="-11.6519970" lon="166.9648180">
        <ele>-5.4</ele>
        <time>2020-04-19T13:07:52Z</time>
      </trkpt>
      <trkpt lat="-11.6520860" lon="166.9648500">
        <ele>-5.4</ele>
        <time>2020-04-19T13:07:53Z</time>
      </trkpt>
      <trkpt lat="-11.6521720" lon="166.9648930">
        <ele>-5.4</ele>
        <time>2020-04-19T13:07:54Z</time>
      </trkpt>
      <trkpt lat="-11.6522580" lon="166.9649260">
        <ele>-5.4</ele>
        <time>2020-04-19T13:07:55Z</time>
      </trkpt>
      <trkpt lat="-11.6523450" lon="166.9649580">
        <ele>-5.4</ele>
        <time>2020-04-19T13:07:56Z</time>
      </trkpt>
      <trkpt lat="-11.6524280" lon="166.9649900">
        <ele>-5.4</ele>
        <time>2020-04-19T13:07:57Z</time>
      </trkpt>
      <trkpt lat="-11.6525180" lon="166.9650110">
        <ele>-5.4</ele>
        <time>2020-04-19T13:07:58Z</time>
      </trkpt>
      <trkpt lat="-11.6525980" lon="166.9650440">
        <ele>-5.4</ele>
        <time>2020-04-19T13:07:59Z</time>
      </trkpt>
      <trkpt lat="-11.6526870" lon="166.9650970">
        <ele>-5.4</ele>
        <time>2020-04-19T13:08:00Z</time>
      </trkpt>
      <trkpt lat="-11.6527700" lon="166.9651190">
        <ele>-5.4</ele>
        <time>2020-04-19T13:08:01Z</time>
      </trkpt>
      <trkpt lat="-11.6528580" lon="166.9651510">
        <ele>-5.4</ele>
        <time>2020-04-19T13:08:02Z</time>
      </trkpt>
      <trkpt lat="-11.6529430" lon="166.9651830">
        <ele>-5.4</ele>
        <time>2020-04-19T13:08:03Z</time>
      </trkpt>
      <trkpt lat="-11.6530270" lon="166.9652150">
        <ele>-5.4</ele>
        <time>2020-04-19T13:08:04Z</time>
      </trkpt>
      <trkpt lat="-11.6531120" lon="166.9652470">
        <ele>-5.4</ele>
        <time>2020-04-19T13:08:05Z</time>
      </trkpt>
      <trkpt lat="-11.6531980" lon="166.9652800">
        <ele>-5.4</ele>
        <time>2020-04-19T13:08:06Z</time>
      </trkpt>
      <trkpt lat="-11.6532850" lon="166.9653010">
        <ele>-5.4</ele>
        <time>2020-04-19T13:08:07Z</time>
      </trkpt>
      <trkpt lat="-11.6533710" lon="166.9653330">
        <ele>-5.4</ele>
        <time>2020-04-19T13:08:08Z</time>
      </trkpt>
      <trkpt lat="-11.6534590" lon="166.9653650">
        <ele>-5.4</ele>
        <time>2020-04-19T13:08:09Z</time>
      </trkpt>
      <trkpt lat="-11.6535400" lon="166.9653980">
        <ele>-5.4</ele>
        <time>2020-04-19T13:08:10Z</time>
      </trkpt>
      <trkpt lat="-11.6536260" lon="166.9654300">
        <ele>-5.4</ele>
        <time>2020-04-19T13:08:11Z</time>
      </trkpt>
      <trkpt lat="-11.6537100" lon="166.9654620">
        <ele>-5.4</ele>
        <time>2020-04-19T13:08:12Z</time>
      </trkpt>
      <trkpt lat="-11.6537890" lon="166.9654830">
        <ele>-5.4</ele>
        <time>2020-04-19T13:08:13Z</time>
      </trkpt>
      <trkpt lat="-11.6538750" lon="166.9655160">
        <ele>-5.4</ele>
        <time>2020-04-19T13:08:14Z</time>
      </trkpt>
      <trkpt lat="-11.6539610" lon="166.9655480">
        <ele>-5.4</ele>
        <time>2020-04-19T13:08:15Z</time>
      </trkpt>
      <trkpt lat="-11.6540510" lon="166.9655800">
        <ele>-5.4</ele>
        <time>2020-04-19T13:08:16Z</time>
      </trkpt>
      <trkpt lat="-11.6541390" lon="166.9656230">
        <ele>-5.4</ele>
        <time>2020-04-19T13:08:17Z</time>
      </trkpt>
      <trkpt lat="-11.6542220" lon="166.9656550">
        <ele>-5.4</ele>
        <time>2020-04-19T13:08:18Z</time>
      </trkpt>
      <trkpt lat="-11.6543150" lon="166.9656870">
        <ele>-5.4</ele>
        <time>2020-04-19T13:08:19Z</time>
      </trkpt>
      <trkpt lat="-11.6544020" lon="166.9657190">
        <ele>-5.4</ele>
        <time>2020-04-19T13:08:20Z</time>
      </trkpt>
      <trkpt lat="-11.6544920" lon="166.9657520">
        <ele>-5.4</ele>
        <time>2020-04-19T13:08:21Z</time>
      </trkpt>
      <trkpt lat="-11.6545820" lon="166.9657840">
        <ele>-5.4</ele>
        <time>2020-04-19T13:08:22Z</time>
      </trkpt>
      <trkpt lat="-11.6546740" lon="166.9658050">
        <ele>-5.6</ele>
        <time>2020-04-19T13:08:23Z</time>
      </trkpt>
      <trkpt lat="-11.6547670" lon="166.9658370">
        <ele>-5.6</ele>
        <time>2020-04-19T13:08:24Z</time>
      </trkpt>
      <trkpt lat="-11.6548610" lon="166.9658800">
        <ele>-5.8</ele>
        <time>2020-04-19T13:08:25Z</time>
      </trkpt>
      <trkpt lat="-11.6549590" lon="166.9659130">
        <ele>-6.0</ele>
        <time>2020-04-19T13:08:26Z</time>
      </trkpt>
      <trkpt lat="-11.6550540" lon="166.9659450">
        <ele>-6.2</ele>
        <time>2020-04-19T13:08:27Z</time>
      </trkpt>
      <trkpt lat="-11.6551570" lon="166.9659880">
        <ele>-6.4</ele>
        <time>2020-04-19T13:08:28Z</time>
      </trkpt>
      <trkpt lat="-11.6552550" lon="166.9660200">
        <ele>-6.2</ele>
        <time>2020-04-19T13:08:29Z</time>
      </trkpt>
      <trkpt lat="-11.6553520" lon="166.9660520">
        <ele>-6.0</ele>
        <time>2020-04-19T13:08:30Z</time>
      </trkpt>
      <trkpt lat="-11.6554430" lon="166.9660840">
        <ele>-5.6</ele>
        <time>2020-04-19T13:08:31Z</time>
      </trkpt>
      <trkpt lat="-11.6555260" lon="166.9661160">
        <ele>-5.0</ele>
        <time>2020-04-19T13:08:32Z</time>
      </trkpt>
      <trkpt lat="-11.6556080" lon="166.9661490">
        <ele>-4.4</ele>
        <time>2020-04-19T13:08:33Z</time>
      </trkpt>
      <trkpt lat="-11.6556840" lon="166.9661590">
        <ele>-3.8</ele>
        <time>2020-04-19T13:08:34Z</time>
      </trkpt>
      <trkpt lat="-11.6557590" lon="166.9661920">
        <ele>-3.4</ele>
        <time>2020-04-19T13:08:35Z</time>
      </trkpt>
      <trkpt lat="-11.6558290" lon="166.9662020">
        <ele>-2.8</ele>
        <time>2020-04-19T13:08:36Z</time>
      </trkpt>
      <trkpt lat="-11.6558920" lon="166.9662240">
        <ele>-2.4</ele>
        <time>2020-04-19T13:08:37Z</time>
      </trkpt>
      <trkpt lat="-11.6559550" lon="166.9662560">
        <ele>-1.8</ele>
        <time>2020-04-19T13:08:38Z</time>
      </trkpt>
      <trkpt lat="-11.6560090" lon="166.9662670">
        <ele>-1.4</ele>
        <time>2020-04-19T13:08:39Z</time>
      </trkpt>
      <trkpt lat="-11.6560640" lon="166.9662770">
        <ele>-1.0</ele>
        <time>2020-04-19T13:08:40Z</time>
      </trkpt>
      <trkpt lat="-11.6561150" lon="166.9662990">
        <ele>-0.6</ele>
        <time>2020-04-19T13:08:41Z</time>
      </trkpt>
      <trkpt lat="-11.6561640" lon="166.9663310">
        <ele>-0.4</ele>
        <time>2020-04-19T13:08:42Z</time>
      </trkpt>
      <trkpt lat="-11.6562130" lon="166.9663420">
        <ele>0.0</ele>
        <time>2020-04-19T13:08:43Z</time>
      </trkpt>
      <trkpt lat="-11.6562580" lon="166.9663630">
        <ele>0.4</ele>
        <time>2020-04-19T13:08:44Z</time>
      </trkpt>
      <trkpt lat="-11.6563020" lon="166.9663740">
        <ele>0.6</ele>
        <time>2020-04-19T13:08:45Z</time>
      </trkpt>
      <trkpt lat="-11.6563410" lon="166.9663740">
        <ele>1.0</ele>
        <time>2020-04-19T13:08:46Z</time>
      </trkpt>
      <trkpt lat="-11.6563840" lon="166.9663850">
        <ele>1.4</ele>
        <time>2020-04-19T13:08:47Z</time>
      </trkpt>
      <trkpt lat="-11.6564240" lon="166.9664060">
        <ele>1.6</ele>
        <time>2020-04-19T13:08:48Z</time>
      </trkpt>
      <trkpt lat="-11.6564630" lon="166.9664170">
        <ele>1.8</ele>
        <time>2020-04-19T13:08:49Z</time>
      </trkpt>
      <trkpt lat="-11.6565020" lon="166.9664380">
        <ele>2.2</ele>
        <time>2020-04-19T13:08:50Z</time>
      </trkpt>
      <trkpt lat="-11.6565410" lon="166.9664490">
        <ele>2.4</ele>
        <time>2020-04-19T13:08:51Z</time>
      </trkpt>
      <trkpt lat="-11.6565830" lon="166.9664700">
        <ele>2.8</ele>
        <time>2020-04-19T13:08:52Z</time>
      </trkpt>
      <trkpt lat="-11.6566190" lon="166.9664700">
        <ele>3.0</ele>
        <time>2020-04-19T13:08:53Z</time>
      </trkpt>
      <trkpt lat="-11.6566590" lon="166.9664810">
        <ele>3.4</ele>
        <time>2020-04-19T13:08:54Z</time>
      </trkpt>
      <trkpt lat="-11.6566980" lon="166.9664920">
        <ele>3.6</ele>
        <time>2020-04-19T13:08:55Z</time>
      </trkpt>
      <trkpt lat="-11.6567380" lon="166.9665130">
        <ele>4.0</ele>
        <time>2020-04-19T13:08:56Z</time>
      </trkpt>
      <trkpt lat="-11.6567740" lon="166.9665240">
        <ele>4.2</ele>
        <time>2020-04-19T13:08:57Z</time>
      </trkpt>
      <trkpt lat="-11.6568160" lon="166.9665460">
        <ele>4.4</ele>
        <time>2020-04-19T13:08:58Z</time>
      </trkpt>
      <trkpt lat="-11.6568540" lon="166.9665460">
        <ele>4.8</ele>
        <time>2020-04-19T13:08:59Z</time>
      </trkpt>
      <trkpt lat="-11.6568940" lon="166.9665560">
        <ele>5.0</ele>
        <time>2020-04-19T13:09:00Z</time>
      </trkpt>
      <trkpt lat="-11.6569330" lon="166.9665670">
        <ele>5.4</ele>
        <time>2020-04-19T13:09:01Z</time>
      </trkpt>
      <trkpt lat="-11.6569730" lon="166.9665880">
        <ele>5.6</ele>
        <time>2020-04-19T13:09:02Z</time>
      </trkpt>
      <trkpt lat="-11.6570130" lon="166.9665990">
        <ele>6.0</ele>
        <time>2020-04-19T13:09:03Z</time>
      </trkpt>
      <trkpt lat="-11.6570550" lon="166.9666210">
        <ele>6.2</ele>
        <time>2020-04-19T13:09:04Z</time>
      </trkpt>
      <trkpt lat="-11.6570960" lon="166.9666310">
        <ele>6.6</ele>
        <time>2020-04-19T13:09:05Z</time>
      </trkpt>
      <trkpt lat="-11.6571370" lon="166.9666530">
        <ele>6.8</ele>
        <time>2020-04-19T13:09:06Z</time>
      </trkpt>
      <trkpt lat="-11.6571830" lon="166.9666640">
        <ele>6.8</ele>
        <time>2020-04-19T13:09:07Z</time>
      </trkpt>
      <trkpt lat="-11.6572290" lon="166.9666740">
        <ele>7.0</ele>
        <time>2020-04-19T13:09:08Z</time>
      </trkpt>
      <trkpt lat="-11.6572770" lon="166.9666960">
        <ele>7.2</ele>
        <time>2020-04-19T13:09:09Z</time>
      </trkpt>
      <trkpt lat="-11.6573280" lon="166.9667070">
        <ele>7.2</ele>
        <time>2020-04-19T13:09:10Z</time>
      </trkpt>
      <trkpt lat="-11.6573810" lon="166.9667280">
        <ele>7.4</ele>
        <time>2020-04-19T13:09:11Z</time>
      </trkpt>
      <trkpt lat="-11.6574340" lon="166.9667390">
        <ele>7.4</ele>
        <time>2020-04-19T13:09:12Z</time>
      </trkpt>
      <trkpt lat="-11.6574930" lon="166.9667710">
        <ele>7.4</ele>
        <time>2020-04-19T13:09:13Z</time>
      </trkpt>
      <trkpt lat="-11.6575520" lon="166.9667820">
        <ele>7.2</ele>
        <time>2020-04-19T13:09:14Z</time>
      </trkpt>
      <trkpt lat="-11.6576140" lon="166.9668140">
        <ele>7.2</ele>
        <time>2020-04-19T13:09:15Z</time>
      </trkpt>
      <trkpt lat="-11.6576780" lon="166.9668350">
        <ele>7.0</ele>
        <time>2020-04-19T13:09:16Z</time>
      </trkpt>
      <trkpt lat="-11.6577510" lon="166.9668570">
        <ele>6.8</ele>
        <time>2020-04-19T13:09:17Z</time>
      </trkpt>
      <trkpt lat="-11.6578180" lon="166.9668780">
        <ele>6.8</ele>
        <time>2020-04-19T13:09:18Z</time>
      </trkpt>
      <trkpt lat="-11.6578930" lon="166.9669100">
        <ele>6.6</ele>
        <time>2020-04-19T13:09:19Z</time>
      </trkpt>
      <trkpt lat="-11.6579640" lon="166.9669430">
        <ele>6.6</ele>
        <time>2020-04-19T13:09:20Z</time>
      </trkpt>
      <trkpt lat="-11.6580420" lon="166.9669640">
        <ele>6.4</ele>
        <time>2020-04-19T13:09:21Z</time>
      </trkpt>
      <trkpt lat="-11.6581210" lon="166.9669850">
        <ele>6.4</ele>
        <time>2020-04-19T13:09:22Z</time>
      </trkpt>
      <trkpt lat="-11.6581990" lon="166.9670180">
        <ele>6.4</ele>
        <time>2020-04-19T13:09:23Z</time>
      </trkpt>
      <trkpt lat="-11.6582790" lon="166.9670500">
        <ele>6.4</ele>
        <time>2020-04-19T13:09:24Z</time>
      </trkpt>
      <trkpt lat="-11.6583580" lon="166.9670610">
        <ele>6.4</ele>
        <time>2020-04-19T13:09:25Z</time>
      </trkpt>
      <trkpt lat="-11.6584370" lon="166.9670930">
        <ele>6.4</ele>
        <time>2020-04-19T13:09:26Z</time>
      </trkpt>
      <trkpt lat="-11.6585210" lon="166.9671250">
        <ele>6.4</ele>
        <time>2020-04-19T13:09:27Z</time>
      </trkpt>
      <trkpt lat="-11.6586000" lon="166.9671360">
        <ele>6.4</ele>
        <time>2020-04-19T13:09:28Z</time>
      </trkpt>
      <trkpt lat="-11.6586840" lon="166.9671680">
        <ele>6.4</ele>
        <time>2020-04-19T13:09:29Z</time>
      </trkpt>
      <trkpt lat="-11.6587670" lon="166.9672000">
        <ele>6.4</ele>
        <time>2020-04-19T13:09:30Z</time>
      </trkpt>
      <trkpt lat="-11.6588450" lon="166.9672320">
        <ele>6.4</ele>
        <time>2020-04-19T13:09:31Z</time>
      </trkpt>
      <trkpt lat="-11.6589240" lon="166.9672430">
        <ele>6.4</ele>
        <time>2020-04-19T13:09:32Z</time>
      </trkpt>
      <trkpt lat="-11.6590060" lon="166.9672750">
        <ele>6.4</ele>
        <time>2020-04-19T13:09:33Z</time>
      </trkpt>
      <trkpt lat="-11.6590820" lon="166.9672860">
        <ele>6.4</ele>
        <time>2020-04-19T13:09:34Z</time>
      </trkpt>
      <trkpt lat="-11.6591620" lon="166.9673180">
        <ele>6.4</ele>
        <time>2020-04-19T13:09:35Z</time>
      </trkpt>
      <trkpt lat="-11.6592390" lon="166.9673400">
        <ele>6.4</ele>
        <time>2020-04-19T13:09:36Z</time>
      </trkpt>
      <trkpt lat="-11.6593210" lon="166.9673610">
        <ele>6.4</ele>
        <time>2020-04-19T13:09:37Z</time>
      </trkpt>
      <trkpt lat="-11.6594000" lon="166.9673930">
        <ele>6.4</ele>
        <time>2020-04-19T13:09:38Z</time>
      </trkpt>
      <trkpt lat="-11.6594770" lon="166.9674150">
        <ele>6.4</ele>
        <time>2020-04-19T13:09:39Z</time>
      </trkpt>
      <trkpt lat="-11.6595570" lon="166.9674470">
        <ele>6.4</ele>
        <time>2020-04-19T13:09:40Z</time>
      </trkpt>
      <trkpt lat="-11.6596360" lon="166.9674680">
        <ele>6.4</ele>
        <time>2020-04-19T13:09:41Z</time>
      </trkpt>
      <trkpt lat="-11.6597210" lon="166.9675000">
        <ele>6.4</ele>
        <time>2020-04-19T13:09:42Z</time>
      </trkpt>
      <trkpt lat="-11.6598010" lon="166.9675220">
        <ele>6.4</ele>
        <time>2020-04-19T13:09:43Z</time>
      </trkpt>
      <trkpt lat="-11.6598780" lon="166.9675430">
        <ele>6.4</ele>
        <time>2020-04-19T13:09:44Z</time>
      </trkpt>
      <trkpt lat="-11.6599600" lon="166.9675760">
        <ele>6.4</ele>
        <time>2020-04-19T13:09:45Z</time>
      </trkpt>
      <trkpt lat="-11.6600430" lon="166.9676080">
        <ele>6.4</ele>
        <time>2020-04-19T13:09:46Z</time>
      </trkpt>
      <trkpt lat="-11.6601290" lon="166.9676400">
        <ele>6.4</ele>
        <time>2020-04-19T13:09:47Z</time>
      </trkpt>
      <trkpt lat="-11.6602080" lon="166.9676720">
        <ele>6.4</ele>
        <time>2020-04-19T13:09:48Z</time>
      </trkpt>
      <trkpt lat="-11.6602920" lon="166.9677040">
        <ele>6.4</ele>
        <time>2020-04-19T13:09:49Z</time>
      </trkpt>
      <trkpt lat="-11.6603740" lon="166.9677360">
        <ele>6.4</ele>
        <time>2020-04-19T13:09:50Z</time>
      </trkpt>
      <trkpt lat="-11.6604570" lon="166.9677580">
        <ele>6.4</ele>
        <time>2020-04-19T13:09:51Z</time>
      </trkpt>
      <trkpt lat="-11.6605440" lon="166.9677900">
        <ele>6.4</ele>
        <time>2020-04-19T13:09:52Z</time>
      </trkpt>
      <trkpt lat="-11.6606260" lon="166.9678220">
        <ele>6.4</ele>
        <time>2020-04-19T13:09:53Z</time>
      </trkpt>
      <trkpt lat="-11.6607090" lon="166.9678650">
        <ele>6.4</ele>
        <time>2020-04-19T13:09:54Z</time>
      </trkpt>
      <trkpt lat="-11.6607870" lon="166.9678970">
        <ele>6.4</ele>
        <time>2020-04-19T13:09:55Z</time>
      </trkpt>
      <trkpt lat="-11.6608700" lon="166.9679300">
        <ele>6.4</ele>
        <time>2020-04-19T13:09:56Z</time>
      </trkpt>
      <trkpt lat="-11.6609530" lon="166.9679730">
        <ele>6.4</ele>
        <time>2020-04-19T13:09:57Z</time>
      </trkpt>
      <trkpt lat="-11.6610310" lon="166.9680050">
        <ele>6.2</ele>
        <time>2020-04-19T13:09:58Z</time>
      </trkpt>
      <trkpt lat="-11.6611160" lon="166.9680480">
        <ele>6.2</ele>
        <time>2020-04-19T13:09:59Z</time>
      </trkpt>
      <trkpt lat="-11.6611910" lon="166.9680800">
        <ele>6.2</ele>
        <time>2020-04-19T13:10:00Z</time>
      </trkpt>
      <trkpt lat="-11.6612700" lon="166.9681330">
        <ele>6.2</ele>
        <time>2020-04-19T13:10:01Z</time>
      </trkpt>
      <trkpt lat="-11.6613530" lon="166.9681760">
        <ele>6.2</ele>
        <time>2020-04-19T13:10:02Z</time>
      </trkpt>
      <trkpt lat="-11.6614310" lon="166.9682190">
        <ele>6.2</ele>
        <time>2020-04-19T13:10:03Z</time>
      </trkpt>
      <trkpt lat="-11.6615090" lon="166.9682620">
        <ele>6.2</ele>
        <time>2020-04-19T13:10:04Z</time>
      </trkpt>
      <trkpt lat="-11.6615890" lon="166.9683160">
        <ele>6.4</ele>
        <time>2020-04-19T13:10:05Z</time>
      </trkpt>
      <trkpt lat="-11.6616670" lon="166.9683590">
        <ele>6.4</ele>
        <time>2020-04-19T13:10:06Z</time>
      </trkpt>
      <trkpt lat="-11.6617490" lon="166.9684230">
        <ele>6.4</ele>
        <time>2020-04-19T13:10:07Z</time>
      </trkpt>
      <trkpt lat="-11.6618160" lon="166.9684660">
        <ele>6.6</ele>
        <time>2020-04-19T13:10:08Z</time>
      </trkpt>
      <trkpt lat="-11.6618840" lon="166.9685300">
        <ele>6.8</ele>
        <time>2020-04-19T13:10:09Z</time>
      </trkpt>
      <trkpt lat="-11.6619440" lon="166.9685840">
        <ele>6.8</ele>
        <time>2020-04-19T13:10:10Z</time>
      </trkpt>
      <trkpt lat="-11.6620030" lon="166.9686590">
        <ele>7.0</ele>
        <time>2020-04-19T13:10:11Z</time>
      </trkpt>
      <trkpt lat="-11.6620560" lon="166.9687240">
        <ele>7.2</ele>
        <time>2020-04-19T13:10:12Z</time>
      </trkpt>
      <trkpt lat="-11.6621120" lon="166.9687990">
        <ele>7.4</ele>
        <time>2020-04-19T13:10:13Z</time>
      </trkpt>
      <trkpt lat="-11.6621620" lon="166.9688630">
        <ele>7.8</ele>
        <time>2020-04-19T13:10:14Z</time>
      </trkpt>
      <trkpt lat="-11.6622210" lon="166.9689170">
        <ele>8.0</ele>
        <time>2020-04-19T13:10:15Z</time>
      </trkpt>
      <trkpt lat="-11.6622900" lon="166.9689700">
        <ele>8.6</ele>
        <time>2020-04-19T13:10:16Z</time>
      </trkpt>
      <trkpt lat="-11.6623670" lon="166.9689700">
        <ele>9.4</ele>
        <time>2020-04-19T13:10:17Z</time>
      </trkpt>
      <trkpt lat="-11.6624270" lon="166.9689380">
        <ele>10.2</ele>
        <time>2020-04-19T13:10:18Z</time>
      </trkpt>
      <trkpt lat="-11.6624820" lon="166.9689060">
        <ele>10.8</ele>
        <time>2020-04-19T13:10:19Z</time>
      </trkpt>
      <trkpt lat="-11.6625220" lon="166.9688630">
        <ele>11.4</ele>
        <time>2020-04-19T13:10:20Z</time>
      </trkpt>
      <trkpt lat="-11.6625610" lon="166.9688310">
        <ele>11.8</ele>
        <time>2020-04-19T13:10:21Z</time>
      </trkpt>
      <trkpt lat="-11.6625950" lon="166.9687880">
        <ele>12.4</ele>
        <time>2020-04-19T13:10:22Z</time>
      </trkpt>
      <trkpt lat="-11.6626260" lon="166.9687560">
        <ele>12.8</ele>
        <time>2020-04-19T13:10:23Z</time>
      </trkpt>
      <trkpt lat="-11.6626550" lon="166.9687130">
        <ele>13.2</ele>
        <time>2020-04-19T13:10:24Z</time>
      </trkpt>
      <trkpt lat="-11.6626830" lon="166.9686810">
        <ele>13.6</ele>
        <time>2020-04-19T13:10:25Z</time>
      </trkpt>
      <trkpt lat="-11.6627100" lon="166.9686480">
        <ele>14.0</ele>
        <time>2020-04-19T13:10:26Z</time>
      </trkpt>
      <trkpt lat="-11.6627370" lon="166.9686060">
        <ele>14.4</ele>
        <time>2020-04-19T13:10:27Z</time>
      </trkpt>
      <trkpt lat="-11.6627640" lon="166.9685730">
        <ele>14.8</ele>
        <time>2020-04-19T13:10:28Z</time>
      </trkpt>
      <trkpt lat="-11.6627920" lon="166.9685410">
        <ele>15.2</ele>
        <time>2020-04-19T13:10:29Z</time>
      </trkpt>
      <trkpt lat="-11.6628190" lon="166.9685090">
        <ele>15.4</ele>
        <time>2020-04-19T13:10:30Z</time>
      </trkpt>
      <trkpt lat="-11.6628480" lon="166.9684660">
        <ele>15.8</ele>
        <time>2020-04-19T13:10:31Z</time>
      </trkpt>
      <trkpt lat="-11.6628820" lon="166.9684340">
        <ele>16.2</ele>
        <time>2020-04-19T13:10:32Z</time>
      </trkpt>
      <trkpt lat="-11.6629150" lon="166.9684020">
        <ele>16.6</ele>
        <time>2020-04-19T13:10:33Z</time>
      </trkpt>
      <trkpt lat="-11.6629490" lon="166.9683910">
        <ele>16.8</ele>
        <time>2020-04-19T13:10:34Z</time>
      </trkpt>
      <trkpt lat="-11.6629840" lon="166.9683370">
        <ele>17.2</ele>
        <time>2020-04-19T13:10:35Z</time>
      </trkpt>
      <trkpt lat="-11.6630200" lon="166.9683160">
        <ele>17.6</ele>
        <time>2020-04-19T13:10:36Z</time>
      </trkpt>
      <trkpt lat="-11.6630560" lon="166.9682840">
        <ele>17.8</ele>
        <time>2020-04-19T13:10:37Z</time>
      </trkpt>
      <trkpt lat="-11.6630960" lon="166.9682620">
        <ele>18.2</ele>
        <time>2020-04-19T13:10:38Z</time>
      </trkpt>
      <trkpt lat="-11.6631410" lon="166.9682300">
        <ele>18.4</ele>
        <time>2020-04-19T13:10:39Z</time>
      </trkpt>
      <trkpt lat="-11.6631850" lon="166.9682190">
        <ele>18.8</ele>
        <time>2020-04-19T13:10:40Z</time>
      </trkpt>
      <trkpt lat="-11.6632330" lon="166.9682190">
        <ele>19.2</ele>
        <time>2020-04-19T13:10:41Z</time>
      </trkpt>
      <trkpt lat="-11.6632790" lon="166.9682190">
        <ele>19.4</ele>
        <time>2020-04-19T13:10:42Z</time>
      </trkpt>
      <trkpt lat="-11.6633230" lon="166.9682190">
        <ele>19.8</ele>
        <time>2020-04-19T13:10:43Z</time>
      </trkpt>
      <trkpt lat="-11.6633660" lon="166.9682190">
        <ele>20.0</ele>
        <time>2020-04-19T13:10:44Z</time>
      </trkpt>
      <trkpt lat="-11.6634100" lon="166.9682300">
        <ele>20.4</ele>
        <time>2020-04-19T13:10:45Z</time>
      </trkpt>
      <trkpt lat="-11.6634500" lon="166.9682510">
        <ele>20.6</ele>
        <time>2020-04-19T13:10:46Z</time>
      </trkpt>
      <trkpt lat="-11.6634880" lon="166.9682620">
        <ele>21.0</ele>
        <time>2020-04-19T13:10:47Z</time>
      </trkpt>
      <trkpt lat="-11.6635220" lon="166.9682940">
        <ele>21.2</ele>
        <time>2020-04-19T13:10:48Z</time>
      </trkpt>
      <trkpt lat="-11.6635510" lon="166.9683270">
        <ele>21.6</ele>
        <time>2020-04-19T13:10:49Z</time>
      </trkpt>
      <trkpt lat="-11.6635740" lon="166.9683590">
        <ele>22.0</ele>
        <time>2020-04-19T13:10:50Z</time>
      </trkpt>
      <trkpt lat="-11.6635930" lon="166.9684020">
        <ele>22.2</ele>
        <time>2020-04-19T13:10:51Z</time>
      </trkpt>
      <trkpt lat="-11.6636070" lon="166.9684340">
        <ele>22.6</ele>
        <time>2020-04-19T13:10:52Z</time>
      </trkpt>
      <trkpt lat="-11.6636210" lon="166.9684770">
        <ele>22.8</ele>
        <time>2020-04-19T13:10:53Z</time>
      </trkpt>
      <trkpt lat="-11.6636290" lon="166.9685090">
        <ele>23.0</ele>
        <time>2020-04-19T13:10:54Z</time>
      </trkpt>
      <trkpt lat="-11.6636370" lon="166.9685520">
        <ele>23.2</ele>
        <time>2020-04-19T13:10:55Z</time>
      </trkpt>
      <trkpt lat="-11.6636410" lon="166.9686060">
        <ele>23.6</ele>
        <time>2020-04-19T13:10:56Z</time>
      </trkpt>
      <trkpt lat="-11.6636420" lon="166.9686480">
        <ele>23.8</ele>
        <time>2020-04-19T13:10:57Z</time>
      </trkpt>
      <trkpt lat="-11.6636410" lon="166.9686910">
        <ele>24.0</ele>
        <time>2020-04-19T13:10:58Z</time>
      </trkpt>
      <trkpt lat="-11.6636370" lon="166.9687340">
        <ele>24.4</ele>
        <time>2020-04-19T13:10:59Z</time>
      </trkpt>
      <trkpt lat="-11.6636300" lon="166.9687880">
        <ele>24.6</ele>
        <time>2020-04-19T13:11:00Z</time>
      </trkpt>
      <trkpt lat="-11.6636190" lon="166.9688310">
        <ele>25.0</ele>
        <time>2020-04-19T13:11:01Z</time>
      </trkpt>
      <trkpt lat="-11.6636050" lon="166.9688740">
        <ele>25.4</ele>
        <time>2020-04-19T13:11:02Z</time>
      </trkpt>
      <trkpt lat="-11.6635850" lon="166.9689060">
        <ele>25.6</ele>
        <time>2020-04-19T13:11:03Z</time>
      </trkpt>
      <trkpt lat="-11.6635620" lon="166.9689380">
        <ele>26.0</ele>
        <time>2020-04-19T13:11:04Z</time>
      </trkpt>
      <trkpt lat="-11.6635350" lon="166.9689810">
        <ele>26.2</ele>
        <time>2020-04-19T13:11:05Z</time>
      </trkpt>
      <trkpt lat="-11.6635070" lon="166.9690130">
        <ele>26.6</ele>
        <time>2020-04-19T13:11:06Z</time>
      </trkpt>
      <trkpt lat="-11.6634760" lon="166.9690240">
        <ele>26.8</ele>
        <time>2020-04-19T13:11:07Z</time>
      </trkpt>
      <trkpt lat="-11.6634450" lon="166.9690560">
        <ele>27.2</ele>
        <time>2020-04-19T13:11:08Z</time>
      </trkpt>
      <trkpt lat="-11.6634140" lon="166.9690880">
        <ele>27.4</ele>
        <time>2020-04-19T13:11:09Z</time>
      </trkpt>
      <trkpt lat="-11.6633830" lon="166.9691210">
        <ele>27.8</ele>
        <time>2020-04-19T13:11:10Z</time>
      </trkpt>
      <trkpt lat="-11.6633500" lon="166.9691310">
        <ele>28.0</ele>
        <time>2020-04-19T13:11:11Z</time>
      </trkpt>
      <trkpt lat="-11.6633180" lon="166.9691630">
        <ele>28.4</ele>
        <time>2020-04-19T13:11:12Z</time>
      </trkpt>
      <trkpt lat="-11.6632870" lon="166.9691960">
        <ele>28.6</ele>
        <time>2020-04-19T13:11:13Z</time>
      </trkpt>
      <trkpt lat="-11.6632530" lon="166.9692170">
        <ele>29.0</ele>
        <time>2020-04-19T13:11:14Z</time>
      </trkpt>
      <trkpt lat="-11.6632210" lon="166.9692390">
        <ele>29.4</ele>
        <time>2020-04-19T13:11:15Z</time>
      </trkpt>
      <trkpt lat="-11.6631920" lon="166.9692710">
        <ele>29.6</ele>
        <time>2020-04-19T13:11:16Z</time>
      </trkpt>
      <trkpt lat="-11.6631590" lon="166.9692920">
        <ele>30.0</ele>
        <time>2020-04-19T13:11:17Z</time>
      </trkpt>
      <trkpt lat="-11.6631310" lon="166.9693140">
        <ele>30.2</ele>
        <time>2020-04-19T13:11:18Z</time>
      </trkpt>
      <trkpt lat="-11.6631030" lon="166.9693460">
        <ele>30.6</ele>
        <time>2020-04-19T13:11:19Z</time>
      </trkpt>
      <trkpt lat="-11.6630780" lon="166.9693990">
        <ele>31.0</ele>
        <time>2020-04-19T13:11:20Z</time>
      </trkpt>
      <trkpt lat="-11.6630560" lon="166.9694210">
        <ele>31.2</ele>
        <time>2020-04-19T13:11:21Z</time>
      </trkpt>
      <trkpt lat="-11.6630370" lon="166.9694530">
        <ele>31.6</ele>
        <time>2020-04-19T13:11:22Z</time>
      </trkpt>
      <trkpt lat="-11.6630270" lon="166.9694850">
        <ele>32.0</ele>
        <time>2020-04-19T13:11:23Z</time>
      </trkpt>
      <trkpt lat="-11.6630200" lon="166.9695280">
        <ele>32.2</ele>
        <time>2020-04-19T13:11:24Z</time>
      </trkpt>
      <trkpt lat="-11.6630190" lon="166.9695820">
        <ele>32.6</ele>
        <time>2020-04-19T13:11:25Z</time>
      </trkpt>
      <trkpt lat="-11.6630200" lon="166.9696030">
        <ele>32.8</ele>
        <time>2020-04-19T13:11:26Z</time>
      </trkpt>
      <trkpt lat="-11.6630230" lon="166.9696570">
        <ele>33.2</ele>
        <time>2020-04-19T13:11:27Z</time>
      </trkpt>
      <trkpt lat="-11.6630290" lon="166.9697000">
        <ele>33.4</ele>
        <time>2020-04-19T13:11:28Z</time>
      </trkpt>
      <trkpt lat="-11.6630360" lon="166.9697430">
        <ele>33.6</ele>
        <time>2020-04-19T13:11:29Z</time>
      </trkpt>
      <trkpt lat="-11.6630430" lon="166.9697960">
        <ele>34.0</ele>
        <time>2020-04-19T13:11:30Z</time>
      </trkpt>
      <trkpt lat="-11.6630510" lon="166.9698390">
        <ele>34.2</ele>
        <time>2020-04-19T13:11:31Z</time>
      </trkpt>
      <trkpt lat="-11.6630590" lon="166.9698820">
        <ele>34.4</ele>
        <time>2020-04-19T13:11:32Z</time>
      </trkpt>
      <trkpt lat="-11.6630660" lon="166.9699140">
        <ele>34.8</ele>
        <time>2020-04-19T13:11:33Z</time>
      </trkpt>
      <trkpt lat="-11.6630700" lon="166.9699790">
        <ele>35.2</ele>
        <time>2020-04-19T13:11:34Z</time>
      </trkpt>
      <trkpt lat="-11.6630700" lon="166.9700220">
        <ele>35.4</ele>
        <time>2020-04-19T13:11:35Z</time>
      </trkpt>
      <trkpt lat="-11.6630660" lon="166.9700540">
        <ele>35.8</ele>
        <time>2020-04-19T13:11:36Z</time>
      </trkpt>
      <trkpt lat="-11.6630560" lon="166.9700970">
        <ele>36.0</ele>
        <time>2020-04-19T13:11:37Z</time>
      </trkpt>
      <trkpt lat="-11.6630430" lon="166.9701400">
        <ele>36.4</ele>
        <time>2020-04-19T13:11:38Z</time>
      </trkpt>
      <trkpt lat="-11.6630240" lon="166.9701720">
        <ele>36.8</ele>
        <time>2020-04-19T13:11:39Z</time>
      </trkpt>
      <trkpt lat="-11.6630040" lon="166.9702150">
        <ele>37.2</ele>
        <time>2020-04-19T13:11:40Z</time>
      </trkpt>
      <trkpt lat="-11.6629810" lon="166.9702470">
        <ele>37.4</ele>
        <time>2020-04-19T13:11:41Z</time>
      </trkpt>
      <trkpt lat="-11.6629570" lon="166.9702790">
        <ele>37.8</ele>
        <time>2020-04-19T13:11:42Z</time>
      </trkpt>
      <trkpt lat="-11.6629330" lon="166.9703110">
        <ele>38.2</ele>
        <time>2020-04-19T13:11:43Z</time>
      </trkpt>
      <trkpt lat="-11.6629060" lon="166.9703440">
        <ele>38.4</ele>
        <time>2020-04-19T13:11:44Z</time>
      </trkpt>
      <trkpt lat="-11.6628820" lon="166.9703760">
        <ele>38.8</ele>
        <time>2020-04-19T13:11:45Z</time>
      </trkpt>
      <trkpt lat="-11.6628550" lon="166.9703870">
        <ele>39.2</ele>
        <time>2020-04-19T13:11:46Z</time>
      </trkpt>
      <trkpt lat="-11.6628280" lon="166.9704190">
        <ele>39.6</ele>
        <time>2020-04-19T13:11:47Z</time>
      </trkpt>
      <trkpt lat="-11.6628040" lon="166.9704510">
        <ele>39.8</ele>
        <time>2020-04-19T13:11:48Z</time>
      </trkpt>
      <trkpt lat="-11.6627790" lon="166.9704830">
        <ele>40.2</ele>
        <time>2020-04-19T13:11:49Z</time>
      </trkpt>
      <trkpt lat="-11.6627530" lon="166.9704940">
        <ele>40.6</ele>
        <time>2020-04-19T13:11:50Z</time>
      </trkpt>
      <trkpt lat="-11.6627300" lon="166.9705260">
        <ele>41.0</ele>
        <time>2020-04-19T13:11:51Z</time>
      </trkpt>
      <trkpt lat="-11.6627070" lon="166.9705580">
        <ele>41.2</ele>
        <time>2020-04-19T13:11:52Z</time>
      </trkpt>
      <trkpt lat="-11.6626900" lon="166.9705900">
        <ele>41.6</ele>
        <time>2020-04-19T13:11:53Z</time>
      </trkpt>
      <trkpt lat="-11.6626750" lon="166.9706120">
        <ele>42.0</ele>
        <time>2020-04-19T13:11:54Z</time>
      </trkpt>
      <trkpt lat="-11.6626630" lon="166.9706440">
        <ele>42.4</ele>
        <time>2020-04-19T13:11:55Z</time>
      </trkpt>
      <trkpt lat="-11.6626580" lon="166.9706760">
        <ele>42.8</ele>
        <time>2020-04-19T13:11:56Z</time>
      </trkpt>
      <trkpt lat="-11.6626570" lon="166.9707080">
        <ele>43.2</ele>
        <time>2020-04-19T13:11:57Z</time>
      </trkpt>
      <trkpt lat="-11.6626580" lon="166.9707410">
        <ele>43.4</ele>
        <time>2020-04-19T13:11:58Z</time>
      </trkpt>
      <trkpt lat="-11.6626580" lon="166.9707830">
        <ele>43.8</ele>
        <time>2020-04-19T13:11:59Z</time>
      </trkpt>
      <trkpt lat="-11.6626630" lon="166.9708160">
        <ele>44.0</ele>
        <time>2020-04-19T13:12:00Z</time>
      </trkpt>
      <trkpt lat="-11.6626740" lon="166.9708590">
        <ele>44.4</ele>
        <time>2020-04-19T13:12:01Z</time>
      </trkpt>
      <trkpt lat="-11.6626860" lon="166.9708910">
        <ele>44.6</ele>
        <time>2020-04-19T13:12:02Z</time>
      </trkpt>
      <trkpt lat="-11.6626990" lon="166.9709230">
        <ele>45.0</ele>
        <time>2020-04-19T13:12:03Z</time>
      </trkpt>
      <trkpt lat="-11.6627170" lon="166.9709660">
        <ele>45.2</ele>
        <time>2020-04-19T13:12:04Z</time>
      </trkpt>
      <trkpt lat="-11.6627340" lon="166.9709980">
        <ele>45.6</ele>
        <time>2020-04-19T13:12:05Z</time>
      </trkpt>
      <trkpt lat="-11.6627560" lon="166.9710410">
        <ele>45.8</ele>
        <time>2020-04-19T13:12:06Z</time>
      </trkpt>
      <trkpt lat="-11.6627810" lon="166.9710730">
        <ele>46.2</ele>
        <time>2020-04-19T13:12:07Z</time>
      </trkpt>
      <trkpt lat="-11.6628090" lon="166.9711050">
        <ele>46.6</ele>
        <time>2020-04-19T13:12:08Z</time>
      </trkpt>
      <trkpt lat="-11.6628390" lon="166.9711160">
        <ele>47.0</ele>
        <time>2020-04-19T13:12:09Z</time>
      </trkpt>
      <trkpt lat="-11.6628710" lon="166.9711480">
        <ele>47.4</ele>
        <time>2020-04-19T13:12:10Z</time>
      </trkpt>
      <trkpt lat="-11.6629060" lon="166.9711700">
        <ele>47.8</ele>
        <time>2020-04-19T13:12:11Z</time>
      </trkpt>
      <trkpt lat="-11.6629370" lon="166.9711700">
        <ele>48.2</ele>
        <time>2020-04-19T13:12:12Z</time>
      </trkpt>
      <trkpt lat="-11.6629700" lon="166.9711800">
        <ele>48.6</ele>
        <time>2020-04-19T13:12:13Z</time>
      </trkpt>
      <trkpt lat="-11.6630030" lon="166.9711800">
        <ele>48.8</ele>
        <time>2020-04-19T13:12:14Z</time>
      </trkpt>
      <trkpt lat="-11.6630330" lon="166.9711800">
        <ele>49.2</ele>
        <time>2020-04-19T13:12:15Z</time>
      </trkpt>
      <trkpt lat="-11.6630680" lon="166.9711800">
        <ele>49.4</ele>
        <time>2020-04-19T13:12:16Z</time>
      </trkpt>
      <trkpt lat="-11.6631020" lon="166.9711800">
        <ele>49.8</ele>
        <time>2020-04-19T13:12:17Z</time>
      </trkpt>
      <trkpt lat="-11.6631350" lon="166.9711700">
        <ele>50.0</ele>
        <time>2020-04-19T13:12:18Z</time>
      </trkpt>
      <trkpt lat="-11.6631700" lon="166.9711700">
        <ele>50.4</ele>
        <time>2020-04-19T13:12:19Z</time>
      </trkpt>
      <trkpt lat="-11.6632050" lon="166.9711700">
        <ele>50.6</ele>
        <time>2020-04-19T13:12:20Z</time>
      </trkpt>
      <trkpt lat="-11.6632430" lon="166.9711480">
        <ele>51.0</ele>
        <time>2020-04-19T13:12:21Z</time>
      </trkpt>
      <trkpt lat="-11.6632790" lon="166.9711480">
        <ele>51.4</ele>
        <time>2020-04-19T13:12:22Z</time>
      </trkpt>
      <trkpt lat="-11.6633150" lon="166.9711480">
        <ele>51.6</ele>
        <time>2020-04-19T13:12:23Z</time>
      </trkpt>
      <trkpt lat="-11.6633540" lon="166.9711480">
        <ele>52.0</ele>
        <time>2020-04-19T13:12:24Z</time>
      </trkpt>
      <trkpt lat="-11.6633930" lon="166.9711380">
        <ele>52.2</ele>
        <time>2020-04-19T13:12:25Z</time>
      </trkpt>
      <trkpt lat="-11.6634330" lon="166.9711380">
        <ele>52.6</ele>
        <time>2020-04-19T13:12:26Z</time>
      </trkpt>
      <trkpt lat="-11.6634720" lon="166.9711380">
        <ele>52.8</ele>
        <time>2020-04-19T13:12:27Z</time>
      </trkpt>
      <trkpt lat="-11.6635130" lon="166.9711380">
        <ele>53.2</ele>
        <time>2020-04-19T13:12:28Z</time>
      </trkpt>
      <trkpt lat="-11.6635540" lon="166.9711380">
        <ele>53.4</ele>
        <time>2020-04-19T13:12:29Z</time>
      </trkpt>
      <trkpt lat="-11.6635950" lon="166.9711480">
        <ele>53.6</ele>
        <time>2020-04-19T13:12:30Z</time>
      </trkpt>
      <trkpt lat="-11.6636370" lon="166.9711480">
        <ele>54.0</ele>
        <time>2020-04-19T13:12:31Z</time>
      </trkpt>
      <trkpt lat="-11.6636780" lon="166.9711700">
        <ele>54.2</ele>
        <time>2020-04-19T13:12:32Z</time>
      </trkpt>
      <trkpt lat="-11.6637170" lon="166.9711800">
        <ele>54.4</ele>
        <time>2020-04-19T13:12:33Z</time>
      </trkpt>
      <trkpt lat="-11.6637560" lon="166.9712130">
        <ele>54.8</ele>
        <time>2020-04-19T13:12:34Z</time>
      </trkpt>
      <trkpt lat="-11.6637960" lon="166.9712230">
        <ele>55.0</ele>
        <time>2020-04-19T13:12:35Z</time>
      </trkpt>
      <trkpt lat="-11.6638350" lon="166.9712560">
        <ele>55.2</ele>
        <time>2020-04-19T13:12:36Z</time>
      </trkpt>
      <trkpt lat="-11.6638740" lon="166.9712770">
        <ele>55.4</ele>
        <time>2020-04-19T13:12:37Z</time>
      </trkpt>
      <trkpt lat="-11.6639120" lon="166.9712980">
        <ele>55.6</ele>
        <time>2020-04-19T13:12:38Z</time>
      </trkpt>
      <trkpt lat="-11.6639510" lon="166.9713310">
        <ele>55.8</ele>
        <time>2020-04-19T13:12:39Z</time>
      </trkpt>
      <trkpt lat="-11.6639920" lon="166.9713630">
        <ele>56.0</ele>
        <time>2020-04-19T13:12:40Z</time>
      </trkpt>
      <trkpt lat="-11.6640340" lon="166.9713950">
        <ele>56.2</ele>
        <time>2020-04-19T13:12:41Z</time>
      </trkpt>
      <trkpt lat="-11.6640770" lon="166.9714270">
        <ele>56.4</ele>
        <time>2020-04-19T13:12:42Z</time>
      </trkpt>
      <trkpt lat="-11.6641220" lon="166.9714590">
        <ele>56.6</ele>
        <time>2020-04-19T13:12:43Z</time>
      </trkpt>
      <trkpt lat="-11.6641680" lon="166.9714810">
        <ele>56.8</ele>
        <time>2020-04-19T13:12:44Z</time>
      </trkpt>
      <trkpt lat="-11.6642150" lon="166.9715130">
        <ele>57.0</ele>
        <time>2020-04-19T13:12:45Z</time>
      </trkpt>
      <trkpt lat="-11.6642620" lon="166.9715340">
        <ele>57.2</ele>
        <time>2020-04-19T13:12:46Z</time>
      </trkpt>
      <trkpt lat="-11.6643100" lon="166.9715670">
        <ele>57.4</ele>
        <time>2020-04-19T13:12:47Z</time>
      </trkpt>
      <trkpt lat="-11.6643580" lon="166.9715770">
        <ele>57.6</ele>
        <time>2020-04-19T13:12:48Z</time>
      </trkpt>
      <trkpt lat="-11.6644050" lon="166.9715880">
        <ele>57.8</ele>
        <time>2020-04-19T13:12:49Z</time>
      </trkpt>
      <trkpt lat="-11.6644510" lon="166.9716200">
        <ele>58.0</ele>
        <time>2020-04-19T13:12:50Z</time>
      </trkpt>
      <trkpt lat="-11.6644970" lon="166.9716420">
        <ele>58.2</ele>
        <time>2020-04-19T13:12:51Z</time>
      </trkpt>
      <trkpt lat="-11.6645450" lon="166.9716530">
        <ele>58.2</ele>
        <time>2020-04-19T13:12:52Z</time>
      </trkpt>
      <trkpt lat="-11.6645940" lon="166.9716630">
        <ele>58.4</ele>
        <time>2020-04-19T13:12:53Z</time>
      </trkpt>
      <trkpt lat="-11.6646440" lon="166.9716950">
        <ele>58.6</ele>
        <time>2020-04-19T13:12:54Z</time>
      </trkpt>
      <trkpt lat="-11.6646910" lon="166.9717170">
        <ele>58.8</ele>
        <time>2020-04-19T13:12:55Z</time>
      </trkpt>
      <trkpt lat="-11.6647430" lon="166.9717490">
        <ele>59.0</ele>
        <time>2020-04-19T13:12:56Z</time>
      </trkpt>
      <trkpt lat="-11.6647930" lon="166.9717600">
        <ele>59.2</ele>
        <time>2020-04-19T13:12:57Z</time>
      </trkpt>
      <trkpt lat="-11.6648430" lon="166.9717920">
        <ele>59.4</ele>
        <time>2020-04-19T13:12:58Z</time>
      </trkpt>
      <trkpt lat="-11.6648920" lon="166.9718030">
        <ele>59.6</ele>
        <time>2020-04-19T13:12:59Z</time>
      </trkpt>
      <trkpt lat="-11.6649470" lon="166.9718240">
        <ele>59.8</ele>
        <time>2020-04-19T13:13:00Z</time>
      </trkpt>
      <trkpt lat="-11.6649970" lon="166.9718560">
        <ele>60.0</ele>
        <time>2020-04-19T13:13:01Z</time>
      </trkpt>
      <trkpt lat="-11.6650480" lon="166.9718670">
        <ele>60.0</ele>
        <time>2020-04-19T13:13:02Z</time>
      </trkpt>
      <trkpt lat="-11.6651030" lon="166.9718990">
        <ele>60.2</ele>
        <time>2020-04-19T13:13:03Z</time>
      </trkpt>
      <trkpt lat="-11.6651540" lon="166.9719100">
        <ele>60.4</ele>
        <time>2020-04-19T13:13:04Z</time>
      </trkpt>
      <trkpt lat="-11.6652100" lon="166.9719310">
        <ele>60.6</ele>
        <time>2020-04-19T13:13:05Z</time>
      </trkpt>
      <trkpt lat="-11.6652650" lon="166.9719640">
        <ele>60.8</ele>
        <time>2020-04-19T13:13:06Z</time>
      </trkpt>
      <trkpt lat="-11.6653210" lon="166.9719740">
        <ele>61.0</ele>
        <time>2020-04-19T13:13:07Z</time>
      </trkpt>
      <trkpt lat="-11.6653800" lon="166.9719850">
        <ele>61.2</ele>
        <time>2020-04-19T13:13:08Z</time>
      </trkpt>
      <trkpt lat="-11.6654370" lon="166.9720070">
        <ele>61.4</ele>
        <time>2020-04-19T13:13:09Z</time>
      </trkpt>
      <trkpt lat="-11.6654930" lon="166.9720170">
        <ele>61.6</ele>
        <time>2020-04-19T13:13:10Z</time>
      </trkpt>
      <trkpt lat="-11.6655520" lon="166.9720390">
        <ele>61.8</ele>
        <time>2020-04-19T13:13:11Z</time>
      </trkpt>
      <trkpt lat="-11.6656120" lon="166.9720600">
        <ele>62.0</ele>
        <time>2020-04-19T13:13:12Z</time>
      </trkpt>
      <trkpt lat="-11.6656710" lon="166.9720820">
        <ele>62.2</ele>
        <time>2020-04-19T13:13:13Z</time>
      </trkpt>
      <trkpt lat="-11.6657300" lon="166.9720920">
        <ele>62.4</ele>
        <time>2020-04-19T13:13:14Z</time>
      </trkpt>
      <trkpt lat="-11.6657890" lon="166.9720920">
        <ele>62.6</ele>
        <time>2020-04-19T13:13:15Z</time>
      </trkpt>
      <trkpt lat="-11.6658480" lon="166.9721140">
        <ele>62.8</ele>
        <time>2020-04-19T13:13:16Z</time>
      </trkpt>
      <trkpt lat="-11.6659090" lon="166.9721250">
        <ele>63.0</ele>
        <time>2020-04-19T13:13:17Z</time>
      </trkpt>
      <trkpt lat="-11.6659650" lon="166.9721460">
        <ele>63.2</ele>
        <time>2020-04-19T13:13:18Z</time>
      </trkpt>
      <trkpt lat="-11.6660240" lon="166.9721570">
        <ele>63.4</ele>
        <time>2020-04-19T13:13:19Z</time>
      </trkpt>
      <trkpt lat="-11.6660840" lon="166.9721670">
        <ele>63.6</ele>
        <time>2020-04-19T13:13:20Z</time>
      </trkpt>
      <trkpt lat="-11.6661460" lon="166.9721890">
        <ele>63.8</ele>
        <time>2020-04-19T13:13:21Z</time>
      </trkpt>
      <trkpt lat="-11.6662060" lon="166.9722000">
        <ele>64.0</ele>
        <time>2020-04-19T13:13:22Z</time>
      </trkpt>
      <trkpt lat="-11.6662650" lon="166.9722210">
        <ele>64.2</ele>
        <time>2020-04-19T13:13:23Z</time>
      </trkpt>
      <trkpt lat="-11.6663280" lon="166.9722320">
        <ele>64.4</ele>
        <time>2020-04-19T13:13:24Z</time>
      </trkpt>
      <trkpt lat="-11.6663900" lon="166.9722320">
        <ele>64.6</ele>
        <time>2020-04-19T13:13:25Z</time>
      </trkpt>
      <trkpt lat="-11.6664480" lon="166.9722530">
        <ele>64.8</ele>
        <time>2020-04-19T13:13:26Z</time>
      </trkpt>
      <trkpt lat="-11.6665080" lon="166.9722640">
        <ele>65.0</ele>
        <time>2020-04-19T13:13:27Z</time>
      </trkpt>
      <trkpt lat="-11.6665660" lon="166.9722750">
        <ele>65.2</ele>
        <time>2020-04-19T13:13:28Z</time>
      </trkpt>
      <trkpt lat="-11.6666280" lon="166.9722750">
        <ele>65.4</ele>
        <time>2020-04-19T13:13:29Z</time>
      </trkpt>
      <trkpt lat="-11.6666880" lon="166.9722960">
        <ele>65.6</ele>
        <time>2020-04-19T13:13:30Z</time>
      </trkpt>
      <trkpt lat="-11.6667480" lon="166.9723070">
        <ele>65.8</ele>
        <time>2020-04-19T13:13:31Z</time>
      </trkpt>
      <trkpt lat="-11.6668100" lon="166.9723280">
        <ele>66.0</ele>
        <time>2020-04-19T13:13:32Z</time>
      </trkpt>
      <trkpt lat="-11.6668690" lon="166.9723390">
        <ele>66.2</ele>
        <time>2020-04-19T13:13:33Z</time>
      </trkpt>
      <trkpt lat="-11.6669290" lon="166.9723390">
        <ele>66.6</ele>
        <time>2020-04-19T13:13:34Z</time>
      </trkpt>
      <trkpt lat="-11.6669900" lon="166.9723500">
        <ele>66.6</ele>
        <time>2020-04-19T13:13:35Z</time>
      </trkpt>
      <trkpt lat="-11.6670510" lon="166.9723710">
        <ele>66.8</ele>
        <time>2020-04-19T13:13:36Z</time>
      </trkpt>
      <trkpt lat="-11.6671130" lon="166.9723710">
        <ele>67.2</ele>
        <time>2020-04-19T13:13:37Z</time>
      </trkpt>
      <trkpt lat="-11.6671730" lon="166.9723820">
        <ele>67.2</ele>
        <time>2020-04-19T13:13:38Z</time>
      </trkpt>
      <trkpt lat="-11.6672360" lon="166.9723820">
        <ele>67.6</ele>
        <time>2020-04-19T13:13:39Z</time>
      </trkpt>
      <trkpt lat="-11.6672950" lon="166.9724040">
        <ele>67.8</ele>
        <time>2020-04-19T13:13:40Z</time>
      </trkpt>
      <trkpt lat="-11.6673560" lon="166.9724040">
        <ele>68.0</ele>
        <time>2020-04-19T13:13:41Z</time>
      </trkpt>
      <trkpt lat="-11.6674200" lon="166.9724140">
        <ele>68.2</ele>
        <time>2020-04-19T13:13:42Z</time>
      </trkpt>
      <trkpt lat="-11.6674790" lon="166.9724140">
        <ele>68.4</ele>
        <time>2020-04-19T13:13:43Z</time>
      </trkpt>
      <trkpt lat="-11.6675420" lon="166.9724360">
        <ele>68.6</ele>
        <time>2020-04-19T13:13:44Z</time>
      </trkpt>
      <trkpt lat="-11.6676030" lon="166.9724360">
        <ele>68.8</ele>
        <time>2020-04-19T13:13:45Z</time>
      </trkpt>
      <trkpt lat="-11.6676640" lon="166.9724460">
        <ele>69.0</ele>
        <time>2020-04-19T13:13:46Z</time>
      </trkpt>
      <trkpt lat="-11.6677250" lon="166.9724460">
        <ele>69.2</ele>
        <time>2020-04-19T13:13:47Z</time>
      </trkpt>
      <trkpt lat="-11.6677840" lon="166.9724460">
        <ele>69.4</ele>
        <time>2020-04-19T13:13:48Z</time>
      </trkpt>
      <trkpt lat="-11.6678440" lon="166.9724460">
        <ele>69.6</ele>
        <time>2020-04-19T13:13:49Z</time>
      </trkpt>
      <trkpt lat="-11.6679060" lon="166.9724570">
        <ele>69.8</ele>
        <time>2020-04-19T13:13:50Z</time>
      </trkpt>
      <trkpt lat="-11.6679650" lon="166.9724570">
        <ele>70.0</ele>
        <time>2020-04-19T13:13:51Z</time>
      </trkpt>
      <trkpt lat="-11.6680240" lon="166.9724570">
        <ele>70.2</ele>
        <time>2020-04-19T13:13:52Z</time>
      </trkpt>
      <trkpt lat="-11.6680830" lon="166.9724570">
        <ele>70.4</ele>
        <time>2020-04-19T13:13:53Z</time>
      </trkpt>
      <trkpt lat="-11.6681400" lon="166.9724570">
        <ele>70.6</ele>
        <time>2020-04-19T13:13:54Z</time>
      </trkpt>
      <trkpt lat="-11.6681990" lon="166.9724570">
        <ele>70.8</ele>
        <time>2020-04-19T13:13:55Z</time>
      </trkpt>
      <trkpt lat="-11.6682580" lon="166.9724570">
        <ele>71.0</ele>
        <time>2020-04-19T13:13:56Z</time>
      </trkpt>
      <trkpt lat="-11.6683170" lon="166.9724570">
        <ele>71.2</ele>
        <time>2020-04-19T13:13:57Z</time>
      </trkpt>
      <trkpt lat="-11.6683760" lon="166.9724570">
        <ele>71.4</ele>
        <time>2020-04-19T13:13:58Z</time>
      </trkpt>
      <trkpt lat="-11.6684370" lon="166.9724460">
        <ele>71.6</ele>
        <time>2020-04-19T13:13:59Z</time>
      </trkpt>
      <trkpt lat="-11.6684940" lon="166.9724460">
        <ele>71.8</ele>
        <time>2020-04-19T13:14:00Z</time>
      </trkpt>
      <trkpt lat="-11.6685590" lon="166.9724460">
        <ele>72.0</ele>
        <time>2020-04-19T13:14:01Z</time>
      </trkpt>
      <trkpt lat="-11.6686160" lon="166.9724460">
        <ele>72.2</ele>
        <time>2020-04-19T13:14:02Z</time>
      </trkpt>
      <trkpt lat="-11.6686810" lon="166.9724360">
        <ele>72.4</ele>
        <time>2020-04-19T13:14:03Z</time>
      </trkpt>
      <trkpt lat="-11.6687400" lon="166.9724360">
        <ele>72.6</ele>
        <time>2020-04-19T13:14:04Z</time>
      </trkpt>
      <trkpt lat="-11.6688010" lon="166.9724140">
        <ele>72.8</ele>
        <time>2020-04-19T13:14:05Z</time>
      </trkpt>
      <trkpt lat="-11.6688620" lon="166.9724140">
        <ele>73.0</ele>
        <time>2020-04-19T13:14:06Z</time>
      </trkpt>
      <trkpt lat="-11.6689230" lon="166.9724040">
        <ele>73.2</ele>
        <time>2020-04-19T13:14:07Z</time>
      </trkpt>
      <trkpt lat="-11.6689850" lon="166.9723820">
        <ele>73.4</ele>
        <time>2020-04-19T13:14:08Z</time>
      </trkpt>
      <trkpt lat="-11.6690480" lon="166.9723820">
        <ele>73.6</ele>
        <time>2020-04-19T13:14:09Z</time>
      </trkpt>
      <trkpt lat="-11.6691100" lon="166.9723710">
        <ele>73.8</ele>
        <time>2020-04-19T13:14:10Z</time>
      </trkpt>
      <trkpt lat="-11.6691730" lon="166.9723500">
        <ele>74.0</ele>
        <time>2020-04-19T13:14:11Z</time>
      </trkpt>
      <trkpt lat="-11.6692320" lon="166.9723390">
        <ele>74.2</ele>
        <time>2020-04-19T13:14:12Z</time>
      </trkpt>
      <trkpt lat="-11.6692920" lon="166.9723280">
        <ele>74.4</ele>
        <time>2020-04-19T13:14:13Z</time>
      </trkpt>
      <trkpt lat="-11.6693550" lon="166.9723280">
        <ele>74.6</ele>
        <time>2020-04-19T13:14:14Z</time>
      </trkpt>
      <trkpt lat="-11.6694140" lon="166.9723070">
        <ele>74.8</ele>
        <time>2020-04-19T13:14:15Z</time>
      </trkpt>
      <trkpt lat="-11.6694770" lon="166.9722960">
        <ele>75.0</ele>
        <time>2020-04-19T13:14:16Z</time>
      </trkpt>
      <trkpt lat="-11.6695360" lon="166.9722750">
        <ele>75.2</ele>
        <time>2020-04-19T13:14:17Z</time>
      </trkpt>
      <trkpt lat="-11.6695980" lon="166.9722640">
        <ele>75.4</ele>
        <time>2020-04-19T13:14:18Z</time>
      </trkpt>
      <trkpt lat="-11.6696580" lon="166.9722530">
        <ele>75.6</ele>
        <time>2020-04-19T13:14:19Z</time>
      </trkpt>
      <trkpt lat="-11.6697190" lon="166.9722320">
        <ele>75.8</ele>
        <time>2020-04-19T13:14:20Z</time>
      </trkpt>
      <trkpt lat="-11.6697800" lon="166.9722210">
        <ele>76.0</ele>
        <time>2020-04-19T13:14:21Z</time>
      </trkpt>
      <trkpt lat="-11.6698390" lon="166.9722000">
        <ele>76.2</ele>
        <time>2020-04-19T13:14:22Z</time>
      </trkpt>
      <trkpt lat="-11.6699010" lon="166.9721890">
        <ele>76.4</ele>
        <time>2020-04-19T13:14:23Z</time>
      </trkpt>
      <trkpt lat="-11.6699590" lon="166.9721670">
        <ele>76.6</ele>
        <time>2020-04-19T13:14:24Z</time>
      </trkpt>
      <trkpt lat="-11.6700180" lon="166.9721460">
        <ele>76.8</ele>
        <time>2020-04-19T13:14:25Z</time>
      </trkpt>
      <trkpt lat="-11.6700800" lon="166.9721250">
        <ele>77.0</ele>
        <time>2020-04-19T13:14:26Z</time>
      </trkpt>
      <trkpt lat="-11.6701350" lon="166.9721140">
        <ele>77.2</ele>
        <time>2020-04-19T13:14:27Z</time>
      </trkpt>
      <trkpt lat="-11.6701910" lon="166.9720920">
        <ele>77.4</ele>
        <time>2020-04-19T13:14:28Z</time>
      </trkpt>
      <trkpt lat="-11.6702500" lon="166.9720600">
        <ele>77.6</ele>
        <time>2020-04-19T13:14:29Z</time>
      </trkpt>
      <trkpt lat="-11.6703030" lon="166.9720490">
        <ele>77.8</ele>
        <time>2020-04-19T13:14:30Z</time>
      </trkpt>
      <trkpt lat="-11.6703580" lon="166.9720390">
        <ele>78.0</ele>
        <time>2020-04-19T13:14:31Z</time>
      </trkpt>
      <trkpt lat="-11.6704160" lon="166.9720070">
        <ele>78.2</ele>
        <time>2020-04-19T13:14:32Z</time>
      </trkpt>
      <trkpt lat="-11.6704680" lon="166.9719850">
        <ele>78.4</ele>
        <time>2020-04-19T13:14:33Z</time>
      </trkpt>
      <trkpt lat="-11.6705230" lon="166.9719740">
        <ele>78.6</ele>
        <time>2020-04-19T13:14:34Z</time>
      </trkpt>
      <trkpt lat="-11.6705760" lon="166.9719420">
        <ele>78.8</ele>
        <time>2020-04-19T13:14:35Z</time>
      </trkpt>
      <trkpt lat="-11.6706290" lon="166.9719310">
        <ele>79.0</ele>
        <time>2020-04-19T13:14:36Z</time>
      </trkpt>
      <trkpt lat="-11.6706820" lon="166.9718990">
        <ele>79.2</ele>
        <time>2020-04-19T13:14:37Z</time>
      </trkpt>
      <trkpt lat="-11.6707350" lon="166.9718780">
        <ele>79.4</ele>
        <time>2020-04-19T13:14:38Z</time>
      </trkpt>
      <trkpt lat="-11.6707840" lon="166.9718560">
        <ele>79.6</ele>
        <time>2020-04-19T13:14:39Z</time>
      </trkpt>
      <trkpt lat="-11.6708350" lon="166.9718350">
        <ele>79.6</ele>
        <time>2020-04-19T13:14:40Z</time>
      </trkpt>
      <trkpt lat="-11.6708840" lon="166.9718030">
        <ele>79.8</ele>
        <time>2020-04-19T13:14:41Z</time>
      </trkpt>
      <trkpt lat="-11.6709320" lon="166.9717710">
        <ele>80.0</ele>
        <time>2020-04-19T13:14:42Z</time>
      </trkpt>
      <trkpt lat="-11.6709820" lon="166.9717490">
        <ele>80.2</ele>
        <time>2020-04-19T13:14:43Z</time>
      </trkpt>
      <trkpt lat="-11.6710340" lon="166.9717280">
        <ele>80.4</ele>
        <time>2020-04-19T13:14:44Z</time>
      </trkpt>
      <trkpt lat="-11.6710840" lon="166.9716950">
        <ele>80.6</ele>
        <time>2020-04-19T13:14:45Z</time>
      </trkpt>
      <trkpt lat="-11.6711380" lon="166.9716630">
        <ele>80.8</ele>
        <time>2020-04-19T13:14:46Z</time>
      </trkpt>
      <trkpt lat="-11.6711890" lon="166.9716420">
        <ele>81.0</ele>
        <time>2020-04-19T13:14:47Z</time>
      </trkpt>
      <trkpt lat="-11.6712400" lon="166.9716100">
        <ele>81.2</ele>
        <time>2020-04-19T13:14:48Z</time>
      </trkpt>
      <trkpt lat="-11.6712930" lon="166.9715770">
        <ele>81.4</ele>
        <time>2020-04-19T13:14:49Z</time>
      </trkpt>
      <trkpt lat="-11.6713440" lon="166.9715450">
        <ele>81.6</ele>
        <time>2020-04-19T13:14:50Z</time>
      </trkpt>
      <trkpt lat="-11.6714010" lon="166.9715130">
        <ele>81.8</ele>
        <time>2020-04-19T13:14:51Z</time>
      </trkpt>
      <trkpt lat="-11.6714500" lon="166.9714810">
        <ele>82.0</ele>
        <time>2020-04-19T13:14:52Z</time>
      </trkpt>
      <trkpt lat="-11.6715010" lon="166.9714380">
        <ele>82.2</ele>
        <time>2020-04-19T13:14:53Z</time>
      </trkpt>
      <trkpt lat="-11.6715530" lon="166.9714060">
        <ele>82.4</ele>
        <time>2020-04-19T13:14:54Z</time>
      </trkpt>
      <trkpt lat="-11.6716040" lon="166.9713740">
        <ele>82.6</ele>
        <time>2020-04-19T13:14:55Z</time>
      </trkpt>
      <trkpt lat="-11.6716580" lon="166.9713310">
        <ele>82.8</ele>
        <time>2020-04-19T13:14:56Z</time>
      </trkpt>
      <trkpt lat="-11.6717080" lon="166.9712980">
        <ele>83.0</ele>
        <time>2020-04-19T13:14:57Z</time>
      </trkpt>
      <trkpt lat="-11.6717590" lon="166.9712560">
        <ele>83.2</ele>
        <time>2020-04-19T13:14:58Z</time>
      </trkpt>
      <trkpt lat="-11.6718080" lon="166.9712230">
        <ele>83.4</ele>
        <time>2020-04-19T13:14:59Z</time>
      </trkpt>
      <trkpt lat="-11.6718610" lon="166.9711800">
        <ele>83.8</ele>
        <time>2020-04-19T13:15:00Z</time>
      </trkpt>
      <trkpt lat="-11.6719100" lon="166.9711480">
        <ele>84.0</ele>
        <time>2020-04-19T13:15:01Z</time>
      </trkpt>
      <trkpt lat="-11.6719600" lon="166.9711160">
        <ele>84.2</ele>
        <time>2020-04-19T13:15:02Z</time>
      </trkpt>
      <trkpt lat="-11.6720090" lon="166.9710730">
        <ele>84.4</ele>
        <time>2020-04-19T13:15:03Z</time>
      </trkpt>
      <trkpt lat="-11.6720590" lon="166.9710410">
        <ele>84.6</ele>
        <time>2020-04-19T13:15:04Z</time>
      </trkpt>
      <trkpt lat="-11.6721090" lon="166.9709980">
        <ele>84.8</ele>
        <time>2020-04-19T13:15:05Z</time>
      </trkpt>
      <trkpt lat="-11.6721560" lon="166.9709660">
        <ele>85.0</ele>
        <time>2020-04-19T13:15:06Z</time>
      </trkpt>
      <trkpt lat="-11.6722040" lon="166.9709230">
        <ele>85.2</ele>
        <time>2020-04-19T13:15:07Z</time>
      </trkpt>
      <trkpt lat="-11.6722510" lon="166.9708910">
        <ele>85.4</ele>
        <time>2020-04-19T13:15:08Z</time>
      </trkpt>
      <trkpt lat="-11.6722960" lon="166.9708480">
        <ele>85.6</ele>
        <time>2020-04-19T13:15:09Z</time>
      </trkpt>
      <trkpt lat="-11.6723410" lon="166.9708160">
        <ele>86.0</ele>
        <time>2020-04-19T13:15:10Z</time>
      </trkpt>
      <trkpt lat="-11.6723880" lon="166.9707730">
        <ele>86.2</ele>
        <time>2020-04-19T13:15:11Z</time>
      </trkpt>
      <trkpt lat="-11.6724350" lon="166.9707410">
        <ele>86.4</ele>
        <time>2020-04-19T13:15:12Z</time>
      </trkpt>
      <trkpt lat="-11.6724810" lon="166.9707080">
        <ele>86.6</ele>
        <time>2020-04-19T13:15:13Z</time>
      </trkpt>
      <trkpt lat="-11.6725260" lon="166.9706650">
        <ele>87.0</ele>
        <time>2020-04-19T13:15:14Z</time>
      </trkpt>
      <trkpt lat="-11.6725670" lon="166.9706330">
        <ele>87.2</ele>
        <time>2020-04-19T13:15:15Z</time>
      </trkpt>
      <trkpt lat="-11.6726130" lon="166.9705900">
        <ele>87.4</ele>
        <time>2020-04-19T13:15:16Z</time>
      </trkpt>
      <trkpt lat="-11.6726530" lon="166.9705580">
        <ele>87.6</ele>
        <time>2020-04-19T13:15:17Z</time>
      </trkpt>
      <trkpt lat="-11.6726920" lon="166.9705260">
        <ele>88.0</ele>
        <time>2020-04-19T13:15:18Z</time>
      </trkpt>
      <trkpt lat="-11.6727300" lon="166.9704830">
        <ele>88.2</ele>
        <time>2020-04-19T13:15:19Z</time>
      </trkpt>
      <trkpt lat="-11.6727680" lon="166.9704510">
        <ele>88.6</ele>
        <time>2020-04-19T13:15:20Z</time>
      </trkpt>
      <trkpt lat="-11.6728050" lon="166.9703970">
        <ele>88.8</ele>
        <time>2020-04-19T13:15:21Z</time>
      </trkpt>
      <trkpt lat="-11.6728410" lon="166.9703760">
        <ele>89.2</ele>
        <time>2020-04-19T13:15:22Z</time>
      </trkpt>
      <trkpt lat="-11.6728760" lon="166.9703220">
        <ele>89.4</ele>
        <time>2020-04-19T13:15:23Z</time>
      </trkpt>
      <trkpt lat="-11.6729090" lon="166.9702900">
        <ele>89.8</ele>
        <time>2020-04-19T13:15:24Z</time>
      </trkpt>
      <trkpt lat="-11.6729400" lon="166.9702680">
        <ele>90.0</ele>
        <time>2020-04-19T13:15:25Z</time>
      </trkpt>
      <trkpt lat="-11.6729710" lon="166.9702150">
        <ele>90.4</ele>
        <time>2020-04-19T13:15:26Z</time>
      </trkpt>
      <trkpt lat="-11.6730020" lon="166.9701930">
        <ele>90.6</ele>
        <time>2020-04-19T13:15:27Z</time>
      </trkpt>
      <trkpt lat="-11.6730310" lon="166.9701400">
        <ele>91.0</ele>
        <time>2020-04-19T13:15:28Z</time>
      </trkpt>
      <trkpt lat="-11.6730590" lon="166.9701080">
        <ele>91.4</ele>
        <time>2020-04-19T13:15:29Z</time>
      </trkpt>
      <trkpt lat="-11.6730890" lon="166.9700650">
        <ele>91.6</ele>
        <time>2020-04-19T13:15:30Z</time>
      </trkpt>
      <trkpt lat="-11.6731140" lon="166.9700320">
        <ele>92.0</ele>
        <time>2020-04-19T13:15:31Z</time>
      </trkpt>
      <trkpt lat="-11.6731430" lon="166.9699900">
        <ele>92.4</ele>
        <time>2020-04-19T13:15:32Z</time>
      </trkpt>
      <trkpt lat="-11.6731670" lon="166.9699570">
        <ele>92.6</ele>
        <time>2020-04-19T13:15:33Z</time>
      </trkpt>
      <trkpt lat="-11.6731910" lon="166.9699250">
        <ele>93.0</ele>
        <time>2020-04-19T13:15:34Z</time>
      </trkpt>
      <trkpt lat="-11.6732150" lon="166.9698820">
        <ele>93.4</ele>
        <time>2020-04-19T13:15:35Z</time>
      </trkpt>
      <trkpt lat="-11.6732390" lon="166.9698500">
        <ele>93.6</ele>
        <time>2020-04-19T13:15:36Z</time>
      </trkpt>
      <trkpt lat="-11.6732620" lon="166.9698070">
        <ele>94.0</ele>
        <time>2020-04-19T13:15:37Z</time>
      </trkpt>
      <trkpt lat="-11.6732860" lon="166.9697750">
        <ele>94.4</ele>
        <time>2020-04-19T13:15:38Z</time>
      </trkpt>
      <trkpt lat="-11.6733100" lon="166.9697320">
        <ele>94.6</ele>
        <time>2020-04-19T13:15:39Z</time>
      </trkpt>
      <trkpt lat="-11.6733330" lon="166.9697000">
        <ele>95.0</ele>
        <time>2020-04-19T13:15:40Z</time>
      </trkpt>
      <trkpt lat="-11.6733590" lon="166.9696570">
        <ele>95.4</ele>
        <time>2020-04-19T13:15:41Z</time>
      </trkpt>
      <trkpt lat="-11.6733810" lon="166.9696250">
        <ele>95.6</ele>
        <time>2020-04-19T13:15:42Z</time>
      </trkpt>
      <trkpt lat="-11.6734080" lon="166.9695820">
        <ele>96.0</ele>
        <time>2020-04-19T13:15:43Z</time>
      </trkpt>
      <trkpt lat="-11.6734320" lon="166.9695500">
        <ele>96.4</ele>
        <time>2020-04-19T13:15:44Z</time>
      </trkpt>
      <trkpt lat="-11.6734600" lon="166.9695170">
        <ele>96.6</ele>
        <time>2020-04-19T13:15:45Z</time>
      </trkpt>
      <trkpt lat="-11.6734850" lon="166.9694750">
        <ele>97.0</ele>
        <time>2020-04-19T13:15:46Z</time>
      </trkpt>
      <trkpt lat="-11.6735110" lon="166.9694420">
        <ele>97.2</ele>
        <time>2020-04-19T13:15:47Z</time>
      </trkpt>
      <trkpt lat="-11.6735370" lon="166.9694100">
        <ele>97.6</ele>
        <time>2020-04-19T13:15:48Z</time>
      </trkpt>
      <trkpt lat="-11.6735610" lon="166.9693670">
        <ele>98.0</ele>
        <time>2020-04-19T13:15:49Z</time>
      </trkpt>
      <trkpt lat="-11.6735870" lon="166.9693350">
        <ele>98.2</ele>
        <time>2020-04-19T13:15:50Z</time>
      </trkpt>
      <trkpt lat="-11.6736090" lon="166.9692920">
        <ele>98.6</ele>
        <time>2020-04-19T13:15:51Z</time>
      </trkpt>
      <trkpt lat="-11.6736290" lon="166.9692600">
        <ele>99.0</ele>
        <time>2020-04-19T13:15:52Z</time>
      </trkpt>
      <trkpt lat="-11.6736510" lon="166.9692170">
        <ele>99.4</ele>
        <time>2020-04-19T13:15:53Z</time>
      </trkpt>
      <trkpt lat="-11.6736720" lon="166.9691850">
        <ele>99.6</ele>
        <time>2020-04-19T13:15:54Z</time>
      </trkpt>
      <trkpt lat="-11.6736940" lon="166.9691310">
        <ele>100.0</ele>
        <time>2020-04-19T13:15:55Z</time>
      </trkpt>
      <trkpt lat="-11.6737170" lon="166.9691100">
        <ele>100.2</ele>
        <time>2020-04-19T13:15:56Z</time>
      </trkpt>
      <trkpt lat="-11.6737410" lon="166.9690780">
        <ele>100.6</ele>
        <time>2020-04-19T13:15:57Z</time>
      </trkpt>
      <trkpt lat="-11.6737660" lon="166.9690450">
        <ele>100.8</ele>
        <time>2020-04-19T13:15:58Z</time>
      </trkpt>
      <trkpt lat="-11.6737920" lon="166.9690020">
        <ele>101.2</ele>
        <time>2020-04-19T13:15:59Z</time>
      </trkpt>
      <trkpt lat="-11.6738160" lon="166.9689700">
        <ele>101.4</ele>
        <time>2020-04-19T13:16:00Z</time>
      </trkpt>
      <trkpt lat="-11.6738400" lon="166.9689380">
        <ele>101.8</ele>
        <time>2020-04-19T13:16:01Z</time>
      </trkpt>
      <trkpt lat="-11.6738650" lon="166.9689060">
        <ele>102.0</ele>
        <time>2020-04-19T13:16:02Z</time>
      </trkpt>
      <trkpt lat="-11.6738940" lon="166.9688630">
        <ele>102.4</ele>
        <time>2020-04-19T13:16:03Z</time>
      </trkpt>
      <trkpt lat="-11.6739270" lon="166.9688420">
        <ele>102.6</ele>
        <time>2020-04-19T13:16:04Z</time>
      </trkpt>
      <trkpt lat="-11.6739590" lon="166.9688200">
        <ele>102.8</ele>
        <time>2020-04-19T13:16:05Z</time>
      </trkpt>
      <trkpt lat="-11.6739920" lon="166.9687660">
        <ele>103.0</ele>
        <time>2020-04-19T13:16:06Z</time>
      </trkpt>
      <trkpt lat="-11.6740290" lon="166.9687340">
        <ele>103.2</ele>
        <time>2020-04-19T13:16:07Z</time>
      </trkpt>
      <trkpt lat="-11.6740720" lon="166.9687240">
        <ele>103.4</ele>
        <time>2020-04-19T13:16:08Z</time>
      </trkpt>
      <trkpt lat="-11.6741220" lon="166.9686910">
        <ele>103.6</ele>
        <time>2020-04-19T13:16:09Z</time>
      </trkpt>
      <trkpt lat="-11.6741740" lon="166.9686810">
        <ele>103.6</ele>
        <time>2020-04-19T13:16:10Z</time>
      </trkpt>
      <trkpt lat="-11.6742300" lon="166.9686590">
        <ele>103.6</ele>
        <time>2020-04-19T13:16:11Z</time>
      </trkpt>
      <trkpt lat="-11.6742890" lon="166.9686480">
        <ele>103.8</ele>
        <time>2020-04-19T13:16:12Z</time>
      </trkpt>
      <trkpt lat="-11.6743480" lon="166.9686270">
        <ele>103.8</ele>
        <time>2020-04-19T13:16:13Z</time>
      </trkpt>
      <trkpt lat="-11.6744030" lon="166.9686060">
        <ele>104.0</ele>
        <time>2020-04-19T13:16:14Z</time>
      </trkpt>
      <trkpt lat="-11.6744530" lon="166.9685730">
        <ele>104.0</ele>
        <time>2020-04-19T13:16:15Z</time>
      </trkpt>
      <trkpt lat="-11.6745000" lon="166.9685410">
        <ele>104.2</ele>
        <time>2020-04-19T13:16:16Z</time>
      </trkpt>
      <trkpt lat="-11.6745370" lon="166.9684980">
        <ele>104.6</ele>
        <time>2020-04-19T13:16:17Z</time>
      </trkpt>
      <trkpt lat="-11.6745670" lon="166.9684450">
        <ele>104.8</ele>
        <time>2020-04-19T13:16:18Z</time>
      </trkpt>
      <trkpt lat="-11.6745860" lon="166.9684020">
        <ele>105.2</ele>
        <time>2020-04-19T13:16:19Z</time>
      </trkpt>
      <trkpt lat="-11.6745990" lon="166.9683370">
        <ele>105.4</ele>
        <time>2020-04-19T13:16:20Z</time>
      </trkpt>
      <trkpt lat="-11.6746080" lon="166.9682940">
        <ele>105.6</ele>
        <time>2020-04-19T13:16:21Z</time>
      </trkpt>
      <trkpt lat="-11.6746180" lon="166.9682510">
        <ele>106.0</ele>
        <time>2020-04-19T13:16:22Z</time>
      </trkpt>
      <trkpt lat="-11.6746270" lon="166.9682090">
        <ele>106.2</ele>
        <time>2020-04-19T13:16:23Z</time>
      </trkpt>
      <trkpt lat="-11.6746300" lon="166.9681440">
        <ele>106.6</ele>
        <time>2020-04-19T13:16:24Z</time>
      </trkpt>
      <trkpt lat="-11.6746330" lon="166.9681010">
        <ele>106.8</ele>
        <time>2020-04-19T13:16:25Z</time>
      </trkpt>
      <trkpt lat="-11.6746380" lon="166.9680480">
        <ele>107.0</ele>
        <time>2020-04-19T13:16:26Z</time>
      </trkpt>
      <trkpt lat="-11.6746430" lon="166.9680050">
        <ele>107.4</ele>
        <time>2020-04-19T13:16:27Z</time>
      </trkpt>
      <trkpt lat="-11.6746460" lon="166.9679620">
        <ele>107.6</ele>
        <time>2020-04-19T13:16:28Z</time>
      </trkpt>
      <trkpt lat="-11.6746500" lon="166.9679190">
        <ele>107.8</ele>
        <time>2020-04-19T13:16:29Z</time>
      </trkpt>
      <trkpt lat="-11.6746500" lon="166.9678650">
        <ele>108.2</ele>
        <time>2020-04-19T13:16:30Z</time>
      </trkpt>
      <trkpt lat="-11.6746530" lon="166.9678220">
        <ele>108.4</ele>
        <time>2020-04-19T13:16:31Z</time>
      </trkpt>
      <trkpt lat="-11.6746530" lon="166.9677790">
        <ele>108.6</ele>
        <time>2020-04-19T13:16:32Z</time>
      </trkpt>
      <trkpt lat="-11.6746550" lon="166.9677360">
        <ele>108.8</ele>
        <time>2020-04-19T13:16:33Z</time>
      </trkpt>
      <trkpt lat="-11.6746570" lon="166.9676830">
        <ele>109.2</ele>
        <time>2020-04-19T13:16:34Z</time>
      </trkpt>
      <trkpt lat="-11.6746570" lon="166.9676400">
        <ele>109.4</ele>
        <time>2020-04-19T13:16:35Z</time>
      </trkpt>
      <trkpt lat="-11.6746570" lon="166.9676080">
        <ele>109.6</ele>
        <time>2020-04-19T13:16:36Z</time>
      </trkpt>
      <trkpt lat="-11.6746580" lon="166.9675650">
        <ele>109.8</ele>
        <time>2020-04-19T13:16:37Z</time>
      </trkpt>
      <trkpt lat="-11.6746590" lon="166.9675220">
        <ele>110.2</ele>
        <time>2020-04-19T13:16:38Z</time>
      </trkpt>
      <trkpt lat="-11.6746610" lon="166.9674680">
        <ele>110.4</ele>
        <time>2020-04-19T13:16:39Z</time>
      </trkpt>
      <trkpt lat="-11.6746610" lon="166.9674250">
        <ele>110.6</ele>
        <time>2020-04-19T13:16:40Z</time>
      </trkpt>
      <trkpt lat="-11.6746610" lon="166.9673820">
        <ele>111.0</ele>
        <time>2020-04-19T13:16:41Z</time>
      </trkpt>
      <trkpt lat="-11.6746610" lon="166.9673400">
        <ele>111.2</ele>
        <time>2020-04-19T13:16:42Z</time>
      </trkpt>
      <trkpt lat="-11.6746590" lon="166.9672860">
        <ele>111.4</ele>
        <time>2020-04-19T13:16:43Z</time>
      </trkpt>
      <trkpt lat="-11.6746570" lon="166.9672430">
        <ele>111.8</ele>
        <time>2020-04-19T13:16:44Z</time>
      </trkpt>
      <trkpt lat="-11.6746510" lon="166.9672000">
        <ele>112.0</ele>
        <time>2020-04-19T13:16:45Z</time>
      </trkpt>
      <trkpt lat="-11.6746430" lon="166.9671570">
        <ele>112.2</ele>
        <time>2020-04-19T13:16:46Z</time>
      </trkpt>
      <trkpt lat="-11.6746370" lon="166.9671030">
        <ele>112.6</ele>
        <time>2020-04-19T13:16:47Z</time>
      </trkpt>
      <trkpt lat="-11.6746270" lon="166.9670610">
        <ele>112.8</ele>
        <time>2020-04-19T13:16:48Z</time>
      </trkpt>
      <trkpt lat="-11.6746180" lon="166.9670180">
        <ele>113.2</ele>
        <time>2020-04-19T13:16:49Z</time>
      </trkpt>
      <trkpt lat="-11.6746100" lon="166.9669850">
        <ele>113.4</ele>
        <time>2020-04-19T13:16:50Z</time>
      </trkpt>
      <trkpt lat="-11.6746000" lon="166.9669430">
        <ele>113.6</ele>
        <time>2020-04-19T13:16:51Z</time>
      </trkpt>
      <trkpt lat="-11.6745950" lon="166.9668890">
        <ele>114.0</ele>
        <time>2020-04-19T13:16:52Z</time>
      </trkpt>
      <trkpt lat="-11.6745920" lon="166.9668460">
        <ele>114.2</ele>
        <time>2020-04-19T13:16:53Z</time>
      </trkpt>
      <trkpt lat="-11.6745940" lon="166.9668030">
        <ele>114.6</ele>
        <time>2020-04-19T13:16:54Z</time>
      </trkpt>
      <trkpt lat="-11.6745980" lon="166.9667600">
        <ele>114.8</ele>
        <time>2020-04-19T13:16:55Z</time>
      </trkpt>
      <trkpt lat="-11.6746070" lon="166.9667070">
        <ele>115.0</ele>
        <time>2020-04-19T13:16:56Z</time>
      </trkpt>
      <trkpt lat="-11.6746190" lon="166.9666640">
        <ele>115.4</ele>
        <time>2020-04-19T13:16:57Z</time>
      </trkpt>
      <trkpt lat="-11.6746310" lon="166.9666210">
        <ele>115.6</ele>
        <time>2020-04-19T13:16:58Z</time>
      </trkpt>
      <trkpt lat="-11.6746460" lon="166.9665880">
        <ele>115.8</ele>
        <time>2020-04-19T13:16:59Z</time>
      </trkpt>
      <trkpt lat="-11.6746630" lon="166.9665460">
        <ele>116.0</ele>
        <time>2020-04-19T13:17:00Z</time>
      </trkpt>
      <trkpt lat="-11.6746810" lon="166.9664920">
        <ele>116.4</ele>
        <time>2020-04-19T13:17:01Z</time>
      </trkpt>
      <trkpt lat="-11.6747010" lon="166.9664490">
        <ele>116.6</ele>
        <time>2020-04-19T13:17:02Z</time>
      </trkpt>
      <trkpt lat="-11.6747220" lon="166.9664170">
        <ele>116.8</ele>
        <time>2020-04-19T13:17:03Z</time>
      </trkpt>
      <trkpt lat="-11.6747450" lon="166.9663740">
        <ele>117.0</ele>
        <time>2020-04-19T13:17:04Z</time>
      </trkpt>
      <trkpt lat="-11.6747720" lon="166.9663420">
        <ele>117.2</ele>
        <time>2020-04-19T13:17:05Z</time>
      </trkpt>
      <trkpt lat="-11.6748020" lon="166.9662990">
        <ele>117.6</ele>
        <time>2020-04-19T13:17:06Z</time>
      </trkpt>
      <trkpt lat="-11.6748340" lon="166.9662670">
        <ele>117.8</ele>
        <time>2020-04-19T13:17:07Z</time>
      </trkpt>
      <trkpt lat="-11.6748710" lon="166.9662340">
        <ele>118.0</ele>
        <time>2020-04-19T13:17:08Z</time>
      </trkpt>
      <trkpt lat="-11.6749050" lon="166.9662020">
        <ele>118.4</ele>
        <time>2020-04-19T13:17:09Z</time>
      </trkpt>
      <trkpt lat="-11.6749450" lon="166.9661920">
        <ele>118.6</ele>
        <time>2020-04-19T13:17:10Z</time>
      </trkpt>
      <trkpt lat="-11.6749870" lon="166.9661700">
        <ele>119.0</ele>
        <time>2020-04-19T13:17:11Z</time>
      </trkpt>
      <trkpt lat="-11.6750320" lon="166.9661590">
        <ele>119.4</ele>
        <time>2020-04-19T13:17:12Z</time>
      </trkpt>
      <trkpt lat="-11.6750720" lon="166.9661590">
        <ele>119.6</ele>
        <time>2020-04-19T13:17:13Z</time>
      </trkpt>
      <trkpt lat="-11.6751130" lon="166.9661590">
        <ele>119.8</ele>
        <time>2020-04-19T13:17:14Z</time>
      </trkpt>
      <trkpt lat="-11.6751560" lon="166.9661700">
        <ele>120.2</ele>
        <time>2020-04-19T13:17:15Z</time>
      </trkpt>
      <trkpt lat="-11.6751960" lon="166.9661700">
        <ele>120.4</ele>
        <time>2020-04-19T13:17:16Z</time>
      </trkpt>
      <trkpt lat="-11.6752360" lon="166.9661700">
        <ele>120.8</ele>
        <time>2020-04-19T13:17:17Z</time>
      </trkpt>
      <trkpt lat="-11.6752780" lon="166.9661920">
        <ele>121.0</ele>
        <time>2020-04-19T13:17:18Z</time>
      </trkpt>
      <trkpt lat="-11.6753180" lon="166.9662020">
        <ele>121.2</ele>
        <time>2020-04-19T13:17:19Z</time>
      </trkpt>
      <trkpt lat="-11.6753590" lon="166.9662240">
        <ele>121.6</ele>
        <time>2020-04-19T13:17:20Z</time>
      </trkpt>
      <trkpt lat="-11.6754000" lon="166.9662340">
        <ele>121.8</ele>
        <time>2020-04-19T13:17:21Z</time>
      </trkpt>
      <trkpt lat="-11.6754390" lon="166.9662340">
        <ele>122.0</ele>
        <time>2020-04-19T13:17:22Z</time>
      </trkpt>
      <trkpt lat="-11.6754810" lon="166.9662670">
        <ele>122.4</ele>
        <time>2020-04-19T13:17:23Z</time>
      </trkpt>
      <trkpt lat="-11.6755240" lon="166.9662770">
        <ele>122.6</ele>
        <time>2020-04-19T13:17:24Z</time>
      </trkpt>
      <trkpt lat="-11.6755650" lon="166.9662990">
        <ele>123.0</ele>
        <time>2020-04-19T13:17:25Z</time>
      </trkpt>
      <trkpt lat="-11.6756040" lon="166.9663100">
        <ele>123.2</ele>
        <time>2020-04-19T13:17:26Z</time>
      </trkpt>
      <trkpt lat="-11.6756440" lon="166.9663310">
        <ele>123.4</ele>
        <time>2020-04-19T13:17:27Z</time>
      </trkpt>
      <trkpt lat="-11.6756840" lon="166.9663630">
        <ele>123.8</ele>
        <time>2020-04-19T13:17:28Z</time>
      </trkpt>
      <trkpt lat="-11.6757260" lon="166.9663740">
        <ele>124.0</ele>
        <time>2020-04-19T13:17:29Z</time>
      </trkpt>
      <trkpt lat="-11.6757660" lon="166.9664060">
        <ele>124.4</ele>
        <time>2020-04-19T13:17:30Z</time>
      </trkpt>
      <trkpt lat="-11.6758050" lon="166.9664170">
        <ele>124.6</ele>
        <time>2020-04-19T13:17:31Z</time>
      </trkpt>
      <trkpt lat="-11.6758420" lon="166.9664490">
        <ele>125.0</ele>
        <time>2020-04-19T13:17:32Z</time>
      </trkpt>
      <trkpt lat="-11.6758770" lon="166.9664810">
        <ele>125.2</ele>
        <time>2020-04-19T13:17:33Z</time>
      </trkpt>
      <trkpt lat="-11.6759130" lon="166.9664920">
        <ele>125.4</ele>
        <time>2020-04-19T13:17:34Z</time>
      </trkpt>
      <trkpt lat="-11.6759470" lon="166.9665240">
        <ele>125.8</ele>
        <time>2020-04-19T13:17:35Z</time>
      </trkpt>
      <trkpt lat="-11.6759800" lon="166.9665560">
        <ele>126.0</ele>
        <time>2020-04-19T13:17:36Z</time>
      </trkpt>
      <trkpt lat="-11.6760140" lon="166.9665880">
        <ele>126.4</ele>
        <time>2020-04-19T13:17:37Z</time>
      </trkpt>
      <trkpt lat="-11.6760460" lon="166.9666210">
        <ele>126.6</ele>
        <time>2020-04-19T13:17:38Z</time>
      </trkpt>
      <trkpt lat="-11.6760770" lon="166.9666530">
        <ele>126.8</ele>
        <time>2020-04-19T13:17:39Z</time>
      </trkpt>
      <trkpt lat="-11.6761080" lon="166.9666740">
        <ele>127.2</ele>
        <time>2020-04-19T13:17:40Z</time>
      </trkpt>
      <trkpt lat="-11.6761370" lon="166.9667070">
        <ele>127.4</ele>
        <time>2020-04-19T13:17:41Z</time>
      </trkpt>
      <trkpt lat="-11.6761670" lon="166.9667600">
        <ele>127.6</ele>
        <time>2020-04-19T13:17:42Z</time>
      </trkpt>
      <trkpt lat="-11.6761950" lon="166.9667820">
        <ele>128.0</ele>
        <time>2020-04-19T13:17:43Z</time>
      </trkpt>
      <trkpt lat="-11.6762220" lon="166.9668140">
        <ele>128.2</ele>
        <time>2020-04-19T13:17:44Z</time>
      </trkpt>
      <trkpt lat="-11.6762470" lon="166.9668570">
        <ele>128.4</ele>
        <time>2020-04-19T13:17:45Z</time>
      </trkpt>
      <trkpt lat="-11.6762740" lon="166.9668890">
        <ele>128.8</ele>
        <time>2020-04-19T13:17:46Z</time>
      </trkpt>
      <trkpt lat="-11.6762970" lon="166.9669430">
        <ele>129.0</ele>
        <time>2020-04-19T13:17:47Z</time>
      </trkpt>
      <trkpt lat="-11.6763200" lon="166.9669640">
        <ele>129.2</ele>
        <time>2020-04-19T13:17:48Z</time>
      </trkpt>
      <trkpt lat="-11.6763410" lon="166.9670180">
        <ele>129.6</ele>
        <time>2020-04-19T13:17:49Z</time>
      </trkpt>
      <trkpt lat="-11.6763610" lon="166.9670610">
        <ele>129.8</ele>
        <time>2020-04-19T13:17:50Z</time>
      </trkpt>
      <trkpt lat="-11.6763800" lon="166.9670930">
        <ele>130.0</ele>
        <time>2020-04-19T13:17:51Z</time>
      </trkpt>
      <trkpt lat="-11.6763960" lon="166.9671360">
        <ele>130.4</ele>
        <time>2020-04-19T13:17:52Z</time>
      </trkpt>
      <trkpt lat="-11.6764100" lon="166.9671790">
        <ele>130.6</ele>
        <time>2020-04-19T13:17:53Z</time>
      </trkpt>
      <trkpt lat="-11.6764200" lon="166.9672320">
        <ele>131.0</ele>
        <time>2020-04-19T13:17:54Z</time>
      </trkpt>
      <trkpt lat="-11.6764260" lon="166.9672750">
        <ele>131.2</ele>
        <time>2020-04-19T13:17:55Z</time>
      </trkpt>
      <trkpt lat="-11.6764280" lon="166.9673180">
        <ele>131.4</ele>
        <time>2020-04-19T13:17:56Z</time>
      </trkpt>
      <trkpt lat="-11.6764260" lon="166.9673820">
        <ele>131.8</ele>
        <time>2020-04-19T13:17:57Z</time>
      </trkpt>
      <trkpt lat="-11.6764220" lon="166.9674250">
        <ele>132.0</ele>
        <time>2020-04-19T13:17:58Z</time>
      </trkpt>
      <trkpt lat="-11.6764140" lon="166.9674680">
        <ele>132.2</ele>
        <time>2020-04-19T13:17:59Z</time>
      </trkpt>
      <trkpt lat="-11.6764030" lon="166.9675220">
        <ele>132.6</ele>
        <time>2020-04-19T13:18:00Z</time>
      </trkpt>
      <trkpt lat="-11.6763920" lon="166.9675650">
        <ele>132.8</ele>
        <time>2020-04-19T13:18:01Z</time>
      </trkpt>
      <trkpt lat="-11.6763800" lon="166.9676080">
        <ele>133.0</ele>
        <time>2020-04-19T13:18:02Z</time>
      </trkpt>
      <trkpt lat="-11.6763670" lon="166.9676720">
        <ele>133.2</ele>
        <time>2020-04-19T13:18:03Z</time>
      </trkpt>
      <trkpt lat="-11.6763510" lon="166.9677150">
        <ele>133.6</ele>
        <time>2020-04-19T13:18:04Z</time>
      </trkpt>
      <trkpt lat="-11.6763360" lon="166.9677580">
        <ele>133.8</ele>
        <time>2020-04-19T13:18:05Z</time>
      </trkpt>
      <trkpt lat="-11.6763220" lon="166.9678120">
        <ele>134.0</ele>
        <time>2020-04-19T13:18:06Z</time>
      </trkpt>
      <trkpt lat="-11.6763080" lon="166.9678650">
        <ele>134.2</ele>
        <time>2020-04-19T13:18:07Z</time>
      </trkpt>
      <trkpt lat="-11.6762970" lon="166.9679190">
        <ele>134.6</ele>
        <time>2020-04-19T13:18:08Z</time>
      </trkpt>
      <trkpt lat="-11.6762860" lon="166.9679620">
        <ele>134.8</ele>
        <time>2020-04-19T13:18:09Z</time>
      </trkpt>
      <trkpt lat="-11.6762810" lon="166.9680260">
        <ele>135.0</ele>
        <time>2020-04-19T13:18:10Z</time>
      </trkpt>
      <trkpt lat="-11.6762810" lon="166.9680690">
        <ele>135.2</ele>
        <time>2020-04-19T13:18:11Z</time>
      </trkpt>
      <trkpt lat="-11.6762880" lon="166.9681330">
        <ele>135.4</ele>
        <time>2020-04-19T13:18:12Z</time>
      </trkpt>
      <trkpt lat="-11.6762960" lon="166.9681760">
        <ele>135.6</ele>
        <time>2020-04-19T13:18:13Z</time>
      </trkpt>
      <trkpt lat="-11.6763090" lon="166.9682190">
        <ele>135.8</ele>
        <time>2020-04-19T13:18:14Z</time>
      </trkpt>
      <trkpt lat="-11.6763280" lon="166.9682840">
        <ele>136.0</ele>
        <time>2020-04-19T13:18:15Z</time>
      </trkpt>
      <trkpt lat="-11.6763490" lon="166.9683270">
        <ele>136.0</ele>
        <time>2020-04-19T13:18:16Z</time>
      </trkpt>
      <trkpt lat="-11.6763760" lon="166.9683910">
        <ele>136.2</ele>
        <time>2020-04-19T13:18:17Z</time>
      </trkpt>
      <trkpt lat="-11.6764030" lon="166.9684450">
        <ele>136.4</ele>
        <time>2020-04-19T13:18:18Z</time>
      </trkpt>
      <trkpt lat="-11.6764360" lon="166.9684980">
        <ele>136.4</ele>
        <time>2020-04-19T13:18:19Z</time>
      </trkpt>
      <trkpt lat="-11.6764750" lon="166.9685520">
        <ele>136.6</ele>
        <time>2020-04-19T13:18:20Z</time>
      </trkpt>
      <trkpt lat="-11.6765150" lon="166.9686060">
        <ele>136.6</ele>
        <time>2020-04-19T13:18:21Z</time>
      </trkpt>
      <trkpt lat="-11.6765660" lon="166.9686480">
        <ele>136.8</ele>
        <time>2020-04-19T13:18:22Z</time>
      </trkpt>
      <trkpt lat="-11.6766210" lon="166.9686810">
        <ele>137.0</ele>
        <time>2020-04-19T13:18:23Z</time>
      </trkpt>
      <trkpt lat="-11.6766840" lon="166.9687130">
        <ele>137.2</ele>
        <time>2020-04-19T13:18:24Z</time>
      </trkpt>
      <trkpt lat="-11.6767520" lon="166.9687130">
        <ele>137.4</ele>
        <time>2020-04-19T13:18:25Z</time>
      </trkpt>
      <trkpt lat="-11.6768160" lon="166.9687130">
        <ele>137.6</ele>
        <time>2020-04-19T13:18:26Z</time>
      </trkpt>
      <trkpt lat="-11.6768830" lon="166.9687130">
        <ele>137.8</ele>
        <time>2020-04-19T13:18:27Z</time>
      </trkpt>
      <trkpt lat="-11.6769490" lon="166.9686910">
        <ele>137.8</ele>
        <time>2020-04-19T13:18:28Z</time>
      </trkpt>
      <trkpt lat="-11.6770130" lon="166.9686590">
        <ele>138.2</ele>
        <time>2020-04-19T13:18:29Z</time>
      </trkpt>
      <trkpt lat="-11.6770720" lon="166.9686480">
        <ele>138.4</ele>
        <time>2020-04-19T13:18:30Z</time>
      </trkpt>
      <trkpt lat="-11.6771260" lon="166.9686060">
        <ele>138.8</ele>
        <time>2020-04-19T13:18:31Z</time>
      </trkpt>
      <trkpt lat="-11.6771620" lon="166.9685520">
        <ele>139.2</ele>
        <time>2020-04-19T13:18:32Z</time>
      </trkpt>
      <trkpt lat="-11.6771850" lon="166.9684980">
        <ele>139.6</ele>
        <time>2020-04-19T13:18:33Z</time>
      </trkpt>
      <trkpt lat="-11.6771980" lon="166.9684450">
        <ele>140.0</ele>
        <time>2020-04-19T13:18:34Z</time>
      </trkpt>
      <trkpt lat="-11.6772050" lon="166.9684020">
        <ele>140.4</ele>
        <time>2020-04-19T13:18:35Z</time>
      </trkpt>
      <trkpt lat="-11.6772060" lon="166.9683370">
        <ele>140.8</ele>
        <time>2020-04-19T13:18:36Z</time>
      </trkpt>
      <trkpt lat="-11.6772070" lon="166.9682940">
        <ele>141.2</ele>
        <time>2020-04-19T13:18:37Z</time>
      </trkpt>
      <trkpt lat="-11.6772090" lon="166.9682510">
        <ele>141.4</ele>
        <time>2020-04-19T13:18:38Z</time>
      </trkpt>
      <trkpt lat="-11.6772090" lon="166.9681870">
        <ele>141.8</ele>
        <time>2020-04-19T13:18:39Z</time>
      </trkpt>
      <trkpt lat="-11.6772130" lon="166.9681440">
        <ele>142.0</ele>
        <time>2020-04-19T13:18:40Z</time>
      </trkpt>
      <trkpt lat="-11.6772180" lon="166.9681010">
        <ele>142.4</ele>
        <time>2020-04-19T13:18:41Z</time>
      </trkpt>
      <trkpt lat="-11.6772240" lon="166.9680480">
        <ele>142.6</ele>
        <time>2020-04-19T13:18:42Z</time>
      </trkpt>
      <trkpt lat="-11.6772290" lon="166.9680050">
        <ele>143.0</ele>
        <time>2020-04-19T13:18:43Z</time>
      </trkpt>
      <trkpt lat="-11.6772340" lon="166.9679620">
        <ele>143.2</ele>
        <time>2020-04-19T13:18:44Z</time>
      </trkpt>
      <trkpt lat="-11.6772380" lon="166.9679190">
        <ele>143.6</ele>
        <time>2020-04-19T13:18:45Z</time>
      </trkpt>
      <trkpt lat="-11.6772420" lon="166.9678870">
        <ele>143.8</ele>
        <time>2020-04-19T13:18:46Z</time>
      </trkpt>
      <trkpt lat="-11.6772460" lon="166.9678440">
        <ele>144.2</ele>
        <time>2020-04-19T13:18:47Z</time>
      </trkpt>
      <trkpt lat="-11.6772500" lon="166.9677900">
        <ele>144.4</ele>
        <time>2020-04-19T13:18:48Z</time>
      </trkpt>
      <trkpt lat="-11.6772530" lon="166.9677470">
        <ele>144.8</ele>
        <time>2020-04-19T13:18:49Z</time>
      </trkpt>
      <trkpt lat="-11.6772540" lon="166.9677040">
        <ele>145.0</ele>
        <time>2020-04-19T13:18:50Z</time>
      </trkpt>
      <trkpt lat="-11.6772570" lon="166.9676720">
        <ele>145.4</ele>
        <time>2020-04-19T13:18:51Z</time>
      </trkpt>
      <trkpt lat="-11.6772600" lon="166.9676290">
        <ele>145.6</ele>
        <time>2020-04-19T13:18:52Z</time>
      </trkpt>
      <trkpt lat="-11.6772610" lon="166.9675760">
        <ele>145.8</ele>
        <time>2020-04-19T13:18:53Z</time>
      </trkpt>
      <trkpt lat="-11.6772640" lon="166.9675330">
        <ele>146.2</ele>
        <time>2020-04-19T13:18:54Z</time>
      </trkpt>
      <trkpt lat="-11.6772680" lon="166.9675000">
        <ele>146.4</ele>
        <time>2020-04-19T13:18:55Z</time>
      </trkpt>
      <trkpt lat="-11.6772690" lon="166.9674580">
        <ele>146.8</ele>
        <time>2020-04-19T13:18:56Z</time>
      </trkpt>
      <trkpt lat="-11.6772720" lon="166.9674150">
        <ele>147.0</ele>
        <time>2020-04-19T13:18:57Z</time>
      </trkpt>
      <trkpt lat="-11.6772750" lon="166.9673610">
        <ele>147.4</ele>
        <time>2020-04-19T13:18:58Z</time>
      </trkpt>
      <trkpt lat="-11.6772750" lon="166.9673180">
        <ele>147.6</ele>
        <time>2020-04-19T13:18:59Z</time>
      </trkpt>
      <trkpt lat="-11.6772770" lon="166.9672860">
        <ele>148.0</ele>
        <time>2020-04-19T13:19:00Z</time>
      </trkpt>
      <trkpt lat="-11.6772790" lon="166.9672430">
        <ele>148.2</ele>
        <time>2020-04-19T13:19:01Z</time>
      </trkpt>
      <trkpt lat="-11.6772810" lon="166.9672000">
        <ele>148.6</ele>
        <time>2020-04-19T13:19:02Z</time>
      </trkpt>
      <trkpt lat="-11.6772840" lon="166.9671570">
        <ele>148.8</ele>
        <time>2020-04-19T13:19:03Z</time>
      </trkpt>
      <trkpt lat="-11.6772870" lon="166.9671250">
        <ele>149.2</ele>
        <time>2020-04-19T13:19:04Z</time>
      </trkpt>
      <trkpt lat="-11.6772880" lon="166.9670710">
        <ele>149.4</ele>
        <time>2020-04-19T13:19:05Z</time>
      </trkpt>
      <trkpt lat="-11.6772910" lon="166.9670500">
        <ele>149.8</ele>
        <time>2020-04-19T13:19:06Z</time>
      </trkpt>
      <trkpt lat="-11.6772920" lon="166.9669960">
        <ele>150.0</ele>
        <time>2020-04-19T13:19:07Z</time>
      </trkpt>
      <trkpt lat="-11.6772950" lon="166.9669530">
        <ele>150.2</ele>
        <time>2020-04-19T13:19:08Z</time>
      </trkpt>
      <trkpt lat="-11.6772970" lon="166.9669210">
        <ele>150.6</ele>
        <time>2020-04-19T13:19:09Z</time>
      </trkpt>
      <trkpt lat="-11.6773000" lon="166.9668780">
        <ele>150.8</ele>
        <time>2020-04-19T13:19:10Z</time>
      </trkpt>
      <trkpt lat="-11.6773040" lon="166.9668350">
        <ele>151.2</ele>
        <time>2020-04-19T13:19:11Z</time>
      </trkpt>
      <trkpt lat="-11.6773110" lon="166.9668030">
        <ele>151.4</ele>
        <time>2020-04-19T13:19:12Z</time>
      </trkpt>
      <trkpt lat="-11.6773150" lon="166.9667600">
        <ele>151.8</ele>
        <time>2020-04-19T13:19:13Z</time>
      </trkpt>
      <trkpt lat="-11.6773170" lon="166.9667070">
        <ele>152.0</ele>
        <time>2020-04-19T13:19:14Z</time>
      </trkpt>
      <trkpt lat="-11.6773190" lon="166.9666740">
        <ele>152.4</ele>
        <time>2020-04-19T13:19:15Z</time>
      </trkpt>
      <trkpt lat="-11.6773200" lon="166.9666310">
        <ele>152.6</ele>
        <time>2020-04-19T13:19:16Z</time>
      </trkpt>
      <trkpt lat="-11.6773230" lon="166.9665990">
        <ele>153.0</ele>
        <time>2020-04-19T13:19:17Z</time>
      </trkpt>
      <trkpt lat="-11.6773260" lon="166.9665560">
        <ele>153.2</ele>
        <time>2020-04-19T13:19:18Z</time>
      </trkpt>
      <trkpt lat="-11.6773310" lon="166.9665240">
        <ele>153.4</ele>
        <time>2020-04-19T13:19:19Z</time>
      </trkpt>
      <trkpt lat="-11.6773380" lon="166.9664810">
        <ele>153.8</ele>
        <time>2020-04-19T13:19:20Z</time>
      </trkpt>
      <trkpt lat="-11.6773480" lon="166.9664490">
        <ele>154.0</ele>
        <time>2020-04-19T13:19:21Z</time>
      </trkpt>
      <trkpt lat="-11.6773580" lon="166.9664060">
        <ele>154.2</ele>
        <time>2020-04-19T13:19:22Z</time>
      </trkpt>
      <trkpt lat="-11.6773680" lon="166.9663740">
        <ele>154.6</ele>
        <time>2020-04-19T13:19:23Z</time>
      </trkpt>
      <trkpt lat="-11.6773820" lon="166.9663420">
        <ele>154.8</ele>
        <time>2020-04-19T13:19:24Z</time>
      </trkpt>
      <trkpt lat="-11.6773940" lon="166.9662990">
        <ele>155.0</ele>
        <time>2020-04-19T13:19:25Z</time>
      </trkpt>
      <trkpt lat="-11.6774090" lon="166.9662670">
        <ele>155.4</ele>
        <time>2020-04-19T13:19:26Z</time>
      </trkpt>
      <trkpt lat="-11.6774230" lon="166.9662340">
        <ele>155.6</ele>
        <time>2020-04-19T13:19:27Z</time>
      </trkpt>
      <trkpt lat="-11.6774380" lon="166.9661920">
        <ele>155.8</ele>
        <time>2020-04-19T13:19:28Z</time>
      </trkpt>
      <trkpt lat="-11.6774530" lon="166.9661590">
        <ele>156.0</ele>
        <time>2020-04-19T13:19:29Z</time>
      </trkpt>
      <trkpt lat="-11.6774660" lon="166.9661160">
        <ele>156.2</ele>
        <time>2020-04-19T13:19:30Z</time>
      </trkpt>
      <trkpt lat="-11.6774820" lon="166.9660840">
        <ele>156.6</ele>
        <time>2020-04-19T13:19:31Z</time>
      </trkpt>
      <trkpt lat="-11.6774970" lon="166.9660410">
        <ele>156.8</ele>
        <time>2020-04-19T13:19:32Z</time>
      </trkpt>
      <trkpt lat="-11.6775150" lon="166.9659880">
        <ele>157.0</ele>
        <time>2020-04-19T13:19:33Z</time>
      </trkpt>
      <trkpt lat="-11.6775320" lon="166.9659660">
        <ele>157.2</ele>
        <time>2020-04-19T13:19:34Z</time>
      </trkpt>
      <trkpt lat="-11.6775480" lon="166.9659130">
        <ele>157.6</ele>
        <time>2020-04-19T13:19:35Z</time>
      </trkpt>
      <trkpt lat="-11.6775680" lon="166.9658800">
        <ele>157.8</ele>
        <time>2020-04-19T13:19:36Z</time>
      </trkpt>
      <trkpt lat="-11.6775880" lon="166.9658370">
        <ele>158.0</ele>
        <time>2020-04-19T13:19:37Z</time>
      </trkpt>
      <trkpt lat="-11.6776080" lon="166.9658050">
        <ele>158.4</ele>
        <time>2020-04-19T13:19:38Z</time>
      </trkpt>
      <trkpt lat="-11.6776310" lon="166.9657620">
        <ele>158.6</ele>
        <time>2020-04-19T13:19:39Z</time>
      </trkpt>
      <trkpt lat="-11.6776540" lon="166.9657300">
        <ele>158.8</ele>
        <time>2020-04-19T13:19:40Z</time>
      </trkpt>
      <trkpt lat="-11.6776770" lon="166.9656870">
        <ele>159.2</ele>
        <time>2020-04-19T13:19:41Z</time>
      </trkpt>
      <trkpt lat="-11.6777040" lon="166.9656550">
        <ele>159.4</ele>
        <time>2020-04-19T13:19:42Z</time>
      </trkpt>
      <trkpt lat="-11.6777310" lon="166.9656230">
        <ele>159.8</ele>
        <time>2020-04-19T13:19:43Z</time>
      </trkpt>
      <trkpt lat="-11.6777600" lon="166.9655910">
        <ele>160.0</ele>
        <time>2020-04-19T13:19:44Z</time>
      </trkpt>
      <trkpt lat="-11.6777910" lon="166.9655690">
        <ele>160.4</ele>
        <time>2020-04-19T13:19:45Z</time>
      </trkpt>
      <trkpt lat="-11.6778230" lon="166.9655370">
        <ele>160.6</ele>
        <time>2020-04-19T13:19:46Z</time>
      </trkpt>
      <trkpt lat="-11.6778550" lon="166.9655050">
        <ele>161.0</ele>
        <time>2020-04-19T13:19:47Z</time>
      </trkpt>
      <trkpt lat="-11.6778910" lon="166.9654830">
        <ele>161.2</ele>
        <time>2020-04-19T13:19:48Z</time>
      </trkpt>
      <trkpt lat="-11.6779280" lon="166.9654730">
        <ele>161.6</ele>
        <time>2020-04-19T13:19:49Z</time>
      </trkpt>
      <trkpt lat="-11.6779650" lon="166.9654620">
        <ele>161.8</ele>
        <time>2020-04-19T13:19:50Z</time>
      </trkpt>
      <trkpt lat="-11.6780040" lon="166.9654410">
        <ele>162.2</ele>
        <time>2020-04-19T13:19:51Z</time>
      </trkpt>
      <trkpt lat="-11.6780430" lon="166.9654300">
        <ele>162.4</ele>
        <time>2020-04-19T13:19:52Z</time>
      </trkpt>
      <trkpt lat="-11.6780830" lon="166.9654080">
        <ele>162.8</ele>
        <time>2020-04-19T13:19:53Z</time>
      </trkpt>
      <trkpt lat="-11.6781220" lon="166.9653980">
        <ele>163.0</ele>
        <time>2020-04-19T13:19:54Z</time>
      </trkpt>
      <trkpt lat="-11.6781610" lon="166.9653870">
        <ele>163.2</ele>
        <time>2020-04-19T13:19:55Z</time>
      </trkpt>
      <trkpt lat="-11.6782010" lon="166.9653870">
        <ele>163.6</ele>
        <time>2020-04-19T13:19:56Z</time>
      </trkpt>
      <trkpt lat="-11.6782410" lon="166.9653650">
        <ele>163.8</ele>
        <time>2020-04-19T13:19:57Z</time>
      </trkpt>
      <trkpt lat="-11.6782820" lon="166.9653650">
        <ele>164.2</ele>
        <time>2020-04-19T13:19:58Z</time>
      </trkpt>
      <trkpt lat="-11.6783230" lon="166.9653650">
        <ele>164.4</ele>
        <time>2020-04-19T13:19:59Z</time>
      </trkpt>
      <trkpt lat="-11.6783640" lon="166.9653650">
        <ele>164.8</ele>
        <time>2020-04-19T13:20:00Z</time>
      </trkpt>
      <trkpt lat="-11.6784050" lon="166.9653550">
        <ele>165.0</ele>
        <time>2020-04-19T13:20:01Z</time>
      </trkpt>
      <trkpt lat="-11.6784470" lon="166.9653550">
        <ele>165.4</ele>
        <time>2020-04-19T13:20:02Z</time>
      </trkpt>
      <trkpt lat="-11.6784880" lon="166.9653650">
        <ele>165.6</ele>
        <time>2020-04-19T13:20:03Z</time>
      </trkpt>
      <trkpt lat="-11.6785280" lon="166.9653650">
        <ele>166.0</ele>
        <time>2020-04-19T13:20:04Z</time>
      </trkpt>
      <trkpt lat="-11.6785670" lon="166.9653650">
        <ele>166.2</ele>
        <time>2020-04-19T13:20:05Z</time>
      </trkpt>
      <trkpt lat="-11.6786060" lon="166.9653870">
        <ele>166.6</ele>
        <time>2020-04-19T13:20:06Z</time>
      </trkpt>
      <trkpt lat="-11.6786450" lon="166.9653980">
        <ele>167.0</ele>
        <time>2020-04-19T13:20:07Z</time>
      </trkpt>
      <trkpt lat="-11.6786770" lon="166.9654300">
        <ele>167.2</ele>
        <time>2020-04-19T13:20:08Z</time>
      </trkpt>
      <trkpt lat="-11.6787060" lon="166.9654410">
        <ele>167.4</ele>
        <time>2020-04-19T13:20:09Z</time>
      </trkpt>
      <trkpt lat="-11.6787340" lon="166.9654730">
        <ele>167.8</ele>
        <time>2020-04-19T13:20:10Z</time>
      </trkpt>
      <trkpt lat="-11.6787620" lon="166.9655050">
        <ele>168.0</ele>
        <time>2020-04-19T13:20:11Z</time>
      </trkpt>
      <trkpt lat="-11.6787860" lon="166.9655480">
        <ele>168.2</ele>
        <time>2020-04-19T13:20:12Z</time>
      </trkpt>
      <trkpt lat="-11.6788060" lon="166.9655800">
        <ele>168.4</ele>
        <time>2020-04-19T13:20:13Z</time>
      </trkpt>
      <trkpt lat="-11.6788290" lon="166.9656230">
        <ele>168.8</ele>
        <time>2020-04-19T13:20:14Z</time>
      </trkpt>
      <trkpt lat="-11.6788480" lon="166.9656550">
        <ele>169.0</ele>
        <time>2020-04-19T13:20:15Z</time>
      </trkpt>
      <trkpt lat="-11.6788650" lon="166.9656980">
        <ele>169.2</ele>
        <time>2020-04-19T13:20:16Z</time>
      </trkpt>
      <trkpt lat="-11.6788840" lon="166.9657520">
        <ele>169.4</ele>
        <time>2020-04-19T13:20:17Z</time>
      </trkpt>
      <trkpt lat="-11.6789010" lon="166.9657950">
        <ele>169.8</ele>
        <time>2020-04-19T13:20:18Z</time>
      </trkpt>
      <trkpt lat="-11.6789170" lon="166.9658270">
        <ele>170.0</ele>
        <time>2020-04-19T13:20:19Z</time>
      </trkpt>
      <trkpt lat="-11.6789350" lon="166.9658700">
        <ele>170.4</ele>
        <time>2020-04-19T13:20:20Z</time>
      </trkpt>
      <trkpt lat="-11.6789550" lon="166.9659130">
        <ele>170.6</ele>
        <time>2020-04-19T13:20:21Z</time>
      </trkpt>
      <trkpt lat="-11.6789750" lon="166.9659660">
        <ele>171.0</ele>
        <time>2020-04-19T13:20:22Z</time>
      </trkpt>
      <trkpt lat="-11.6789950" lon="166.9659880">
        <ele>171.2</ele>
        <time>2020-04-19T13:20:23Z</time>
      </trkpt>
      <trkpt lat="-11.6790150" lon="166.9660410">
        <ele>171.4</ele>
        <time>2020-04-19T13:20:24Z</time>
      </trkpt>
      <trkpt lat="-11.6790370" lon="166.9660740">
        <ele>171.8</ele>
        <time>2020-04-19T13:20:25Z</time>
      </trkpt>
      <trkpt lat="-11.6790560" lon="166.9661160">
        <ele>172.0</ele>
        <time>2020-04-19T13:20:26Z</time>
      </trkpt>
      <trkpt lat="-11.6790760" lon="166.9661590">
        <ele>172.4</ele>
        <time>2020-04-19T13:20:27Z</time>
      </trkpt>
      <trkpt lat="-11.6790920" lon="166.9661920">
        <ele>172.6</ele>
        <time>2020-04-19T13:20:28Z</time>
      </trkpt>
      <trkpt lat="-11.6791070" lon="166.9662340">
        <ele>172.8</ele>
        <time>2020-04-19T13:20:29Z</time>
      </trkpt>
      <trkpt lat="-11.6791200" lon="166.9662670">
        <ele>173.2</ele>
        <time>2020-04-19T13:20:30Z</time>
      </trkpt>
      <trkpt lat="-11.6791330" lon="166.9663100">
        <ele>173.4</ele>
        <time>2020-04-19T13:20:31Z</time>
      </trkpt>
      <trkpt lat="-11.6791410" lon="166.9663630">
        <ele>173.6</ele>
        <time>2020-04-19T13:20:32Z</time>
      </trkpt>
      <trkpt lat="-11.6791490" lon="166.9664060">
        <ele>174.0</ele>
        <time>2020-04-19T13:20:33Z</time>
      </trkpt>
      <trkpt lat="-11.6791530" lon="166.9664490">
        <ele>174.2</ele>
        <time>2020-04-19T13:20:34Z</time>
      </trkpt>
      <trkpt lat="-11.6791560" lon="166.9664810">
        <ele>174.6</ele>
        <time>2020-04-19T13:20:35Z</time>
      </trkpt>
      <trkpt lat="-11.6791560" lon="166.9665240">
        <ele>174.8</ele>
        <time>2020-04-19T13:20:36Z</time>
      </trkpt>
      <trkpt lat="-11.6791550" lon="166.9665670">
        <ele>175.0</ele>
        <time>2020-04-19T13:20:37Z</time>
      </trkpt>
      <trkpt lat="-11.6791490" lon="166.9666210">
        <ele>175.4</ele>
        <time>2020-04-19T13:20:38Z</time>
      </trkpt>
      <trkpt lat="-11.6791430" lon="166.9666640">
        <ele>175.6</ele>
        <time>2020-04-19T13:20:39Z</time>
      </trkpt>
      <trkpt lat="-11.6791330" lon="166.9666960">
        <ele>175.8</ele>
        <time>2020-04-19T13:20:40Z</time>
      </trkpt>
      <trkpt lat="-11.6791210" lon="166.9667390">
        <ele>176.2</ele>
        <time>2020-04-19T13:20:41Z</time>
      </trkpt>
      <trkpt lat="-11.6791090" lon="166.9667820">
        <ele>176.4</ele>
        <time>2020-04-19T13:20:42Z</time>
      </trkpt>
      <trkpt lat="-11.6790930" lon="166.9668350">
        <ele>176.6</ele>
        <time>2020-04-19T13:20:43Z</time>
      </trkpt>
      <trkpt lat="-11.6790770" lon="166.9668780">
        <ele>177.0</ele>
        <time>2020-04-19T13:20:44Z</time>
      </trkpt>
      <trkpt lat="-11.6790610" lon="166.9669100">
        <ele>177.2</ele>
        <time>2020-04-19T13:20:45Z</time>
      </trkpt>
      <trkpt lat="-11.6790430" lon="166.9669530">
        <ele>177.4</ele>
        <time>2020-04-19T13:20:46Z</time>
      </trkpt>
      <trkpt lat="-11.6790260" lon="166.9669960">
        <ele>177.8</ele>
        <time>2020-04-19T13:20:47Z</time>
      </trkpt>
      <trkpt lat="-11.6790090" lon="166.9670500">
        <ele>178.0</ele>
        <time>2020-04-19T13:20:48Z</time>
      </trkpt>
      <trkpt lat="-11.6789880" lon="166.9670930">
        <ele>178.2</ele>
        <time>2020-04-19T13:20:49Z</time>
      </trkpt>
      <trkpt lat="-11.6789710" lon="166.9671360">
        <ele>178.6</ele>
        <time>2020-04-19T13:20:50Z</time>
      </trkpt>
      <trkpt lat="-11.6789520" lon="166.9671680">
        <ele>178.8</ele>
        <time>2020-04-19T13:20:51Z</time>
      </trkpt>
      <trkpt lat="-11.6789340" lon="166.9672110">
        <ele>179.2</ele>
        <time>2020-04-19T13:20:52Z</time>
      </trkpt>
      <trkpt lat="-11.6789170" lon="166.9672540">
        <ele>179.4</ele>
        <time>2020-04-19T13:20:53Z</time>
      </trkpt>
      <trkpt lat="-11.6789010" lon="166.9673070">
        <ele>179.6</ele>
        <time>2020-04-19T13:20:54Z</time>
      </trkpt>
      <trkpt lat="-11.6788840" lon="166.9673500">
        <ele>180.0</ele>
        <time>2020-04-19T13:20:55Z</time>
      </trkpt>
      <trkpt lat="-11.6788680" lon="166.9673930">
        <ele>180.2</ele>
        <time>2020-04-19T13:20:56Z</time>
      </trkpt>
      <trkpt lat="-11.6788560" lon="166.9674470">
        <ele>180.6</ele>
        <time>2020-04-19T13:20:57Z</time>
      </trkpt>
      <trkpt lat="-11.6788460" lon="166.9674900">
        <ele>180.8</ele>
        <time>2020-04-19T13:20:58Z</time>
      </trkpt>
      <trkpt lat="-11.6788370" lon="166.9675330">
        <ele>181.2</ele>
        <time>2020-04-19T13:20:59Z</time>
      </trkpt>
      <trkpt lat="-11.6788260" lon="166.9675760">
        <ele>181.4</ele>
        <time>2020-04-19T13:21:00Z</time>
      </trkpt>
      <trkpt lat="-11.6788180" lon="166.9676290">
        <ele>181.8</ele>
        <time>2020-04-19T13:21:01Z</time>
      </trkpt>
      <trkpt lat="-11.6788150" lon="166.9676720">
        <ele>182.0</ele>
        <time>2020-04-19T13:21:02Z</time>
      </trkpt>
      <trkpt lat="-11.6788150" lon="166.9677150">
        <ele>182.4</ele>
        <time>2020-04-19T13:21:03Z</time>
      </trkpt>
      <trkpt lat="-11.6788150" lon="166.9677470">
        <ele>182.8</ele>
        <time>2020-04-19T13:21:04Z</time>
      </trkpt>
      <trkpt lat="-11.6788140" lon="166.9677900">
        <ele>183.0</ele>
        <time>2020-04-19T13:21:05Z</time>
      </trkpt>
      <trkpt lat="-11.6788150" lon="166.9678440">
        <ele>183.4</ele>
        <time>2020-04-19T13:21:06Z</time>
      </trkpt>
      <trkpt lat="-11.6788170" lon="166.9678870">
        <ele>183.6</ele>
        <time>2020-04-19T13:21:07Z</time>
      </trkpt>
      <trkpt lat="-11.6788200" lon="166.9679300">
        <ele>184.0</ele>
        <time>2020-04-19T13:21:08Z</time>
      </trkpt>
      <trkpt lat="-11.6788220" lon="166.9679730">
        <ele>184.2</ele>
        <time>2020-04-19T13:21:09Z</time>
      </trkpt>
      <trkpt lat="-11.6788220" lon="166.9680260">
        <ele>184.6</ele>
        <time>2020-04-19T13:21:10Z</time>
      </trkpt>
      <trkpt lat="-11.6788280" lon="166.9680690">
        <ele>184.8</ele>
        <time>2020-04-19T13:21:11Z</time>
      </trkpt>
      <trkpt lat="-11.6788330" lon="166.9681010">
        <ele>185.2</ele>
        <time>2020-04-19T13:21:12Z</time>
      </trkpt>
      <trkpt lat="-11.6788400" lon="166.9681440">
        <ele>185.4</ele>
        <time>2020-04-19T13:21:13Z</time>
      </trkpt>
      <trkpt lat="-11.6788460" lon="166.9681870">
        <ele>185.8</ele>
        <time>2020-04-19T13:21:14Z</time>
      </trkpt>
      <trkpt lat="-11.6788520" lon="166.9682300">
        <ele>186.0</ele>
        <time>2020-04-19T13:21:15Z</time>
      </trkpt>
      <trkpt lat="-11.6788580" lon="166.9682840">
        <ele>186.2</ele>
        <time>2020-04-19T13:21:16Z</time>
      </trkpt>
      <trkpt lat="-11.6788650" lon="166.9683160">
        <ele>186.6</ele>
        <time>2020-04-19T13:21:17Z</time>
      </trkpt>
      <trkpt lat="-11.6788690" lon="166.9683590">
        <ele>186.8</ele>
        <time>2020-04-19T13:21:18Z</time>
      </trkpt>
      <trkpt lat="-11.6788720" lon="166.9684020">
        <ele>187.2</ele>
        <time>2020-04-19T13:21:19Z</time>
      </trkpt>
      <trkpt lat="-11.6788790" lon="166.9684450">
        <ele>187.4</ele>
        <time>2020-04-19T13:21:20Z</time>
      </trkpt>
      <trkpt lat="-11.6788850" lon="166.9684980">
        <ele>187.8</ele>
        <time>2020-04-19T13:21:21Z</time>
      </trkpt>
      <trkpt lat="-11.6788910" lon="166.9685300">
        <ele>188.0</ele>
        <time>2020-04-19T13:21:22Z</time>
      </trkpt>
      <trkpt lat="-11.6788960" lon="166.9685730">
        <ele>188.4</ele>
        <time>2020-04-19T13:21:23Z</time>
      </trkpt>
      <trkpt lat="-11.6789010" lon="166.9686160">
        <ele>188.6</ele>
        <time>2020-04-19T13:21:24Z</time>
      </trkpt>
      <trkpt lat="-11.6789080" lon="166.9686590">
        <ele>189.0</ele>
        <time>2020-04-19T13:21:25Z</time>
      </trkpt>
      <trkpt lat="-11.6789120" lon="166.9687130">
        <ele>189.2</ele>
        <time>2020-04-19T13:21:26Z</time>
      </trkpt>
      <trkpt lat="-11.6789170" lon="166.9687560">
        <ele>189.6</ele>
        <time>2020-04-19T13:21:27Z</time>
      </trkpt>
      <trkpt lat="-11.6789170" lon="166.9687990">
        <ele>189.8</ele>
        <time>2020-04-19T13:21:28Z</time>
      </trkpt>
      <trkpt lat="-11.6789200" lon="166.9688420">
        <ele>190.2</ele>
        <time>2020-04-19T13:21:29Z</time>
      </trkpt>
      <trkpt lat="-11.6789230" lon="166.9688950">
        <ele>190.4</ele>
        <time>2020-04-19T13:21:30Z</time>
      </trkpt>
      <trkpt lat="-11.6789240" lon="166.9689380">
        <ele>190.8</ele>
        <time>2020-04-19T13:21:31Z</time>
      </trkpt>
      <trkpt lat="-11.6789240" lon="166.9689810">
        <ele>191.0</ele>
        <time>2020-04-19T13:21:32Z</time>
      </trkpt>
      <trkpt lat="-11.6789230" lon="166.9690240">
        <ele>191.4</ele>
        <time>2020-04-19T13:21:33Z</time>
      </trkpt>
      <trkpt lat="-11.6789200" lon="166.9690780">
        <ele>191.6</ele>
        <time>2020-04-19T13:21:34Z</time>
      </trkpt>
      <trkpt lat="-11.6789170" lon="166.9691210">
        <ele>192.0</ele>
        <time>2020-04-19T13:21:35Z</time>
      </trkpt>
      <trkpt lat="-11.6789120" lon="166.9691630">
        <ele>192.2</ele>
        <time>2020-04-19T13:21:36Z</time>
      </trkpt>
      <trkpt lat="-11.6789080" lon="166.9692170">
        <ele>192.4</ele>
        <time>2020-04-19T13:21:37Z</time>
      </trkpt>
      <trkpt lat="-11.6789030" lon="166.9692600">
        <ele>192.8</ele>
        <time>2020-04-19T13:21:38Z</time>
      </trkpt>
      <trkpt lat="-11.6788960" lon="166.9692920">
        <ele>193.0</ele>
        <time>2020-04-19T13:21:39Z</time>
      </trkpt>
      <trkpt lat="-11.6788910" lon="166.9693350">
        <ele>193.4</ele>
        <time>2020-04-19T13:21:40Z</time>
      </trkpt>
      <trkpt lat="-11.6788840" lon="166.9693780">
        <ele>193.6</ele>
        <time>2020-04-19T13:21:41Z</time>
      </trkpt>
      <trkpt lat="-11.6788760" lon="166.9694210">
        <ele>193.8</ele>
        <time>2020-04-19T13:21:42Z</time>
      </trkpt>
      <trkpt lat="-11.6788680" lon="166.9694750">
        <ele>194.0</ele>
        <time>2020-04-19T13:21:43Z</time>
      </trkpt>
      <trkpt lat="-11.6788580" lon="166.9695070">
        <ele>194.4</ele>
        <time>2020-04-19T13:21:44Z</time>
      </trkpt>
      <trkpt lat="-11.6788500" lon="166.9695500">
        <ele>194.6</ele>
        <time>2020-04-19T13:21:45Z</time>
      </trkpt>
      <trkpt lat="-11.6788420" lon="166.9695930">
        <ele>195.0</ele>
        <time>2020-04-19T13:21:46Z</time>
      </trkpt>
      <trkpt lat="-11.6788330" lon="166.9696350">
        <ele>195.2</ele>
        <time>2020-04-19T13:21:47Z</time>
      </trkpt>
      <trkpt lat="-11.6788240" lon="166.9696890">
        <ele>195.4</ele>
        <time>2020-04-19T13:21:48Z</time>
      </trkpt>
      <trkpt lat="-11.6788150" lon="166.9697320">
        <ele>195.8</ele>
        <time>2020-04-19T13:21:49Z</time>
      </trkpt>
      <trkpt lat="-11.6788060" lon="166.9697750">
        <ele>196.0</ele>
        <time>2020-04-19T13:21:50Z</time>
      </trkpt>
      <trkpt lat="-11.6787990" lon="166.9698180">
        <ele>196.2</ele>
        <time>2020-04-19T13:21:51Z</time>
      </trkpt>
      <trkpt lat="-11.6787910" lon="166.9698720">
        <ele>196.6</ele>
        <time>2020-04-19T13:21:52Z</time>
      </trkpt>
      <trkpt lat="-11.6787830" lon="166.9699140">
        <ele>196.8</ele>
        <time>2020-04-19T13:21:53Z</time>
      </trkpt>
      <trkpt lat="-11.6787740" lon="166.9699570">
        <ele>197.0</ele>
        <time>2020-04-19T13:21:54Z</time>
      </trkpt>
      <trkpt lat="-11.6787690" lon="166.9699900">
        <ele>197.4</ele>
        <time>2020-04-19T13:21:55Z</time>
      </trkpt>
      <trkpt lat="-11.6787620" lon="166.9700320">
        <ele>197.6</ele>
        <time>2020-04-19T13:21:56Z</time>
      </trkpt>
      <trkpt lat="-11.6787550" lon="166.9700860">
        <ele>197.8</ele>
        <time>2020-04-19T13:21:57Z</time>
      </trkpt>
      <trkpt lat="-11.6787500" lon="166.9701290">
        <ele>198.2</ele>
        <time>2020-04-19T13:21:58Z</time>
      </trkpt>
      <trkpt lat="-11.6787440" lon="166.9701720">
        <ele>198.4</ele>
        <time>2020-04-19T13:21:59Z</time>
      </trkpt>
      <trkpt lat="-11.6787400" lon="166.9702150">
        <ele>198.6</ele>
        <time>2020-04-19T13:22:00Z</time>
      </trkpt>
      <trkpt lat="-11.6787340" lon="166.9702680">
        <ele>198.8</ele>
        <time>2020-04-19T13:22:01Z</time>
      </trkpt>
      <trkpt lat="-11.6787270" lon="166.9703110">
        <ele>199.2</ele>
        <time>2020-04-19T13:22:02Z</time>
      </trkpt>
      <trkpt lat="-11.6787200" lon="166.9703540">
        <ele>199.4</ele>
        <time>2020-04-19T13:22:03Z</time>
      </trkpt>
      <trkpt lat="-11.6787140" lon="166.9703970">
        <ele>199.6</ele>
        <time>2020-04-19T13:22:04Z</time>
      </trkpt>
      <trkpt lat="-11.6787060" lon="166.9704510">
        <ele>200.0</ele>
        <time>2020-04-19T13:22:05Z</time>
      </trkpt>
      <trkpt lat="-11.6786990" lon="166.9704940">
        <ele>200.2</ele>
        <time>2020-04-19T13:22:06Z</time>
      </trkpt>
      <trkpt lat="-11.6786910" lon="166.9705370">
        <ele>200.4</ele>
        <time>2020-04-19T13:22:07Z</time>
      </trkpt>
      <trkpt lat="-11.6786840" lon="166.9705900">
        <ele>200.6</ele>
        <time>2020-04-19T13:22:08Z</time>
      </trkpt>
      <trkpt lat="-11.6786790" lon="166.9706330">
        <ele>201.0</ele>
        <time>2020-04-19T13:22:09Z</time>
      </trkpt>
      <trkpt lat="-11.6786720" lon="166.9706760">
        <ele>201.2</ele>
        <time>2020-04-19T13:22:10Z</time>
      </trkpt>
      <trkpt lat="-11.6786670" lon="166.9707190">
        <ele>201.6</ele>
        <time>2020-04-19T13:22:11Z</time>
      </trkpt>
      <trkpt lat="-11.6786610" lon="166.9707730">
        <ele>201.8</ele>
        <time>2020-04-19T13:22:12Z</time>
      </trkpt>
      <trkpt lat="-11.6786550" lon="166.9708160">
        <ele>202.0</ele>
        <time>2020-04-19T13:22:13Z</time>
      </trkpt>
      <trkpt lat="-11.6786510" lon="166.9708590">
        <ele>202.4</ele>
        <time>2020-04-19T13:22:14Z</time>
      </trkpt>
      <trkpt lat="-11.6786450" lon="166.9709010">
        <ele>202.6</ele>
        <time>2020-04-19T13:22:15Z</time>
      </trkpt>
      <trkpt lat="-11.6786410" lon="166.9709550">
        <ele>203.0</ele>
        <time>2020-04-19T13:22:16Z</time>
      </trkpt>
      <trkpt lat="-11.6786370" lon="166.9709980">
        <ele>203.2</ele>
        <time>2020-04-19T13:22:17Z</time>
      </trkpt>
      <trkpt lat="-11.6786330" lon="166.9710410">
        <ele>203.4</ele>
        <time>2020-04-19T13:22:18Z</time>
      </trkpt>
      <trkpt lat="-11.6786290" lon="166.9710840">
        <ele>203.8</ele>
        <time>2020-04-19T13:22:19Z</time>
      </trkpt>
      <trkpt lat="-11.6786250" lon="166.9711160">
        <ele>204.0</ele>
        <time>2020-04-19T13:22:20Z</time>
      </trkpt>
      <trkpt lat="-11.6786200" lon="166.9711700">
        <ele>204.4</ele>
        <time>2020-04-19T13:22:21Z</time>
      </trkpt>
      <trkpt lat="-11.6786140" lon="166.9712130">
        <ele>204.6</ele>
        <time>2020-04-19T13:22:22Z</time>
      </trkpt>
      <trkpt lat="-11.6786090" lon="166.9712450">
        <ele>205.0</ele>
        <time>2020-04-19T13:22:23Z</time>
      </trkpt>
      <trkpt lat="-11.6786040" lon="166.9712880">
        <ele>205.2</ele>
        <time>2020-04-19T13:22:24Z</time>
      </trkpt>
      <trkpt lat="-11.6785960" lon="166.9713310">
        <ele>205.6</ele>
        <time>2020-04-19T13:22:25Z</time>
      </trkpt>
      <trkpt lat="-11.6785900" lon="166.9713630">
        <ele>205.8</ele>
        <time>2020-04-19T13:22:26Z</time>
      </trkpt>
      <trkpt lat="-11.6785850" lon="166.9714060">
        <ele>206.2</ele>
        <time>2020-04-19T13:22:27Z</time>
      </trkpt>
      <trkpt lat="-11.6785790" lon="166.9714590">
        <ele>206.6</ele>
        <time>2020-04-19T13:22:28Z</time>
      </trkpt>
      <trkpt lat="-11.6785750" lon="166.9714810">
        <ele>206.8</ele>
        <time>2020-04-19T13:22:29Z</time>
      </trkpt>
      <trkpt lat="-11.6785700" lon="166.9715340">
        <ele>207.2</ele>
        <time>2020-04-19T13:22:30Z</time>
      </trkpt>
      <trkpt lat="-11.6785650" lon="166.9715770">
        <ele>207.4</ele>
        <time>2020-04-19T13:22:31Z</time>
      </trkpt>
      <trkpt lat="-11.6785620" lon="166.9716100">
        <ele>207.8</ele>
        <time>2020-04-19T13:22:32Z</time>
      </trkpt>
      <trkpt lat="-11.6785580" lon="166.9716530">
        <ele>208.2</ele>
        <time>2020-04-19T13:22:33Z</time>
      </trkpt>
      <trkpt lat="-11.6785540" lon="166.9716950">
        <ele>208.4</ele>
        <time>2020-04-19T13:22:34Z</time>
      </trkpt>
      <trkpt lat="-11.6785510" lon="166.9717280">
        <ele>208.8</ele>
        <time>2020-04-19T13:22:35Z</time>
      </trkpt>
      <trkpt lat="-11.6785510" lon="166.9717710">
        <ele>209.0</ele>
        <time>2020-04-19T13:22:36Z</time>
      </trkpt>
      <trkpt lat="-11.6785510" lon="166.9718240">
        <ele>209.4</ele>
        <time>2020-04-19T13:22:37Z</time>
      </trkpt>
      <trkpt lat="-11.6785540" lon="166.9718560">
        <ele>209.8</ele>
        <time>2020-04-19T13:22:38Z</time>
      </trkpt>
      <trkpt lat="-11.6785570" lon="166.9718990">
        <ele>210.0</ele>
        <time>2020-04-19T13:22:39Z</time>
      </trkpt>
      <trkpt lat="-11.6785620" lon="166.9719420">
        <ele>210.4</ele>
        <time>2020-04-19T13:22:40Z</time>
      </trkpt>
      <trkpt lat="-11.6785690" lon="166.9719740">
        <ele>210.6</ele>
        <time>2020-04-19T13:22:41Z</time>
      </trkpt>
      <trkpt lat="-11.6785740" lon="166.9720170">
        <ele>211.0</ele>
        <time>2020-04-19T13:22:42Z</time>
      </trkpt>
      <trkpt lat="-11.6785850" lon="166.9720490">
        <ele>211.2</ele>
        <time>2020-04-19T13:22:43Z</time>
      </trkpt>
      <trkpt lat="-11.6786010" lon="166.9720920">
        <ele>211.6</ele>
        <time>2020-04-19T13:22:44Z</time>
      </trkpt>
      <trkpt lat="-11.6786170" lon="166.9721460">
        <ele>211.8</ele>
        <time>2020-04-19T13:22:45Z</time>
      </trkpt>
      <trkpt lat="-11.6786320" lon="166.9721670">
        <ele>212.2</ele>
        <time>2020-04-19T13:22:46Z</time>
      </trkpt>
      <trkpt lat="-11.6786480" lon="166.9722210">
        <ele>212.4</ele>
        <time>2020-04-19T13:22:47Z</time>
      </trkpt>
      <trkpt lat="-11.6786650" lon="166.9722640">
        <ele>212.6</ele>
        <time>2020-04-19T13:22:48Z</time>
      </trkpt>
      <trkpt lat="-11.6786880" lon="166.9722960">
        <ele>213.0</ele>
        <time>2020-04-19T13:22:49Z</time>
      </trkpt>
      <trkpt lat="-11.6787150" lon="166.9723390">
        <ele>213.2</ele>
        <time>2020-04-19T13:22:50Z</time>
      </trkpt>
      <trkpt lat="-11.6787470" lon="166.9723710">
        <ele>213.4</ele>
        <time>2020-04-19T13:22:51Z</time>
      </trkpt>
      <trkpt lat="-11.6787860" lon="166.9724040">
        <ele>213.6</ele>
        <time>2020-04-19T13:22:52Z</time>
      </trkpt>
      <trkpt lat="-11.6788260" lon="166.9724140">
        <ele>213.6</ele>
        <time>2020-04-19T13:22:53Z</time>
      </trkpt>
      <trkpt lat="-11.6788760" lon="166.9724460">
        <ele>213.8</ele>
        <time>2020-04-19T13:22:54Z</time>
      </trkpt>
      <trkpt lat="-11.6789230" lon="166.9724570">
        <ele>214.0</ele>
        <time>2020-04-19T13:22:55Z</time>
      </trkpt>
      <trkpt lat="-11.6789790" lon="166.9724790">
        <ele>214.0</ele>
        <time>2020-04-19T13:22:56Z</time>
      </trkpt>
      <trkpt lat="-11.6790340" lon="166.9724890">
        <ele>214.2</ele>
        <time>2020-04-19T13:22:57Z</time>
      </trkpt>
      <trkpt lat="-11.6790890" lon="166.9725110">
        <ele>214.2</ele>
        <time>2020-04-19T13:22:58Z</time>
      </trkpt>
      <trkpt lat="-11.6791510" lon="166.9725220">
        <ele>214.2</ele>
        <time>2020-04-19T13:22:59Z</time>
      </trkpt>
      <trkpt lat="-11.6792140" lon="166.9725220">
        <ele>214.2</ele>
        <time>2020-04-19T13:23:00Z</time>
      </trkpt>
      <trkpt lat="-11.6792770" lon="166.9725220">
        <ele>214.2</ele>
        <time>2020-04-19T13:23:01Z</time>
      </trkpt>
      <trkpt lat="-11.6793440" lon="166.9725220">
        <ele>214.2</ele>
        <time>2020-04-19T13:23:02Z</time>
      </trkpt>
      <trkpt lat="-11.6794110" lon="166.9725220">
        <ele>214.2</ele>
        <time>2020-04-19T13:23:03Z</time>
      </trkpt>
      <trkpt lat="-11.6794830" lon="166.9725220">
        <ele>214.2</ele>
        <time>2020-04-19T13:23:04Z</time>
      </trkpt>
      <trkpt lat="-11.6795560" lon="166.9725220">
        <ele>214.2</ele>
        <time>2020-04-19T13:23:05Z</time>
      </trkpt>
      <trkpt lat="-11.6796280" lon="166.9725220">
        <ele>214.2</ele>
        <time>2020-04-19T13:23:06Z</time>
      </trkpt>
      <trkpt lat="-11.6797060" lon="166.9725220">
        <ele>214.2</ele>
        <time>2020-04-19T13:23:07Z</time>
      </trkpt>
      <trkpt lat="-11.6797770" lon="166.9725220">
        <ele>214.2</ele>
        <time>2020-04-19T13:23:08Z</time>
      </trkpt>
      <trkpt lat="-11.6798520" lon="166.9725220">
        <ele>214.2</ele>
        <time>2020-04-19T13:23:09Z</time>
      </trkpt>
      <trkpt lat="-11.6799310" lon="166.9725220">
        <ele>214.2</ele>
        <time>2020-04-19T13:23:10Z</time>
      </trkpt>
      <trkpt lat="-11.6800100" lon="166.9725430">
        <ele>214.2</ele>
        <time>2020-04-19T13:23:11Z</time>
      </trkpt>
      <trkpt lat="-11.6800870" lon="166.9725430">
        <ele>214.2</ele>
        <time>2020-04-19T13:23:12Z</time>
      </trkpt>
      <trkpt lat="-11.6801690" lon="166.9725430">
        <ele>214.2</ele>
        <time>2020-04-19T13:23:13Z</time>
      </trkpt>
      <trkpt lat="-11.6802520" lon="166.9725430">
        <ele>214.2</ele>
        <time>2020-04-19T13:23:14Z</time>
      </trkpt>
      <trkpt lat="-11.6803310" lon="166.9725430">
        <ele>214.2</ele>
        <time>2020-04-19T13:23:15Z</time>
      </trkpt>
      <trkpt lat="-11.6804140" lon="166.9725430">
        <ele>214.2</ele>
        <time>2020-04-19T13:23:16Z</time>
      </trkpt>
      <trkpt lat="-11.6804960" lon="166.9725430">
        <ele>214.2</ele>
        <time>2020-04-19T13:23:17Z</time>
      </trkpt>
      <trkpt lat="-11.6805780" lon="166.9725430">
        <ele>214.2</ele>
        <time>2020-04-19T13:23:18Z</time>
      </trkpt>
      <trkpt lat="-11.6806640" lon="166.9725430">
        <ele>214.2</ele>
        <time>2020-04-19T13:23:19Z</time>
      </trkpt>
      <trkpt lat="-11.6807450" lon="166.9725430">
        <ele>214.2</ele>
        <time>2020-04-19T13:23:20Z</time>
      </trkpt>
      <trkpt lat="-11.6808310" lon="166.9725430">
        <ele>214.2</ele>
        <time>2020-04-19T13:23:21Z</time>
      </trkpt>
      <trkpt lat="-11.6809200" lon="166.9725430">
        <ele>214.2</ele>
        <time>2020-04-19T13:23:22Z</time>
      </trkpt>
      <trkpt lat="-11.6810000" lon="166.9725540">
        <ele>214.2</ele>
        <time>2020-04-19T13:23:23Z</time>
      </trkpt>
      <trkpt lat="-11.6810900" lon="166.9725540">
        <ele>214.2</ele>
        <time>2020-04-19T13:23:24Z</time>
      </trkpt>
      <trkpt lat="-11.6811720" lon="166.9725540">
        <ele>214.2</ele>
        <time>2020-04-19T13:23:25Z</time>
      </trkpt>
      <trkpt lat="-11.6812560" lon="166.9725540">
        <ele>214.2</ele>
        <time>2020-04-19T13:23:26Z</time>
      </trkpt>
      <trkpt lat="-11.6813430" lon="166.9725540">
        <ele>214.4</ele>
        <time>2020-04-19T13:23:27Z</time>
      </trkpt>
      <trkpt lat="-11.6814310" lon="166.9725430">
        <ele>214.4</ele>
        <time>2020-04-19T13:23:28Z</time>
      </trkpt>
      <trkpt lat="-11.6815100" lon="166.9725220">
        <ele>214.6</ele>
        <time>2020-04-19T13:23:29Z</time>
      </trkpt>
      <trkpt lat="-11.6815930" lon="166.9725220">
        <ele>214.8</ele>
        <time>2020-04-19T13:23:30Z</time>
      </trkpt>
      <trkpt lat="-11.6816730" lon="166.9725110">
        <ele>215.2</ele>
        <time>2020-04-19T13:23:31Z</time>
      </trkpt>
      <trkpt lat="-11.6817530" lon="166.9724890">
        <ele>215.4</ele>
        <time>2020-04-19T13:23:32Z</time>
      </trkpt>
      <trkpt lat="-11.6818300" lon="166.9724790">
        <ele>215.8</ele>
        <time>2020-04-19T13:23:33Z</time>
      </trkpt>
      <trkpt lat="-11.6818930" lon="166.9724570">
        <ele>216.2</ele>
        <time>2020-04-19T13:23:34Z</time>
      </trkpt>
      <trkpt lat="-11.6819580" lon="166.9724360">
        <ele>216.8</ele>
        <time>2020-04-19T13:23:35Z</time>
      </trkpt>
      <trkpt lat="-11.6820110" lon="166.9723820">
        <ele>217.2</ele>
        <time>2020-04-19T13:23:36Z</time>
      </trkpt>
      <trkpt lat="-11.6820610" lon="166.9723500">
        <ele>217.8</ele>
        <time>2020-04-19T13:23:37Z</time>
      </trkpt>
      <trkpt lat="-11.6821040" lon="166.9722960">
        <ele>218.2</ele>
        <time>2020-04-19T13:23:38Z</time>
      </trkpt>
      <trkpt lat="-11.6821370" lon="166.9722640">
        <ele>218.6</ele>
        <time>2020-04-19T13:23:39Z</time>
      </trkpt>
      <trkpt lat="-11.6821630" lon="166.9722000">
        <ele>219.2</ele>
        <time>2020-04-19T13:23:40Z</time>
      </trkpt>
      <trkpt lat="-11.6821760" lon="166.9721570">
        <ele>219.6</ele>
        <time>2020-04-19T13:23:41Z</time>
      </trkpt>
      <trkpt lat="-11.6821870" lon="166.9721140">
        <ele>220.0</ele>
        <time>2020-04-19T13:23:42Z</time>
      </trkpt>
      <trkpt lat="-11.6821940" lon="166.9720600">
        <ele>220.4</ele>
        <time>2020-04-19T13:23:43Z</time>
      </trkpt>
      <trkpt lat="-11.6821960" lon="166.9720070">
        <ele>220.8</ele>
        <time>2020-04-19T13:23:44Z</time>
      </trkpt>
      <trkpt lat="-11.6821980" lon="166.9719640">
        <ele>221.0</ele>
        <time>2020-04-19T13:23:45Z</time>
      </trkpt>
      <trkpt lat="-11.6821980" lon="166.9719100">
        <ele>221.4</ele>
        <time>2020-04-19T13:23:46Z</time>
      </trkpt>
      <trkpt lat="-11.6821960" lon="166.9718670">
        <ele>221.8</ele>
        <time>2020-04-19T13:23:47Z</time>
      </trkpt>
      <trkpt lat="-11.6821950" lon="166.9718240">
        <ele>222.2</ele>
        <time>2020-04-19T13:23:48Z</time>
      </trkpt>
      <trkpt lat="-11.6821940" lon="166.9717600">
        <ele>222.4</ele>
        <time>2020-04-19T13:23:49Z</time>
      </trkpt>
      <trkpt lat="-11.6821910" lon="166.9717170">
        <ele>222.8</ele>
        <time>2020-04-19T13:23:50Z</time>
      </trkpt>
      <trkpt lat="-11.6821900" lon="166.9716630">
        <ele>223.2</ele>
        <time>2020-04-19T13:23:51Z</time>
      </trkpt>
      <trkpt lat="-11.6821870" lon="166.9716200">
        <ele>223.6</ele>
        <time>2020-04-19T13:23:52Z</time>
      </trkpt>
      <trkpt lat="-11.6821870" lon="166.9715770">
        <ele>223.8</ele>
        <time>2020-04-19T13:23:53Z</time>
      </trkpt>
      <trkpt lat="-11.6821840" lon="166.9715130">
        <ele>224.2</ele>
        <time>2020-04-19T13:23:54Z</time>
      </trkpt>
      <trkpt lat="-11.6821820" lon="166.9714700">
        <ele>224.6</ele>
        <time>2020-04-19T13:23:55Z</time>
      </trkpt>
      <trkpt lat="-11.6821800" lon="166.9714270">
        <ele>224.8</ele>
        <time>2020-04-19T13:23:56Z</time>
      </trkpt>
      <trkpt lat="-11.6821830" lon="166.9713630">
        <ele>225.2</ele>
        <time>2020-04-19T13:23:57Z</time>
      </trkpt>
      <trkpt lat="-11.6821870" lon="166.9713200">
        <ele>225.6</ele>
        <time>2020-04-19T13:23:58Z</time>
      </trkpt>
      <trkpt lat="-11.6821950" lon="166.9712770">
        <ele>225.8</ele>
        <time>2020-04-19T13:23:59Z</time>
      </trkpt>
      <trkpt lat="-11.6822060" lon="166.9712130">
        <ele>226.2</ele>
        <time>2020-04-19T13:24:00Z</time>
      </trkpt>
      <trkpt lat="-11.6822190" lon="166.9711700">
        <ele>226.6</ele>
        <time>2020-04-19T13:24:01Z</time>
      </trkpt>
      <trkpt lat="-11.6822410" lon="166.9711050">
        <ele>226.8</ele>
        <time>2020-04-19T13:24:02Z</time>
      </trkpt>
      <trkpt lat="-11.6822670" lon="166.9710730">
        <ele>227.2</ele>
        <time>2020-04-19T13:24:03Z</time>
      </trkpt>
      <trkpt lat="-11.6823010" lon="166.9710300">
        <ele>227.4</ele>
        <time>2020-04-19T13:24:04Z</time>
      </trkpt>
      <trkpt lat="-11.6823390" lon="166.9709770">
        <ele>227.6</ele>
        <time>2020-04-19T13:24:05Z</time>
      </trkpt>
      <trkpt lat="-11.6823790" lon="166.9709550">
        <ele>228.0</ele>
        <time>2020-04-19T13:24:06Z</time>
      </trkpt>
      <trkpt lat="-11.6824230" lon="166.9709010">
        <ele>228.2</ele>
        <time>2020-04-19T13:24:07Z</time>
      </trkpt>
      <trkpt lat="-11.6824710" lon="166.9708800">
        <ele>228.4</ele>
        <time>2020-04-19T13:24:08Z</time>
      </trkpt>
      <trkpt lat="-11.6825210" lon="166.9708480">
        <ele>228.4</ele>
        <time>2020-04-19T13:24:09Z</time>
      </trkpt>
      <trkpt lat="-11.6825760" lon="166.9708160">
        <ele>228.6</ele>
        <time>2020-04-19T13:24:10Z</time>
      </trkpt>
      <trkpt lat="-11.6826340" lon="166.9707830">
        <ele>228.8</ele>
        <time>2020-04-19T13:24:11Z</time>
      </trkpt>
      <trkpt lat="-11.6826930" lon="166.9707510">
        <ele>229.0</ele>
        <time>2020-04-19T13:24:12Z</time>
      </trkpt>
      <trkpt lat="-11.6827530" lon="166.9707410">
        <ele>229.0</ele>
        <time>2020-04-19T13:24:13Z</time>
      </trkpt>
      <trkpt lat="-11.6828160" lon="166.9707080">
        <ele>229.2</ele>
        <time>2020-04-19T13:24:14Z</time>
      </trkpt>
      <trkpt lat="-11.6828830" lon="166.9706870">
        <ele>229.4</ele>
        <time>2020-04-19T13:24:15Z</time>
      </trkpt>
      <trkpt lat="-11.6829490" lon="166.9706760">
        <ele>229.4</ele>
        <time>2020-04-19T13:24:16Z</time>
      </trkpt>
      <trkpt lat="-11.6830210" lon="166.9706650">
        <ele>229.6</ele>
        <time>2020-04-19T13:24:17Z</time>
      </trkpt>
      <trkpt lat="-11.6830880" lon="166.9706650">
        <ele>229.8</ele>
        <time>2020-04-19T13:24:18Z</time>
      </trkpt>
      <trkpt lat="-11.6831570" lon="166.9706440">
        <ele>230.0</ele>
        <time>2020-04-19T13:24:19Z</time>
      </trkpt>
      <trkpt lat="-11.6832290" lon="166.9706440">
        <ele>230.2</ele>
        <time>2020-04-19T13:24:20Z</time>
      </trkpt>
      <trkpt lat="-11.6832990" lon="166.9706650">
        <ele>230.4</ele>
        <time>2020-04-19T13:24:21Z</time>
      </trkpt>
      <trkpt lat="-11.6833650" lon="166.9706870">
        <ele>230.6</ele>
        <time>2020-04-19T13:24:22Z</time>
      </trkpt>
      <trkpt lat="-11.6834280" lon="166.9707190">
        <ele>230.8</ele>
        <time>2020-04-19T13:24:23Z</time>
      </trkpt>
      <trkpt lat="-11.6834880" lon="166.9707510">
        <ele>231.0</ele>
        <time>2020-04-19T13:24:24Z</time>
      </trkpt>
      <trkpt lat="-11.6835430" lon="166.9707940">
        <ele>231.2</ele>
        <time>2020-04-19T13:24:25Z</time>
      </trkpt>
      <trkpt lat="-11.6836020" lon="166.9708480">
        <ele>231.4</ele>
        <time>2020-04-19T13:24:26Z</time>
      </trkpt>
      <trkpt lat="-11.6836560" lon="166.9708800">
        <ele>231.6</ele>
        <time>2020-04-19T13:24:27Z</time>
      </trkpt>
      <trkpt lat="-11.6837080" lon="166.9709230">
        <ele>231.8</ele>
        <time>2020-04-19T13:24:28Z</time>
      </trkpt>
      <trkpt lat="-11.6837640" lon="166.9709660">
        <ele>232.0</ele>
        <time>2020-04-19T13:24:29Z</time>
      </trkpt>
      <trkpt lat="-11.6838180" lon="166.9710090">
        <ele>232.2</ele>
        <time>2020-04-19T13:24:30Z</time>
      </trkpt>
      <trkpt lat="-11.6838790" lon="166.9710410">
        <ele>232.4</ele>
        <time>2020-04-19T13:24:31Z</time>
      </trkpt>
      <trkpt lat="-11.6839400" lon="166.9710730">
        <ele>232.6</ele>
        <time>2020-04-19T13:24:32Z</time>
      </trkpt>
      <trkpt lat="-11.6840020" lon="166.9710840">
        <ele>233.0</ele>
        <time>2020-04-19T13:24:33Z</time>
      </trkpt>
      <trkpt lat="-11.6840690" lon="166.9711050">
        <ele>233.2</ele>
        <time>2020-04-19T13:24:34Z</time>
      </trkpt>
      <trkpt lat="-11.6841330" lon="166.9711160">
        <ele>233.2</ele>
        <time>2020-04-19T13:24:35Z</time>
      </trkpt>
      <trkpt lat="-11.6841970" lon="166.9711380">
        <ele>233.4</ele>
        <time>2020-04-19T13:24:36Z</time>
      </trkpt>
      <trkpt lat="-11.6842660" lon="166.9711480">
        <ele>233.6</ele>
        <time>2020-04-19T13:24:37Z</time>
      </trkpt>
      <trkpt lat="-11.6843310" lon="166.9711480">
        <ele>233.8</ele>
        <time>2020-04-19T13:24:38Z</time>
      </trkpt>
      <trkpt lat="-11.6843940" lon="166.9711700">
        <ele>234.0</ele>
        <time>2020-04-19T13:24:39Z</time>
      </trkpt>
      <trkpt lat="-11.6844620" lon="166.9711800">
        <ele>234.2</ele>
        <time>2020-04-19T13:24:40Z</time>
      </trkpt>
      <trkpt lat="-11.6845270" lon="166.9711910">
        <ele>234.4</ele>
        <time>2020-04-19T13:24:41Z</time>
      </trkpt>
      <trkpt lat="-11.6845840" lon="166.9712230">
        <ele>234.8</ele>
        <time>2020-04-19T13:24:42Z</time>
      </trkpt>
      <trkpt lat="-11.6846450" lon="166.9712560">
        <ele>235.0</ele>
        <time>2020-04-19T13:24:43Z</time>
      </trkpt>
      <trkpt lat="-11.6846920" lon="166.9712880">
        <ele>235.4</ele>
        <time>2020-04-19T13:24:44Z</time>
      </trkpt>
      <trkpt lat="-11.6847380" lon="166.9713310">
        <ele>235.8</ele>
        <time>2020-04-19T13:24:45Z</time>
      </trkpt>
      <trkpt lat="-11.6847740" lon="166.9713740">
        <ele>236.0</ele>
        <time>2020-04-19T13:24:46Z</time>
      </trkpt>
      <trkpt lat="-11.6848050" lon="166.9714380">
        <ele>236.4</ele>
        <time>2020-04-19T13:24:47Z</time>
      </trkpt>
      <trkpt lat="-11.6848280" lon="166.9714810">
        <ele>236.8</ele>
        <time>2020-04-19T13:24:48Z</time>
      </trkpt>
      <trkpt lat="-11.6848460" lon="166.9715450">
        <ele>237.2</ele>
        <time>2020-04-19T13:24:49Z</time>
      </trkpt>
      <trkpt lat="-11.6848610" lon="166.9715880">
        <ele>237.6</ele>
        <time>2020-04-19T13:24:50Z</time>
      </trkpt>
      <trkpt lat="-11.6848730" lon="166.9716530">
        <ele>238.0</ele>
        <time>2020-04-19T13:24:51Z</time>
      </trkpt>
      <trkpt lat="-11.6848830" lon="166.9716950">
        <ele>238.4</ele>
        <time>2020-04-19T13:24:52Z</time>
      </trkpt>
      <trkpt lat="-11.6848910" lon="166.9717600">
        <ele>238.8</ele>
        <time>2020-04-19T13:24:53Z</time>
      </trkpt>
      <trkpt lat="-11.6848970" lon="166.9718030">
        <ele>239.2</ele>
        <time>2020-04-19T13:24:54Z</time>
      </trkpt>
      <trkpt lat="-11.6849030" lon="166.9718560">
        <ele>239.6</ele>
        <time>2020-04-19T13:24:55Z</time>
      </trkpt>
      <trkpt lat="-11.6849070" lon="166.9718990">
        <ele>239.8</ele>
        <time>2020-04-19T13:24:56Z</time>
      </trkpt>
      <trkpt lat="-11.6849110" lon="166.9719640">
        <ele>240.2</ele>
        <time>2020-04-19T13:24:57Z</time>
      </trkpt>
      <trkpt lat="-11.6849160" lon="166.9720070">
        <ele>240.6</ele>
        <time>2020-04-19T13:24:58Z</time>
      </trkpt>
      <trkpt lat="-11.6849200" lon="166.9720490">
        <ele>241.0</ele>
        <time>2020-04-19T13:24:59Z</time>
      </trkpt>
      <trkpt lat="-11.6849230" lon="166.9720920">
        <ele>241.2</ele>
        <time>2020-04-19T13:25:00Z</time>
      </trkpt>
      <trkpt lat="-11.6849280" lon="166.9721460">
        <ele>241.6</ele>
        <time>2020-04-19T13:25:01Z</time>
      </trkpt>
      <trkpt lat="-11.6849340" lon="166.9721890">
        <ele>242.0</ele>
        <time>2020-04-19T13:25:02Z</time>
      </trkpt>
      <trkpt lat="-11.6849390" lon="166.9722530">
        <ele>242.4</ele>
        <time>2020-04-19T13:25:03Z</time>
      </trkpt>
      <trkpt lat="-11.6849460" lon="166.9722960">
        <ele>242.8</ele>
        <time>2020-04-19T13:25:04Z</time>
      </trkpt>
      <trkpt lat="-11.6849520" lon="166.9723390">
        <ele>243.0</ele>
        <time>2020-04-19T13:25:05Z</time>
      </trkpt>
      <trkpt lat="-11.6849590" lon="166.9723820">
        <ele>243.4</ele>
        <time>2020-04-19T13:25:06Z</time>
      </trkpt>
      <trkpt lat="-11.6849680" lon="166.9724360">
        <ele>243.8</ele>
        <time>2020-04-19T13:25:07Z</time>
      </trkpt>
      <trkpt lat="-11.6849770" lon="166.9724790">
        <ele>244.2</ele>
        <time>2020-04-19T13:25:08Z</time>
      </trkpt>
      <trkpt lat="-11.6849890" lon="166.9725220">
        <ele>244.4</ele>
        <time>2020-04-19T13:25:09Z</time>
      </trkpt>
      <trkpt lat="-11.6850050" lon="166.9725640">
        <ele>244.8</ele>
        <time>2020-04-19T13:25:10Z</time>
      </trkpt>
      <trkpt lat="-11.6850210" lon="166.9726180">
        <ele>245.2</ele>
        <time>2020-04-19T13:25:11Z</time>
      </trkpt>
      <trkpt lat="-11.6850340" lon="166.9726610">
        <ele>245.6</ele>
        <time>2020-04-19T13:25:12Z</time>
      </trkpt>
      <trkpt lat="-11.6850490" lon="166.9727040">
        <ele>246.0</ele>
        <time>2020-04-19T13:25:13Z</time>
      </trkpt>
      <trkpt lat="-11.6850640" lon="166.9727470">
        <ele>246.2</ele>
        <time>2020-04-19T13:25:14Z</time>
      </trkpt>
      <trkpt lat="-11.6850810" lon="166.9728000">
        <ele>246.6</ele>
        <time>2020-04-19T13:25:15Z</time>
      </trkpt>
      <trkpt lat="-11.6851010" lon="166.9728430">
        <ele>247.0</ele>
        <time>2020-04-19T13:25:16Z</time>
      </trkpt>
      <trkpt lat="-11.6851240" lon="166.9728860">
        <ele>247.4</ele>
        <time>2020-04-19T13:25:17Z</time>
      </trkpt>
      <trkpt lat="-11.6851470" lon="166.9729400">
        <ele>247.8</ele>
        <time>2020-04-19T13:25:18Z</time>
      </trkpt>
      <trkpt lat="-11.6851670" lon="166.9729830">
        <ele>248.2</ele>
        <time>2020-04-19T13:25:19Z</time>
      </trkpt>
      <trkpt lat="-11.6851870" lon="166.9730260">
        <ele>248.6</ele>
        <time>2020-04-19T13:25:20Z</time>
      </trkpt>
      <trkpt lat="-11.6852090" lon="166.9730690">
        <ele>248.8</ele>
        <time>2020-04-19T13:25:21Z</time>
      </trkpt>
      <trkpt lat="-11.6852290" lon="166.9731220">
        <ele>249.2</ele>
        <time>2020-04-19T13:25:22Z</time>
      </trkpt>
      <trkpt lat="-11.6852500" lon="166.9731650">
        <ele>249.6</ele>
        <time>2020-04-19T13:25:23Z</time>
      </trkpt>
      <trkpt lat="-11.6852730" lon="166.9732080">
        <ele>250.0</ele>
        <time>2020-04-19T13:25:24Z</time>
      </trkpt>
      <trkpt lat="-11.6852940" lon="166.9732400">
        <ele>250.4</ele>
        <time>2020-04-19T13:25:25Z</time>
      </trkpt>
      <trkpt lat="-11.6853200" lon="166.9732830">
        <ele>250.8</ele>
        <time>2020-04-19T13:25:26Z</time>
      </trkpt>
      <trkpt lat="-11.6853450" lon="166.9733370">
        <ele>251.0</ele>
        <time>2020-04-19T13:25:27Z</time>
      </trkpt>
      <trkpt lat="-11.6853710" lon="166.9733580">
        <ele>251.4</ele>
        <time>2020-04-19T13:25:28Z</time>
      </trkpt>
      <trkpt lat="-11.6853980" lon="166.9734120">
        <ele>251.8</ele>
        <time>2020-04-19T13:25:29Z</time>
      </trkpt>
      <trkpt lat="-11.6854230" lon="166.9734550">
        <ele>252.0</ele>
        <time>2020-04-19T13:25:30Z</time>
      </trkpt>
      <trkpt lat="-11.6854500" lon="166.9734870">
        <ele>252.4</ele>
        <time>2020-04-19T13:25:31Z</time>
      </trkpt>
      <trkpt lat="-11.6854780" lon="166.9735190">
        <ele>252.6</ele>
        <time>2020-04-19T13:25:32Z</time>
      </trkpt>
      <trkpt lat="-11.6855060" lon="166.9735620">
        <ele>253.0</ele>
        <time>2020-04-19T13:25:33Z</time>
      </trkpt>
      <trkpt lat="-11.6855370" lon="166.9735940">
        <ele>253.2</ele>
        <time>2020-04-19T13:25:34Z</time>
      </trkpt>
      <trkpt lat="-11.6855680" lon="166.9736270">
        <ele>253.6</ele>
        <time>2020-04-19T13:25:35Z</time>
      </trkpt>
      <trkpt lat="-11.6856030" lon="166.9736480">
        <ele>253.8</ele>
        <time>2020-04-19T13:25:36Z</time>
      </trkpt>
      <trkpt lat="-11.6856390" lon="166.9737020">
        <ele>254.0</ele>
        <time>2020-04-19T13:25:37Z</time>
      </trkpt>
      <trkpt lat="-11.6856750" lon="166.9737120">
        <ele>254.2</ele>
        <time>2020-04-19T13:25:38Z</time>
      </trkpt>
      <trkpt lat="-11.6857170" lon="166.9737450">
        <ele>254.4</ele>
        <time>2020-04-19T13:25:39Z</time>
      </trkpt>
      <trkpt lat="-11.6857580" lon="166.9737770">
        <ele>254.6</ele>
        <time>2020-04-19T13:25:40Z</time>
      </trkpt>
      <trkpt lat="-11.6858030" lon="166.9738090">
        <ele>254.8</ele>
        <time>2020-04-19T13:25:41Z</time>
      </trkpt>
      <trkpt lat="-11.6858520" lon="166.9738300">
        <ele>255.0</ele>
        <time>2020-04-19T13:25:42Z</time>
      </trkpt>
      <trkpt lat="-11.6859060" lon="166.9738520">
        <ele>255.0</ele>
        <time>2020-04-19T13:25:43Z</time>
      </trkpt>
      <trkpt lat="-11.6859610" lon="166.9738840">
        <ele>255.2</ele>
        <time>2020-04-19T13:25:44Z</time>
      </trkpt>
      <trkpt lat="-11.6860150" lon="166.9738950">
        <ele>255.2</ele>
        <time>2020-04-19T13:25:45Z</time>
      </trkpt>
      <trkpt lat="-11.6860720" lon="166.9739160">
        <ele>255.4</ele>
        <time>2020-04-19T13:25:46Z</time>
      </trkpt>
      <trkpt lat="-11.6861290" lon="166.9739380">
        <ele>255.6</ele>
        <time>2020-04-19T13:25:47Z</time>
      </trkpt>
      <trkpt lat="-11.6861890" lon="166.9739590">
        <ele>255.6</ele>
        <time>2020-04-19T13:25:48Z</time>
      </trkpt>
      <trkpt lat="-11.6862480" lon="166.9739910">
        <ele>255.8</ele>
        <time>2020-04-19T13:25:49Z</time>
      </trkpt>
      <trkpt lat="-11.6863110" lon="166.9740020">
        <ele>256.0</ele>
        <time>2020-04-19T13:25:50Z</time>
      </trkpt>
      <trkpt lat="-11.6863690" lon="166.9740340">
        <ele>256.2</ele>
        <time>2020-04-19T13:25:51Z</time>
      </trkpt>
      <trkpt lat="-11.6864280" lon="166.9740450">
        <ele>256.4</ele>
        <time>2020-04-19T13:25:52Z</time>
      </trkpt>
      <trkpt lat="-11.6864850" lon="166.9740770">
        <ele>256.8</ele>
        <time>2020-04-19T13:25:53Z</time>
      </trkpt>
      <trkpt lat="-11.6865400" lon="166.9741090">
        <ele>257.0</ele>
        <time>2020-04-19T13:25:54Z</time>
      </trkpt>
      <trkpt lat="-11.6865950" lon="166.9741420">
        <ele>257.2</ele>
        <time>2020-04-19T13:25:55Z</time>
      </trkpt>
      <trkpt lat="-11.6866500" lon="166.9741740">
        <ele>257.6</ele>
        <time>2020-04-19T13:25:56Z</time>
      </trkpt>
      <trkpt lat="-11.6867000" lon="166.9742060">
        <ele>257.8</ele>
        <time>2020-04-19T13:25:57Z</time>
      </trkpt>
      <trkpt lat="-11.6867520" lon="166.9742270">
        <ele>258.2</ele>
        <time>2020-04-19T13:25:58Z</time>
      </trkpt>
      <trkpt lat="-11.6868020" lon="166.9742600">
        <ele>258.4</ele>
        <time>2020-04-19T13:25:59Z</time>
      </trkpt>
      <trkpt lat="-11.6868510" lon="166.9742920">
        <ele>258.6</ele>
        <time>2020-04-19T13:26:00Z</time>
      </trkpt>
      <trkpt lat="-11.6869080" lon="166.9743240">
        <ele>259.0</ele>
        <time>2020-04-19T13:26:01Z</time>
      </trkpt>
      <trkpt lat="-11.6869590" lon="166.9743560">
        <ele>259.4</ele>
        <time>2020-04-19T13:26:02Z</time>
      </trkpt>
      <trkpt lat="-11.6870120" lon="166.9743670">
        <ele>259.6</ele>
        <time>2020-04-19T13:26:03Z</time>
      </trkpt>
      <trkpt lat="-11.6870710" lon="166.9743880">
        <ele>260.0</ele>
        <time>2020-04-19T13:26:04Z</time>
      </trkpt>
      <trkpt lat="-11.6871280" lon="166.9743990">
        <ele>260.4</ele>
        <time>2020-04-19T13:26:05Z</time>
      </trkpt>
      <trkpt lat="-11.6871840" lon="166.9743990">
        <ele>260.6</ele>
        <time>2020-04-19T13:26:06Z</time>
      </trkpt>
      <trkpt lat="-11.6872430" lon="166.9743990">
        <ele>261.0</ele>
        <time>2020-04-19T13:26:07Z</time>
      </trkpt>
      <trkpt lat="-11.6873010" lon="166.9743990">
        <ele>261.4</ele>
        <time>2020-04-19T13:26:08Z</time>
      </trkpt>
      <trkpt lat="-11.6873540" lon="166.9743880">
        <ele>261.6</ele>
        <time>2020-04-19T13:26:09Z</time>
      </trkpt>
      <trkpt lat="-11.6874120" lon="166.9743560">
        <ele>261.8</ele>
        <time>2020-04-19T13:26:10Z</time>
      </trkpt>
      <trkpt lat="-11.6874630" lon="166.9743350">
        <ele>262.2</ele>
        <time>2020-04-19T13:26:11Z</time>
      </trkpt>
      <trkpt lat="-11.6875140" lon="166.9743130">
        <ele>262.4</ele>
        <time>2020-04-19T13:26:12Z</time>
      </trkpt>
      <trkpt lat="-11.6875620" lon="166.9742920">
        <ele>262.6</ele>
        <time>2020-04-19T13:26:13Z</time>
      </trkpt>
      <trkpt lat="-11.6876090" lon="166.9742490">
        <ele>262.8</ele>
        <time>2020-04-19T13:26:14Z</time>
      </trkpt>
      <trkpt lat="-11.6876550" lon="166.9742170">
        <ele>263.0</ele>
        <time>2020-04-19T13:26:15Z</time>
      </trkpt>
      <trkpt lat="-11.6877020" lon="166.9741850">
        <ele>263.4</ele>
        <time>2020-04-19T13:26:16Z</time>
      </trkpt>
      <trkpt lat="-11.6877490" lon="166.9741520">
        <ele>263.6</ele>
        <time>2020-04-19T13:26:17Z</time>
      </trkpt>
      <trkpt lat="-11.6877960" lon="166.9741200">
        <ele>263.8</ele>
        <time>2020-04-19T13:26:18Z</time>
      </trkpt>
      <trkpt lat="-11.6878410" lon="166.9740770">
        <ele>264.0</ele>
        <time>2020-04-19T13:26:19Z</time>
      </trkpt>
      <trkpt lat="-11.6878910" lon="166.9740450">
        <ele>264.2</ele>
        <time>2020-04-19T13:26:20Z</time>
      </trkpt>
      <trkpt lat="-11.6879380" lon="166.9740240">
        <ele>264.4</ele>
        <time>2020-04-19T13:26:21Z</time>
      </trkpt>
      <trkpt lat="-11.6879830" lon="166.9739700">
        <ele>264.6</ele>
        <time>2020-04-19T13:26:22Z</time>
      </trkpt>
      <trkpt lat="-11.6880300" lon="166.9739380">
        <ele>264.8</ele>
        <time>2020-04-19T13:26:23Z</time>
      </trkpt>
      <trkpt lat="-11.6880770" lon="166.9738950">
        <ele>265.0</ele>
        <time>2020-04-19T13:26:24Z</time>
      </trkpt>
      <trkpt lat="-11.6881230" lon="166.9738520">
        <ele>265.2</ele>
        <time>2020-04-19T13:26:25Z</time>
      </trkpt>
      <trkpt lat="-11.6881680" lon="166.9738200">
        <ele>265.6</ele>
        <time>2020-04-19T13:26:26Z</time>
      </trkpt>
      <trkpt lat="-11.6882170" lon="166.9737770">
        <ele>265.8</ele>
        <time>2020-04-19T13:26:27Z</time>
      </trkpt>
      <trkpt lat="-11.6882640" lon="166.9737450">
        <ele>266.0</ele>
        <time>2020-04-19T13:26:28Z</time>
      </trkpt>
      <trkpt lat="-11.6883110" lon="166.9737020">
        <ele>266.2</ele>
        <time>2020-04-19T13:26:29Z</time>
      </trkpt>
      <trkpt lat="-11.6883570" lon="166.9736700">
        <ele>266.4</ele>
        <time>2020-04-19T13:26:30Z</time>
      </trkpt>
      <trkpt lat="-11.6884040" lon="166.9736270">
        <ele>266.6</ele>
        <time>2020-04-19T13:26:31Z</time>
      </trkpt>
      <trkpt lat="-11.6884510" lon="166.9735730">
        <ele>267.0</ele>
        <time>2020-04-19T13:26:32Z</time>
      </trkpt>
      <trkpt lat="-11.6884980" lon="166.9735410">
        <ele>267.2</ele>
        <time>2020-04-19T13:26:33Z</time>
      </trkpt>
      <trkpt lat="-11.6885470" lon="166.9734980">
        <ele>267.4</ele>
        <time>2020-04-19T13:26:34Z</time>
      </trkpt>
      <trkpt lat="-11.6885920" lon="166.9734550">
        <ele>267.8</ele>
        <time>2020-04-19T13:26:35Z</time>
      </trkpt>
      <trkpt lat="-11.6886360" lon="166.9734120">
        <ele>268.0</ele>
        <time>2020-04-19T13:26:36Z</time>
      </trkpt>
      <trkpt lat="-11.6886830" lon="166.9733580">
        <ele>268.2</ele>
        <time>2020-04-19T13:26:37Z</time>
      </trkpt>
      <trkpt lat="-11.6887260" lon="166.9733150">
        <ele>268.4</ele>
        <time>2020-04-19T13:26:38Z</time>
      </trkpt>
      <trkpt lat="-11.6887650" lon="166.9732730">
        <ele>268.8</ele>
        <time>2020-04-19T13:26:39Z</time>
      </trkpt>
      <trkpt lat="-11.6888080" lon="166.9732300">
        <ele>269.0</ele>
        <time>2020-04-19T13:26:40Z</time>
      </trkpt>
      <trkpt lat="-11.6888510" lon="166.9731760">
        <ele>269.2</ele>
        <time>2020-04-19T13:26:41Z</time>
      </trkpt>
      <trkpt lat="-11.6888930" lon="166.9731330">
        <ele>269.4</ele>
        <time>2020-04-19T13:26:42Z</time>
      </trkpt>
      <trkpt lat="-11.6889370" lon="166.9730900">
        <ele>269.8</ele>
        <time>2020-04-19T13:26:43Z</time>
      </trkpt>
      <trkpt lat="-11.6889820" lon="166.9730370">
        <ele>270.0</ele>
        <time>2020-04-19T13:26:44Z</time>
      </trkpt>
      <trkpt lat="-11.6890270" lon="166.9730150">
        <ele>270.2</ele>
        <time>2020-04-19T13:26:45Z</time>
      </trkpt>
      <trkpt lat="-11.6890720" lon="166.9729610">
        <ele>270.4</ele>
        <time>2020-04-19T13:26:46Z</time>
      </trkpt>
      <trkpt lat="-11.6891180" lon="166.9729190">
        <ele>270.8</ele>
        <time>2020-04-19T13:26:47Z</time>
      </trkpt>
      <trkpt lat="-11.6891690" lon="166.9728760">
        <ele>271.0</ele>
        <time>2020-04-19T13:26:48Z</time>
      </trkpt>
      <trkpt lat="-11.6892160" lon="166.9728430">
        <ele>271.2</ele>
        <time>2020-04-19T13:26:49Z</time>
      </trkpt>
      <trkpt lat="-11.6892650" lon="166.9728110">
        <ele>271.4</ele>
        <time>2020-04-19T13:26:50Z</time>
      </trkpt>
      <trkpt lat="-11.6893180" lon="166.9727680">
        <ele>271.6</ele>
        <time>2020-04-19T13:26:51Z</time>
      </trkpt>
      <trkpt lat="-11.6893730" lon="166.9727360">
        <ele>272.0</ele>
        <time>2020-04-19T13:26:52Z</time>
      </trkpt>
      <trkpt lat="-11.6894260" lon="166.9727040">
        <ele>272.2</ele>
        <time>2020-04-19T13:26:53Z</time>
      </trkpt>
      <trkpt lat="-11.6894800" lon="166.9726720">
        <ele>272.4</ele>
        <time>2020-04-19T13:26:54Z</time>
      </trkpt>
      <trkpt lat="-11.6895350" lon="166.9726500">
        <ele>272.6</ele>
        <time>2020-04-19T13:26:55Z</time>
      </trkpt>
      <trkpt lat="-11.6895940" lon="166.9726180">
        <ele>272.8</ele>
        <time>2020-04-19T13:26:56Z</time>
      </trkpt>
      <trkpt lat="-11.6896520" lon="166.9725860">
        <ele>273.2</ele>
        <time>2020-04-19T13:26:57Z</time>
      </trkpt>
      <trkpt lat="-11.6897090" lon="166.9725540">
        <ele>273.4</ele>
        <time>2020-04-19T13:26:58Z</time>
      </trkpt>
      <trkpt lat="-11.6897660" lon="166.9725220">
        <ele>273.6</ele>
        <time>2020-04-19T13:26:59Z</time>
      </trkpt>
      <trkpt lat="-11.6898260" lon="166.9724890">
        <ele>273.8</ele>
        <time>2020-04-19T13:27:00Z</time>
      </trkpt>
      <trkpt lat="-11.6898820" lon="166.9724570">
        <ele>274.2</ele>
        <time>2020-04-19T13:27:01Z</time>
      </trkpt>
      <trkpt lat="-11.6899400" lon="166.9724360">
        <ele>274.4</ele>
        <time>2020-04-19T13:27:02Z</time>
      </trkpt>
      <trkpt lat="-11.6899940" lon="166.9724040">
        <ele>274.6</ele>
        <time>2020-04-19T13:27:03Z</time>
      </trkpt>
      <trkpt lat="-11.6900500" lon="166.9723500">
        <ele>275.0</ele>
        <time>2020-04-19T13:27:04Z</time>
      </trkpt>
      <trkpt lat="-11.6901000" lon="166.9723280">
        <ele>275.2</ele>
        <time>2020-04-19T13:27:05Z</time>
      </trkpt>
      <trkpt lat="-11.6901480" lon="166.9722750">
        <ele>275.6</ele>
        <time>2020-04-19T13:27:06Z</time>
      </trkpt>
      <trkpt lat="-11.6901950" lon="166.9722320">
        <ele>276.0</ele>
        <time>2020-04-19T13:27:07Z</time>
      </trkpt>
      <trkpt lat="-11.6902340" lon="166.9721890">
        <ele>276.4</ele>
        <time>2020-04-19T13:27:08Z</time>
      </trkpt>
      <trkpt lat="-11.6902640" lon="166.9721460">
        <ele>276.6</ele>
        <time>2020-04-19T13:27:09Z</time>
      </trkpt>
      <trkpt lat="-11.6902850" lon="166.9720820">
        <ele>277.0</ele>
        <time>2020-04-19T13:27:10Z</time>
      </trkpt>
      <trkpt lat="-11.6902910" lon="166.9720170">
        <ele>277.4</ele>
        <time>2020-04-19T13:27:11Z</time>
      </trkpt>
      <trkpt lat="-11.6902930" lon="166.9719640">
        <ele>277.8</ele>
        <time>2020-04-19T13:27:12Z</time>
      </trkpt>
      <trkpt lat="-11.6902930" lon="166.9718990">
        <ele>278.2</ele>
        <time>2020-04-19T13:27:13Z</time>
      </trkpt>
      <trkpt lat="-11.6902890" lon="166.9718560">
        <ele>278.4</ele>
        <time>2020-04-19T13:27:14Z</time>
      </trkpt>
      <trkpt lat="-11.6902810" lon="166.9717920">
        <ele>278.8</ele>
        <time>2020-04-19T13:27:15Z</time>
      </trkpt>
      <trkpt lat="-11.6902710" lon="166.9717280">
        <ele>279.2</ele>
        <time>2020-04-19T13:27:16Z</time>
      </trkpt>
      <trkpt lat="-11.6902640" lon="166.9716850">
        <ele>279.4</ele>
        <time>2020-04-19T13:27:17Z</time>
      </trkpt>
      <trkpt lat="-11.6902600" lon="166.9716200">
        <ele>279.8</ele>
        <time>2020-04-19T13:27:18Z</time>
      </trkpt>
      <trkpt lat="-11.6902620" lon="166.9715670">
        <ele>280.2</ele>
        <time>2020-04-19T13:27:19Z</time>
      </trkpt>
      <trkpt lat="-11.6902690" lon="166.9715130">
        <ele>280.6</ele>
        <time>2020-04-19T13:27:20Z</time>
      </trkpt>
      <trkpt lat="-11.6902860" lon="166.9714700">
        <ele>281.0</ele>
        <time>2020-04-19T13:27:21Z</time>
      </trkpt>
      <trkpt lat="-11.6903110" lon="166.9714270">
        <ele>281.4</ele>
        <time>2020-04-19T13:27:22Z</time>
      </trkpt>
      <trkpt lat="-11.6903420" lon="166.9713740">
        <ele>281.8</ele>
        <time>2020-04-19T13:27:23Z</time>
      </trkpt>
      <trkpt lat="-11.6903800" lon="166.9713520">
        <ele>282.2</ele>
        <time>2020-04-19T13:27:24Z</time>
      </trkpt>
      <trkpt lat="-11.6904230" lon="166.9713200">
        <ele>282.6</ele>
        <time>2020-04-19T13:27:25Z</time>
      </trkpt>
      <trkpt lat="-11.6904670" lon="166.9712980">
        <ele>282.8</ele>
        <time>2020-04-19T13:27:26Z</time>
      </trkpt>
      <trkpt lat="-11.6905140" lon="166.9712880">
        <ele>283.2</ele>
        <time>2020-04-19T13:27:27Z</time>
      </trkpt>
      <trkpt lat="-11.6905600" lon="166.9712770">
        <ele>283.6</ele>
        <time>2020-04-19T13:27:28Z</time>
      </trkpt>
      <trkpt lat="-11.6906080" lon="166.9712560">
        <ele>284.0</ele>
        <time>2020-04-19T13:27:29Z</time>
      </trkpt>
      <trkpt lat="-11.6906530" lon="166.9712450">
        <ele>284.4</ele>
        <time>2020-04-19T13:27:30Z</time>
      </trkpt>
      <trkpt lat="-11.6907030" lon="166.9712450">
        <ele>284.6</ele>
        <time>2020-04-19T13:27:31Z</time>
      </trkpt>
      <trkpt lat="-11.6907510" lon="166.9712230">
        <ele>285.0</ele>
        <time>2020-04-19T13:27:32Z</time>
      </trkpt>
      <trkpt lat="-11.6908000" lon="166.9712230">
        <ele>285.4</ele>
        <time>2020-04-19T13:27:33Z</time>
      </trkpt>
      <trkpt lat="-11.6908490" lon="166.9712130">
        <ele>285.8</ele>
        <time>2020-04-19T13:27:34Z</time>
      </trkpt>
      <trkpt lat="-11.6908970" lon="166.9711910">
        <ele>286.0</ele>
        <time>2020-04-19T13:27:35Z</time>
      </trkpt>
      <trkpt lat="-11.6909470" lon="166.9711910">
        <ele>286.4</ele>
        <time>2020-04-19T13:27:36Z</time>
      </trkpt>
      <trkpt lat="-11.6909970" lon="166.9711800">
        <ele>286.8</ele>
        <time>2020-04-19T13:27:37Z</time>
      </trkpt>
      <trkpt lat="-11.6910440" lon="166.9711800">
        <ele>287.2</ele>
        <time>2020-04-19T13:27:38Z</time>
      </trkpt>
      <trkpt lat="-11.6910910" lon="166.9711700">
        <ele>287.6</ele>
        <time>2020-04-19T13:27:39Z</time>
      </trkpt>
      <trkpt lat="-11.6911350" lon="166.9711480">
        <ele>288.0</ele>
        <time>2020-04-19T13:27:40Z</time>
      </trkpt>
      <trkpt lat="-11.6911820" lon="166.9711160">
        <ele>288.4</ele>
        <time>2020-04-19T13:27:41Z</time>
      </trkpt>
      <trkpt lat="-11.6912220" lon="166.9711050">
        <ele>288.8</ele>
        <time>2020-04-19T13:27:42Z</time>
      </trkpt>
      <trkpt lat="-11.6912580" lon="166.9710730">
        <ele>289.2</ele>
        <time>2020-04-19T13:27:43Z</time>
      </trkpt>
      <trkpt lat="-11.6912920" lon="166.9710410">
        <ele>289.6</ele>
        <time>2020-04-19T13:27:44Z</time>
      </trkpt>
      <trkpt lat="-11.6913250" lon="166.9710090">
        <ele>290.0</ele>
        <time>2020-04-19T13:27:45Z</time>
      </trkpt>
      <trkpt lat="-11.6913570" lon="166.9709660">
        <ele>290.4</ele>
        <time>2020-04-19T13:27:46Z</time>
      </trkpt>
      <trkpt lat="-11.6913860" lon="166.9709340">
        <ele>290.8</ele>
        <time>2020-04-19T13:27:47Z</time>
      </trkpt>
      <trkpt lat="-11.6914120" lon="166.9708910">
        <ele>291.2</ele>
        <time>2020-04-19T13:27:48Z</time>
      </trkpt>
      <trkpt lat="-11.6914370" lon="166.9708590">
        <ele>291.4</ele>
        <time>2020-04-19T13:27:49Z</time>
      </trkpt>
      <trkpt lat="-11.6914590" lon="166.9708160">
        <ele>291.8</ele>
        <time>2020-04-19T13:27:50Z</time>
      </trkpt>
      <trkpt lat="-11.6914850" lon="166.9707830">
        <ele>292.2</ele>
        <time>2020-04-19T13:27:51Z</time>
      </trkpt>
      <trkpt lat="-11.6915060" lon="166.9707410">
        <ele>292.4</ele>
        <time>2020-04-19T13:27:52Z</time>
      </trkpt>
      <trkpt lat="-11.6915290" lon="166.9707080">
        <ele>292.8</ele>
        <time>2020-04-19T13:27:53Z</time>
      </trkpt>
      <trkpt lat="-11.6915520" lon="166.9706650">
        <ele>293.2</ele>
        <time>2020-04-19T13:27:54Z</time>
      </trkpt>
      <trkpt lat="-11.6915750" lon="166.9706330">
        <ele>293.4</ele>
        <time>2020-04-19T13:27:55Z</time>
      </trkpt>
      <trkpt lat="-11.6915980" lon="166.9706010">
        <ele>293.8</ele>
        <time>2020-04-19T13:27:56Z</time>
      </trkpt>
      <trkpt lat="-11.6916240" lon="166.9705580">
        <ele>294.0</ele>
        <time>2020-04-19T13:27:57Z</time>
      </trkpt>
      <trkpt lat="-11.6916550" lon="166.9705260">
        <ele>294.4</ele>
        <time>2020-04-19T13:27:58Z</time>
      </trkpt>
      <trkpt lat="-11.6916860" lon="166.9704940">
        <ele>294.6</ele>
        <time>2020-04-19T13:27:59Z</time>
      </trkpt>
      <trkpt lat="-11.6917140" lon="166.9704620">
        <ele>294.8</ele>
        <time>2020-04-19T13:28:00Z</time>
      </trkpt>
      <trkpt lat="-11.6917460" lon="166.9704290">
        <ele>295.2</ele>
        <time>2020-04-19T13:28:01Z</time>
      </trkpt>
      <trkpt lat="-11.6917800" lon="166.9703870">
        <ele>295.4</ele>
        <time>2020-04-19T13:28:02Z</time>
      </trkpt>
      <trkpt lat="-11.6918130" lon="166.9703540">
        <ele>295.8</ele>
        <time>2020-04-19T13:28:03Z</time>
      </trkpt>
      <trkpt lat="-11.6918470" lon="166.9703220">
        <ele>296.0</ele>
        <time>2020-04-19T13:28:04Z</time>
      </trkpt>
      <trkpt lat="-11.6918810" lon="166.9702900">
        <ele>296.4</ele>
        <time>2020-04-19T13:28:05Z</time>
      </trkpt>
      <trkpt lat="-11.6919150" lon="166.9702470">
        <ele>296.6</ele>
        <time>2020-04-19T13:28:06Z</time>
      </trkpt>
      <trkpt lat="-11.6919460" lon="166.9702150">
        <ele>297.0</ele>
        <time>2020-04-19T13:28:07Z</time>
      </trkpt>
      <trkpt lat="-11.6919770" lon="166.9701720">
        <ele>297.2</ele>
        <time>2020-04-19T13:28:08Z</time>
      </trkpt>
      <trkpt lat="-11.6920040" lon="166.9701290">
        <ele>297.6</ele>
        <time>2020-04-19T13:28:09Z</time>
      </trkpt>
      <trkpt lat="-11.6920290" lon="166.9700970">
        <ele>297.8</ele>
        <time>2020-04-19T13:28:10Z</time>
      </trkpt>
      <trkpt lat="-11.6920520" lon="166.9700540">
        <ele>298.2</ele>
        <time>2020-04-19T13:28:11Z</time>
      </trkpt>
      <trkpt lat="-11.6920700" lon="166.9700000">
        <ele>298.6</ele>
        <time>2020-04-19T13:28:12Z</time>
      </trkpt>
      <trkpt lat="-11.6920840" lon="166.9699470">
        <ele>298.8</ele>
        <time>2020-04-19T13:28:13Z</time>
      </trkpt>
      <trkpt lat="-11.6920940" lon="166.9699040">
        <ele>299.2</ele>
        <time>2020-04-19T13:28:14Z</time>
      </trkpt>
      <trkpt lat="-11.6920960" lon="166.9698500">
        <ele>299.4</ele>
        <time>2020-04-19T13:28:15Z</time>
      </trkpt>
      <trkpt lat="-11.6920940" lon="166.9697960">
        <ele>299.8</ele>
        <time>2020-04-19T13:28:16Z</time>
      </trkpt>
      <trkpt lat="-11.6920880" lon="166.9697430">
        <ele>300.0</ele>
        <time>2020-04-19T13:28:17Z</time>
      </trkpt>
      <trkpt lat="-11.6920800" lon="166.9697000">
        <ele>300.2</ele>
        <time>2020-04-19T13:28:18Z</time>
      </trkpt>
      <trkpt lat="-11.6920680" lon="166.9696350">
        <ele>300.6</ele>
        <time>2020-04-19T13:28:19Z</time>
      </trkpt>
      <trkpt lat="-11.6920510" lon="166.9695930">
        <ele>300.8</ele>
        <time>2020-04-19T13:28:20Z</time>
      </trkpt>
      <trkpt lat="-11.6920360" lon="166.9695500">
        <ele>301.0</ele>
        <time>2020-04-19T13:28:21Z</time>
      </trkpt>
      <trkpt lat="-11.6920210" lon="166.9694850">
        <ele>301.2</ele>
        <time>2020-04-19T13:28:22Z</time>
      </trkpt>
      <trkpt lat="-11.6920080" lon="166.9694420">
        <ele>301.4</ele>
        <time>2020-04-19T13:28:23Z</time>
      </trkpt>
      <trkpt lat="-11.6919950" lon="166.9693780">
        <ele>301.8</ele>
        <time>2020-04-19T13:28:24Z</time>
      </trkpt>
      <trkpt lat="-11.6919820" lon="166.9693140">
        <ele>302.0</ele>
        <time>2020-04-19T13:28:25Z</time>
      </trkpt>
      <trkpt lat="-11.6919730" lon="166.9692710">
        <ele>302.2</ele>
        <time>2020-04-19T13:28:26Z</time>
      </trkpt>
      <trkpt lat="-11.6919680" lon="166.9692170">
        <ele>302.4</ele>
        <time>2020-04-19T13:28:27Z</time>
      </trkpt>
      <trkpt lat="-11.6919640" lon="166.9691630">
        <ele>302.8</ele>
        <time>2020-04-19T13:28:28Z</time>
      </trkpt>
      <trkpt lat="-11.6919650" lon="166.9691100">
        <ele>303.0</ele>
        <time>2020-04-19T13:28:29Z</time>
      </trkpt>
      <trkpt lat="-11.6919690" lon="166.9690560">
        <ele>303.4</ele>
        <time>2020-04-19T13:28:30Z</time>
      </trkpt>
      <trkpt lat="-11.6919770" lon="166.9690020">
        <ele>303.6</ele>
        <time>2020-04-19T13:28:31Z</time>
      </trkpt>
      <trkpt lat="-11.6919890" lon="166.9689490">
        <ele>304.0</ele>
        <time>2020-04-19T13:28:32Z</time>
      </trkpt>
      <trkpt lat="-11.6920040" lon="166.9689060">
        <ele>304.2</ele>
        <time>2020-04-19T13:28:33Z</time>
      </trkpt>
      <trkpt lat="-11.6920240" lon="166.9688630">
        <ele>304.6</ele>
        <time>2020-04-19T13:28:34Z</time>
      </trkpt>
      <trkpt lat="-11.6920470" lon="166.9688200">
        <ele>304.8</ele>
        <time>2020-04-19T13:28:35Z</time>
      </trkpt>
      <trkpt lat="-11.6920700" lon="166.9687660">
        <ele>305.2</ele>
        <time>2020-04-19T13:28:36Z</time>
      </trkpt>
      <trkpt lat="-11.6920960" lon="166.9687240">
        <ele>305.4</ele>
        <time>2020-04-19T13:28:37Z</time>
      </trkpt>
      <trkpt lat="-11.6921260" lon="166.9686910">
        <ele>305.8</ele>
        <time>2020-04-19T13:28:38Z</time>
      </trkpt>
      <trkpt lat="-11.6921550" lon="166.9686480">
        <ele>306.0</ele>
        <time>2020-04-19T13:28:39Z</time>
      </trkpt>
      <trkpt lat="-11.6921860" lon="166.9686160">
        <ele>306.4</ele>
        <time>2020-04-19T13:28:40Z</time>
      </trkpt>
      <trkpt lat="-11.6922160" lon="166.9685730">
        <ele>306.6</ele>
        <time>2020-04-19T13:28:41Z</time>
      </trkpt>
      <trkpt lat="-11.6922480" lon="166.9685410">
        <ele>307.0</ele>
        <time>2020-04-19T13:28:42Z</time>
      </trkpt>
      <trkpt lat="-11.6922800" lon="166.9684980">
        <ele>307.2</ele>
        <time>2020-04-19T13:28:43Z</time>
      </trkpt>
      <trkpt lat="-11.6923150" lon="166.9684660">
        <ele>307.6</ele>
        <time>2020-04-19T13:28:44Z</time>
      </trkpt>
      <trkpt lat="-11.6923470" lon="166.9684230">
        <ele>307.8</ele>
        <time>2020-04-19T13:28:45Z</time>
      </trkpt>
      <trkpt lat="-11.6923810" lon="166.9683910">
        <ele>308.2</ele>
        <time>2020-04-19T13:28:46Z</time>
      </trkpt>
      <trkpt lat="-11.6924120" lon="166.9683590">
        <ele>308.4</ele>
        <time>2020-04-19T13:28:47Z</time>
      </trkpt>
      <trkpt lat="-11.6924450" lon="166.9683270">
        <ele>308.8</ele>
        <time>2020-04-19T13:28:48Z</time>
      </trkpt>
      <trkpt lat="-11.6924770" lon="166.9682840">
        <ele>309.0</ele>
        <time>2020-04-19T13:28:49Z</time>
      </trkpt>
      <trkpt lat="-11.6925100" lon="166.9682510">
        <ele>309.2</ele>
        <time>2020-04-19T13:28:50Z</time>
      </trkpt>
      <trkpt lat="-11.6925430" lon="166.9682190">
        <ele>309.6</ele>
        <time>2020-04-19T13:28:51Z</time>
      </trkpt>
      <trkpt lat="-11.6925750" lon="166.9681760">
        <ele>309.8</ele>
        <time>2020-04-19T13:28:52Z</time>
      </trkpt>
      <trkpt lat="-11.6926070" lon="166.9681440">
        <ele>310.2</ele>
        <time>2020-04-19T13:28:53Z</time>
      </trkpt>
      <trkpt lat="-11.6926380" lon="166.9681120">
        <ele>310.4</ele>
        <time>2020-04-19T13:28:54Z</time>
      </trkpt>
      <trkpt lat="-11.6926720" lon="166.9680800">
        <ele>310.8</ele>
        <time>2020-04-19T13:28:55Z</time>
      </trkpt>
      <trkpt lat="-11.6927010" lon="166.9680370">
        <ele>311.0</ele>
        <time>2020-04-19T13:28:56Z</time>
      </trkpt>
      <trkpt lat="-11.6927290" lon="166.9680050">
        <ele>311.4</ele>
        <time>2020-04-19T13:28:57Z</time>
      </trkpt>
      <trkpt lat="-11.6927580" lon="166.9679620">
        <ele>311.6</ele>
        <time>2020-04-19T13:28:58Z</time>
      </trkpt>
      <trkpt lat="-11.6927870" lon="166.9679300">
        <ele>312.0</ele>
        <time>2020-04-19T13:28:59Z</time>
      </trkpt>
      <trkpt lat="-11.6928130" lon="166.9678870">
        <ele>312.2</ele>
        <time>2020-04-19T13:29:00Z</time>
      </trkpt>
      <trkpt lat="-11.6928380" lon="166.9678540">
        <ele>312.6</ele>
        <time>2020-04-19T13:29:01Z</time>
      </trkpt>
      <trkpt lat="-11.6928610" lon="166.9678120">
        <ele>313.0</ele>
        <time>2020-04-19T13:29:02Z</time>
      </trkpt>
      <trkpt lat="-11.6928820" lon="166.9677790">
        <ele>313.2</ele>
        <time>2020-04-19T13:29:03Z</time>
      </trkpt>
      <trkpt lat="-11.6929020" lon="166.9677360">
        <ele>313.6</ele>
        <time>2020-04-19T13:29:04Z</time>
      </trkpt>
      <trkpt lat="-11.6929190" lon="166.9676830">
        <ele>313.8</ele>
        <time>2020-04-19T13:29:05Z</time>
      </trkpt>
      <trkpt lat="-11.6929320" lon="166.9676400">
        <ele>314.2</ele>
        <time>2020-04-19T13:29:06Z</time>
      </trkpt>
      <trkpt lat="-11.6929450" lon="166.9675970">
        <ele>314.6</ele>
        <time>2020-04-19T13:29:07Z</time>
      </trkpt>
      <trkpt lat="-11.6929560" lon="166.9675430">
        <ele>314.8</ele>
        <time>2020-04-19T13:29:08Z</time>
      </trkpt>
      <trkpt lat="-11.6929650" lon="166.9675000">
        <ele>315.2</ele>
        <time>2020-04-19T13:29:09Z</time>
      </trkpt>
      <trkpt lat="-11.6929740" lon="166.9674680">
        <ele>315.6</ele>
        <time>2020-04-19T13:29:10Z</time>
      </trkpt>
      <trkpt lat="-11.6929790" lon="166.9674250">
        <ele>315.8</ele>
        <time>2020-04-19T13:29:11Z</time>
      </trkpt>
      <trkpt lat="-11.6929870" lon="166.9673820">
        <ele>316.2</ele>
        <time>2020-04-19T13:29:12Z</time>
      </trkpt>
      <trkpt lat="-11.6929910" lon="166.9673400">
        <ele>316.6</ele>
        <time>2020-04-19T13:29:13Z</time>
      </trkpt>
      <trkpt lat="-11.6929910" lon="166.9672860">
        <ele>317.0</ele>
        <time>2020-04-19T13:29:14Z</time>
      </trkpt>
      <trkpt lat="-11.6929910" lon="166.9672430">
        <ele>317.2</ele>
        <time>2020-04-19T13:29:15Z</time>
      </trkpt>
      <trkpt lat="-11.6929910" lon="166.9672110">
        <ele>317.6</ele>
        <time>2020-04-19T13:29:16Z</time>
      </trkpt>
      <trkpt lat="-11.6929900" lon="166.9671680">
        <ele>318.0</ele>
        <time>2020-04-19T13:29:17Z</time>
      </trkpt>
      <trkpt lat="-11.6929880" lon="166.9671250">
        <ele>318.2</ele>
        <time>2020-04-19T13:29:18Z</time>
      </trkpt>
      <trkpt lat="-11.6929840" lon="166.9670710">
        <ele>318.6</ele>
        <time>2020-04-19T13:29:19Z</time>
      </trkpt>
      <trkpt lat="-11.6929820" lon="166.9670280">
        <ele>318.8</ele>
        <time>2020-04-19T13:29:20Z</time>
      </trkpt>
      <trkpt lat="-11.6929760" lon="166.9669850">
        <ele>319.2</ele>
        <time>2020-04-19T13:29:21Z</time>
      </trkpt>
      <trkpt lat="-11.6929710" lon="166.9669430">
        <ele>319.4</ele>
        <time>2020-04-19T13:29:22Z</time>
      </trkpt>
      <trkpt lat="-11.6929630" lon="166.9669100">
        <ele>319.8</ele>
        <time>2020-04-19T13:29:23Z</time>
      </trkpt>
      <trkpt lat="-11.6929550" lon="166.9668460">
        <ele>320.0</ele>
        <time>2020-04-19T13:29:24Z</time>
      </trkpt>
      <trkpt lat="-11.6929470" lon="166.9668140">
        <ele>320.2</ele>
        <time>2020-04-19T13:29:25Z</time>
      </trkpt>
      <trkpt lat="-11.6929360" lon="166.9667600">
        <ele>320.6</ele>
        <time>2020-04-19T13:29:26Z</time>
      </trkpt>
      <trkpt lat="-11.6929250" lon="166.9667070">
        <ele>320.8</ele>
        <time>2020-04-19T13:29:27Z</time>
      </trkpt>
      <trkpt lat="-11.6929130" lon="166.9666640">
        <ele>321.0</ele>
        <time>2020-04-19T13:29:28Z</time>
      </trkpt>
      <trkpt lat="-11.6929020" lon="166.9666210">
        <ele>321.2</ele>
        <time>2020-04-19T13:29:29Z</time>
      </trkpt>
      <trkpt lat="-11.6928900" lon="166.9665670">
        <ele>321.2</ele>
        <time>2020-04-19T13:29:30Z</time>
      </trkpt>
      <trkpt lat="-11.6928740" lon="166.9665130">
        <ele>321.4</ele>
        <time>2020-04-19T13:29:31Z</time>
      </trkpt>
      <trkpt lat="-11.6928510" lon="166.9664490">
        <ele>321.4</ele>
        <time>2020-04-19T13:29:32Z</time>
      </trkpt>
      <trkpt lat="-11.6928290" lon="166.9664060">
        <ele>321.4</ele>
        <time>2020-04-19T13:29:33Z</time>
      </trkpt>
      <trkpt lat="-11.6928010" lon="166.9663420">
        <ele>321.2</ele>
        <time>2020-04-19T13:29:34Z</time>
      </trkpt>
      <trkpt lat="-11.6927700" lon="166.9662770">
        <ele>321.0</ele>
        <time>2020-04-19T13:29:35Z</time>
      </trkpt>
      <trkpt lat="-11.6927290" lon="166.9662240">
        <ele>320.6</ele>
        <time>2020-04-19T13:29:36Z</time>
      </trkpt>
      <trkpt lat="-11.6926850" lon="166.9661490">
        <ele>320.4</ele>
        <time>2020-04-19T13:29:37Z</time>
      </trkpt>
      <trkpt lat="-11.6926380" lon="166.9660840">
        <ele>319.8</ele>
        <time>2020-04-19T13:29:38Z</time>
      </trkpt>
      <trkpt lat="-11.6925830" lon="166.9660090">
        <ele>319.4</ele>
        <time>2020-04-19T13:29:39Z</time>
      </trkpt>
      <trkpt lat="-11.6925260" lon="166.9659450">
        <ele>318.8</ele>
        <time>2020-04-19T13:29:40Z</time>
      </trkpt>
      <trkpt lat="-11.6924630" lon="166.9658700">
        <ele>318.2</ele>
        <time>2020-04-19T13:29:41Z</time>
      </trkpt>
      <trkpt lat="-11.6924010" lon="166.9657950">
        <ele>317.6</ele>
        <time>2020-04-19T13:29:42Z</time>
      </trkpt>
      <trkpt lat="-11.6923340" lon="166.9656980">
        <ele>316.8</ele>
        <time>2020-04-19T13:29:43Z</time>
      </trkpt>
      <trkpt lat="-11.6922720" lon="166.9656120">
        <ele>316.2</ele>
        <time>2020-04-19T13:29:44Z</time>
      </trkpt>
      <trkpt lat="-11.6922180" lon="166.9655050">
        <ele>315.6</ele>
        <time>2020-04-19T13:29:45Z</time>
      </trkpt>
      <trkpt lat="-11.6921800" lon="166.9653980">
        <ele>315.0</ele>
        <time>2020-04-19T13:29:46Z</time>
      </trkpt>
      <trkpt lat="-11.6921610" lon="166.9652900">
        <ele>314.6</ele>
        <time>2020-04-19T13:29:47Z</time>
      </trkpt>
      <trkpt lat="-11.6921720" lon="166.9651720">
        <ele>314.4</ele>
        <time>2020-04-19T13:29:48Z</time>
      </trkpt>
      <trkpt lat="-11.6921960" lon="166.9650440">
        <ele>314.2</ele>
        <time>2020-04-19T13:29:49Z</time>
      </trkpt>
      <trkpt lat="-11.6922170" lon="166.9649360">
        <ele>314.2</ele>
        <time>2020-04-19T13:29:50Z</time>
      </trkpt>
      <trkpt lat="-11.6922410" lon="166.9648180">
        <ele>314.2</ele>
        <time>2020-04-19T13:29:51Z</time>
      </trkpt>
      <trkpt lat="-11.6922630" lon="166.9647110">
        <ele>314.2</ele>
        <time>2020-04-19T13:29:52Z</time>
      </trkpt>
      <trkpt lat="-11.6922860" lon="166.9645930">
        <ele>314.2</ele>
        <time>2020-04-19T13:29:53Z</time>
      </trkpt>
      <trkpt lat="-11.6923080" lon="166.9644860">
        <ele>314.4</ele>
        <time>2020-04-19T13:29:54Z</time>
      </trkpt>
      <trkpt lat="-11.6923320" lon="166.9643780">
        <ele>314.4</ele>
        <time>2020-04-19T13:29:55Z</time>
      </trkpt>
      <trkpt lat="-11.6923540" lon="166.9642710">
        <ele>314.4</ele>
        <time>2020-04-19T13:29:56Z</time>
      </trkpt>
      <trkpt lat="-11.6923770" lon="166.9641640">
        <ele>314.4</ele>
        <time>2020-04-19T13:29:57Z</time>
      </trkpt>
      <trkpt lat="-11.6924010" lon="166.9640560">
        <ele>314.4</ele>
        <time>2020-04-19T13:29:58Z</time>
      </trkpt>
      <trkpt lat="-11.6924210" lon="166.9639490">
        <ele>314.4</ele>
        <time>2020-04-19T13:29:59Z</time>
      </trkpt>
      <trkpt lat="-11.6924410" lon="166.9638420">
        <ele>314.6</ele>
        <time>2020-04-19T13:30:00Z</time>
      </trkpt>
      <trkpt lat="-11.6924630" lon="166.9637350">
        <ele>314.6</ele>
        <time>2020-04-19T13:30:01Z</time>
      </trkpt>
      <trkpt lat="-11.6924710" lon="166.9636270">
        <ele>314.6</ele>
        <time>2020-04-19T13:30:02Z</time>
      </trkpt>
      <trkpt lat="-11.6924360" lon="166.9635200">
        <ele>314.8</ele>
        <time>2020-04-19T13:30:03Z</time>
      </trkpt>
      <trkpt lat="-11.6923740" lon="166.9634230">
        <ele>315.0</ele>
        <time>2020-04-19T13:30:04Z</time>
      </trkpt>
      <trkpt lat="-11.6923070" lon="166.9633480">
        <ele>315.2</ele>
        <time>2020-04-19T13:30:05Z</time>
      </trkpt>
      <trkpt lat="-11.6922310" lon="166.9632950">
        <ele>315.6</ele>
        <time>2020-04-19T13:30:06Z</time>
      </trkpt>
      <trkpt lat="-11.6921550" lon="166.9632300">
        <ele>315.8</ele>
        <time>2020-04-19T13:30:07Z</time>
      </trkpt>
      <trkpt lat="-11.6920800" lon="166.9631660">
        <ele>316.0</ele>
        <time>2020-04-19T13:30:08Z</time>
      </trkpt>
      <trkpt lat="-11.6920040" lon="166.9631120">
        <ele>316.2</ele>
        <time>2020-04-19T13:30:09Z</time>
      </trkpt>
      <trkpt lat="-11.6919290" lon="166.9630480">
        <ele>316.4</ele>
        <time>2020-04-19T13:30:10Z</time>
      </trkpt>
      <trkpt lat="-11.6918550" lon="166.9629840">
        <ele>316.6</ele>
        <time>2020-04-19T13:30:11Z</time>
      </trkpt>
      <trkpt lat="-11.6917830" lon="166.9629410">
        <ele>316.8</ele>
        <time>2020-04-19T13:30:12Z</time>
      </trkpt>
      <trkpt lat="-11.6917100" lon="166.9628980">
        <ele>317.0</ele>
        <time>2020-04-19T13:30:13Z</time>
      </trkpt>
      <trkpt lat="-11.6916390" lon="166.9628330">
        <ele>317.4</ele>
        <time>2020-04-19T13:30:14Z</time>
      </trkpt>
      <trkpt lat="-11.6915690" lon="166.9627900">
        <ele>317.6</ele>
        <time>2020-04-19T13:30:15Z</time>
      </trkpt>
      <trkpt lat="-11.6914980" lon="166.9627370">
        <ele>317.8</ele>
        <time>2020-04-19T13:30:16Z</time>
      </trkpt>
      <trkpt lat="-11.6914310" lon="166.9627150">
        <ele>318.2</ele>
        <time>2020-04-19T13:30:17Z</time>
      </trkpt>
      <trkpt lat="-11.6913640" lon="166.9626620">
        <ele>318.6</ele>
        <time>2020-04-19T13:30:18Z</time>
      </trkpt>
      <trkpt lat="-11.6913000" lon="166.9626190">
        <ele>318.8</ele>
        <time>2020-04-19T13:30:19Z</time>
      </trkpt>
      <trkpt lat="-11.6912380" lon="166.9625870">
        <ele>319.2</ele>
        <time>2020-04-19T13:30:20Z</time>
      </trkpt>
      <trkpt lat="-11.6911780" lon="166.9625540">
        <ele>319.6</ele>
        <time>2020-04-19T13:30:21Z</time>
      </trkpt>
      <trkpt lat="-11.6911160" lon="166.9625330">
        <ele>320.2</ele>
        <time>2020-04-19T13:30:22Z</time>
      </trkpt>
      <trkpt lat="-11.6910570" lon="166.9625010">
        <ele>320.6</ele>
        <time>2020-04-19T13:30:23Z</time>
      </trkpt>
      <trkpt lat="-11.6909940" lon="166.9625010">
        <ele>321.2</ele>
        <time>2020-04-19T13:30:24Z</time>
      </trkpt>
      <trkpt lat="-11.6909380" lon="166.9625010">
        <ele>321.8</ele>
        <time>2020-04-19T13:30:25Z</time>
      </trkpt>
      <trkpt lat="-11.6908840" lon="166.9625010">
        <ele>322.2</ele>
        <time>2020-04-19T13:30:26Z</time>
      </trkpt>
      <trkpt lat="-11.6908370" lon="166.9625120">
        <ele>322.6</ele>
        <time>2020-04-19T13:30:27Z</time>
      </trkpt>
      <trkpt lat="-11.6907920" lon="166.9625440">
        <ele>323.2</ele>
        <time>2020-04-19T13:30:28Z</time>
      </trkpt>
      <trkpt lat="-11.6907570" lon="166.9625760">
        <ele>323.4</ele>
        <time>2020-04-19T13:30:29Z</time>
      </trkpt>
      <trkpt lat="-11.6907200" lon="166.9626080">
        <ele>323.8</ele>
        <time>2020-04-19T13:30:30Z</time>
      </trkpt>
      <trkpt lat="-11.6906900" lon="166.9626400">
        <ele>324.2</ele>
        <time>2020-04-19T13:30:31Z</time>
      </trkpt>
      <trkpt lat="-11.6906590" lon="166.9626620">
        <ele>324.4</ele>
        <time>2020-04-19T13:30:32Z</time>
      </trkpt>
      <trkpt lat="-11.6906280" lon="166.9626940">
        <ele>324.8</ele>
        <time>2020-04-19T13:30:33Z</time>
      </trkpt>
      <trkpt lat="-11.6905970" lon="166.9627260">
        <ele>325.2</ele>
        <time>2020-04-19T13:30:34Z</time>
      </trkpt>
      <trkpt lat="-11.6905640" lon="166.9627580">
        <ele>325.4</ele>
        <time>2020-04-19T13:30:35Z</time>
      </trkpt>
      <trkpt lat="-11.6905310" lon="166.9628010">
        <ele>325.8</ele>
        <time>2020-04-19T13:30:36Z</time>
      </trkpt>
      <trkpt lat="-11.6905020" lon="166.9628330">
        <ele>326.0</ele>
        <time>2020-04-19T13:30:37Z</time>
      </trkpt>
      <trkpt lat="-11.6904680" lon="166.9628660">
        <ele>326.4</ele>
        <time>2020-04-19T13:30:38Z</time>
      </trkpt>
      <trkpt lat="-11.6904370" lon="166.9628980">
        <ele>326.8</ele>
        <time>2020-04-19T13:30:39Z</time>
      </trkpt>
      <trkpt lat="-11.6904050" lon="166.9629410">
        <ele>327.0</ele>
        <time>2020-04-19T13:30:40Z</time>
      </trkpt>
      <trkpt lat="-11.6903720" lon="166.9629730">
        <ele>327.4</ele>
        <time>2020-04-19T13:30:41Z</time>
      </trkpt>
      <trkpt lat="-11.6903400" lon="166.9630050">
        <ele>327.6</ele>
        <time>2020-04-19T13:30:42Z</time>
      </trkpt>
      <trkpt lat="-11.6903050" lon="166.9630370">
        <ele>328.0</ele>
        <time>2020-04-19T13:30:43Z</time>
      </trkpt>
      <trkpt lat="-11.6902670" lon="166.9630480">
        <ele>328.4</ele>
        <time>2020-04-19T13:30:44Z</time>
      </trkpt>
      <trkpt lat="-11.6902280" lon="166.9630800">
        <ele>328.6</ele>
        <time>2020-04-19T13:30:45Z</time>
      </trkpt>
      <trkpt lat="-11.6901880" lon="166.9630910">
        <ele>329.0</ele>
        <time>2020-04-19T13:30:46Z</time>
      </trkpt>
      <trkpt lat="-11.6901460" lon="166.9630910">
        <ele>329.2</ele>
        <time>2020-04-19T13:30:47Z</time>
      </trkpt>
      <trkpt lat="-11.6901020" lon="166.9631120">
        <ele>329.6</ele>
        <time>2020-04-19T13:30:48Z</time>
      </trkpt>
      <trkpt lat="-11.6900620" lon="166.9630910">
        <ele>329.8</ele>
        <time>2020-04-19T13:30:49Z</time>
      </trkpt>
      <trkpt lat="-11.6900180" lon="166.9630910">
        <ele>330.2</ele>
        <time>2020-04-19T13:30:50Z</time>
      </trkpt>
      <trkpt lat="-11.6899770" lon="166.9630800">
        <ele>330.6</ele>
        <time>2020-04-19T13:30:51Z</time>
      </trkpt>
      <trkpt lat="-11.6899400" lon="166.9630590">
        <ele>330.8</ele>
        <time>2020-04-19T13:30:52Z</time>
      </trkpt>
      <trkpt lat="-11.6899010" lon="166.9630480">
        <ele>331.2</ele>
        <time>2020-04-19T13:30:53Z</time>
      </trkpt>
      <trkpt lat="-11.6898650" lon="166.9630370">
        <ele>331.4</ele>
        <time>2020-04-19T13:30:54Z</time>
      </trkpt>
      <trkpt lat="-11.6898290" lon="166.9630160">
        <ele>331.8</ele>
        <time>2020-04-19T13:30:55Z</time>
      </trkpt>
      <trkpt lat="-11.6897920" lon="166.9629840">
        <ele>332.0</ele>
        <time>2020-04-19T13:30:56Z</time>
      </trkpt>
      <trkpt lat="-11.6897560" lon="166.9629510">
        <ele>332.2</ele>
        <time>2020-04-19T13:30:57Z</time>
      </trkpt>
      <trkpt lat="-11.6897230" lon="166.9629300">
        <ele>332.4</ele>
        <time>2020-04-19T13:30:58Z</time>
      </trkpt>
      <trkpt lat="-11.6896860" lon="166.9628980">
        <ele>332.6</ele>
        <time>2020-04-19T13:30:59Z</time>
      </trkpt>
      <trkpt lat="-11.6896520" lon="166.9628660">
        <ele>332.6</ele>
        <time>2020-04-19T13:31:00Z</time>
      </trkpt>
      <trkpt lat="-11.6896180" lon="166.9628230">
        <ele>332.6</ele>
        <time>2020-04-19T13:31:01Z</time>
      </trkpt>
      <trkpt lat="-11.6895820" lon="166.9627900">
        <ele>332.6</ele>
        <time>2020-04-19T13:31:02Z</time>
      </trkpt>
      <trkpt lat="-11.6895460" lon="166.9627370">
        <ele>332.4</ele>
        <time>2020-04-19T13:31:03Z</time>
      </trkpt>
      <trkpt lat="-11.6895120" lon="166.9626830">
        <ele>332.0</ele>
        <time>2020-04-19T13:31:04Z</time>
      </trkpt>
      <trkpt lat="-11.6894840" lon="166.9626190">
        <ele>331.2</ele>
        <time>2020-04-19T13:31:05Z</time>
      </trkpt>
      <trkpt lat="-11.6894630" lon="166.9625330">
        <ele>330.2</ele>
        <time>2020-04-19T13:31:06Z</time>
      </trkpt>
      <trkpt lat="-11.6894460" lon="166.9624360">
        <ele>328.8</ele>
        <time>2020-04-19T13:31:07Z</time>
      </trkpt>
      <trkpt lat="-11.6894330" lon="166.9623510">
        <ele>327.0</ele>
        <time>2020-04-19T13:31:08Z</time>
      </trkpt>
      <trkpt lat="-11.6894180" lon="166.9622220">
        <ele>325.2</ele>
        <time>2020-04-19T13:31:09Z</time>
      </trkpt>
      <trkpt lat="-11.6893970" lon="166.9621040">
        <ele>323.6</ele>
        <time>2020-04-19T13:31:10Z</time>
      </trkpt>
      <trkpt lat="-11.6893510" lon="166.9619750">
        <ele>322.4</ele>
        <time>2020-04-19T13:31:11Z</time>
      </trkpt>
      <trkpt lat="-11.6892720" lon="166.9618680">
        <ele>322.6</ele>
        <time>2020-04-19T13:31:12Z</time>
      </trkpt>
      <trkpt lat="-11.6891780" lon="166.9617930">
        <ele>323.6</ele>
        <time>2020-04-19T13:31:13Z</time>
      </trkpt>
      <trkpt lat="-11.6890860" lon="166.9617390">
        <ele>325.0</ele>
        <time>2020-04-19T13:31:14Z</time>
      </trkpt>
      <trkpt lat="-11.6889980" lon="166.9616850">
        <ele>326.4</ele>
        <time>2020-04-19T13:31:15Z</time>
      </trkpt>
      <trkpt lat="-11.6889230" lon="166.9616320">
        <ele>327.6</ele>
        <time>2020-04-19T13:31:16Z</time>
      </trkpt>
      <trkpt lat="-11.6888590" lon="166.9615780">
        <ele>328.6</ele>
        <time>2020-04-19T13:31:17Z</time>
      </trkpt>
      <trkpt lat="-11.6888090" lon="166.9615350">
        <ele>329.2</ele>
        <time>2020-04-19T13:31:18Z</time>
      </trkpt>
      <trkpt lat="-11.6887750" lon="166.9614710">
        <ele>329.6</ele>
        <time>2020-04-19T13:31:19Z</time>
      </trkpt>
      <trkpt lat="-11.6887530" lon="166.9614170">
        <ele>329.4</ele>
        <time>2020-04-19T13:31:20Z</time>
      </trkpt>
      <trkpt lat="-11.6887440" lon="166.9613420">
        <ele>328.8</ele>
        <time>2020-04-19T13:31:21Z</time>
      </trkpt>
      <trkpt lat="-11.6887520" lon="166.9612670">
        <ele>328.0</ele>
        <time>2020-04-19T13:31:22Z</time>
      </trkpt>
      <trkpt lat="-11.6887760" lon="166.9611700">
        <ele>326.8</ele>
        <time>2020-04-19T13:31:23Z</time>
      </trkpt>
      <trkpt lat="-11.6888170" lon="166.9610740">
        <ele>325.6</ele>
        <time>2020-04-19T13:31:24Z</time>
      </trkpt>
      <trkpt lat="-11.6888710" lon="166.9609770">
        <ele>324.8</ele>
        <time>2020-04-19T13:31:25Z</time>
      </trkpt>
      <trkpt lat="-11.6889290" lon="166.9608810">
        <ele>324.6</ele>
        <time>2020-04-19T13:31:26Z</time>
      </trkpt>
      <trkpt lat="-11.6889930" lon="166.9608060">
        <ele>324.8</ele>
        <time>2020-04-19T13:31:27Z</time>
      </trkpt>
      <trkpt lat="-11.6890680" lon="166.9607310">
        <ele>325.2</ele>
        <time>2020-04-19T13:31:28Z</time>
      </trkpt>
      <trkpt lat="-11.6891490" lon="166.9606550">
        <ele>325.6</ele>
        <time>2020-04-19T13:31:29Z</time>
      </trkpt>
      <trkpt lat="-11.6892210" lon="166.9605910">
        <ele>326.0</ele>
        <time>2020-04-19T13:31:30Z</time>
      </trkpt>
      <trkpt lat="-11.6892940" lon="166.9605270">
        <ele>326.4</ele>
        <time>2020-04-19T13:31:31Z</time>
      </trkpt>
      <trkpt lat="-11.6893590" lon="166.9604840">
        <ele>327.0</ele>
        <time>2020-04-19T13:31:32Z</time>
      </trkpt>
      <trkpt lat="-11.6894220" lon="166.9604190">
        <ele>327.4</ele>
        <time>2020-04-19T13:31:33Z</time>
      </trkpt>
      <trkpt lat="-11.6894760" lon="166.9603660">
        <ele>327.8</ele>
        <time>2020-04-19T13:31:34Z</time>
      </trkpt>
      <trkpt lat="-11.6895240" lon="166.9603120">
        <ele>328.4</ele>
        <time>2020-04-19T13:31:35Z</time>
      </trkpt>
      <trkpt lat="-11.6895680" lon="166.9602580">
        <ele>329.0</ele>
        <time>2020-04-19T13:31:36Z</time>
      </trkpt>
      <trkpt lat="-11.6896020" lon="166.9601940">
        <ele>329.4</ele>
        <time>2020-04-19T13:31:37Z</time>
      </trkpt>
      <trkpt lat="-11.6896300" lon="166.9601300">
        <ele>329.8</ele>
        <time>2020-04-19T13:31:38Z</time>
      </trkpt>
      <trkpt lat="-11.6896490" lon="166.9600760">
        <ele>330.4</ele>
        <time>2020-04-19T13:31:39Z</time>
      </trkpt>
      <trkpt lat="-11.6896600" lon="166.9600220">
        <ele>330.8</ele>
        <time>2020-04-19T13:31:40Z</time>
      </trkpt>
      <trkpt lat="-11.6896650" lon="166.9599690">
        <ele>331.2</ele>
        <time>2020-04-19T13:31:41Z</time>
      </trkpt>
      <trkpt lat="-11.6896660" lon="166.9599040">
        <ele>331.6</ele>
        <time>2020-04-19T13:31:42Z</time>
      </trkpt>
      <trkpt lat="-11.6896680" lon="166.9598620">
        <ele>332.0</ele>
        <time>2020-04-19T13:31:43Z</time>
      </trkpt>
      <trkpt lat="-11.6896680" lon="166.9597970">
        <ele>332.4</ele>
        <time>2020-04-19T13:31:44Z</time>
      </trkpt>
      <trkpt lat="-11.6896640" lon="166.9597540">
        <ele>332.8</ele>
        <time>2020-04-19T13:31:45Z</time>
      </trkpt>
      <trkpt lat="-11.6896570" lon="166.9597010">
        <ele>333.2</ele>
        <time>2020-04-19T13:31:46Z</time>
      </trkpt>
      <trkpt lat="-11.6896500" lon="166.9596580">
        <ele>333.6</ele>
        <time>2020-04-19T13:31:47Z</time>
      </trkpt>
      <trkpt lat="-11.6896440" lon="166.9596040">
        <ele>334.0</ele>
        <time>2020-04-19T13:31:48Z</time>
      </trkpt>
      <trkpt lat="-11.6896360" lon="166.9595500">
        <ele>334.2</ele>
        <time>2020-04-19T13:31:49Z</time>
      </trkpt>
      <trkpt lat="-11.6896270" lon="166.9595070">
        <ele>334.6</ele>
        <time>2020-04-19T13:31:50Z</time>
      </trkpt>
      <trkpt lat="-11.6896180" lon="166.9594650">
        <ele>335.0</ele>
        <time>2020-04-19T13:31:51Z</time>
      </trkpt>
      <trkpt lat="-11.6896060" lon="166.9594000">
        <ele>335.4</ele>
        <time>2020-04-19T13:31:52Z</time>
      </trkpt>
      <trkpt lat="-11.6895930" lon="166.9593570">
        <ele>335.8</ele>
        <time>2020-04-19T13:31:53Z</time>
      </trkpt>
      <trkpt lat="-11.6895810" lon="166.9593040">
        <ele>336.2</ele>
        <time>2020-04-19T13:31:54Z</time>
      </trkpt>
      <trkpt lat="-11.6895710" lon="166.9592610">
        <ele>336.4</ele>
        <time>2020-04-19T13:31:55Z</time>
      </trkpt>
      <trkpt lat="-11.6895550" lon="166.9592180">
        <ele>336.8</ele>
        <time>2020-04-19T13:31:56Z</time>
      </trkpt>
      <trkpt lat="-11.6895400" lon="166.9591530">
        <ele>337.2</ele>
        <time>2020-04-19T13:31:57Z</time>
      </trkpt>
      <trkpt lat="-11.6895230" lon="166.9591100">
        <ele>337.6</ele>
        <time>2020-04-19T13:31:58Z</time>
      </trkpt>
      <trkpt lat="-11.6895050" lon="166.9590680">
        <ele>338.0</ele>
        <time>2020-04-19T13:31:59Z</time>
      </trkpt>
      <trkpt lat="-11.6894880" lon="166.9590140">
        <ele>338.2</ele>
        <time>2020-04-19T13:32:00Z</time>
      </trkpt>
      <trkpt lat="-11.6894720" lon="166.9589710">
        <ele>338.6</ele>
        <time>2020-04-19T13:32:01Z</time>
      </trkpt>
      <trkpt lat="-11.6894530" lon="166.9589280">
        <ele>338.8</ele>
        <time>2020-04-19T13:32:02Z</time>
      </trkpt>
      <trkpt lat="-11.6894360" lon="166.9588850">
        <ele>339.2</ele>
        <time>2020-04-19T13:32:03Z</time>
      </trkpt>
      <trkpt lat="-11.6894160" lon="166.9588530">
        <ele>339.4</ele>
        <time>2020-04-19T13:32:04Z</time>
      </trkpt>
      <trkpt lat="-11.6893970" lon="166.9588100">
        <ele>339.8</ele>
        <time>2020-04-19T13:32:05Z</time>
      </trkpt>
      <trkpt lat="-11.6893770" lon="166.9587560">
        <ele>340.0</ele>
        <time>2020-04-19T13:32:06Z</time>
      </trkpt>
      <trkpt lat="-11.6893570" lon="166.9587140">
        <ele>340.4</ele>
        <time>2020-04-19T13:32:07Z</time>
      </trkpt>
      <trkpt lat="-11.6893360" lon="166.9586810">
        <ele>340.6</ele>
        <time>2020-04-19T13:32:08Z</time>
      </trkpt>
      <trkpt lat="-11.6893140" lon="166.9586380">
        <ele>340.8</ele>
        <time>2020-04-19T13:32:09Z</time>
      </trkpt>
      <trkpt lat="-11.6892880" lon="166.9585960">
        <ele>341.0</ele>
        <time>2020-04-19T13:32:10Z</time>
      </trkpt>
      <trkpt lat="-11.6892630" lon="166.9585630">
        <ele>341.2</ele>
        <time>2020-04-19T13:32:11Z</time>
      </trkpt>
      <trkpt lat="-11.6892350" lon="166.9585200">
        <ele>341.4</ele>
        <time>2020-04-19T13:32:12Z</time>
      </trkpt>
      <trkpt lat="-11.6892050" lon="166.9584880">
        <ele>341.6</ele>
        <time>2020-04-19T13:32:13Z</time>
      </trkpt>
      <trkpt lat="-11.6891760" lon="166.9584560">
        <ele>341.8</ele>
        <time>2020-04-19T13:32:14Z</time>
      </trkpt>
      <trkpt lat="-11.6891420" lon="166.9584130">
        <ele>342.0</ele>
        <time>2020-04-19T13:32:15Z</time>
      </trkpt>
      <trkpt lat="-11.6891080" lon="166.9583810">
        <ele>342.2</ele>
        <time>2020-04-19T13:32:16Z</time>
      </trkpt>
      <trkpt lat="-11.6890710" lon="166.9583270">
        <ele>342.2</ele>
        <time>2020-04-19T13:32:17Z</time>
      </trkpt>
      <trkpt lat="-11.6890330" lon="166.9583060">
        <ele>342.4</ele>
        <time>2020-04-19T13:32:18Z</time>
      </trkpt>
      <trkpt lat="-11.6889900" lon="166.9582520">
        <ele>342.4</ele>
        <time>2020-04-19T13:32:19Z</time>
      </trkpt>
      <trkpt lat="-11.6889490" lon="166.9582310">
        <ele>342.6</ele>
        <time>2020-04-19T13:32:20Z</time>
      </trkpt>
      <trkpt lat="-11.6889010" lon="166.9581990">
        <ele>342.6</ele>
        <time>2020-04-19T13:32:21Z</time>
      </trkpt>
      <trkpt lat="-11.6888520" lon="166.9581450">
        <ele>342.6</ele>
        <time>2020-04-19T13:32:22Z</time>
      </trkpt>
      <trkpt lat="-11.6888030" lon="166.9581230">
        <ele>342.8</ele>
        <time>2020-04-19T13:32:23Z</time>
      </trkpt>
      <trkpt lat="-11.6887500" lon="166.9580910">
        <ele>342.8</ele>
        <time>2020-04-19T13:32:24Z</time>
      </trkpt>
      <trkpt lat="-11.6886970" lon="166.9580590">
        <ele>342.8</ele>
        <time>2020-04-19T13:32:25Z</time>
      </trkpt>
      <trkpt lat="-11.6886390" lon="166.9580160">
        <ele>342.8</ele>
        <time>2020-04-19T13:32:26Z</time>
      </trkpt>
      <trkpt lat="-11.6885770" lon="166.9579840">
        <ele>342.8</ele>
        <time>2020-04-19T13:32:27Z</time>
      </trkpt>
      <trkpt lat="-11.6885180" lon="166.9579520">
        <ele>342.8</ele>
        <time>2020-04-19T13:32:28Z</time>
      </trkpt>
      <trkpt lat="-11.6884530" lon="166.9579200">
        <ele>342.8</ele>
        <time>2020-04-19T13:32:29Z</time>
      </trkpt>
      <trkpt lat="-11.6883860" lon="166.9578870">
        <ele>342.8</ele>
        <time>2020-04-19T13:32:30Z</time>
      </trkpt>
      <trkpt lat="-11.6883190" lon="166.9578770">
        <ele>342.8</ele>
        <time>2020-04-19T13:32:31Z</time>
      </trkpt>
      <trkpt lat="-11.6882450" lon="166.9578440">
        <ele>342.8</ele>
        <time>2020-04-19T13:32:32Z</time>
      </trkpt>
      <trkpt lat="-11.6881710" lon="166.9578340">
        <ele>342.8</ele>
        <time>2020-04-19T13:32:33Z</time>
      </trkpt>
      <trkpt lat="-11.6880960" lon="166.9578120">
        <ele>342.8</ele>
        <time>2020-04-19T13:32:34Z</time>
      </trkpt>
      <trkpt lat="-11.6880170" lon="166.9578020">
        <ele>342.8</ele>
        <time>2020-04-19T13:32:35Z</time>
      </trkpt>
      <trkpt lat="-11.6879380" lon="166.9578020">
        <ele>342.8</ele>
        <time>2020-04-19T13:32:36Z</time>
      </trkpt>
      <trkpt lat="-11.6878590" lon="166.9578020">
        <ele>342.8</ele>
        <time>2020-04-19T13:32:37Z</time>
      </trkpt>
      <trkpt lat="-11.6877780" lon="166.9578120">
        <ele>342.8</ele>
        <time>2020-04-19T13:32:38Z</time>
      </trkpt>
      <trkpt lat="-11.6876990" lon="166.9578340">
        <ele>342.8</ele>
        <time>2020-04-19T13:32:39Z</time>
      </trkpt>
      <trkpt lat="-11.6876180" lon="166.9578550">
        <ele>342.8</ele>
        <time>2020-04-19T13:32:40Z</time>
      </trkpt>
      <trkpt lat="-11.6875420" lon="166.9578770">
        <ele>342.8</ele>
        <time>2020-04-19T13:32:41Z</time>
      </trkpt>
      <trkpt lat="-11.6874590" lon="166.9579090">
        <ele>342.8</ele>
        <time>2020-04-19T13:32:42Z</time>
      </trkpt>
      <trkpt lat="-11.6873800" lon="166.9579200">
        <ele>342.6</ele>
        <time>2020-04-19T13:32:43Z</time>
      </trkpt>
      <trkpt lat="-11.6872970" lon="166.9579520">
        <ele>342.4</ele>
        <time>2020-04-19T13:32:44Z</time>
      </trkpt>
      <trkpt lat="-11.6872110" lon="166.9579840">
        <ele>342.2</ele>
        <time>2020-04-19T13:32:45Z</time>
      </trkpt>
      <trkpt lat="-11.6871210" lon="166.9579950">
        <ele>341.8</ele>
        <time>2020-04-19T13:32:46Z</time>
      </trkpt>
      <trkpt lat="-11.6870230" lon="166.9580160">
        <ele>341.2</ele>
        <time>2020-04-19T13:32:47Z</time>
      </trkpt>
      <trkpt lat="-11.6869260" lon="166.9580160">
        <ele>340.8</ele>
        <time>2020-04-19T13:32:48Z</time>
      </trkpt>
      <trkpt lat="-11.6868220" lon="166.9580160">
        <ele>340.0</ele>
        <time>2020-04-19T13:32:49Z</time>
      </trkpt>
      <trkpt lat="-11.6867130" lon="166.9580160">
        <ele>339.2</ele>
        <time>2020-04-19T13:32:50Z</time>
      </trkpt>
      <trkpt lat="-11.6866070" lon="166.9580160">
        <ele>338.4</ele>
        <time>2020-04-19T13:32:51Z</time>
      </trkpt>
      <trkpt lat="-11.6864880" lon="166.9579950">
        <ele>337.6</ele>
        <time>2020-04-19T13:32:52Z</time>
      </trkpt>
      <trkpt lat="-11.6863710" lon="166.9579840">
        <ele>336.6</ele>
        <time>2020-04-19T13:32:53Z</time>
      </trkpt>
      <trkpt lat="-11.6862490" lon="166.9579630">
        <ele>335.4</ele>
        <time>2020-04-19T13:32:54Z</time>
      </trkpt>
      <trkpt lat="-11.6861200" lon="166.9579630">
        <ele>334.2</ele>
        <time>2020-04-19T13:32:55Z</time>
      </trkpt>
      <trkpt lat="-11.6859920" lon="166.9579520">
        <ele>333.0</ele>
        <time>2020-04-19T13:32:56Z</time>
      </trkpt>
      <trkpt lat="-11.6858550" lon="166.9579300">
        <ele>331.8</ele>
        <time>2020-04-19T13:32:57Z</time>
      </trkpt>
      <trkpt lat="-11.6857180" lon="166.9579200">
        <ele>330.4</ele>
        <time>2020-04-19T13:32:58Z</time>
      </trkpt>
      <trkpt lat="-11.6855770" lon="166.9579200">
        <ele>329.0</ele>
        <time>2020-04-19T13:32:59Z</time>
      </trkpt>
      <trkpt lat="-11.6854310" lon="166.9579200">
        <ele>327.6</ele>
        <time>2020-04-19T13:33:00Z</time>
      </trkpt>
      <trkpt lat="-11.6852880" lon="166.9579520">
        <ele>326.0</ele>
        <time>2020-04-19T13:33:01Z</time>
      </trkpt>
      <trkpt lat="-11.6851410" lon="166.9579840">
        <ele>324.6</ele>
        <time>2020-04-19T13:33:02Z</time>
      </trkpt>
      <trkpt lat="-11.6850100" lon="166.9580700">
        <ele>323.0</ele>
        <time>2020-04-19T13:33:03Z</time>
      </trkpt>
      <trkpt lat="-11.6849070" lon="166.9581770">
        <ele>321.4</ele>
        <time>2020-04-19T13:33:04Z</time>
      </trkpt>
      <trkpt lat="-11.6848280" lon="166.9583270">
        <ele>319.8</ele>
        <time>2020-04-19T13:33:05Z</time>
      </trkpt>
      <trkpt lat="-11.6847670" lon="166.9584670">
        <ele>318.4</ele>
        <time>2020-04-19T13:33:06Z</time>
      </trkpt>
      <trkpt lat="-11.6847120" lon="166.9586170">
        <ele>317.2</ele>
        <time>2020-04-19T13:33:07Z</time>
      </trkpt>
      <trkpt lat="-11.6846560" lon="166.9587890">
        <ele>316.0</ele>
        <time>2020-04-19T13:33:08Z</time>
      </trkpt>
      <trkpt lat="-11.6845840" lon="166.9589390">
        <ele>315.0</ele>
        <time>2020-04-19T13:33:09Z</time>
      </trkpt>
      <trkpt lat="-11.6844760" lon="166.9590680">
        <ele>314.2</ele>
        <time>2020-04-19T13:33:10Z</time>
      </trkpt>
      <trkpt lat="-11.6843350" lon="166.9591430">
        <ele>314.2</ele>
        <time>2020-04-19T13:33:11Z</time>
      </trkpt>
      <trkpt lat="-11.6841770" lon="166.9591750">
        <ele>314.6</ele>
        <time>2020-04-19T13:33:12Z</time>
      </trkpt>
      <trkpt lat="-11.6840240" lon="166.9591750">
        <ele>315.2</ele>
        <time>2020-04-19T13:33:13Z</time>
      </trkpt>
      <trkpt lat="-11.6838840" lon="166.9591430">
        <ele>316.0</ele>
        <time>2020-04-19T13:33:14Z</time>
      </trkpt>
      <trkpt lat="-11.6837470" lon="166.9591210">
        <ele>317.0</ele>
        <time>2020-04-19T13:33:15Z</time>
      </trkpt>
      <trkpt lat="-11.6836190" lon="166.9591000">
        <ele>318.0</ele>
        <time>2020-04-19T13:33:16Z</time>
      </trkpt>
      <trkpt lat="-11.6834990" lon="166.9590780">
        <ele>318.8</ele>
        <time>2020-04-19T13:33:17Z</time>
      </trkpt>
      <trkpt lat="-11.6833860" lon="166.9590680">
        <ele>319.8</ele>
        <time>2020-04-19T13:33:18Z</time>
      </trkpt>
      <trkpt lat="-11.6832670" lon="166.9590680">
        <ele>320.6</ele>
        <time>2020-04-19T13:33:19Z</time>
      </trkpt>
      <trkpt lat="-11.6831670" lon="166.9590780">
        <ele>321.4</ele>
        <time>2020-04-19T13:33:20Z</time>
      </trkpt>
      <trkpt lat="-11.6830730" lon="166.9591100">
        <ele>322.0</ele>
        <time>2020-04-19T13:33:21Z</time>
      </trkpt>
      <trkpt lat="-11.6829760" lon="166.9591210">
        <ele>322.8</ele>
        <time>2020-04-19T13:33:22Z</time>
      </trkpt>
      <trkpt lat="-11.6828910" lon="166.9591530">
        <ele>323.4</ele>
        <time>2020-04-19T13:33:23Z</time>
      </trkpt>
      <trkpt lat="-11.6828050" lon="166.9591860">
        <ele>324.0</ele>
        <time>2020-04-19T13:33:24Z</time>
      </trkpt>
      <trkpt lat="-11.6827220" lon="166.9592290">
        <ele>324.6</ele>
        <time>2020-04-19T13:33:25Z</time>
      </trkpt>
      <trkpt lat="-11.6826460" lon="166.9592610">
        <ele>325.2</ele>
        <time>2020-04-19T13:33:26Z</time>
      </trkpt>
      <trkpt lat="-11.6825730" lon="166.9592930">
        <ele>325.8</ele>
        <time>2020-04-19T13:33:27Z</time>
      </trkpt>
      <trkpt lat="-11.6824990" lon="166.9593360">
        <ele>326.4</ele>
        <time>2020-04-19T13:33:28Z</time>
      </trkpt>
      <trkpt lat="-11.6824340" lon="166.9593680">
        <ele>327.0</ele>
        <time>2020-04-19T13:33:29Z</time>
      </trkpt>
      <trkpt lat="-11.6823750" lon="166.9594110">
        <ele>327.6</ele>
        <time>2020-04-19T13:33:30Z</time>
      </trkpt>
      <trkpt lat="-11.6823160" lon="166.9594430">
        <ele>328.0</ele>
        <time>2020-04-19T13:33:31Z</time>
      </trkpt>
      <trkpt lat="-11.6822650" lon="166.9594970">
        <ele>328.6</ele>
        <time>2020-04-19T13:33:32Z</time>
      </trkpt>
      <trkpt lat="-11.6822190" lon="166.9595400">
        <ele>329.0</ele>
        <time>2020-04-19T13:33:33Z</time>
      </trkpt>
      <trkpt lat="-11.6821760" lon="166.9595720">
        <ele>329.6</ele>
        <time>2020-04-19T13:33:34Z</time>
      </trkpt>
      <trkpt lat="-11.6821350" lon="166.9596150">
        <ele>330.0</ele>
        <time>2020-04-19T13:33:35Z</time>
      </trkpt>
      <trkpt lat="-11.6820990" lon="166.9596580">
        <ele>330.4</ele>
        <time>2020-04-19T13:33:36Z</time>
      </trkpt>
      <trkpt lat="-11.6820680" lon="166.9596900">
        <ele>330.8</ele>
        <time>2020-04-19T13:33:37Z</time>
      </trkpt>
      <trkpt lat="-11.6820380" lon="166.9597330">
        <ele>331.2</ele>
        <time>2020-04-19T13:33:38Z</time>
      </trkpt>
      <trkpt lat="-11.6820090" lon="166.9597860">
        <ele>331.6</ele>
        <time>2020-04-19T13:33:39Z</time>
      </trkpt>
      <trkpt lat="-11.6819870" lon="166.9598080">
        <ele>332.0</ele>
        <time>2020-04-19T13:33:40Z</time>
      </trkpt>
      <trkpt lat="-11.6819660" lon="166.9598620">
        <ele>332.4</ele>
        <time>2020-04-19T13:33:41Z</time>
      </trkpt>
      <trkpt lat="-11.6819430" lon="166.9599040">
        <ele>332.6</ele>
        <time>2020-04-19T13:33:42Z</time>
      </trkpt>
      <trkpt lat="-11.6819210" lon="166.9599370">
        <ele>333.0</ele>
        <time>2020-04-19T13:33:43Z</time>
      </trkpt>
      <trkpt lat="-11.6819010" lon="166.9599800">
        <ele>333.4</ele>
        <time>2020-04-19T13:33:44Z</time>
      </trkpt>
      <trkpt lat="-11.6818870" lon="166.9600120">
        <ele>333.6</ele>
        <time>2020-04-19T13:33:45Z</time>
      </trkpt>
      <trkpt lat="-11.6818710" lon="166.9600550">
        <ele>334.0</ele>
        <time>2020-04-19T13:33:46Z</time>
      </trkpt>
      <trkpt lat="-11.6818580" lon="166.9600980">
        <ele>334.4</ele>
        <time>2020-04-19T13:33:47Z</time>
      </trkpt>
      <trkpt lat="-11.6818460" lon="166.9601510">
        <ele>334.6</ele>
        <time>2020-04-19T13:33:48Z</time>
      </trkpt>
      <trkpt lat="-11.6818260" lon="166.9601830">
        <ele>335.0</ele>
        <time>2020-04-19T13:33:49Z</time>
      </trkpt>
      <trkpt lat="-11.6818070" lon="166.9602260">
        <ele>335.2</ele>
        <time>2020-04-19T13:33:50Z</time>
      </trkpt>
      <trkpt lat="-11.6817930" lon="166.9602690">
        <ele>335.6</ele>
        <time>2020-04-19T13:33:51Z</time>
      </trkpt>
      <trkpt lat="-11.6817810" lon="166.9603010">
        <ele>336.0</ele>
        <time>2020-04-19T13:33:52Z</time>
      </trkpt>
      <trkpt lat="-11.6817730" lon="166.9603440">
        <ele>336.2</ele>
        <time>2020-04-19T13:33:53Z</time>
      </trkpt>
      <trkpt lat="-11.6817630" lon="166.9603870">
        <ele>336.6</ele>
        <time>2020-04-19T13:33:54Z</time>
      </trkpt>
      <trkpt lat="-11.6817500" lon="166.9604410">
        <ele>336.8</ele>
        <time>2020-04-19T13:33:55Z</time>
      </trkpt>
      <trkpt lat="-11.6817350" lon="166.9604730">
        <ele>337.2</ele>
        <time>2020-04-19T13:33:56Z</time>
      </trkpt>
      <trkpt lat="-11.6817240" lon="166.9605160">
        <ele>337.4</ele>
        <time>2020-04-19T13:33:57Z</time>
      </trkpt>
      <trkpt lat="-11.6817150" lon="166.9605590">
        <ele>337.8</ele>
        <time>2020-04-19T13:33:58Z</time>
      </trkpt>
      <trkpt lat="-11.6817070" lon="166.9606020">
        <ele>338.0</ele>
        <time>2020-04-19T13:33:59Z</time>
      </trkpt>
      <trkpt lat="-11.6816980" lon="166.9606340">
        <ele>338.4</ele>
        <time>2020-04-19T13:34:00Z</time>
      </trkpt>
      <trkpt lat="-11.6816880" lon="166.9606770">
        <ele>338.8</ele>
        <time>2020-04-19T13:34:01Z</time>
      </trkpt>
      <trkpt lat="-11.6816770" lon="166.9607310">
        <ele>339.0</ele>
        <time>2020-04-19T13:34:02Z</time>
      </trkpt>
      <trkpt lat="-11.6816680" lon="166.9607730">
        <ele>339.4</ele>
        <time>2020-04-19T13:34:03Z</time>
      </trkpt>
      <trkpt lat="-11.6816640" lon="166.9608060">
        <ele>339.8</ele>
        <time>2020-04-19T13:34:04Z</time>
      </trkpt>
      <trkpt lat="-11.6816600" lon="166.9608490">
        <ele>340.0</ele>
        <time>2020-04-19T13:34:05Z</time>
      </trkpt>
      <trkpt lat="-11.6816610" lon="166.9608910">
        <ele>340.4</ele>
        <time>2020-04-19T13:34:06Z</time>
      </trkpt>
      <trkpt lat="-11.6816650" lon="166.9609240">
        <ele>340.6</ele>
        <time>2020-04-19T13:34:07Z</time>
      </trkpt>
      <trkpt lat="-11.6816710" lon="166.9609770">
        <ele>341.0</ele>
        <time>2020-04-19T13:34:08Z</time>
      </trkpt>
      <trkpt lat="-11.6816770" lon="166.9610200">
        <ele>341.2</ele>
        <time>2020-04-19T13:34:09Z</time>
      </trkpt>
      <trkpt lat="-11.6816840" lon="166.9610630">
        <ele>341.6</ele>
        <time>2020-04-19T13:34:10Z</time>
      </trkpt>
      <trkpt lat="-11.6816890" lon="166.9610950">
        <ele>341.8</ele>
        <time>2020-04-19T13:34:11Z</time>
      </trkpt>
      <trkpt lat="-11.6816950" lon="166.9611380">
        <ele>342.0</ele>
        <time>2020-04-19T13:34:12Z</time>
      </trkpt>
      <trkpt lat="-11.6817020" lon="166.9611810">
        <ele>342.4</ele>
        <time>2020-04-19T13:34:13Z</time>
      </trkpt>
      <trkpt lat="-11.6817060" lon="166.9612130">
        <ele>342.6</ele>
        <time>2020-04-19T13:34:14Z</time>
      </trkpt>
      <trkpt lat="-11.6817080" lon="166.9612670">
        <ele>342.8</ele>
        <time>2020-04-19T13:34:15Z</time>
      </trkpt>
      <trkpt lat="-11.6817060" lon="166.9613100">
        <ele>343.2</ele>
        <time>2020-04-19T13:34:16Z</time>
      </trkpt>
      <trkpt lat="-11.6816990" lon="166.9613420">
        <ele>343.4</ele>
        <time>2020-04-19T13:34:17Z</time>
      </trkpt>
      <trkpt lat="-11.6816850" lon="166.9613850">
        <ele>343.8</ele>
        <time>2020-04-19T13:34:18Z</time>
      </trkpt>
      <trkpt lat="-11.6816710" lon="166.9614170">
        <ele>344.0</ele>
        <time>2020-04-19T13:34:19Z</time>
      </trkpt>
      <trkpt lat="-11.6816550" lon="166.9614490">
        <ele>344.2</ele>
        <time>2020-04-19T13:34:20Z</time>
      </trkpt>
      <trkpt lat="-11.6816340" lon="166.9614710">
        <ele>344.6</ele>
        <time>2020-04-19T13:34:21Z</time>
      </trkpt>
      <trkpt lat="-11.6816130" lon="166.9615240">
        <ele>344.8</ele>
        <time>2020-04-19T13:34:22Z</time>
      </trkpt>
      <trkpt lat="-11.6815890" lon="166.9615570">
        <ele>345.0</ele>
        <time>2020-04-19T13:34:23Z</time>
      </trkpt>
      <trkpt lat="-11.6815620" lon="166.9615780">
        <ele>345.4</ele>
        <time>2020-04-19T13:34:24Z</time>
      </trkpt>
      <trkpt lat="-11.6815370" lon="166.9616100">
        <ele>345.6</ele>
        <time>2020-04-19T13:34:25Z</time>
      </trkpt>
      <trkpt lat="-11.6815070" lon="166.9616320">
        <ele>345.8</ele>
        <time>2020-04-19T13:34:26Z</time>
      </trkpt>
      <trkpt lat="-11.6814780" lon="166.9616640">
        <ele>346.0</ele>
        <time>2020-04-19T13:34:27Z</time>
      </trkpt>
      <trkpt lat="-11.6814470" lon="166.9616850">
        <ele>346.2</ele>
        <time>2020-04-19T13:34:28Z</time>
      </trkpt>
      <trkpt lat="-11.6814150" lon="166.9617180">
        <ele>346.6</ele>
        <time>2020-04-19T13:34:29Z</time>
      </trkpt>
      <trkpt lat="-11.6813810" lon="166.9617390">
        <ele>346.8</ele>
        <time>2020-04-19T13:34:30Z</time>
      </trkpt>
      <trkpt lat="-11.6813470" lon="166.9617610">
        <ele>347.0</ele>
        <time>2020-04-19T13:34:31Z</time>
      </trkpt>
      <trkpt lat="-11.6813130" lon="166.9617820">
        <ele>347.2</ele>
        <time>2020-04-19T13:34:32Z</time>
      </trkpt>
      <trkpt lat="-11.6812750" lon="166.9617930">
        <ele>347.4</ele>
        <time>2020-04-19T13:34:33Z</time>
      </trkpt>
      <trkpt lat="-11.6812390" lon="166.9618140">
        <ele>347.8</ele>
        <time>2020-04-19T13:34:34Z</time>
      </trkpt>
      <trkpt lat="-11.6812030" lon="166.9618250">
        <ele>348.0</ele>
        <time>2020-04-19T13:34:35Z</time>
      </trkpt>
      <trkpt lat="-11.6811650" lon="166.9618460">
        <ele>348.2</ele>
        <time>2020-04-19T13:34:36Z</time>
      </trkpt>
      <trkpt lat="-11.6811260" lon="166.9618570">
        <ele>348.6</ele>
        <time>2020-04-19T13:34:37Z</time>
      </trkpt>
      <trkpt lat="-11.6810900" lon="166.9618680">
        <ele>348.8</ele>
        <time>2020-04-19T13:34:38Z</time>
      </trkpt>
      <trkpt lat="-11.6810510" lon="166.9618680">
        <ele>349.0</ele>
        <time>2020-04-19T13:34:39Z</time>
      </trkpt>
      <trkpt lat="-11.6810120" lon="166.9618890">
        <ele>349.4</ele>
        <time>2020-04-19T13:34:40Z</time>
      </trkpt>
      <trkpt lat="-11.6809730" lon="166.9618890">
        <ele>349.6</ele>
        <time>2020-04-19T13:34:41Z</time>
      </trkpt>
      <trkpt lat="-11.6809340" lon="166.9618890">
        <ele>349.8</ele>
        <time>2020-04-19T13:34:42Z</time>
      </trkpt>
      <trkpt lat="-11.6808930" lon="166.9618890">
        <ele>350.0</ele>
        <time>2020-04-19T13:34:43Z</time>
      </trkpt>
      <trkpt lat="-11.6808530" lon="166.9618890">
        <ele>350.4</ele>
        <time>2020-04-19T13:34:44Z</time>
      </trkpt>
      <trkpt lat="-11.6808140" lon="166.9618890">
        <ele>350.6</ele>
        <time>2020-04-19T13:34:45Z</time>
      </trkpt>
      <trkpt lat="-11.6807710" lon="166.9618890">
        <ele>351.0</ele>
        <time>2020-04-19T13:34:46Z</time>
      </trkpt>
      <trkpt lat="-11.6807310" lon="166.9618890">
        <ele>351.2</ele>
        <time>2020-04-19T13:34:47Z</time>
      </trkpt>
      <trkpt lat="-11.6806890" lon="166.9618890">
        <ele>351.4</ele>
        <time>2020-04-19T13:34:48Z</time>
      </trkpt>
      <trkpt lat="-11.6806470" lon="166.9618680">
        <ele>351.6</ele>
        <time>2020-04-19T13:34:49Z</time>
      </trkpt>
      <trkpt lat="-11.6806060" lon="166.9618680">
        <ele>352.0</ele>
        <time>2020-04-19T13:34:50Z</time>
      </trkpt>
      <trkpt lat="-11.6805620" lon="166.9618680">
        <ele>352.2</ele>
        <time>2020-04-19T13:34:51Z</time>
      </trkpt>
      <trkpt lat="-11.6805200" lon="166.9618570">
        <ele>352.6</ele>
        <time>2020-04-19T13:34:52Z</time>
      </trkpt>
      <trkpt lat="-11.6804800" lon="166.9618570">
        <ele>352.8</ele>
        <time>2020-04-19T13:34:53Z</time>
      </trkpt>
      <trkpt lat="-11.6804370" lon="166.9618460">
        <ele>353.0</ele>
        <time>2020-04-19T13:34:54Z</time>
      </trkpt>
      <trkpt lat="-11.6803970" lon="166.9618460">
        <ele>353.4</ele>
        <time>2020-04-19T13:34:55Z</time>
      </trkpt>
      <trkpt lat="-11.6803540" lon="166.9618250">
        <ele>353.6</ele>
        <time>2020-04-19T13:34:56Z</time>
      </trkpt>
      <trkpt lat="-11.6803120" lon="166.9618250">
        <ele>353.8</ele>
        <time>2020-04-19T13:34:57Z</time>
      </trkpt>
      <trkpt lat="-11.6802720" lon="166.9618250">
        <ele>354.2</ele>
        <time>2020-04-19T13:34:58Z</time>
      </trkpt>
      <trkpt lat="-11.6802290" lon="166.9618250">
        <ele>354.4</ele>
        <time>2020-04-19T13:34:59Z</time>
      </trkpt>
      <trkpt lat="-11.6801870" lon="166.9618250">
        <ele>354.6</ele>
        <time>2020-04-19T13:35:00Z</time>
      </trkpt>
      <trkpt lat="-11.6801460" lon="166.9618250">
        <ele>355.0</ele>
        <time>2020-04-19T13:35:01Z</time>
      </trkpt>
      <trkpt lat="-11.6801070" lon="166.9618250">
        <ele>355.2</ele>
        <time>2020-04-19T13:35:02Z</time>
      </trkpt>
      <trkpt lat="-11.6800670" lon="166.9618250">
        <ele>355.4</ele>
        <time>2020-04-19T13:35:03Z</time>
      </trkpt>
      <trkpt lat="-11.6800280" lon="166.9618460">
        <ele>355.8</ele>
        <time>2020-04-19T13:35:04Z</time>
      </trkpt>
      <trkpt lat="-11.6799880" lon="166.9618460">
        <ele>356.0</ele>
        <time>2020-04-19T13:35:05Z</time>
      </trkpt>
      <trkpt lat="-11.6799490" lon="166.9618570">
        <ele>356.2</ele>
        <time>2020-04-19T13:35:06Z</time>
      </trkpt>
      <trkpt lat="-11.6799060" lon="166.9618680">
        <ele>356.6</ele>
        <time>2020-04-19T13:35:07Z</time>
      </trkpt>
      <trkpt lat="-11.6798660" lon="166.9618890">
        <ele>356.8</ele>
        <time>2020-04-19T13:35:08Z</time>
      </trkpt>
      <trkpt lat="-11.6798230" lon="166.9618890">
        <ele>357.0</ele>
        <time>2020-04-19T13:35:09Z</time>
      </trkpt>
      <trkpt lat="-11.6797810" lon="166.9619000">
        <ele>357.2</ele>
        <time>2020-04-19T13:35:10Z</time>
      </trkpt>
      <trkpt lat="-11.6797400" lon="166.9619210">
        <ele>357.6</ele>
        <time>2020-04-19T13:35:11Z</time>
      </trkpt>
      <trkpt lat="-11.6796970" lon="166.9619320">
        <ele>357.8</ele>
        <time>2020-04-19T13:35:12Z</time>
      </trkpt>
      <trkpt lat="-11.6796540" lon="166.9619640">
        <ele>358.0</ele>
        <time>2020-04-19T13:35:13Z</time>
      </trkpt>
      <trkpt lat="-11.6796090" lon="166.9619750">
        <ele>358.4</ele>
        <time>2020-04-19T13:35:14Z</time>
      </trkpt>
      <trkpt lat="-11.6795670" lon="166.9619970">
        <ele>358.6</ele>
        <time>2020-04-19T13:35:15Z</time>
      </trkpt>
      <trkpt lat="-11.6795240" lon="166.9620070">
        <ele>358.8</ele>
        <time>2020-04-19T13:35:16Z</time>
      </trkpt>
      <trkpt lat="-11.6794790" lon="166.9620290">
        <ele>359.2</ele>
        <time>2020-04-19T13:35:17Z</time>
      </trkpt>
      <trkpt lat="-11.6794360" lon="166.9620390">
        <ele>359.4</ele>
        <time>2020-04-19T13:35:18Z</time>
      </trkpt>
      <trkpt lat="-11.6793920" lon="166.9620500">
        <ele>359.6</ele>
        <time>2020-04-19T13:35:19Z</time>
      </trkpt>
      <trkpt lat="-11.6793480" lon="166.9620720">
        <ele>360.0</ele>
        <time>2020-04-19T13:35:20Z</time>
      </trkpt>
      <trkpt lat="-11.6793020" lon="166.9620820">
        <ele>360.2</ele>
        <time>2020-04-19T13:35:21Z</time>
      </trkpt>
      <trkpt lat="-11.6792580" lon="166.9621040">
        <ele>360.4</ele>
        <time>2020-04-19T13:35:22Z</time>
      </trkpt>
      <trkpt lat="-11.6792150" lon="166.9621040">
        <ele>360.8</ele>
        <time>2020-04-19T13:35:23Z</time>
      </trkpt>
      <trkpt lat="-11.6791670" lon="166.9621040">
        <ele>361.0</ele>
        <time>2020-04-19T13:35:24Z</time>
      </trkpt>
      <trkpt lat="-11.6791230" lon="166.9621040">
        <ele>361.4</ele>
        <time>2020-04-19T13:35:25Z</time>
      </trkpt>
      <trkpt lat="-11.6790820" lon="166.9621040">
        <ele>361.6</ele>
        <time>2020-04-19T13:35:26Z</time>
      </trkpt>
      <trkpt lat="-11.6790390" lon="166.9621040">
        <ele>361.8</ele>
        <time>2020-04-19T13:35:27Z</time>
      </trkpt>
      <trkpt lat="-11.6789990" lon="166.9621040">
        <ele>362.0</ele>
        <time>2020-04-19T13:35:28Z</time>
      </trkpt>
      <trkpt lat="-11.6789580" lon="166.9621040">
        <ele>362.4</ele>
        <time>2020-04-19T13:35:29Z</time>
      </trkpt>
      <trkpt lat="-11.6789170" lon="166.9620820">
        <ele>362.6</ele>
        <time>2020-04-19T13:35:30Z</time>
      </trkpt>
      <trkpt lat="-11.6788790" lon="166.9620720">
        <ele>363.0</ele>
        <time>2020-04-19T13:35:31Z</time>
      </trkpt>
      <trkpt lat="-11.6788400" lon="166.9620500">
        <ele>363.2</ele>
        <time>2020-04-19T13:35:32Z</time>
      </trkpt>
      <trkpt lat="-11.6788030" lon="166.9620290">
        <ele>363.4</ele>
        <time>2020-04-19T13:35:33Z</time>
      </trkpt>
      <trkpt lat="-11.6787660" lon="166.9620070">
        <ele>363.8</ele>
        <time>2020-04-19T13:35:34Z</time>
      </trkpt>
      <trkpt lat="-11.6787280" lon="166.9619750">
        <ele>364.0</ele>
        <time>2020-04-19T13:35:35Z</time>
      </trkpt>
      <trkpt lat="-11.6786930" lon="166.9619640">
        <ele>364.4</ele>
        <time>2020-04-19T13:35:36Z</time>
      </trkpt>
      <trkpt lat="-11.6786600" lon="166.9619320">
        <ele>364.6</ele>
        <time>2020-04-19T13:35:37Z</time>
      </trkpt>
      <trkpt lat="-11.6786250" lon="166.9619210">
        <ele>365.0</ele>
        <time>2020-04-19T13:35:38Z</time>
      </trkpt>
      <trkpt lat="-11.6785920" lon="166.9618890">
        <ele>365.2</ele>
        <time>2020-04-19T13:35:39Z</time>
      </trkpt>
      <trkpt lat="-11.6785580" lon="166.9618570">
        <ele>365.4</ele>
        <time>2020-04-19T13:35:40Z</time>
      </trkpt>
      <trkpt lat="-11.6785240" lon="166.9618250">
        <ele>365.8</ele>
        <time>2020-04-19T13:35:41Z</time>
      </trkpt>
      <trkpt lat="-11.6784920" lon="166.9617930">
        <ele>366.0</ele>
        <time>2020-04-19T13:35:42Z</time>
      </trkpt>
      <trkpt lat="-11.6784600" lon="166.9617610">
        <ele>366.4</ele>
        <time>2020-04-19T13:35:43Z</time>
      </trkpt>
      <trkpt lat="-11.6784270" lon="166.9617390">
        <ele>366.6</ele>
        <time>2020-04-19T13:35:44Z</time>
      </trkpt>
      <trkpt lat="-11.6783970" lon="166.9617070">
        <ele>367.0</ele>
        <time>2020-04-19T13:35:45Z</time>
      </trkpt>
      <trkpt lat="-11.6783640" lon="166.9616640">
        <ele>367.2</ele>
        <time>2020-04-19T13:35:46Z</time>
      </trkpt>
      <trkpt lat="-11.6783310" lon="166.9616320">
        <ele>367.6</ele>
        <time>2020-04-19T13:35:47Z</time>
      </trkpt>
      <trkpt lat="-11.6782980" lon="166.9616000">
        <ele>367.8</ele>
        <time>2020-04-19T13:35:48Z</time>
      </trkpt>
      <trkpt lat="-11.6782660" lon="166.9615570">
        <ele>368.0</ele>
        <time>2020-04-19T13:35:49Z</time>
      </trkpt>
      <trkpt lat="-11.6782330" lon="166.9615240">
        <ele>368.4</ele>
        <time>2020-04-19T13:35:50Z</time>
      </trkpt>
      <trkpt lat="-11.6782010" lon="166.9614920">
        <ele>368.6</ele>
        <time>2020-04-19T13:35:51Z</time>
      </trkpt>
      <trkpt lat="-11.6781700" lon="166.9614490">
        <ele>369.0</ele>
        <time>2020-04-19T13:35:52Z</time>
      </trkpt>
      <trkpt lat="-11.6781400" lon="166.9614170">
        <ele>369.2</ele>
        <time>2020-04-19T13:35:53Z</time>
      </trkpt>
      <trkpt lat="-11.6781070" lon="166.9613850">
        <ele>369.4</ele>
        <time>2020-04-19T13:35:54Z</time>
      </trkpt>
      <trkpt lat="-11.6780770" lon="166.9613420">
        <ele>369.6</ele>
        <time>2020-04-19T13:35:55Z</time>
      </trkpt>
      <trkpt lat="-11.6780470" lon="166.9613100">
        <ele>370.0</ele>
        <time>2020-04-19T13:35:56Z</time>
      </trkpt>
      <trkpt lat="-11.6780160" lon="166.9612670">
        <ele>370.2</ele>
        <time>2020-04-19T13:35:57Z</time>
      </trkpt>
      <trkpt lat="-11.6779850" lon="166.9612350">
        <ele>370.4</ele>
        <time>2020-04-19T13:35:58Z</time>
      </trkpt>
      <trkpt lat="-11.6779530" lon="166.9611810">
        <ele>370.6</ele>
        <time>2020-04-19T13:35:59Z</time>
      </trkpt>
      <trkpt lat="-11.6779210" lon="166.9611600">
        <ele>370.8</ele>
        <time>2020-04-19T13:36:00Z</time>
      </trkpt>
      <trkpt lat="-11.6778870" lon="166.9611060">
        <ele>371.0</ele>
        <time>2020-04-19T13:36:01Z</time>
      </trkpt>
      <trkpt lat="-11.6778550" lon="166.9610740">
        <ele>371.2</ele>
        <time>2020-04-19T13:36:02Z</time>
      </trkpt>
      <trkpt lat="-11.6778190" lon="166.9610310">
        <ele>371.4</ele>
        <time>2020-04-19T13:36:03Z</time>
      </trkpt>
      <trkpt lat="-11.6777840" lon="166.9609990">
        <ele>371.6</ele>
        <time>2020-04-19T13:36:04Z</time>
      </trkpt>
      <trkpt lat="-11.6777490" lon="166.9609560">
        <ele>371.8</ele>
        <time>2020-04-19T13:36:05Z</time>
      </trkpt>
      <trkpt lat="-11.6777160" lon="166.9609130">
        <ele>371.8</ele>
        <time>2020-04-19T13:36:06Z</time>
      </trkpt>
      <trkpt lat="-11.6776810" lon="166.9608810">
        <ele>372.0</ele>
        <time>2020-04-19T13:36:07Z</time>
      </trkpt>
      <trkpt lat="-11.6776450" lon="166.9608380">
        <ele>372.2</ele>
        <time>2020-04-19T13:36:08Z</time>
      </trkpt>
      <trkpt lat="-11.6776080" lon="166.9607840">
        <ele>372.2</ele>
        <time>2020-04-19T13:36:09Z</time>
      </trkpt>
      <trkpt lat="-11.6775740" lon="166.9607310">
        <ele>372.4</ele>
        <time>2020-04-19T13:36:10Z</time>
      </trkpt>
      <trkpt lat="-11.6775390" lon="166.9606770">
        <ele>372.4</ele>
        <time>2020-04-19T13:36:11Z</time>
      </trkpt>
      <trkpt lat="-11.6775030" lon="166.9606230">
        <ele>372.4</ele>
        <time>2020-04-19T13:36:12Z</time>
      </trkpt>
      <trkpt lat="-11.6774680" lon="166.9605800">
        <ele>372.6</ele>
        <time>2020-04-19T13:36:13Z</time>
      </trkpt>
      <trkpt lat="-11.6774290" lon="166.9605160">
        <ele>372.6</ele>
        <time>2020-04-19T13:36:14Z</time>
      </trkpt>
      <trkpt lat="-11.6773940" lon="166.9604730">
        <ele>372.6</ele>
        <time>2020-04-19T13:36:15Z</time>
      </trkpt>
      <trkpt lat="-11.6773560" lon="166.9604090">
        <ele>372.6</ele>
        <time>2020-04-19T13:36:16Z</time>
      </trkpt>
      <trkpt lat="-11.6773200" lon="166.9603440">
        <ele>372.8</ele>
        <time>2020-04-19T13:36:17Z</time>
      </trkpt>
      <trkpt lat="-11.6772850" lon="166.9602910">
        <ele>372.8</ele>
        <time>2020-04-19T13:36:18Z</time>
      </trkpt>
      <trkpt lat="-11.6772490" lon="166.9602260">
        <ele>372.8</ele>
        <time>2020-04-19T13:36:19Z</time>
      </trkpt>
      <trkpt lat="-11.6772160" lon="166.9601620">
        <ele>372.8</ele>
        <time>2020-04-19T13:36:20Z</time>
      </trkpt>
      <trkpt lat="-11.6771780" lon="166.9600870">
        <ele>373.0</ele>
        <time>2020-04-19T13:36:21Z</time>
      </trkpt>
      <trkpt lat="-11.6771460" lon="166.9600220">
        <ele>373.0</ele>
        <time>2020-04-19T13:36:22Z</time>
      </trkpt>
      <trkpt lat="-11.6771120" lon="166.9599690">
        <ele>373.0</ele>
        <time>2020-04-19T13:36:23Z</time>
      </trkpt>
      <trkpt lat="-11.6770800" lon="166.9598940">
        <ele>373.0</ele>
        <time>2020-04-19T13:36:24Z</time>
      </trkpt>
      <trkpt lat="-11.6770450" lon="166.9598290">
        <ele>373.0</ele>
        <time>2020-04-19T13:36:25Z</time>
      </trkpt>
      <trkpt lat="-11.6770130" lon="166.9597540">
        <ele>373.0</ele>
        <time>2020-04-19T13:36:26Z</time>
      </trkpt>
      <trkpt lat="-11.6769810" lon="166.9596790">
        <ele>373.0</ele>
        <time>2020-04-19T13:36:27Z</time>
      </trkpt>
      <trkpt lat="-11.6769470" lon="166.9596040">
        <ele>373.0</ele>
        <time>2020-04-19T13:36:28Z</time>
      </trkpt>
      <trkpt lat="-11.6769160" lon="166.9595180">
        <ele>373.0</ele>
        <time>2020-04-19T13:36:29Z</time>
      </trkpt>
      <trkpt lat="-11.6768840" lon="166.9594430">
        <ele>373.0</ele>
        <time>2020-04-19T13:36:30Z</time>
      </trkpt>
      <trkpt lat="-11.6768490" lon="166.9593570">
        <ele>373.0</ele>
        <time>2020-04-19T13:36:31Z</time>
      </trkpt>
      <trkpt lat="-11.6768170" lon="166.9592820">
        <ele>373.0</ele>
        <time>2020-04-19T13:36:32Z</time>
      </trkpt>
      <trkpt lat="-11.6767840" lon="166.9591860">
        <ele>373.0</ele>
        <time>2020-04-19T13:36:33Z</time>
      </trkpt>
      <trkpt lat="-11.6767520" lon="166.9591100">
        <ele>373.0</ele>
        <time>2020-04-19T13:36:34Z</time>
      </trkpt>
      <trkpt lat="-11.6767190" lon="166.9590140">
        <ele>373.0</ele>
        <time>2020-04-19T13:36:35Z</time>
      </trkpt>
      <trkpt lat="-11.6766870" lon="166.9589390">
        <ele>373.0</ele>
        <time>2020-04-19T13:36:36Z</time>
      </trkpt>
      <trkpt lat="-11.6766560" lon="166.9588640">
        <ele>373.0</ele>
        <time>2020-04-19T13:36:37Z</time>
      </trkpt>
      <trkpt lat="-11.6766270" lon="166.9587780">
        <ele>373.0</ele>
        <time>2020-04-19T13:36:38Z</time>
      </trkpt>
      <trkpt lat="-11.6765960" lon="166.9587030">
        <ele>373.0</ele>
        <time>2020-04-19T13:36:39Z</time>
      </trkpt>
      <trkpt lat="-11.6765650" lon="166.9586060">
        <ele>373.0</ele>
        <time>2020-04-19T13:36:40Z</time>
      </trkpt>
      <trkpt lat="-11.6765340" lon="166.9585200">
        <ele>373.0</ele>
        <time>2020-04-19T13:36:41Z</time>
      </trkpt>
      <trkpt lat="-11.6765060" lon="166.9584350">
        <ele>373.0</ele>
        <time>2020-04-19T13:36:42Z</time>
      </trkpt>
      <trkpt lat="-11.6764790" lon="166.9583490">
        <ele>373.0</ele>
        <time>2020-04-19T13:36:43Z</time>
      </trkpt>
      <trkpt lat="-11.6764520" lon="166.9582740">
        <ele>373.2</ele>
        <time>2020-04-19T13:36:44Z</time>
      </trkpt>
      <trkpt lat="-11.6764280" lon="166.9581770">
        <ele>373.4</ele>
        <time>2020-04-19T13:36:45Z</time>
      </trkpt>
      <trkpt lat="-11.6764030" lon="166.9581020">
        <ele>373.4</ele>
        <time>2020-04-19T13:36:46Z</time>
      </trkpt>
      <trkpt lat="-11.6763800" lon="166.9580160">
        <ele>373.6</ele>
        <time>2020-04-19T13:36:47Z</time>
      </trkpt>
      <trkpt lat="-11.6763570" lon="166.9579300">
        <ele>373.6</ele>
        <time>2020-04-19T13:36:48Z</time>
      </trkpt>
      <trkpt lat="-11.6763360" lon="166.9578550">
        <ele>373.8</ele>
        <time>2020-04-19T13:36:49Z</time>
      </trkpt>
      <trkpt lat="-11.6763140" lon="166.9577800">
        <ele>373.8</ele>
        <time>2020-04-19T13:36:50Z</time>
      </trkpt>
      <trkpt lat="-11.6762930" lon="166.9576940">
        <ele>373.8</ele>
        <time>2020-04-19T13:36:51Z</time>
      </trkpt>
      <trkpt lat="-11.6762700" lon="166.9576190">
        <ele>373.6</ele>
        <time>2020-04-19T13:36:52Z</time>
      </trkpt>
      <trkpt lat="-11.6762470" lon="166.9575230">
        <ele>373.6</ele>
        <time>2020-04-19T13:36:53Z</time>
      </trkpt>
      <trkpt lat="-11.6762240" lon="166.9574480">
        <ele>373.2</ele>
        <time>2020-04-19T13:36:54Z</time>
      </trkpt>
      <trkpt lat="-11.6762020" lon="166.9573510">
        <ele>373.0</ele>
        <time>2020-04-19T13:36:55Z</time>
      </trkpt>
      <trkpt lat="-11.6761740" lon="166.9572650">
        <ele>372.4</ele>
        <time>2020-04-19T13:36:56Z</time>
      </trkpt>
      <trkpt lat="-11.6761430" lon="166.9571690">
        <ele>371.6</ele>
        <time>2020-04-19T13:36:57Z</time>
      </trkpt>
      <trkpt lat="-11.6761120" lon="166.9570610">
        <ele>370.8</ele>
        <time>2020-04-19T13:36:58Z</time>
      </trkpt>
      <trkpt lat="-11.6760760" lon="166.9569540">
        <ele>369.8</ele>
        <time>2020-04-19T13:36:59Z</time>
      </trkpt>
      <trkpt lat="-11.6760410" lon="166.9568680">
        <ele>368.6</ele>
        <time>2020-04-19T13:37:00Z</time>
      </trkpt>
      <trkpt lat="-11.6760010" lon="166.9567500">
        <ele>367.2</ele>
        <time>2020-04-19T13:37:01Z</time>
      </trkpt>
      <trkpt lat="-11.6759600" lon="166.9566210">
        <ele>365.6</ele>
        <time>2020-04-19T13:37:02Z</time>
      </trkpt>
      <trkpt lat="-11.6759250" lon="166.9564820">
        <ele>364.0</ele>
        <time>2020-04-19T13:37:03Z</time>
      </trkpt>
      <trkpt lat="-11.6758930" lon="166.9563530">
        <ele>362.4</ele>
        <time>2020-04-19T13:37:04Z</time>
      </trkpt>
      <trkpt lat="-11.6758740" lon="166.9562140">
        <ele>360.8</ele>
        <time>2020-04-19T13:37:05Z</time>
      </trkpt>
      <trkpt lat="-11.6758740" lon="166.9560640">
        <ele>359.4</ele>
        <time>2020-04-19T13:37:06Z</time>
      </trkpt>
      <trkpt lat="-11.6758970" lon="166.9559030">
        <ele>357.8</ele>
        <time>2020-04-19T13:37:07Z</time>
      </trkpt>
      <trkpt lat="-11.6759290" lon="166.9557520">
        <ele>356.4</ele>
        <time>2020-04-19T13:37:08Z</time>
      </trkpt>
      <trkpt lat="-11.6759660" lon="166.9556020">
        <ele>355.0</ele>
        <time>2020-04-19T13:37:09Z</time>
      </trkpt>
      <trkpt lat="-11.6759860" lon="166.9554520">
        <ele>353.0</ele>
        <time>2020-04-19T13:37:10Z</time>
      </trkpt>
      <trkpt lat="-11.6759590" lon="166.9552910">
        <ele>351.2</ele>
        <time>2020-04-19T13:37:11Z</time>
      </trkpt>
      <trkpt lat="-11.6758500" lon="166.9551620">
        <ele>349.0</ele>
        <time>2020-04-19T13:37:12Z</time>
      </trkpt>
      <trkpt lat="-11.6757030" lon="166.9550870">
        <ele>347.2</ele>
        <time>2020-04-19T13:37:13Z</time>
      </trkpt>
      <trkpt lat="-11.6755510" lon="166.9550230">
        <ele>345.8</ele>
        <time>2020-04-19T13:37:14Z</time>
      </trkpt>
      <trkpt lat="-11.6753860" lon="166.9549580">
        <ele>344.0</ele>
        <time>2020-04-19T13:37:15Z</time>
      </trkpt>
      <trkpt lat="-11.6752470" lon="166.9548510">
        <ele>342.2</ele>
        <time>2020-04-19T13:37:16Z</time>
      </trkpt>
      <trkpt lat="-11.6751410" lon="166.9547330">
        <ele>340.2</ele>
        <time>2020-04-19T13:37:17Z</time>
      </trkpt>
      <trkpt lat="-11.6750640" lon="166.9545610">
        <ele>338.0</ele>
        <time>2020-04-19T13:37:18Z</time>
      </trkpt>
      <trkpt lat="-11.6750080" lon="166.9544010">
        <ele>336.0</ele>
        <time>2020-04-19T13:37:19Z</time>
      </trkpt>
      <trkpt lat="-11.6749610" lon="166.9542290">
        <ele>334.0</ele>
        <time>2020-04-19T13:37:20Z</time>
      </trkpt>
      <trkpt lat="-11.6749170" lon="166.9540460">
        <ele>331.8</ele>
        <time>2020-04-19T13:37:21Z</time>
      </trkpt>
      <trkpt lat="-11.6748750" lon="166.9538640">
        <ele>329.8</ele>
        <time>2020-04-19T13:37:22Z</time>
      </trkpt>
      <trkpt lat="-11.6748350" lon="166.9536920">
        <ele>327.6</ele>
        <time>2020-04-19T13:37:23Z</time>
      </trkpt>
      <trkpt lat="-11.6747880" lon="166.9535100">
        <ele>325.6</ele>
        <time>2020-04-19T13:37:24Z</time>
      </trkpt>
      <trkpt lat="-11.6747260" lon="166.9533380">
        <ele>323.6</ele>
        <time>2020-04-19T13:37:25Z</time>
      </trkpt>
      <trkpt lat="-11.6746570" lon="166.9531560">
        <ele>321.4</ele>
        <time>2020-04-19T13:37:26Z</time>
      </trkpt>
      <trkpt lat="-11.6745840" lon="166.9530060">
        <ele>319.6</ele>
        <time>2020-04-19T13:37:27Z</time>
      </trkpt>
      <trkpt lat="-11.6745080" lon="166.9528230">
        <ele>317.8</ele>
        <time>2020-04-19T13:37:28Z</time>
      </trkpt>
      <trkpt lat="-11.6744340" lon="166.9526730">
        <ele>316.0</ele>
        <time>2020-04-19T13:37:29Z</time>
      </trkpt>
      <trkpt lat="-11.6743520" lon="166.9525230">
        <ele>314.2</ele>
        <time>2020-04-19T13:37:30Z</time>
      </trkpt>
      <trkpt lat="-11.6742660" lon="166.9523510">
        <ele>312.2</ele>
        <time>2020-04-19T13:37:31Z</time>
      </trkpt>
      <trkpt lat="-11.6741730" lon="166.9521800">
        <ele>310.2</ele>
        <time>2020-04-19T13:37:32Z</time>
      </trkpt>
      <trkpt lat="-11.6740790" lon="166.9520290">
        <ele>308.2</ele>
        <time>2020-04-19T13:37:33Z</time>
      </trkpt>
      <trkpt lat="-11.6739730" lon="166.9518900">
        <ele>306.2</ele>
        <time>2020-04-19T13:37:34Z</time>
      </trkpt>
      <trkpt lat="-11.6738510" lon="166.9517400">
        <ele>304.4</ele>
        <time>2020-04-19T13:37:35Z</time>
      </trkpt>
      <trkpt lat="-11.6737140" lon="166.9516320">
        <ele>303.2</ele>
        <time>2020-04-19T13:37:36Z</time>
      </trkpt>
      <trkpt lat="-11.6735580" lon="166.9515250">
        <ele>302.0</ele>
        <time>2020-04-19T13:37:37Z</time>
      </trkpt>
      <trkpt lat="-11.6734140" lon="166.9514500">
        <ele>300.8</ele>
        <time>2020-04-19T13:37:38Z</time>
      </trkpt>
      <trkpt lat="-11.6732550" lon="166.9513750">
        <ele>299.0</ele>
        <time>2020-04-19T13:37:39Z</time>
      </trkpt>
      <trkpt lat="-11.6731080" lon="166.9514610">
        <ele>298.4</ele>
        <time>2020-04-19T13:37:40Z</time>
      </trkpt>
      <trkpt lat="-11.6730180" lon="166.9516000">
        <ele>298.6</ele>
        <time>2020-04-19T13:37:41Z</time>
      </trkpt>
      <trkpt lat="-11.6729680" lon="166.9517720">
        <ele>298.8</ele>
        <time>2020-04-19T13:37:42Z</time>
      </trkpt>
      <trkpt lat="-11.6729740" lon="166.9519220">
        <ele>299.0</ele>
        <time>2020-04-19T13:37:43Z</time>
      </trkpt>
      <trkpt lat="-11.6730190" lon="166.9520620">
        <ele>299.0</ele>
        <time>2020-04-19T13:37:44Z</time>
      </trkpt>
      <trkpt lat="-11.6730770" lon="166.9522010">
        <ele>299.2</ele>
        <time>2020-04-19T13:37:45Z</time>
      </trkpt>
      <trkpt lat="-11.6731350" lon="166.9523410">
        <ele>299.2</ele>
        <time>2020-04-19T13:37:46Z</time>
      </trkpt>
      <trkpt lat="-11.6731870" lon="166.9524590">
        <ele>299.0</ele>
        <time>2020-04-19T13:37:47Z</time>
      </trkpt>
      <trkpt lat="-11.6732240" lon="166.9525980">
        <ele>298.8</ele>
        <time>2020-04-19T13:37:48Z</time>
      </trkpt>
      <trkpt lat="-11.6732540" lon="166.9527380">
        <ele>298.2</ele>
        <time>2020-04-19T13:37:49Z</time>
      </trkpt>
      <trkpt lat="-11.6732820" lon="166.9528560">
        <ele>297.6</ele>
        <time>2020-04-19T13:37:50Z</time>
      </trkpt>
      <trkpt lat="-11.6733060" lon="166.9529950">
        <ele>296.6</ele>
        <time>2020-04-19T13:37:51Z</time>
      </trkpt>
      <trkpt lat="-11.6733170" lon="166.9531240">
        <ele>295.8</ele>
        <time>2020-04-19T13:37:52Z</time>
      </trkpt>
      <trkpt lat="-11.6732970" lon="166.9532630">
        <ele>294.6</ele>
        <time>2020-04-19T13:37:53Z</time>
      </trkpt>
      <trkpt lat="-11.6732190" lon="166.9533920">
        <ele>293.6</ele>
        <time>2020-04-19T13:37:54Z</time>
      </trkpt>
      <trkpt lat="-11.6731050" lon="166.9534670">
        <ele>292.6</ele>
        <time>2020-04-19T13:37:55Z</time>
      </trkpt>
      <trkpt lat="-11.6729680" lon="166.9535100">
        <ele>291.8</ele>
        <time>2020-04-19T13:37:56Z</time>
      </trkpt>
      <trkpt lat="-11.6728230" lon="166.9535100">
        <ele>290.6</ele>
        <time>2020-04-19T13:37:57Z</time>
      </trkpt>
      <trkpt lat="-11.6726850" lon="166.9534670">
        <ele>289.4</ele>
        <time>2020-04-19T13:37:58Z</time>
      </trkpt>
      <trkpt lat="-11.6725580" lon="166.9533920">
        <ele>288.2</ele>
        <time>2020-04-19T13:37:59Z</time>
      </trkpt>
      <trkpt lat="-11.6724390" lon="166.9532850">
        <ele>287.2</ele>
        <time>2020-04-19T13:38:00Z</time>
      </trkpt>
      <trkpt lat="-11.6723290" lon="166.9531880">
        <ele>286.0</ele>
        <time>2020-04-19T13:38:01Z</time>
      </trkpt>
      <trkpt lat="-11.6722240" lon="166.9530700">
        <ele>284.8</ele>
        <time>2020-04-19T13:38:02Z</time>
      </trkpt>
      <trkpt lat="-11.6721270" lon="166.9529410">
        <ele>283.6</ele>
        <time>2020-04-19T13:38:03Z</time>
      </trkpt>
      <trkpt lat="-11.6720420" lon="166.9528130">
        <ele>282.0</ele>
        <time>2020-04-19T13:38:04Z</time>
      </trkpt>
      <trkpt lat="-11.6719690" lon="166.9526730">
        <ele>280.2</ele>
        <time>2020-04-19T13:38:05Z</time>
      </trkpt>
      <trkpt lat="-11.6719130" lon="166.9525230">
        <ele>278.6</ele>
        <time>2020-04-19T13:38:06Z</time>
      </trkpt>
      <trkpt lat="-11.6718700" lon="166.9523620">
        <ele>276.8</ele>
        <time>2020-04-19T13:38:07Z</time>
      </trkpt>
      <trkpt lat="-11.6718300" lon="166.9521800">
        <ele>274.8</ele>
        <time>2020-04-19T13:38:08Z</time>
      </trkpt>
      <trkpt lat="-11.6718000" lon="166.9520290">
        <ele>273.0</ele>
        <time>2020-04-19T13:38:09Z</time>
      </trkpt>
      <trkpt lat="-11.6717710" lon="166.9518470">
        <ele>270.8</ele>
        <time>2020-04-19T13:38:10Z</time>
      </trkpt>
      <trkpt lat="-11.6717490" lon="166.9516750">
        <ele>269.0</ele>
        <time>2020-04-19T13:38:11Z</time>
      </trkpt>
      <trkpt lat="-11.6717410" lon="166.9515140">
        <ele>267.0</ele>
        <time>2020-04-19T13:38:12Z</time>
      </trkpt>
      <trkpt lat="-11.6717380" lon="166.9513320">
        <ele>265.0</ele>
        <time>2020-04-19T13:38:13Z</time>
      </trkpt>
      <trkpt lat="-11.6717380" lon="166.9511500">
        <ele>263.2</ele>
        <time>2020-04-19T13:38:14Z</time>
      </trkpt>
      <trkpt lat="-11.6717340" lon="166.9509670">
        <ele>261.0</ele>
        <time>2020-04-19T13:38:15Z</time>
      </trkpt>
      <trkpt lat="-11.6717200" lon="166.9507740">
        <ele>259.0</ele>
        <time>2020-04-19T13:38:16Z</time>
      </trkpt>
      <trkpt lat="-11.6716890" lon="166.9505920">
        <ele>257.0</ele>
        <time>2020-04-19T13:38:17Z</time>
      </trkpt>
      <trkpt lat="-11.6716430" lon="166.9504090">
        <ele>254.8</ele>
        <time>2020-04-19T13:38:18Z</time>
      </trkpt>
      <trkpt lat="-11.6715910" lon="166.9502270">
        <ele>252.6</ele>
        <time>2020-04-19T13:38:19Z</time>
      </trkpt>
      <trkpt lat="-11.6715370" lon="166.9500660">
        <ele>250.6</ele>
        <time>2020-04-19T13:38:20Z</time>
      </trkpt>
      <trkpt lat="-11.6714770" lon="166.9498840">
        <ele>248.4</ele>
        <time>2020-04-19T13:38:21Z</time>
      </trkpt>
      <trkpt lat="-11.6714220" lon="166.9496910">
        <ele>246.2</ele>
        <time>2020-04-19T13:38:22Z</time>
      </trkpt>
      <trkpt lat="-11.6713790" lon="166.9495080">
        <ele>244.0</ele>
        <time>2020-04-19T13:38:23Z</time>
      </trkpt>
      <trkpt lat="-11.6713560" lon="166.9493260">
        <ele>241.8</ele>
        <time>2020-04-19T13:38:24Z</time>
      </trkpt>
      <trkpt lat="-11.6713550" lon="166.9491330">
        <ele>239.6</ele>
        <time>2020-04-19T13:38:25Z</time>
      </trkpt>
      <trkpt lat="-11.6713630" lon="166.9489500">
        <ele>237.2</ele>
        <time>2020-04-19T13:38:26Z</time>
      </trkpt>
      <trkpt lat="-11.6713680" lon="166.9487460">
        <ele>234.8</ele>
        <time>2020-04-19T13:38:27Z</time>
      </trkpt>
      <trkpt lat="-11.6713360" lon="166.9485640">
        <ele>233.2</ele>
        <time>2020-04-19T13:38:28Z</time>
      </trkpt>
      <trkpt lat="-11.6712030" lon="166.9484250">
        <ele>233.2</ele>
        <time>2020-04-19T13:38:29Z</time>
      </trkpt>
      <trkpt lat="-11.6710370" lon="166.9483820">
        <ele>234.8</ele>
        <time>2020-04-19T13:38:30Z</time>
      </trkpt>
      <trkpt lat="-11.6708730" lon="166.9483820">
        <ele>237.0</ele>
        <time>2020-04-19T13:38:31Z</time>
      </trkpt>
      <trkpt lat="-11.6707340" lon="166.9484140">
        <ele>239.0</ele>
        <time>2020-04-19T13:38:32Z</time>
      </trkpt>
      <trkpt lat="-11.6706250" lon="166.9484890">
        <ele>240.8</ele>
        <time>2020-04-19T13:38:33Z</time>
      </trkpt>
      <trkpt lat="-11.6705530" lon="166.9485860">
        <ele>242.2</ele>
        <time>2020-04-19T13:38:34Z</time>
      </trkpt>
      <trkpt lat="-11.6705090" lon="166.9486930">
        <ele>243.4</ele>
        <time>2020-04-19T13:38:35Z</time>
      </trkpt>
      <trkpt lat="-11.6704740" lon="166.9487790">
        <ele>244.4</ele>
        <time>2020-04-19T13:38:36Z</time>
      </trkpt>
      <trkpt lat="-11.6704470" lon="166.9488750">
        <ele>245.2</ele>
        <time>2020-04-19T13:38:37Z</time>
      </trkpt>
      <trkpt lat="-11.6704240" lon="166.9489500">
        <ele>246.0</ele>
        <time>2020-04-19T13:38:38Z</time>
      </trkpt>
      <trkpt lat="-11.6704040" lon="166.9490360">
        <ele>246.8</ele>
        <time>2020-04-19T13:38:39Z</time>
      </trkpt>
      <trkpt lat="-11.6703850" lon="166.9491110">
        <ele>247.6</ele>
        <time>2020-04-19T13:38:40Z</time>
      </trkpt>
      <trkpt lat="-11.6703710" lon="166.9491760">
        <ele>248.2</ele>
        <time>2020-04-19T13:38:41Z</time>
      </trkpt>
      <trkpt lat="-11.6703530" lon="166.9492510">
        <ele>248.8</ele>
        <time>2020-04-19T13:38:42Z</time>
      </trkpt>
      <trkpt lat="-11.6703420" lon="166.9493150">
        <ele>249.4</ele>
        <time>2020-04-19T13:38:43Z</time>
      </trkpt>
      <trkpt lat="-11.6703360" lon="166.9493790">
        <ele>250.0</ele>
        <time>2020-04-19T13:38:44Z</time>
      </trkpt>
      <trkpt lat="-11.6703300" lon="166.9494330">
        <ele>250.6</ele>
        <time>2020-04-19T13:38:45Z</time>
      </trkpt>
      <trkpt lat="-11.6703290" lon="166.9494870">
        <ele>251.2</ele>
        <time>2020-04-19T13:38:46Z</time>
      </trkpt>
      <trkpt lat="-11.6703290" lon="166.9495300">
        <ele>251.8</ele>
        <time>2020-04-19T13:38:47Z</time>
      </trkpt>
      <trkpt lat="-11.6703320" lon="166.9495730">
        <ele>252.4</ele>
        <time>2020-04-19T13:38:48Z</time>
      </trkpt>
      <trkpt lat="-11.6703340" lon="166.9496150">
        <ele>252.8</ele>
        <time>2020-04-19T13:38:49Z</time>
      </trkpt>
      <trkpt lat="-11.6703380" lon="166.9496690">
        <ele>253.4</ele>
        <time>2020-04-19T13:38:50Z</time>
      </trkpt>
      <trkpt lat="-11.6703450" lon="166.9496910">
        <ele>253.8</ele>
        <time>2020-04-19T13:38:51Z</time>
      </trkpt>
      <trkpt lat="-11.6703500" lon="166.9497230">
        <ele>254.2</ele>
        <time>2020-04-19T13:38:52Z</time>
      </trkpt>
      <trkpt lat="-11.6703540" lon="166.9497760">
        <ele>254.4</ele>
        <time>2020-04-19T13:38:53Z</time>
      </trkpt>
      <trkpt lat="-11.6703610" lon="166.9497980">
        <ele>254.8</ele>
        <time>2020-04-19T13:38:54Z</time>
      </trkpt>
      <trkpt lat="-11.6703670" lon="166.9498520">
        <ele>255.2</ele>
        <time>2020-04-19T13:38:55Z</time>
      </trkpt>
      <trkpt lat="-11.6703720" lon="166.9498840">
        <ele>255.4</ele>
        <time>2020-04-19T13:38:56Z</time>
      </trkpt>
      <trkpt lat="-11.6703750" lon="166.9499270">
        <ele>255.6</ele>
        <time>2020-04-19T13:38:57Z</time>
      </trkpt>
      <trkpt lat="-11.6703790" lon="166.9499700">
        <ele>255.8</ele>
        <time>2020-04-19T13:38:58Z</time>
      </trkpt>
      <trkpt lat="-11.6703800" lon="166.9500120">
        <ele>256.0</ele>
        <time>2020-04-19T13:38:59Z</time>
      </trkpt>
      <trkpt lat="-11.6703800" lon="166.9500660">
        <ele>256.0</ele>
        <time>2020-04-19T13:39:00Z</time>
      </trkpt>
      <trkpt lat="-11.6703770" lon="166.9501200">
        <ele>256.0</ele>
        <time>2020-04-19T13:39:01Z</time>
      </trkpt>
      <trkpt lat="-11.6703720" lon="166.9501730">
        <ele>255.8</ele>
        <time>2020-04-19T13:39:02Z</time>
      </trkpt>
      <trkpt lat="-11.6703650" lon="166.9502270">
        <ele>255.6</ele>
        <time>2020-04-19T13:39:03Z</time>
      </trkpt>
      <trkpt lat="-11.6703560" lon="166.9503020">
        <ele>255.2</ele>
        <time>2020-04-19T13:39:04Z</time>
      </trkpt>
      <trkpt lat="-11.6703440" lon="166.9503770">
        <ele>254.6</ele>
        <time>2020-04-19T13:39:05Z</time>
      </trkpt>
      <trkpt lat="-11.6703300" lon="166.9504630">
        <ele>254.0</ele>
        <time>2020-04-19T13:39:06Z</time>
      </trkpt>
      <trkpt lat="-11.6703160" lon="166.9505380">
        <ele>253.2</ele>
        <time>2020-04-19T13:39:07Z</time>
      </trkpt>
      <trkpt lat="-11.6702980" lon="166.9506450">
        <ele>252.2</ele>
        <time>2020-04-19T13:39:08Z</time>
      </trkpt>
      <trkpt lat="-11.6702830" lon="166.9507310">
        <ele>251.2</ele>
        <time>2020-04-19T13:39:09Z</time>
      </trkpt>
      <trkpt lat="-11.6702730" lon="166.9508390">
        <ele>250.0</ele>
        <time>2020-04-19T13:39:10Z</time>
      </trkpt>
      <trkpt lat="-11.6702690" lon="166.9509670">
        <ele>248.8</ele>
        <time>2020-04-19T13:39:11Z</time>
      </trkpt>
      <trkpt lat="-11.6702740" lon="166.9510640">
        <ele>247.8</ele>
        <time>2020-04-19T13:39:12Z</time>
      </trkpt>
      <trkpt lat="-11.6702860" lon="166.9512030">
        <ele>246.6</ele>
        <time>2020-04-19T13:39:13Z</time>
      </trkpt>
      <trkpt lat="-11.6703060" lon="166.9513320">
        <ele>245.2</ele>
        <time>2020-04-19T13:39:14Z</time>
      </trkpt>
      <trkpt lat="-11.6703280" lon="166.9514500">
        <ele>244.0</ele>
        <time>2020-04-19T13:39:15Z</time>
      </trkpt>
      <trkpt lat="-11.6703540" lon="166.9515900">
        <ele>242.6</ele>
        <time>2020-04-19T13:39:16Z</time>
      </trkpt>
      <trkpt lat="-11.6703840" lon="166.9517400">
        <ele>241.2</ele>
        <time>2020-04-19T13:39:17Z</time>
      </trkpt>
      <trkpt lat="-11.6704150" lon="166.9518790">
        <ele>239.6</ele>
        <time>2020-04-19T13:39:18Z</time>
      </trkpt>
      <trkpt lat="-11.6704440" lon="166.9520290">
        <ele>238.0</ele>
        <time>2020-04-19T13:39:19Z</time>
      </trkpt>
      <trkpt lat="-11.6704760" lon="166.9521800">
        <ele>236.4</ele>
        <time>2020-04-19T13:39:20Z</time>
      </trkpt>
      <trkpt lat="-11.6705210" lon="166.9523410">
        <ele>234.6</ele>
        <time>2020-04-19T13:39:21Z</time>
      </trkpt>
      <trkpt lat="-11.6705640" lon="166.9524910">
        <ele>233.0</ele>
        <time>2020-04-19T13:39:22Z</time>
      </trkpt>
      <trkpt lat="-11.6706030" lon="166.9526410">
        <ele>231.0</ele>
        <time>2020-04-19T13:39:23Z</time>
      </trkpt>
      <trkpt lat="-11.6706200" lon="166.9528130">
        <ele>229.0</ele>
        <time>2020-04-19T13:39:24Z</time>
      </trkpt>
      <trkpt lat="-11.6706030" lon="166.9529740">
        <ele>227.4</ele>
        <time>2020-04-19T13:39:25Z</time>
      </trkpt>
      <trkpt lat="-11.6705410" lon="166.9531450">
        <ele>225.4</ele>
        <time>2020-04-19T13:39:26Z</time>
      </trkpt>
      <trkpt lat="-11.6704560" lon="166.9532950">
        <ele>224.0</ele>
        <time>2020-04-19T13:39:27Z</time>
      </trkpt>
      <trkpt lat="-11.6703580" lon="166.9534350">
        <ele>222.6</ele>
        <time>2020-04-19T13:39:28Z</time>
      </trkpt>
      <trkpt lat="-11.6702360" lon="166.9535740">
        <ele>221.0</ele>
        <time>2020-04-19T13:39:29Z</time>
      </trkpt>
      <trkpt lat="-11.6700930" lon="166.9536600">
        <ele>219.2</ele>
        <time>2020-04-19T13:39:30Z</time>
      </trkpt>
      <trkpt lat="-11.6699170" lon="166.9536500">
        <ele>217.2</ele>
        <time>2020-04-19T13:39:31Z</time>
      </trkpt>
      <trkpt lat="-11.6697790" lon="166.9535420">
        <ele>215.6</ele>
        <time>2020-04-19T13:39:32Z</time>
      </trkpt>
      <trkpt lat="-11.6696750" lon="166.9533860">
        <ele>213.0</ele>
        <time>2020-04-19T13:39:33Z</time>
      </trkpt>
      <trkpt lat="-11.6695700" lon="166.9532310">
        <ele>212.4</ele>
        <time>2020-04-19T13:39:34Z</time>
      </trkpt>
      <trkpt lat="-11.6694930" lon="166.9530750">
        <ele>210.8</ele>
        <time>2020-04-19T13:39:35Z</time>
      </trkpt>
      <trkpt lat="-11.6694160" lon="166.9529200">
        <ele>209.2</ele>
        <time>2020-04-19T13:39:36Z</time>
      </trkpt>
      <trkpt lat="-11.6693550" lon="166.9527480">
        <ele>207.6</ele>
        <time>2020-04-19T13:39:37Z</time>
      </trkpt>
      <trkpt lat="-11.6693080" lon="166.9525770">
        <ele>206.2</ele>
        <time>2020-04-19T13:39:38Z</time>
      </trkpt>
      <trkpt lat="-11.6692800" lon="166.9523940">
        <ele>204.6</ele>
        <time>2020-04-19T13:39:39Z</time>
      </trkpt>
      <trkpt lat="-11.6692750" lon="166.9522120">
        <ele>202.8</ele>
        <time>2020-04-19T13:39:40Z</time>
      </trkpt>
      <trkpt lat="-11.6692900" lon="166.9520290">
        <ele>201.2</ele>
        <time>2020-04-19T13:39:41Z</time>
      </trkpt>
      <trkpt lat="-11.6693120" lon="166.9518580">
        <ele>199.6</ele>
        <time>2020-04-19T13:39:42Z</time>
      </trkpt>
      <trkpt lat="-11.6693410" lon="166.9516750">
        <ele>197.8</ele>
        <time>2020-04-19T13:39:43Z</time>
      </trkpt>
      <trkpt lat="-11.6693650" lon="166.9514930">
        <ele>196.0</ele>
        <time>2020-04-19T13:39:44Z</time>
      </trkpt>
      <trkpt lat="-11.6693770" lon="166.9513320">
        <ele>194.4</ele>
        <time>2020-04-19T13:39:45Z</time>
      </trkpt>
      <trkpt lat="-11.6693790" lon="166.9511280">
        <ele>192.4</ele>
        <time>2020-04-19T13:39:46Z</time>
      </trkpt>
      <trkpt lat="-11.6693810" lon="166.9509460">
        <ele>190.6</ele>
        <time>2020-04-19T13:39:47Z</time>
      </trkpt>
      <trkpt lat="-11.6693780" lon="166.9507630">
        <ele>188.8</ele>
        <time>2020-04-19T13:39:48Z</time>
      </trkpt>
      <trkpt lat="-11.6693790" lon="166.9505700">
        <ele>186.8</ele>
        <time>2020-04-19T13:39:49Z</time>
      </trkpt>
      <trkpt lat="-11.6693740" lon="166.9503990">
        <ele>185.0</ele>
        <time>2020-04-19T13:39:50Z</time>
      </trkpt>
      <trkpt lat="-11.6693630" lon="166.9501950">
        <ele>183.0</ele>
        <time>2020-04-19T13:39:51Z</time>
      </trkpt>
      <trkpt lat="-11.6693490" lon="166.9500120">
        <ele>181.2</ele>
        <time>2020-04-19T13:39:52Z</time>
      </trkpt>
      <trkpt lat="-11.6693220" lon="166.9498300">
        <ele>179.6</ele>
        <time>2020-04-19T13:39:53Z</time>
      </trkpt>
      <trkpt lat="-11.6692820" lon="166.9496480">
        <ele>177.6</ele>
        <time>2020-04-19T13:39:54Z</time>
      </trkpt>
      <trkpt lat="-11.6692280" lon="166.9494650">
        <ele>175.6</ele>
        <time>2020-04-19T13:39:55Z</time>
      </trkpt>
      <trkpt lat="-11.6691610" lon="166.9493040">
        <ele>174.0</ele>
        <time>2020-04-19T13:39:56Z</time>
      </trkpt>
      <trkpt lat="-11.6690790" lon="166.9491330">
        <ele>172.4</ele>
        <time>2020-04-19T13:39:57Z</time>
      </trkpt>
      <trkpt lat="-11.6689890" lon="166.9489820">
        <ele>171.6</ele>
        <time>2020-04-19T13:39:58Z</time>
      </trkpt>
      <trkpt lat="-11.6688900" lon="166.9488220">
        <ele>171.8</ele>
        <time>2020-04-19T13:39:59Z</time>
      </trkpt>
      <trkpt lat="-11.6687840" lon="166.9486930">
        <ele>172.2</ele>
        <time>2020-04-19T13:40:00Z</time>
      </trkpt>
      <trkpt lat="-11.6686630" lon="166.9485860">
        <ele>173.0</ele>
        <time>2020-04-19T13:40:01Z</time>
      </trkpt>
      <trkpt lat="-11.6685170" lon="166.9485530">
        <ele>173.0</ele>
        <time>2020-04-19T13:40:02Z</time>
      </trkpt>
      <trkpt lat="-11.6684180" lon="166.9486610">
        <ele>172.4</ele>
        <time>2020-04-19T13:40:03Z</time>
      </trkpt>
      <trkpt lat="-11.6683450" lon="166.9487790">
        <ele>171.8</ele>
        <time>2020-04-19T13:40:04Z</time>
      </trkpt>
      <trkpt lat="-11.6682680" lon="166.9489180">
        <ele>171.0</ele>
        <time>2020-04-19T13:40:05Z</time>
      </trkpt>
      <trkpt lat="-11.6681710" lon="166.9490250">
        <ele>169.8</ele>
        <time>2020-04-19T13:40:06Z</time>
      </trkpt>
      <trkpt lat="-11.6680540" lon="166.9491110">
        <ele>168.6</ele>
        <time>2020-04-19T13:40:07Z</time>
      </trkpt>
      <trkpt lat="-11.6679240" lon="166.9492080">
        <ele>167.0</ele>
        <time>2020-04-19T13:40:08Z</time>
      </trkpt>
      <trkpt lat="-11.6678000" lon="166.9493040">
        <ele>165.6</ele>
        <time>2020-04-19T13:40:09Z</time>
      </trkpt>
      <trkpt lat="-11.6676860" lon="166.9494010">
        <ele>163.8</ele>
        <time>2020-04-19T13:40:10Z</time>
      </trkpt>
      <trkpt lat="-11.6676030" lon="166.9495620">
        <ele>161.8</ele>
        <time>2020-04-19T13:40:11Z</time>
      </trkpt>
      <trkpt lat="-11.6675650" lon="166.9497230">
        <ele>159.8</ele>
        <time>2020-04-19T13:40:12Z</time>
      </trkpt>
      <trkpt lat="-11.6675610" lon="166.9498940">
        <ele>158.0</ele>
        <time>2020-04-19T13:40:13Z</time>
      </trkpt>
      <trkpt lat="-11.6675740" lon="166.9500660">
        <ele>156.2</ele>
        <time>2020-04-19T13:40:14Z</time>
      </trkpt>
      <trkpt lat="-11.6676000" lon="166.9502480">
        <ele>154.6</ele>
        <time>2020-04-19T13:40:15Z</time>
      </trkpt>
      <trkpt lat="-11.6676410" lon="166.9504310">
        <ele>152.6</ele>
        <time>2020-04-19T13:40:16Z</time>
      </trkpt>
      <trkpt lat="-11.6676880" lon="166.9505810">
        <ele>150.8</ele>
        <time>2020-04-19T13:40:17Z</time>
      </trkpt>
      <trkpt lat="-11.6677590" lon="166.9507530">
        <ele>149.0</ele>
        <time>2020-04-19T13:40:18Z</time>
      </trkpt>
      <trkpt lat="-11.6678560" lon="166.9509140">
        <ele>147.0</ele>
        <time>2020-04-19T13:40:19Z</time>
      </trkpt>
      <trkpt lat="-11.6679580" lon="166.9510530">
        <ele>145.2</ele>
        <time>2020-04-19T13:40:20Z</time>
      </trkpt>
      <trkpt lat="-11.6680650" lon="166.9511930">
        <ele>143.4</ele>
        <time>2020-04-19T13:40:21Z</time>
      </trkpt>
      <trkpt lat="-11.6681770" lon="166.9513430">
        <ele>141.4</ele>
        <time>2020-04-19T13:40:22Z</time>
      </trkpt>
      <trkpt lat="-11.6682680" lon="166.9514930">
        <ele>139.6</ele>
        <time>2020-04-19T13:40:23Z</time>
      </trkpt>
      <trkpt lat="-11.6683400" lon="166.9516650">
        <ele>137.8</ele>
        <time>2020-04-19T13:40:24Z</time>
      </trkpt>
      <trkpt lat="-11.6683950" lon="166.9518470">
        <ele>135.8</ele>
        <time>2020-04-19T13:40:25Z</time>
      </trkpt>
      <trkpt lat="-11.6684340" lon="166.9520290">
        <ele>133.8</ele>
        <time>2020-04-19T13:40:26Z</time>
      </trkpt>
      <trkpt lat="-11.6684500" lon="166.9522120">
        <ele>132.0</ele>
        <time>2020-04-19T13:40:27Z</time>
      </trkpt>
      <trkpt lat="-11.6684170" lon="166.9523940">
        <ele>130.0</ele>
        <time>2020-04-19T13:40:28Z</time>
      </trkpt>
      <trkpt lat="-11.6682920" lon="166.9525340">
        <ele>128.6</ele>
        <time>2020-04-19T13:40:29Z</time>
      </trkpt>
      <trkpt lat="-11.6681130" lon="166.9525770">
        <ele>126.6</ele>
        <time>2020-04-19T13:40:30Z</time>
      </trkpt>
      <trkpt lat="-11.6679400" lon="166.9525660">
        <ele>125.0</ele>
        <time>2020-04-19T13:40:31Z</time>
      </trkpt>
      <trkpt lat="-11.6677620" lon="166.9525230">
        <ele>123.2</ele>
        <time>2020-04-19T13:40:32Z</time>
      </trkpt>
      <trkpt lat="-11.6675930" lon="166.9524260">
        <ele>121.2</ele>
        <time>2020-04-19T13:40:33Z</time>
      </trkpt>
      <trkpt lat="-11.6674660" lon="166.9522870">
        <ele>119.4</ele>
        <time>2020-04-19T13:40:34Z</time>
      </trkpt>
      <trkpt lat="-11.6673560" lon="166.9521470">
        <ele>117.4</ele>
        <time>2020-04-19T13:40:35Z</time>
      </trkpt>
      <trkpt lat="-11.6672570" lon="166.9519870">
        <ele>115.6</ele>
        <time>2020-04-19T13:40:36Z</time>
      </trkpt>
      <trkpt lat="-11.6671600" lon="166.9518150">
        <ele>114.2</ele>
        <time>2020-04-19T13:40:37Z</time>
      </trkpt>
      <trkpt lat="-11.6670710" lon="166.9516540">
        <ele>113.6</ele>
        <time>2020-04-19T13:40:38Z</time>
      </trkpt>
      <trkpt lat="-11.6669880" lon="166.9514930">
        <ele>114.2</ele>
        <time>2020-04-19T13:40:39Z</time>
      </trkpt>
      <trkpt lat="-11.6669150" lon="166.9513430">
        <ele>115.6</ele>
        <time>2020-04-19T13:40:40Z</time>
      </trkpt>
      <trkpt lat="-11.6668610" lon="166.9511930">
        <ele>117.4</ele>
        <time>2020-04-19T13:40:41Z</time>
      </trkpt>
      <trkpt lat="-11.6668110" lon="166.9510530">
        <ele>119.0</ele>
        <time>2020-04-19T13:40:42Z</time>
      </trkpt>
      <trkpt lat="-11.6667660" lon="166.9509350">
        <ele>120.0</ele>
        <time>2020-04-19T13:40:43Z</time>
      </trkpt>
      <trkpt lat="-11.6667320" lon="166.9508060">
        <ele>120.8</ele>
        <time>2020-04-19T13:40:44Z</time>
      </trkpt>
      <trkpt lat="-11.6667090" lon="166.9506990">
        <ele>121.6</ele>
        <time>2020-04-19T13:40:45Z</time>
      </trkpt>
      <trkpt lat="-11.6666950" lon="166.9505810">
        <ele>122.4</ele>
        <time>2020-04-19T13:40:46Z</time>
      </trkpt>
      <trkpt lat="-11.6666840" lon="166.9504740">
        <ele>123.0</ele>
        <time>2020-04-19T13:40:47Z</time>
      </trkpt>
      <trkpt lat="-11.6666770" lon="166.9503660">
        <ele>123.6</ele>
        <time>2020-04-19T13:40:48Z</time>
      </trkpt>
      <trkpt lat="-11.6666720" lon="166.9502810">
        <ele>124.0</ele>
        <time>2020-04-19T13:40:49Z</time>
      </trkpt>
      <trkpt lat="-11.6666700" lon="166.9501730">
        <ele>124.6</ele>
        <time>2020-04-19T13:40:50Z</time>
      </trkpt>
      <trkpt lat="-11.6666680" lon="166.9500770">
        <ele>124.8</ele>
        <time>2020-04-19T13:40:51Z</time>
      </trkpt>
      <trkpt lat="-11.6666540" lon="166.9500020">
        <ele>125.0</ele>
        <time>2020-04-19T13:40:52Z</time>
      </trkpt>
      <trkpt lat="-11.6666400" lon="166.9499050">
        <ele>125.2</ele>
        <time>2020-04-19T13:40:53Z</time>
      </trkpt>
      <trkpt lat="-11.6666210" lon="166.9498190">
        <ele>125.2</ele>
        <time>2020-04-19T13:40:54Z</time>
      </trkpt>
      <trkpt lat="-11.6666030" lon="166.9497230">
        <ele>125.0</ele>
        <time>2020-04-19T13:40:55Z</time>
      </trkpt>
      <trkpt lat="-11.6665850" lon="166.9496370">
        <ele>124.8</ele>
        <time>2020-04-19T13:40:56Z</time>
      </trkpt>
      <trkpt lat="-11.6665630" lon="166.9495400">
        <ele>124.4</ele>
        <time>2020-04-19T13:40:57Z</time>
      </trkpt>
      <trkpt lat="-11.6665400" lon="166.9494330">
        <ele>124.0</ele>
        <time>2020-04-19T13:40:58Z</time>
      </trkpt>
      <trkpt lat="-11.6665160" lon="166.9493470">
        <ele>123.4</ele>
        <time>2020-04-19T13:40:59Z</time>
      </trkpt>
      <trkpt lat="-11.6664890" lon="166.9492400">
        <ele>122.8</ele>
        <time>2020-04-19T13:41:00Z</time>
      </trkpt>
      <trkpt lat="-11.6664600" lon="166.9491110">
        <ele>122.0</ele>
        <time>2020-04-19T13:41:01Z</time>
      </trkpt>
      <trkpt lat="-11.6664290" lon="166.9490040">
        <ele>121.2</ele>
        <time>2020-04-19T13:41:02Z</time>
      </trkpt>
      <trkpt lat="-11.6663960" lon="166.9489070">
        <ele>120.2</ele>
        <time>2020-04-19T13:41:03Z</time>
      </trkpt>
      <trkpt lat="-11.6663550" lon="166.9487790">
        <ele>119.2</ele>
        <time>2020-04-19T13:41:04Z</time>
      </trkpt>
      <trkpt lat="-11.6663070" lon="166.9486610">
        <ele>118.0</ele>
        <time>2020-04-19T13:41:05Z</time>
      </trkpt>
      <trkpt lat="-11.6662390" lon="166.9485320">
        <ele>116.6</ele>
        <time>2020-04-19T13:41:06Z</time>
      </trkpt>
      <trkpt lat="-11.6661250" lon="166.9484890">
        <ele>114.8</ele>
        <time>2020-04-19T13:41:07Z</time>
      </trkpt>
      <trkpt lat="-11.6659890" lon="166.9485320">
        <ele>113.4</ele>
        <time>2020-04-19T13:41:08Z</time>
      </trkpt>
      <trkpt lat="-11.6658740" lon="166.9486280">
        <ele>112.4</ele>
        <time>2020-04-19T13:41:09Z</time>
      </trkpt>
      <trkpt lat="-11.6657750" lon="166.9487360">
        <ele>111.6</ele>
        <time>2020-04-19T13:41:10Z</time>
      </trkpt>
      <trkpt lat="-11.6656900" lon="166.9488430">
        <ele>110.6</ele>
        <time>2020-04-19T13:41:11Z</time>
      </trkpt>
      <trkpt lat="-11.6656220" lon="166.9489820">
        <ele>109.2</ele>
        <time>2020-04-19T13:41:12Z</time>
      </trkpt>
      <trkpt lat="-11.6655870" lon="166.9491330">
        <ele>107.6</ele>
        <time>2020-04-19T13:41:13Z</time>
      </trkpt>
      <trkpt lat="-11.6655880" lon="166.9492830">
        <ele>106.0</ele>
        <time>2020-04-19T13:41:14Z</time>
      </trkpt>
      <trkpt lat="-11.6656120" lon="166.9494330">
        <ele>104.4</ele>
        <time>2020-04-19T13:41:15Z</time>
      </trkpt>
      <trkpt lat="-11.6656510" lon="166.9496050">
        <ele>102.6</ele>
        <time>2020-04-19T13:41:16Z</time>
      </trkpt>
      <trkpt lat="-11.6657020" lon="166.9497550">
        <ele>101.0</ele>
        <time>2020-04-19T13:41:17Z</time>
      </trkpt>
      <trkpt lat="-11.6657670" lon="166.9499050">
        <ele>99.4</ele>
        <time>2020-04-19T13:41:18Z</time>
      </trkpt>
      <trkpt lat="-11.6658360" lon="166.9500660">
        <ele>97.8</ele>
        <time>2020-04-19T13:41:19Z</time>
      </trkpt>
      <trkpt lat="-11.6659110" lon="166.9502160">
        <ele>96.2</ele>
        <time>2020-04-19T13:41:20Z</time>
      </trkpt>
      <trkpt lat="-11.6659880" lon="166.9503660">
        <ele>94.6</ele>
        <time>2020-04-19T13:41:21Z</time>
      </trkpt>
      <trkpt lat="-11.6660560" lon="166.9505170">
        <ele>93.0</ele>
        <time>2020-04-19T13:41:22Z</time>
      </trkpt>
      <trkpt lat="-11.6661210" lon="166.9506780">
        <ele>91.2</ele>
        <time>2020-04-19T13:41:23Z</time>
      </trkpt>
      <trkpt lat="-11.6661690" lon="166.9508600">
        <ele>89.2</ele>
        <time>2020-04-19T13:41:24Z</time>
      </trkpt>
      <trkpt lat="-11.6661980" lon="166.9510100">
        <ele>87.2</ele>
        <time>2020-04-19T13:41:25Z</time>
      </trkpt>
      <trkpt lat="-11.6661980" lon="166.9511930">
        <ele>85.0</ele>
        <time>2020-04-19T13:41:26Z</time>
      </trkpt>
      <trkpt lat="-11.6661190" lon="166.9513430">
        <ele>82.6</ele>
        <time>2020-04-19T13:41:27Z</time>
      </trkpt>
      <trkpt lat="-11.6659560" lon="166.9514180">
        <ele>81.0</ele>
        <time>2020-04-19T13:41:28Z</time>
      </trkpt>
      <trkpt lat="-11.6657690" lon="166.9514070">
        <ele>80.0</ele>
        <time>2020-04-19T13:41:29Z</time>
      </trkpt>
      <trkpt lat="-11.6656100" lon="166.9513640">
        <ele>79.2</ele>
        <time>2020-04-19T13:41:30Z</time>
      </trkpt>
      <trkpt lat="-11.6654690" lon="166.9512570">
        <ele>78.2</ele>
        <time>2020-04-19T13:41:31Z</time>
      </trkpt>
      <trkpt lat="-11.6653750" lon="166.9511180">
        <ele>77.4</ele>
        <time>2020-04-19T13:41:32Z</time>
      </trkpt>
      <trkpt lat="-11.6652900" lon="166.9509670">
        <ele>76.8</ele>
        <time>2020-04-19T13:41:33Z</time>
      </trkpt>
      <trkpt lat="-11.6652150" lon="166.9508280">
        <ele>76.2</ele>
        <time>2020-04-19T13:41:34Z</time>
      </trkpt>
      <trkpt lat="-11.6651510" lon="166.9506780">
        <ele>76.0</ele>
        <time>2020-04-19T13:41:35Z</time>
      </trkpt>
      <trkpt lat="-11.6651040" lon="166.9505170">
        <ele>76.4</ele>
        <time>2020-04-19T13:41:36Z</time>
      </trkpt>
      <trkpt lat="-11.6650650" lon="166.9503770">
        <ele>76.8</ele>
        <time>2020-04-19T13:41:37Z</time>
      </trkpt>
      <trkpt lat="-11.6650140" lon="166.9502480">
        <ele>77.4</ele>
        <time>2020-04-19T13:41:38Z</time>
      </trkpt>
      <trkpt lat="-11.6649550" lon="166.9501200">
        <ele>77.8</ele>
        <time>2020-04-19T13:41:39Z</time>
      </trkpt>
      <trkpt lat="-11.6648890" lon="166.9500120">
        <ele>78.2</ele>
        <time>2020-04-19T13:41:40Z</time>
      </trkpt>
      <trkpt lat="-11.6648290" lon="166.9499050">
        <ele>78.6</ele>
        <time>2020-04-19T13:41:41Z</time>
      </trkpt>
      <trkpt lat="-11.6647780" lon="166.9497980">
        <ele>79.0</ele>
        <time>2020-04-19T13:41:42Z</time>
      </trkpt>
      <trkpt lat="-11.6647330" lon="166.9496910">
        <ele>79.4</ele>
        <time>2020-04-19T13:41:43Z</time>
      </trkpt>
      <trkpt lat="-11.6647020" lon="166.9495940">
        <ele>79.6</ele>
        <time>2020-04-19T13:41:44Z</time>
      </trkpt>
      <trkpt lat="-11.6646820" lon="166.9494870">
        <ele>80.0</ele>
        <time>2020-04-19T13:41:45Z</time>
      </trkpt>
      <trkpt lat="-11.6646750" lon="166.9493900">
        <ele>80.2</ele>
        <time>2020-04-19T13:41:46Z</time>
      </trkpt>
      <trkpt lat="-11.6646760" lon="166.9492830">
        <ele>80.4</ele>
        <time>2020-04-19T13:41:47Z</time>
      </trkpt>
      <trkpt lat="-11.6646830" lon="166.9491970">
        <ele>80.6</ele>
        <time>2020-04-19T13:41:48Z</time>
      </trkpt>
      <trkpt lat="-11.6646910" lon="166.9490900">
        <ele>80.8</ele>
        <time>2020-04-19T13:41:49Z</time>
      </trkpt>
      <trkpt lat="-11.6647000" lon="166.9489930">
        <ele>81.0</ele>
        <time>2020-04-19T13:41:50Z</time>
      </trkpt>
      <trkpt lat="-11.6647100" lon="166.9489070">
        <ele>81.2</ele>
        <time>2020-04-19T13:41:51Z</time>
      </trkpt>
      <trkpt lat="-11.6647180" lon="166.9488110">
        <ele>81.4</ele>
        <time>2020-04-19T13:41:52Z</time>
      </trkpt>
      <trkpt lat="-11.6647200" lon="166.9487360">
        <ele>81.6</ele>
        <time>2020-04-19T13:41:53Z</time>
      </trkpt>
      <trkpt lat="-11.6647180" lon="166.9486390">
        <ele>81.8</ele>
        <time>2020-04-19T13:41:54Z</time>
      </trkpt>
      <trkpt lat="-11.6647100" lon="166.9485530">
        <ele>82.0</ele>
        <time>2020-04-19T13:41:55Z</time>
      </trkpt>
      <trkpt lat="-11.6646940" lon="166.9484780">
        <ele>82.4</ele>
        <time>2020-04-19T13:41:56Z</time>
      </trkpt>
      <trkpt lat="-11.6646710" lon="166.9484030">
        <ele>82.6</ele>
        <time>2020-04-19T13:41:57Z</time>
      </trkpt>
      <trkpt lat="-11.6646410" lon="166.9483170">
        <ele>82.8</ele>
        <time>2020-04-19T13:41:58Z</time>
      </trkpt>
      <trkpt lat="-11.6646080" lon="166.9482420">
        <ele>83.2</ele>
        <time>2020-04-19T13:41:59Z</time>
      </trkpt>
      <trkpt lat="-11.6645720" lon="166.9481890">
        <ele>83.4</ele>
        <time>2020-04-19T13:42:00Z</time>
      </trkpt>
      <trkpt lat="-11.6645310" lon="166.9481130">
        <ele>83.6</ele>
        <time>2020-04-19T13:42:01Z</time>
      </trkpt>
      <trkpt lat="-11.6644920" lon="166.9480490">
        <ele>83.8</ele>
        <time>2020-04-19T13:42:02Z</time>
      </trkpt>
      <trkpt lat="-11.6644560" lon="166.9479850">
        <ele>84.2</ele>
        <time>2020-04-19T13:42:03Z</time>
      </trkpt>
      <trkpt lat="-11.6644200" lon="166.9479310">
        <ele>84.4</ele>
        <time>2020-04-19T13:42:04Z</time>
      </trkpt>
      <trkpt lat="-11.6643840" lon="166.9478450">
        <ele>84.6</ele>
        <time>2020-04-19T13:42:05Z</time>
      </trkpt>
      <trkpt lat="-11.6643460" lon="166.9477920">
        <ele>85.0</ele>
        <time>2020-04-19T13:42:06Z</time>
      </trkpt>
      <trkpt lat="-11.6643170" lon="166.9477270">
        <ele>85.2</ele>
        <time>2020-04-19T13:42:07Z</time>
      </trkpt>
      <trkpt lat="-11.6642910" lon="166.9476520">
        <ele>85.4</ele>
        <time>2020-04-19T13:42:08Z</time>
      </trkpt>
      <trkpt lat="-11.6642700" lon="166.9475880">
        <ele>85.6</ele>
        <time>2020-04-19T13:42:09Z</time>
      </trkpt>
      <trkpt lat="-11.6642560" lon="166.9475130">
        <ele>85.8</ele>
        <time>2020-04-19T13:42:10Z</time>
      </trkpt>
      <trkpt lat="-11.6642500" lon="166.9474380">
        <ele>86.0</ele>
        <time>2020-04-19T13:42:11Z</time>
      </trkpt>
      <trkpt lat="-11.6642440" lon="166.9473620">
        <ele>86.2</ele>
        <time>2020-04-19T13:42:12Z</time>
      </trkpt>
      <trkpt lat="-11.6642420" lon="166.9472870">
        <ele>86.4</ele>
        <time>2020-04-19T13:42:13Z</time>
      </trkpt>
      <trkpt lat="-11.6642390" lon="166.9472120">
        <ele>86.6</ele>
        <time>2020-04-19T13:42:14Z</time>
      </trkpt>
      <trkpt lat="-11.6642400" lon="166.9471370">
        <ele>86.8</ele>
        <time>2020-04-19T13:42:15Z</time>
      </trkpt>
      <trkpt lat="-11.6642440" lon="166.9470510">
        <ele>87.0</ele>
        <time>2020-04-19T13:42:16Z</time>
      </trkpt>
      <trkpt lat="-11.6642510" lon="166.9469760">
        <ele>87.2</ele>
        <time>2020-04-19T13:42:17Z</time>
      </trkpt>
      <trkpt lat="-11.6642650" lon="166.9469010">
        <ele>87.4</ele>
        <time>2020-04-19T13:42:18Z</time>
      </trkpt>
      <trkpt lat="-11.6642780" lon="166.9468260">
        <ele>87.6</ele>
        <time>2020-04-19T13:42:19Z</time>
      </trkpt>
      <trkpt lat="-11.6642910" lon="166.9467510">
        <ele>87.8</ele>
        <time>2020-04-19T13:42:20Z</time>
      </trkpt>
      <trkpt lat="-11.6643100" lon="166.9466760">
        <ele>88.0</ele>
        <time>2020-04-19T13:42:21Z</time>
      </trkpt>
      <trkpt lat="-11.6643320" lon="166.9466110">
        <ele>88.0</ele>
        <time>2020-04-19T13:42:22Z</time>
      </trkpt>
      <trkpt lat="-11.6643540" lon="166.9465580">
        <ele>88.2</ele>
        <time>2020-04-19T13:42:23Z</time>
      </trkpt>
      <trkpt lat="-11.6643800" lon="166.9464720">
        <ele>88.4</ele>
        <time>2020-04-19T13:42:24Z</time>
      </trkpt>
      <trkpt lat="-11.6644080" lon="166.9464180">
        <ele>88.6</ele>
        <time>2020-04-19T13:42:25Z</time>
      </trkpt>
      <trkpt lat="-11.6644360" lon="166.9463540">
        <ele>88.8</ele>
        <time>2020-04-19T13:42:26Z</time>
      </trkpt>
      <trkpt lat="-11.6644660" lon="166.9462900">
        <ele>89.0</ele>
        <time>2020-04-19T13:42:27Z</time>
      </trkpt>
      <trkpt lat="-11.6644970" lon="166.9462470">
        <ele>89.2</ele>
        <time>2020-04-19T13:42:28Z</time>
      </trkpt>
      <trkpt lat="-11.6645300" lon="166.9461820">
        <ele>89.4</ele>
        <time>2020-04-19T13:42:29Z</time>
      </trkpt>
      <trkpt lat="-11.6645620" lon="166.9461290">
        <ele>89.6</ele>
        <time>2020-04-19T13:42:30Z</time>
      </trkpt>
      <trkpt lat="-11.6645940" lon="166.9460750">
        <ele>89.8</ele>
        <time>2020-04-19T13:42:31Z</time>
      </trkpt>
      <trkpt lat="-11.6646280" lon="166.9460210">
        <ele>90.0</ele>
        <time>2020-04-19T13:42:32Z</time>
      </trkpt>
      <trkpt lat="-11.6646600" lon="166.9459680">
        <ele>90.2</ele>
        <time>2020-04-19T13:42:33Z</time>
      </trkpt>
      <trkpt lat="-11.6646960" lon="166.9459250">
        <ele>90.4</ele>
        <time>2020-04-19T13:42:34Z</time>
      </trkpt>
      <trkpt lat="-11.6647330" lon="166.9458710">
        <ele>90.6</ele>
        <time>2020-04-19T13:42:35Z</time>
      </trkpt>
      <trkpt lat="-11.6647690" lon="166.9458170">
        <ele>90.8</ele>
        <time>2020-04-19T13:42:36Z</time>
      </trkpt>
      <trkpt lat="-11.6648060" lon="166.9457750">
        <ele>91.0</ele>
        <time>2020-04-19T13:42:37Z</time>
      </trkpt>
      <trkpt lat="-11.6648430" lon="166.9457320">
        <ele>91.2</ele>
        <time>2020-04-19T13:42:38Z</time>
      </trkpt>
      <trkpt lat="-11.6648790" lon="166.9456670">
        <ele>91.4</ele>
        <time>2020-04-19T13:42:39Z</time>
      </trkpt>
      <trkpt lat="-11.6649160" lon="166.9456240">
        <ele>91.6</ele>
        <time>2020-04-19T13:42:40Z</time>
      </trkpt>
      <trkpt lat="-11.6649580" lon="166.9455710">
        <ele>91.8</ele>
        <time>2020-04-19T13:42:41Z</time>
      </trkpt>
      <trkpt lat="-11.6649950" lon="166.9455280">
        <ele>92.0</ele>
        <time>2020-04-19T13:42:42Z</time>
      </trkpt>
      <trkpt lat="-11.6650360" lon="166.9454850">
        <ele>92.2</ele>
        <time>2020-04-19T13:42:43Z</time>
      </trkpt>
      <trkpt lat="-11.6650770" lon="166.9454210">
        <ele>92.4</ele>
        <time>2020-04-19T13:42:44Z</time>
      </trkpt>
      <trkpt lat="-11.6651190" lon="166.9453780">
        <ele>92.6</ele>
        <time>2020-04-19T13:42:45Z</time>
      </trkpt>
      <trkpt lat="-11.6651590" lon="166.9453350">
        <ele>92.8</ele>
        <time>2020-04-19T13:42:46Z</time>
      </trkpt>
      <trkpt lat="-11.6652030" lon="166.9452810">
        <ele>93.0</ele>
        <time>2020-04-19T13:42:47Z</time>
      </trkpt>
      <trkpt lat="-11.6652450" lon="166.9452380">
        <ele>93.2</ele>
        <time>2020-04-19T13:42:48Z</time>
      </trkpt>
      <trkpt lat="-11.6652880" lon="166.9451840">
        <ele>93.4</ele>
        <time>2020-04-19T13:42:49Z</time>
      </trkpt>
      <trkpt lat="-11.6653310" lon="166.9451310">
        <ele>93.6</ele>
        <time>2020-04-19T13:42:50Z</time>
      </trkpt>
      <trkpt lat="-11.6653760" lon="166.9450880">
        <ele>93.8</ele>
        <time>2020-04-19T13:42:51Z</time>
      </trkpt>
      <trkpt lat="-11.6654260" lon="166.9450450">
        <ele>94.0</ele>
        <time>2020-04-19T13:42:52Z</time>
      </trkpt>
      <trkpt lat="-11.6654730" lon="166.9449910">
        <ele>94.2</ele>
        <time>2020-04-19T13:42:53Z</time>
      </trkpt>
      <trkpt lat="-11.6655220" lon="166.9449480">
        <ele>94.4</ele>
        <time>2020-04-19T13:42:54Z</time>
      </trkpt>
      <trkpt lat="-11.6655720" lon="166.9449060">
        <ele>94.6</ele>
        <time>2020-04-19T13:42:55Z</time>
      </trkpt>
      <trkpt lat="-11.6656230" lon="166.9448630">
        <ele>94.8</ele>
        <time>2020-04-19T13:42:56Z</time>
      </trkpt>
      <trkpt lat="-11.6656750" lon="166.9448300">
        <ele>95.0</ele>
        <time>2020-04-19T13:42:57Z</time>
      </trkpt>
      <trkpt lat="-11.6657360" lon="166.9447880">
        <ele>95.2</ele>
        <time>2020-04-19T13:42:58Z</time>
      </trkpt>
      <trkpt lat="-11.6657920" lon="166.9447550">
        <ele>95.4</ele>
        <time>2020-04-19T13:42:59Z</time>
      </trkpt>
      <trkpt lat="-11.6658510" lon="166.9447230">
        <ele>95.6</ele>
        <time>2020-04-19T13:43:00Z</time>
      </trkpt>
      <trkpt lat="-11.6659140" lon="166.9446910">
        <ele>95.8</ele>
        <time>2020-04-19T13:43:01Z</time>
      </trkpt>
      <trkpt lat="-11.6659800" lon="166.9446800">
        <ele>96.0</ele>
        <time>2020-04-19T13:43:02Z</time>
      </trkpt>
      <trkpt lat="-11.6660440" lon="166.9446480">
        <ele>96.2</ele>
        <time>2020-04-19T13:43:03Z</time>
      </trkpt>
      <trkpt lat="-11.6661100" lon="166.9446270">
        <ele>96.4</ele>
        <time>2020-04-19T13:43:04Z</time>
      </trkpt>
      <trkpt lat="-11.6661700" lon="166.9446160">
        <ele>96.6</ele>
        <time>2020-04-19T13:43:05Z</time>
      </trkpt>
      <trkpt lat="-11.6662310" lon="166.9445940">
        <ele>96.8</ele>
        <time>2020-04-19T13:43:06Z</time>
      </trkpt>
      <trkpt lat="-11.6662910" lon="166.9445840">
        <ele>97.0</ele>
        <time>2020-04-19T13:43:07Z</time>
      </trkpt>
      <trkpt lat="-11.6663510" lon="166.9445730">
        <ele>97.2</ele>
        <time>2020-04-19T13:43:08Z</time>
      </trkpt>
      <trkpt lat="-11.6664100" lon="166.9445510">
        <ele>97.2</ele>
        <time>2020-04-19T13:43:09Z</time>
      </trkpt>
      <trkpt lat="-11.6664690" lon="166.9445410">
        <ele>97.4</ele>
        <time>2020-04-19T13:43:10Z</time>
      </trkpt>
      <trkpt lat="-11.6665300" lon="166.9445090">
        <ele>97.6</ele>
        <time>2020-04-19T13:43:11Z</time>
      </trkpt>
      <trkpt lat="-11.6665860" lon="166.9444760">
        <ele>97.6</ele>
        <time>2020-04-19T13:43:12Z</time>
      </trkpt>
      <trkpt lat="-11.6666410" lon="166.9444440">
        <ele>97.8</ele>
        <time>2020-04-19T13:43:13Z</time>
      </trkpt>
      <trkpt lat="-11.6666960" lon="166.9444120">
        <ele>97.8</ele>
        <time>2020-04-19T13:43:14Z</time>
      </trkpt>
      <trkpt lat="-11.6667440" lon="166.9443690">
        <ele>98.0</ele>
        <time>2020-04-19T13:43:15Z</time>
      </trkpt>
      <trkpt lat="-11.6667920" lon="166.9443260">
        <ele>98.0</ele>
        <time>2020-04-19T13:43:16Z</time>
      </trkpt>
      <trkpt lat="-11.6668390" lon="166.9442830">
        <ele>98.2</ele>
        <time>2020-04-19T13:43:17Z</time>
      </trkpt>
      <trkpt lat="-11.6668850" lon="166.9442300">
        <ele>98.2</ele>
        <time>2020-04-19T13:43:18Z</time>
      </trkpt>
      <trkpt lat="-11.6669280" lon="166.9441870">
        <ele>98.2</ele>
        <time>2020-04-19T13:43:19Z</time>
      </trkpt>
      <trkpt lat="-11.6669720" lon="166.9441220">
        <ele>98.2</ele>
        <time>2020-04-19T13:43:20Z</time>
      </trkpt>
      <trkpt lat="-11.6670110" lon="166.9440690">
        <ele>98.2</ele>
        <time>2020-04-19T13:43:21Z</time>
      </trkpt>
      <trkpt lat="-11.6670540" lon="166.9440150">
        <ele>98.2</ele>
        <time>2020-04-19T13:43:22Z</time>
      </trkpt>
      <trkpt lat="-11.6670940" lon="166.9439610">
        <ele>98.2</ele>
        <time>2020-04-19T13:43:23Z</time>
      </trkpt>
      <trkpt lat="-11.6671330" lon="166.9438970">
        <ele>98.2</ele>
        <time>2020-04-19T13:43:24Z</time>
      </trkpt>
      <trkpt lat="-11.6671730" lon="166.9438330">
        <ele>98.2</ele>
        <time>2020-04-19T13:43:25Z</time>
      </trkpt>
      <trkpt lat="-11.6672140" lon="166.9437790">
        <ele>98.2</ele>
        <time>2020-04-19T13:43:26Z</time>
      </trkpt>
      <trkpt lat="-11.6672540" lon="166.9437150">
        <ele>98.2</ele>
        <time>2020-04-19T13:43:27Z</time>
      </trkpt>
      <trkpt lat="-11.6672950" lon="166.9436500">
        <ele>98.2</ele>
        <time>2020-04-19T13:43:28Z</time>
      </trkpt>
      <trkpt lat="-11.6673370" lon="166.9435750">
        <ele>98.2</ele>
        <time>2020-04-19T13:43:29Z</time>
      </trkpt>
      <trkpt lat="-11.6673760" lon="166.9435110">
        <ele>98.2</ele>
        <time>2020-04-19T13:43:30Z</time>
      </trkpt>
      <trkpt lat="-11.6674190" lon="166.9434570">
        <ele>98.2</ele>
        <time>2020-04-19T13:43:31Z</time>
      </trkpt>
      <trkpt lat="-11.6674620" lon="166.9433930">
        <ele>98.0</ele>
        <time>2020-04-19T13:43:32Z</time>
      </trkpt>
      <trkpt lat="-11.6675090" lon="166.9433280">
        <ele>98.0</ele>
        <time>2020-04-19T13:43:33Z</time>
      </trkpt>
      <trkpt lat="-11.6675560" lon="166.9432750">
        <ele>98.0</ele>
        <time>2020-04-19T13:43:34Z</time>
      </trkpt>
      <trkpt lat="-11.6676030" lon="166.9432100">
        <ele>98.0</ele>
        <time>2020-04-19T13:43:35Z</time>
      </trkpt>
      <trkpt lat="-11.6676550" lon="166.9431460">
        <ele>98.2</ele>
        <time>2020-04-19T13:43:36Z</time>
      </trkpt>
      <trkpt lat="-11.6677100" lon="166.9430920">
        <ele>98.2</ele>
        <time>2020-04-19T13:43:37Z</time>
      </trkpt>
      <trkpt lat="-11.6677670" lon="166.9430390">
        <ele>98.2</ele>
        <time>2020-04-19T13:43:38Z</time>
      </trkpt>
      <trkpt lat="-11.6678320" lon="166.9429850">
        <ele>98.4</ele>
        <time>2020-04-19T13:43:39Z</time>
      </trkpt>
      <trkpt lat="-11.6678850" lon="166.9429310">
        <ele>98.4</ele>
        <time>2020-04-19T13:43:40Z</time>
      </trkpt>
      <trkpt lat="-11.6679470" lon="166.9428880">
        <ele>98.6</ele>
        <time>2020-04-19T13:43:41Z</time>
      </trkpt>
      <trkpt lat="-11.6680060" lon="166.9428460">
        <ele>98.8</ele>
        <time>2020-04-19T13:43:42Z</time>
      </trkpt>
      <trkpt lat="-11.6680710" lon="166.9428130">
        <ele>99.0</ele>
        <time>2020-04-19T13:43:43Z</time>
      </trkpt>
      <trkpt lat="-11.6681340" lon="166.9427700">
        <ele>99.2</ele>
        <time>2020-04-19T13:43:44Z</time>
      </trkpt>
      <trkpt lat="-11.6681980" lon="166.9427490">
        <ele>99.4</ele>
        <time>2020-04-19T13:43:45Z</time>
      </trkpt>
      <trkpt lat="-11.6682640" lon="166.9427280">
        <ele>99.6</ele>
        <time>2020-04-19T13:43:46Z</time>
      </trkpt>
      <trkpt lat="-11.6683320" lon="166.9426950">
        <ele>99.8</ele>
        <time>2020-04-19T13:43:47Z</time>
      </trkpt>
      <trkpt lat="-11.6683980" lon="166.9426630">
        <ele>100.0</ele>
        <time>2020-04-19T13:43:48Z</time>
      </trkpt>
      <trkpt lat="-11.6684680" lon="166.9426420">
        <ele>100.0</ele>
        <time>2020-04-19T13:43:49Z</time>
      </trkpt>
      <trkpt lat="-11.6685360" lon="166.9426310">
        <ele>100.2</ele>
        <time>2020-04-19T13:43:50Z</time>
      </trkpt>
      <trkpt lat="-11.6686070" lon="166.9426200">
        <ele>100.2</ele>
        <time>2020-04-19T13:43:51Z</time>
      </trkpt>
      <trkpt lat="-11.6686810" lon="166.9425990">
        <ele>100.0</ele>
        <time>2020-04-19T13:43:52Z</time>
      </trkpt>
      <trkpt lat="-11.6687570" lon="166.9425880">
        <ele>100.0</ele>
        <time>2020-04-19T13:43:53Z</time>
      </trkpt>
      <trkpt lat="-11.6688360" lon="166.9425670">
        <ele>99.8</ele>
        <time>2020-04-19T13:43:54Z</time>
      </trkpt>
      <trkpt lat="-11.6689170" lon="166.9425560">
        <ele>99.8</ele>
        <time>2020-04-19T13:43:55Z</time>
      </trkpt>
      <trkpt lat="-11.6690030" lon="166.9425340">
        <ele>99.6</ele>
        <time>2020-04-19T13:43:56Z</time>
      </trkpt>
      <trkpt lat="-11.6690830" lon="166.9425130">
        <ele>99.4</ele>
        <time>2020-04-19T13:43:57Z</time>
      </trkpt>
      <trkpt lat="-11.6691740" lon="166.9424920">
        <ele>99.0</ele>
        <time>2020-04-19T13:43:58Z</time>
      </trkpt>
      <trkpt lat="-11.6692630" lon="166.9424810">
        <ele>98.8</ele>
        <time>2020-04-19T13:43:59Z</time>
      </trkpt>
      <trkpt lat="-11.6693510" lon="166.9424590">
        <ele>98.6</ele>
        <time>2020-04-19T13:44:00Z</time>
      </trkpt>
      <trkpt lat="-11.6694480" lon="166.9424490">
        <ele>98.2</ele>
        <time>2020-04-19T13:44:01Z</time>
      </trkpt>
      <trkpt lat="-11.6695440" lon="166.9424380">
        <ele>97.8</ele>
        <time>2020-04-19T13:44:02Z</time>
      </trkpt>
      <trkpt lat="-11.6696420" lon="166.9424160">
        <ele>97.6</ele>
        <time>2020-04-19T13:44:03Z</time>
      </trkpt>
      <trkpt lat="-11.6697470" lon="166.9424060">
        <ele>97.2</ele>
        <time>2020-04-19T13:44:04Z</time>
      </trkpt>
      <trkpt lat="-11.6698520" lon="166.9423840">
        <ele>96.8</ele>
        <time>2020-04-19T13:44:05Z</time>
      </trkpt>
      <trkpt lat="-11.6699560" lon="166.9423740">
        <ele>96.4</ele>
        <time>2020-04-19T13:44:06Z</time>
      </trkpt>
      <trkpt lat="-11.6700650" lon="166.9423740">
        <ele>96.0</ele>
        <time>2020-04-19T13:44:07Z</time>
      </trkpt>
      <trkpt lat="-11.6701770" lon="166.9423520">
        <ele>95.6</ele>
        <time>2020-04-19T13:44:08Z</time>
      </trkpt>
      <trkpt lat="-11.6702930" lon="166.9423520">
        <ele>95.2</ele>
        <time>2020-04-19T13:44:09Z</time>
      </trkpt>
      <trkpt lat="-11.6704090" lon="166.9423410">
        <ele>94.8</ele>
        <time>2020-04-19T13:44:10Z</time>
      </trkpt>
      <trkpt lat="-11.6705220" lon="166.9423410">
        <ele>94.4</ele>
        <time>2020-04-19T13:44:11Z</time>
      </trkpt>
      <trkpt lat="-11.6706450" lon="166.9423520">
        <ele>94.0</ele>
        <time>2020-04-19T13:44:12Z</time>
      </trkpt>
      <trkpt lat="-11.6707550" lon="166.9423520">
        <ele>93.6</ele>
        <time>2020-04-19T13:44:13Z</time>
      </trkpt>
      <trkpt lat="-11.6708690" lon="166.9423740">
        <ele>93.2</ele>
        <time>2020-04-19T13:44:14Z</time>
      </trkpt>
      <trkpt lat="-11.6709860" lon="166.9423840">
        <ele>92.8</ele>
        <time>2020-04-19T13:44:15Z</time>
      </trkpt>
      <trkpt lat="-11.6711010" lon="166.9424060">
        <ele>92.4</ele>
        <time>2020-04-19T13:44:16Z</time>
      </trkpt>
      <trkpt lat="-11.6712180" lon="166.9424380">
        <ele>92.0</ele>
        <time>2020-04-19T13:44:17Z</time>
      </trkpt>
      <trkpt lat="-11.6713290" lon="166.9424590">
        <ele>91.6</ele>
        <time>2020-04-19T13:44:18Z</time>
      </trkpt>
      <trkpt lat="-11.6714460" lon="166.9424920">
        <ele>91.2</ele>
        <time>2020-04-19T13:44:19Z</time>
      </trkpt>
      <trkpt lat="-11.6715590" lon="166.9425340">
        <ele>91.0</ele>
        <time>2020-04-19T13:44:20Z</time>
      </trkpt>
      <trkpt lat="-11.6716690" lon="166.9425880">
        <ele>90.6</ele>
        <time>2020-04-19T13:44:21Z</time>
      </trkpt>
      <trkpt lat="-11.6717810" lon="166.9426310">
        <ele>90.2</ele>
        <time>2020-04-19T13:44:22Z</time>
      </trkpt>
      <trkpt lat="-11.6718900" lon="166.9426740">
        <ele>89.8</ele>
        <time>2020-04-19T13:44:23Z</time>
      </trkpt>
      <trkpt lat="-11.6720030" lon="166.9427280">
        <ele>89.6</ele>
        <time>2020-04-19T13:44:24Z</time>
      </trkpt>
      <trkpt lat="-11.6721130" lon="166.9427700">
        <ele>89.2</ele>
        <time>2020-04-19T13:44:25Z</time>
      </trkpt>
      <trkpt lat="-11.6722270" lon="166.9428240">
        <ele>88.8</ele>
        <time>2020-04-19T13:44:26Z</time>
      </trkpt>
      <trkpt lat="-11.6723380" lon="166.9428780">
        <ele>88.4</ele>
        <time>2020-04-19T13:44:27Z</time>
      </trkpt>
      <trkpt lat="-11.6724450" lon="166.9429210">
        <ele>88.0</ele>
        <time>2020-04-19T13:44:28Z</time>
      </trkpt>
      <trkpt lat="-11.6725500" lon="166.9429850">
        <ele>87.8</ele>
        <time>2020-04-19T13:44:29Z</time>
      </trkpt>
      <trkpt lat="-11.6726530" lon="166.9430280">
        <ele>87.4</ele>
        <time>2020-04-19T13:44:30Z</time>
      </trkpt>
      <trkpt lat="-11.6727600" lon="166.9430920">
        <ele>87.0</ele>
        <time>2020-04-19T13:44:31Z</time>
      </trkpt>
      <trkpt lat="-11.6728610" lon="166.9431350">
        <ele>86.8</ele>
        <time>2020-04-19T13:44:32Z</time>
      </trkpt>
      <trkpt lat="-11.6729680" lon="166.9431780">
        <ele>86.4</ele>
        <time>2020-04-19T13:44:33Z</time>
      </trkpt>
      <trkpt lat="-11.6730780" lon="166.9432210">
        <ele>86.0</ele>
        <time>2020-04-19T13:44:34Z</time>
      </trkpt>
      <trkpt lat="-11.6731950" lon="166.9432750">
        <ele>85.6</ele>
        <time>2020-04-19T13:44:35Z</time>
      </trkpt>
      <trkpt lat="-11.6733060" lon="166.9433180">
        <ele>85.2</ele>
        <time>2020-04-19T13:44:36Z</time>
      </trkpt>
      <trkpt lat="-11.6734280" lon="166.9433610">
        <ele>84.8</ele>
        <time>2020-04-19T13:44:37Z</time>
      </trkpt>
      <trkpt lat="-11.6735450" lon="166.9434140">
        <ele>84.4</ele>
        <time>2020-04-19T13:44:38Z</time>
      </trkpt>
      <trkpt lat="-11.6736700" lon="166.9434360">
        <ele>83.8</ele>
        <time>2020-04-19T13:44:39Z</time>
      </trkpt>
      <trkpt lat="-11.6737940" lon="166.9434570">
        <ele>83.4</ele>
        <time>2020-04-19T13:44:40Z</time>
      </trkpt>
      <trkpt lat="-11.6739230" lon="166.9434680">
        <ele>82.8</ele>
        <time>2020-04-19T13:44:41Z</time>
      </trkpt>
      <trkpt lat="-11.6740470" lon="166.9434680">
        <ele>82.2</ele>
        <time>2020-04-19T13:44:42Z</time>
      </trkpt>
      <trkpt lat="-11.6741850" lon="166.9434570">
        <ele>81.4</ele>
        <time>2020-04-19T13:44:43Z</time>
      </trkpt>
      <trkpt lat="-11.6743070" lon="166.9434250">
        <ele>80.8</ele>
        <time>2020-04-19T13:44:44Z</time>
      </trkpt>
      <trkpt lat="-11.6744370" lon="166.9433820">
        <ele>80.0</ele>
        <time>2020-04-19T13:44:45Z</time>
      </trkpt>
      <trkpt lat="-11.6745700" lon="166.9433280">
        <ele>79.2</ele>
        <time>2020-04-19T13:44:46Z</time>
      </trkpt>
      <trkpt lat="-11.6747020" lon="166.9433070">
        <ele>78.6</ele>
        <time>2020-04-19T13:44:47Z</time>
      </trkpt>
      <trkpt lat="-11.6748260" lon="166.9432430">
        <ele>77.8</ele>
        <time>2020-04-19T13:44:48Z</time>
      </trkpt>
      <trkpt lat="-11.6749460" lon="166.9431670">
        <ele>77.0</ele>
        <time>2020-04-19T13:44:49Z</time>
      </trkpt>
      <trkpt lat="-11.6750720" lon="166.9430920">
        <ele>76.2</ele>
        <time>2020-04-19T13:44:50Z</time>
      </trkpt>
      <trkpt lat="-11.6752040" lon="166.9430280">
        <ele>75.6</ele>
        <time>2020-04-19T13:44:51Z</time>
      </trkpt>
      <trkpt lat="-11.6753370" lon="166.9429960">
        <ele>75.2</ele>
        <time>2020-04-19T13:44:52Z</time>
      </trkpt>
      <trkpt lat="-11.6754790" lon="166.9429640">
        <ele>74.6</ele>
        <time>2020-04-19T13:44:53Z</time>
      </trkpt>
      <trkpt lat="-11.6756220" lon="166.9429530">
        <ele>74.2</ele>
        <time>2020-04-19T13:44:54Z</time>
      </trkpt>
      <trkpt lat="-11.6757680" lon="166.9429310">
        <ele>73.8</ele>
        <time>2020-04-19T13:44:55Z</time>
      </trkpt>
      <trkpt lat="-11.6759080" lon="166.9429210">
        <ele>73.6</ele>
        <time>2020-04-19T13:44:56Z</time>
      </trkpt>
      <trkpt lat="-11.6760460" lon="166.9429210">
        <ele>73.2</ele>
        <time>2020-04-19T13:44:57Z</time>
      </trkpt>
      <trkpt lat="-11.6761820" lon="166.9429310">
        <ele>72.8</ele>
        <time>2020-04-19T13:44:58Z</time>
      </trkpt>
      <trkpt lat="-11.6763160" lon="166.9429530">
        <ele>72.4</ele>
        <time>2020-04-19T13:44:59Z</time>
      </trkpt>
      <trkpt lat="-11.6764540" lon="166.9429850">
        <ele>72.0</ele>
        <time>2020-04-19T13:45:00Z</time>
      </trkpt>
      <trkpt lat="-11.6765950" lon="166.9429850">
        <ele>71.6</ele>
        <time>2020-04-19T13:45:01Z</time>
      </trkpt>
      <trkpt lat="-11.6767100" lon="166.9429530">
        <ele>71.2</ele>
        <time>2020-04-19T13:45:02Z</time>
      </trkpt>
      <trkpt lat="-11.6768000" lon="166.9428460">
        <ele>70.6</ele>
        <time>2020-04-19T13:45:03Z</time>
      </trkpt>
      <trkpt lat="-11.6768430" lon="166.9427280">
        <ele>70.0</ele>
        <time>2020-04-19T13:45:04Z</time>
      </trkpt>
      <trkpt lat="-11.6768190" lon="166.9425880">
        <ele>69.4</ele>
        <time>2020-04-19T13:45:05Z</time>
      </trkpt>
      <trkpt lat="-11.6767680" lon="166.9424590">
        <ele>69.0</ele>
        <time>2020-04-19T13:45:06Z</time>
      </trkpt>
      <trkpt lat="-11.6767560" lon="166.9423310">
        <ele>68.6</ele>
        <time>2020-04-19T13:45:07Z</time>
      </trkpt>
      <trkpt lat="-11.6768160" lon="166.9422020">
        <ele>68.2</ele>
        <time>2020-04-19T13:45:08Z</time>
      </trkpt>
      <trkpt lat="-11.6769150" lon="166.9421270">
        <ele>67.8</ele>
        <time>2020-04-19T13:45:09Z</time>
      </trkpt>
      <trkpt lat="-11.6770450" lon="166.9421160">
        <ele>67.6</ele>
        <time>2020-04-19T13:45:10Z</time>
      </trkpt>
      <trkpt lat="-11.6771590" lon="166.9421370">
        <ele>67.2</ele>
        <time>2020-04-19T13:45:11Z</time>
      </trkpt>
      <trkpt lat="-11.6772670" lon="166.9422020">
        <ele>67.0</ele>
        <time>2020-04-19T13:45:12Z</time>
      </trkpt>
      <trkpt lat="-11.6773700" lon="166.9422660">
        <ele>66.8</ele>
        <time>2020-04-19T13:45:13Z</time>
      </trkpt>
      <trkpt lat="-11.6774780" lon="166.9423090">
        <ele>66.6</ele>
        <time>2020-04-19T13:45:14Z</time>
      </trkpt>
      <trkpt lat="-11.6775990" lon="166.9423090">
        <ele>66.2</ele>
        <time>2020-04-19T13:45:15Z</time>
      </trkpt>
      <trkpt lat="-11.6777130" lon="166.9422980">
        <ele>66.0</ele>
        <time>2020-04-19T13:45:16Z</time>
      </trkpt>
      <trkpt lat="-11.6778200" lon="166.9422660">
        <ele>65.6</ele>
        <time>2020-04-19T13:45:17Z</time>
      </trkpt>
      <trkpt lat="-11.6779340" lon="166.9422340">
        <ele>65.4</ele>
        <time>2020-04-19T13:45:18Z</time>
      </trkpt>
      <trkpt lat="-11.6780390" lon="166.9421910">
        <ele>65.0</ele>
        <time>2020-04-19T13:45:19Z</time>
      </trkpt>
      <trkpt lat="-11.6781410" lon="166.9421370">
        <ele>64.8</ele>
        <time>2020-04-19T13:45:20Z</time>
      </trkpt>
      <trkpt lat="-11.6782460" lon="166.9420950">
        <ele>64.6</ele>
        <time>2020-04-19T13:45:21Z</time>
      </trkpt>
      <trkpt lat="-11.6783350" lon="166.9420410">
        <ele>64.2</ele>
        <time>2020-04-19T13:45:22Z</time>
      </trkpt>
      <trkpt lat="-11.6784050" lon="166.9419550">
        <ele>63.8</ele>
        <time>2020-04-19T13:45:23Z</time>
      </trkpt>
      <trkpt lat="-11.6784080" lon="166.9418370">
        <ele>63.2</ele>
        <time>2020-04-19T13:45:24Z</time>
      </trkpt>
      <trkpt lat="-11.6783620" lon="166.9417510">
        <ele>63.0</ele>
        <time>2020-04-19T13:45:25Z</time>
      </trkpt>
      <trkpt lat="-11.6782900" lon="166.9416550">
        <ele>62.6</ele>
        <time>2020-04-19T13:45:26Z</time>
      </trkpt>
      <trkpt lat="-11.6781960" lon="166.9416120">
        <ele>62.4</ele>
        <time>2020-04-19T13:45:27Z</time>
      </trkpt>
      <trkpt lat="-11.6780890" lon="166.9415900">
        <ele>62.2</ele>
        <time>2020-04-19T13:45:28Z</time>
      </trkpt>
      <trkpt lat="-11.6779750" lon="166.9415900">
        <ele>62.0</ele>
        <time>2020-04-19T13:45:29Z</time>
      </trkpt>
      <trkpt lat="-11.6778730" lon="166.9415900">
        <ele>61.8</ele>
        <time>2020-04-19T13:45:30Z</time>
      </trkpt>
      <trkpt lat="-11.6777690" lon="166.9416120">
        <ele>61.8</ele>
        <time>2020-04-19T13:45:31Z</time>
      </trkpt>
      <trkpt lat="-11.6776670" lon="166.9416120">
        <ele>61.6</ele>
        <time>2020-04-19T13:45:32Z</time>
      </trkpt>
      <trkpt lat="-11.6775680" lon="166.9416120">
        <ele>61.4</ele>
        <time>2020-04-19T13:45:33Z</time>
      </trkpt>
      <trkpt lat="-11.6774780" lon="166.9415580">
        <ele>61.2</ele>
        <time>2020-04-19T13:45:34Z</time>
      </trkpt>
      <trkpt lat="-11.6774010" lon="166.9415040">
        <ele>61.0</ele>
        <time>2020-04-19T13:45:35Z</time>
      </trkpt>
      <trkpt lat="-11.6773460" lon="166.9414290">
        <ele>60.6</ele>
        <time>2020-04-19T13:45:36Z</time>
      </trkpt>
      <trkpt lat="-11.6773120" lon="166.9413330">
        <ele>60.4</ele>
        <time>2020-04-19T13:45:37Z</time>
      </trkpt>
      <trkpt lat="-11.6773010" lon="166.9412260">
        <ele>60.0</ele>
        <time>2020-04-19T13:45:38Z</time>
      </trkpt>
      <trkpt lat="-11.6773170" lon="166.9411400">
        <ele>59.6</ele>
        <time>2020-04-19T13:45:39Z</time>
      </trkpt>
      <trkpt lat="-11.6773640" lon="166.9410430">
        <ele>59.2</ele>
        <time>2020-04-19T13:45:40Z</time>
      </trkpt>
      <trkpt lat="-11.6774340" lon="166.9409680">
        <ele>59.0</ele>
        <time>2020-04-19T13:45:41Z</time>
      </trkpt>
      <trkpt lat="-11.6775200" lon="166.9409040">
        <ele>58.8</ele>
        <time>2020-04-19T13:45:42Z</time>
      </trkpt>
      <trkpt lat="-11.6776030" lon="166.9408610">
        <ele>58.4</ele>
        <time>2020-04-19T13:45:43Z</time>
      </trkpt>
      <trkpt lat="-11.6776970" lon="166.9408180">
        <ele>58.2</ele>
        <time>2020-04-19T13:45:44Z</time>
      </trkpt>
      <trkpt lat="-11.6777830" lon="166.9407640">
        <ele>58.0</ele>
        <time>2020-04-19T13:45:45Z</time>
      </trkpt>
      <trkpt lat="-11.6778690" lon="166.9407110">
        <ele>57.8</ele>
        <time>2020-04-19T13:45:46Z</time>
      </trkpt>
      <trkpt lat="-11.6779530" lon="166.9406680">
        <ele>57.6</ele>
        <time>2020-04-19T13:45:47Z</time>
      </trkpt>
      <trkpt lat="-11.6780310" lon="166.9406030">
        <ele>57.6</ele>
        <time>2020-04-19T13:45:48Z</time>
      </trkpt>
      <trkpt lat="-11.6781050" lon="166.9405390">
        <ele>57.6</ele>
        <time>2020-04-19T13:45:49Z</time>
      </trkpt>
      <trkpt lat="-11.6781770" lon="166.9404750">
        <ele>57.6</ele>
        <time>2020-04-19T13:45:50Z</time>
      </trkpt>
      <trkpt lat="-11.6782440" lon="166.9404210">
        <ele>57.6</ele>
        <time>2020-04-19T13:45:51Z</time>
      </trkpt>
      <trkpt lat="-11.6783050" lon="166.9403560">
        <ele>57.6</ele>
        <time>2020-04-19T13:45:52Z</time>
      </trkpt>
      <trkpt lat="-11.6783620" lon="166.9402920">
        <ele>57.6</ele>
        <time>2020-04-19T13:45:53Z</time>
      </trkpt>
      <trkpt lat="-11.6784190" lon="166.9402170">
        <ele>57.8</ele>
        <time>2020-04-19T13:45:54Z</time>
      </trkpt>
      <trkpt lat="-11.6784760" lon="166.9401630">
        <ele>57.8</ele>
        <time>2020-04-19T13:45:55Z</time>
      </trkpt>
      <trkpt lat="-11.6785280" lon="166.9400990">
        <ele>57.8</ele>
        <time>2020-04-19T13:45:56Z</time>
      </trkpt>
      <trkpt lat="-11.6785750" lon="166.9400240">
        <ele>57.8</ele>
        <time>2020-04-19T13:45:57Z</time>
      </trkpt>
      <trkpt lat="-11.6786210" lon="166.9399490">
        <ele>57.8</ele>
        <time>2020-04-19T13:45:58Z</time>
      </trkpt>
      <trkpt lat="-11.6786610" lon="166.9398840">
        <ele>57.8</ele>
        <time>2020-04-19T13:45:59Z</time>
      </trkpt>
      <trkpt lat="-11.6787010" lon="166.9398090">
        <ele>57.8</ele>
        <time>2020-04-19T13:46:00Z</time>
      </trkpt>
      <trkpt lat="-11.6787400" lon="166.9397450">
        <ele>57.8</ele>
        <time>2020-04-19T13:46:01Z</time>
      </trkpt>
      <trkpt lat="-11.6787750" lon="166.9396700">
        <ele>57.8</ele>
        <time>2020-04-19T13:46:02Z</time>
      </trkpt>
      <trkpt lat="-11.6788100" lon="166.9395950">
        <ele>57.8</ele>
        <time>2020-04-19T13:46:03Z</time>
      </trkpt>
      <trkpt lat="-11.6788420" lon="166.9395200">
        <ele>57.8</ele>
        <time>2020-04-19T13:46:04Z</time>
      </trkpt>
      <trkpt lat="-11.6788740" lon="166.9394450">
        <ele>57.8</ele>
        <time>2020-04-19T13:46:05Z</time>
      </trkpt>
      <trkpt lat="-11.6789050" lon="166.9393690">
        <ele>57.8</ele>
        <time>2020-04-19T13:46:06Z</time>
      </trkpt>
      <trkpt lat="-11.6789250" lon="166.9392940">
        <ele>57.8</ele>
        <time>2020-04-19T13:46:07Z</time>
      </trkpt>
      <trkpt lat="-11.6789380" lon="166.9392090">
        <ele>57.8</ele>
        <time>2020-04-19T13:46:08Z</time>
      </trkpt>
      <trkpt lat="-11.6789430" lon="166.9391330">
        <ele>57.8</ele>
        <time>2020-04-19T13:46:09Z</time>
      </trkpt>
      <trkpt lat="-11.6789430" lon="166.9390580">
        <ele>57.8</ele>
        <time>2020-04-19T13:46:10Z</time>
      </trkpt>
      <trkpt lat="-11.6789400" lon="166.9389830">
        <ele>57.8</ele>
        <time>2020-04-19T13:46:11Z</time>
      </trkpt>
      <trkpt lat="-11.6789350" lon="166.9389080">
        <ele>57.8</ele>
        <time>2020-04-19T13:46:12Z</time>
      </trkpt>
      <trkpt lat="-11.6789280" lon="166.9388330">
        <ele>57.8</ele>
        <time>2020-04-19T13:46:13Z</time>
      </trkpt>
      <trkpt lat="-11.6789190" lon="166.9387580">
        <ele>57.8</ele>
        <time>2020-04-19T13:46:14Z</time>
      </trkpt>
      <trkpt lat="-11.6789050" lon="166.9386830">
        <ele>57.8</ele>
        <time>2020-04-19T13:46:15Z</time>
      </trkpt>
      <trkpt lat="-11.6788890" lon="166.9386080">
        <ele>57.8</ele>
        <time>2020-04-19T13:46:16Z</time>
      </trkpt>
      <trkpt lat="-11.6788700" lon="166.9385220">
        <ele>57.8</ele>
        <time>2020-04-19T13:46:17Z</time>
      </trkpt>
      <trkpt lat="-11.6788520" lon="166.9384470">
        <ele>57.8</ele>
        <time>2020-04-19T13:46:18Z</time>
      </trkpt>
      <trkpt lat="-11.6788360" lon="166.9383720">
        <ele>57.8</ele>
        <time>2020-04-19T13:46:19Z</time>
      </trkpt>
      <trkpt lat="-11.6788180" lon="166.9382970">
        <ele>57.8</ele>
        <time>2020-04-19T13:46:20Z</time>
      </trkpt>
      <trkpt lat="-11.6787970" lon="166.9382210">
        <ele>57.8</ele>
        <time>2020-04-19T13:46:21Z</time>
      </trkpt>
      <trkpt lat="-11.6787750" lon="166.9381570">
        <ele>57.8</ele>
        <time>2020-04-19T13:46:22Z</time>
      </trkpt>
      <trkpt lat="-11.6787540" lon="166.9380820">
        <ele>57.8</ele>
        <time>2020-04-19T13:46:23Z</time>
      </trkpt>
      <trkpt lat="-11.6787320" lon="166.9380070">
        <ele>57.8</ele>
        <time>2020-04-19T13:46:24Z</time>
      </trkpt>
      <trkpt lat="-11.6787180" lon="166.9379430">
        <ele>57.8</ele>
        <time>2020-04-19T13:46:25Z</time>
      </trkpt>
      <trkpt lat="-11.6787120" lon="166.9378670">
        <ele>57.8</ele>
        <time>2020-04-19T13:46:26Z</time>
      </trkpt>
      <trkpt lat="-11.6787190" lon="166.9377920">
        <ele>57.8</ele>
        <time>2020-04-19T13:46:27Z</time>
      </trkpt>
      <trkpt lat="-11.6787400" lon="166.9377280">
        <ele>57.8</ele>
        <time>2020-04-19T13:46:28Z</time>
      </trkpt>
      <trkpt lat="-11.6787790" lon="166.9376740">
        <ele>57.6</ele>
        <time>2020-04-19T13:46:29Z</time>
      </trkpt>
      <trkpt lat="-11.6788290" lon="166.9376100">
        <ele>57.6</ele>
        <time>2020-04-19T13:46:30Z</time>
      </trkpt>
      <trkpt lat="-11.6788850" lon="166.9375670">
        <ele>57.4</ele>
        <time>2020-04-19T13:46:31Z</time>
      </trkpt>
      <trkpt lat="-11.6789470" lon="166.9375350">
        <ele>57.4</ele>
        <time>2020-04-19T13:46:32Z</time>
      </trkpt>
      <trkpt lat="-11.6790070" lon="166.9374920">
        <ele>57.2</ele>
        <time>2020-04-19T13:46:33Z</time>
      </trkpt>
      <trkpt lat="-11.6790760" lon="166.9374600">
        <ele>57.2</ele>
        <time>2020-04-19T13:46:34Z</time>
      </trkpt>
      <trkpt lat="-11.6791400" lon="166.9374170">
        <ele>57.0</ele>
        <time>2020-04-19T13:46:35Z</time>
      </trkpt>
      <trkpt lat="-11.6792040" lon="166.9373630">
        <ele>57.0</ele>
        <time>2020-04-19T13:46:36Z</time>
      </trkpt>
      <trkpt lat="-11.6792650" lon="166.9373200">
        <ele>56.8</ele>
        <time>2020-04-19T13:46:37Z</time>
      </trkpt>
      <trkpt lat="-11.6793170" lon="166.9372560">
        <ele>56.8</ele>
        <time>2020-04-19T13:46:38Z</time>
      </trkpt>
      <trkpt lat="-11.6793600" lon="166.9371810">
        <ele>56.8</ele>
        <time>2020-04-19T13:46:39Z</time>
      </trkpt>
      <trkpt lat="-11.6794000" lon="166.9371270">
        <ele>56.6</ele>
        <time>2020-04-19T13:46:40Z</time>
      </trkpt>
      <trkpt lat="-11.6794360" lon="166.9370410">
        <ele>56.6</ele>
        <time>2020-04-19T13:46:41Z</time>
      </trkpt>
      <trkpt lat="-11.6794710" lon="166.9369660">
        <ele>56.6</ele>
        <time>2020-04-19T13:46:42Z</time>
      </trkpt>
      <trkpt lat="-11.6794990" lon="166.9368910">
        <ele>56.8</ele>
        <time>2020-04-19T13:46:43Z</time>
      </trkpt>
      <trkpt lat="-11.6795220" lon="166.9368160">
        <ele>56.8</ele>
        <time>2020-04-19T13:46:44Z</time>
      </trkpt>
      <trkpt lat="-11.6795380" lon="166.9367410">
        <ele>56.8</ele>
        <time>2020-04-19T13:46:45Z</time>
      </trkpt>
      <trkpt lat="-11.6795410" lon="166.9366660">
        <ele>56.8</ele>
        <time>2020-04-19T13:46:46Z</time>
      </trkpt>
      <trkpt lat="-11.6795280" lon="166.9365910">
        <ele>57.0</ele>
        <time>2020-04-19T13:46:47Z</time>
      </trkpt>
      <trkpt lat="-11.6794990" lon="166.9365160">
        <ele>57.2</ele>
        <time>2020-04-19T13:46:48Z</time>
      </trkpt>
      <trkpt lat="-11.6794660" lon="166.9364510">
        <ele>57.2</ele>
        <time>2020-04-19T13:46:49Z</time>
      </trkpt>
      <trkpt lat="-11.6794300" lon="166.9363760">
        <ele>57.4</ele>
        <time>2020-04-19T13:46:50Z</time>
      </trkpt>
      <trkpt lat="-11.6793940" lon="166.9363120">
        <ele>57.6</ele>
        <time>2020-04-19T13:46:51Z</time>
      </trkpt>
      <trkpt lat="-11.6793610" lon="166.9362580">
        <ele>57.8</ele>
        <time>2020-04-19T13:46:52Z</time>
      </trkpt>
      <trkpt lat="-11.6793370" lon="166.9361940">
        <ele>58.0</ele>
        <time>2020-04-19T13:46:53Z</time>
      </trkpt>
      <trkpt lat="-11.6793280" lon="166.9361190">
        <ele>58.0</ele>
        <time>2020-04-19T13:46:54Z</time>
      </trkpt>
      <trkpt lat="-11.6793330" lon="166.9360440">
        <ele>58.4</ele>
        <time>2020-04-19T13:46:55Z</time>
      </trkpt>
      <trkpt lat="-11.6793470" lon="166.9359790">
        <ele>58.6</ele>
        <time>2020-04-19T13:46:56Z</time>
      </trkpt>
      <trkpt lat="-11.6793640" lon="166.9359150">
        <ele>58.8</ele>
        <time>2020-04-19T13:46:57Z</time>
      </trkpt>
      <trkpt lat="-11.6793830" lon="166.9358720">
        <ele>59.2</ele>
        <time>2020-04-19T13:46:58Z</time>
      </trkpt>
      <trkpt lat="-11.6794000" lon="166.9358070">
        <ele>59.4</ele>
        <time>2020-04-19T13:46:59Z</time>
      </trkpt>
      <trkpt lat="-11.6794150" lon="166.9357650">
        <ele>59.6</ele>
        <time>2020-04-19T13:47:00Z</time>
      </trkpt>
      <trkpt lat="-11.6794070" lon="166.9357000">
        <ele>59.8</ele>
        <time>2020-04-19T13:47:01Z</time>
      </trkpt>
      <trkpt lat="-11.6793830" lon="166.9356570">
        <ele>59.8</ele>
        <time>2020-04-19T13:47:02Z</time>
      </trkpt>
      <trkpt lat="-11.6793510" lon="166.9356140">
        <ele>59.8</ele>
        <time>2020-04-19T13:47:03Z</time>
      </trkpt>
      <trkpt lat="-11.6793120" lon="166.9355820">
        <ele>59.6</ele>
        <time>2020-04-19T13:47:04Z</time>
      </trkpt>
      <trkpt lat="-11.6792650" lon="166.9355390">
        <ele>59.6</ele>
        <time>2020-04-19T13:47:05Z</time>
      </trkpt>
      <trkpt lat="-11.6792140" lon="166.9355070">
        <ele>59.4</ele>
        <time>2020-04-19T13:47:06Z</time>
      </trkpt>
      <trkpt lat="-11.6791530" lon="166.9354640">
        <ele>59.2</ele>
        <time>2020-04-19T13:47:07Z</time>
      </trkpt>
      <trkpt lat="-11.6790930" lon="166.9354430">
        <ele>59.0</ele>
        <time>2020-04-19T13:47:08Z</time>
      </trkpt>
      <trkpt lat="-11.6790210" lon="166.9354320">
        <ele>59.0</ele>
        <time>2020-04-19T13:47:09Z</time>
      </trkpt>
      <trkpt lat="-11.6789510" lon="166.9354320">
        <ele>58.8</ele>
        <time>2020-04-19T13:47:10Z</time>
      </trkpt>
      <trkpt lat="-11.6788800" lon="166.9354430">
        <ele>58.6</ele>
        <time>2020-04-19T13:47:11Z</time>
      </trkpt>
      <trkpt lat="-11.6788060" lon="166.9354640">
        <ele>58.4</ele>
        <time>2020-04-19T13:47:12Z</time>
      </trkpt>
      <trkpt lat="-11.6787350" lon="166.9354860">
        <ele>58.2</ele>
        <time>2020-04-19T13:47:13Z</time>
      </trkpt>
      <trkpt lat="-11.6786670" lon="166.9355390">
        <ele>58.2</ele>
        <time>2020-04-19T13:47:14Z</time>
      </trkpt>
      <trkpt lat="-11.6786000" lon="166.9355710">
        <ele>58.0</ele>
        <time>2020-04-19T13:47:15Z</time>
      </trkpt>
      <trkpt lat="-11.6785280" lon="166.9355930">
        <ele>57.8</ele>
        <time>2020-04-19T13:47:16Z</time>
      </trkpt>
      <trkpt lat="-11.6784600" lon="166.9356470">
        <ele>57.6</ele>
        <time>2020-04-19T13:47:17Z</time>
      </trkpt>
      <trkpt lat="-11.6783920" lon="166.9356680">
        <ele>57.6</ele>
        <time>2020-04-19T13:47:18Z</time>
      </trkpt>
      <trkpt lat="-11.6783210" lon="166.9357000">
        <ele>57.4</ele>
        <time>2020-04-19T13:47:19Z</time>
      </trkpt>
      <trkpt lat="-11.6782430" lon="166.9357320">
        <ele>57.2</ele>
        <time>2020-04-19T13:47:20Z</time>
      </trkpt>
      <trkpt lat="-11.6781660" lon="166.9357650">
        <ele>57.0</ele>
        <time>2020-04-19T13:47:21Z</time>
      </trkpt>
      <trkpt lat="-11.6780830" lon="166.9357750">
        <ele>56.8</ele>
        <time>2020-04-19T13:47:22Z</time>
      </trkpt>
      <trkpt lat="-11.6780010" lon="166.9357650">
        <ele>56.8</ele>
        <time>2020-04-19T13:47:23Z</time>
      </trkpt>
      <trkpt lat="-11.6779280" lon="166.9357320">
        <ele>56.6</ele>
        <time>2020-04-19T13:47:24Z</time>
      </trkpt>
      <trkpt lat="-11.6778700" lon="166.9356680">
        <ele>56.6</ele>
        <time>2020-04-19T13:47:25Z</time>
      </trkpt>
      <trkpt lat="-11.6778200" lon="166.9355930">
        <ele>56.4</ele>
        <time>2020-04-19T13:47:26Z</time>
      </trkpt>
      <trkpt lat="-11.6777770" lon="166.9355180">
        <ele>56.4</ele>
        <time>2020-04-19T13:47:27Z</time>
      </trkpt>
      <trkpt lat="-11.6777290" lon="166.9354640">
        <ele>56.2</ele>
        <time>2020-04-19T13:47:28Z</time>
      </trkpt>
      <trkpt lat="-11.6776630" lon="166.9354000">
        <ele>56.0</ele>
        <time>2020-04-19T13:47:29Z</time>
      </trkpt>
      <trkpt lat="-11.6775940" lon="166.9353350">
        <ele>55.6</ele>
        <time>2020-04-19T13:47:30Z</time>
      </trkpt>
      <trkpt lat="-11.6775230" lon="166.9352710">
        <ele>55.2</ele>
        <time>2020-04-19T13:47:31Z</time>
      </trkpt>
      <trkpt lat="-11.6774720" lon="166.9351960">
        <ele>55.0</ele>
        <time>2020-04-19T13:47:32Z</time>
      </trkpt>
      <trkpt lat="-11.6774560" lon="166.9351100">
        <ele>55.0</ele>
        <time>2020-04-19T13:47:33Z</time>
      </trkpt>
      <trkpt lat="-11.6774700" lon="166.9350140">
        <ele>55.0</ele>
        <time>2020-04-19T13:47:34Z</time>
      </trkpt>
      <trkpt lat="-11.6774990" lon="166.9349380">
        <ele>55.2</ele>
        <time>2020-04-19T13:47:35Z</time>
      </trkpt>
      <trkpt lat="-11.6775370" lon="166.9348530">
        <ele>55.4</ele>
        <time>2020-04-19T13:47:36Z</time>
      </trkpt>
      <trkpt lat="-11.6775820" lon="166.9347770">
        <ele>55.4</ele>
        <time>2020-04-19T13:47:37Z</time>
      </trkpt>
      <trkpt lat="-11.6776310" lon="166.9347130">
        <ele>55.4</ele>
        <time>2020-04-19T13:47:38Z</time>
      </trkpt>
      <trkpt lat="-11.6776880" lon="166.9346490">
        <ele>55.4</ele>
        <time>2020-04-19T13:47:39Z</time>
      </trkpt>
      <trkpt lat="-11.6777530" lon="166.9346060">
        <ele>55.2</ele>
        <time>2020-04-19T13:47:40Z</time>
      </trkpt>
      <trkpt lat="-11.6778190" lon="166.9345410">
        <ele>55.0</ele>
        <time>2020-04-19T13:47:41Z</time>
      </trkpt>
      <trkpt lat="-11.6778910" lon="166.9344990">
        <ele>55.0</ele>
        <time>2020-04-19T13:47:42Z</time>
      </trkpt>
      <trkpt lat="-11.6779610" lon="166.9344660">
        <ele>54.8</ele>
        <time>2020-04-19T13:47:43Z</time>
      </trkpt>
      <trkpt lat="-11.6780320" lon="166.9344230">
        <ele>54.6</ele>
        <time>2020-04-19T13:47:44Z</time>
      </trkpt>
      <trkpt lat="-11.6780970" lon="166.9343590">
        <ele>54.6</ele>
        <time>2020-04-19T13:47:45Z</time>
      </trkpt>
      <trkpt lat="-11.6781600" lon="166.9342950">
        <ele>54.6</ele>
        <time>2020-04-19T13:47:46Z</time>
      </trkpt>
      <trkpt lat="-11.6782050" lon="166.9342410">
        <ele>54.6</ele>
        <time>2020-04-19T13:47:47Z</time>
      </trkpt>
      <trkpt lat="-11.6782210" lon="166.9341660">
        <ele>54.6</ele>
        <time>2020-04-19T13:47:48Z</time>
      </trkpt>
      <trkpt lat="-11.6782090" lon="166.9340910">
        <ele>54.6</ele>
        <time>2020-04-19T13:47:49Z</time>
      </trkpt>
      <trkpt lat="-11.6782090" lon="166.9340050">
        <ele>54.6</ele>
        <time>2020-04-19T13:47:50Z</time>
      </trkpt>
      <trkpt lat="-11.6782350" lon="166.9339300">
        <ele>54.4</ele>
        <time>2020-04-19T13:47:51Z</time>
      </trkpt>
      <trkpt lat="-11.6782750" lon="166.9338550">
        <ele>54.2</ele>
        <time>2020-04-19T13:47:52Z</time>
      </trkpt>
      <trkpt lat="-11.6783190" lon="166.9337800">
        <ele>53.8</ele>
        <time>2020-04-19T13:47:53Z</time>
      </trkpt>
      <trkpt lat="-11.6783570" lon="166.9337050">
        <ele>53.6</ele>
        <time>2020-04-19T13:47:54Z</time>
      </trkpt>
      <trkpt lat="-11.6783410" lon="166.9336300">
        <ele>53.0</ele>
        <time>2020-04-19T13:47:55Z</time>
      </trkpt>
      <trkpt lat="-11.6782660" lon="166.9335870">
        <ele>52.6</ele>
        <time>2020-04-19T13:47:56Z</time>
      </trkpt>
      <trkpt lat="-11.6781840" lon="166.9335970">
        <ele>52.2</ele>
        <time>2020-04-19T13:47:57Z</time>
      </trkpt>
      <trkpt lat="-11.6781050" lon="166.9336400">
        <ele>51.8</ele>
        <time>2020-04-19T13:47:58Z</time>
      </trkpt>
      <trkpt lat="-11.6780300" lon="166.9337050">
        <ele>51.4</ele>
        <time>2020-04-19T13:47:59Z</time>
      </trkpt>
      <trkpt lat="-11.6779420" lon="166.9337480">
        <ele>51.2</ele>
        <time>2020-04-19T13:48:00Z</time>
      </trkpt>
      <trkpt lat="-11.6778450" lon="166.9337480">
        <ele>50.8</ele>
        <time>2020-04-19T13:48:01Z</time>
      </trkpt>
      <trkpt lat="-11.6777510" lon="166.9337150">
        <ele>50.6</ele>
        <time>2020-04-19T13:48:02Z</time>
      </trkpt>
      <trkpt lat="-11.6776730" lon="166.9336620">
        <ele>50.4</ele>
        <time>2020-04-19T13:48:03Z</time>
      </trkpt>
      <trkpt lat="-11.6776190" lon="166.9335870">
        <ele>50.2</ele>
        <time>2020-04-19T13:48:04Z</time>
      </trkpt>
      <trkpt lat="-11.6776070" lon="166.9334900">
        <ele>49.8</ele>
        <time>2020-04-19T13:48:05Z</time>
      </trkpt>
      <trkpt lat="-11.6776380" lon="166.9333830">
        <ele>49.4</ele>
        <time>2020-04-19T13:48:06Z</time>
      </trkpt>
      <trkpt lat="-11.6776880" lon="166.9333080">
        <ele>49.0</ele>
        <time>2020-04-19T13:48:07Z</time>
      </trkpt>
      <trkpt lat="-11.6777430" lon="166.9332110">
        <ele>48.6</ele>
        <time>2020-04-19T13:48:08Z</time>
      </trkpt>
      <trkpt lat="-11.6777960" lon="166.9331250">
        <ele>48.2</ele>
        <time>2020-04-19T13:48:09Z</time>
      </trkpt>
      <trkpt lat="-11.6778420" lon="166.9330500">
        <ele>47.8</ele>
        <time>2020-04-19T13:48:10Z</time>
      </trkpt>
      <trkpt lat="-11.6778660" lon="166.9329540">
        <ele>47.4</ele>
        <time>2020-04-19T13:48:11Z</time>
      </trkpt>
      <trkpt lat="-11.6778200" lon="166.9328680">
        <ele>46.8</ele>
        <time>2020-04-19T13:48:12Z</time>
      </trkpt>
      <trkpt lat="-11.6777390" lon="166.9328030">
        <ele>46.4</ele>
        <time>2020-04-19T13:48:13Z</time>
      </trkpt>
      <trkpt lat="-11.6776430" lon="166.9327600">
        <ele>46.0</ele>
        <time>2020-04-19T13:48:14Z</time>
      </trkpt>
      <trkpt lat="-11.6775440" lon="166.9327280">
        <ele>45.6</ele>
        <time>2020-04-19T13:48:15Z</time>
      </trkpt>
      <trkpt lat="-11.6774600" lon="166.9326640">
        <ele>45.2</ele>
        <time>2020-04-19T13:48:16Z</time>
      </trkpt>
      <trkpt lat="-11.6774030" lon="166.9325780">
        <ele>45.0</ele>
        <time>2020-04-19T13:48:17Z</time>
      </trkpt>
      <trkpt lat="-11.6773820" lon="166.9324710">
        <ele>44.6</ele>
        <time>2020-04-19T13:48:18Z</time>
      </trkpt>
      <trkpt lat="-11.6773870" lon="166.9323640">
        <ele>44.4</ele>
        <time>2020-04-19T13:48:19Z</time>
      </trkpt>
      <trkpt lat="-11.6774050" lon="166.9322560">
        <ele>44.0</ele>
        <time>2020-04-19T13:48:20Z</time>
      </trkpt>
      <trkpt lat="-11.6774340" lon="166.9321490">
        <ele>43.8</ele>
        <time>2020-04-19T13:48:21Z</time>
      </trkpt>
      <trkpt lat="-11.6774800" lon="166.9320520">
        <ele>43.6</ele>
        <time>2020-04-19T13:48:22Z</time>
      </trkpt>
      <trkpt lat="-11.6775520" lon="166.9319770">
        <ele>43.2</ele>
        <time>2020-04-19T13:48:23Z</time>
      </trkpt>
      <trkpt lat="-11.6776380" lon="166.9319240">
        <ele>43.0</ele>
        <time>2020-04-19T13:48:24Z</time>
      </trkpt>
      <trkpt lat="-11.6777270" lon="166.9318700">
        <ele>42.6</ele>
        <time>2020-04-19T13:48:25Z</time>
      </trkpt>
      <trkpt lat="-11.6778220" lon="166.9318270">
        <ele>42.2</ele>
        <time>2020-04-19T13:48:26Z</time>
      </trkpt>
      <trkpt lat="-11.6779160" lon="166.9317950">
        <ele>42.0</ele>
        <time>2020-04-19T13:48:27Z</time>
      </trkpt>
      <trkpt lat="-11.6780180" lon="166.9317630">
        <ele>41.6</ele>
        <time>2020-04-19T13:48:28Z</time>
      </trkpt>
      <trkpt lat="-11.6781190" lon="166.9317410">
        <ele>41.2</ele>
        <time>2020-04-19T13:48:29Z</time>
      </trkpt>
      <trkpt lat="-11.6782090" lon="166.9316880">
        <ele>40.8</ele>
        <time>2020-04-19T13:48:30Z</time>
      </trkpt>
      <trkpt lat="-11.6782830" lon="166.9316120">
        <ele>40.2</ele>
        <time>2020-04-19T13:48:31Z</time>
      </trkpt>
      <trkpt lat="-11.6783140" lon="166.9315050">
        <ele>39.6</ele>
        <time>2020-04-19T13:48:32Z</time>
      </trkpt>
      <trkpt lat="-11.6783230" lon="166.9313980">
        <ele>39.2</ele>
        <time>2020-04-19T13:48:33Z</time>
      </trkpt>
      <trkpt lat="-11.6783210" lon="166.9312910">
        <ele>38.6</ele>
        <time>2020-04-19T13:48:34Z</time>
      </trkpt>
      <trkpt lat="-11.6783050" lon="166.9311830">
        <ele>38.2</ele>
        <time>2020-04-19T13:48:35Z</time>
      </trkpt>
      <trkpt lat="-11.6782880" lon="166.9310760">
        <ele>38.0</ele>
        <time>2020-04-19T13:48:36Z</time>
      </trkpt>
      <trkpt lat="-11.6782860" lon="166.9309690">
        <ele>37.6</ele>
        <time>2020-04-19T13:48:37Z</time>
      </trkpt>
      <trkpt lat="-11.6783000" lon="166.9308610">
        <ele>37.2</ele>
        <time>2020-04-19T13:48:38Z</time>
      </trkpt>
      <trkpt lat="-11.6783190" lon="166.9307650">
        <ele>36.8</ele>
        <time>2020-04-19T13:48:39Z</time>
      </trkpt>
      <trkpt lat="-11.6783410" lon="166.9306580">
        <ele>36.4</ele>
        <time>2020-04-19T13:48:40Z</time>
      </trkpt>
      <trkpt lat="-11.6783660" lon="166.9305500">
        <ele>36.0</ele>
        <time>2020-04-19T13:48:41Z</time>
      </trkpt>
      <trkpt lat="-11.6783930" lon="166.9304540">
        <ele>35.6</ele>
        <time>2020-04-19T13:48:42Z</time>
      </trkpt>
      <trkpt lat="-11.6784290" lon="166.9303460">
        <ele>35.2</ele>
        <time>2020-04-19T13:48:43Z</time>
      </trkpt>
      <trkpt lat="-11.6784690" lon="166.9302610">
        <ele>35.0</ele>
        <time>2020-04-19T13:48:44Z</time>
      </trkpt>
      <trkpt lat="-11.6785220" lon="166.9301640">
        <ele>34.4</ele>
        <time>2020-04-19T13:48:45Z</time>
      </trkpt>
      <trkpt lat="-11.6785860" lon="166.9300780">
        <ele>34.0</ele>
        <time>2020-04-19T13:48:46Z</time>
      </trkpt>
      <trkpt lat="-11.6786600" lon="166.9300140">
        <ele>33.6</ele>
        <time>2020-04-19T13:48:47Z</time>
      </trkpt>
      <trkpt lat="-11.6787430" lon="166.9299390">
        <ele>33.2</ele>
        <time>2020-04-19T13:48:48Z</time>
      </trkpt>
      <trkpt lat="-11.6788330" lon="166.9298740">
        <ele>32.8</ele>
        <time>2020-04-19T13:48:49Z</time>
      </trkpt>
      <trkpt lat="-11.6789210" lon="166.9298320">
        <ele>32.4</ele>
        <time>2020-04-19T13:48:50Z</time>
      </trkpt>
      <trkpt lat="-11.6790110" lon="166.9297670">
        <ele>32.0</ele>
        <time>2020-04-19T13:48:51Z</time>
      </trkpt>
      <trkpt lat="-11.6791000" lon="166.9297030">
        <ele>31.4</ele>
        <time>2020-04-19T13:48:52Z</time>
      </trkpt>
      <trkpt lat="-11.6791760" lon="166.9296280">
        <ele>31.0</ele>
        <time>2020-04-19T13:48:53Z</time>
      </trkpt>
      <trkpt lat="-11.6792460" lon="166.9295530">
        <ele>30.8</ele>
        <time>2020-04-19T13:48:54Z</time>
      </trkpt>
      <trkpt lat="-11.6793120" lon="166.9294770">
        <ele>30.4</ele>
        <time>2020-04-19T13:48:55Z</time>
      </trkpt>
      <trkpt lat="-11.6793690" lon="166.9293920">
        <ele>30.0</ele>
        <time>2020-04-19T13:48:56Z</time>
      </trkpt>
      <trkpt lat="-11.6794240" lon="166.9292950">
        <ele>29.6</ele>
        <time>2020-04-19T13:48:57Z</time>
      </trkpt>
      <trkpt lat="-11.6794770" lon="166.9291990">
        <ele>29.4</ele>
        <time>2020-04-19T13:48:58Z</time>
      </trkpt>
      <trkpt lat="-11.6795220" lon="166.9291130">
        <ele>29.0</ele>
        <time>2020-04-19T13:48:59Z</time>
      </trkpt>
      <trkpt lat="-11.6795600" lon="166.9290160">
        <ele>28.6</ele>
        <time>2020-04-19T13:49:00Z</time>
      </trkpt>
      <trkpt lat="-11.6795890" lon="166.9289090">
        <ele>28.4</ele>
        <time>2020-04-19T13:49:01Z</time>
      </trkpt>
      <trkpt lat="-11.6796190" lon="166.9288020">
        <ele>28.0</ele>
        <time>2020-04-19T13:49:02Z</time>
      </trkpt>
      <trkpt lat="-11.6796510" lon="166.9287160">
        <ele>27.6</ele>
        <time>2020-04-19T13:49:03Z</time>
      </trkpt>
      <trkpt lat="-11.6796950" lon="166.9286190">
        <ele>27.4</ele>
        <time>2020-04-19T13:49:04Z</time>
      </trkpt>
      <trkpt lat="-11.6797560" lon="166.9285330">
        <ele>27.0</ele>
        <time>2020-04-19T13:49:05Z</time>
      </trkpt>
      <trkpt lat="-11.6798330" lon="166.9284690">
        <ele>26.6</ele>
        <time>2020-04-19T13:49:06Z</time>
      </trkpt>
      <trkpt lat="-11.6799230" lon="166.9284050">
        <ele>26.2</ele>
        <time>2020-04-19T13:49:07Z</time>
      </trkpt>
      <trkpt lat="-11.6800170" lon="166.9283620">
        <ele>25.8</ele>
        <time>2020-04-19T13:49:08Z</time>
      </trkpt>
      <trkpt lat="-11.6801100" lon="166.9283290">
        <ele>25.6</ele>
        <time>2020-04-19T13:49:09Z</time>
      </trkpt>
      <trkpt lat="-11.6802060" lon="166.9283080">
        <ele>25.2</ele>
        <time>2020-04-19T13:49:10Z</time>
      </trkpt>
      <trkpt lat="-11.6803050" lon="166.9282760">
        <ele>24.8</ele>
        <time>2020-04-19T13:49:11Z</time>
      </trkpt>
      <trkpt lat="-11.6804020" lon="166.9282440">
        <ele>24.4</ele>
        <time>2020-04-19T13:49:12Z</time>
      </trkpt>
      <trkpt lat="-11.6805000" lon="166.9282010">
        <ele>24.0</ele>
        <time>2020-04-19T13:49:13Z</time>
      </trkpt>
      <trkpt lat="-11.6805860" lon="166.9281360">
        <ele>23.6</ele>
        <time>2020-04-19T13:49:14Z</time>
      </trkpt>
      <trkpt lat="-11.6806620" lon="166.9280720">
        <ele>23.2</ele>
        <time>2020-04-19T13:49:15Z</time>
      </trkpt>
      <trkpt lat="-11.6807240" lon="166.9279860">
        <ele>22.8</ele>
        <time>2020-04-19T13:49:16Z</time>
      </trkpt>
      <trkpt lat="-11.6807780" lon="166.9278900">
        <ele>22.4</ele>
        <time>2020-04-19T13:49:17Z</time>
      </trkpt>
      <trkpt lat="-11.6808270" lon="166.9278040">
        <ele>22.0</ele>
        <time>2020-04-19T13:49:18Z</time>
      </trkpt>
      <trkpt lat="-11.6808820" lon="166.9277180">
        <ele>21.8</ele>
        <time>2020-04-19T13:49:19Z</time>
      </trkpt>
      <trkpt lat="-11.6809590" lon="166.9276430">
        <ele>21.6</ele>
        <time>2020-04-19T13:49:20Z</time>
      </trkpt>
      <trkpt lat="-11.6810510" lon="166.9276000">
        <ele>21.4</ele>
        <time>2020-04-19T13:49:21Z</time>
      </trkpt>
      <trkpt lat="-11.6811400" lon="166.9275680">
        <ele>21.4</ele>
        <time>2020-04-19T13:49:22Z</time>
      </trkpt>
      <trkpt lat="-11.6812360" lon="166.9275570">
        <ele>21.4</ele>
        <time>2020-04-19T13:49:23Z</time>
      </trkpt>
      <trkpt lat="-11.6813340" lon="166.9275360">
        <ele>21.4</ele>
        <time>2020-04-19T13:49:24Z</time>
      </trkpt>
      <trkpt lat="-11.6814240" lon="166.9275360">
        <ele>21.4</ele>
        <time>2020-04-19T13:49:25Z</time>
      </trkpt>
      <trkpt lat="-11.6815110" lon="166.9275250">
        <ele>21.4</ele>
        <time>2020-04-19T13:49:26Z</time>
      </trkpt>
      <trkpt lat="-11.6815960" lon="166.9275250">
        <ele>21.6</ele>
        <time>2020-04-19T13:49:27Z</time>
      </trkpt>
      <trkpt lat="-11.6816790" lon="166.9274930">
        <ele>21.6</ele>
        <time>2020-04-19T13:49:28Z</time>
      </trkpt>
      <trkpt lat="-11.6817550" lon="166.9274600">
        <ele>21.6</ele>
        <time>2020-04-19T13:49:29Z</time>
      </trkpt>
      <trkpt lat="-11.6818300" lon="166.9274180">
        <ele>21.6</ele>
        <time>2020-04-19T13:49:30Z</time>
      </trkpt>
      <trkpt lat="-11.6819030" lon="166.9273750">
        <ele>21.6</ele>
        <time>2020-04-19T13:49:31Z</time>
      </trkpt>
      <trkpt lat="-11.6819750" lon="166.9273420">
        <ele>21.6</ele>
        <time>2020-04-19T13:49:32Z</time>
      </trkpt>
      <trkpt lat="-11.6820450" lon="166.9273100">
        <ele>21.6</ele>
        <time>2020-04-19T13:49:33Z</time>
      </trkpt>
      <trkpt lat="-11.6821200" lon="166.9272780">
        <ele>21.6</ele>
        <time>2020-04-19T13:49:34Z</time>
      </trkpt>
      <trkpt lat="-11.6821960" lon="166.9272670">
        <ele>21.6</ele>
        <time>2020-04-19T13:49:35Z</time>
      </trkpt>
      <trkpt lat="-11.6822730" lon="166.9272670">
        <ele>21.4</ele>
        <time>2020-04-19T13:49:36Z</time>
      </trkpt>
      <trkpt lat="-11.6823480" lon="166.9272990">
        <ele>21.4</ele>
        <time>2020-04-19T13:49:37Z</time>
      </trkpt>
      <trkpt lat="-11.6824190" lon="166.9273320">
        <ele>21.2</ele>
        <time>2020-04-19T13:49:38Z</time>
      </trkpt>
      <trkpt lat="-11.6824830" lon="166.9273750">
        <ele>21.2</ele>
        <time>2020-04-19T13:49:39Z</time>
      </trkpt>
      <trkpt lat="-11.6825480" lon="166.9274180">
        <ele>21.0</ele>
        <time>2020-04-19T13:49:40Z</time>
      </trkpt>
      <trkpt lat="-11.6826150" lon="166.9274600">
        <ele>20.8</ele>
        <time>2020-04-19T13:49:41Z</time>
      </trkpt>
      <trkpt lat="-11.6826790" lon="166.9275140">
        <ele>20.6</ele>
        <time>2020-04-19T13:49:42Z</time>
      </trkpt>
      <trkpt lat="-11.6827570" lon="166.9275360">
        <ele>20.4</ele>
        <time>2020-04-19T13:49:43Z</time>
      </trkpt>
      <trkpt lat="-11.6828310" lon="166.9275570">
        <ele>20.2</ele>
        <time>2020-04-19T13:49:44Z</time>
      </trkpt>
      <trkpt lat="-11.6829150" lon="166.9275570">
        <ele>20.0</ele>
        <time>2020-04-19T13:49:45Z</time>
      </trkpt>
      <trkpt lat="-11.6829980" lon="166.9275570">
        <ele>19.6</ele>
        <time>2020-04-19T13:49:46Z</time>
      </trkpt>
      <trkpt lat="-11.6830860" lon="166.9275360">
        <ele>19.2</ele>
        <time>2020-04-19T13:49:47Z</time>
      </trkpt>
      <trkpt lat="-11.6831670" lon="166.9275250">
        <ele>19.0</ele>
        <time>2020-04-19T13:49:48Z</time>
      </trkpt>
      <trkpt lat="-11.6832600" lon="166.9275250">
        <ele>18.6</ele>
        <time>2020-04-19T13:49:49Z</time>
      </trkpt>
      <trkpt lat="-11.6833480" lon="166.9275360">
        <ele>18.4</ele>
        <time>2020-04-19T13:49:50Z</time>
      </trkpt>
      <trkpt lat="-11.6834320" lon="166.9275680">
        <ele>18.0</ele>
        <time>2020-04-19T13:49:51Z</time>
      </trkpt>
      <trkpt lat="-11.6835070" lon="166.9276210">
        <ele>17.8</ele>
        <time>2020-04-19T13:49:52Z</time>
      </trkpt>
      <trkpt lat="-11.6835790" lon="166.9276750">
        <ele>17.6</ele>
        <time>2020-04-19T13:49:53Z</time>
      </trkpt>
      <trkpt lat="-11.6836660" lon="166.9277070">
        <ele>17.4</ele>
        <time>2020-04-19T13:49:54Z</time>
      </trkpt>
      <trkpt lat="-11.6837510" lon="166.9277070">
        <ele>17.2</ele>
        <time>2020-04-19T13:49:55Z</time>
      </trkpt>
      <trkpt lat="-11.6838410" lon="166.9277070">
        <ele>17.2</ele>
        <time>2020-04-19T13:49:56Z</time>
      </trkpt>
      <trkpt lat="-11.6839290" lon="166.9276960">
        <ele>17.2</ele>
        <time>2020-04-19T13:49:57Z</time>
      </trkpt>
      <trkpt lat="-11.6840110" lon="166.9276640">
        <ele>17.0</ele>
        <time>2020-04-19T13:49:58Z</time>
      </trkpt>
      <trkpt lat="-11.6840940" lon="166.9276430">
        <ele>17.0</ele>
        <time>2020-04-19T13:49:59Z</time>
      </trkpt>
      <trkpt lat="-11.6841750" lon="166.9276210">
        <ele>17.0</ele>
        <time>2020-04-19T13:50:00Z</time>
      </trkpt>
      <trkpt lat="-11.6842500" lon="166.9275890">
        <ele>17.0</ele>
        <time>2020-04-19T13:50:01Z</time>
      </trkpt>
      <trkpt lat="-11.6843270" lon="166.9275570">
        <ele>17.0</ele>
        <time>2020-04-19T13:50:02Z</time>
      </trkpt>
      <trkpt lat="-11.6844000" lon="166.9275250">
        <ele>16.8</ele>
        <time>2020-04-19T13:50:03Z</time>
      </trkpt>
      <trkpt lat="-11.6844600" lon="166.9274600">
        <ele>16.8</ele>
        <time>2020-04-19T13:50:04Z</time>
      </trkpt>
      <trkpt lat="-11.6845070" lon="166.9274070">
        <ele>16.6</ele>
        <time>2020-04-19T13:50:05Z</time>
      </trkpt>
      <trkpt lat="-11.6845410" lon="166.9273320">
        <ele>16.6</ele>
        <time>2020-04-19T13:50:06Z</time>
      </trkpt>
      <trkpt lat="-11.6845660" lon="166.9272460">
        <ele>16.4</ele>
        <time>2020-04-19T13:50:07Z</time>
      </trkpt>
      <trkpt lat="-11.6845880" lon="166.9271710">
        <ele>16.4</ele>
        <time>2020-04-19T13:50:08Z</time>
      </trkpt>
      <trkpt lat="-11.6846080" lon="166.9270960">
        <ele>16.2</ele>
        <time>2020-04-19T13:50:09Z</time>
      </trkpt>
      <trkpt lat="-11.6846160" lon="166.9270210">
        <ele>15.8</ele>
        <time>2020-04-19T13:50:10Z</time>
      </trkpt>
      <trkpt lat="-11.6846140" lon="166.9269350">
        <ele>15.4</ele>
        <time>2020-04-19T13:50:11Z</time>
      </trkpt>
      <trkpt lat="-11.6846180" lon="166.9268380">
        <ele>15.2</ele>
        <time>2020-04-19T13:50:12Z</time>
      </trkpt>
      <trkpt lat="-11.6846430" lon="166.9267630">
        <ele>14.8</ele>
        <time>2020-04-19T13:50:13Z</time>
      </trkpt>
      <trkpt lat="-11.6846850" lon="166.9266880">
        <ele>14.6</ele>
        <time>2020-04-19T13:50:14Z</time>
      </trkpt>
      <trkpt lat="-11.6847380" lon="166.9266130">
        <ele>14.4</ele>
        <time>2020-04-19T13:50:15Z</time>
      </trkpt>
      <trkpt lat="-11.6847940" lon="166.9265480">
        <ele>14.2</ele>
        <time>2020-04-19T13:50:16Z</time>
      </trkpt>
      <trkpt lat="-11.6848600" lon="166.9264840">
        <ele>14.0</ele>
        <time>2020-04-19T13:50:17Z</time>
      </trkpt>
      <trkpt lat="-11.6849310" lon="166.9264410">
        <ele>14.0</ele>
        <time>2020-04-19T13:50:18Z</time>
      </trkpt>
      <trkpt lat="-11.6850070" lon="166.9263980">
        <ele>13.8</ele>
        <time>2020-04-19T13:50:19Z</time>
      </trkpt>
      <trkpt lat="-11.6850920" lon="166.9263770">
        <ele>13.6</ele>
        <time>2020-04-19T13:50:20Z</time>
      </trkpt>
      <trkpt lat="-11.6851760" lon="166.9264090">
        <ele>13.4</ele>
        <time>2020-04-19T13:50:21Z</time>
      </trkpt>
      <trkpt lat="-11.6852540" lon="166.9264520">
        <ele>13.2</ele>
        <time>2020-04-19T13:50:22Z</time>
      </trkpt>
      <trkpt lat="-11.6853200" lon="166.9265060">
        <ele>13.2</ele>
        <time>2020-04-19T13:50:23Z</time>
      </trkpt>
      <trkpt lat="-11.6853860" lon="166.9265590">
        <ele>13.0</ele>
        <time>2020-04-19T13:50:24Z</time>
      </trkpt>
      <trkpt lat="-11.6854550" lon="166.9266130">
        <ele>13.0</ele>
        <time>2020-04-19T13:50:25Z</time>
      </trkpt>
      <trkpt lat="-11.6855320" lon="166.9266560">
        <ele>12.8</ele>
        <time>2020-04-19T13:50:26Z</time>
      </trkpt>
      <trkpt lat="-11.6856140" lon="166.9266660">
        <ele>12.4</ele>
        <time>2020-04-19T13:50:27Z</time>
      </trkpt>
      <trkpt lat="-11.6856990" lon="166.9266880">
        <ele>12.2</ele>
        <time>2020-04-19T13:50:28Z</time>
      </trkpt>
      <trkpt lat="-11.6857850" lon="166.9266990">
        <ele>12.0</ele>
        <time>2020-04-19T13:50:29Z</time>
      </trkpt>
      <trkpt lat="-11.6858780" lon="166.9266990">
        <ele>11.6</ele>
        <time>2020-04-19T13:50:30Z</time>
      </trkpt>
      <trkpt lat="-11.6859640" lon="166.9266880">
        <ele>11.4</ele>
        <time>2020-04-19T13:50:31Z</time>
      </trkpt>
      <trkpt lat="-11.6860560" lon="166.9266660">
        <ele>11.0</ele>
        <time>2020-04-19T13:50:32Z</time>
      </trkpt>
      <trkpt lat="-11.6861380" lon="166.9266450">
        <ele>10.6</ele>
        <time>2020-04-19T13:50:33Z</time>
      </trkpt>
      <trkpt lat="-11.6862170" lon="166.9265910">
        <ele>10.2</ele>
        <time>2020-04-19T13:50:34Z</time>
      </trkpt>
      <trkpt lat="-11.6862810" lon="166.9265380">
        <ele>9.8</ele>
        <time>2020-04-19T13:50:35Z</time>
      </trkpt>
      <trkpt lat="-11.6863310" lon="166.9264410">
        <ele>9.4</ele>
        <time>2020-04-19T13:50:36Z</time>
      </trkpt>
      <trkpt lat="-11.6863700" lon="166.9263450">
        <ele>9.0</ele>
        <time>2020-04-19T13:50:37Z</time>
      </trkpt>
      <trkpt lat="-11.6864030" lon="166.9262700">
        <ele>8.8</ele>
        <time>2020-04-19T13:50:38Z</time>
      </trkpt>
      <trkpt lat="-11.6864360" lon="166.9261840">
        <ele>8.4</ele>
        <time>2020-04-19T13:50:39Z</time>
      </trkpt>
      <trkpt lat="-11.6864690" lon="166.9260760">
        <ele>8.0</ele>
        <time>2020-04-19T13:50:40Z</time>
      </trkpt>
      <trkpt lat="-11.6865040" lon="166.9260010">
        <ele>7.8</ele>
        <time>2020-04-19T13:50:41Z</time>
      </trkpt>
      <trkpt lat="-11.6865470" lon="166.9259050">
        <ele>7.4</ele>
        <time>2020-04-19T13:50:42Z</time>
      </trkpt>
      <trkpt lat="-11.6866030" lon="166.9258190">
        <ele>7.2</ele>
        <time>2020-04-19T13:50:43Z</time>
      </trkpt>
      <trkpt lat="-11.6866760" lon="166.9257550">
        <ele>6.8</ele>
        <time>2020-04-19T13:50:44Z</time>
      </trkpt>
      <trkpt lat="-11.6867590" lon="166.9257120">
        <ele>6.6</ele>
        <time>2020-04-19T13:50:45Z</time>
      </trkpt>
      <trkpt lat="-11.6868510" lon="166.9256580">
        <ele>6.4</ele>
        <time>2020-04-19T13:50:46Z</time>
      </trkpt>
      <trkpt lat="-11.6869410" lon="166.9256470">
        <ele>6.4</ele>
        <time>2020-04-19T13:50:47Z</time>
      </trkpt>
      <trkpt lat="-11.6870360" lon="166.9256370">
        <ele>6.2</ele>
        <time>2020-04-19T13:50:48Z</time>
      </trkpt>
      <trkpt lat="-11.6871250" lon="166.9256150">
        <ele>6.0</ele>
        <time>2020-04-19T13:50:49Z</time>
      </trkpt>
      <trkpt lat="-11.6872200" lon="166.9256150">
        <ele>6.0</ele>
        <time>2020-04-19T13:50:50Z</time>
      </trkpt>
      <trkpt lat="-11.6873130" lon="166.9256150">
        <ele>5.8</ele>
        <time>2020-04-19T13:50:51Z</time>
      </trkpt>
      <trkpt lat="-11.6874040" lon="166.9256150">
        <ele>5.4</ele>
        <time>2020-04-19T13:50:52Z</time>
      </trkpt>
      <trkpt lat="-11.6874940" lon="166.9256150">
        <ele>5.2</ele>
        <time>2020-04-19T13:50:53Z</time>
      </trkpt>
      <trkpt lat="-11.6875880" lon="166.9256150">
        <ele>4.8</ele>
        <time>2020-04-19T13:50:54Z</time>
      </trkpt>
      <trkpt lat="-11.6876790" lon="166.9256370">
        <ele>4.4</ele>
        <time>2020-04-19T13:50:55Z</time>
      </trkpt>
      <trkpt lat="-11.6877730" lon="166.9256580">
        <ele>4.0</ele>
        <time>2020-04-19T13:50:56Z</time>
      </trkpt>
      <trkpt lat="-11.6878640" lon="166.9256790">
        <ele>3.6</ele>
        <time>2020-04-19T13:50:57Z</time>
      </trkpt>
      <trkpt lat="-11.6879520" lon="166.9257220">
        <ele>3.2</ele>
        <time>2020-04-19T13:50:58Z</time>
      </trkpt>
      <trkpt lat="-11.6880400" lon="166.9257650">
        <ele>2.8</ele>
        <time>2020-04-19T13:50:59Z</time>
      </trkpt>
      <trkpt lat="-11.6881110" lon="166.9258300">
        <ele>2.4</ele>
        <time>2020-04-19T13:51:00Z</time>
      </trkpt>
      <trkpt lat="-11.6881700" lon="166.9259260">
        <ele>2.0</ele>
        <time>2020-04-19T13:51:01Z</time>
      </trkpt>
      <trkpt lat="-11.6882180" lon="166.9260010">
        <ele>1.6</ele>
        <time>2020-04-19T13:51:02Z</time>
      </trkpt>
      <trkpt lat="-11.6882650" lon="166.9260870">
        <ele>1.2</ele>
        <time>2020-04-19T13:51:03Z</time>
      </trkpt>
      <trkpt lat="-11.6883170" lon="166.9261840">
        <ele>1.0</ele>
        <time>2020-04-19T13:51:04Z</time>
      </trkpt>
      <trkpt lat="-11.6883900" lon="166.9262480">
        <ele>0.6</ele>
        <time>2020-04-19T13:51:05Z</time>
      </trkpt>
      <trkpt lat="-11.6884890" lon="166.9262700">
        <ele>0.4</ele>
        <time>2020-04-19T13:51:06Z</time>
      </trkpt>
      <trkpt lat="-11.6885850" lon="166.9262590">
        <ele>0.4</ele>
        <time>2020-04-19T13:51:07Z</time>
      </trkpt>
      <trkpt lat="-11.6886820" lon="166.9262480">
        <ele>0.4</ele>
        <time>2020-04-19T13:51:08Z</time>
      </trkpt>
      <trkpt lat="-11.6887690" lon="166.9262160">
        <ele>0.4</ele>
        <time>2020-04-19T13:51:09Z</time>
      </trkpt>
      <trkpt lat="-11.6888520" lon="166.9261840">
        <ele>0.4</ele>
        <time>2020-04-19T13:51:10Z</time>
      </trkpt>
      <trkpt lat="-11.6889340" lon="166.9261410">
        <ele>0.4</ele>
        <time>2020-04-19T13:51:11Z</time>
      </trkpt>
      <trkpt lat="-11.6890110" lon="166.9260870">
        <ele>0.4</ele>
        <time>2020-04-19T13:51:12Z</time>
      </trkpt>
      <trkpt lat="-11.6890760" lon="166.9260440">
        <ele>0.6</ele>
        <time>2020-04-19T13:51:13Z</time>
      </trkpt>
      <trkpt lat="-11.6891190" lon="166.9259690">
        <ele>0.6</ele>
        <time>2020-04-19T13:51:14Z</time>
      </trkpt>
      <trkpt lat="-11.6891250" lon="166.9258730">
        <ele>0.6</ele>
        <time>2020-04-19T13:51:15Z</time>
      </trkpt>
      <trkpt lat="-11.6891150" lon="166.9257970">
        <ele>0.6</ele>
        <time>2020-04-19T13:51:16Z</time>
      </trkpt>
      <trkpt lat="-11.6890990" lon="166.9257120">
        <ele>0.6</ele>
        <time>2020-04-19T13:51:17Z</time>
      </trkpt>
      <trkpt lat="-11.6890920" lon="166.9256370">
        <ele>0.6</ele>
        <time>2020-04-19T13:51:18Z</time>
      </trkpt>
      <trkpt lat="-11.6891190" lon="166.9255400">
        <ele>0.6</ele>
        <time>2020-04-19T13:51:19Z</time>
      </trkpt>
      <trkpt lat="-11.6891710" lon="166.9254760">
        <ele>0.6</ele>
        <time>2020-04-19T13:51:20Z</time>
      </trkpt>
      <trkpt lat="-11.6892370" lon="166.9254330">
        <ele>0.6</ele>
        <time>2020-04-19T13:51:21Z</time>
      </trkpt>
      <trkpt lat="-11.6893110" lon="166.9253900">
        <ele>0.6</ele>
        <time>2020-04-19T13:51:22Z</time>
      </trkpt>
      <trkpt lat="-11.6893900" lon="166.9253470">
        <ele>0.6</ele>
        <time>2020-04-19T13:51:23Z</time>
      </trkpt>
      <trkpt lat="-11.6894690" lon="166.9253150">
        <ele>0.6</ele>
        <time>2020-04-19T13:51:24Z</time>
      </trkpt>
      <trkpt lat="-11.6895510" lon="166.9252820">
        <ele>0.6</ele>
        <time>2020-04-19T13:51:25Z</time>
      </trkpt>
      <trkpt lat="-11.6896300" lon="166.9252500">
        <ele>0.6</ele>
        <time>2020-04-19T13:51:26Z</time>
      </trkpt>
      <trkpt lat="-11.6897110" lon="166.9252070">
        <ele>0.6</ele>
        <time>2020-04-19T13:51:27Z</time>
      </trkpt>
      <trkpt lat="-11.6897840" lon="166.9251640">
        <ele>0.6</ele>
        <time>2020-04-19T13:51:28Z</time>
      </trkpt>
      <trkpt lat="-11.6898620" lon="166.9251110">
        <ele>0.6</ele>
        <time>2020-04-19T13:51:29Z</time>
      </trkpt>
      <trkpt lat="-11.6899410" lon="166.9250680">
        <ele>0.6</ele>
        <time>2020-04-19T13:51:30Z</time>
      </trkpt>
      <trkpt lat="-11.6900190" lon="166.9250570">
        <ele>0.6</ele>
        <time>2020-04-19T13:51:31Z</time>
      </trkpt>
      <trkpt lat="-11.6901090" lon="166.9250250">
        <ele>0.6</ele>
        <time>2020-04-19T13:51:32Z</time>
      </trkpt>
      <trkpt lat="-11.6901930" lon="166.9250250">
        <ele>0.6</ele>
        <time>2020-04-19T13:51:33Z</time>
      </trkpt>
      <trkpt lat="-11.6902820" lon="166.9250360">
        <ele>0.6</ele>
        <time>2020-04-19T13:51:34Z</time>
      </trkpt>
      <trkpt lat="-11.6903650" lon="166.9250680">
        <ele>0.6</ele>
        <time>2020-04-19T13:51:35Z</time>
      </trkpt>
      <trkpt lat="-11.6904510" lon="166.9251000">
        <ele>0.6</ele>
        <time>2020-04-19T13:51:36Z</time>
      </trkpt>
      <trkpt lat="-11.6905300" lon="166.9251430">
        <ele>0.6</ele>
        <time>2020-04-19T13:51:37Z</time>
      </trkpt>
      <trkpt lat="-11.6906100" lon="166.9251750">
        <ele>0.6</ele>
        <time>2020-04-19T13:51:38Z</time>
      </trkpt>
      <trkpt lat="-11.6906870" lon="166.9252400">
        <ele>0.6</ele>
        <time>2020-04-19T13:51:39Z</time>
      </trkpt>
      <trkpt lat="-11.6907570" lon="166.9252820">
        <ele>0.6</ele>
        <time>2020-04-19T13:51:40Z</time>
      </trkpt>
      <trkpt lat="-11.6908220" lon="166.9253470">
        <ele>0.4</ele>
        <time>2020-04-19T13:51:41Z</time>
      </trkpt>
      <trkpt lat="-11.6908750" lon="166.9254220">
        <ele>0.4</ele>
        <time>2020-04-19T13:51:42Z</time>
      </trkpt>
      <trkpt lat="-11.6909150" lon="166.9254970">
        <ele>0.4</ele>
        <time>2020-04-19T13:51:43Z</time>
      </trkpt>
      <trkpt lat="-11.6909440" lon="166.9255830">
        <ele>0.4</ele>
        <time>2020-04-19T13:51:44Z</time>
      </trkpt>
      <trkpt lat="-11.6909690" lon="166.9256790">
        <ele>0.4</ele>
        <time>2020-04-19T13:51:45Z</time>
      </trkpt>
      <trkpt lat="-11.6909940" lon="166.9257650">
        <ele>0.4</ele>
        <time>2020-04-19T13:51:46Z</time>
      </trkpt>
      <trkpt lat="-11.6910250" lon="166.9258510">
        <ele>0.4</ele>
        <time>2020-04-19T13:51:47Z</time>
      </trkpt>
      <trkpt lat="-11.6910660" lon="166.9259370">
        <ele>0.4</ele>
        <time>2020-04-19T13:51:48Z</time>
      </trkpt>
      <trkpt lat="-11.6911150" lon="166.9260120">
        <ele>0.4</ele>
        <time>2020-04-19T13:51:49Z</time>
      </trkpt>
      <trkpt lat="-11.6911630" lon="166.9260870">
        <ele>0.4</ele>
        <time>2020-04-19T13:51:50Z</time>
      </trkpt>
      <trkpt lat="-11.6912090" lon="166.9261620">
        <ele>0.4</ele>
        <time>2020-04-19T13:51:51Z</time>
      </trkpt>
      <trkpt lat="-11.6912490" lon="166.9262590">
        <ele>0.4</ele>
        <time>2020-04-19T13:51:52Z</time>
      </trkpt>
      <trkpt lat="-11.6912770" lon="166.9263450">
        <ele>0.4</ele>
        <time>2020-04-19T13:51:53Z</time>
      </trkpt>
      <trkpt lat="-11.6912860" lon="166.9264410">
        <ele>0.4</ele>
        <time>2020-04-19T13:51:54Z</time>
      </trkpt>
      <trkpt lat="-11.6912730" lon="166.9265380">
        <ele>0.6</ele>
        <time>2020-04-19T13:51:55Z</time>
      </trkpt>
      <trkpt lat="-11.6912430" lon="166.9266130">
        <ele>0.8</ele>
        <time>2020-04-19T13:51:56Z</time>
      </trkpt>
      <trkpt lat="-11.6912010" lon="166.9266990">
        <ele>1.0</ele>
        <time>2020-04-19T13:51:57Z</time>
      </trkpt>
      <trkpt lat="-11.6911520" lon="166.9267630">
        <ele>1.2</ele>
        <time>2020-04-19T13:51:58Z</time>
      </trkpt>
      <trkpt lat="-11.6911000" lon="166.9268380">
        <ele>1.2</ele>
        <time>2020-04-19T13:51:59Z</time>
      </trkpt>
      <trkpt lat="-11.6910450" lon="166.9269030">
        <ele>1.4</ele>
        <time>2020-04-19T13:52:00Z</time>
      </trkpt>
      <trkpt lat="-11.6909860" lon="166.9269560">
        <ele>1.6</ele>
        <time>2020-04-19T13:52:01Z</time>
      </trkpt>
      <trkpt lat="-11.6909280" lon="166.9270210">
        <ele>1.8</ele>
        <time>2020-04-19T13:52:02Z</time>
      </trkpt>
      <trkpt lat="-11.6908690" lon="166.9270850">
        <ele>1.8</ele>
        <time>2020-04-19T13:52:03Z</time>
      </trkpt>
      <trkpt lat="-11.6908080" lon="166.9271280">
        <ele>2.0</ele>
        <time>2020-04-19T13:52:04Z</time>
      </trkpt>
      <trkpt lat="-11.6907340" lon="166.9271710">
        <ele>2.2</ele>
        <time>2020-04-19T13:52:05Z</time>
      </trkpt>
      <trkpt lat="-11.6906670" lon="166.9272030">
        <ele>2.2</ele>
        <time>2020-04-19T13:52:06Z</time>
      </trkpt>
      <trkpt lat="-11.6905940" lon="166.9272460">
        <ele>2.4</ele>
        <time>2020-04-19T13:52:07Z</time>
      </trkpt>
      <trkpt lat="-11.6905250" lon="166.9272780">
        <ele>2.4</ele>
        <time>2020-04-19T13:52:08Z</time>
      </trkpt>
      <trkpt lat="-11.6904560" lon="166.9273100">
        <ele>2.6</ele>
        <time>2020-04-19T13:52:09Z</time>
      </trkpt>
      <trkpt lat="-11.6903870" lon="166.9273420">
        <ele>2.6</ele>
        <time>2020-04-19T13:52:10Z</time>
      </trkpt>
      <trkpt lat="-11.6903240" lon="166.9273750">
        <ele>2.6</ele>
        <time>2020-04-19T13:52:11Z</time>
      </trkpt>
      <trkpt lat="-11.6902600" lon="166.9274180">
        <ele>2.8</ele>
        <time>2020-04-19T13:52:12Z</time>
      </trkpt>
      <trkpt lat="-11.6902050" lon="166.9274600">
        <ele>2.8</ele>
        <time>2020-04-19T13:52:13Z</time>
      </trkpt>
      <trkpt lat="-11.6901530" lon="166.9275140">
        <ele>3.0</ele>
        <time>2020-04-19T13:52:14Z</time>
      </trkpt>
      <trkpt lat="-11.6901120" lon="166.9275570">
        <ele>3.0</ele>
        <time>2020-04-19T13:52:15Z</time>
      </trkpt>
      <trkpt lat="-11.6900790" lon="166.9276320">
        <ele>3.0</ele>
        <time>2020-04-19T13:52:16Z</time>
      </trkpt>
      <trkpt lat="-11.6900590" lon="166.9276960">
        <ele>3.0</ele>
        <time>2020-04-19T13:52:17Z</time>
      </trkpt>
      <trkpt lat="-11.6900430" lon="166.9277500">
        <ele>3.2</ele>
        <time>2020-04-19T13:52:18Z</time>
      </trkpt>
      <trkpt lat="-11.6900320" lon="166.9278250">
        <ele>3.2</ele>
        <time>2020-04-19T13:52:19Z</time>
      </trkpt>
      <trkpt lat="-11.6900240" lon="166.9278900">
        <ele>3.2</ele>
        <time>2020-04-19T13:52:20Z</time>
      </trkpt>
      <trkpt lat="-11.6900200" lon="166.9279650">
        <ele>3.2</ele>
        <time>2020-04-19T13:52:21Z</time>
      </trkpt>
      <trkpt lat="-11.6900200" lon="166.9280290">
        <ele>3.2</ele>
        <time>2020-04-19T13:52:22Z</time>
      </trkpt>
      <trkpt lat="-11.6900200" lon="166.9281040">
        <ele>3.2</ele>
        <time>2020-04-19T13:52:23Z</time>
      </trkpt>
      <trkpt lat="-11.6900240" lon="166.9281690">
        <ele>3.2</ele>
        <time>2020-04-19T13:52:24Z</time>
      </trkpt>
      <trkpt lat="-11.6900300" lon="166.9282220">
        <ele>3.2</ele>
        <time>2020-04-19T13:52:25Z</time>
      </trkpt>
      <trkpt lat="-11.6900380" lon="166.9283080">
        <ele>3.2</ele>
        <time>2020-04-19T13:52:26Z</time>
      </trkpt>
      <trkpt lat="-11.6900470" lon="166.9283620">
        <ele>3.2</ele>
        <time>2020-04-19T13:52:27Z</time>
      </trkpt>
      <trkpt lat="-11.6900590" lon="166.9284260">
        <ele>3.2</ele>
        <time>2020-04-19T13:52:28Z</time>
      </trkpt>
      <trkpt lat="-11.6900730" lon="166.9285010">
        <ele>3.2</ele>
        <time>2020-04-19T13:52:29Z</time>
      </trkpt>
      <trkpt lat="-11.6900900" lon="166.9285660">
        <ele>3.4</ele>
        <time>2020-04-19T13:52:30Z</time>
      </trkpt>
      <trkpt lat="-11.6901090" lon="166.9286410">
        <ele>3.4</ele>
        <time>2020-04-19T13:52:31Z</time>
      </trkpt>
      <trkpt lat="-11.6901300" lon="166.9287050">
        <ele>3.4</ele>
        <time>2020-04-19T13:52:32Z</time>
      </trkpt>
      <trkpt lat="-11.6901520" lon="166.9287480">
        <ele>3.4</ele>
        <time>2020-04-19T13:52:33Z</time>
      </trkpt>
      <trkpt lat="-11.6901750" lon="166.9288020">
        <ele>3.4</ele>
        <time>2020-04-19T13:52:34Z</time>
      </trkpt>
      <trkpt lat="-11.6901990" lon="166.9288660">
        <ele>3.4</ele>
        <time>2020-04-19T13:52:35Z</time>
      </trkpt>
      <trkpt lat="-11.6902280" lon="166.9289090">
        <ele>3.4</ele>
        <time>2020-04-19T13:52:36Z</time>
      </trkpt>
      <trkpt lat="-11.6902590" lon="166.9289730">
        <ele>3.4</ele>
        <time>2020-04-19T13:52:37Z</time>
      </trkpt>
      <trkpt lat="-11.6902940" lon="166.9290380">
        <ele>3.4</ele>
        <time>2020-04-19T13:52:38Z</time>
      </trkpt>
      <trkpt lat="-11.6903260" lon="166.9290800">
        <ele>3.4</ele>
        <time>2020-04-19T13:52:39Z</time>
      </trkpt>
      <trkpt lat="-11.6903620" lon="166.9291230">
        <ele>3.4</ele>
        <time>2020-04-19T13:52:40Z</time>
      </trkpt>
      <trkpt lat="-11.6904000" lon="166.9291880">
        <ele>3.4</ele>
        <time>2020-04-19T13:52:41Z</time>
      </trkpt>
      <trkpt lat="-11.6904430" lon="166.9292310">
        <ele>3.4</ele>
        <time>2020-04-19T13:52:42Z</time>
      </trkpt>
      <trkpt lat="-11.6904830" lon="166.9292840">
        <ele>3.4</ele>
        <time>2020-04-19T13:52:43Z</time>
      </trkpt>
      <trkpt lat="-11.6905250" lon="166.9293270">
        <ele>3.4</ele>
        <time>2020-04-19T13:52:44Z</time>
      </trkpt>
      <trkpt lat="-11.6905680" lon="166.9293920">
        <ele>3.2</ele>
        <time>2020-04-19T13:52:45Z</time>
      </trkpt>
      <trkpt lat="-11.6906130" lon="166.9294130">
        <ele>3.2</ele>
        <time>2020-04-19T13:52:46Z</time>
      </trkpt>
      <trkpt lat="-11.6906600" lon="166.9294670">
        <ele>3.2</ele>
        <time>2020-04-19T13:52:47Z</time>
      </trkpt>
      <trkpt lat="-11.6907110" lon="166.9295100">
        <ele>3.2</ele>
        <time>2020-04-19T13:52:48Z</time>
      </trkpt>
      <trkpt lat="-11.6907650" lon="166.9295530">
        <ele>3.2</ele>
        <time>2020-04-19T13:52:49Z</time>
      </trkpt>
      <trkpt lat="-11.6908200" lon="166.9295850">
        <ele>3.0</ele>
        <time>2020-04-19T13:52:50Z</time>
      </trkpt>
      <trkpt lat="-11.6908790" lon="166.9296170">
        <ele>3.0</ele>
        <time>2020-04-19T13:52:51Z</time>
      </trkpt>
      <trkpt lat="-11.6909420" lon="166.9296280">
        <ele>3.0</ele>
        <time>2020-04-19T13:52:52Z</time>
      </trkpt>
      <trkpt lat="-11.6910070" lon="166.9296490">
        <ele>2.8</ele>
        <time>2020-04-19T13:52:53Z</time>
      </trkpt>
      <trkpt lat="-11.6910750" lon="166.9296600">
        <ele>2.8</ele>
        <time>2020-04-19T13:52:54Z</time>
      </trkpt>
      <trkpt lat="-11.6911400" lon="166.9296600">
        <ele>2.6</ele>
        <time>2020-04-19T13:52:55Z</time>
      </trkpt>
      <trkpt lat="-11.6912110" lon="166.9296810">
        <ele>2.6</ele>
        <time>2020-04-19T13:52:56Z</time>
      </trkpt>
      <trkpt lat="-11.6912880" lon="166.9296810">
        <ele>2.4</ele>
        <time>2020-04-19T13:52:57Z</time>
      </trkpt>
      <trkpt lat="-11.6913590" lon="166.9296810">
        <ele>2.2</ele>
        <time>2020-04-19T13:52:58Z</time>
      </trkpt>
      <trkpt lat="-11.6914300" lon="166.9296920">
        <ele>2.2</ele>
        <time>2020-04-19T13:52:59Z</time>
      </trkpt>
      <trkpt lat="-11.6915050" lon="166.9296920">
        <ele>2.0</ele>
        <time>2020-04-19T13:53:00Z</time>
      </trkpt>
      <trkpt lat="-11.6915830" lon="166.9297030">
        <ele>1.8</ele>
        <time>2020-04-19T13:53:01Z</time>
      </trkpt>
      <trkpt lat="-11.6916550" lon="166.9297240">
        <ele>1.8</ele>
        <time>2020-04-19T13:53:02Z</time>
      </trkpt>
      <trkpt lat="-11.6917330" lon="166.9297670">
        <ele>1.6</ele>
        <time>2020-04-19T13:53:03Z</time>
      </trkpt>
      <trkpt lat="-11.6918070" lon="166.9297990">
        <ele>1.4</ele>
        <time>2020-04-19T13:53:04Z</time>
      </trkpt>
      <trkpt lat="-11.6918830" lon="166.9298320">
        <ele>1.4</ele>
        <time>2020-04-19T13:53:05Z</time>
      </trkpt>
      <trkpt lat="-11.6919580" lon="166.9298740">
        <ele>1.2</ele>
        <time>2020-04-19T13:53:06Z</time>
      </trkpt>
      <trkpt lat="-11.6920360" lon="166.9299170">
        <ele>1.0</ele>
        <time>2020-04-19T13:53:07Z</time>
      </trkpt>
      <trkpt lat="-11.6921070" lon="166.9299710">
        <ele>1.0</ele>
        <time>2020-04-19T13:53:08Z</time>
      </trkpt>
      <trkpt lat="-11.6921810" lon="166.9300250">
        <ele>0.8</ele>
        <time>2020-04-19T13:53:09Z</time>
      </trkpt>
      <trkpt lat="-11.6922530" lon="166.9300890">
        <ele>0.6</ele>
        <time>2020-04-19T13:53:10Z</time>
      </trkpt>
      <trkpt lat="-11.6923150" lon="166.9301530">
        <ele>0.6</ele>
        <time>2020-04-19T13:53:11Z</time>
      </trkpt>
      <trkpt lat="-11.6923700" lon="166.9302280">
        <ele>0.4</ele>
        <time>2020-04-19T13:53:12Z</time>
      </trkpt>
      <trkpt lat="-11.6924100" lon="166.9303040">
        <ele>0.4</ele>
        <time>2020-04-19T13:53:13Z</time>
      </trkpt>
      <trkpt lat="-11.6924400" lon="166.9303890">
        <ele>0.4</ele>
        <time>2020-04-19T13:53:14Z</time>
      </trkpt>
      <trkpt lat="-11.6924570" lon="166.9304860">
        <ele>0.4</ele>
        <time>2020-04-19T13:53:15Z</time>
      </trkpt>
      <trkpt lat="-11.6924670" lon="166.9305720">
        <ele>0.4</ele>
        <time>2020-04-19T13:53:16Z</time>
      </trkpt>
      <trkpt lat="-11.6924730" lon="166.9306680">
        <ele>0.4</ele>
        <time>2020-04-19T13:53:17Z</time>
      </trkpt>
      <trkpt lat="-11.6924790" lon="166.9307650">
        <ele>0.4</ele>
        <time>2020-04-19T13:53:18Z</time>
      </trkpt>
      <trkpt lat="-11.6924840" lon="166.9308510">
        <ele>0.4</ele>
        <time>2020-04-19T13:53:19Z</time>
      </trkpt>
      <trkpt lat="-11.6924890" lon="166.9309470">
        <ele>0.4</ele>
        <time>2020-04-19T13:53:20Z</time>
      </trkpt>
      <trkpt lat="-11.6924870" lon="166.9310220">
        <ele>0.4</ele>
        <time>2020-04-19T13:53:21Z</time>
      </trkpt>
      <trkpt lat="-11.6924680" lon="166.9311080">
        <ele>0.4</ele>
        <time>2020-04-19T13:53:22Z</time>
      </trkpt>
      <trkpt lat="-11.6924320" lon="166.9311830">
        <ele>0.4</ele>
        <time>2020-04-19T13:53:23Z</time>
      </trkpt>
      <trkpt lat="-11.6923710" lon="166.9312480">
        <ele>0.6</ele>
        <time>2020-04-19T13:53:24Z</time>
      </trkpt>
      <trkpt lat="-11.6922980" lon="166.9312910">
        <ele>0.6</ele>
        <time>2020-04-19T13:53:25Z</time>
      </trkpt>
      <trkpt lat="-11.6922160" lon="166.9313230">
        <ele>0.6</ele>
        <time>2020-04-19T13:53:26Z</time>
      </trkpt>
      <trkpt lat="-11.6921350" lon="166.9313550">
        <ele>0.6</ele>
        <time>2020-04-19T13:53:27Z</time>
      </trkpt>
      <trkpt lat="-11.6920510" lon="166.9313660">
        <ele>0.6</ele>
        <time>2020-04-19T13:53:28Z</time>
      </trkpt>
      <trkpt lat="-11.6919680" lon="166.9313870">
        <ele>0.6</ele>
        <time>2020-04-19T13:53:29Z</time>
      </trkpt>
      <trkpt lat="-11.6918850" lon="166.9313980">
        <ele>0.6</ele>
        <time>2020-04-19T13:53:30Z</time>
      </trkpt>
      <trkpt lat="-11.6917960" lon="166.9314300">
        <ele>0.6</ele>
        <time>2020-04-19T13:53:31Z</time>
      </trkpt>
      <trkpt lat="-11.6917200" lon="166.9314620">
        <ele>0.6</ele>
        <time>2020-04-19T13:53:32Z</time>
      </trkpt>
      <trkpt lat="-11.6916440" lon="166.9315050">
        <ele>0.4</ele>
        <time>2020-04-19T13:53:33Z</time>
      </trkpt>
      <trkpt lat="-11.6915730" lon="166.9315480">
        <ele>0.4</ele>
        <time>2020-04-19T13:53:34Z</time>
      </trkpt>
      <trkpt lat="-11.6915060" lon="166.9316020">
        <ele>0.4</ele>
        <time>2020-04-19T13:53:35Z</time>
      </trkpt>
      <trkpt lat="-11.6914380" lon="166.9316550">
        <ele>0.4</ele>
        <time>2020-04-19T13:53:36Z</time>
      </trkpt>
      <trkpt lat="-11.6913680" lon="166.9317200">
        <ele>0.4</ele>
        <time>2020-04-19T13:53:37Z</time>
      </trkpt>
      <trkpt lat="-11.6912960" lon="166.9317630">
        <ele>0.4</ele>
        <time>2020-04-19T13:53:38Z</time>
      </trkpt>
      <trkpt lat="-11.6912150" lon="166.9318160">
        <ele>0.4</ele>
        <time>2020-04-19T13:53:39Z</time>
      </trkpt>
      <trkpt lat="-11.6911320" lon="166.9318380">
        <ele>0.4</ele>
        <time>2020-04-19T13:53:40Z</time>
      </trkpt>
      <trkpt lat="-11.6910460" lon="166.9318380">
        <ele>0.6</ele>
        <time>2020-04-19T13:53:41Z</time>
      </trkpt>
      <trkpt lat="-11.6909630" lon="166.9318270">
        <ele>0.8</ele>
        <time>2020-04-19T13:53:42Z</time>
      </trkpt>
      <trkpt lat="-11.6908830" lon="166.9317950">
        <ele>1.0</ele>
        <time>2020-04-19T13:53:43Z</time>
      </trkpt>
      <trkpt lat="-11.6908090" lon="166.9317630">
        <ele>1.2</ele>
        <time>2020-04-19T13:53:44Z</time>
      </trkpt>
      <trkpt lat="-11.6907390" lon="166.9317410">
        <ele>1.4</ele>
        <time>2020-04-19T13:53:45Z</time>
      </trkpt>
      <trkpt lat="-11.6906780" lon="166.9316880">
        <ele>1.6</ele>
        <time>2020-04-19T13:53:46Z</time>
      </trkpt>
      <trkpt lat="-11.6906130" lon="166.9316550">
        <ele>1.8</ele>
        <time>2020-04-19T13:53:47Z</time>
      </trkpt>
      <trkpt lat="-11.6905470" lon="166.9316340">
        <ele>2.0</ele>
        <time>2020-04-19T13:53:48Z</time>
      </trkpt>
      <trkpt lat="-11.6904880" lon="166.9316020">
        <ele>2.4</ele>
        <time>2020-04-19T13:53:49Z</time>
      </trkpt>
      <trkpt lat="-11.6904290" lon="166.9315700">
        <ele>2.6</ele>
        <time>2020-04-19T13:53:50Z</time>
      </trkpt>
      <trkpt lat="-11.6903700" lon="166.9315480">
        <ele>2.8</ele>
        <time>2020-04-19T13:53:51Z</time>
      </trkpt>
      <trkpt lat="-11.6903070" lon="166.9315480">
        <ele>3.0</ele>
        <time>2020-04-19T13:53:52Z</time>
      </trkpt>
      <trkpt lat="-11.6902510" lon="166.9315480">
        <ele>3.4</ele>
        <time>2020-04-19T13:53:53Z</time>
      </trkpt>
      <trkpt lat="-11.6901990" lon="166.9315700">
        <ele>3.6</ele>
        <time>2020-04-19T13:53:54Z</time>
      </trkpt>
      <trkpt lat="-11.6901500" lon="166.9316020">
        <ele>3.8</ele>
        <time>2020-04-19T13:53:55Z</time>
      </trkpt>
      <trkpt lat="-11.6901090" lon="166.9316120">
        <ele>4.0</ele>
        <time>2020-04-19T13:53:56Z</time>
      </trkpt>
      <trkpt lat="-11.6900730" lon="166.9316550">
        <ele>4.2</ele>
        <time>2020-04-19T13:53:57Z</time>
      </trkpt>
      <trkpt lat="-11.6900350" lon="166.9316880">
        <ele>4.4</ele>
        <time>2020-04-19T13:53:58Z</time>
      </trkpt>
      <trkpt lat="-11.6900020" lon="166.9317200">
        <ele>4.6</ele>
        <time>2020-04-19T13:53:59Z</time>
      </trkpt>
      <trkpt lat="-11.6899710" lon="166.9317520">
        <ele>4.8</ele>
        <time>2020-04-19T13:54:00Z</time>
      </trkpt>
      <trkpt lat="-11.6899390" lon="166.9317840">
        <ele>4.8</ele>
        <time>2020-04-19T13:54:01Z</time>
      </trkpt>
      <trkpt lat="-11.6899090" lon="166.9318160">
        <ele>5.0</ele>
        <time>2020-04-19T13:54:02Z</time>
      </trkpt>
      <trkpt lat="-11.6898800" lon="166.9318590">
        <ele>5.2</ele>
        <time>2020-04-19T13:54:03Z</time>
      </trkpt>
      <trkpt lat="-11.6898500" lon="166.9318910">
        <ele>5.4</ele>
        <time>2020-04-19T13:54:04Z</time>
      </trkpt>
      <trkpt lat="-11.6898210" lon="166.9319240">
        <ele>5.4</ele>
        <time>2020-04-19T13:54:05Z</time>
      </trkpt>
      <trkpt lat="-11.6897900" lon="166.9319450">
        <ele>5.6</ele>
        <time>2020-04-19T13:54:06Z</time>
      </trkpt>
      <trkpt lat="-11.6897630" lon="166.9319770">
        <ele>5.8</ele>
        <time>2020-04-19T13:54:07Z</time>
      </trkpt>
      <trkpt lat="-11.6897310" lon="166.9320090">
        <ele>6.0</ele>
        <time>2020-04-19T13:54:08Z</time>
      </trkpt>
      <trkpt lat="-11.6896990" lon="166.9320420">
        <ele>6.2</ele>
        <time>2020-04-19T13:54:09Z</time>
      </trkpt>
      <trkpt lat="-11.6896660" lon="166.9320740">
        <ele>6.2</ele>
        <time>2020-04-19T13:54:10Z</time>
      </trkpt>
      <trkpt lat="-11.6896290" lon="166.9320850">
        <ele>6.4</ele>
        <time>2020-04-19T13:54:11Z</time>
      </trkpt>
      <trkpt lat="-11.6895910" lon="166.9321060">
        <ele>6.6</ele>
        <time>2020-04-19T13:54:12Z</time>
      </trkpt>
      <trkpt lat="-11.6895520" lon="166.9321170">
        <ele>6.6</ele>
        <time>2020-04-19T13:54:13Z</time>
      </trkpt>
      <trkpt lat="-11.6895150" lon="166.9321170">
        <ele>6.8</ele>
        <time>2020-04-19T13:54:14Z</time>
      </trkpt>
      <trkpt lat="-11.6894720" lon="166.9321170">
        <ele>6.8</ele>
        <time>2020-04-19T13:54:15Z</time>
      </trkpt>
      <trkpt lat="-11.6894300" lon="166.9321170">
        <ele>7.0</ele>
        <time>2020-04-19T13:54:16Z</time>
      </trkpt>
      <trkpt lat="-11.6893930" lon="166.9321060">
        <ele>7.0</ele>
        <time>2020-04-19T13:54:17Z</time>
      </trkpt>
      <trkpt lat="-11.6893580" lon="166.9320740">
        <ele>7.2</ele>
        <time>2020-04-19T13:54:18Z</time>
      </trkpt>
      <trkpt lat="-11.6893260" lon="166.9320420">
        <ele>7.2</ele>
        <time>2020-04-19T13:54:19Z</time>
      </trkpt>
      <trkpt lat="-11.6892980" lon="166.9320090">
        <ele>7.4</ele>
        <time>2020-04-19T13:54:20Z</time>
      </trkpt>
      <trkpt lat="-11.6892730" lon="166.9319770">
        <ele>7.4</ele>
        <time>2020-04-19T13:54:21Z</time>
      </trkpt>
      <trkpt lat="-11.6892550" lon="166.9319340">
        <ele>7.6</ele>
        <time>2020-04-19T13:54:22Z</time>
      </trkpt>
      <trkpt lat="-11.6892370" lon="166.9319020">
        <ele>7.6</ele>
        <time>2020-04-19T13:54:23Z</time>
      </trkpt>
      <trkpt lat="-11.6892240" lon="166.9318590">
        <ele>7.8</ele>
        <time>2020-04-19T13:54:24Z</time>
      </trkpt>
      <trkpt lat="-11.6892090" lon="166.9318270">
        <ele>7.8</ele>
        <time>2020-04-19T13:54:25Z</time>
      </trkpt>
      <trkpt lat="-11.6891930" lon="166.9317630">
        <ele>8.0</ele>
        <time>2020-04-19T13:54:26Z</time>
      </trkpt>
      <trkpt lat="-11.6891850" lon="166.9317410">
        <ele>8.0</ele>
        <time>2020-04-19T13:54:27Z</time>
      </trkpt>
      <trkpt lat="-11.6891690" lon="166.9317090">
        <ele>8.0</ele>
        <time>2020-04-19T13:54:28Z</time>
      </trkpt>
      <trkpt lat="-11.6891500" lon="166.9316550">
        <ele>8.2</ele>
        <time>2020-04-19T13:54:29Z</time>
      </trkpt>
      <trkpt lat="-11.6891290" lon="166.9316340">
        <ele>8.4</ele>
        <time>2020-04-19T13:54:30Z</time>
      </trkpt>
      <trkpt lat="-11.6890990" lon="166.9316020">
        <ele>8.4</ele>
        <time>2020-04-19T13:54:31Z</time>
      </trkpt>
      <trkpt lat="-11.6890640" lon="166.9315800">
        <ele>8.6</ele>
        <time>2020-04-19T13:54:32Z</time>
      </trkpt>
      <trkpt lat="-11.6890280" lon="166.9315700">
        <ele>8.8</ele>
        <time>2020-04-19T13:54:33Z</time>
      </trkpt>
      <trkpt lat="-11.6889900" lon="166.9315480">
        <ele>9.0</ele>
        <time>2020-04-19T13:54:34Z</time>
      </trkpt>
      <trkpt lat="-11.6889540" lon="166.9315480">
        <ele>9.2</ele>
        <time>2020-04-19T13:54:35Z</time>
      </trkpt>
      <trkpt lat="-11.6889180" lon="166.9315480">
        <ele>9.4</ele>
        <time>2020-04-19T13:54:36Z</time>
      </trkpt>
      <trkpt lat="-11.6888820" lon="166.9315700">
        <ele>9.4</ele>
        <time>2020-04-19T13:54:37Z</time>
      </trkpt>
      <trkpt lat="-11.6888480" lon="166.9315700">
        <ele>9.6</ele>
        <time>2020-04-19T13:54:38Z</time>
      </trkpt>
      <trkpt lat="-11.6888150" lon="166.9315800">
        <ele>9.6</ele>
        <time>2020-04-19T13:54:39Z</time>
      </trkpt>
      <trkpt lat="-11.6887830" lon="166.9316020">
        <ele>9.8</ele>
        <time>2020-04-19T13:54:40Z</time>
      </trkpt>
      <trkpt lat="-11.6887490" lon="166.9316340">
        <ele>9.8</ele>
        <time>2020-04-19T13:54:41Z</time>
      </trkpt>
      <trkpt lat="-11.6887170" lon="166.9316450">
        <ele>9.8</ele>
        <time>2020-04-19T13:54:42Z</time>
      </trkpt>
      <trkpt lat="-11.6886870" lon="166.9316770">
        <ele>9.6</ele>
        <time>2020-04-19T13:54:43Z</time>
      </trkpt>
      <trkpt lat="-11.6886610" lon="166.9317200">
        <ele>9.6</ele>
        <time>2020-04-19T13:54:44Z</time>
      </trkpt>
      <trkpt lat="-11.6886340" lon="166.9317630">
        <ele>9.6</ele>
        <time>2020-04-19T13:54:45Z</time>
      </trkpt>
      <trkpt lat="-11.6886060" lon="166.9317950">
        <ele>9.4</ele>
        <time>2020-04-19T13:54:46Z</time>
      </trkpt>
      <trkpt lat="-11.6885770" lon="166.9318590">
        <ele>9.4</ele>
        <time>2020-04-19T13:54:47Z</time>
      </trkpt>
      <trkpt lat="-11.6885480" lon="166.9319020">
        <ele>9.2</ele>
        <time>2020-04-19T13:54:48Z</time>
      </trkpt>
      <trkpt lat="-11.6885180" lon="166.9319450">
        <ele>9.2</ele>
        <time>2020-04-19T13:54:49Z</time>
      </trkpt>
      <trkpt lat="-11.6884890" lon="166.9319990">
        <ele>9.0</ele>
        <time>2020-04-19T13:54:50Z</time>
      </trkpt>
      <trkpt lat="-11.6884540" lon="166.9320520">
        <ele>9.0</ele>
        <time>2020-04-19T13:54:51Z</time>
      </trkpt>
      <trkpt lat="-11.6884140" lon="166.9321060">
        <ele>8.8</ele>
        <time>2020-04-19T13:54:52Z</time>
      </trkpt>
      <trkpt lat="-11.6883740" lon="166.9321490">
        <ele>8.8</ele>
        <time>2020-04-19T13:54:53Z</time>
      </trkpt>
      <trkpt lat="-11.6883240" lon="166.9321810">
        <ele>8.8</ele>
        <time>2020-04-19T13:54:54Z</time>
      </trkpt>
      <trkpt lat="-11.6882660" lon="166.9322130">
        <ele>9.0</ele>
        <time>2020-04-19T13:54:55Z</time>
      </trkpt>
      <trkpt lat="-11.6882090" lon="166.9322350">
        <ele>9.0</ele>
        <time>2020-04-19T13:54:56Z</time>
      </trkpt>
      <trkpt lat="-11.6881540" lon="166.9322560">
        <ele>9.2</ele>
        <time>2020-04-19T13:54:57Z</time>
      </trkpt>
      <trkpt lat="-11.6880960" lon="166.9322670">
        <ele>9.4</ele>
        <time>2020-04-19T13:54:58Z</time>
      </trkpt>
      <trkpt lat="-11.6880400" lon="166.9322880">
        <ele>9.6</ele>
        <time>2020-04-19T13:54:59Z</time>
      </trkpt>
      <trkpt lat="-11.6879870" lon="166.9322880">
        <ele>9.8</ele>
        <time>2020-04-19T13:55:00Z</time>
      </trkpt>
      <trkpt lat="-11.6879380" lon="166.9322990">
        <ele>10.0</ele>
        <time>2020-04-19T13:55:01Z</time>
      </trkpt>
      <trkpt lat="-11.6878880" lon="166.9322990">
        <ele>10.2</ele>
        <time>2020-04-19T13:55:02Z</time>
      </trkpt>
      <trkpt lat="-11.6878400" lon="166.9322990">
        <ele>10.2</ele>
        <time>2020-04-19T13:55:03Z</time>
      </trkpt>
      <trkpt lat="-11.6877930" lon="166.9322990">
        <ele>10.4</ele>
        <time>2020-04-19T13:55:04Z</time>
      </trkpt>
      <trkpt lat="-11.6877490" lon="166.9322990">
        <ele>10.6</ele>
        <time>2020-04-19T13:55:05Z</time>
      </trkpt>
      <trkpt lat="-11.6877040" lon="166.9322990">
        <ele>10.8</ele>
        <time>2020-04-19T13:55:06Z</time>
      </trkpt>
      <trkpt lat="-11.6876630" lon="166.9322990">
        <ele>11.0</ele>
        <time>2020-04-19T13:55:07Z</time>
      </trkpt>
      <trkpt lat="-11.6876200" lon="166.9322880">
        <ele>11.2</ele>
        <time>2020-04-19T13:55:08Z</time>
      </trkpt>
      <trkpt lat="-11.6875770" lon="166.9322880">
        <ele>11.4</ele>
        <time>2020-04-19T13:55:09Z</time>
      </trkpt>
      <trkpt lat="-11.6875370" lon="166.9322880">
        <ele>11.4</ele>
        <time>2020-04-19T13:55:10Z</time>
      </trkpt>
      <trkpt lat="-11.6874980" lon="166.9322670">
        <ele>11.6</ele>
        <time>2020-04-19T13:55:11Z</time>
      </trkpt>
      <trkpt lat="-11.6874590" lon="166.9322560">
        <ele>11.8</ele>
        <time>2020-04-19T13:55:12Z</time>
      </trkpt>
      <trkpt lat="-11.6874190" lon="166.9322350">
        <ele>11.8</ele>
        <time>2020-04-19T13:55:13Z</time>
      </trkpt>
      <trkpt lat="-11.6873820" lon="166.9322240">
        <ele>12.0</ele>
        <time>2020-04-19T13:55:14Z</time>
      </trkpt>
      <trkpt lat="-11.6873480" lon="166.9321920">
        <ele>12.0</ele>
        <time>2020-04-19T13:55:15Z</time>
      </trkpt>
      <trkpt lat="-11.6873150" lon="166.9321600">
        <ele>12.2</ele>
        <time>2020-04-19T13:55:16Z</time>
      </trkpt>
      <trkpt lat="-11.6872870" lon="166.9321380">
        <ele>12.2</ele>
        <time>2020-04-19T13:55:17Z</time>
      </trkpt>
      <trkpt lat="-11.6872620" lon="166.9320850">
        <ele>12.2</ele>
        <time>2020-04-19T13:55:18Z</time>
      </trkpt>
      <trkpt lat="-11.6872400" lon="166.9320520">
        <ele>12.4</ele>
        <time>2020-04-19T13:55:19Z</time>
      </trkpt>
      <trkpt lat="-11.6872260" lon="166.9320090">
        <ele>12.4</ele>
        <time>2020-04-19T13:55:20Z</time>
      </trkpt>
      <trkpt lat="-11.6872150" lon="166.9319670">
        <ele>12.4</ele>
        <time>2020-04-19T13:55:21Z</time>
      </trkpt>
      <trkpt lat="-11.6872090" lon="166.9319020">
        <ele>12.6</ele>
        <time>2020-04-19T13:55:22Z</time>
      </trkpt>
      <trkpt lat="-11.6872120" lon="166.9318590">
        <ele>12.6</ele>
        <time>2020-04-19T13:55:23Z</time>
      </trkpt>
      <trkpt lat="-11.6872240" lon="166.9318160">
        <ele>12.8</ele>
        <time>2020-04-19T13:55:24Z</time>
      </trkpt>
      <trkpt lat="-11.6872420" lon="166.9317630">
        <ele>12.8</ele>
        <time>2020-04-19T13:55:25Z</time>
      </trkpt>
      <trkpt lat="-11.6872640" lon="166.9317200">
        <ele>12.8</ele>
        <time>2020-04-19T13:55:26Z</time>
      </trkpt>
      <trkpt lat="-11.6872930" lon="166.9316770">
        <ele>13.0</ele>
        <time>2020-04-19T13:55:27Z</time>
      </trkpt>
      <trkpt lat="-11.6873210" lon="166.9316450">
        <ele>13.0</ele>
        <time>2020-04-19T13:55:28Z</time>
      </trkpt>
      <trkpt lat="-11.6873530" lon="166.9316020">
        <ele>13.0</ele>
        <time>2020-04-19T13:55:29Z</time>
      </trkpt>
      <trkpt lat="-11.6873860" lon="166.9315480">
        <ele>13.2</ele>
        <time>2020-04-19T13:55:30Z</time>
      </trkpt>
      <trkpt lat="-11.6874160" lon="166.9315050">
        <ele>13.2</ele>
        <time>2020-04-19T13:55:31Z</time>
      </trkpt>
      <trkpt lat="-11.6874410" lon="166.9314520">
        <ele>13.2</ele>
        <time>2020-04-19T13:55:32Z</time>
      </trkpt>
      <trkpt lat="-11.6874620" lon="166.9313980">
        <ele>13.4</ele>
        <time>2020-04-19T13:55:33Z</time>
      </trkpt>
      <trkpt lat="-11.6874710" lon="166.9313550">
        <ele>13.4</ele>
        <time>2020-04-19T13:55:34Z</time>
      </trkpt>
      <trkpt lat="-11.6874630" lon="166.9312910">
        <ele>13.6</ele>
        <time>2020-04-19T13:55:35Z</time>
      </trkpt>
      <trkpt lat="-11.6874440" lon="166.9312480">
        <ele>13.6</ele>
        <time>2020-04-19T13:55:36Z</time>
      </trkpt>
      <trkpt lat="-11.6874160" lon="166.9311830">
        <ele>13.8</ele>
        <time>2020-04-19T13:55:37Z</time>
      </trkpt>
      <trkpt lat="-11.6873850" lon="166.9311510">
        <ele>13.8</ele>
        <time>2020-04-19T13:55:38Z</time>
      </trkpt>
      <trkpt lat="-11.6873520" lon="166.9311080">
        <ele>14.0</ele>
        <time>2020-04-19T13:55:39Z</time>
      </trkpt>
      <trkpt lat="-11.6873170" lon="166.9310650">
        <ele>14.0</ele>
        <time>2020-04-19T13:55:40Z</time>
      </trkpt>
      <trkpt lat="-11.6872830" lon="166.9310330">
        <ele>14.2</ele>
        <time>2020-04-19T13:55:41Z</time>
      </trkpt>
      <trkpt lat="-11.6872480" lon="166.9309900">
        <ele>14.2</ele>
        <time>2020-04-19T13:55:42Z</time>
      </trkpt>
      <trkpt lat="-11.6872160" lon="166.9309470">
        <ele>14.4</ele>
        <time>2020-04-19T13:55:43Z</time>
      </trkpt>
      <trkpt lat="-11.6871880" lon="166.9308940">
        <ele>14.6</ele>
        <time>2020-04-19T13:55:44Z</time>
      </trkpt>
      <trkpt lat="-11.6871690" lon="166.9308510">
        <ele>14.6</ele>
        <time>2020-04-19T13:55:45Z</time>
      </trkpt>
      <trkpt lat="-11.6871600" lon="166.9308080">
        <ele>14.8</ele>
        <time>2020-04-19T13:55:46Z</time>
      </trkpt>
      <trkpt lat="-11.6871640" lon="166.9307430">
        <ele>14.8</ele>
        <time>2020-04-19T13:55:47Z</time>
      </trkpt>
      <trkpt lat="-11.6871750" lon="166.9307010">
        <ele>15.0</ele>
        <time>2020-04-19T13:55:48Z</time>
      </trkpt>
      <trkpt lat="-11.6871880" lon="166.9306580">
        <ele>15.2</ele>
        <time>2020-04-19T13:55:49Z</time>
      </trkpt>
      <trkpt lat="-11.6872070" lon="166.9306040">
        <ele>15.4</ele>
        <time>2020-04-19T13:55:50Z</time>
      </trkpt>
      <trkpt lat="-11.6872270" lon="166.9305610">
        <ele>15.6</ele>
        <time>2020-04-19T13:55:51Z</time>
      </trkpt>
      <trkpt lat="-11.6872470" lon="166.9305180">
        <ele>15.6</ele>
        <time>2020-04-19T13:55:52Z</time>
      </trkpt>
      <trkpt lat="-11.6872630" lon="166.9304650">
        <ele>15.8</ele>
        <time>2020-04-19T13:55:53Z</time>
      </trkpt>
      <trkpt lat="-11.6872710" lon="166.9304220">
        <ele>16.0</ele>
        <time>2020-04-19T13:55:54Z</time>
      </trkpt>
      <trkpt lat="-11.6872680" lon="166.9303790">
        <ele>16.0</ele>
        <time>2020-04-19T13:55:55Z</time>
      </trkpt>
      <trkpt lat="-11.6872560" lon="166.9303360">
        <ele>16.2</ele>
        <time>2020-04-19T13:55:56Z</time>
      </trkpt>
      <trkpt lat="-11.6872390" lon="166.9302820">
        <ele>16.2</ele>
        <time>2020-04-19T13:55:57Z</time>
      </trkpt>
      <trkpt lat="-11.6872180" lon="166.9302390">
        <ele>16.2</ele>
        <time>2020-04-19T13:55:58Z</time>
      </trkpt>
      <trkpt lat="-11.6871930" lon="166.9301960">
        <ele>16.2</ele>
        <time>2020-04-19T13:55:59Z</time>
      </trkpt>
      <trkpt lat="-11.6871650" lon="166.9301530">
        <ele>16.0</ele>
        <time>2020-04-19T13:56:00Z</time>
      </trkpt>
      <trkpt lat="-11.6871340" lon="166.9301000">
        <ele>16.0</ele>
        <time>2020-04-19T13:56:01Z</time>
      </trkpt>
      <trkpt lat="-11.6871010" lon="166.9300570">
        <ele>16.0</ele>
        <time>2020-04-19T13:56:02Z</time>
      </trkpt>
      <trkpt lat="-11.6870660" lon="166.9300250">
        <ele>16.0</ele>
        <time>2020-04-19T13:56:03Z</time>
      </trkpt>
      <trkpt lat="-11.6870240" lon="166.9299820">
        <ele>16.0</ele>
        <time>2020-04-19T13:56:04Z</time>
      </trkpt>
      <trkpt lat="-11.6869790" lon="166.9299500">
        <ele>16.0</ele>
        <time>2020-04-19T13:56:05Z</time>
      </trkpt>
      <trkpt lat="-11.6869260" lon="166.9299170">
        <ele>16.2</ele>
        <time>2020-04-19T13:56:06Z</time>
      </trkpt>
      <trkpt lat="-11.6868770" lon="166.9299170">
        <ele>16.2</ele>
        <time>2020-04-19T13:56:07Z</time>
      </trkpt>
      <trkpt lat="-11.6868230" lon="166.9299170">
        <ele>16.4</ele>
        <time>2020-04-19T13:56:08Z</time>
      </trkpt>
      <trkpt lat="-11.6867720" lon="166.9299390">
        <ele>16.6</ele>
        <time>2020-04-19T13:56:09Z</time>
      </trkpt>
      <trkpt lat="-11.6867250" lon="166.9299390">
        <ele>16.8</ele>
        <time>2020-04-19T13:56:10Z</time>
      </trkpt>
      <trkpt lat="-11.6866780" lon="166.9299500">
        <ele>16.8</ele>
        <time>2020-04-19T13:56:11Z</time>
      </trkpt>
      <trkpt lat="-11.6866310" lon="166.9299710">
        <ele>17.0</ele>
        <time>2020-04-19T13:56:12Z</time>
      </trkpt>
      <trkpt lat="-11.6865870" lon="166.9299820">
        <ele>17.2</ele>
        <time>2020-04-19T13:56:13Z</time>
      </trkpt>
      <trkpt lat="-11.6865420" lon="166.9299820">
        <ele>17.2</ele>
        <time>2020-04-19T13:56:14Z</time>
      </trkpt>
      <trkpt lat="-11.6864970" lon="166.9299820">
        <ele>17.4</ele>
        <time>2020-04-19T13:56:15Z</time>
      </trkpt>
      <trkpt lat="-11.6864530" lon="166.9299820">
        <ele>17.6</ele>
        <time>2020-04-19T13:56:16Z</time>
      </trkpt>
      <trkpt lat="-11.6864090" lon="166.9299710">
        <ele>17.8</ele>
        <time>2020-04-19T13:56:17Z</time>
      </trkpt>
      <trkpt lat="-11.6863690" lon="166.9299500">
        <ele>17.8</ele>
        <time>2020-04-19T13:56:18Z</time>
      </trkpt>
      <trkpt lat="-11.6863300" lon="166.9299390">
        <ele>18.0</ele>
        <time>2020-04-19T13:56:19Z</time>
      </trkpt>
      <trkpt lat="-11.6862910" lon="166.9299170">
        <ele>18.0</ele>
        <time>2020-04-19T13:56:20Z</time>
      </trkpt>
      <trkpt lat="-11.6862530" lon="166.9299070">
        <ele>18.2</ele>
        <time>2020-04-19T13:56:21Z</time>
      </trkpt>
      <trkpt lat="-11.6862160" lon="166.9298740">
        <ele>18.4</ele>
        <time>2020-04-19T13:56:22Z</time>
      </trkpt>
      <trkpt lat="-11.6861780" lon="166.9298640">
        <ele>18.4</ele>
        <time>2020-04-19T13:56:23Z</time>
      </trkpt>
      <trkpt lat="-11.6861430" lon="166.9298320">
        <ele>18.6</ele>
        <time>2020-04-19T13:56:24Z</time>
      </trkpt>
      <trkpt lat="-11.6861080" lon="166.9298100">
        <ele>18.8</ele>
        <time>2020-04-19T13:56:25Z</time>
      </trkpt>
      <trkpt lat="-11.6860720" lon="166.9297780">
        <ele>18.8</ele>
        <time>2020-04-19T13:56:26Z</time>
      </trkpt>
      <trkpt lat="-11.6860350" lon="166.9297670">
        <ele>19.0</ele>
        <time>2020-04-19T13:56:27Z</time>
      </trkpt>
      <trkpt lat="-11.6860000" lon="166.9297350">
        <ele>19.2</ele>
        <time>2020-04-19T13:56:28Z</time>
      </trkpt>
      <trkpt lat="-11.6859640" lon="166.9297030">
        <ele>19.2</ele>
        <time>2020-04-19T13:56:29Z</time>
      </trkpt>
      <trkpt lat="-11.6859270" lon="166.9296920">
        <ele>19.4</ele>
        <time>2020-04-19T13:56:30Z</time>
      </trkpt>
      <trkpt lat="-11.6858900" lon="166.9296600">
        <ele>19.6</ele>
        <time>2020-04-19T13:56:31Z</time>
      </trkpt>
      <trkpt lat="-11.6858510" lon="166.9296490">
        <ele>19.8</ele>
        <time>2020-04-19T13:56:32Z</time>
      </trkpt>
      <trkpt lat="-11.6858120" lon="166.9296170">
        <ele>19.8</ele>
        <time>2020-04-19T13:56:33Z</time>
      </trkpt>
      <trkpt lat="-11.6857690" lon="166.9295950">
        <ele>20.0</ele>
        <time>2020-04-19T13:56:34Z</time>
      </trkpt>
      <trkpt lat="-11.6857260" lon="166.9295850">
        <ele>20.2</ele>
        <time>2020-04-19T13:56:35Z</time>
      </trkpt>
      <trkpt lat="-11.6856850" lon="166.9295850">
        <ele>20.4</ele>
        <time>2020-04-19T13:56:36Z</time>
      </trkpt>
      <trkpt lat="-11.6856400" lon="166.9295850">
        <ele>20.6</ele>
        <time>2020-04-19T13:56:37Z</time>
      </trkpt>
      <trkpt lat="-11.6855960" lon="166.9295850">
        <ele>20.8</ele>
        <time>2020-04-19T13:56:38Z</time>
      </trkpt>
      <trkpt lat="-11.6855570" lon="166.9295950">
        <ele>20.8</ele>
        <time>2020-04-19T13:56:39Z</time>
      </trkpt>
      <trkpt lat="-11.6855180" lon="166.9296170">
        <ele>21.0</ele>
        <time>2020-04-19T13:56:40Z</time>
      </trkpt>
      <trkpt lat="-11.6854810" lon="166.9296490">
        <ele>21.2</ele>
        <time>2020-04-19T13:56:41Z</time>
      </trkpt>
      <trkpt lat="-11.6854460" lon="166.9296600">
        <ele>21.4</ele>
        <time>2020-04-19T13:56:42Z</time>
      </trkpt>
      <trkpt lat="-11.6854110" lon="166.9296920">
        <ele>21.4</ele>
        <time>2020-04-19T13:56:43Z</time>
      </trkpt>
      <trkpt lat="-11.6853760" lon="166.9297240">
        <ele>21.6</ele>
        <time>2020-04-19T13:56:44Z</time>
      </trkpt>
      <trkpt lat="-11.6853450" lon="166.9297560">
        <ele>21.8</ele>
        <time>2020-04-19T13:56:45Z</time>
      </trkpt>
      <trkpt lat="-11.6853130" lon="166.9297780">
        <ele>21.8</ele>
        <time>2020-04-19T13:56:46Z</time>
      </trkpt>
      <trkpt lat="-11.6852810" lon="166.9298100">
        <ele>22.0</ele>
        <time>2020-04-19T13:56:47Z</time>
      </trkpt>
      <trkpt lat="-11.6852500" lon="166.9298420">
        <ele>22.0</ele>
        <time>2020-04-19T13:56:48Z</time>
      </trkpt>
      <trkpt lat="-11.6852210" lon="166.9298740">
        <ele>22.2</ele>
        <time>2020-04-19T13:56:49Z</time>
      </trkpt>
      <trkpt lat="-11.6851900" lon="166.9299070">
        <ele>22.4</ele>
        <time>2020-04-19T13:56:50Z</time>
      </trkpt>
      <trkpt lat="-11.6851560" lon="166.9299390">
        <ele>22.4</ele>
        <time>2020-04-19T13:56:51Z</time>
      </trkpt>
      <trkpt lat="-11.6851240" lon="166.9299710">
        <ele>22.6</ele>
        <time>2020-04-19T13:56:52Z</time>
      </trkpt>
      <trkpt lat="-11.6850880" lon="166.9299920">
        <ele>22.6</ele>
        <time>2020-04-19T13:56:53Z</time>
      </trkpt>
      <trkpt lat="-11.6850520" lon="166.9300250">
        <ele>22.8</ele>
        <time>2020-04-19T13:56:54Z</time>
      </trkpt>
      <trkpt lat="-11.6850130" lon="166.9300460">
        <ele>23.0</ele>
        <time>2020-04-19T13:56:55Z</time>
      </trkpt>
      <trkpt lat="-11.6849720" lon="166.9300780">
        <ele>23.2</ele>
        <time>2020-04-19T13:56:56Z</time>
      </trkpt>
      <trkpt lat="-11.6849350" lon="166.9300890">
        <ele>23.2</ele>
        <time>2020-04-19T13:56:57Z</time>
      </trkpt>
      <trkpt lat="-11.6848930" lon="166.9301000">
        <ele>23.4</ele>
        <time>2020-04-19T13:56:58Z</time>
      </trkpt>
      <trkpt lat="-11.6848520" lon="166.9301210">
        <ele>23.6</ele>
        <time>2020-04-19T13:56:59Z</time>
      </trkpt>
      <trkpt lat="-11.6848080" lon="166.9301210">
        <ele>23.6</ele>
        <time>2020-04-19T13:57:00Z</time>
      </trkpt>
      <trkpt lat="-11.6847670" lon="166.9301320">
        <ele>23.8</ele>
        <time>2020-04-19T13:57:01Z</time>
      </trkpt>
      <trkpt lat="-11.6847260" lon="166.9301320">
        <ele>24.0</ele>
        <time>2020-04-19T13:57:02Z</time>
      </trkpt>
      <trkpt lat="-11.6846800" lon="166.9301530">
        <ele>24.2</ele>
        <time>2020-04-19T13:57:03Z</time>
      </trkpt>
      <trkpt lat="-11.6846400" lon="166.9301530">
        <ele>24.2</ele>
        <time>2020-04-19T13:57:04Z</time>
      </trkpt>
      <trkpt lat="-11.6845980" lon="166.9301640">
        <ele>24.4</ele>
        <time>2020-04-19T13:57:05Z</time>
      </trkpt>
      <trkpt lat="-11.6845570" lon="166.9301750">
        <ele>24.6</ele>
        <time>2020-04-19T13:57:06Z</time>
      </trkpt>
      <trkpt lat="-11.6845180" lon="166.9301960">
        <ele>24.8</ele>
        <time>2020-04-19T13:57:07Z</time>
      </trkpt>
      <trkpt lat="-11.6844800" lon="166.9302280">
        <ele>25.0</ele>
        <time>2020-04-19T13:57:08Z</time>
      </trkpt>
      <trkpt lat="-11.6844450" lon="166.9302390">
        <ele>25.0</ele>
        <time>2020-04-19T13:57:09Z</time>
      </trkpt>
      <trkpt lat="-11.6844120" lon="166.9302710">
        <ele>25.2</ele>
        <time>2020-04-19T13:57:10Z</time>
      </trkpt>
      <trkpt lat="-11.6843760" lon="166.9303040">
        <ele>25.2</ele>
        <time>2020-04-19T13:57:11Z</time>
      </trkpt>
      <trkpt lat="-11.6843420" lon="166.9303360">
        <ele>25.4</ele>
        <time>2020-04-19T13:57:12Z</time>
      </trkpt>
      <trkpt lat="-11.6843090" lon="166.9303680">
        <ele>25.4</ele>
        <time>2020-04-19T13:57:13Z</time>
      </trkpt>
      <trkpt lat="-11.6842720" lon="166.9303890">
        <ele>25.6</ele>
        <time>2020-04-19T13:57:14Z</time>
      </trkpt>
      <trkpt lat="-11.6842390" lon="166.9304220">
        <ele>25.8</ele>
        <time>2020-04-19T13:57:15Z</time>
      </trkpt>
      <trkpt lat="-11.6842070" lon="166.9304540">
        <ele>25.8</ele>
        <time>2020-04-19T13:57:16Z</time>
      </trkpt>
      <trkpt lat="-11.6841760" lon="166.9304860">
        <ele>26.0</ele>
        <time>2020-04-19T13:57:17Z</time>
      </trkpt>
      <trkpt lat="-11.6841450" lon="166.9305180">
        <ele>26.0</ele>
        <time>2020-04-19T13:57:18Z</time>
      </trkpt>
      <trkpt lat="-11.6841180" lon="166.9305610">
        <ele>26.2</ele>
        <time>2020-04-19T13:57:19Z</time>
      </trkpt>
      <trkpt lat="-11.6840940" lon="166.9306040">
        <ele>26.4</ele>
        <time>2020-04-19T13:57:20Z</time>
      </trkpt>
      <trkpt lat="-11.6840740" lon="166.9306360">
        <ele>26.4</ele>
        <time>2020-04-19T13:57:21Z</time>
      </trkpt>
      <trkpt lat="-11.6840590" lon="166.9306790">
        <ele>26.6</ele>
        <time>2020-04-19T13:57:22Z</time>
      </trkpt>
      <trkpt lat="-11.6840510" lon="166.9307330">
        <ele>26.8</ele>
        <time>2020-04-19T13:57:23Z</time>
      </trkpt>
      <trkpt lat="-11.6840520" lon="166.9307760">
        <ele>27.0</ele>
        <time>2020-04-19T13:57:24Z</time>
      </trkpt>
      <trkpt lat="-11.6840610" lon="166.9308190">
        <ele>27.2</ele>
        <time>2020-04-19T13:57:25Z</time>
      </trkpt>
      <trkpt lat="-11.6840730" lon="166.9308610">
        <ele>27.4</ele>
        <time>2020-04-19T13:57:26Z</time>
      </trkpt>
      <trkpt lat="-11.6840870" lon="166.9308940">
        <ele>27.4</ele>
        <time>2020-04-19T13:57:27Z</time>
      </trkpt>
      <trkpt lat="-11.6841050" lon="166.9309470">
        <ele>27.6</ele>
        <time>2020-04-19T13:57:28Z</time>
      </trkpt>
      <trkpt lat="-11.6841240" lon="166.9309690">
        <ele>27.8</ele>
        <time>2020-04-19T13:57:29Z</time>
      </trkpt>
      <trkpt lat="-11.6841410" lon="166.9310220">
        <ele>28.0</ele>
        <time>2020-04-19T13:57:30Z</time>
      </trkpt>
      <trkpt lat="-11.6841620" lon="166.9310550">
        <ele>28.0</ele>
        <time>2020-04-19T13:57:31Z</time>
      </trkpt>
      <trkpt lat="-11.6841810" lon="166.9310760">
        <ele>28.2</ele>
        <time>2020-04-19T13:57:32Z</time>
      </trkpt>
      <trkpt lat="-11.6842030" lon="166.9311300">
        <ele>28.4</ele>
        <time>2020-04-19T13:57:33Z</time>
      </trkpt>
      <trkpt lat="-11.6842230" lon="166.9311510">
        <ele>28.6</ele>
        <time>2020-04-19T13:57:34Z</time>
      </trkpt>
      <trkpt lat="-11.6842430" lon="166.9312050">
        <ele>28.6</ele>
        <time>2020-04-19T13:57:35Z</time>
      </trkpt>
      <trkpt lat="-11.6842630" lon="166.9312370">
        <ele>28.8</ele>
        <time>2020-04-19T13:57:36Z</time>
      </trkpt>
      <trkpt lat="-11.6842830" lon="166.9312800">
        <ele>29.0</ele>
        <time>2020-04-19T13:57:37Z</time>
      </trkpt>
      <trkpt lat="-11.6843020" lon="166.9313120">
        <ele>29.0</ele>
        <time>2020-04-19T13:57:38Z</time>
      </trkpt>
      <trkpt lat="-11.6843180" lon="166.9313550">
        <ele>29.2</ele>
        <time>2020-04-19T13:57:39Z</time>
      </trkpt>
      <trkpt lat="-11.6843300" lon="166.9313980">
        <ele>29.4</ele>
        <time>2020-04-19T13:57:40Z</time>
      </trkpt>
      <trkpt lat="-11.6843370" lon="166.9314520">
        <ele>29.4</ele>
        <time>2020-04-19T13:57:41Z</time>
      </trkpt>
      <trkpt lat="-11.6843350" lon="166.9314940">
        <ele>29.6</ele>
        <time>2020-04-19T13:57:42Z</time>
      </trkpt>
      <trkpt lat="-11.6843230" lon="166.9315270">
        <ele>29.8</ele>
        <time>2020-04-19T13:57:43Z</time>
      </trkpt>
      <trkpt lat="-11.6843020" lon="166.9315700">
        <ele>29.8</ele>
        <time>2020-04-19T13:57:44Z</time>
      </trkpt>
      <trkpt lat="-11.6842720" lon="166.9316020">
        <ele>30.0</ele>
        <time>2020-04-19T13:57:45Z</time>
      </trkpt>
      <trkpt lat="-11.6842390" lon="166.9316340">
        <ele>30.0</ele>
        <time>2020-04-19T13:57:46Z</time>
      </trkpt>
      <trkpt lat="-11.6841970" lon="166.9316550">
        <ele>30.0</ele>
        <time>2020-04-19T13:57:47Z</time>
      </trkpt>
      <trkpt lat="-11.6841570" lon="166.9316770">
        <ele>30.2</ele>
        <time>2020-04-19T13:57:48Z</time>
      </trkpt>
      <trkpt lat="-11.6841120" lon="166.9316880">
        <ele>30.2</ele>
        <time>2020-04-19T13:57:49Z</time>
      </trkpt>
      <trkpt lat="-11.6840650" lon="166.9317090">
        <ele>30.2</ele>
        <time>2020-04-19T13:57:50Z</time>
      </trkpt>
      <trkpt lat="-11.6840160" lon="166.9317200">
        <ele>30.2</ele>
        <time>2020-04-19T13:57:51Z</time>
      </trkpt>
      <trkpt lat="-11.6839690" lon="166.9317520">
        <ele>30.2</ele>
        <time>2020-04-19T13:57:52Z</time>
      </trkpt>
      <trkpt lat="-11.6839210" lon="166.9317630">
        <ele>30.2</ele>
        <time>2020-04-19T13:57:53Z</time>
      </trkpt>
      <trkpt lat="-11.6838790" lon="166.9317950">
        <ele>30.4</ele>
        <time>2020-04-19T13:57:54Z</time>
      </trkpt>
      <trkpt lat="-11.6838370" lon="166.9318380">
        <ele>30.4</ele>
        <time>2020-04-19T13:57:55Z</time>
      </trkpt>
      <trkpt lat="-11.6837980" lon="166.9318700">
        <ele>30.4</ele>
        <time>2020-04-19T13:57:56Z</time>
      </trkpt>
      <trkpt lat="-11.6837590" lon="166.9319240">
        <ele>30.4</ele>
        <time>2020-04-19T13:57:57Z</time>
      </trkpt>
      <trkpt lat="-11.6837190" lon="166.9319450">
        <ele>30.4</ele>
        <time>2020-04-19T13:57:58Z</time>
      </trkpt>
      <trkpt lat="-11.6836820" lon="166.9319990">
        <ele>30.4</ele>
        <time>2020-04-19T13:57:59Z</time>
      </trkpt>
      <trkpt lat="-11.6836490" lon="166.9320420">
        <ele>30.4</ele>
        <time>2020-04-19T13:58:00Z</time>
      </trkpt>
      <trkpt lat="-11.6836220" lon="166.9320850">
        <ele>30.4</ele>
        <time>2020-04-19T13:58:01Z</time>
      </trkpt>
      <trkpt lat="-11.6835990" lon="166.9321380">
        <ele>30.6</ele>
        <time>2020-04-19T13:58:02Z</time>
      </trkpt>
      <trkpt lat="-11.6835860" lon="166.9321920">
        <ele>30.6</ele>
        <time>2020-04-19T13:58:03Z</time>
      </trkpt>
      <trkpt lat="-11.6835820" lon="166.9322560">
        <ele>30.8</ele>
        <time>2020-04-19T13:58:04Z</time>
      </trkpt>
      <trkpt lat="-11.6835840" lon="166.9322990">
        <ele>30.8</ele>
        <time>2020-04-19T13:58:05Z</time>
      </trkpt>
      <trkpt lat="-11.6835940" lon="166.9323640">
        <ele>30.8</ele>
        <time>2020-04-19T13:58:06Z</time>
      </trkpt>
      <trkpt lat="-11.6836060" lon="166.9324060">
        <ele>31.0</ele>
        <time>2020-04-19T13:58:07Z</time>
      </trkpt>
      <trkpt lat="-11.6836190" lon="166.9324710">
        <ele>31.0</ele>
        <time>2020-04-19T13:58:08Z</time>
      </trkpt>
      <trkpt lat="-11.6836300" lon="166.9325140">
        <ele>31.2</ele>
        <time>2020-04-19T13:58:09Z</time>
      </trkpt>
      <trkpt lat="-11.6836460" lon="166.9325570">
        <ele>31.2</ele>
        <time>2020-04-19T13:58:10Z</time>
      </trkpt>
      <trkpt lat="-11.6836600" lon="166.9326100">
        <ele>31.4</ele>
        <time>2020-04-19T13:58:11Z</time>
      </trkpt>
      <trkpt lat="-11.6836760" lon="166.9326640">
        <ele>31.4</ele>
        <time>2020-04-19T13:58:12Z</time>
      </trkpt>
      <trkpt lat="-11.6836900" lon="166.9327180">
        <ele>31.6</ele>
        <time>2020-04-19T13:58:13Z</time>
      </trkpt>
      <trkpt lat="-11.6837010" lon="166.9327600">
        <ele>31.6</ele>
        <time>2020-04-19T13:58:14Z</time>
      </trkpt>
      <trkpt lat="-11.6837120" lon="166.9328030">
        <ele>31.8</ele>
        <time>2020-04-19T13:58:15Z</time>
      </trkpt>
      <trkpt lat="-11.6837190" lon="166.9328460">
        <ele>32.0</ele>
        <time>2020-04-19T13:58:16Z</time>
      </trkpt>
      <trkpt lat="-11.6837210" lon="166.9329110">
        <ele>32.0</ele>
        <time>2020-04-19T13:58:17Z</time>
      </trkpt>
      <trkpt lat="-11.6837210" lon="166.9329540">
        <ele>32.2</ele>
        <time>2020-04-19T13:58:18Z</time>
      </trkpt>
      <trkpt lat="-11.6837190" lon="166.9330070">
        <ele>32.2</ele>
        <time>2020-04-19T13:58:19Z</time>
      </trkpt>
      <trkpt lat="-11.6837120" lon="166.9330500">
        <ele>32.4</ele>
        <time>2020-04-19T13:58:20Z</time>
      </trkpt>
      <trkpt lat="-11.6837020" lon="166.9330930">
        <ele>32.6</ele>
        <time>2020-04-19T13:58:21Z</time>
      </trkpt>
      <trkpt lat="-11.6836920" lon="166.9331360">
        <ele>32.6</ele>
        <time>2020-04-19T13:58:22Z</time>
      </trkpt>
      <trkpt lat="-11.6836780" lon="166.9331900">
        <ele>32.8</ele>
        <time>2020-04-19T13:58:23Z</time>
      </trkpt>
      <trkpt lat="-11.6836620" lon="166.9332330">
        <ele>33.0</ele>
        <time>2020-04-19T13:58:24Z</time>
      </trkpt>
      <trkpt lat="-11.6836460" lon="166.9332750">
        <ele>33.2</ele>
        <time>2020-04-19T13:58:25Z</time>
      </trkpt>
      <trkpt lat="-11.6836290" lon="166.9333080">
        <ele>33.2</ele>
        <time>2020-04-19T13:58:26Z</time>
      </trkpt>
      <trkpt lat="-11.6836130" lon="166.9333510">
        <ele>33.4</ele>
        <time>2020-04-19T13:58:27Z</time>
      </trkpt>
      <trkpt lat="-11.6835950" lon="166.9334040">
        <ele>33.6</ele>
        <time>2020-04-19T13:58:28Z</time>
      </trkpt>
      <trkpt lat="-11.6835780" lon="166.9334470">
        <ele>33.8</ele>
        <time>2020-04-19T13:58:29Z</time>
      </trkpt>
      <trkpt lat="-11.6835620" lon="166.9334790">
        <ele>33.8</ele>
        <time>2020-04-19T13:58:30Z</time>
      </trkpt>
      <trkpt lat="-11.6835460" lon="166.9335220">
        <ele>34.0</ele>
        <time>2020-04-19T13:58:31Z</time>
      </trkpt>
      <trkpt lat="-11.6835280" lon="166.9335650">
        <ele>34.2</ele>
        <time>2020-04-19T13:58:32Z</time>
      </trkpt>
      <trkpt lat="-11.6835120" lon="166.9336080">
        <ele>34.4</ele>
        <time>2020-04-19T13:58:33Z</time>
      </trkpt>
      <trkpt lat="-11.6834960" lon="166.9336620">
        <ele>34.4</ele>
        <time>2020-04-19T13:58:34Z</time>
      </trkpt>
      <trkpt lat="-11.6834830" lon="166.9336940">
        <ele>34.6</ele>
        <time>2020-04-19T13:58:35Z</time>
      </trkpt>
      <trkpt lat="-11.6834690" lon="166.9337370">
        <ele>34.8</ele>
        <time>2020-04-19T13:58:36Z</time>
      </trkpt>
      <trkpt lat="-11.6834580" lon="166.9337800">
        <ele>35.0</ele>
        <time>2020-04-19T13:58:37Z</time>
      </trkpt>
      <trkpt lat="-11.6834520" lon="166.9338230">
        <ele>35.2</ele>
        <time>2020-04-19T13:58:38Z</time>
      </trkpt>
      <trkpt lat="-11.6834500" lon="166.9338550">
        <ele>35.4</ele>
        <time>2020-04-19T13:58:39Z</time>
      </trkpt>
      <trkpt lat="-11.6834540" lon="166.9338980">
        <ele>35.6</ele>
        <time>2020-04-19T13:58:40Z</time>
      </trkpt>
      <trkpt lat="-11.6834650" lon="166.9339510">
        <ele>35.6</ele>
        <time>2020-04-19T13:58:41Z</time>
      </trkpt>
      <trkpt lat="-11.6834800" lon="166.9339840">
        <ele>35.8</ele>
        <time>2020-04-19T13:58:42Z</time>
      </trkpt>
      <trkpt lat="-11.6835000" lon="166.9340260">
        <ele>36.0</ele>
        <time>2020-04-19T13:58:43Z</time>
      </trkpt>
      <trkpt lat="-11.6835230" lon="166.9340590">
        <ele>36.2</ele>
        <time>2020-04-19T13:58:44Z</time>
      </trkpt>
      <trkpt lat="-11.6835480" lon="166.9340910">
        <ele>36.2</ele>
        <time>2020-04-19T13:58:45Z</time>
      </trkpt>
      <trkpt lat="-11.6835790" lon="166.9341120">
        <ele>36.4</ele>
        <time>2020-04-19T13:58:46Z</time>
      </trkpt>
      <trkpt lat="-11.6836090" lon="166.9341440">
        <ele>36.4</ele>
        <time>2020-04-19T13:58:47Z</time>
      </trkpt>
      <trkpt lat="-11.6836420" lon="166.9341770">
        <ele>36.6</ele>
        <time>2020-04-19T13:58:48Z</time>
      </trkpt>
      <trkpt lat="-11.6836780" lon="166.9342090">
        <ele>36.8</ele>
        <time>2020-04-19T13:58:49Z</time>
      </trkpt>
      <trkpt lat="-11.6837150" lon="166.9342200">
        <ele>37.0</ele>
        <time>2020-04-19T13:58:50Z</time>
      </trkpt>
      <trkpt lat="-11.6837550" lon="166.9342410">
        <ele>37.0</ele>
        <time>2020-04-19T13:58:51Z</time>
      </trkpt>
      <trkpt lat="-11.6837950" lon="166.9342520">
        <ele>37.2</ele>
        <time>2020-04-19T13:58:52Z</time>
      </trkpt>
      <trkpt lat="-11.6838350" lon="166.9342730">
        <ele>37.4</ele>
        <time>2020-04-19T13:58:53Z</time>
      </trkpt>
      <trkpt lat="-11.6838770" lon="166.9342730">
        <ele>37.8</ele>
        <time>2020-04-19T13:58:54Z</time>
      </trkpt>
      <trkpt lat="-11.6839130" lon="166.9342520">
        <ele>38.0</ele>
        <time>2020-04-19T13:58:55Z</time>
      </trkpt>
      <trkpt lat="-11.6839490" lon="166.9342410">
        <ele>38.0</ele>
        <time>2020-04-19T13:58:56Z</time>
      </trkpt>
      <trkpt lat="-11.6839830" lon="166.9342200">
        <ele>38.2</ele>
        <time>2020-04-19T13:58:57Z</time>
      </trkpt>
      <trkpt lat="-11.6840160" lon="166.9342090">
        <ele>38.4</ele>
        <time>2020-04-19T13:58:58Z</time>
      </trkpt>
      <trkpt lat="-11.6840500" lon="166.9341770">
        <ele>38.6</ele>
        <time>2020-04-19T13:58:59Z</time>
      </trkpt>
      <trkpt lat="-11.6840820" lon="166.9341660">
        <ele>38.8</ele>
        <time>2020-04-19T13:59:00Z</time>
      </trkpt>
      <trkpt lat="-11.6841160" lon="166.9341440">
        <ele>38.8</ele>
        <time>2020-04-19T13:59:01Z</time>
      </trkpt>
      <trkpt lat="-11.6841480" lon="166.9341340">
        <ele>39.0</ele>
        <time>2020-04-19T13:59:02Z</time>
      </trkpt>
      <trkpt lat="-11.6841810" lon="166.9341020">
        <ele>39.2</ele>
        <time>2020-04-19T13:59:03Z</time>
      </trkpt>
      <trkpt lat="-11.6842190" lon="166.9340910">
        <ele>39.4</ele>
        <time>2020-04-19T13:59:04Z</time>
      </trkpt>
      <trkpt lat="-11.6842580" lon="166.9340910">
        <ele>39.4</ele>
        <time>2020-04-19T13:59:05Z</time>
      </trkpt>
      <trkpt lat="-11.6842970" lon="166.9340690">
        <ele>39.6</ele>
        <time>2020-04-19T13:59:06Z</time>
      </trkpt>
      <trkpt lat="-11.6843390" lon="166.9340690">
        <ele>39.8</ele>
        <time>2020-04-19T13:59:07Z</time>
      </trkpt>
      <trkpt lat="-11.6843780" lon="166.9340590">
        <ele>40.0</ele>
        <time>2020-04-19T13:59:08Z</time>
      </trkpt>
      <trkpt lat="-11.6844200" lon="166.9340590">
        <ele>40.2</ele>
        <time>2020-04-19T13:59:09Z</time>
      </trkpt>
      <trkpt lat="-11.6844600" lon="166.9340590">
        <ele>40.2</ele>
        <time>2020-04-19T13:59:10Z</time>
      </trkpt>
      <trkpt lat="-11.6844980" lon="166.9340590">
        <ele>40.4</ele>
        <time>2020-04-19T13:59:11Z</time>
      </trkpt>
      <trkpt lat="-11.6845390" lon="166.9340590">
        <ele>40.6</ele>
        <time>2020-04-19T13:59:12Z</time>
      </trkpt>
      <trkpt lat="-11.6845810" lon="166.9340370">
        <ele>40.8</ele>
        <time>2020-04-19T13:59:13Z</time>
      </trkpt>
      <trkpt lat="-11.6846200" lon="166.9340370">
        <ele>41.0</ele>
        <time>2020-04-19T13:59:14Z</time>
      </trkpt>
      <trkpt lat="-11.6846610" lon="166.9340260">
        <ele>41.2</ele>
        <time>2020-04-19T13:59:15Z</time>
      </trkpt>
      <trkpt lat="-11.6847000" lon="166.9340260">
        <ele>41.4</ele>
        <time>2020-04-19T13:59:16Z</time>
      </trkpt>
      <trkpt lat="-11.6847360" lon="166.9340050">
        <ele>41.4</ele>
        <time>2020-04-19T13:59:17Z</time>
      </trkpt>
      <trkpt lat="-11.6847730" lon="166.9339940">
        <ele>41.6</ele>
        <time>2020-04-19T13:59:18Z</time>
      </trkpt>
      <trkpt lat="-11.6848060" lon="166.9339840">
        <ele>41.8</ele>
        <time>2020-04-19T13:59:19Z</time>
      </trkpt>
      <trkpt lat="-11.6848380" lon="166.9339510">
        <ele>42.0</ele>
        <time>2020-04-19T13:59:20Z</time>
      </trkpt>
      <trkpt lat="-11.6848720" lon="166.9339300">
        <ele>42.2</ele>
        <time>2020-04-19T13:59:21Z</time>
      </trkpt>
      <trkpt lat="-11.6849000" lon="166.9339190">
        <ele>42.2</ele>
        <time>2020-04-19T13:59:22Z</time>
      </trkpt>
      <trkpt lat="-11.6849310" lon="166.9338870">
        <ele>42.4</ele>
        <time>2020-04-19T13:59:23Z</time>
      </trkpt>
      <trkpt lat="-11.6849600" lon="166.9338760">
        <ele>42.6</ele>
        <time>2020-04-19T13:59:24Z</time>
      </trkpt>
      <trkpt lat="-11.6849900" lon="166.9338440">
        <ele>42.8</ele>
        <time>2020-04-19T13:59:25Z</time>
      </trkpt>
      <trkpt lat="-11.6850190" lon="166.9338230">
        <ele>42.8</ele>
        <time>2020-04-19T13:59:26Z</time>
      </trkpt>
      <trkpt lat="-11.6850480" lon="166.9338010">
        <ele>43.0</ele>
        <time>2020-04-19T13:59:27Z</time>
      </trkpt>
      <trkpt lat="-11.6850740" lon="166.9337800">
        <ele>43.2</ele>
        <time>2020-04-19T13:59:28Z</time>
      </trkpt>
      <trkpt lat="-11.6851050" lon="166.9337480">
        <ele>43.4</ele>
        <time>2020-04-19T13:59:29Z</time>
      </trkpt>
      <trkpt lat="-11.6851350" lon="166.9337370">
        <ele>43.4</ele>
        <time>2020-04-19T13:59:30Z</time>
      </trkpt>
      <trkpt lat="-11.6851620" lon="166.9337050">
        <ele>43.6</ele>
        <time>2020-04-19T13:59:31Z</time>
      </trkpt>
      <trkpt lat="-11.6851910" lon="166.9336940">
        <ele>43.8</ele>
        <time>2020-04-19T13:59:32Z</time>
      </trkpt>
      <trkpt lat="-11.6852210" lon="166.9336620">
        <ele>44.0</ele>
        <time>2020-04-19T13:59:33Z</time>
      </trkpt>
      <trkpt lat="-11.6852510" lon="166.9336400">
        <ele>44.0</ele>
        <time>2020-04-19T13:59:34Z</time>
      </trkpt>
      <trkpt lat="-11.6852840" lon="166.9336080">
        <ele>44.2</ele>
        <time>2020-04-19T13:59:35Z</time>
      </trkpt>
      <trkpt lat="-11.6853160" lon="166.9335970">
        <ele>44.4</ele>
        <time>2020-04-19T13:59:36Z</time>
      </trkpt>
      <trkpt lat="-11.6853510" lon="166.9335650">
        <ele>44.4</ele>
        <time>2020-04-19T13:59:37Z</time>
      </trkpt>
      <trkpt lat="-11.6853860" lon="166.9335540">
        <ele>44.6</ele>
        <time>2020-04-19T13:59:38Z</time>
      </trkpt>
      <trkpt lat="-11.6854190" lon="166.9335330">
        <ele>44.6</ele>
        <time>2020-04-19T13:59:39Z</time>
      </trkpt>
      <trkpt lat="-11.6854580" lon="166.9335220">
        <ele>44.8</ele>
        <time>2020-04-19T13:59:40Z</time>
      </trkpt>
      <trkpt lat="-11.6854980" lon="166.9335220">
        <ele>44.8</ele>
        <time>2020-04-19T13:59:41Z</time>
      </trkpt>
      <trkpt lat="-11.6855380" lon="166.9335220">
        <ele>45.0</ele>
        <time>2020-04-19T13:59:42Z</time>
      </trkpt>
      <trkpt lat="-11.6855840" lon="166.9335220">
        <ele>45.0</ele>
        <time>2020-04-19T13:59:43Z</time>
      </trkpt>
      <trkpt lat="-11.6856270" lon="166.9335330">
        <ele>45.0</ele>
        <time>2020-04-19T13:59:44Z</time>
      </trkpt>
      <trkpt lat="-11.6856730" lon="166.9335540">
        <ele>45.0</ele>
        <time>2020-04-19T13:59:45Z</time>
      </trkpt>
      <trkpt lat="-11.6857180" lon="166.9335650">
        <ele>44.8</ele>
        <time>2020-04-19T13:59:46Z</time>
      </trkpt>
      <trkpt lat="-11.6857680" lon="166.9335970">
        <ele>44.8</ele>
        <time>2020-04-19T13:59:47Z</time>
      </trkpt>
      <trkpt lat="-11.6858170" lon="166.9336080">
        <ele>44.8</ele>
        <time>2020-04-19T13:59:48Z</time>
      </trkpt>
      <trkpt lat="-11.6858700" lon="166.9336400">
        <ele>44.8</ele>
        <time>2020-04-19T13:59:49Z</time>
      </trkpt>
      <trkpt lat="-11.6859290" lon="166.9336620">
        <ele>44.8</ele>
        <time>2020-04-19T13:59:50Z</time>
      </trkpt>
      <trkpt lat="-11.6859900" lon="166.9336620">
        <ele>44.8</ele>
        <time>2020-04-19T13:59:51Z</time>
      </trkpt>
      <trkpt lat="-11.6860490" lon="166.9336620">
        <ele>45.0</ele>
        <time>2020-04-19T13:59:52Z</time>
      </trkpt>
      <trkpt lat="-11.6861110" lon="166.9336400">
        <ele>45.2</ele>
        <time>2020-04-19T13:59:53Z</time>
      </trkpt>
      <trkpt lat="-11.6861660" lon="166.9336080">
        <ele>45.4</ele>
        <time>2020-04-19T13:59:54Z</time>
      </trkpt>
      <trkpt lat="-11.6862210" lon="166.9335970">
        <ele>45.6</ele>
        <time>2020-04-19T13:59:55Z</time>
      </trkpt>
      <trkpt lat="-11.6862770" lon="166.9335870">
        <ele>45.8</ele>
        <time>2020-04-19T13:59:56Z</time>
      </trkpt>
      <trkpt lat="-11.6863300" lon="166.9335650">
        <ele>46.0</ele>
        <time>2020-04-19T13:59:57Z</time>
      </trkpt>
      <trkpt lat="-11.6863790" lon="166.9335540">
        <ele>46.2</ele>
        <time>2020-04-19T13:59:58Z</time>
      </trkpt>
      <trkpt lat="-11.6864320" lon="166.9335330">
        <ele>46.4</ele>
        <time>2020-04-19T13:59:59Z</time>
      </trkpt>
      <trkpt lat="-11.6864810" lon="166.9335330">
        <ele>46.4</ele>
        <time>2020-04-19T14:00:00Z</time>
      </trkpt>
      <trkpt lat="-11.6865310" lon="166.9335330">
        <ele>46.6</ele>
        <time>2020-04-19T14:00:01Z</time>
      </trkpt>
      <trkpt lat="-11.6865760" lon="166.9335330">
        <ele>46.8</ele>
        <time>2020-04-19T14:00:02Z</time>
      </trkpt>
      <trkpt lat="-11.6866260" lon="166.9335330">
        <ele>47.0</ele>
        <time>2020-04-19T14:00:03Z</time>
      </trkpt>
      <trkpt lat="-11.6866720" lon="166.9335540">
        <ele>47.2</ele>
        <time>2020-04-19T14:00:04Z</time>
      </trkpt>
      <trkpt lat="-11.6867150" lon="166.9335540">
        <ele>47.2</ele>
        <time>2020-04-19T14:00:05Z</time>
      </trkpt>
      <trkpt lat="-11.6867590" lon="166.9335650">
        <ele>47.4</ele>
        <time>2020-04-19T14:00:06Z</time>
      </trkpt>
      <trkpt lat="-11.6868020" lon="166.9335650">
        <ele>47.6</ele>
        <time>2020-04-19T14:00:07Z</time>
      </trkpt>
      <trkpt lat="-11.6868420" lon="166.9335870">
        <ele>47.6</ele>
        <time>2020-04-19T14:00:08Z</time>
      </trkpt>
      <trkpt lat="-11.6868840" lon="166.9335970">
        <ele>47.8</ele>
        <time>2020-04-19T14:00:09Z</time>
      </trkpt>
      <trkpt lat="-11.6869250" lon="166.9336080">
        <ele>48.0</ele>
        <time>2020-04-19T14:00:10Z</time>
      </trkpt>
      <trkpt lat="-11.6869630" lon="166.9336080">
        <ele>48.0</ele>
        <time>2020-04-19T14:00:11Z</time>
      </trkpt>
      <trkpt lat="-11.6870020" lon="166.9336300">
        <ele>48.2</ele>
        <time>2020-04-19T14:00:12Z</time>
      </trkpt>
      <trkpt lat="-11.6870360" lon="166.9336400">
        <ele>48.4</ele>
        <time>2020-04-19T14:00:13Z</time>
      </trkpt>
      <trkpt lat="-11.6870710" lon="166.9336720">
        <ele>48.6</ele>
        <time>2020-04-19T14:00:14Z</time>
      </trkpt>
      <trkpt lat="-11.6871040" lon="166.9336940">
        <ele>48.6</ele>
        <time>2020-04-19T14:00:15Z</time>
      </trkpt>
      <trkpt lat="-11.6871330" lon="166.9337150">
        <ele>48.8</ele>
        <time>2020-04-19T14:00:16Z</time>
      </trkpt>
      <trkpt lat="-11.6871570" lon="166.9337480">
        <ele>49.0</ele>
        <time>2020-04-19T14:00:17Z</time>
      </trkpt>
      <trkpt lat="-11.6871750" lon="166.9337800">
        <ele>49.2</ele>
        <time>2020-04-19T14:00:18Z</time>
      </trkpt>
      <trkpt lat="-11.6871880" lon="166.9338120">
        <ele>49.2</ele>
        <time>2020-04-19T14:00:19Z</time>
      </trkpt>
      <trkpt lat="-11.6871970" lon="166.9338440">
        <ele>49.4</ele>
        <time>2020-04-19T14:00:20Z</time>
      </trkpt>
      <trkpt lat="-11.6872000" lon="166.9338870">
        <ele>49.6</ele>
        <time>2020-04-19T14:00:21Z</time>
      </trkpt>
      <trkpt lat="-11.6872000" lon="166.9339300">
        <ele>49.8</ele>
        <time>2020-04-19T14:00:22Z</time>
      </trkpt>
      <trkpt lat="-11.6871970" lon="166.9339620">
        <ele>49.8</ele>
        <time>2020-04-19T14:00:23Z</time>
      </trkpt>
      <trkpt lat="-11.6871920" lon="166.9340050">
        <ele>50.0</ele>
        <time>2020-04-19T14:00:24Z</time>
      </trkpt>
      <trkpt lat="-11.6871870" lon="166.9340370">
        <ele>50.2</ele>
        <time>2020-04-19T14:00:25Z</time>
      </trkpt>
      <trkpt lat="-11.6871810" lon="166.9340910">
        <ele>50.2</ele>
        <time>2020-04-19T14:00:26Z</time>
      </trkpt>
      <trkpt lat="-11.6871750" lon="166.9341340">
        <ele>50.4</ele>
        <time>2020-04-19T14:00:27Z</time>
      </trkpt>
      <trkpt lat="-11.6871680" lon="166.9341660">
        <ele>50.6</ele>
        <time>2020-04-19T14:00:28Z</time>
      </trkpt>
      <trkpt lat="-11.6871630" lon="166.9342090">
        <ele>50.8</ele>
        <time>2020-04-19T14:00:29Z</time>
      </trkpt>
      <trkpt lat="-11.6871610" lon="166.9342520">
        <ele>51.0</ele>
        <time>2020-04-19T14:00:30Z</time>
      </trkpt>
      <trkpt lat="-11.6871680" lon="166.9342840">
        <ele>51.2</ele>
        <time>2020-04-19T14:00:31Z</time>
      </trkpt>
      <trkpt lat="-11.6871810" lon="166.9343270">
        <ele>51.4</ele>
        <time>2020-04-19T14:00:32Z</time>
      </trkpt>
      <trkpt lat="-11.6872000" lon="166.9343590">
        <ele>51.4</ele>
        <time>2020-04-19T14:00:33Z</time>
      </trkpt>
      <trkpt lat="-11.6872220" lon="166.9343910">
        <ele>51.6</ele>
        <time>2020-04-19T14:00:34Z</time>
      </trkpt>
      <trkpt lat="-11.6872470" lon="166.9344020">
        <ele>51.8</ele>
        <time>2020-04-19T14:00:35Z</time>
      </trkpt>
      <trkpt lat="-11.6872720" lon="166.9344340">
        <ele>51.8</ele>
        <time>2020-04-19T14:00:36Z</time>
      </trkpt>
      <trkpt lat="-11.6873030" lon="166.9344560">
        <ele>52.0</ele>
        <time>2020-04-19T14:00:37Z</time>
      </trkpt>
      <trkpt lat="-11.6873330" lon="166.9344660">
        <ele>52.2</ele>
        <time>2020-04-19T14:00:38Z</time>
      </trkpt>
      <trkpt lat="-11.6873660" lon="166.9344880">
        <ele>52.2</ele>
        <time>2020-04-19T14:00:39Z</time>
      </trkpt>
      <trkpt lat="-11.6874010" lon="166.9344990">
        <ele>52.4</ele>
        <time>2020-04-19T14:00:40Z</time>
      </trkpt>
      <trkpt lat="-11.6874390" lon="166.9345090">
        <ele>52.6</ele>
        <time>2020-04-19T14:00:41Z</time>
      </trkpt>
      <trkpt lat="-11.6874750" lon="166.9345090">
        <ele>52.8</ele>
        <time>2020-04-19T14:00:42Z</time>
      </trkpt>
      <trkpt lat="-11.6875140" lon="166.9345090">
        <ele>52.8</ele>
        <time>2020-04-19T14:00:43Z</time>
      </trkpt>
      <trkpt lat="-11.6875500" lon="166.9345090">
        <ele>53.2</ele>
        <time>2020-04-19T14:00:44Z</time>
      </trkpt>
      <trkpt lat="-11.6875820" lon="166.9344990">
        <ele>53.4</ele>
        <time>2020-04-19T14:00:45Z</time>
      </trkpt>
      <trkpt lat="-11.6876140" lon="166.9344880">
        <ele>53.4</ele>
        <time>2020-04-19T14:00:46Z</time>
      </trkpt>
      <trkpt lat="-11.6876430" lon="166.9344560">
        <ele>53.6</ele>
        <time>2020-04-19T14:00:47Z</time>
      </trkpt>
      <trkpt lat="-11.6876730" lon="166.9344340">
        <ele>53.8</ele>
        <time>2020-04-19T14:00:48Z</time>
      </trkpt>
      <trkpt lat="-11.6877020" lon="166.9344020">
        <ele>54.0</ele>
        <time>2020-04-19T14:00:49Z</time>
      </trkpt>
      <trkpt lat="-11.6877320" lon="166.9343910">
        <ele>54.0</ele>
        <time>2020-04-19T14:00:50Z</time>
      </trkpt>
      <trkpt lat="-11.6877650" lon="166.9343590">
        <ele>54.2</ele>
        <time>2020-04-19T14:00:51Z</time>
      </trkpt>
      <trkpt lat="-11.6878010" lon="166.9343480">
        <ele>54.4</ele>
        <time>2020-04-19T14:00:52Z</time>
      </trkpt>
      <trkpt lat="-11.6878370" lon="166.9343270">
        <ele>54.6</ele>
        <time>2020-04-19T14:00:53Z</time>
      </trkpt>
      <trkpt lat="-11.6878770" lon="166.9343270">
        <ele>54.6</ele>
        <time>2020-04-19T14:00:54Z</time>
      </trkpt>
      <trkpt lat="-11.6879200" lon="166.9343480">
        <ele>54.8</ele>
        <time>2020-04-19T14:00:55Z</time>
      </trkpt>
      <trkpt lat="-11.6879580" lon="166.9343590">
        <ele>55.0</ele>
        <time>2020-04-19T14:00:56Z</time>
      </trkpt>
      <trkpt lat="-11.6879950" lon="166.9343810">
        <ele>55.2</ele>
        <time>2020-04-19T14:00:57Z</time>
      </trkpt>
      <trkpt lat="-11.6880320" lon="166.9343910">
        <ele>55.2</ele>
        <time>2020-04-19T14:00:58Z</time>
      </trkpt>
      <trkpt lat="-11.6880660" lon="166.9344230">
        <ele>55.4</ele>
        <time>2020-04-19T14:00:59Z</time>
      </trkpt>
      <trkpt lat="-11.6880970" lon="166.9344560">
        <ele>55.4</ele>
        <time>2020-04-19T14:01:00Z</time>
      </trkpt>
      <trkpt lat="-11.6881320" lon="166.9344880">
        <ele>55.6</ele>
        <time>2020-04-19T14:01:01Z</time>
      </trkpt>
      <trkpt lat="-11.6881600" lon="166.9345090">
        <ele>55.6</ele>
        <time>2020-04-19T14:01:02Z</time>
      </trkpt>
      <trkpt lat="-11.6881900" lon="166.9345630">
        <ele>55.8</ele>
        <time>2020-04-19T14:01:03Z</time>
      </trkpt>
      <trkpt lat="-11.6882170" lon="166.9345840">
        <ele>55.8</ele>
        <time>2020-04-19T14:01:04Z</time>
      </trkpt>
      <trkpt lat="-11.6882420" lon="166.9346170">
        <ele>56.0</ele>
        <time>2020-04-19T14:01:05Z</time>
      </trkpt>
      <trkpt lat="-11.6882680" lon="166.9346700">
        <ele>56.0</ele>
        <time>2020-04-19T14:01:06Z</time>
      </trkpt>
      <trkpt lat="-11.6882880" lon="166.9347130">
        <ele>56.2</ele>
        <time>2020-04-19T14:01:07Z</time>
      </trkpt>
      <trkpt lat="-11.6883050" lon="166.9347560">
        <ele>56.2</ele>
        <time>2020-04-19T14:01:08Z</time>
      </trkpt>
      <trkpt lat="-11.6883170" lon="166.9347990">
        <ele>56.4</ele>
        <time>2020-04-19T14:01:09Z</time>
      </trkpt>
      <trkpt lat="-11.6883230" lon="166.9348530">
        <ele>56.4</ele>
        <time>2020-04-19T14:01:10Z</time>
      </trkpt>
      <trkpt lat="-11.6883230" lon="166.9348960">
        <ele>56.6</ele>
        <time>2020-04-19T14:01:11Z</time>
      </trkpt>
      <trkpt lat="-11.6883170" lon="166.9349380">
        <ele>56.6</ele>
        <time>2020-04-19T14:01:12Z</time>
      </trkpt>
      <trkpt lat="-11.6883090" lon="166.9349810">
        <ele>56.6</ele>
        <time>2020-04-19T14:01:13Z</time>
      </trkpt>
      <trkpt lat="-11.6882980" lon="166.9350350">
        <ele>56.6</ele>
        <time>2020-04-19T14:01:14Z</time>
      </trkpt>
      <trkpt lat="-11.6882850" lon="166.9350780">
        <ele>56.8</ele>
        <time>2020-04-19T14:01:15Z</time>
      </trkpt>
      <trkpt lat="-11.6882700" lon="166.9351210">
        <ele>56.8</ele>
        <time>2020-04-19T14:01:16Z</time>
      </trkpt>
      <trkpt lat="-11.6882570" lon="166.9351850">
        <ele>56.8</ele>
        <time>2020-04-19T14:01:17Z</time>
      </trkpt>
      <trkpt lat="-11.6882420" lon="166.9352280">
        <ele>57.0</ele>
        <time>2020-04-19T14:01:18Z</time>
      </trkpt>
      <trkpt lat="-11.6882310" lon="166.9352710">
        <ele>57.0</ele>
        <time>2020-04-19T14:01:19Z</time>
      </trkpt>
      <trkpt lat="-11.6882220" lon="166.9353250">
        <ele>57.2</ele>
        <time>2020-04-19T14:01:20Z</time>
      </trkpt>
      <trkpt lat="-11.6882140" lon="166.9353680">
        <ele>57.4</ele>
        <time>2020-04-19T14:01:21Z</time>
      </trkpt>
      <trkpt lat="-11.6882070" lon="166.9354100">
        <ele>57.6</ele>
        <time>2020-04-19T14:01:22Z</time>
      </trkpt>
      <trkpt lat="-11.6882010" lon="166.9354750">
        <ele>57.8</ele>
        <time>2020-04-19T14:01:23Z</time>
      </trkpt>
      <trkpt lat="-11.6881880" lon="166.9355070">
        <ele>57.8</ele>
        <time>2020-04-19T14:01:24Z</time>
      </trkpt>
      <trkpt lat="-11.6881720" lon="166.9355500">
        <ele>58.0</ele>
        <time>2020-04-19T14:01:25Z</time>
      </trkpt>
      <trkpt lat="-11.6881510" lon="166.9355930">
        <ele>58.2</ele>
        <time>2020-04-19T14:01:26Z</time>
      </trkpt>
      <trkpt lat="-11.6881230" lon="166.9356250">
        <ele>58.4</ele>
        <time>2020-04-19T14:01:27Z</time>
      </trkpt>
      <trkpt lat="-11.6880930" lon="166.9356570">
        <ele>58.4</ele>
        <time>2020-04-19T14:01:28Z</time>
      </trkpt>
      <trkpt lat="-11.6880580" lon="166.9356680">
        <ele>58.6</ele>
        <time>2020-04-19T14:01:29Z</time>
      </trkpt>
      <trkpt lat="-11.6880180" lon="166.9356890">
        <ele>58.8</ele>
        <time>2020-04-19T14:01:30Z</time>
      </trkpt>
      <trkpt lat="-11.6879790" lon="166.9357000">
        <ele>58.8</ele>
        <time>2020-04-19T14:01:31Z</time>
      </trkpt>
      <trkpt lat="-11.6879380" lon="166.9357220">
        <ele>59.0</ele>
        <time>2020-04-19T14:01:32Z</time>
      </trkpt>
      <trkpt lat="-11.6878950" lon="166.9357320">
        <ele>59.0</ele>
        <time>2020-04-19T14:01:33Z</time>
      </trkpt>
      <trkpt lat="-11.6878520" lon="166.9357320">
        <ele>59.2</ele>
        <time>2020-04-19T14:01:34Z</time>
      </trkpt>
      <trkpt lat="-11.6878120" lon="166.9357540">
        <ele>59.2</ele>
        <time>2020-04-19T14:01:35Z</time>
      </trkpt>
      <trkpt lat="-11.6877740" lon="166.9357650">
        <ele>59.4</ele>
        <time>2020-04-19T14:01:36Z</time>
      </trkpt>
      <trkpt lat="-11.6877350" lon="166.9357750">
        <ele>59.6</ele>
        <time>2020-04-19T14:01:37Z</time>
      </trkpt>
      <trkpt lat="-11.6877020" lon="166.9358070">
        <ele>59.6</ele>
        <time>2020-04-19T14:01:38Z</time>
      </trkpt>
      <trkpt lat="-11.6876760" lon="166.9358400">
        <ele>59.8</ele>
        <time>2020-04-19T14:01:39Z</time>
      </trkpt>
      <trkpt lat="-11.6876590" lon="166.9358720">
        <ele>59.8</ele>
        <time>2020-04-19T14:01:40Z</time>
      </trkpt>
      <trkpt lat="-11.6876470" lon="166.9359150">
        <ele>60.0</ele>
        <time>2020-04-19T14:01:41Z</time>
      </trkpt>
      <trkpt lat="-11.6876390" lon="166.9359580">
        <ele>60.0</ele>
        <time>2020-04-19T14:01:42Z</time>
      </trkpt>
      <trkpt lat="-11.6876320" lon="166.9360110">
        <ele>60.2</ele>
        <time>2020-04-19T14:01:43Z</time>
      </trkpt>
      <trkpt lat="-11.6876240" lon="166.9360540">
        <ele>60.2</ele>
        <time>2020-04-19T14:01:44Z</time>
      </trkpt>
      <trkpt lat="-11.6876130" lon="166.9360970">
        <ele>60.4</ele>
        <time>2020-04-19T14:01:45Z</time>
      </trkpt>
      <trkpt lat="-11.6875980" lon="166.9361290">
        <ele>60.4</ele>
        <time>2020-04-19T14:01:46Z</time>
      </trkpt>
      <trkpt lat="-11.6875770" lon="166.9361720">
        <ele>60.6</ele>
        <time>2020-04-19T14:01:47Z</time>
      </trkpt>
      <trkpt lat="-11.6875470" lon="166.9362040">
        <ele>60.6</ele>
        <time>2020-04-19T14:01:48Z</time>
      </trkpt>
      <trkpt lat="-11.6875140" lon="166.9362370">
        <ele>60.8</ele>
        <time>2020-04-19T14:01:49Z</time>
      </trkpt>
      <trkpt lat="-11.6874750" lon="166.9362690">
        <ele>61.0</ele>
        <time>2020-04-19T14:01:50Z</time>
      </trkpt>
      <trkpt lat="-11.6874350" lon="166.9363010">
        <ele>61.0</ele>
        <time>2020-04-19T14:01:51Z</time>
      </trkpt>
      <trkpt lat="-11.6873960" lon="166.9363120">
        <ele>61.2</ele>
        <time>2020-04-19T14:01:52Z</time>
      </trkpt>
      <trkpt lat="-11.6873520" lon="166.9363330">
        <ele>61.2</ele>
        <time>2020-04-19T14:01:53Z</time>
      </trkpt>
      <trkpt lat="-11.6873100" lon="166.9363440">
        <ele>61.4</ele>
        <time>2020-04-19T14:01:54Z</time>
      </trkpt>
      <trkpt lat="-11.6872680" lon="166.9363550">
        <ele>61.6</ele>
        <time>2020-04-19T14:01:55Z</time>
      </trkpt>
      <trkpt lat="-11.6872240" lon="166.9363550">
        <ele>61.6</ele>
        <time>2020-04-19T14:01:56Z</time>
      </trkpt>
      <trkpt lat="-11.6871790" lon="166.9363760">
        <ele>61.8</ele>
        <time>2020-04-19T14:01:57Z</time>
      </trkpt>
      <trkpt lat="-11.6871320" lon="166.9363870">
        <ele>61.8</ele>
        <time>2020-04-19T14:01:58Z</time>
      </trkpt>
      <trkpt lat="-11.6870850" lon="166.9363870">
        <ele>62.0</ele>
        <time>2020-04-19T14:01:59Z</time>
      </trkpt>
      <trkpt lat="-11.6870380" lon="166.9364080">
        <ele>62.2</ele>
        <time>2020-04-19T14:02:00Z</time>
      </trkpt>
      <trkpt lat="-11.6869900" lon="166.9364080">
        <ele>62.2</ele>
        <time>2020-04-19T14:02:01Z</time>
      </trkpt>
      <trkpt lat="-11.6869400" lon="166.9364190">
        <ele>62.4</ele>
        <time>2020-04-19T14:02:02Z</time>
      </trkpt>
      <trkpt lat="-11.6868930" lon="166.9364190">
        <ele>62.6</ele>
        <time>2020-04-19T14:02:03Z</time>
      </trkpt>
      <trkpt lat="-11.6868410" lon="166.9364190">
        <ele>62.8</ele>
        <time>2020-04-19T14:02:04Z</time>
      </trkpt>
      <trkpt lat="-11.6867910" lon="166.9364190">
        <ele>62.8</ele>
        <time>2020-04-19T14:02:05Z</time>
      </trkpt>
      <trkpt lat="-11.6867410" lon="166.9364190">
        <ele>63.0</ele>
        <time>2020-04-19T14:02:06Z</time>
      </trkpt>
      <trkpt lat="-11.6866890" lon="166.9364190">
        <ele>63.2</ele>
        <time>2020-04-19T14:02:07Z</time>
      </trkpt>
      <trkpt lat="-11.6866420" lon="166.9364190">
        <ele>63.4</ele>
        <time>2020-04-19T14:02:08Z</time>
      </trkpt>
      <trkpt lat="-11.6865970" lon="166.9364080">
        <ele>63.6</ele>
        <time>2020-04-19T14:02:09Z</time>
      </trkpt>
      <trkpt lat="-11.6865510" lon="166.9363870">
        <ele>63.6</ele>
        <time>2020-04-19T14:02:10Z</time>
      </trkpt>
      <trkpt lat="-11.6865070" lon="166.9363870">
        <ele>63.8</ele>
        <time>2020-04-19T14:02:11Z</time>
      </trkpt>
      <trkpt lat="-11.6864650" lon="166.9363760">
        <ele>64.0</ele>
        <time>2020-04-19T14:02:12Z</time>
      </trkpt>
      <trkpt lat="-11.6864210" lon="166.9363550">
        <ele>64.2</ele>
        <time>2020-04-19T14:02:13Z</time>
      </trkpt>
      <trkpt lat="-11.6863750" lon="166.9363440">
        <ele>64.4</ele>
        <time>2020-04-19T14:02:14Z</time>
      </trkpt>
      <trkpt lat="-11.6863360" lon="166.9363440">
        <ele>64.4</ele>
        <time>2020-04-19T14:02:15Z</time>
      </trkpt>
      <trkpt lat="-11.6862930" lon="166.9363330">
        <ele>64.6</ele>
        <time>2020-04-19T14:02:16Z</time>
      </trkpt>
      <trkpt lat="-11.6862550" lon="166.9363120">
        <ele>64.8</ele>
        <time>2020-04-19T14:02:17Z</time>
      </trkpt>
      <trkpt lat="-11.6862130" lon="166.9363010">
        <ele>64.8</ele>
        <time>2020-04-19T14:02:18Z</time>
      </trkpt>
      <trkpt lat="-11.6861740" lon="166.9363010">
        <ele>65.0</ele>
        <time>2020-04-19T14:02:19Z</time>
      </trkpt>
      <trkpt lat="-11.6861310" lon="166.9362800">
        <ele>65.2</ele>
        <time>2020-04-19T14:02:20Z</time>
      </trkpt>
      <trkpt lat="-11.6860900" lon="166.9362800">
        <ele>65.2</ele>
        <time>2020-04-19T14:02:21Z</time>
      </trkpt>
      <trkpt lat="-11.6860470" lon="166.9362800">
        <ele>65.2</ele>
        <time>2020-04-19T14:02:22Z</time>
      </trkpt>
      <trkpt lat="-11.6860050" lon="166.9362800">
        <ele>65.2</ele>
        <time>2020-04-19T14:02:23Z</time>
      </trkpt>
      <trkpt lat="-11.6859620" lon="166.9363010">
        <ele>65.2</ele>
        <time>2020-04-19T14:02:24Z</time>
      </trkpt>
      <trkpt lat="-11.6859170" lon="166.9363120">
        <ele>65.2</ele>
        <time>2020-04-19T14:02:25Z</time>
      </trkpt>
      <trkpt lat="-11.6858680" lon="166.9363330">
        <ele>65.2</ele>
        <time>2020-04-19T14:02:26Z</time>
      </trkpt>
      <trkpt lat="-11.6858170" lon="166.9363550">
        <ele>65.2</ele>
        <time>2020-04-19T14:02:27Z</time>
      </trkpt>
      <trkpt lat="-11.6857690" lon="166.9363760">
        <ele>65.2</ele>
        <time>2020-04-19T14:02:28Z</time>
      </trkpt>
      <trkpt lat="-11.6857180" lon="166.9363870">
        <ele>65.2</ele>
        <time>2020-04-19T14:02:29Z</time>
      </trkpt>
      <trkpt lat="-11.6856690" lon="166.9364190">
        <ele>65.2</ele>
        <time>2020-04-19T14:02:30Z</time>
      </trkpt>
      <trkpt lat="-11.6856240" lon="166.9364400">
        <ele>65.2</ele>
        <time>2020-04-19T14:02:31Z</time>
      </trkpt>
      <trkpt lat="-11.6855710" lon="166.9364510">
        <ele>65.0</ele>
        <time>2020-04-19T14:02:32Z</time>
      </trkpt>
      <trkpt lat="-11.6855160" lon="166.9364830">
        <ele>64.6</ele>
        <time>2020-04-19T14:02:33Z</time>
      </trkpt>
      <trkpt lat="-11.6854530" lon="166.9365160">
        <ele>64.0</ele>
        <time>2020-04-19T14:02:34Z</time>
      </trkpt>
      <trkpt lat="-11.6853830" lon="166.9365480">
        <ele>63.4</ele>
        <time>2020-04-19T14:02:35Z</time>
      </trkpt>
      <trkpt lat="-11.6853080" lon="166.9365690">
        <ele>62.6</ele>
        <time>2020-04-19T14:02:36Z</time>
      </trkpt>
      <trkpt lat="-11.6852260" lon="166.9366010">
        <ele>62.0</ele>
        <time>2020-04-19T14:02:37Z</time>
      </trkpt>
      <trkpt lat="-11.6851350" lon="166.9366440">
        <ele>61.2</ele>
        <time>2020-04-19T14:02:38Z</time>
      </trkpt>
      <trkpt lat="-11.6850450" lon="166.9366770">
        <ele>60.4</ele>
        <time>2020-04-19T14:02:39Z</time>
      </trkpt>
      <trkpt lat="-11.6849460" lon="166.9367300">
        <ele>59.4</ele>
        <time>2020-04-19T14:02:40Z</time>
      </trkpt>
      <trkpt lat="-11.6848480" lon="166.9367730">
        <ele>58.8</ele>
        <time>2020-04-19T14:02:41Z</time>
      </trkpt>
      <trkpt lat="-11.6847450" lon="166.9368160">
        <ele>58.0</ele>
        <time>2020-04-19T14:02:42Z</time>
      </trkpt>
      <trkpt lat="-11.6846430" lon="166.9368590">
        <ele>57.4</ele>
        <time>2020-04-19T14:02:43Z</time>
      </trkpt>
      <trkpt lat="-11.6845340" lon="166.9369230">
        <ele>57.0</ele>
        <time>2020-04-19T14:02:44Z</time>
      </trkpt>
      <trkpt lat="-11.6844280" lon="166.9369660">
        <ele>56.8</ele>
        <time>2020-04-19T14:02:45Z</time>
      </trkpt>
      <trkpt lat="-11.6843300" lon="166.9370200">
        <ele>56.6</ele>
        <time>2020-04-19T14:02:46Z</time>
      </trkpt>
      <trkpt lat="-11.6842300" lon="166.9370630">
        <ele>56.8</ele>
        <time>2020-04-19T14:02:47Z</time>
      </trkpt>
      <trkpt lat="-11.6841280" lon="166.9371060">
        <ele>57.2</ele>
        <time>2020-04-19T14:02:48Z</time>
      </trkpt>
      <trkpt lat="-11.6840390" lon="166.9371380">
        <ele>57.6</ele>
        <time>2020-04-19T14:02:49Z</time>
      </trkpt>
      <trkpt lat="-11.6839490" lon="166.9371810">
        <ele>58.2</ele>
        <time>2020-04-19T14:02:50Z</time>
      </trkpt>
      <trkpt lat="-11.6838660" lon="166.9372130">
        <ele>59.0</ele>
        <time>2020-04-19T14:02:51Z</time>
      </trkpt>
      <trkpt lat="-11.6837920" lon="166.9372560">
        <ele>59.6</ele>
        <time>2020-04-19T14:02:52Z</time>
      </trkpt>
      <trkpt lat="-11.6837250" lon="166.9372880">
        <ele>60.2</ele>
        <time>2020-04-19T14:02:53Z</time>
      </trkpt>
      <trkpt lat="-11.6836610" lon="166.9373100">
        <ele>60.8</ele>
        <time>2020-04-19T14:02:54Z</time>
      </trkpt>
      <trkpt lat="-11.6836060" lon="166.9373310">
        <ele>61.4</ele>
        <time>2020-04-19T14:02:55Z</time>
      </trkpt>
      <trkpt lat="-11.6835540" lon="166.9373630">
        <ele>62.0</ele>
        <time>2020-04-19T14:02:56Z</time>
      </trkpt>
      <trkpt lat="-11.6835070" lon="166.9373850">
        <ele>62.4</ele>
        <time>2020-04-19T14:02:57Z</time>
      </trkpt>
      <trkpt lat="-11.6834610" lon="166.9374170">
        <ele>62.8</ele>
        <time>2020-04-19T14:02:58Z</time>
      </trkpt>
      <trkpt lat="-11.6834240" lon="166.9374280">
        <ele>63.2</ele>
        <time>2020-04-19T14:02:59Z</time>
      </trkpt>
      <trkpt lat="-11.6833860" lon="166.9374380">
        <ele>63.6</ele>
        <time>2020-04-19T14:03:00Z</time>
      </trkpt>
      <trkpt lat="-11.6833540" lon="166.9374600">
        <ele>64.0</ele>
        <time>2020-04-19T14:03:01Z</time>
      </trkpt>
      <trkpt lat="-11.6833240" lon="166.9374700">
        <ele>64.2</ele>
        <time>2020-04-19T14:03:02Z</time>
      </trkpt>
      <trkpt lat="-11.6832990" lon="166.9374700">
        <ele>64.4</ele>
        <time>2020-04-19T14:03:03Z</time>
      </trkpt>
      <trkpt lat="-11.6832750" lon="166.9374920">
        <ele>64.8</ele>
        <time>2020-04-19T14:03:04Z</time>
      </trkpt>
      <trkpt lat="-11.6832510" lon="166.9375030">
        <ele>65.0</ele>
        <time>2020-04-19T14:03:05Z</time>
      </trkpt>
      <trkpt lat="-11.6832240" lon="166.9375240">
        <ele>65.0</ele>
        <time>2020-04-19T14:03:06Z</time>
      </trkpt>
      <trkpt lat="-11.6831930" lon="166.9375350">
        <ele>65.2</ele>
        <time>2020-04-19T14:03:07Z</time>
      </trkpt>
      <trkpt lat="-11.6831570" lon="166.9375460">
        <ele>65.2</ele>
        <time>2020-04-19T14:03:08Z</time>
      </trkpt>
      <trkpt lat="-11.6831180" lon="166.9375670">
        <ele>65.2</ele>
        <time>2020-04-19T14:03:09Z</time>
      </trkpt>
      <trkpt lat="-11.6830750" lon="166.9375780">
        <ele>65.2</ele>
        <time>2020-04-19T14:03:10Z</time>
      </trkpt>
      <trkpt lat="-11.6830280" lon="166.9375990">
        <ele>65.2</ele>
        <time>2020-04-19T14:03:11Z</time>
      </trkpt>
      <trkpt lat="-11.6829820" lon="166.9376310">
        <ele>65.2</ele>
        <time>2020-04-19T14:03:12Z</time>
      </trkpt>
      <trkpt lat="-11.6829370" lon="166.9376420">
        <ele>65.2</ele>
        <time>2020-04-19T14:03:13Z</time>
      </trkpt>
      <trkpt lat="-11.6828950" lon="166.9376530">
        <ele>65.2</ele>
        <time>2020-04-19T14:03:14Z</time>
      </trkpt>
      <trkpt lat="-11.6828540" lon="166.9376740">
        <ele>65.2</ele>
        <time>2020-04-19T14:03:15Z</time>
      </trkpt>
      <trkpt lat="-11.6828150" lon="166.9376850">
        <ele>65.2</ele>
        <time>2020-04-19T14:03:16Z</time>
      </trkpt>
      <trkpt lat="-11.6827760" lon="166.9377170">
        <ele>65.2</ele>
        <time>2020-04-19T14:03:17Z</time>
      </trkpt>
      <trkpt lat="-11.6827420" lon="166.9377280">
        <ele>65.2</ele>
        <time>2020-04-19T14:03:18Z</time>
      </trkpt>
      <trkpt lat="-11.6827070" lon="166.9377490">
        <ele>65.2</ele>
        <time>2020-04-19T14:03:19Z</time>
      </trkpt>
      <trkpt lat="-11.6826630" lon="166.9377600">
        <ele>65.2</ele>
        <time>2020-04-19T14:03:20Z</time>
      </trkpt>
      <trkpt lat="-11.6826440" lon="166.9377820">
        <ele>65.2</ele>
        <time>2020-04-19T14:03:21Z</time>
      </trkpt>
      <trkpt lat="-11.6826150" lon="166.9377920">
        <ele>65.2</ele>
        <time>2020-04-19T14:03:22Z</time>
      </trkpt>
      <trkpt lat="-11.6825890" lon="166.9377920">
        <ele>65.2</ele>
        <time>2020-04-19T14:03:23Z</time>
      </trkpt>
      <trkpt lat="-11.6825640" lon="166.9378140">
        <ele>65.2</ele>
        <time>2020-04-19T14:03:24Z</time>
      </trkpt>
      <trkpt lat="-11.6825400" lon="166.9378240">
        <ele>65.2</ele>
        <time>2020-04-19T14:03:25Z</time>
      </trkpt>
      <trkpt lat="-11.6825040" lon="166.9378350">
        <ele>65.2</ele>
        <time>2020-04-19T14:03:26Z</time>
      </trkpt>
      <trkpt lat="-11.6824930" lon="166.9378570">
        <ele>65.2</ele>
        <time>2020-04-19T14:03:27Z</time>
      </trkpt>
      <trkpt lat="-11.6824900" lon="166.9378570">
        <ele>65.2</ele>
        <time>2020-04-19T14:03:28Z</time>
      </trkpt>
      <trkpt lat="-11.6824900" lon="166.9378570">
        <ele>65.2</ele>
        <time>2020-04-19T14:03:29Z</time>
      </trkpt>
      <trkpt lat="-11.6824900" lon="166.9378570">
        <ele>65.2</ele>
        <time>2020-04-19T14:03:30Z</time>
      </trkpt>
      <trkpt lat="-11.6824900" lon="166.9378570">
        <ele>65.2</ele>
        <time>2020-04-19T14:03:31Z</time>
      </trkpt>
      <trkpt lat="-11.6824900" lon="166.9378570">
        <ele>65.2</ele>
        <time>2020-04-19T14:03:32Z</time>
      </trkpt>
      <trkpt lat="-11.6824900" lon="166.9378570">
        <ele>65.2</ele>
        <time>2020-04-19T14:03:33Z</time>
      </trkpt>
      <trkpt lat="-11.6824900" lon="166.9378570">
        <ele>65.2</ele>
        <time>2020-04-19T14:03:34Z</time>
      </trkpt>
      <trkpt lat="-11.6824900" lon="166.9378570">
        <ele>65.2</ele>
        <time>2020-04-19T14:03:35Z</time>
      </trkpt>
      <trkpt lat="-11.6824900" lon="166.9378570">
        <ele>65.2</ele>
        <time>2020-04-19T14:03:36Z</time>
      </trkpt>
      <trkpt lat="-11.6824900" lon="166.9378570">
        <ele>65.2</ele>
        <time>2020-04-19T14:03:37Z</time>
      </trkpt>
      <trkpt lat="-11.6824900" lon="166.9378570">
        <ele>65.2</ele>
        <time>2020-04-19T14:03:38Z</time>
      </trkpt>
      <trkpt lat="-11.6824900" lon="166.9378570">
        <ele>65.2</ele>
        <time>2020-04-19T14:03:39Z</time>
      </trkpt>
      <trkpt lat="-11.6824900" lon="166.9378570">
        <ele>65.2</ele>
        <time>2020-04-19T14:03:40Z</time>
      </trkpt>
      <trkpt lat="-11.6824900" lon="166.9378570">
        <ele>65.2</ele>
        <time>2020-04-19T14:03:41Z</time>
      </trkpt>
      <trkpt lat="-11.6824900" lon="166.9378570">
        <ele>65.2</ele>
        <time>2020-04-19T14:03:42Z</time>
      </trkpt>
      <trkpt lat="-11.6824900" lon="166.9378570">
        <ele>65.2</ele>
        <time>2020-04-19T14:03:43Z</time>
      </trkpt>
      <trkpt lat="-11.6824900" lon="166.9378570">
        <ele>65.2</ele>
        <time>2020-04-19T14:03:44Z</time>
      </trkpt>
      <trkpt lat="-11.6824900" lon="166.9378570">
        <ele>65.2</ele>
        <time>2020-04-19T14:03:45Z</time>
      </trkpt>
      <trkpt lat="-11.6824900" lon="166.9378570">
        <ele>65.2</ele>
        <time>2020-04-19T14:03:46Z</time>
      </trkpt>
      <trkpt lat="-11.6824900" lon="166.9378570">
        <ele>65.2</ele>
        <time>2020-04-19T14:03:47Z</time>
      </trkpt>
      <trkpt lat="-11.6824900" lon="166.9378570">
        <ele>65.2</ele>
        <time>2020-04-19T14:03:48Z</time>
      </trkpt>
      <trkpt lat="-11.6824900" lon="166.9378570">
        <ele>65.2</ele>
        <time>2020-04-19T14:03:49Z</time>
      </trkpt>
      <trkpt lat="-11.6824900" lon="166.9378570">
        <ele>65.2</ele>
        <time>2020-04-19T14:03:50Z</time>
      </trkpt>
      <trkpt lat="-11.6824900" lon="166.9378570">
        <ele>65.2</ele>
        <time>2020-04-19T14:03:51Z</time>
      </trkpt>
      <trkpt lat="-11.6824900" lon="166.9378570">
        <ele>65.2</ele>
        <time>2020-04-19T14:03:52Z</time>
      </trkpt>
      <trkpt lat="-11.6824900" lon="166.9378570">
        <ele>65.2</ele>
        <time>2020-04-19T14:03:53Z</time>
      </trkpt>
      <trkpt lat="-11.6824900" lon="166.9378570">
        <ele>65.2</ele>
        <time>2020-04-19T14:03:54Z</time>
      </trkpt>
      <trkpt lat="-11.6824900" lon="166.9378570">
        <ele>65.2</ele>
        <time>2020-04-19T14:03:55Z</time>
      </trkpt>
      <trkpt lat="-11.6824900" lon="166.9378570">
        <ele>65.2</ele>
        <time>2020-04-19T14:03:56Z</time>
      </trkpt>
      <trkpt lat="-11.6824900" lon="166.9378570">
        <ele>65.2</ele>
        <time>2020-04-19T14:03:57Z</time>
      </trkpt>
      <trkpt lat="-11.6824900" lon="166.9378570">
        <ele>65.2</ele>
        <time>2020-04-19T14:03:58Z</time>
      </trkpt>
      <trkpt lat="-11.6824900" lon="166.9378570">
        <ele>65.2</ele>
        <time>2020-04-19T14:03:59Z</time>
      </trkpt>
      <trkpt lat="-11.6824900" lon="166.9378570">
        <ele>65.2</ele>
        <time>2020-04-19T14:04:00Z</time>
      </trkpt>
      <trkpt lat="-11.6824900" lon="166.9378570">
        <ele>65.2</ele>
        <time>2020-04-19T14:04:01Z</time>
      </trkpt>
      <trkpt lat="-11.6824900" lon="166.9378570">
        <ele>65.2</ele>
        <time>2020-04-19T14:04:02Z</time>
      </trkpt>
      <trkpt lat="-11.6824900" lon="166.9378570">
        <ele>65.2</ele>
        <time>2020-04-19T14:04:03Z</time>
      </trkpt>
      <trkpt lat="-11.6824900" lon="166.9378570">
        <ele>65.2</ele>
        <time>2020-04-19T14:04:04Z</time>
      </trkpt>
      <trkpt lat="-11.6824900" lon="166.9378570">
        <ele>65.2</ele>
        <time>2020-04-19T14:04:05Z</time>
      </trkpt>
      <trkpt lat="-11.6824900" lon="166.9378570">
        <ele>65.2</ele>
        <time>2020-04-19T14:04:06Z</time>
      </trkpt>
      <trkpt lat="-11.6824910" lon="166.9378570">
        <ele>65.2</ele>
        <time>2020-04-19T14:04:07Z</time>
      </trkpt>
      <trkpt lat="-11.6824910" lon="166.9378570">
        <ele>65.2</ele>
        <time>2020-04-19T14:04:08Z</time>
      </trkpt>
      <trkpt lat="-11.6824910" lon="166.9378570">
        <ele>65.2</ele>
        <time>2020-04-19T14:04:09Z</time>
      </trkpt>
      <trkpt lat="-11.6824910" lon="166.9378570">
        <ele>65.2</ele>
        <time>2020-04-19T14:04:10Z</time>
      </trkpt>
      <trkpt lat="-11.6824910" lon="166.9378570">
        <ele>65.2</ele>
        <time>2020-04-19T14:04:11Z</time>
      </trkpt>
      <trkpt lat="-11.6824910" lon="166.9378570">
        <ele>65.2</ele>
        <time>2020-04-19T14:04:12Z</time>
      </trkpt>
      <trkpt lat="-11.6824910" lon="166.9378570">
        <ele>65.2</ele>
        <time>2020-04-19T14:04:13Z</time>
      </trkpt>
      <trkpt lat="-11.6824930" lon="166.9378570">
        <ele>65.2</ele>
        <time>2020-04-19T14:04:14Z</time>
      </trkpt>
      <trkpt lat="-11.6824930" lon="166.9378570">
        <ele>65.2</ele>
        <time>2020-04-19T14:04:15Z</time>
      </trkpt>
      <trkpt lat="-11.6824930" lon="166.9378570">
        <ele>65.2</ele>
        <time>2020-04-19T14:04:16Z</time>
      </trkpt>
      <trkpt lat="-11.6824930" lon="166.9378570">
        <ele>65.2</ele>
        <time>2020-04-19T14:04:17Z</time>
      </trkpt>
      <trkpt lat="-11.6824930" lon="166.9378570">
        <ele>65.2</ele>
        <time>2020-04-19T14:04:18Z</time>
      </trkpt>
      <trkpt lat="-11.6824930" lon="166.9378570">
        <ele>65.2</ele>
        <time>2020-04-19T14:04:19Z</time>
      </trkpt>
      <trkpt lat="-11.6824930" lon="166.9378570">
        <ele>65.2</ele>
        <time>2020-04-19T14:04:20Z</time>
      </trkpt>
      <trkpt lat="-11.6824940" lon="166.9378570">
        <ele>65.2</ele>
        <time>2020-04-19T14:04:21Z</time>
      </trkpt>
      <trkpt lat="-11.6824940" lon="166.9378570">
        <ele>65.2</ele>
        <time>2020-04-19T14:04:22Z</time>
      </trkpt>
      <trkpt lat="-11.6824940" lon="166.9378570">
        <ele>65.2</ele>
        <time>2020-04-19T14:04:23Z</time>
      </trkpt>
      <trkpt lat="-11.6824940" lon="166.9378570">
        <ele>65.2</ele>
        <time>2020-04-19T14:04:24Z</time>
      </trkpt>
      <trkpt lat="-11.6824940" lon="166.9378570">
        <ele>65.2</ele>
        <time>2020-04-19T14:04:25Z</time>
      </trkpt>
      <trkpt lat="-11.6824940" lon="166.9378570">
        <ele>65.2</ele>
        <time>2020-04-19T14:04:26Z</time>
      </trkpt>
      <trkpt lat="-11.6824940" lon="166.9378570">
        <ele>65.2</ele>
        <time>2020-04-19T14:04:27Z</time>
      </trkpt>
      <trkpt lat="-11.6824940" lon="166.9378570">
        <ele>65.2</ele>
        <time>2020-04-19T14:04:28Z</time>
      </trkpt>
      <trkpt lat="-11.6824940" lon="166.9378570">
        <ele>65.2</ele>
        <time>2020-04-19T14:04:29Z</time>
      </trkpt>
      <trkpt lat="-11.6824940" lon="166.9378570">
        <ele>65.2</ele>
        <time>2020-04-19T14:04:30Z</time>
      </trkpt>
      <trkpt lat="-11.6824940" lon="166.9378570">
        <ele>65.2</ele>
        <time>2020-04-19T14:04:31Z</time>
      </trkpt>
      <trkpt lat="-11.6824940" lon="166.9378570">
        <ele>65.2</ele>
        <time>2020-04-19T14:04:32Z</time>
      </trkpt>
      <trkpt lat="-11.6824940" lon="166.9378570">
        <ele>65.2</ele>
        <time>2020-04-19T14:04:33Z</time>
      </trkpt>
      <trkpt lat="-11.6824940" lon="166.9378570">
        <ele>65.2</ele>
        <time>2020-04-19T14:04:34Z</time>
      </trkpt>
      <trkpt lat="-11.6824940" lon="166.9378570">
        <ele>65.2</ele>
        <time>2020-04-19T14:04:35Z</time>
      </trkpt>
      <trkpt lat="-11.6824940" lon="166.9378570">
        <ele>65.2</ele>
        <time>2020-04-19T14:04:36Z</time>
      </trkpt>
      <trkpt lat="-11.6824940" lon="166.9378570">
        <ele>65.2</ele>
        <time>2020-04-19T14:04:37Z</time>
      </trkpt>
      <trkpt lat="-11.6824940" lon="166.9378570">
        <ele>65.2</ele>
        <time>2020-04-19T14:04:38Z</time>
      </trkpt>
      <trkpt lat="-11.6824940" lon="166.9378570">
        <ele>65.2</ele>
        <time>2020-04-19T14:04:39Z</time>
      </trkpt>
      <trkpt lat="-11.6824940" lon="166.9378570">
        <ele>65.2</ele>
        <time>2020-04-19T14:04:40Z</time>
      </trkpt>
      <trkpt lat="-11.6824940" lon="166.9378570">
        <ele>65.2</ele>
        <time>2020-04-19T14:04:41Z</time>
      </trkpt>
      <trkpt lat="-11.6824940" lon="166.9378570">
        <ele>65.2</ele>
        <time>2020-04-19T14:04:42Z</time>
      </trkpt>
      <trkpt lat="-11.6824940" lon="166.9378570">
        <ele>65.2</ele>
        <time>2020-04-19T14:04:43Z</time>
      </trkpt>
      <trkpt lat="-11.6824940" lon="166.9378570">
        <ele>65.2</ele>
        <time>2020-04-19T14:04:44Z</time>
      </trkpt>
      <trkpt lat="-11.6824940" lon="166.9378570">
        <ele>65.2</ele>
        <time>2020-04-19T14:04:45Z</time>
      </trkpt>
      <trkpt lat="-11.6824940" lon="166.9378570">
        <ele>65.2</ele>
        <time>2020-04-19T14:04:46Z</time>
      </trkpt>
      <trkpt lat="-11.6824940" lon="166.9378570">
        <ele>65.2</ele>
        <time>2020-04-19T14:04:47Z</time>
      </trkpt>
      <trkpt lat="-11.6824940" lon="166.9378570">
        <ele>65.2</ele>
        <time>2020-04-19T14:04:48Z</time>
      </trkpt>
      <trkpt lat="-11.6824940" lon="166.9378570">
        <ele>65.2</ele>
        <time>2020-04-19T14:04:49Z</time>
      </trkpt>
      <trkpt lat="-11.6824940" lon="166.9378570">
        <ele>65.2</ele>
        <time>2020-04-19T14:04:50Z</time>
      </trkpt>
      <trkpt lat="-11.6824940" lon="166.9378570">
        <ele>65.2</ele>
        <time>2020-04-19T14:04:51Z</time>
      </trkpt>
      <trkpt lat="-11.6824940" lon="166.9378570">
        <ele>65.2</ele>
        <time>2020-04-19T14:04:52Z</time>
      </trkpt>
      <trkpt lat="-11.6824940" lon="166.9378570">
        <ele>65.2</ele>
        <time>2020-04-19T14:04:53Z</time>
      </trkpt>
      <trkpt lat="-11.6824940" lon="166.9378570">
        <ele>65.2</ele>
        <time>2020-04-19T14:04:54Z</time>
      </trkpt>
      <trkpt lat="-11.6824940" lon="166.9378570">
        <ele>65.2</ele>
        <time>2020-04-19T14:04:55Z</time>
      </trkpt>
      <trkpt lat="-11.6824940" lon="166.9378570">
        <ele>65.2</ele>
        <time>2020-04-19T14:04:56Z</time>
      </trkpt>
      <trkpt lat="-11.6824940" lon="166.9378570">
        <ele>65.2</ele>
        <time>2020-04-19T14:04:57Z</time>
      </trkpt>
      <trkpt lat="-11.6824940" lon="166.9378570">
        <ele>65.2</ele>
        <time>2020-04-19T14:04:58Z</time>
      </trkpt>
      <trkpt lat="-11.6824940" lon="166.9378570">
        <ele>65.2</ele>
        <time>2020-04-19T14:04:59Z</time>
      </trkpt>
      <trkpt lat="-11.6824940" lon="166.9378570">
        <ele>65.2</ele>
        <time>2020-04-19T14:05:00Z</time>
      </trkpt>
      <trkpt lat="-11.6824940" lon="166.9378570">
        <ele>65.2</ele>
        <time>2020-04-19T14:05:01Z</time>
      </trkpt>
      <trkpt lat="-11.6824940" lon="166.9378570">
        <ele>65.2</ele>
        <time>2020-04-19T14:05:02Z</time>
      </trkpt>
      <trkpt lat="-11.6824940" lon="166.9378570">
        <ele>65.2</ele>
        <time>2020-04-19T14:05:03Z</time>
      </trkpt>
      <trkpt lat="-11.6824940" lon="166.9378570">
        <ele>65.2</ele>
        <time>2020-04-19T14:05:04Z</time>
      </trkpt>
      <trkpt lat="-11.6824940" lon="166.9378570">
        <ele>65.2</ele>
        <time>2020-04-19T14:05:05Z</time>
      </trkpt>
      <trkpt lat="-11.6824940" lon="166.9378570">
        <ele>65.2</ele>
        <time>2020-04-19T14:05:06Z</time>
      </trkpt>
      <trkpt lat="-11.6824940" lon="166.9378570">
        <ele>65.2</ele>
        <time>2020-04-19T14:05:07Z</time>
      </trkpt>
      <trkpt lat="-11.6824940" lon="166.9378570">
        <ele>65.2</ele>
        <time>2020-04-19T14:05:08Z</time>
      </trkpt>
      <trkpt lat="-11.6824940" lon="166.9378570">
        <ele>65.2</ele>
        <time>2020-04-19T14:05:09Z</time>
      </trkpt>
      <trkpt lat="-11.6824940" lon="166.9378570">
        <ele>65.2</ele>
        <time>2020-04-19T14:05:10Z</time>
      </trkpt>
      <trkpt lat="-11.6824940" lon="166.9378570">
        <ele>65.2</ele>
        <time>2020-04-19T14:05:11Z</time>
      </trkpt>
      <trkpt lat="-11.6824940" lon="166.9378570">
        <ele>65.2</ele>
        <time>2020-04-19T14:05:12Z</time>
      </trkpt>
      <trkpt lat="-11.6824940" lon="166.9378570">
        <ele>65.2</ele>
        <time>2020-04-19T14:05:13Z</time>
      </trkpt>
      <trkpt lat="-11.6824940" lon="166.9378570">
        <ele>65.2</ele>
        <time>2020-04-19T14:05:14Z</time>
      </trkpt>
      <trkpt lat="-11.6824940" lon="166.9378570">
        <ele>65.2</ele>
        <time>2020-04-19T14:05:15Z</time>
      </trkpt>
      <trkpt lat="-11.6824940" lon="166.9378570">
        <ele>65.2</ele>
        <time>2020-04-19T14:05:16Z</time>
      </trkpt>
      <trkpt lat="-11.6824950" lon="166.9378570">
        <ele>65.2</ele>
        <time>2020-04-19T14:05:17Z</time>
      </trkpt>
      <trkpt lat="-11.6824950" lon="166.9378570">
        <ele>65.2</ele>
        <time>2020-04-19T14:05:18Z</time>
      </trkpt>
      <trkpt lat="-11.6824950" lon="166.9378570">
        <ele>65.2</ele>
        <time>2020-04-19T14:05:19Z</time>
      </trkpt>
      <trkpt lat="-11.6824950" lon="166.9378570">
        <ele>65.2</ele>
        <time>2020-04-19T14:05:20Z</time>
      </trkpt>
      <trkpt lat="-11.6824950" lon="166.9378570">
        <ele>65.2</ele>
        <time>2020-04-19T14:05:21Z</time>
      </trkpt>
      <trkpt lat="-11.6824950" lon="166.9378570">
        <ele>65.2</ele>
        <time>2020-04-19T14:05:22Z</time>
      </trkpt>
      <trkpt lat="-11.6824950" lon="166.9378570">
        <ele>65.2</ele>
        <time>2020-04-19T14:05:23Z</time>
      </trkpt>
      <trkpt lat="-11.6824950" lon="166.9378570">
        <ele>65.2</ele>
        <time>2020-04-19T14:05:24Z</time>
      </trkpt>
      <trkpt lat="-11.6824950" lon="166.9378570">
        <ele>65.2</ele>
        <time>2020-04-19T14:05:25Z</time>
      </trkpt>
      <trkpt lat="-11.6824950" lon="166.9378570">
        <ele>65.2</ele>
        <time>2020-04-19T14:05:26Z</time>
      </trkpt>
      <trkpt lat="-11.6824950" lon="166.9378570">
        <ele>65.2</ele>
        <time>2020-04-19T14:05:27Z</time>
      </trkpt>
      <trkpt lat="-11.6824950" lon="166.9378570">
        <ele>65.2</ele>
        <time>2020-04-19T14:05:28Z</time>
      </trkpt>
      <trkpt lat="-11.6824950" lon="166.9378570">
        <ele>65.2</ele>
        <time>2020-04-19T14:05:29Z</time>
      </trkpt>
      <trkpt lat="-11.6824950" lon="166.9378570">
        <ele>65.2</ele>
        <time>2020-04-19T14:05:30Z</time>
      </trkpt>
      <trkpt lat="-11.6824950" lon="166.9378570">
        <ele>65.2</ele>
        <time>2020-04-19T14:05:31Z</time>
      </trkpt>
      <trkpt lat="-11.6824950" lon="166.9378570">
        <ele>65.2</ele>
        <time>2020-04-19T14:05:32Z</time>
      </trkpt>
      <trkpt lat="-11.6824950" lon="166.9378570">
        <ele>65.2</ele>
        <time>2020-04-19T14:05:33Z</time>
      </trkpt>
      <trkpt lat="-11.6824950" lon="166.9378570">
        <ele>65.2</ele>
        <time>2020-04-19T14:05:34Z</time>
      </trkpt>
      <trkpt lat="-11.6824950" lon="166.9378570">
        <ele>65.2</ele>
        <time>2020-04-19T14:05:35Z</time>
      </trkpt>
      <trkpt lat="-11.6824950" lon="166.9378570">
        <ele>65.2</ele>
        <time>2020-04-19T14:05:36Z</time>
      </trkpt>
      <trkpt lat="-11.6824950" lon="166.9378570">
        <ele>65.2</ele>
        <time>2020-04-19T14:05:37Z</time>
      </trkpt>
      <trkpt lat="-11.6824950" lon="166.9378570">
        <ele>65.2</ele>
        <time>2020-04-19T14:05:38Z</time>
      </trkpt>
      <trkpt lat="-11.6824950" lon="166.9378570">
        <ele>65.2</ele>
        <time>2020-04-19T14:05:39Z</time>
      </trkpt>
      <trkpt lat="-11.6824950" lon="166.9378570">
        <ele>65.2</ele>
        <time>2020-04-19T14:05:40Z</time>
      </trkpt>
      <trkpt lat="-11.6824950" lon="166.9378570">
        <ele>65.2</ele>
        <time>2020-04-19T14:05:41Z</time>
      </trkpt>
      <trkpt lat="-11.6824950" lon="166.9378570">
        <ele>65.2</ele>
        <time>2020-04-19T14:05:42Z</time>
      </trkpt>
      <trkpt lat="-11.6824950" lon="166.9378570">
        <ele>65.2</ele>
        <time>2020-04-19T14:05:43Z</time>
      </trkpt>
      <trkpt lat="-11.6824950" lon="166.9378570">
        <ele>65.2</ele>
        <time>2020-04-19T14:05:44Z</time>
      </trkpt>
      <trkpt lat="-11.6824950" lon="166.9378570">
        <ele>65.2</ele>
        <time>2020-04-19T14:05:45Z</time>
      </trkpt>
      <trkpt lat="-11.6824950" lon="166.9378570">
        <ele>65.2</ele>
        <time>2020-04-19T14:05:46Z</time>
      </trkpt>
      <trkpt lat="-11.6824950" lon="166.9378570">
        <ele>65.2</ele>
        <time>2020-04-19T14:05:47Z</time>
      </trkpt>
      <trkpt lat="-11.6824950" lon="166.9378570">
        <ele>65.2</ele>
        <time>2020-04-19T14:05:48Z</time>
      </trkpt>
      <trkpt lat="-11.6824950" lon="166.9378570">
        <ele>65.2</ele>
        <time>2020-04-19T14:05:49Z</time>
      </trkpt>
      <trkpt lat="-11.6824950" lon="166.9378570">
        <ele>65.2</ele>
        <time>2020-04-19T14:05:50Z</time>
      </trkpt>
      <trkpt lat="-11.6824950" lon="166.9378570">
        <ele>65.2</ele>
        <time>2020-04-19T14:05:51Z</time>
      </trkpt>
      <trkpt lat="-11.6824950" lon="166.9378570">
        <ele>65.2</ele>
        <time>2020-04-19T14:05:52Z</time>
      </trkpt>
      <trkpt lat="-11.6824950" lon="166.9378570">
        <ele>65.2</ele>
        <time>2020-04-19T14:05:53Z</time>
      </trkpt>
      <trkpt lat="-11.6824950" lon="166.9378570">
        <ele>65.2</ele>
        <time>2020-04-19T14:05:54Z</time>
      </trkpt>
      <trkpt lat="-11.6824950" lon="166.9378570">
        <ele>65.2</ele>
        <time>2020-04-19T14:05:55Z</time>
      </trkpt>
      <trkpt lat="-11.6824950" lon="166.9378570">
        <ele>65.2</ele>
        <time>2020-04-19T14:05:56Z</time>
      </trkpt>
      <trkpt lat="-11.6824950" lon="166.9378570">
        <ele>65.2</ele>
        <time>2020-04-19T14:05:57Z</time>
      </trkpt>
      <trkpt lat="-11.6824950" lon="166.9378570">
        <ele>65.2</ele>
        <time>2020-04-19T14:05:58Z</time>
      </trkpt>
      <trkpt lat="-11.6824950" lon="166.9378570">
        <ele>65.2</ele>
        <time>2020-04-19T14:05:59Z</time>
      </trkpt>
      <trkpt lat="-11.6824950" lon="166.9378570">
        <ele>65.2</ele>
        <time>2020-04-19T14:06:00Z</time>
      </trkpt>
      <trkpt lat="-11.6824950" lon="166.9378570">
        <ele>65.2</ele>
        <time>2020-04-19T14:06:01Z</time>
      </trkpt>
      <trkpt lat="-11.6824950" lon="166.9378570">
        <ele>65.2</ele>
        <time>2020-04-19T14:06:02Z</time>
      </trkpt>
      <trkpt lat="-11.6824950" lon="166.9378570">
        <ele>65.2</ele>
        <time>2020-04-19T14:06:03Z</time>
      </trkpt>
      <trkpt lat="-11.6824950" lon="166.9378570">
        <ele>65.2</ele>
        <time>2020-04-19T14:06:04Z</time>
      </trkpt>
      <trkpt lat="-11.6824950" lon="166.9378570">
        <ele>65.2</ele>
        <time>2020-04-19T14:06:05Z</time>
      </trkpt>
      <trkpt lat="-11.6824950" lon="166.9378570">
        <ele>65.2</ele>
        <time>2020-04-19T14:06:06Z</time>
      </trkpt>
      <trkpt lat="-11.6824950" lon="166.9378570">
        <ele>65.2</ele>
        <time>2020-04-19T14:06:07Z</time>
      </trkpt>
      <trkpt lat="-11.6824950" lon="166.9378570">
        <ele>65.2</ele>
        <time>2020-04-19T14:06:08Z</time>
      </trkpt>
      <trkpt lat="-11.6824950" lon="166.9378570">
        <ele>65.2</ele>
        <time>2020-04-19T14:06:09Z</time>
      </trkpt>
      <trkpt lat="-11.6824950" lon="166.9378350">
        <ele>65.2</ele>
        <time>2020-04-19T14:06:10Z</time>
      </trkpt>
      <trkpt lat="-11.6824950" lon="166.9378350">
        <ele>65.2</ele>
        <time>2020-04-19T14:06:11Z</time>
      </trkpt>
      <trkpt lat="-11.6824950" lon="166.9378350">
        <ele>65.2</ele>
        <time>2020-04-19T14:06:12Z</time>
      </trkpt>
      <trkpt lat="-11.6824950" lon="166.9378350">
        <ele>65.2</ele>
        <time>2020-04-19T14:06:13Z</time>
      </trkpt>
      <trkpt lat="-11.6824950" lon="166.9378350">
        <ele>65.2</ele>
        <time>2020-04-19T14:06:14Z</time>
      </trkpt>
      <trkpt lat="-11.6824950" lon="166.9378350">
        <ele>65.2</ele>
        <time>2020-04-19T14:06:15Z</time>
      </trkpt>
      <trkpt lat="-11.6824950" lon="166.9378350">
        <ele>65.2</ele>
        <time>2020-04-19T14:06:16Z</time>
      </trkpt>
      <trkpt lat="-11.6824950" lon="166.9378350">
        <ele>65.2</ele>
        <time>2020-04-19T14:06:17Z</time>
      </trkpt>
      <trkpt lat="-11.6824950" lon="166.9378350">
        <ele>65.2</ele>
        <time>2020-04-19T14:06:18Z</time>
      </trkpt>
      <trkpt lat="-11.6824950" lon="166.9378350">
        <ele>65.2</ele>
        <time>2020-04-19T14:06:19Z</time>
      </trkpt>
      <trkpt lat="-11.6824950" lon="166.9378350">
        <ele>65.2</ele>
        <time>2020-04-19T14:06:20Z</time>
      </trkpt>
      <trkpt lat="-11.6824950" lon="166.9378350">
        <ele>65.2</ele>
        <time>2020-04-19T14:06:21Z</time>
      </trkpt>
      <trkpt lat="-11.6824950" lon="166.9378350">
        <ele>65.2</ele>
        <time>2020-04-19T14:06:22Z</time>
      </trkpt>
      <trkpt lat="-11.6824950" lon="166.9378350">
        <ele>65.2</ele>
        <time>2020-04-19T14:06:23Z</time>
      </trkpt>
      <trkpt lat="-11.6824950" lon="166.9378350">
        <ele>65.2</ele>
        <time>2020-04-19T14:06:24Z</time>
      </trkpt>
      <trkpt lat="-11.6824950" lon="166.9378350">
        <ele>65.2</ele>
        <time>2020-04-19T14:06:25Z</time>
      </trkpt>
      <trkpt lat="-11.6824950" lon="166.9378350">
        <ele>65.2</ele>
        <time>2020-04-19T14:06:26Z</time>
      </trkpt>
      <trkpt lat="-11.6824950" lon="166.9378350">
        <ele>65.2</ele>
        <time>2020-04-19T14:06:27Z</time>
      </trkpt>
      <trkpt lat="-11.6824950" lon="166.9378350">
        <ele>65.2</ele>
        <time>2020-04-19T14:06:28Z</time>
      </trkpt>
      <trkpt lat="-11.6824950" lon="166.9378350">
        <ele>65.2</ele>
        <time>2020-04-19T14:06:29Z</time>
      </trkpt>
      <trkpt lat="-11.6824950" lon="166.9378350">
        <ele>65.2</ele>
        <time>2020-04-19T14:06:30Z</time>
      </trkpt>
      <trkpt lat="-11.6824950" lon="166.9378350">
        <ele>65.2</ele>
        <time>2020-04-19T14:06:31Z</time>
      </trkpt>
      <trkpt lat="-11.6824950" lon="166.9378350">
        <ele>65.2</ele>
        <time>2020-04-19T14:06:32Z</time>
      </trkpt>
      <trkpt lat="-11.6824950" lon="166.9378350">
        <ele>65.2</ele>
        <time>2020-04-19T14:06:33Z</time>
      </trkpt>
      <trkpt lat="-11.6824950" lon="166.9378350">
        <ele>65.2</ele>
        <time>2020-04-19T14:06:34Z</time>
      </trkpt>
      <trkpt lat="-11.6824950" lon="166.9378350">
        <ele>65.2</ele>
        <time>2020-04-19T14:06:35Z</time>
      </trkpt>
      <trkpt lat="-11.6824950" lon="166.9378350">
        <ele>65.2</ele>
        <time>2020-04-19T14:06:36Z</time>
      </trkpt>
      <trkpt lat="-11.6824950" lon="166.9378350">
        <ele>65.2</ele>
        <time>2020-04-19T14:06:37Z</time>
      </trkpt>
      <trkpt lat="-11.6824950" lon="166.9378350">
        <ele>65.2</ele>
        <time>2020-04-19T14:06:38Z</time>
      </trkpt>
      <trkpt lat="-11.6824950" lon="166.9378350">
        <ele>65.2</ele>
        <time>2020-04-19T14:06:39Z</time>
      </trkpt>
      <trkpt lat="-11.6824950" lon="166.9378350">
        <ele>65.2</ele>
        <time>2020-04-19T14:06:40Z</time>
      </trkpt>
      <trkpt lat="-11.6824950" lon="166.9378350">
        <ele>65.2</ele>
        <time>2020-04-19T14:06:41Z</time>
      </trkpt>
      <trkpt lat="-11.6824950" lon="166.9378350">
        <ele>65.2</ele>
        <time>2020-04-19T14:06:42Z</time>
      </trkpt>
      <trkpt lat="-11.6824950" lon="166.9378350">
        <ele>65.2</ele>
        <time>2020-04-19T14:06:43Z</time>
      </trkpt>
      <trkpt lat="-11.6824950" lon="166.9378350">
        <ele>65.2</ele>
        <time>2020-04-19T14:06:44Z</time>
      </trkpt>
      <trkpt lat="-11.6824950" lon="166.9378350">
        <ele>65.2</ele>
        <time>2020-04-19T14:06:45Z</time>
      </trkpt>
      <trkpt lat="-11.6824950" lon="166.9378350">
        <ele>65.2</ele>
        <time>2020-04-19T14:06:46Z</time>
      </trkpt>
      <trkpt lat="-11.6824950" lon="166.9378350">
        <ele>65.2</ele>
        <time>2020-04-19T14:06:47Z</time>
      </trkpt>
      <trkpt lat="-11.6824950" lon="166.9378350">
        <ele>65.2</ele>
        <time>2020-04-19T14:06:48Z</time>
      </trkpt>
      <trkpt lat="-11.6824950" lon="166.9378350">
        <ele>65.2</ele>
        <time>2020-04-19T14:06:49Z</time>
      </trkpt>
      <trkpt lat="-11.6824950" lon="166.9378350">
        <ele>65.2</ele>
        <time>2020-04-19T14:06:50Z</time>
      </trkpt>
      <trkpt lat="-11.6824950" lon="166.9378350">
        <ele>65.2</ele>
        <time>2020-04-19T14:06:51Z</time>
      </trkpt>
      <trkpt lat="-11.6824970" lon="166.9378350">
        <ele>65.2</ele>
        <time>2020-04-19T14:06:52Z</time>
      </trkpt>
      <trkpt lat="-11.6824970" lon="166.9378350">
        <ele>65.2</ele>
        <time>2020-04-19T14:06:53Z</time>
      </trkpt>
      <trkpt lat="-11.6824970" lon="166.9378350">
        <ele>65.2</ele>
        <time>2020-04-19T14:06:54Z</time>
      </trkpt>
      <trkpt lat="-11.6824970" lon="166.9378350">
        <ele>65.2</ele>
        <time>2020-04-19T14:06:55Z</time>
      </trkpt>
      <trkpt lat="-11.6824970" lon="166.9378350">
        <ele>65.2</ele>
        <time>2020-04-19T14:06:56Z</time>
      </trkpt>
      <trkpt lat="-11.6824970" lon="166.9378350">
        <ele>65.2</ele>
        <time>2020-04-19T14:06:57Z</time>
      </trkpt>
      <trkpt lat="-11.6824970" lon="166.9378350">
        <ele>65.2</ele>
        <time>2020-04-19T14:06:58Z</time>
      </trkpt>
      <trkpt lat="-11.6824970" lon="166.9378350">
        <ele>65.2</ele>
        <time>2020-04-19T14:06:59Z</time>
      </trkpt>
      <trkpt lat="-11.6824970" lon="166.9378350">
        <ele>65.2</ele>
        <time>2020-04-19T14:07:00Z</time>
      </trkpt>
      <trkpt lat="-11.6824970" lon="166.9378350">
        <ele>65.2</ele>
        <time>2020-04-19T14:07:01Z</time>
      </trkpt>
      <trkpt lat="-11.6824970" lon="166.9378350">
        <ele>65.2</ele>
        <time>2020-04-19T14:07:02Z</time>
      </trkpt>
      <trkpt lat="-11.6824970" lon="166.9378350">
        <ele>65.2</ele>
        <time>2020-04-19T14:07:03Z</time>
      </trkpt>
      <trkpt lat="-11.6824970" lon="166.9378350">
        <ele>65.2</ele>
        <time>2020-04-19T14:07:04Z</time>
      </trkpt>
      <trkpt lat="-11.6824970" lon="166.9378350">
        <ele>65.2</ele>
        <time>2020-04-19T14:07:05Z</time>
      </trkpt>
      <trkpt lat="-11.6824970" lon="166.9378350">
        <ele>65.2</ele>
        <time>2020-04-19T14:07:06Z</time>
      </trkpt>
      <trkpt lat="-11.6824970" lon="166.9378350">
        <ele>65.2</ele>
        <time>2020-04-19T14:07:07Z</time>
      </trkpt>
      <trkpt lat="-11.6824970" lon="166.9378350">
        <ele>65.2</ele>
        <time>2020-04-19T14:07:08Z</time>
      </trkpt>
      <trkpt lat="-11.6824970" lon="166.9378350">
        <ele>65.2</ele>
        <time>2020-04-19T14:07:09Z</time>
      </trkpt>
      <trkpt lat="-11.6824970" lon="166.9378350">
        <ele>65.2</ele>
        <time>2020-04-19T14:07:10Z</time>
      </trkpt>
      <trkpt lat="-11.6824970" lon="166.9378350">
        <ele>65.2</ele>
        <time>2020-04-19T14:07:11Z</time>
      </trkpt>
      <trkpt lat="-11.6824970" lon="166.9378350">
        <ele>65.2</ele>
        <time>2020-04-19T14:07:12Z</time>
      </trkpt>
      <trkpt lat="-11.6824970" lon="166.9378350">
        <ele>65.2</ele>
        <time>2020-04-19T14:07:13Z</time>
      </trkpt>
      <trkpt lat="-11.6824970" lon="166.9378350">
        <ele>65.2</ele>
        <time>2020-04-19T14:07:14Z</time>
      </trkpt>
      <trkpt lat="-11.6824970" lon="166.9378350">
        <ele>65.2</ele>
        <time>2020-04-19T14:07:15Z</time>
      </trkpt>
      <trkpt lat="-11.6824970" lon="166.9378350">
        <ele>65.2</ele>
        <time>2020-04-19T14:07:16Z</time>
      </trkpt>
      <trkpt lat="-11.6824970" lon="166.9378350">
        <ele>65.2</ele>
        <time>2020-04-19T14:07:17Z</time>
      </trkpt>
      <trkpt lat="-11.6824970" lon="166.9378350">
        <ele>65.2</ele>
        <time>2020-04-19T14:07:18Z</time>
      </trkpt>
      <trkpt lat="-11.6824970" lon="166.9378350">
        <ele>65.2</ele>
        <time>2020-04-19T14:07:19Z</time>
      </trkpt>
      <trkpt lat="-11.6824970" lon="166.9378350">
        <ele>65.2</ele>
        <time>2020-04-19T14:07:20Z</time>
      </trkpt>
      <trkpt lat="-11.6824970" lon="166.9378350">
        <ele>65.2</ele>
        <time>2020-04-19T14:07:21Z</time>
      </trkpt>
      <trkpt lat="-11.6824970" lon="166.9378350">
        <ele>65.2</ele>
        <time>2020-04-19T14:07:22Z</time>
      </trkpt>
      <trkpt lat="-11.6824970" lon="166.9378350">
        <ele>65.2</ele>
        <time>2020-04-19T14:07:23Z</time>
      </trkpt>
      <trkpt lat="-11.6824970" lon="166.9378350">
        <ele>65.2</ele>
        <time>2020-04-19T14:07:24Z</time>
      </trkpt>
      <trkpt lat="-11.6824970" lon="166.9378350">
        <ele>65.2</ele>
        <time>2020-04-19T14:07:25Z</time>
      </trkpt>
      <trkpt lat="-11.6824970" lon="166.9378350">
        <ele>65.2</ele>
        <time>2020-04-19T14:07:26Z</time>
      </trkpt>
      <trkpt lat="-11.6824970" lon="166.9378350">
        <ele>65.2</ele>
        <time>2020-04-19T14:07:27Z</time>
      </trkpt>
      <trkpt lat="-11.6824970" lon="166.9378350">
        <ele>65.2</ele>
        <time>2020-04-19T14:07:28Z</time>
      </trkpt>
      <trkpt lat="-11.6786250" lon="166.9400780">
        <ele>57.8</ele>
        <time>2020-04-19T14:10:10Z</time>
      </trkpt>
      <trkpt lat="-11.6786090" lon="166.9400990">
        <ele>57.8</ele>
        <time>2020-04-19T14:10:11Z</time>
      </trkpt>
      <trkpt lat="-11.6785930" lon="166.9401100">
        <ele>57.8</ele>
        <time>2020-04-19T14:10:12Z</time>
      </trkpt>
      <trkpt lat="-11.6785750" lon="166.9401310">
        <ele>57.8</ele>
        <time>2020-04-19T14:10:13Z</time>
      </trkpt>
      <trkpt lat="-11.6783840" lon="166.9403460">
        <ele>57.6</ele>
        <time>2020-04-19T14:10:14Z</time>
      </trkpt>
      <trkpt lat="-11.6783410" lon="166.9403890">
        <ele>57.6</ele>
        <time>2020-04-19T14:10:15Z</time>
      </trkpt>
      <trkpt lat="-11.6782960" lon="166.9404320">
        <ele>57.6</ele>
        <time>2020-04-19T14:10:16Z</time>
      </trkpt>
      <trkpt lat="-11.6782500" lon="166.9404750">
        <ele>57.6</ele>
        <time>2020-04-19T14:10:17Z</time>
      </trkpt>
      <trkpt lat="-11.6782050" lon="166.9405280">
        <ele>57.6</ele>
        <time>2020-04-19T14:10:18Z</time>
      </trkpt>
      <trkpt lat="-11.6781580" lon="166.9405600">
        <ele>57.6</ele>
        <time>2020-04-19T14:10:19Z</time>
      </trkpt>
      <trkpt lat="-11.6781100" lon="166.9406030">
        <ele>57.6</ele>
        <time>2020-04-19T14:10:20Z</time>
      </trkpt>
      <trkpt lat="-11.6780630" lon="166.9406350">
        <ele>57.6</ele>
        <time>2020-04-19T14:10:21Z</time>
      </trkpt>
      <trkpt lat="-11.6780160" lon="166.9406780">
        <ele>57.6</ele>
        <time>2020-04-19T14:10:22Z</time>
      </trkpt>
      <trkpt lat="-11.6779690" lon="166.9407110">
        <ele>57.8</ele>
        <time>2020-04-19T14:10:23Z</time>
      </trkpt>
      <trkpt lat="-11.6779200" lon="166.9407430">
        <ele>57.8</ele>
        <time>2020-04-19T14:10:24Z</time>
      </trkpt>
      <trkpt lat="-11.6778730" lon="166.9407640">
        <ele>58.0</ele>
        <time>2020-04-19T14:10:25Z</time>
      </trkpt>
      <trkpt lat="-11.6778260" lon="166.9407960">
        <ele>58.0</ele>
        <time>2020-04-19T14:10:26Z</time>
      </trkpt>
      <trkpt lat="-11.6777770" lon="166.9408290">
        <ele>58.2</ele>
        <time>2020-04-19T14:10:27Z</time>
      </trkpt>
      <trkpt lat="-11.6777310" lon="166.9408500">
        <ele>58.2</ele>
        <time>2020-04-19T14:10:28Z</time>
      </trkpt>
      <trkpt lat="-11.6776840" lon="166.9408710">
        <ele>58.4</ele>
        <time>2020-04-19T14:10:29Z</time>
      </trkpt>
      <trkpt lat="-11.6776380" lon="166.9409040">
        <ele>58.4</ele>
        <time>2020-04-19T14:10:30Z</time>
      </trkpt>
      <trkpt lat="-11.6775920" lon="166.9409250">
        <ele>58.6</ele>
        <time>2020-04-19T14:10:31Z</time>
      </trkpt>
      <trkpt lat="-11.6775480" lon="166.9409570">
        <ele>58.8</ele>
        <time>2020-04-19T14:10:32Z</time>
      </trkpt>
      <trkpt lat="-11.6775050" lon="166.9409790">
        <ele>58.8</ele>
        <time>2020-04-19T14:10:33Z</time>
      </trkpt>
      <trkpt lat="-11.6774640" lon="166.9410110">
        <ele>59.0</ele>
        <time>2020-04-19T14:10:34Z</time>
      </trkpt>
      <trkpt lat="-11.6774260" lon="166.9410430">
        <ele>59.2</ele>
        <time>2020-04-19T14:10:35Z</time>
      </trkpt>
      <trkpt lat="-11.6773930" lon="166.9410860">
        <ele>59.4</ele>
        <time>2020-04-19T14:10:36Z</time>
      </trkpt>
      <trkpt lat="-11.6773680" lon="166.9411400">
        <ele>59.6</ele>
        <time>2020-04-19T14:10:37Z</time>
      </trkpt>
      <trkpt lat="-11.6773560" lon="166.9411830">
        <ele>59.8</ele>
        <time>2020-04-19T14:10:38Z</time>
      </trkpt>
      <trkpt lat="-11.6773500" lon="166.9412260">
        <ele>60.0</ele>
        <time>2020-04-19T14:10:39Z</time>
      </trkpt>
      <trkpt lat="-11.6773500" lon="166.9412680">
        <ele>60.2</ele>
        <time>2020-04-19T14:10:40Z</time>
      </trkpt>
      <trkpt lat="-11.6773560" lon="166.9413220">
        <ele>60.4</ele>
        <time>2020-04-19T14:10:41Z</time>
      </trkpt>
      <trkpt lat="-11.6773700" lon="166.9413650">
        <ele>60.4</ele>
        <time>2020-04-19T14:10:42Z</time>
      </trkpt>
      <trkpt lat="-11.6773930" lon="166.9414080">
        <ele>60.6</ele>
        <time>2020-04-19T14:10:43Z</time>
      </trkpt>
      <trkpt lat="-11.6774170" lon="166.9414400">
        <ele>60.8</ele>
        <time>2020-04-19T14:10:44Z</time>
      </trkpt>
      <trkpt lat="-11.6774490" lon="166.9414830">
        <ele>61.0</ele>
        <time>2020-04-19T14:10:45Z</time>
      </trkpt>
      <trkpt lat="-11.6774850" lon="166.9415150">
        <ele>61.2</ele>
        <time>2020-04-19T14:10:46Z</time>
      </trkpt>
      <trkpt lat="-11.6775280" lon="166.9415370">
        <ele>61.4</ele>
        <time>2020-04-19T14:10:47Z</time>
      </trkpt>
      <trkpt lat="-11.6775760" lon="166.9415470">
        <ele>61.4</ele>
        <time>2020-04-19T14:10:48Z</time>
      </trkpt>
      <trkpt lat="-11.6776250" lon="166.9415580">
        <ele>61.6</ele>
        <time>2020-04-19T14:10:49Z</time>
      </trkpt>
      <trkpt lat="-11.6776770" lon="166.9415580">
        <ele>61.6</ele>
        <time>2020-04-19T14:10:50Z</time>
      </trkpt>
      <trkpt lat="-11.6777270" lon="166.9415580">
        <ele>61.6</ele>
        <time>2020-04-19T14:10:51Z</time>
      </trkpt>
      <trkpt lat="-11.6777730" lon="166.9415580">
        <ele>61.8</ele>
        <time>2020-04-19T14:10:52Z</time>
      </trkpt>
      <trkpt lat="-11.6778200" lon="166.9415470">
        <ele>61.8</ele>
        <time>2020-04-19T14:10:53Z</time>
      </trkpt>
      <trkpt lat="-11.6778670" lon="166.9415470">
        <ele>61.8</ele>
        <time>2020-04-19T14:10:54Z</time>
      </trkpt>
      <trkpt lat="-11.6779130" lon="166.9415470">
        <ele>62.0</ele>
        <time>2020-04-19T14:10:55Z</time>
      </trkpt>
      <trkpt lat="-11.6779570" lon="166.9415470">
        <ele>62.0</ele>
        <time>2020-04-19T14:10:56Z</time>
      </trkpt>
      <trkpt lat="-11.6780040" lon="166.9415470">
        <ele>62.0</ele>
        <time>2020-04-19T14:10:57Z</time>
      </trkpt>
      <trkpt lat="-11.6780480" lon="166.9415470">
        <ele>62.0</ele>
        <time>2020-04-19T14:10:58Z</time>
      </trkpt>
      <trkpt lat="-11.6780930" lon="166.9415470">
        <ele>62.2</ele>
        <time>2020-04-19T14:10:59Z</time>
      </trkpt>
      <trkpt lat="-11.6781380" lon="166.9415470">
        <ele>62.2</ele>
        <time>2020-04-19T14:11:00Z</time>
      </trkpt>
      <trkpt lat="-11.6781800" lon="166.9415470">
        <ele>62.2</ele>
        <time>2020-04-19T14:11:01Z</time>
      </trkpt>
      <trkpt lat="-11.6782210" lon="166.9415580">
        <ele>62.4</ele>
        <time>2020-04-19T14:11:02Z</time>
      </trkpt>
      <trkpt lat="-11.6782620" lon="166.9415800">
        <ele>62.4</ele>
        <time>2020-04-19T14:11:03Z</time>
      </trkpt>
      <trkpt lat="-11.6782980" lon="166.9416120">
        <ele>62.6</ele>
        <time>2020-04-19T14:11:04Z</time>
      </trkpt>
      <trkpt lat="-11.6783300" lon="166.9416220">
        <ele>62.6</ele>
        <time>2020-04-19T14:11:05Z</time>
      </trkpt>
      <trkpt lat="-11.6783580" lon="166.9416550">
        <ele>62.8</ele>
        <time>2020-04-19T14:11:06Z</time>
      </trkpt>
      <trkpt lat="-11.6783850" lon="166.9416870">
        <ele>62.8</ele>
        <time>2020-04-19T14:11:07Z</time>
      </trkpt>
      <trkpt lat="-11.6784100" lon="166.9417300">
        <ele>63.0</ele>
        <time>2020-04-19T14:11:08Z</time>
      </trkpt>
      <trkpt lat="-11.6784310" lon="166.9417620">
        <ele>63.2</ele>
        <time>2020-04-19T14:11:09Z</time>
      </trkpt>
      <trkpt lat="-11.6784480" lon="166.9418050">
        <ele>63.2</ele>
        <time>2020-04-19T14:11:10Z</time>
      </trkpt>
      <trkpt lat="-11.6784600" lon="166.9418370">
        <ele>63.4</ele>
        <time>2020-04-19T14:11:11Z</time>
      </trkpt>
      <trkpt lat="-11.6784640" lon="166.9418800">
        <ele>63.4</ele>
        <time>2020-04-19T14:11:12Z</time>
      </trkpt>
      <trkpt lat="-11.6784590" lon="166.9419340">
        <ele>63.6</ele>
        <time>2020-04-19T14:11:13Z</time>
      </trkpt>
      <trkpt lat="-11.6784450" lon="166.9419770">
        <ele>63.8</ele>
        <time>2020-04-19T14:11:14Z</time>
      </trkpt>
      <trkpt lat="-11.6784270" lon="166.9420090">
        <ele>64.0</ele>
        <time>2020-04-19T14:11:15Z</time>
      </trkpt>
      <trkpt lat="-11.6784000" lon="166.9420410">
        <ele>64.0</ele>
        <time>2020-04-19T14:11:16Z</time>
      </trkpt>
      <trkpt lat="-11.6783690" lon="166.9420620">
        <ele>64.2</ele>
        <time>2020-04-19T14:11:17Z</time>
      </trkpt>
      <trkpt lat="-11.6783370" lon="166.9420950">
        <ele>64.4</ele>
        <time>2020-04-19T14:11:18Z</time>
      </trkpt>
      <trkpt lat="-11.6783020" lon="166.9421270">
        <ele>64.4</ele>
        <time>2020-04-19T14:11:19Z</time>
      </trkpt>
      <trkpt lat="-11.6782660" lon="166.9421370">
        <ele>64.6</ele>
        <time>2020-04-19T14:11:20Z</time>
      </trkpt>
      <trkpt lat="-11.6782280" lon="166.9421590">
        <ele>64.6</ele>
        <time>2020-04-19T14:11:21Z</time>
      </trkpt>
      <trkpt lat="-11.6781890" lon="166.9421700">
        <ele>64.8</ele>
        <time>2020-04-19T14:11:22Z</time>
      </trkpt>
      <trkpt lat="-11.6781500" lon="166.9422020">
        <ele>64.8</ele>
        <time>2020-04-19T14:11:23Z</time>
      </trkpt>
      <trkpt lat="-11.6781100" lon="166.9422230">
        <ele>65.0</ele>
        <time>2020-04-19T14:11:24Z</time>
      </trkpt>
      <trkpt lat="-11.6780680" lon="166.9422340">
        <ele>65.0</ele>
        <time>2020-04-19T14:11:25Z</time>
      </trkpt>
      <trkpt lat="-11.6780270" lon="166.9422450">
        <ele>65.2</ele>
        <time>2020-04-19T14:11:26Z</time>
      </trkpt>
      <trkpt lat="-11.6779840" lon="166.9422660">
        <ele>65.2</ele>
        <time>2020-04-19T14:11:27Z</time>
      </trkpt>
      <trkpt lat="-11.6779410" lon="166.9422770">
        <ele>65.4</ele>
        <time>2020-04-19T14:11:28Z</time>
      </trkpt>
      <trkpt lat="-11.6778980" lon="166.9422980">
        <ele>65.6</ele>
        <time>2020-04-19T14:11:29Z</time>
      </trkpt>
      <trkpt lat="-11.6778530" lon="166.9423090">
        <ele>65.6</ele>
        <time>2020-04-19T14:11:30Z</time>
      </trkpt>
      <trkpt lat="-11.6778070" lon="166.9423090">
        <ele>65.8</ele>
        <time>2020-04-19T14:11:31Z</time>
      </trkpt>
      <trkpt lat="-11.6777630" lon="166.9423310">
        <ele>65.8</ele>
        <time>2020-04-19T14:11:32Z</time>
      </trkpt>
      <trkpt lat="-11.6777160" lon="166.9423410">
        <ele>66.0</ele>
        <time>2020-04-19T14:11:33Z</time>
      </trkpt>
      <trkpt lat="-11.6776690" lon="166.9423520">
        <ele>66.0</ele>
        <time>2020-04-19T14:11:34Z</time>
      </trkpt>
      <trkpt lat="-11.6776220" lon="166.9423520">
        <ele>66.2</ele>
        <time>2020-04-19T14:11:35Z</time>
      </trkpt>
      <trkpt lat="-11.6775740" lon="166.9423740">
        <ele>66.2</ele>
        <time>2020-04-19T14:11:36Z</time>
      </trkpt>
      <trkpt lat="-11.6775240" lon="166.9423740">
        <ele>66.4</ele>
        <time>2020-04-19T14:11:37Z</time>
      </trkpt>
      <trkpt lat="-11.6774760" lon="166.9423520">
        <ele>66.6</ele>
        <time>2020-04-19T14:11:38Z</time>
      </trkpt>
      <trkpt lat="-11.6774260" lon="166.9423410">
        <ele>66.6</ele>
        <time>2020-04-19T14:11:39Z</time>
      </trkpt>
      <trkpt lat="-11.6773760" lon="166.9423310">
        <ele>66.8</ele>
        <time>2020-04-19T14:11:40Z</time>
      </trkpt>
      <trkpt lat="-11.6773310" lon="166.9423090">
        <ele>66.8</ele>
        <time>2020-04-19T14:11:41Z</time>
      </trkpt>
      <trkpt lat="-11.6772840" lon="166.9422770">
        <ele>67.0</ele>
        <time>2020-04-19T14:11:42Z</time>
      </trkpt>
      <trkpt lat="-11.6772380" lon="166.9422450">
        <ele>67.0</ele>
        <time>2020-04-19T14:11:43Z</time>
      </trkpt>
      <trkpt lat="-11.6771910" lon="166.9422230">
        <ele>67.2</ele>
        <time>2020-04-19T14:11:44Z</time>
      </trkpt>
      <trkpt lat="-11.6771420" lon="166.9421910">
        <ele>67.2</ele>
        <time>2020-04-19T14:11:45Z</time>
      </trkpt>
      <trkpt lat="-11.6770690" lon="166.9421590">
        <ele>67.4</ele>
        <time>2020-04-19T14:11:46Z</time>
      </trkpt>
      <trkpt lat="-11.6770450" lon="166.9421370">
        <ele>67.6</ele>
        <time>2020-04-19T14:11:47Z</time>
      </trkpt>
      <trkpt lat="-11.6769900" lon="166.9421590">
        <ele>67.8</ele>
        <time>2020-04-19T14:11:48Z</time>
      </trkpt>
      <trkpt lat="-11.6769410" lon="166.9421700">
        <ele>67.8</ele>
        <time>2020-04-19T14:11:49Z</time>
      </trkpt>
      <trkpt lat="-11.6768980" lon="166.9421910">
        <ele>68.0</ele>
        <time>2020-04-19T14:11:50Z</time>
      </trkpt>
      <trkpt lat="-11.6768590" lon="166.9422340">
        <ele>68.2</ele>
        <time>2020-04-19T14:11:51Z</time>
      </trkpt>
      <trkpt lat="-11.6768270" lon="166.9422660">
        <ele>68.4</ele>
        <time>2020-04-19T14:11:52Z</time>
      </trkpt>
      <trkpt lat="-11.6767960" lon="166.9423310">
        <ele>68.6</ele>
        <time>2020-04-19T14:11:53Z</time>
      </trkpt>
      <trkpt lat="-11.6767890" lon="166.9423740">
        <ele>68.8</ele>
        <time>2020-04-19T14:11:54Z</time>
      </trkpt>
      <trkpt lat="-11.6767960" lon="166.9424160">
        <ele>69.0</ele>
        <time>2020-04-19T14:11:55Z</time>
      </trkpt>
      <trkpt lat="-11.6768120" lon="166.9424590">
        <ele>69.0</ele>
        <time>2020-04-19T14:11:56Z</time>
      </trkpt>
      <trkpt lat="-11.6768330" lon="166.9425240">
        <ele>69.2</ele>
        <time>2020-04-19T14:11:57Z</time>
      </trkpt>
      <trkpt lat="-11.6768560" lon="166.9425670">
        <ele>69.4</ele>
        <time>2020-04-19T14:11:58Z</time>
      </trkpt>
      <trkpt lat="-11.6768760" lon="166.9426310">
        <ele>69.6</ele>
        <time>2020-04-19T14:11:59Z</time>
      </trkpt>
      <trkpt lat="-11.6768870" lon="166.9426740">
        <ele>69.8</ele>
        <time>2020-04-19T14:12:00Z</time>
      </trkpt>
      <trkpt lat="-11.6768840" lon="166.9427380">
        <ele>70.0</ele>
        <time>2020-04-19T14:12:01Z</time>
      </trkpt>
      <trkpt lat="-11.6768710" lon="166.9428030">
        <ele>70.2</ele>
        <time>2020-04-19T14:12:02Z</time>
      </trkpt>
      <trkpt lat="-11.6768480" lon="166.9428460">
        <ele>70.4</ele>
        <time>2020-04-19T14:12:03Z</time>
      </trkpt>
      <trkpt lat="-11.6768170" lon="166.9429100">
        <ele>70.6</ele>
        <time>2020-04-19T14:12:04Z</time>
      </trkpt>
      <trkpt lat="-11.6767800" lon="166.9429310">
        <ele>71.0</ele>
        <time>2020-04-19T14:12:05Z</time>
      </trkpt>
      <trkpt lat="-11.6767370" lon="166.9429850">
        <ele>71.2</ele>
        <time>2020-04-19T14:12:06Z</time>
      </trkpt>
      <trkpt lat="-11.6766880" lon="166.9430170">
        <ele>71.4</ele>
        <time>2020-04-19T14:12:07Z</time>
      </trkpt>
      <trkpt lat="-11.6766350" lon="166.9430280">
        <ele>71.6</ele>
        <time>2020-04-19T14:12:08Z</time>
      </trkpt>
      <trkpt lat="-11.6765790" lon="166.9430280">
        <ele>71.8</ele>
        <time>2020-04-19T14:12:09Z</time>
      </trkpt>
      <trkpt lat="-11.6765210" lon="166.9430280">
        <ele>71.8</ele>
        <time>2020-04-19T14:12:10Z</time>
      </trkpt>
      <trkpt lat="-11.6764630" lon="166.9430280">
        <ele>72.0</ele>
        <time>2020-04-19T14:12:11Z</time>
      </trkpt>
      <trkpt lat="-11.6764040" lon="166.9430170">
        <ele>72.2</ele>
        <time>2020-04-19T14:12:12Z</time>
      </trkpt>
      <trkpt lat="-11.6763440" lon="166.9429960">
        <ele>72.4</ele>
        <time>2020-04-19T14:12:13Z</time>
      </trkpt>
      <trkpt lat="-11.6762830" lon="166.9429960">
        <ele>72.6</ele>
        <time>2020-04-19T14:12:14Z</time>
      </trkpt>
      <trkpt lat="-11.6762200" lon="166.9429850">
        <ele>72.6</ele>
        <time>2020-04-19T14:12:15Z</time>
      </trkpt>
      <trkpt lat="-11.6761590" lon="166.9429640">
        <ele>72.8</ele>
        <time>2020-04-19T14:12:16Z</time>
      </trkpt>
      <trkpt lat="-11.6760960" lon="166.9429640">
        <ele>73.0</ele>
        <time>2020-04-19T14:12:17Z</time>
      </trkpt>
      <trkpt lat="-11.6760310" lon="166.9429640">
        <ele>73.2</ele>
        <time>2020-04-19T14:12:18Z</time>
      </trkpt>
      <trkpt lat="-11.6759670" lon="166.9429640">
        <ele>73.4</ele>
        <time>2020-04-19T14:12:19Z</time>
      </trkpt>
      <trkpt lat="-11.6759010" lon="166.9429640">
        <ele>73.6</ele>
        <time>2020-04-19T14:12:20Z</time>
      </trkpt>
      <trkpt lat="-11.6758380" lon="166.9429640">
        <ele>73.8</ele>
        <time>2020-04-19T14:12:21Z</time>
      </trkpt>
      <trkpt lat="-11.6757710" lon="166.9429850">
        <ele>74.0</ele>
        <time>2020-04-19T14:12:22Z</time>
      </trkpt>
      <trkpt lat="-11.6757030" lon="166.9429850">
        <ele>74.0</ele>
        <time>2020-04-19T14:12:23Z</time>
      </trkpt>
      <trkpt lat="-11.6756370" lon="166.9429850">
        <ele>74.2</ele>
        <time>2020-04-19T14:12:24Z</time>
      </trkpt>
      <trkpt lat="-11.6755710" lon="166.9429960">
        <ele>74.4</ele>
        <time>2020-04-19T14:12:25Z</time>
      </trkpt>
      <trkpt lat="-11.6755070" lon="166.9430170">
        <ele>74.6</ele>
        <time>2020-04-19T14:12:26Z</time>
      </trkpt>
      <trkpt lat="-11.6754450" lon="166.9430170">
        <ele>74.8</ele>
        <time>2020-04-19T14:12:27Z</time>
      </trkpt>
      <trkpt lat="-11.6753820" lon="166.9430280">
        <ele>75.0</ele>
        <time>2020-04-19T14:12:28Z</time>
      </trkpt>
      <trkpt lat="-11.6753230" lon="166.9430390">
        <ele>75.2</ele>
        <time>2020-04-19T14:12:29Z</time>
      </trkpt>
      <trkpt lat="-11.6752620" lon="166.9430600">
        <ele>75.4</ele>
        <time>2020-04-19T14:12:30Z</time>
      </trkpt>
      <trkpt lat="-11.6752040" lon="166.9430710">
        <ele>75.8</ele>
        <time>2020-04-19T14:12:31Z</time>
      </trkpt>
      <trkpt lat="-11.6751490" lon="166.9431030">
        <ele>76.0</ele>
        <time>2020-04-19T14:12:32Z</time>
      </trkpt>
      <trkpt lat="-11.6750950" lon="166.9431250">
        <ele>76.4</ele>
        <time>2020-04-19T14:12:33Z</time>
      </trkpt>
      <trkpt lat="-11.6750460" lon="166.9431460">
        <ele>76.6</ele>
        <time>2020-04-19T14:12:34Z</time>
      </trkpt>
      <trkpt lat="-11.6749990" lon="166.9431780">
        <ele>76.8</ele>
        <time>2020-04-19T14:12:35Z</time>
      </trkpt>
      <trkpt lat="-11.6749500" lon="166.9432100">
        <ele>77.2</ele>
        <time>2020-04-19T14:12:36Z</time>
      </trkpt>
      <trkpt lat="-11.6749050" lon="166.9432430">
        <ele>77.4</ele>
        <time>2020-04-19T14:12:37Z</time>
      </trkpt>
      <trkpt lat="-11.6748580" lon="166.9432750">
        <ele>77.8</ele>
        <time>2020-04-19T14:12:38Z</time>
      </trkpt>
      <trkpt lat="-11.6748060" lon="166.9433070">
        <ele>78.0</ele>
        <time>2020-04-19T14:12:39Z</time>
      </trkpt>
      <trkpt lat="-11.6747640" lon="166.9433180">
        <ele>78.2</ele>
        <time>2020-04-19T14:12:40Z</time>
      </trkpt>
      <trkpt lat="-11.6747170" lon="166.9433280">
        <ele>78.6</ele>
        <time>2020-04-19T14:12:41Z</time>
      </trkpt>
      <trkpt lat="-11.6746690" lon="166.9433610">
        <ele>78.8</ele>
        <time>2020-04-19T14:12:42Z</time>
      </trkpt>
      <trkpt lat="-11.6746210" lon="166.9433820">
        <ele>79.0</ele>
        <time>2020-04-19T14:12:43Z</time>
      </trkpt>
      <trkpt lat="-11.6745740" lon="166.9433930">
        <ele>79.4</ele>
        <time>2020-04-19T14:12:44Z</time>
      </trkpt>
      <trkpt lat="-11.6745210" lon="166.9434140">
        <ele>79.6</ele>
        <time>2020-04-19T14:12:45Z</time>
      </trkpt>
      <trkpt lat="-11.6744730" lon="166.9434140">
        <ele>79.8</ele>
        <time>2020-04-19T14:12:46Z</time>
      </trkpt>
      <trkpt lat="-11.6744220" lon="166.9434250">
        <ele>80.2</ele>
        <time>2020-04-19T14:12:47Z</time>
      </trkpt>
      <trkpt lat="-11.6743750" lon="166.9434360">
        <ele>80.4</ele>
        <time>2020-04-19T14:12:48Z</time>
      </trkpt>
      <trkpt lat="-11.6743270" lon="166.9434570">
        <ele>80.8</ele>
        <time>2020-04-19T14:12:49Z</time>
      </trkpt>
      <trkpt lat="-11.6742790" lon="166.9434680">
        <ele>81.0</ele>
        <time>2020-04-19T14:12:50Z</time>
      </trkpt>
      <trkpt lat="-11.6742320" lon="166.9434890">
        <ele>81.2</ele>
        <time>2020-04-19T14:12:51Z</time>
      </trkpt>
      <trkpt lat="-11.6741830" lon="166.9435000">
        <ele>81.6</ele>
        <time>2020-04-19T14:12:52Z</time>
      </trkpt>
      <trkpt lat="-11.6741340" lon="166.9435000">
        <ele>81.8</ele>
        <time>2020-04-19T14:12:53Z</time>
      </trkpt>
      <trkpt lat="-11.6740830" lon="166.9435110">
        <ele>82.0</ele>
        <time>2020-04-19T14:12:54Z</time>
      </trkpt>
      <trkpt lat="-11.6740330" lon="166.9435110">
        <ele>82.2</ele>
        <time>2020-04-19T14:12:55Z</time>
      </trkpt>
      <trkpt lat="-11.6739810" lon="166.9435110">
        <ele>82.6</ele>
        <time>2020-04-19T14:12:56Z</time>
      </trkpt>
      <trkpt lat="-11.6739280" lon="166.9435110">
        <ele>82.8</ele>
        <time>2020-04-19T14:12:57Z</time>
      </trkpt>
      <trkpt lat="-11.6738760" lon="166.9435110">
        <ele>83.0</ele>
        <time>2020-04-19T14:12:58Z</time>
      </trkpt>
      <trkpt lat="-11.6738250" lon="166.9435110">
        <ele>83.2</ele>
        <time>2020-04-19T14:12:59Z</time>
      </trkpt>
      <trkpt lat="-11.6737730" lon="166.9435000">
        <ele>83.4</ele>
        <time>2020-04-19T14:13:00Z</time>
      </trkpt>
      <trkpt lat="-11.6737190" lon="166.9434890">
        <ele>83.6</ele>
        <time>2020-04-19T14:13:01Z</time>
      </trkpt>
      <trkpt lat="-11.6736640" lon="166.9434890">
        <ele>83.8</ele>
        <time>2020-04-19T14:13:02Z</time>
      </trkpt>
      <trkpt lat="-11.6736120" lon="166.9434680">
        <ele>84.0</ele>
        <time>2020-04-19T14:13:03Z</time>
      </trkpt>
      <trkpt lat="-11.6735570" lon="166.9434570">
        <ele>84.2</ele>
        <time>2020-04-19T14:13:04Z</time>
      </trkpt>
      <trkpt lat="-11.6735010" lon="166.9434360">
        <ele>84.4</ele>
        <time>2020-04-19T14:13:05Z</time>
      </trkpt>
      <trkpt lat="-11.6734480" lon="166.9434250">
        <ele>84.6</ele>
        <time>2020-04-19T14:13:06Z</time>
      </trkpt>
      <trkpt lat="-11.6733950" lon="166.9434140">
        <ele>84.8</ele>
        <time>2020-04-19T14:13:07Z</time>
      </trkpt>
      <trkpt lat="-11.6733400" lon="166.9433930">
        <ele>85.0</ele>
        <time>2020-04-19T14:13:08Z</time>
      </trkpt>
      <trkpt lat="-11.6732850" lon="166.9433610">
        <ele>85.2</ele>
        <time>2020-04-19T14:13:09Z</time>
      </trkpt>
      <trkpt lat="-11.6732300" lon="166.9433500">
        <ele>85.4</ele>
        <time>2020-04-19T14:13:10Z</time>
      </trkpt>
      <trkpt lat="-11.6731750" lon="166.9433180">
        <ele>85.6</ele>
        <time>2020-04-19T14:13:11Z</time>
      </trkpt>
      <trkpt lat="-11.6731180" lon="166.9433070">
        <ele>85.8</ele>
        <time>2020-04-19T14:13:12Z</time>
      </trkpt>
      <trkpt lat="-11.6730630" lon="166.9432750">
        <ele>86.0</ele>
        <time>2020-04-19T14:13:13Z</time>
      </trkpt>
      <trkpt lat="-11.6730070" lon="166.9432430">
        <ele>86.2</ele>
        <time>2020-04-19T14:13:14Z</time>
      </trkpt>
      <trkpt lat="-11.6729510" lon="166.9432210">
        <ele>86.4</ele>
        <time>2020-04-19T14:13:15Z</time>
      </trkpt>
      <trkpt lat="-11.6728930" lon="166.9432000">
        <ele>86.6</ele>
        <time>2020-04-19T14:13:16Z</time>
      </trkpt>
      <trkpt lat="-11.6728370" lon="166.9431670">
        <ele>86.8</ele>
        <time>2020-04-19T14:13:17Z</time>
      </trkpt>
      <trkpt lat="-11.6727810" lon="166.9431350">
        <ele>87.0</ele>
        <time>2020-04-19T14:13:18Z</time>
      </trkpt>
      <trkpt lat="-11.6727240" lon="166.9431250">
        <ele>87.2</ele>
        <time>2020-04-19T14:13:19Z</time>
      </trkpt>
      <trkpt lat="-11.6726670" lon="166.9430920">
        <ele>87.4</ele>
        <time>2020-04-19T14:13:20Z</time>
      </trkpt>
      <trkpt lat="-11.6726100" lon="166.9430600">
        <ele>87.6</ele>
        <time>2020-04-19T14:13:21Z</time>
      </trkpt>
      <trkpt lat="-11.6725530" lon="166.9430280">
        <ele>87.6</ele>
        <time>2020-04-19T14:13:22Z</time>
      </trkpt>
      <trkpt lat="-11.6724980" lon="166.9429960">
        <ele>87.8</ele>
        <time>2020-04-19T14:13:23Z</time>
      </trkpt>
      <trkpt lat="-11.6724450" lon="166.9429850">
        <ele>88.0</ele>
        <time>2020-04-19T14:13:24Z</time>
      </trkpt>
      <trkpt lat="-11.6723920" lon="166.9429530">
        <ele>88.2</ele>
        <time>2020-04-19T14:13:25Z</time>
      </trkpt>
      <trkpt lat="-11.6723410" lon="166.9429310">
        <ele>88.4</ele>
        <time>2020-04-19T14:13:26Z</time>
      </trkpt>
      <trkpt lat="-11.6722870" lon="166.9429100">
        <ele>88.6</ele>
        <time>2020-04-19T14:13:27Z</time>
      </trkpt>
      <trkpt lat="-11.6722360" lon="166.9428780">
        <ele>88.8</ele>
        <time>2020-04-19T14:13:28Z</time>
      </trkpt>
      <trkpt lat="-11.6721840" lon="166.9428560">
        <ele>88.8</ele>
        <time>2020-04-19T14:13:29Z</time>
      </trkpt>
      <trkpt lat="-11.6721340" lon="166.9428240">
        <ele>89.0</ele>
        <time>2020-04-19T14:13:30Z</time>
      </trkpt>
      <trkpt lat="-11.6720820" lon="166.9428030">
        <ele>89.2</ele>
        <time>2020-04-19T14:13:31Z</time>
      </trkpt>
      <trkpt lat="-11.6720290" lon="166.9427810">
        <ele>89.4</ele>
        <time>2020-04-19T14:13:32Z</time>
      </trkpt>
      <trkpt lat="-11.6719790" lon="166.9427490">
        <ele>89.6</ele>
        <time>2020-04-19T14:13:33Z</time>
      </trkpt>
      <trkpt lat="-11.6719260" lon="166.9427380">
        <ele>89.8</ele>
        <time>2020-04-19T14:13:34Z</time>
      </trkpt>
      <trkpt lat="-11.6718740" lon="166.9427060">
        <ele>89.8</ele>
        <time>2020-04-19T14:13:35Z</time>
      </trkpt>
      <trkpt lat="-11.6718200" lon="166.9426950">
        <ele>90.0</ele>
        <time>2020-04-19T14:13:36Z</time>
      </trkpt>
      <trkpt lat="-11.6717680" lon="166.9426740">
        <ele>90.2</ele>
        <time>2020-04-19T14:13:37Z</time>
      </trkpt>
      <trkpt lat="-11.6717130" lon="166.9426420">
        <ele>90.4</ele>
        <time>2020-04-19T14:13:38Z</time>
      </trkpt>
      <trkpt lat="-11.6716610" lon="166.9426310">
        <ele>90.6</ele>
        <time>2020-04-19T14:13:39Z</time>
      </trkpt>
      <trkpt lat="-11.6716060" lon="166.9426200">
        <ele>90.8</ele>
        <time>2020-04-19T14:13:40Z</time>
      </trkpt>
      <trkpt lat="-11.6715510" lon="166.9425880">
        <ele>91.0</ele>
        <time>2020-04-19T14:13:41Z</time>
      </trkpt>
      <trkpt lat="-11.6714970" lon="166.9425670">
        <ele>91.0</ele>
        <time>2020-04-19T14:13:42Z</time>
      </trkpt>
      <trkpt lat="-11.6714450" lon="166.9425560">
        <ele>91.2</ele>
        <time>2020-04-19T14:13:43Z</time>
      </trkpt>
      <trkpt lat="-11.6713910" lon="166.9425240">
        <ele>91.4</ele>
        <time>2020-04-19T14:13:44Z</time>
      </trkpt>
      <trkpt lat="-11.6713330" lon="166.9425130">
        <ele>91.6</ele>
        <time>2020-04-19T14:13:45Z</time>
      </trkpt>
      <trkpt lat="-11.6712800" lon="166.9424920">
        <ele>91.8</ele>
        <time>2020-04-19T14:13:46Z</time>
      </trkpt>
      <trkpt lat="-11.6712250" lon="166.9424810">
        <ele>92.0</ele>
        <time>2020-04-19T14:13:47Z</time>
      </trkpt>
      <trkpt lat="-11.6711670" lon="166.9424590">
        <ele>92.2</ele>
        <time>2020-04-19T14:13:48Z</time>
      </trkpt>
      <trkpt lat="-11.6711120" lon="166.9424490">
        <ele>92.4</ele>
        <time>2020-04-19T14:13:49Z</time>
      </trkpt>
      <trkpt lat="-11.6710560" lon="166.9424490">
        <ele>92.6</ele>
        <time>2020-04-19T14:13:50Z</time>
      </trkpt>
      <trkpt lat="-11.6709980" lon="166.9424380">
        <ele>92.8</ele>
        <time>2020-04-19T14:13:51Z</time>
      </trkpt>
      <trkpt lat="-11.6709430" lon="166.9424160">
        <ele>93.0</ele>
        <time>2020-04-19T14:13:52Z</time>
      </trkpt>
      <trkpt lat="-11.6708870" lon="166.9424160">
        <ele>93.2</ele>
        <time>2020-04-19T14:13:53Z</time>
      </trkpt>
      <trkpt lat="-11.6708290" lon="166.9424160">
        <ele>93.4</ele>
        <time>2020-04-19T14:13:54Z</time>
      </trkpt>
      <trkpt lat="-11.6707740" lon="166.9424060">
        <ele>93.6</ele>
        <time>2020-04-19T14:13:55Z</time>
      </trkpt>
      <trkpt lat="-11.6707180" lon="166.9424060">
        <ele>93.8</ele>
        <time>2020-04-19T14:13:56Z</time>
      </trkpt>
      <trkpt lat="-11.6706600" lon="166.9424060">
        <ele>94.0</ele>
        <time>2020-04-19T14:13:57Z</time>
      </trkpt>
      <trkpt lat="-11.6706070" lon="166.9424060">
        <ele>94.2</ele>
        <time>2020-04-19T14:13:58Z</time>
      </trkpt>
      <trkpt lat="-11.6705500" lon="166.9423840">
        <ele>94.4</ele>
        <time>2020-04-19T14:13:59Z</time>
      </trkpt>
      <trkpt lat="-11.6704950" lon="166.9423840">
        <ele>94.6</ele>
        <time>2020-04-19T14:14:00Z</time>
      </trkpt>
      <trkpt lat="-11.6704400" lon="166.9423840">
        <ele>94.8</ele>
        <time>2020-04-19T14:14:01Z</time>
      </trkpt>
      <trkpt lat="-11.6703870" lon="166.9424060">
        <ele>95.0</ele>
        <time>2020-04-19T14:14:02Z</time>
      </trkpt>
      <trkpt lat="-11.6703300" lon="166.9424060">
        <ele>95.2</ele>
        <time>2020-04-19T14:14:03Z</time>
      </trkpt>
      <trkpt lat="-11.6702750" lon="166.9424060">
        <ele>95.4</ele>
        <time>2020-04-19T14:14:04Z</time>
      </trkpt>
      <trkpt lat="-11.6702230" lon="166.9424060">
        <ele>95.6</ele>
        <time>2020-04-19T14:14:05Z</time>
      </trkpt>
      <trkpt lat="-11.6701680" lon="166.9424060">
        <ele>95.8</ele>
        <time>2020-04-19T14:14:06Z</time>
      </trkpt>
      <trkpt lat="-11.6701140" lon="166.9424060">
        <ele>96.0</ele>
        <time>2020-04-19T14:14:07Z</time>
      </trkpt>
      <trkpt lat="-11.6700590" lon="166.9424160">
        <ele>96.2</ele>
        <time>2020-04-19T14:14:08Z</time>
      </trkpt>
      <trkpt lat="-11.6700060" lon="166.9424160">
        <ele>96.4</ele>
        <time>2020-04-19T14:14:09Z</time>
      </trkpt>
      <trkpt lat="-11.6699520" lon="166.9424160">
        <ele>96.6</ele>
        <time>2020-04-19T14:14:10Z</time>
      </trkpt>
      <trkpt lat="-11.6698980" lon="166.9424380">
        <ele>96.8</ele>
        <time>2020-04-19T14:14:11Z</time>
      </trkpt>
      <trkpt lat="-11.6698430" lon="166.9424380">
        <ele>97.0</ele>
        <time>2020-04-19T14:14:12Z</time>
      </trkpt>
      <trkpt lat="-11.6697900" lon="166.9424490">
        <ele>97.0</ele>
        <time>2020-04-19T14:14:13Z</time>
      </trkpt>
      <trkpt lat="-11.6697360" lon="166.9424490">
        <ele>97.2</ele>
        <time>2020-04-19T14:14:14Z</time>
      </trkpt>
      <trkpt lat="-11.6696840" lon="166.9424590">
        <ele>97.4</ele>
        <time>2020-04-19T14:14:15Z</time>
      </trkpt>
      <trkpt lat="-11.6696290" lon="166.9424590">
        <ele>97.6</ele>
        <time>2020-04-19T14:14:16Z</time>
      </trkpt>
      <trkpt lat="-11.6695770" lon="166.9424810">
        <ele>97.8</ele>
        <time>2020-04-19T14:14:17Z</time>
      </trkpt>
      <trkpt lat="-11.6695230" lon="166.9424810">
        <ele>98.0</ele>
        <time>2020-04-19T14:14:18Z</time>
      </trkpt>
      <trkpt lat="-11.6694680" lon="166.9424920">
        <ele>98.2</ele>
        <time>2020-04-19T14:14:19Z</time>
      </trkpt>
      <trkpt lat="-11.6694160" lon="166.9425130">
        <ele>98.4</ele>
        <time>2020-04-19T14:14:20Z</time>
      </trkpt>
      <trkpt lat="-11.6693620" lon="166.9425130">
        <ele>98.6</ele>
        <time>2020-04-19T14:14:21Z</time>
      </trkpt>
      <trkpt lat="-11.6693080" lon="166.9425240">
        <ele>98.8</ele>
        <time>2020-04-19T14:14:22Z</time>
      </trkpt>
      <trkpt lat="-11.6692550" lon="166.9425340">
        <ele>98.8</ele>
        <time>2020-04-19T14:14:23Z</time>
      </trkpt>
      <trkpt lat="-11.6692010" lon="166.9425340">
        <ele>99.0</ele>
        <time>2020-04-19T14:14:24Z</time>
      </trkpt>
      <trkpt lat="-11.6691470" lon="166.9425560">
        <ele>99.2</ele>
        <time>2020-04-19T14:14:25Z</time>
      </trkpt>
      <trkpt lat="-11.6690910" lon="166.9425670">
        <ele>99.4</ele>
        <time>2020-04-19T14:14:26Z</time>
      </trkpt>
      <trkpt lat="-11.6690360" lon="166.9425880">
        <ele>99.4</ele>
        <time>2020-04-19T14:14:27Z</time>
      </trkpt>
      <trkpt lat="-11.6689810" lon="166.9425880">
        <ele>99.6</ele>
        <time>2020-04-19T14:14:28Z</time>
      </trkpt>
      <trkpt lat="-11.6689250" lon="166.9425990">
        <ele>99.8</ele>
        <time>2020-04-19T14:14:29Z</time>
      </trkpt>
      <trkpt lat="-11.6688690" lon="166.9426200">
        <ele>99.8</ele>
        <time>2020-04-19T14:14:30Z</time>
      </trkpt>
      <trkpt lat="-11.6688140" lon="166.9426310">
        <ele>100.0</ele>
        <time>2020-04-19T14:14:31Z</time>
      </trkpt>
      <trkpt lat="-11.6687550" lon="166.9426310">
        <ele>100.0</ele>
        <time>2020-04-19T14:14:32Z</time>
      </trkpt>
      <trkpt lat="-11.6686960" lon="166.9426420">
        <ele>100.0</ele>
        <time>2020-04-19T14:14:33Z</time>
      </trkpt>
      <trkpt lat="-11.6686380" lon="166.9426630">
        <ele>100.2</ele>
        <time>2020-04-19T14:14:34Z</time>
      </trkpt>
      <trkpt lat="-11.6685760" lon="166.9426740">
        <ele>100.2</ele>
        <time>2020-04-19T14:14:35Z</time>
      </trkpt>
      <trkpt lat="-11.6685140" lon="166.9426950">
        <ele>100.2</ele>
        <time>2020-04-19T14:14:36Z</time>
      </trkpt>
      <trkpt lat="-11.6684500" lon="166.9427060">
        <ele>100.0</ele>
        <time>2020-04-19T14:14:37Z</time>
      </trkpt>
      <trkpt lat="-11.6683870" lon="166.9427280">
        <ele>100.0</ele>
        <time>2020-04-19T14:14:38Z</time>
      </trkpt>
      <trkpt lat="-11.6683190" lon="166.9427490">
        <ele>99.8</ele>
        <time>2020-04-19T14:14:39Z</time>
      </trkpt>
      <trkpt lat="-11.6682500" lon="166.9427810">
        <ele>99.6</ele>
        <time>2020-04-19T14:14:40Z</time>
      </trkpt>
      <trkpt lat="-11.6681810" lon="166.9428130">
        <ele>99.4</ele>
        <time>2020-04-19T14:14:41Z</time>
      </trkpt>
      <trkpt lat="-11.6681110" lon="166.9428460">
        <ele>99.0</ele>
        <time>2020-04-19T14:14:42Z</time>
      </trkpt>
      <trkpt lat="-11.6680400" lon="166.9428880">
        <ele>98.8</ele>
        <time>2020-04-19T14:14:43Z</time>
      </trkpt>
      <trkpt lat="-11.6679710" lon="166.9429310">
        <ele>98.6</ele>
        <time>2020-04-19T14:14:44Z</time>
      </trkpt>
      <trkpt lat="-11.6679020" lon="166.9429960">
        <ele>98.4</ele>
        <time>2020-04-19T14:14:45Z</time>
      </trkpt>
      <trkpt lat="-11.6678330" lon="166.9430390">
        <ele>98.2</ele>
        <time>2020-04-19T14:14:46Z</time>
      </trkpt>
      <trkpt lat="-11.6677670" lon="166.9431030">
        <ele>98.2</ele>
        <time>2020-04-19T14:14:47Z</time>
      </trkpt>
      <trkpt lat="-11.6677020" lon="166.9431670">
        <ele>98.2</ele>
        <time>2020-04-19T14:14:48Z</time>
      </trkpt>
      <trkpt lat="-11.6676440" lon="166.9432210">
        <ele>98.0</ele>
        <time>2020-04-19T14:14:49Z</time>
      </trkpt>
      <trkpt lat="-11.6675890" lon="166.9433070">
        <ele>98.0</ele>
        <time>2020-04-19T14:14:50Z</time>
      </trkpt>
      <trkpt lat="-11.6675350" lon="166.9433820">
        <ele>98.0</ele>
        <time>2020-04-19T14:14:51Z</time>
      </trkpt>
      <trkpt lat="-11.6674860" lon="166.9434360">
        <ele>98.0</ele>
        <time>2020-04-19T14:14:52Z</time>
      </trkpt>
      <trkpt lat="-11.6674360" lon="166.9435110">
        <ele>98.2</ele>
        <time>2020-04-19T14:14:53Z</time>
      </trkpt>
      <trkpt lat="-11.6673880" lon="166.9435970">
        <ele>98.2</ele>
        <time>2020-04-19T14:14:54Z</time>
      </trkpt>
      <trkpt lat="-11.6673400" lon="166.9436720">
        <ele>98.2</ele>
        <time>2020-04-19T14:14:55Z</time>
      </trkpt>
      <trkpt lat="-11.6672930" lon="166.9437250">
        <ele>98.2</ele>
        <time>2020-04-19T14:14:56Z</time>
      </trkpt>
      <trkpt lat="-11.6672460" lon="166.9438110">
        <ele>98.2</ele>
        <time>2020-04-19T14:14:57Z</time>
      </trkpt>
      <trkpt lat="-11.6672000" lon="166.9438860">
        <ele>98.2</ele>
        <time>2020-04-19T14:14:58Z</time>
      </trkpt>
      <trkpt lat="-11.6671530" lon="166.9439610">
        <ele>98.2</ele>
        <time>2020-04-19T14:14:59Z</time>
      </trkpt>
      <trkpt lat="-11.6671040" lon="166.9440150">
        <ele>98.2</ele>
        <time>2020-04-19T14:15:00Z</time>
      </trkpt>
      <trkpt lat="-11.6670540" lon="166.9441010">
        <ele>98.2</ele>
        <time>2020-04-19T14:15:01Z</time>
      </trkpt>
      <trkpt lat="-11.6670020" lon="166.9441760">
        <ele>98.2</ele>
        <time>2020-04-19T14:15:02Z</time>
      </trkpt>
      <trkpt lat="-11.6669480" lon="166.9442300">
        <ele>98.2</ele>
        <time>2020-04-19T14:15:03Z</time>
      </trkpt>
      <trkpt lat="-11.6668890" lon="166.9442940">
        <ele>98.2</ele>
        <time>2020-04-19T14:15:04Z</time>
      </trkpt>
      <trkpt lat="-11.6668260" lon="166.9443690">
        <ele>98.0</ele>
        <time>2020-04-19T14:15:05Z</time>
      </trkpt>
      <trkpt lat="-11.6667600" lon="166.9444120">
        <ele>98.0</ele>
        <time>2020-04-19T14:15:06Z</time>
      </trkpt>
      <trkpt lat="-11.6666880" lon="166.9444760">
        <ele>97.8</ele>
        <time>2020-04-19T14:15:07Z</time>
      </trkpt>
      <trkpt lat="-11.6666100" lon="166.9445190">
        <ele>97.6</ele>
        <time>2020-04-19T14:15:08Z</time>
      </trkpt>
      <trkpt lat="-11.6665260" lon="166.9445510">
        <ele>97.4</ele>
        <time>2020-04-19T14:15:09Z</time>
      </trkpt>
      <trkpt lat="-11.6664400" lon="166.9445840">
        <ele>97.2</ele>
        <time>2020-04-19T14:15:10Z</time>
      </trkpt>
      <trkpt lat="-11.6663470" lon="166.9446160">
        <ele>97.0</ele>
        <time>2020-04-19T14:15:11Z</time>
      </trkpt>
      <trkpt lat="-11.6662560" lon="166.9446480">
        <ele>96.8</ele>
        <time>2020-04-19T14:15:12Z</time>
      </trkpt>
      <trkpt lat="-11.6661610" lon="166.9446590">
        <ele>96.6</ele>
        <time>2020-04-19T14:15:13Z</time>
      </trkpt>
      <trkpt lat="-11.6660630" lon="166.9446910">
        <ele>96.2</ele>
        <time>2020-04-19T14:15:14Z</time>
      </trkpt>
      <trkpt lat="-11.6659650" lon="166.9447230">
        <ele>95.8</ele>
        <time>2020-04-19T14:15:15Z</time>
      </trkpt>
      <trkpt lat="-11.6658710" lon="166.9447660">
        <ele>95.6</ele>
        <time>2020-04-19T14:15:16Z</time>
      </trkpt>
      <trkpt lat="-11.6657800" lon="166.9448090">
        <ele>95.2</ele>
        <time>2020-04-19T14:15:17Z</time>
      </trkpt>
      <trkpt lat="-11.6656900" lon="166.9448730">
        <ele>94.8</ele>
        <time>2020-04-19T14:15:18Z</time>
      </trkpt>
      <trkpt lat="-11.6656070" lon="166.9449380">
        <ele>94.6</ele>
        <time>2020-04-19T14:15:19Z</time>
      </trkpt>
      <trkpt lat="-11.6655250" lon="166.9450130">
        <ele>94.2</ele>
        <time>2020-04-19T14:15:20Z</time>
      </trkpt>
      <trkpt lat="-11.6654470" lon="166.9450880">
        <ele>93.8</ele>
        <time>2020-04-19T14:15:21Z</time>
      </trkpt>
      <trkpt lat="-11.6653710" lon="166.9451630">
        <ele>93.6</ele>
        <time>2020-04-19T14:15:22Z</time>
      </trkpt>
      <trkpt lat="-11.6652940" lon="166.9452380">
        <ele>93.2</ele>
        <time>2020-04-19T14:15:23Z</time>
      </trkpt>
      <trkpt lat="-11.6652180" lon="166.9453350">
        <ele>92.8</ele>
        <time>2020-04-19T14:15:24Z</time>
      </trkpt>
      <trkpt lat="-11.6651430" lon="166.9454210">
        <ele>92.4</ele>
        <time>2020-04-19T14:15:25Z</time>
      </trkpt>
      <trkpt lat="-11.6650720" lon="166.9454960">
        <ele>92.2</ele>
        <time>2020-04-19T14:15:26Z</time>
      </trkpt>
      <trkpt lat="-11.6649980" lon="166.9455920">
        <ele>91.8</ele>
        <time>2020-04-19T14:15:27Z</time>
      </trkpt>
      <trkpt lat="-11.6649260" lon="166.9456780">
        <ele>91.4</ele>
        <time>2020-04-19T14:15:28Z</time>
      </trkpt>
      <trkpt lat="-11.6648590" lon="166.9457750">
        <ele>91.0</ele>
        <time>2020-04-19T14:15:29Z</time>
      </trkpt>
      <trkpt lat="-11.6647890" lon="166.9458710">
        <ele>90.6</ele>
        <time>2020-04-19T14:15:30Z</time>
      </trkpt>
      <trkpt lat="-11.6647220" lon="166.9459680">
        <ele>90.4</ele>
        <time>2020-04-19T14:15:31Z</time>
      </trkpt>
      <trkpt lat="-11.6646560" lon="166.9460640">
        <ele>90.0</ele>
        <time>2020-04-19T14:15:32Z</time>
      </trkpt>
      <trkpt lat="-11.6645940" lon="166.9461720">
        <ele>89.6</ele>
        <time>2020-04-19T14:15:33Z</time>
      </trkpt>
      <trkpt lat="-11.6645330" lon="166.9462570">
        <ele>89.2</ele>
        <time>2020-04-19T14:15:34Z</time>
      </trkpt>
      <trkpt lat="-11.6644750" lon="166.9463650">
        <ele>88.8</ele>
        <time>2020-04-19T14:15:35Z</time>
      </trkpt>
      <trkpt lat="-11.6644270" lon="166.9464930">
        <ele>88.4</ele>
        <time>2020-04-19T14:15:36Z</time>
      </trkpt>
      <trkpt lat="-11.6643810" lon="166.9466010">
        <ele>88.2</ele>
        <time>2020-04-19T14:15:37Z</time>
      </trkpt>
      <trkpt lat="-11.6643450" lon="166.9467190">
        <ele>87.8</ele>
        <time>2020-04-19T14:15:38Z</time>
      </trkpt>
      <trkpt lat="-11.6643150" lon="166.9468470">
        <ele>87.6</ele>
        <time>2020-04-19T14:15:39Z</time>
      </trkpt>
      <trkpt lat="-11.6642950" lon="166.9469650">
        <ele>87.2</ele>
        <time>2020-04-19T14:15:40Z</time>
      </trkpt>
      <trkpt lat="-11.6642850" lon="166.9470830">
        <ele>87.0</ele>
        <time>2020-04-19T14:15:41Z</time>
      </trkpt>
      <trkpt lat="-11.6642810" lon="166.9472120">
        <ele>86.6</ele>
        <time>2020-04-19T14:15:42Z</time>
      </trkpt>
      <trkpt lat="-11.6642850" lon="166.9473300">
        <ele>86.4</ele>
        <time>2020-04-19T14:15:43Z</time>
      </trkpt>
      <trkpt lat="-11.6642940" lon="166.9474480">
        <ele>86.0</ele>
        <time>2020-04-19T14:15:44Z</time>
      </trkpt>
      <trkpt lat="-11.6643140" lon="166.9475770">
        <ele>85.6</ele>
        <time>2020-04-19T14:15:45Z</time>
      </trkpt>
      <trkpt lat="-11.6643520" lon="166.9476950">
        <ele>85.2</ele>
        <time>2020-04-19T14:15:46Z</time>
      </trkpt>
      <trkpt lat="-11.6644040" lon="166.9478240">
        <ele>84.8</ele>
        <time>2020-04-19T14:15:47Z</time>
      </trkpt>
      <trkpt lat="-11.6644660" lon="166.9479310">
        <ele>84.2</ele>
        <time>2020-04-19T14:15:48Z</time>
      </trkpt>
      <trkpt lat="-11.6645330" lon="166.9480280">
        <ele>83.8</ele>
        <time>2020-04-19T14:15:49Z</time>
      </trkpt>
      <trkpt lat="-11.6645980" lon="166.9481560">
        <ele>83.4</ele>
        <time>2020-04-19T14:15:50Z</time>
      </trkpt>
      <trkpt lat="-11.6646630" lon="166.9482740">
        <ele>83.0</ele>
        <time>2020-04-19T14:15:51Z</time>
      </trkpt>
      <trkpt lat="-11.6647120" lon="166.9484030">
        <ele>82.6</ele>
        <time>2020-04-19T14:15:52Z</time>
      </trkpt>
      <trkpt lat="-11.6647450" lon="166.9485320">
        <ele>82.2</ele>
        <time>2020-04-19T14:15:53Z</time>
      </trkpt>
      <trkpt lat="-11.6647580" lon="166.9486610">
        <ele>81.8</ele>
        <time>2020-04-19T14:15:54Z</time>
      </trkpt>
      <trkpt lat="-11.6647570" lon="166.9488000">
        <ele>81.4</ele>
        <time>2020-04-19T14:15:55Z</time>
      </trkpt>
      <trkpt lat="-11.6647500" lon="166.9489290">
        <ele>81.2</ele>
        <time>2020-04-19T14:15:56Z</time>
      </trkpt>
      <trkpt lat="-11.6647370" lon="166.9490580">
        <ele>80.8</ele>
        <time>2020-04-19T14:15:57Z</time>
      </trkpt>
      <trkpt lat="-11.6647230" lon="166.9491970">
        <ele>80.6</ele>
        <time>2020-04-19T14:15:58Z</time>
      </trkpt>
      <trkpt lat="-11.6647120" lon="166.9493150">
        <ele>80.4</ele>
        <time>2020-04-19T14:15:59Z</time>
      </trkpt>
      <trkpt lat="-11.6647140" lon="166.9494550">
        <ele>80.0</ele>
        <time>2020-04-19T14:16:00Z</time>
      </trkpt>
      <trkpt lat="-11.6647350" lon="166.9495940">
        <ele>79.6</ele>
        <time>2020-04-19T14:16:01Z</time>
      </trkpt>
      <trkpt lat="-11.6647780" lon="166.9497120">
        <ele>79.2</ele>
        <time>2020-04-19T14:16:02Z</time>
      </trkpt>
      <trkpt lat="-11.6648340" lon="166.9498300">
        <ele>78.8</ele>
        <time>2020-04-19T14:16:03Z</time>
      </trkpt>
      <trkpt lat="-11.6648990" lon="166.9499370">
        <ele>78.4</ele>
        <time>2020-04-19T14:16:04Z</time>
      </trkpt>
      <trkpt lat="-11.6649670" lon="166.9500660">
        <ele>78.0</ele>
        <time>2020-04-19T14:16:05Z</time>
      </trkpt>
      <trkpt lat="-11.6650290" lon="166.9501840">
        <ele>77.4</ele>
        <time>2020-04-19T14:16:06Z</time>
      </trkpt>
      <trkpt lat="-11.6650690" lon="166.9503020">
        <ele>77.0</ele>
        <time>2020-04-19T14:16:07Z</time>
      </trkpt>
      <trkpt lat="-11.6650950" lon="166.9504420">
        <ele>76.6</ele>
        <time>2020-04-19T14:16:08Z</time>
      </trkpt>
      <trkpt lat="-11.6650810" lon="166.9505700">
        <ele>76.2</ele>
        <time>2020-04-19T14:16:09Z</time>
      </trkpt>
      <trkpt lat="-11.6650100" lon="166.9506880">
        <ele>75.8</ele>
        <time>2020-04-19T14:16:10Z</time>
      </trkpt>
      <trkpt lat="-11.6649150" lon="166.9507630">
        <ele>75.6</ele>
        <time>2020-04-19T14:16:11Z</time>
      </trkpt>
      <trkpt lat="-11.6648020" lon="166.9508280">
        <ele>75.8</ele>
        <time>2020-04-19T14:16:12Z</time>
      </trkpt>
      <trkpt lat="-11.6646900" lon="166.9508710">
        <ele>75.6</ele>
        <time>2020-04-19T14:16:13Z</time>
      </trkpt>
      <trkpt lat="-11.6645720" lon="166.9509140">
        <ele>75.4</ele>
        <time>2020-04-19T14:16:14Z</time>
      </trkpt>
      <trkpt lat="-11.6644600" lon="166.9509460">
        <ele>75.2</ele>
        <time>2020-04-19T14:16:15Z</time>
      </trkpt>
      <trkpt lat="-11.6643450" lon="166.9509890">
        <ele>74.8</ele>
        <time>2020-04-19T14:16:16Z</time>
      </trkpt>
      <trkpt lat="-11.6642320" lon="166.9510210">
        <ele>74.6</ele>
        <time>2020-04-19T14:16:17Z</time>
      </trkpt>
      <trkpt lat="-11.6641180" lon="166.9510530">
        <ele>74.2</ele>
        <time>2020-04-19T14:16:18Z</time>
      </trkpt>
      <trkpt lat="-11.6639990" lon="166.9510960">
        <ele>73.8</ele>
        <time>2020-04-19T14:16:19Z</time>
      </trkpt>
      <trkpt lat="-11.6638810" lon="166.9511280">
        <ele>73.4</ele>
        <time>2020-04-19T14:16:20Z</time>
      </trkpt>
      <trkpt lat="-11.6637590" lon="166.9511600">
        <ele>73.0</ele>
        <time>2020-04-19T14:16:21Z</time>
      </trkpt>
      <trkpt lat="-11.6636370" lon="166.9511930">
        <ele>72.6</ele>
        <time>2020-04-19T14:16:22Z</time>
      </trkpt>
      <trkpt lat="-11.6635150" lon="166.9512360">
        <ele>72.2</ele>
        <time>2020-04-19T14:16:23Z</time>
      </trkpt>
      <trkpt lat="-11.6633930" lon="166.9512680">
        <ele>71.8</ele>
        <time>2020-04-19T14:16:24Z</time>
      </trkpt>
      <trkpt lat="-11.6632670" lon="166.9513110">
        <ele>71.4</ele>
        <time>2020-04-19T14:16:25Z</time>
      </trkpt>
      <trkpt lat="-11.6631420" lon="166.9513430">
        <ele>71.0</ele>
        <time>2020-04-19T14:16:26Z</time>
      </trkpt>
      <trkpt lat="-11.6630160" lon="166.9513860">
        <ele>70.6</ele>
        <time>2020-04-19T14:16:27Z</time>
      </trkpt>
      <trkpt lat="-11.6628870" lon="166.9514180">
        <ele>70.2</ele>
        <time>2020-04-19T14:16:28Z</time>
      </trkpt>
      <trkpt lat="-11.6627580" lon="166.9514610">
        <ele>69.8</ele>
        <time>2020-04-19T14:16:29Z</time>
      </trkpt>
      <trkpt lat="-11.6626300" lon="166.9514930">
        <ele>69.4</ele>
        <time>2020-04-19T14:16:30Z</time>
      </trkpt>
      <trkpt lat="-11.6624980" lon="166.9515470">
        <ele>68.8</ele>
        <time>2020-04-19T14:16:31Z</time>
      </trkpt>
      <trkpt lat="-11.6623670" lon="166.9515900">
        <ele>68.4</ele>
        <time>2020-04-19T14:16:32Z</time>
      </trkpt>
      <trkpt lat="-11.6622340" lon="166.9516320">
        <ele>68.0</ele>
        <time>2020-04-19T14:16:33Z</time>
      </trkpt>
      <trkpt lat="-11.6621030" lon="166.9516650">
        <ele>67.4</ele>
        <time>2020-04-19T14:16:34Z</time>
      </trkpt>
      <trkpt lat="-11.6619700" lon="166.9517080">
        <ele>67.0</ele>
        <time>2020-04-19T14:16:35Z</time>
      </trkpt>
      <trkpt lat="-11.6618380" lon="166.9517510">
        <ele>66.6</ele>
        <time>2020-04-19T14:16:36Z</time>
      </trkpt>
      <trkpt lat="-11.6617060" lon="166.9518040">
        <ele>66.0</ele>
        <time>2020-04-19T14:16:37Z</time>
      </trkpt>
      <trkpt lat="-11.6615770" lon="166.9518470">
        <ele>65.6</ele>
        <time>2020-04-19T14:16:38Z</time>
      </trkpt>
      <trkpt lat="-11.6614480" lon="166.9518900">
        <ele>65.0</ele>
        <time>2020-04-19T14:16:39Z</time>
      </trkpt>
      <trkpt lat="-11.6613210" lon="166.9519440">
        <ele>64.6</ele>
        <time>2020-04-19T14:16:40Z</time>
      </trkpt>
      <trkpt lat="-11.6611920" lon="166.9519870">
        <ele>64.0</ele>
        <time>2020-04-19T14:16:41Z</time>
      </trkpt>
      <trkpt lat="-11.6610690" lon="166.9520510">
        <ele>63.4</ele>
        <time>2020-04-19T14:16:42Z</time>
      </trkpt>
      <trkpt lat="-11.6609510" lon="166.9521050">
        <ele>62.8</ele>
        <time>2020-04-19T14:16:43Z</time>
      </trkpt>
      <trkpt lat="-11.6608270" lon="166.9521690">
        <ele>62.2</ele>
        <time>2020-04-19T14:16:44Z</time>
      </trkpt>
      <trkpt lat="-11.6607190" lon="166.9522440">
        <ele>61.4</ele>
        <time>2020-04-19T14:16:45Z</time>
      </trkpt>
      <trkpt lat="-11.6606270" lon="166.9523510">
        <ele>60.6</ele>
        <time>2020-04-19T14:16:46Z</time>
      </trkpt>
      <trkpt lat="-11.6605700" lon="166.9524690">
        <ele>59.4</ele>
        <time>2020-04-19T14:16:47Z</time>
      </trkpt>
      <trkpt lat="-11.6605280" lon="166.9526090">
        <ele>58.2</ele>
        <time>2020-04-19T14:16:48Z</time>
      </trkpt>
      <trkpt lat="-11.6604970" lon="166.9527590">
        <ele>56.8</ele>
        <time>2020-04-19T14:16:49Z</time>
      </trkpt>
      <trkpt lat="-11.6605010" lon="166.9528990">
        <ele>55.4</ele>
        <time>2020-04-19T14:16:50Z</time>
      </trkpt>
      <trkpt lat="-11.6605240" lon="166.9530490">
        <ele>53.8</ele>
        <time>2020-04-19T14:16:51Z</time>
      </trkpt>
      <trkpt lat="-11.6605580" lon="166.9532100">
        <ele>52.4</ele>
        <time>2020-04-19T14:16:52Z</time>
      </trkpt>
      <trkpt lat="-11.6605970" lon="166.9533710">
        <ele>51.0</ele>
        <time>2020-04-19T14:16:53Z</time>
      </trkpt>
      <trkpt lat="-11.6606300" lon="166.9535210">
        <ele>49.6</ele>
        <time>2020-04-19T14:16:54Z</time>
      </trkpt>
      <trkpt lat="-11.6606620" lon="166.9536920">
        <ele>48.6</ele>
        <time>2020-04-19T14:16:55Z</time>
      </trkpt>
      <trkpt lat="-11.6607050" lon="166.9538430">
        <ele>47.8</ele>
        <time>2020-04-19T14:16:56Z</time>
      </trkpt>
      <trkpt lat="-11.6607440" lon="166.9540140">
        <ele>47.2</ele>
        <time>2020-04-19T14:16:57Z</time>
      </trkpt>
      <trkpt lat="-11.6607530" lon="166.9541860">
        <ele>46.2</ele>
        <time>2020-04-19T14:16:58Z</time>
      </trkpt>
      <trkpt lat="-11.6607000" lon="166.9543360">
        <ele>44.8</ele>
        <time>2020-04-19T14:16:59Z</time>
      </trkpt>
      <trkpt lat="-11.6605970" lon="166.9544760">
        <ele>43.2</ele>
        <time>2020-04-19T14:17:00Z</time>
      </trkpt>
      <trkpt lat="-11.6604520" lon="166.9545290">
        <ele>41.6</ele>
        <time>2020-04-19T14:17:01Z</time>
      </trkpt>
      <trkpt lat="-11.6602930" lon="166.9544760">
        <ele>40.0</ele>
        <time>2020-04-19T14:17:02Z</time>
      </trkpt>
      <trkpt lat="-11.6601840" lon="166.9543360">
        <ele>39.0</ele>
        <time>2020-04-19T14:17:03Z</time>
      </trkpt>
      <trkpt lat="-11.6600870" lon="166.9541970">
        <ele>38.4</ele>
        <time>2020-04-19T14:17:04Z</time>
      </trkpt>
      <trkpt lat="-11.6600000" lon="166.9540460">
        <ele>37.6</ele>
        <time>2020-04-19T14:17:05Z</time>
      </trkpt>
      <trkpt lat="-11.6599210" lon="166.9538960">
        <ele>37.0</ele>
        <time>2020-04-19T14:17:06Z</time>
      </trkpt>
      <trkpt lat="-11.6598520" lon="166.9537570">
        <ele>36.2</ele>
        <time>2020-04-19T14:17:07Z</time>
      </trkpt>
      <trkpt lat="-11.6598040" lon="166.9536070">
        <ele>35.0</ele>
        <time>2020-04-19T14:17:08Z</time>
      </trkpt>
      <trkpt lat="-11.6597800" lon="166.9534350">
        <ele>34.0</ele>
        <time>2020-04-19T14:17:09Z</time>
      </trkpt>
      <trkpt lat="-11.6597680" lon="166.9532630">
        <ele>32.6</ele>
        <time>2020-04-19T14:17:10Z</time>
      </trkpt>
      <trkpt lat="-11.6597620" lon="166.9531020">
        <ele>31.2</ele>
        <time>2020-04-19T14:17:11Z</time>
      </trkpt>
      <trkpt lat="-11.6597520" lon="166.9529310">
        <ele>29.8</ele>
        <time>2020-04-19T14:17:12Z</time>
      </trkpt>
      <trkpt lat="-11.6596890" lon="166.9527590">
        <ele>28.2</ele>
        <time>2020-04-19T14:17:13Z</time>
      </trkpt>
      <trkpt lat="-11.6595450" lon="166.9526840">
        <ele>26.4</ele>
        <time>2020-04-19T14:17:14Z</time>
      </trkpt>
      <trkpt lat="-11.6593820" lon="166.9527380">
        <ele>24.4</ele>
        <time>2020-04-19T14:17:15Z</time>
      </trkpt>
      <trkpt lat="-11.6592760" lon="166.9528660">
        <ele>22.2</ele>
        <time>2020-04-19T14:17:16Z</time>
      </trkpt>
      <trkpt lat="-11.6592460" lon="166.9530490">
        <ele>20.0</ele>
        <time>2020-04-19T14:17:17Z</time>
      </trkpt>
      <trkpt lat="-11.6592460" lon="166.9532310">
        <ele>18.0</ele>
        <time>2020-04-19T14:17:18Z</time>
      </trkpt>
      <trkpt lat="-11.6592450" lon="166.9534240">
        <ele>16.2</ele>
        <time>2020-04-19T14:17:19Z</time>
      </trkpt>
      <trkpt lat="-11.6592410" lon="166.9536070">
        <ele>14.4</ele>
        <time>2020-04-19T14:17:20Z</time>
      </trkpt>
      <trkpt lat="-11.6592420" lon="166.9537890">
        <ele>12.6</ele>
        <time>2020-04-19T14:17:21Z</time>
      </trkpt>
      <trkpt lat="-11.6592130" lon="166.9539820">
        <ele>11.0</ele>
        <time>2020-04-19T14:17:22Z</time>
      </trkpt>
      <trkpt lat="-11.6590860" lon="166.9541220">
        <ele>9.2</ele>
        <time>2020-04-19T14:17:23Z</time>
      </trkpt>
      <trkpt lat="-11.6589130" lon="166.9541970">
        <ele>8.2</ele>
        <time>2020-04-19T14:17:24Z</time>
      </trkpt>
      <trkpt lat="-11.6587320" lon="166.9542400">
        <ele>7.6</ele>
        <time>2020-04-19T14:17:25Z</time>
      </trkpt>
      <trkpt lat="-11.6585570" lon="166.9542930">
        <ele>7.4</ele>
        <time>2020-04-19T14:17:26Z</time>
      </trkpt>
      <trkpt lat="-11.6583900" lon="166.9543150">
        <ele>7.4</ele>
        <time>2020-04-19T14:17:27Z</time>
      </trkpt>
      <trkpt lat="-11.6582260" lon="166.9543680">
        <ele>7.4</ele>
        <time>2020-04-19T14:17:28Z</time>
      </trkpt>
      <trkpt lat="-11.6580690" lon="166.9544110">
        <ele>7.4</ele>
        <time>2020-04-19T14:17:29Z</time>
      </trkpt>
      <trkpt lat="-11.6579130" lon="166.9544540">
        <ele>7.4</ele>
        <time>2020-04-19T14:17:30Z</time>
      </trkpt>
      <trkpt lat="-11.6577570" lon="166.9544970">
        <ele>7.4</ele>
        <time>2020-04-19T14:17:31Z</time>
      </trkpt>
      <trkpt lat="-11.6576100" lon="166.9545290">
        <ele>7.4</ele>
        <time>2020-04-19T14:17:32Z</time>
      </trkpt>
      <trkpt lat="-11.6574640" lon="166.9545830">
        <ele>7.0</ele>
        <time>2020-04-19T14:17:33Z</time>
      </trkpt>
      <trkpt lat="-11.6573180" lon="166.9546040">
        <ele>6.6</ele>
        <time>2020-04-19T14:17:34Z</time>
      </trkpt>
      <trkpt lat="-11.6571670" lon="166.9546580">
        <ele>6.4</ele>
        <time>2020-04-19T14:17:35Z</time>
      </trkpt>
      <trkpt lat="-11.6570250" lon="166.9546900">
        <ele>6.0</ele>
        <time>2020-04-19T14:17:36Z</time>
      </trkpt>
      <trkpt lat="-11.6568790" lon="166.9547330">
        <ele>5.6</ele>
        <time>2020-04-19T14:17:37Z</time>
      </trkpt>
      <trkpt lat="-11.6567380" lon="166.9547650">
        <ele>5.2</ele>
        <time>2020-04-19T14:17:38Z</time>
      </trkpt>
      <trkpt lat="-11.6566000" lon="166.9547980">
        <ele>5.0</ele>
        <time>2020-04-19T14:17:39Z</time>
      </trkpt>
      <trkpt lat="-11.6564630" lon="166.9548400">
        <ele>4.6</ele>
        <time>2020-04-19T14:17:40Z</time>
      </trkpt>
      <trkpt lat="-11.6563280" lon="166.9548730">
        <ele>4.2</ele>
        <time>2020-04-19T14:17:41Z</time>
      </trkpt>
      <trkpt lat="-11.6561920" lon="166.9549160">
        <ele>4.0</ele>
        <time>2020-04-19T14:17:42Z</time>
      </trkpt>
      <trkpt lat="-11.6560580" lon="166.9549480">
        <ele>3.6</ele>
        <time>2020-04-19T14:17:43Z</time>
      </trkpt>
      <trkpt lat="-11.6559260" lon="166.9549800">
        <ele>3.4</ele>
        <time>2020-04-19T14:17:44Z</time>
      </trkpt>
      <trkpt lat="-11.6557930" lon="166.9550010">
        <ele>3.0</ele>
        <time>2020-04-19T14:17:45Z</time>
      </trkpt>
      <trkpt lat="-11.6556600" lon="166.9550550">
        <ele>2.8</ele>
        <time>2020-04-19T14:17:46Z</time>
      </trkpt>
      <trkpt lat="-11.6555270" lon="166.9550870">
        <ele>2.4</ele>
        <time>2020-04-19T14:17:47Z</time>
      </trkpt>
      <trkpt lat="-11.6553970" lon="166.9551090">
        <ele>2.2</ele>
        <time>2020-04-19T14:17:48Z</time>
      </trkpt>
      <trkpt lat="-11.6552660" lon="166.9551620">
        <ele>1.8</ele>
        <time>2020-04-19T14:17:49Z</time>
      </trkpt>
      <trkpt lat="-11.6551330" lon="166.9551840">
        <ele>1.6</ele>
        <time>2020-04-19T14:17:50Z</time>
      </trkpt>
      <trkpt lat="-11.6550040" lon="166.9552160">
        <ele>1.4</ele>
        <time>2020-04-19T14:17:51Z</time>
      </trkpt>
      <trkpt lat="-11.6548730" lon="166.9552480">
        <ele>1.2</ele>
        <time>2020-04-19T14:17:52Z</time>
      </trkpt>
      <trkpt lat="-11.6547480" lon="166.9552800">
        <ele>1.2</ele>
        <time>2020-04-19T14:17:53Z</time>
      </trkpt>
      <trkpt lat="-11.6546290" lon="166.9553120">
        <ele>1.0</ele>
        <time>2020-04-19T14:17:54Z</time>
      </trkpt>
      <trkpt lat="-11.6545090" lon="166.9553450">
        <ele>1.0</ele>
        <time>2020-04-19T14:17:55Z</time>
      </trkpt>
      <trkpt lat="-11.6543940" lon="166.9553880">
        <ele>1.0</ele>
        <time>2020-04-19T14:17:56Z</time>
      </trkpt>
      <trkpt lat="-11.6542840" lon="166.9554200">
        <ele>1.0</ele>
        <time>2020-04-19T14:17:57Z</time>
      </trkpt>
      <trkpt lat="-11.6541740" lon="166.9554310">
        <ele>1.0</ele>
        <time>2020-04-19T14:17:58Z</time>
      </trkpt>
      <trkpt lat="-11.6540650" lon="166.9554630">
        <ele>1.0</ele>
        <time>2020-04-19T14:17:59Z</time>
      </trkpt>
      <trkpt lat="-11.6539630" lon="166.9554840">
        <ele>0.8</ele>
        <time>2020-04-19T14:18:00Z</time>
      </trkpt>
      <trkpt lat="-11.6538590" lon="166.9555060">
        <ele>0.8</ele>
        <time>2020-04-19T14:18:01Z</time>
      </trkpt>
      <trkpt lat="-11.6537560" lon="166.9555270">
        <ele>1.0</ele>
        <time>2020-04-19T14:18:02Z</time>
      </trkpt>
      <trkpt lat="-11.6536550" lon="166.9555270">
        <ele>1.0</ele>
        <time>2020-04-19T14:18:03Z</time>
      </trkpt>
      <trkpt lat="-11.6535520" lon="166.9555270">
        <ele>1.0</ele>
        <time>2020-04-19T14:18:04Z</time>
      </trkpt>
      <trkpt lat="-11.6534550" lon="166.9555060">
        <ele>1.0</ele>
        <time>2020-04-19T14:18:05Z</time>
      </trkpt>
      <trkpt lat="-11.6533610" lon="166.9554840">
        <ele>1.0</ele>
        <time>2020-04-19T14:18:06Z</time>
      </trkpt>
      <trkpt lat="-11.6532670" lon="166.9554630">
        <ele>0.8</ele>
        <time>2020-04-19T14:18:07Z</time>
      </trkpt>
      <trkpt lat="-11.6531750" lon="166.9554520">
        <ele>0.8</ele>
        <time>2020-04-19T14:18:08Z</time>
      </trkpt>
      <trkpt lat="-11.6530800" lon="166.9554310">
        <ele>0.8</ele>
        <time>2020-04-19T14:18:09Z</time>
      </trkpt>
      <trkpt lat="-11.6529870" lon="166.9554200">
        <ele>0.8</ele>
        <time>2020-04-19T14:18:10Z</time>
      </trkpt>
      <trkpt lat="-11.6528970" lon="166.9554200">
        <ele>0.8</ele>
        <time>2020-04-19T14:18:11Z</time>
      </trkpt>
      <trkpt lat="-11.6528050" lon="166.9554200">
        <ele>0.8</ele>
        <time>2020-04-19T14:18:12Z</time>
      </trkpt>
      <trkpt lat="-11.6527120" lon="166.9554200">
        <ele>0.8</ele>
        <time>2020-04-19T14:18:13Z</time>
      </trkpt>
      <trkpt lat="-11.6526220" lon="166.9554200">
        <ele>0.8</ele>
        <time>2020-04-19T14:18:14Z</time>
      </trkpt>
      <trkpt lat="-11.6525330" lon="166.9553980">
        <ele>0.8</ele>
        <time>2020-04-19T14:18:15Z</time>
      </trkpt>
      <trkpt lat="-11.6524400" lon="166.9553980">
        <ele>0.8</ele>
        <time>2020-04-19T14:18:16Z</time>
      </trkpt>
      <trkpt lat="-11.6523470" lon="166.9553980">
        <ele>0.8</ele>
        <time>2020-04-19T14:18:17Z</time>
      </trkpt>
      <trkpt lat="-11.6522520" lon="166.9553980">
        <ele>0.8</ele>
        <time>2020-04-19T14:18:18Z</time>
      </trkpt>
      <trkpt lat="-11.6521580" lon="166.9553980">
        <ele>0.8</ele>
        <time>2020-04-19T14:18:19Z</time>
      </trkpt>
      <trkpt lat="-11.6520640" lon="166.9553880">
        <ele>0.8</ele>
        <time>2020-04-19T14:18:20Z</time>
      </trkpt>
      <trkpt lat="-11.6519690" lon="166.9553880">
        <ele>0.8</ele>
        <time>2020-04-19T14:18:21Z</time>
      </trkpt>
      <trkpt lat="-11.6518730" lon="166.9553880">
        <ele>0.8</ele>
        <time>2020-04-19T14:18:22Z</time>
      </trkpt>
      <trkpt lat="-11.6517790" lon="166.9553770">
        <ele>0.8</ele>
        <time>2020-04-19T14:18:23Z</time>
      </trkpt>
      <trkpt lat="-11.6516860" lon="166.9553880">
        <ele>0.8</ele>
        <time>2020-04-19T14:18:24Z</time>
      </trkpt>
      <trkpt lat="-11.6515940" lon="166.9553880">
        <ele>0.8</ele>
        <time>2020-04-19T14:18:25Z</time>
      </trkpt>
      <trkpt lat="-11.6515010" lon="166.9553980">
        <ele>0.6</ele>
        <time>2020-04-19T14:18:26Z</time>
      </trkpt>
      <trkpt lat="-11.6514220" lon="166.9554520">
        <ele>0.6</ele>
        <time>2020-04-19T14:18:27Z</time>
      </trkpt>
      <trkpt lat="-11.6513600" lon="166.9555270">
        <ele>0.4</ele>
        <time>2020-04-19T14:18:28Z</time>
      </trkpt>
      <trkpt lat="-11.6513050" lon="166.9556020">
        <ele>0.6</ele>
        <time>2020-04-19T14:18:29Z</time>
      </trkpt>
      <trkpt lat="-11.6512570" lon="166.9556770">
        <ele>0.6</ele>
        <time>2020-04-19T14:18:30Z</time>
      </trkpt>
      <trkpt lat="-11.6512180" lon="166.9557520">
        <ele>0.6</ele>
        <time>2020-04-19T14:18:31Z</time>
      </trkpt>
      <trkpt lat="-11.6511810" lon="166.9558490">
        <ele>0.6</ele>
        <time>2020-04-19T14:18:32Z</time>
      </trkpt>
      <trkpt lat="-11.6511460" lon="166.9559240">
        <ele>0.6</ele>
        <time>2020-04-19T14:18:33Z</time>
      </trkpt>
      <trkpt lat="-11.6511120" lon="166.9560100">
        <ele>0.8</ele>
        <time>2020-04-19T14:18:34Z</time>
      </trkpt>
      <trkpt lat="-11.6510760" lon="166.9560850">
        <ele>0.8</ele>
        <time>2020-04-19T14:18:35Z</time>
      </trkpt>
      <trkpt lat="-11.6510400" lon="166.9561820">
        <ele>0.8</ele>
        <time>2020-04-19T14:18:36Z</time>
      </trkpt>
      <trkpt lat="-11.6510060" lon="166.9562670">
        <ele>0.8</ele>
        <time>2020-04-19T14:18:37Z</time>
      </trkpt>
      <trkpt lat="-11.6509710" lon="166.9563530">
        <ele>0.8</ele>
        <time>2020-04-19T14:18:38Z</time>
      </trkpt>
      <trkpt lat="-11.6509370" lon="166.9564390">
        <ele>0.8</ele>
        <time>2020-04-19T14:18:39Z</time>
      </trkpt>
      <trkpt lat="-11.6509040" lon="166.9565360">
        <ele>0.8</ele>
        <time>2020-04-19T14:18:40Z</time>
      </trkpt>
      <trkpt lat="-11.6508720" lon="166.9566210">
        <ele>0.8</ele>
        <time>2020-04-19T14:18:41Z</time>
      </trkpt>
      <trkpt lat="-11.6508390" lon="166.9567180">
        <ele>0.8</ele>
        <time>2020-04-19T14:18:42Z</time>
      </trkpt>
      <trkpt lat="-11.6508020" lon="166.9568040">
        <ele>0.8</ele>
        <time>2020-04-19T14:18:43Z</time>
      </trkpt>
      <trkpt lat="-11.6507690" lon="166.9569000">
        <ele>0.8</ele>
        <time>2020-04-19T14:18:44Z</time>
      </trkpt>
      <trkpt lat="-11.6507330" lon="166.9569860">
        <ele>0.8</ele>
        <time>2020-04-19T14:18:45Z</time>
      </trkpt>
      <trkpt lat="-11.6506980" lon="166.9570830">
        <ele>0.8</ele>
        <time>2020-04-19T14:18:46Z</time>
      </trkpt>
      <trkpt lat="-11.6506630" lon="166.9571690">
        <ele>0.8</ele>
        <time>2020-04-19T14:18:47Z</time>
      </trkpt>
      <trkpt lat="-11.6506290" lon="166.9572440">
        <ele>0.8</ele>
        <time>2020-04-19T14:18:48Z</time>
      </trkpt>
      <trkpt lat="-11.6505950" lon="166.9573400">
        <ele>0.8</ele>
        <time>2020-04-19T14:18:49Z</time>
      </trkpt>
      <trkpt lat="-11.6505610" lon="166.9574370">
        <ele>0.8</ele>
        <time>2020-04-19T14:18:50Z</time>
      </trkpt>
      <trkpt lat="-11.6505260" lon="166.9575230">
        <ele>0.8</ele>
        <time>2020-04-19T14:18:51Z</time>
      </trkpt>
      <trkpt lat="-11.6504910" lon="166.9576190">
        <ele>0.8</ele>
        <time>2020-04-19T14:18:52Z</time>
      </trkpt>
      <trkpt lat="-11.6504550" lon="166.9576940">
        <ele>0.8</ele>
        <time>2020-04-19T14:18:53Z</time>
      </trkpt>
      <trkpt lat="-11.6504070" lon="166.9577800">
        <ele>0.8</ele>
        <time>2020-04-19T14:18:54Z</time>
      </trkpt>
      <trkpt lat="-11.6503530" lon="166.9578550">
        <ele>0.8</ele>
        <time>2020-04-19T14:18:55Z</time>
      </trkpt>
      <trkpt lat="-11.6502940" lon="166.9579300">
        <ele>0.8</ele>
        <time>2020-04-19T14:18:56Z</time>
      </trkpt>
      <trkpt lat="-11.6502330" lon="166.9579950">
        <ele>1.0</ele>
        <time>2020-04-19T14:18:57Z</time>
      </trkpt>
      <trkpt lat="-11.6501650" lon="166.9580590">
        <ele>1.0</ele>
        <time>2020-04-19T14:18:58Z</time>
      </trkpt>
      <trkpt lat="-11.6500960" lon="166.9581230">
        <ele>1.0</ele>
        <time>2020-04-19T14:18:59Z</time>
      </trkpt>
      <trkpt lat="-11.6500210" lon="166.9581770">
        <ele>1.2</ele>
        <time>2020-04-19T14:19:00Z</time>
      </trkpt>
      <trkpt lat="-11.6499400" lon="166.9582090">
        <ele>1.2</ele>
        <time>2020-04-19T14:19:01Z</time>
      </trkpt>
      <trkpt lat="-11.6498580" lon="166.9582410">
        <ele>1.4</ele>
        <time>2020-04-19T14:19:02Z</time>
      </trkpt>
      <trkpt lat="-11.6497690" lon="166.9582520">
        <ele>1.4</ele>
        <time>2020-04-19T14:19:03Z</time>
      </trkpt>
      <trkpt lat="-11.6496840" lon="166.9582520">
        <ele>1.6</ele>
        <time>2020-04-19T14:19:04Z</time>
      </trkpt>
      <trkpt lat="-11.6496000" lon="166.9582310">
        <ele>1.6</ele>
        <time>2020-04-19T14:19:05Z</time>
      </trkpt>
      <trkpt lat="-11.6495200" lon="166.9581990">
        <ele>1.8</ele>
        <time>2020-04-19T14:19:06Z</time>
      </trkpt>
      <trkpt lat="-11.6494470" lon="166.9581450">
        <ele>2.0</ele>
        <time>2020-04-19T14:19:07Z</time>
      </trkpt>
      <trkpt lat="-11.6493800" lon="166.9581020">
        <ele>2.0</ele>
        <time>2020-04-19T14:19:08Z</time>
      </trkpt>
      <trkpt lat="-11.6493140" lon="166.9580380">
        <ele>2.2</ele>
        <time>2020-04-19T14:19:09Z</time>
      </trkpt>
      <trkpt lat="-11.6492550" lon="166.9579840">
        <ele>2.2</ele>
        <time>2020-04-19T14:19:10Z</time>
      </trkpt>
      <trkpt lat="-11.6492030" lon="166.9579090">
        <ele>2.4</ele>
        <time>2020-04-19T14:19:11Z</time>
      </trkpt>
      <trkpt lat="-11.6491580" lon="166.9578340">
        <ele>2.6</ele>
        <time>2020-04-19T14:19:12Z</time>
      </trkpt>
      <trkpt lat="-11.6491210" lon="166.9577480">
        <ele>2.6</ele>
        <time>2020-04-19T14:19:13Z</time>
      </trkpt>
      <trkpt lat="-11.6490860" lon="166.9576620">
        <ele>2.8</ele>
        <time>2020-04-19T14:19:14Z</time>
      </trkpt>
      <trkpt lat="-11.6490630" lon="166.9575870">
        <ele>2.8</ele>
        <time>2020-04-19T14:19:15Z</time>
      </trkpt>
      <trkpt lat="-11.6490500" lon="166.9574900">
        <ele>3.0</ele>
        <time>2020-04-19T14:19:16Z</time>
      </trkpt>
      <trkpt lat="-11.6490500" lon="166.9574050">
        <ele>3.0</ele>
        <time>2020-04-19T14:19:17Z</time>
      </trkpt>
      <trkpt lat="-11.6490560" lon="166.9573080">
        <ele>3.2</ele>
        <time>2020-04-19T14:19:18Z</time>
      </trkpt>
      <trkpt lat="-11.6490750" lon="166.9572220">
        <ele>3.2</ele>
        <time>2020-04-19T14:19:19Z</time>
      </trkpt>
      <trkpt lat="-11.6490990" lon="166.9571260">
        <ele>3.4</ele>
        <time>2020-04-19T14:19:20Z</time>
      </trkpt>
      <trkpt lat="-11.6491260" lon="166.9570510">
        <ele>3.4</ele>
        <time>2020-04-19T14:19:21Z</time>
      </trkpt>
      <trkpt lat="-11.6491600" lon="166.9569540">
        <ele>3.6</ele>
        <time>2020-04-19T14:19:22Z</time>
      </trkpt>
      <trkpt lat="-11.6492010" lon="166.9568790">
        <ele>3.6</ele>
        <time>2020-04-19T14:19:23Z</time>
      </trkpt>
      <trkpt lat="-11.6492470" lon="166.9567930">
        <ele>3.6</ele>
        <time>2020-04-19T14:19:24Z</time>
      </trkpt>
      <trkpt lat="-11.6492940" lon="166.9567180">
        <ele>3.8</ele>
        <time>2020-04-19T14:19:25Z</time>
      </trkpt>
      <trkpt lat="-11.6493420" lon="166.9566430">
        <ele>3.8</ele>
        <time>2020-04-19T14:19:26Z</time>
      </trkpt>
      <trkpt lat="-11.6493880" lon="166.9565570">
        <ele>4.0</ele>
        <time>2020-04-19T14:19:27Z</time>
      </trkpt>
      <trkpt lat="-11.6494360" lon="166.9564710">
        <ele>4.0</ele>
        <time>2020-04-19T14:19:28Z</time>
      </trkpt>
      <trkpt lat="-11.6494820" lon="166.9563960">
        <ele>4.0</ele>
        <time>2020-04-19T14:19:29Z</time>
      </trkpt>
      <trkpt lat="-11.6495270" lon="166.9563210">
        <ele>4.2</ele>
        <time>2020-04-19T14:19:30Z</time>
      </trkpt>
      <trkpt lat="-11.6495710" lon="166.9562240">
        <ele>4.2</ele>
        <time>2020-04-19T14:19:31Z</time>
      </trkpt>
      <trkpt lat="-11.6496170" lon="166.9561490">
        <ele>4.4</ele>
        <time>2020-04-19T14:19:32Z</time>
      </trkpt>
      <trkpt lat="-11.6496670" lon="166.9560740">
        <ele>4.4</ele>
        <time>2020-04-19T14:19:33Z</time>
      </trkpt>
      <trkpt lat="-11.6497090" lon="166.9559780">
        <ele>4.4</ele>
        <time>2020-04-19T14:19:34Z</time>
      </trkpt>
      <trkpt lat="-11.6497550" lon="166.9559030">
        <ele>4.6</ele>
        <time>2020-04-19T14:19:35Z</time>
      </trkpt>
      <trkpt lat="-11.6497980" lon="166.9558270">
        <ele>4.6</ele>
        <time>2020-04-19T14:19:36Z</time>
      </trkpt>
      <trkpt lat="-11.6498450" lon="166.9557520">
        <ele>4.6</ele>
        <time>2020-04-19T14:19:37Z</time>
      </trkpt>
      <trkpt lat="-11.6498920" lon="166.9556670">
        <ele>4.8</ele>
        <time>2020-04-19T14:19:38Z</time>
      </trkpt>
      <trkpt lat="-11.6499400" lon="166.9555810">
        <ele>4.8</ele>
        <time>2020-04-19T14:19:39Z</time>
      </trkpt>
      <trkpt lat="-11.6499870" lon="166.9555060">
        <ele>5.0</ele>
        <time>2020-04-19T14:19:40Z</time>
      </trkpt>
      <trkpt lat="-11.6500340" lon="166.9554200">
        <ele>5.0</ele>
        <time>2020-04-19T14:19:41Z</time>
      </trkpt>
      <trkpt lat="-11.6500810" lon="166.9553450">
        <ele>5.0</ele>
        <time>2020-04-19T14:19:42Z</time>
      </trkpt>
      <trkpt lat="-11.6501280" lon="166.9552480">
        <ele>5.2</ele>
        <time>2020-04-19T14:19:43Z</time>
      </trkpt>
      <trkpt lat="-11.6501740" lon="166.9551730">
        <ele>5.2</ele>
        <time>2020-04-19T14:19:44Z</time>
      </trkpt>
      <trkpt lat="-11.6502180" lon="166.9550980">
        <ele>5.4</ele>
        <time>2020-04-19T14:19:45Z</time>
      </trkpt>
      <trkpt lat="-11.6502620" lon="166.9550010">
        <ele>5.4</ele>
        <time>2020-04-19T14:19:46Z</time>
      </trkpt>
      <trkpt lat="-11.6503060" lon="166.9549260">
        <ele>5.4</ele>
        <time>2020-04-19T14:19:47Z</time>
      </trkpt>
      <trkpt lat="-11.6503490" lon="166.9548510">
        <ele>5.6</ele>
        <time>2020-04-19T14:19:48Z</time>
      </trkpt>
      <trkpt lat="-11.6503930" lon="166.9547760">
        <ele>5.6</ele>
        <time>2020-04-19T14:19:49Z</time>
      </trkpt>
      <trkpt lat="-11.6504420" lon="166.9547010">
        <ele>5.6</ele>
        <time>2020-04-19T14:19:50Z</time>
      </trkpt>
      <trkpt lat="-11.6504970" lon="166.9546260">
        <ele>5.8</ele>
        <time>2020-04-19T14:19:51Z</time>
      </trkpt>
      <trkpt lat="-11.6505560" lon="166.9545610">
        <ele>5.8</ele>
        <time>2020-04-19T14:19:52Z</time>
      </trkpt>
      <trkpt lat="-11.6506080" lon="166.9544860">
        <ele>5.8</ele>
        <time>2020-04-19T14:19:53Z</time>
      </trkpt>
      <trkpt lat="-11.6506340" lon="166.9544010">
        <ele>5.8</ele>
        <time>2020-04-19T14:19:54Z</time>
      </trkpt>
      <trkpt lat="-11.6505920" lon="166.9543150">
        <ele>6.0</ele>
        <time>2020-04-19T14:19:55Z</time>
      </trkpt>
      <trkpt lat="-11.6505220" lon="166.9542610">
        <ele>6.2</ele>
        <time>2020-04-19T14:19:56Z</time>
      </trkpt>
      <trkpt lat="-11.6504500" lon="166.9542290">
        <ele>6.2</ele>
        <time>2020-04-19T14:19:57Z</time>
      </trkpt>
      <trkpt lat="-11.6503730" lon="166.9541860">
        <ele>6.4</ele>
        <time>2020-04-19T14:19:58Z</time>
      </trkpt>
      <trkpt lat="-11.6502940" lon="166.9541540">
        <ele>6.4</ele>
        <time>2020-04-19T14:19:59Z</time>
      </trkpt>
      <trkpt lat="-11.6502160" lon="166.9541320">
        <ele>6.6</ele>
        <time>2020-04-19T14:20:00Z</time>
      </trkpt>
      <trkpt lat="-11.6501350" lon="166.9541110">
        <ele>6.6</ele>
        <time>2020-04-19T14:20:01Z</time>
      </trkpt>
      <trkpt lat="-11.6500530" lon="166.9540890">
        <ele>6.8</ele>
        <time>2020-04-19T14:20:02Z</time>
      </trkpt>
      <trkpt lat="-11.6499710" lon="166.9540790">
        <ele>6.8</ele>
        <time>2020-04-19T14:20:03Z</time>
      </trkpt>
      <trkpt lat="-11.6498880" lon="166.9540570">
        <ele>7.0</ele>
        <time>2020-04-19T14:20:04Z</time>
      </trkpt>
      <trkpt lat="-11.6498050" lon="166.9540250">
        <ele>7.0</ele>
        <time>2020-04-19T14:20:05Z</time>
      </trkpt>
      <trkpt lat="-11.6497230" lon="166.9540140">
        <ele>7.0</ele>
        <time>2020-04-19T14:20:06Z</time>
      </trkpt>
      <trkpt lat="-11.6496370" lon="166.9540040">
        <ele>7.2</ele>
        <time>2020-04-19T14:20:07Z</time>
      </trkpt>
      <trkpt lat="-11.6495530" lon="166.9539820">
        <ele>7.2</ele>
        <time>2020-04-19T14:20:08Z</time>
      </trkpt>
      <trkpt lat="-11.6494680" lon="166.9539710">
        <ele>7.4</ele>
        <time>2020-04-19T14:20:09Z</time>
      </trkpt>
      <trkpt lat="-11.6493820" lon="166.9539500">
        <ele>7.4</ele>
        <time>2020-04-19T14:20:10Z</time>
      </trkpt>
      <trkpt lat="-11.6492960" lon="166.9539390">
        <ele>7.6</ele>
        <time>2020-04-19T14:20:11Z</time>
      </trkpt>
      <trkpt lat="-11.6492090" lon="166.9539070">
        <ele>7.6</ele>
        <time>2020-04-19T14:20:12Z</time>
      </trkpt>
      <trkpt lat="-11.6491230" lon="166.9538960">
        <ele>7.8</ele>
        <time>2020-04-19T14:20:13Z</time>
      </trkpt>
      <trkpt lat="-11.6490380" lon="166.9538750">
        <ele>7.8</ele>
        <time>2020-04-19T14:20:14Z</time>
      </trkpt>
      <trkpt lat="-11.6489500" lon="166.9538640">
        <ele>8.0</ele>
        <time>2020-04-19T14:20:15Z</time>
      </trkpt>
      <trkpt lat="-11.6488650" lon="166.9538320">
        <ele>8.0</ele>
        <time>2020-04-19T14:20:16Z</time>
      </trkpt>
      <trkpt lat="-11.6487790" lon="166.9538100">
        <ele>8.2</ele>
        <time>2020-04-19T14:20:17Z</time>
      </trkpt>
      <trkpt lat="-11.6486930" lon="166.9538000">
        <ele>8.2</ele>
        <time>2020-04-19T14:20:18Z</time>
      </trkpt>
      <trkpt lat="-11.6486070" lon="166.9537890">
        <ele>8.4</ele>
        <time>2020-04-19T14:20:19Z</time>
      </trkpt>
      <trkpt lat="-11.6485210" lon="166.9537570">
        <ele>8.4</ele>
        <time>2020-04-19T14:20:20Z</time>
      </trkpt>
      <trkpt lat="-11.6484370" lon="166.9537350">
        <ele>8.6</ele>
        <time>2020-04-19T14:20:21Z</time>
      </trkpt>
      <trkpt lat="-11.6483540" lon="166.9537140">
        <ele>8.6</ele>
        <time>2020-04-19T14:20:22Z</time>
      </trkpt>
      <trkpt lat="-11.6482730" lon="166.9536600">
        <ele>8.8</ele>
        <time>2020-04-19T14:20:23Z</time>
      </trkpt>
      <trkpt lat="-11.6481980" lon="166.9536280">
        <ele>8.8</ele>
        <time>2020-04-19T14:20:24Z</time>
      </trkpt>
      <trkpt lat="-11.6481270" lon="166.9535740">
        <ele>9.0</ele>
        <time>2020-04-19T14:20:25Z</time>
      </trkpt>
      <trkpt lat="-11.6480650" lon="166.9535100">
        <ele>9.0</ele>
        <time>2020-04-19T14:20:26Z</time>
      </trkpt>
      <trkpt lat="-11.6480160" lon="166.9534350">
        <ele>9.0</ele>
        <time>2020-04-19T14:20:27Z</time>
      </trkpt>
      <trkpt lat="-11.6479830" lon="166.9533380">
        <ele>9.2</ele>
        <time>2020-04-19T14:20:28Z</time>
      </trkpt>
      <trkpt lat="-11.6479730" lon="166.9532530">
        <ele>9.2</ele>
        <time>2020-04-19T14:20:29Z</time>
      </trkpt>
      <trkpt lat="-11.6479930" lon="166.9531560">
        <ele>9.2</ele>
        <time>2020-04-19T14:20:30Z</time>
      </trkpt>
      <trkpt lat="-11.6480400" lon="166.9530810">
        <ele>9.2</ele>
        <time>2020-04-19T14:20:31Z</time>
      </trkpt>
      <trkpt lat="-11.6481100" lon="166.9530380">
        <ele>9.4</ele>
        <time>2020-04-19T14:20:32Z</time>
      </trkpt>
      <trkpt lat="-11.6481930" lon="166.9530060">
        <ele>9.4</ele>
        <time>2020-04-19T14:20:33Z</time>
      </trkpt>
      <trkpt lat="-11.6482800" lon="166.9529950">
        <ele>9.6</ele>
        <time>2020-04-19T14:20:34Z</time>
      </trkpt>
      <trkpt lat="-11.6483640" lon="166.9529950">
        <ele>9.8</ele>
        <time>2020-04-19T14:20:35Z</time>
      </trkpt>
      <trkpt lat="-11.6484500" lon="166.9529950">
        <ele>9.8</ele>
        <time>2020-04-19T14:20:36Z</time>
      </trkpt>
      <trkpt lat="-11.6485350" lon="166.9530060">
        <ele>10.0</ele>
        <time>2020-04-19T14:20:37Z</time>
      </trkpt>
      <trkpt lat="-11.6486210" lon="166.9530270">
        <ele>10.0</ele>
        <time>2020-04-19T14:20:38Z</time>
      </trkpt>
      <trkpt lat="-11.6487040" lon="166.9530490">
        <ele>10.2</ele>
        <time>2020-04-19T14:20:39Z</time>
      </trkpt>
      <trkpt lat="-11.6487880" lon="166.9530700">
        <ele>10.2</ele>
        <time>2020-04-19T14:20:40Z</time>
      </trkpt>
      <trkpt lat="-11.6488700" lon="166.9530810">
        <ele>10.4</ele>
        <time>2020-04-19T14:20:41Z</time>
      </trkpt>
      <trkpt lat="-11.6489520" lon="166.9531020">
        <ele>10.4</ele>
        <time>2020-04-19T14:20:42Z</time>
      </trkpt>
      <trkpt lat="-11.6490360" lon="166.9531130">
        <ele>10.6</ele>
        <time>2020-04-19T14:20:43Z</time>
      </trkpt>
      <trkpt lat="-11.6491180" lon="166.9531240">
        <ele>10.6</ele>
        <time>2020-04-19T14:20:44Z</time>
      </trkpt>
      <trkpt lat="-11.6492010" lon="166.9531450">
        <ele>10.8</ele>
        <time>2020-04-19T14:20:45Z</time>
      </trkpt>
      <trkpt lat="-11.6492840" lon="166.9531770">
        <ele>10.8</ele>
        <time>2020-04-19T14:20:46Z</time>
      </trkpt>
      <trkpt lat="-11.6493690" lon="166.9531880">
        <ele>11.0</ele>
        <time>2020-04-19T14:20:47Z</time>
      </trkpt>
      <trkpt lat="-11.6494520" lon="166.9532100">
        <ele>11.0</ele>
        <time>2020-04-19T14:20:48Z</time>
      </trkpt>
      <trkpt lat="-11.6495360" lon="166.9532310">
        <ele>11.0</ele>
        <time>2020-04-19T14:20:49Z</time>
      </trkpt>
      <trkpt lat="-11.6496210" lon="166.9532530">
        <ele>11.2</ele>
        <time>2020-04-19T14:20:50Z</time>
      </trkpt>
      <trkpt lat="-11.6497050" lon="166.9532850">
        <ele>11.2</ele>
        <time>2020-04-19T14:20:51Z</time>
      </trkpt>
      <trkpt lat="-11.6497910" lon="166.9532950">
        <ele>11.4</ele>
        <time>2020-04-19T14:20:52Z</time>
      </trkpt>
      <trkpt lat="-11.6498770" lon="166.9533170">
        <ele>11.4</ele>
        <time>2020-04-19T14:20:53Z</time>
      </trkpt>
      <trkpt lat="-11.6499640" lon="166.9533380">
        <ele>11.6</ele>
        <time>2020-04-19T14:20:54Z</time>
      </trkpt>
      <trkpt lat="-11.6500500" lon="166.9533600">
        <ele>11.6</ele>
        <time>2020-04-19T14:20:55Z</time>
      </trkpt>
      <trkpt lat="-11.6501370" lon="166.9533710">
        <ele>11.8</ele>
        <time>2020-04-19T14:20:56Z</time>
      </trkpt>
      <trkpt lat="-11.6502270" lon="166.9533920">
        <ele>12.0</ele>
        <time>2020-04-19T14:20:57Z</time>
      </trkpt>
      <trkpt lat="-11.6503180" lon="166.9534030">
        <ele>12.0</ele>
        <time>2020-04-19T14:20:58Z</time>
      </trkpt>
      <trkpt lat="-11.6504110" lon="166.9534240">
        <ele>12.2</ele>
        <time>2020-04-19T14:20:59Z</time>
      </trkpt>
      <trkpt lat="-11.6505020" lon="166.9534030">
        <ele>12.4</ele>
        <time>2020-04-19T14:21:00Z</time>
      </trkpt>
      <trkpt lat="-11.6505840" lon="166.9533710">
        <ele>12.4</ele>
        <time>2020-04-19T14:21:01Z</time>
      </trkpt>
      <trkpt lat="-11.6506350" lon="166.9533170">
        <ele>12.6</ele>
        <time>2020-04-19T14:21:02Z</time>
      </trkpt>
      <trkpt lat="-11.6506050" lon="166.9532310">
        <ele>12.8</ele>
        <time>2020-04-19T14:21:03Z</time>
      </trkpt>
      <trkpt lat="-11.6505380" lon="166.9531770">
        <ele>13.0</ele>
        <time>2020-04-19T14:21:04Z</time>
      </trkpt>
      <trkpt lat="-11.6504650" lon="166.9531450">
        <ele>13.0</ele>
        <time>2020-04-19T14:21:05Z</time>
      </trkpt>
      <trkpt lat="-11.6503830" lon="166.9531130">
        <ele>13.2</ele>
        <time>2020-04-19T14:21:06Z</time>
      </trkpt>
      <trkpt lat="-11.6502970" lon="166.9530810">
        <ele>13.2</ele>
        <time>2020-04-19T14:21:07Z</time>
      </trkpt>
      <trkpt lat="-11.6502120" lon="166.9530700">
        <ele>13.4</ele>
        <time>2020-04-19T14:21:08Z</time>
      </trkpt>
      <trkpt lat="-11.6501290" lon="166.9530380">
        <ele>13.4</ele>
        <time>2020-04-19T14:21:09Z</time>
      </trkpt>
      <trkpt lat="-11.6500430" lon="166.9530270">
        <ele>13.6</ele>
        <time>2020-04-19T14:21:10Z</time>
      </trkpt>
      <trkpt lat="-11.6499540" lon="166.9530270">
        <ele>13.6</ele>
        <time>2020-04-19T14:21:11Z</time>
      </trkpt>
      <trkpt lat="-11.6498690" lon="166.9530060">
        <ele>13.8</ele>
        <time>2020-04-19T14:21:12Z</time>
      </trkpt>
      <trkpt lat="-11.6497900" lon="166.9529950">
        <ele>13.8</ele>
        <time>2020-04-19T14:21:13Z</time>
      </trkpt>
      <trkpt lat="-11.6497090" lon="166.9529740">
        <ele>14.0</ele>
        <time>2020-04-19T14:21:14Z</time>
      </trkpt>
      <trkpt lat="-11.6496300" lon="166.9529630">
        <ele>14.0</ele>
        <time>2020-04-19T14:21:15Z</time>
      </trkpt>
      <trkpt lat="-11.6495530" lon="166.9529410">
        <ele>14.0</ele>
        <time>2020-04-19T14:21:16Z</time>
      </trkpt>
      <trkpt lat="-11.6494720" lon="166.9529310">
        <ele>14.2</ele>
        <time>2020-04-19T14:21:17Z</time>
      </trkpt>
      <trkpt lat="-11.6493920" lon="166.9529310">
        <ele>14.2</ele>
        <time>2020-04-19T14:21:18Z</time>
      </trkpt>
      <trkpt lat="-11.6493100" lon="166.9529200">
        <ele>14.4</ele>
        <time>2020-04-19T14:21:19Z</time>
      </trkpt>
      <trkpt lat="-11.6492290" lon="166.9528990">
        <ele>14.4</ele>
        <time>2020-04-19T14:21:20Z</time>
      </trkpt>
      <trkpt lat="-11.6491490" lon="166.9528880">
        <ele>14.4</ele>
        <time>2020-04-19T14:21:21Z</time>
      </trkpt>
      <trkpt lat="-11.6490660" lon="166.9528660">
        <ele>14.6</ele>
        <time>2020-04-19T14:21:22Z</time>
      </trkpt>
      <trkpt lat="-11.6489810" lon="166.9528560">
        <ele>14.6</ele>
        <time>2020-04-19T14:21:23Z</time>
      </trkpt>
      <trkpt lat="-11.6488940" lon="166.9528560">
        <ele>14.8</ele>
        <time>2020-04-19T14:21:24Z</time>
      </trkpt>
      <trkpt lat="-11.6488080" lon="166.9528340">
        <ele>14.8</ele>
        <time>2020-04-19T14:21:25Z</time>
      </trkpt>
      <trkpt lat="-11.6487250" lon="166.9528230">
        <ele>15.0</ele>
        <time>2020-04-19T14:21:26Z</time>
      </trkpt>
      <trkpt lat="-11.6486450" lon="166.9528130">
        <ele>15.0</ele>
        <time>2020-04-19T14:21:27Z</time>
      </trkpt>
      <trkpt lat="-11.6485700" lon="166.9528130">
        <ele>15.0</ele>
        <time>2020-04-19T14:21:28Z</time>
      </trkpt>
      <trkpt lat="-11.6484900" lon="166.9527910">
        <ele>15.2</ele>
        <time>2020-04-19T14:21:29Z</time>
      </trkpt>
      <trkpt lat="-11.6484130" lon="166.9527800">
        <ele>15.2</ele>
        <time>2020-04-19T14:21:30Z</time>
      </trkpt>
      <trkpt lat="-11.6483360" lon="166.9527590">
        <ele>15.2</ele>
        <time>2020-04-19T14:21:31Z</time>
      </trkpt>
      <trkpt lat="-11.6482530" lon="166.9527590">
        <ele>15.4</ele>
        <time>2020-04-19T14:21:32Z</time>
      </trkpt>
      <trkpt lat="-11.6481710" lon="166.9527480">
        <ele>15.4</ele>
        <time>2020-04-19T14:21:33Z</time>
      </trkpt>
      <trkpt lat="-11.6480910" lon="166.9527160">
        <ele>15.4</ele>
        <time>2020-04-19T14:21:34Z</time>
      </trkpt>
      <trkpt lat="-11.6480380" lon="166.9526520">
        <ele>15.6</ele>
        <time>2020-04-19T14:21:35Z</time>
      </trkpt>
      <trkpt lat="-11.6480280" lon="166.9525660">
        <ele>15.6</ele>
        <time>2020-04-19T14:21:36Z</time>
      </trkpt>
      <trkpt lat="-11.6480360" lon="166.9524690">
        <ele>15.8</ele>
        <time>2020-04-19T14:21:37Z</time>
      </trkpt>
      <trkpt lat="-11.6480790" lon="166.9523940">
        <ele>15.8</ele>
        <time>2020-04-19T14:21:38Z</time>
      </trkpt>
      <trkpt lat="-11.6481590" lon="166.9523510">
        <ele>15.6</ele>
        <time>2020-04-19T14:21:39Z</time>
      </trkpt>
      <trkpt lat="-11.6482450" lon="166.9523410">
        <ele>15.6</ele>
        <time>2020-04-19T14:21:40Z</time>
      </trkpt>
      <trkpt lat="-11.6483340" lon="166.9523410">
        <ele>15.4</ele>
        <time>2020-04-19T14:21:41Z</time>
      </trkpt>
      <trkpt lat="-11.6484220" lon="166.9523190">
        <ele>15.4</ele>
        <time>2020-04-19T14:21:42Z</time>
      </trkpt>
      <trkpt lat="-11.6485110" lon="166.9523080">
        <ele>15.4</ele>
        <time>2020-04-19T14:21:43Z</time>
      </trkpt>
      <trkpt lat="-11.6486030" lon="166.9523080">
        <ele>15.6</ele>
        <time>2020-04-19T14:21:44Z</time>
      </trkpt>
      <trkpt lat="-11.6486890" lon="166.9523190">
        <ele>15.8</ele>
        <time>2020-04-19T14:21:45Z</time>
      </trkpt>
      <trkpt lat="-11.6487760" lon="166.9523410">
        <ele>16.2</ele>
        <time>2020-04-19T14:21:46Z</time>
      </trkpt>
      <trkpt lat="-11.6488580" lon="166.9523620">
        <ele>16.6</ele>
        <time>2020-04-19T14:21:47Z</time>
      </trkpt>
      <trkpt lat="-11.6489360" lon="166.9523840">
        <ele>17.0</ele>
        <time>2020-04-19T14:21:48Z</time>
      </trkpt>
      <trkpt lat="-11.6490110" lon="166.9523940">
        <ele>17.4</ele>
        <time>2020-04-19T14:21:49Z</time>
      </trkpt>
      <trkpt lat="-11.6490830" lon="166.9524160">
        <ele>17.8</ele>
        <time>2020-04-19T14:21:50Z</time>
      </trkpt>
      <trkpt lat="-11.6491530" lon="166.9524260">
        <ele>18.2</ele>
        <time>2020-04-19T14:21:51Z</time>
      </trkpt>
      <trkpt lat="-11.6492200" lon="166.9524370">
        <ele>18.6</ele>
        <time>2020-04-19T14:21:52Z</time>
      </trkpt>
      <trkpt lat="-11.6492870" lon="166.9524590">
        <ele>19.0</ele>
        <time>2020-04-19T14:21:53Z</time>
      </trkpt>
      <trkpt lat="-11.6493500" lon="166.9524590">
        <ele>19.2</ele>
        <time>2020-04-19T14:21:54Z</time>
      </trkpt>
      <trkpt lat="-11.6494160" lon="166.9524690">
        <ele>19.4</ele>
        <time>2020-04-19T14:21:55Z</time>
      </trkpt>
      <trkpt lat="-11.6494790" lon="166.9524690">
        <ele>19.6</ele>
        <time>2020-04-19T14:21:56Z</time>
      </trkpt>
      <trkpt lat="-11.6495430" lon="166.9524590">
        <ele>19.6</ele>
        <time>2020-04-19T14:21:57Z</time>
      </trkpt>
      <trkpt lat="-11.6496120" lon="166.9524590">
        <ele>19.8</ele>
        <time>2020-04-19T14:21:58Z</time>
      </trkpt>
      <trkpt lat="-11.6496800" lon="166.9524590">
        <ele>19.8</ele>
        <time>2020-04-19T14:21:59Z</time>
      </trkpt>
      <trkpt lat="-11.6497460" lon="166.9524370">
        <ele>19.8</ele>
        <time>2020-04-19T14:22:00Z</time>
      </trkpt>
      <trkpt lat="-11.6498140" lon="166.9524370">
        <ele>20.0</ele>
        <time>2020-04-19T14:22:01Z</time>
      </trkpt>
      <trkpt lat="-11.6498820" lon="166.9524370">
        <ele>20.0</ele>
        <time>2020-04-19T14:22:02Z</time>
      </trkpt>
      <trkpt lat="-11.6499580" lon="166.9524260">
        <ele>20.0</ele>
        <time>2020-04-19T14:22:03Z</time>
      </trkpt>
      <trkpt lat="-11.6500330" lon="166.9524260">
        <ele>20.0</ele>
        <time>2020-04-19T14:22:04Z</time>
      </trkpt>
      <trkpt lat="-11.6501120" lon="166.9524160">
        <ele>20.0</ele>
        <time>2020-04-19T14:22:05Z</time>
      </trkpt>
      <trkpt lat="-11.6501910" lon="166.9523940">
        <ele>19.8</ele>
        <time>2020-04-19T14:22:06Z</time>
      </trkpt>
      <trkpt lat="-11.6502770" lon="166.9523840">
        <ele>19.8</ele>
        <time>2020-04-19T14:22:07Z</time>
      </trkpt>
      <trkpt lat="-11.6503600" lon="166.9523510">
        <ele>19.8</ele>
        <time>2020-04-19T14:22:08Z</time>
      </trkpt>
      <trkpt lat="-11.6504440" lon="166.9523190">
        <ele>19.6</ele>
        <time>2020-04-19T14:22:09Z</time>
      </trkpt>
      <trkpt lat="-11.6505290" lon="166.9522870">
        <ele>19.4</ele>
        <time>2020-04-19T14:22:10Z</time>
      </trkpt>
      <trkpt lat="-11.6506090" lon="166.9522330">
        <ele>19.2</ele>
        <time>2020-04-19T14:22:11Z</time>
      </trkpt>
      <trkpt lat="-11.6506760" lon="166.9521690">
        <ele>19.0</ele>
        <time>2020-04-19T14:22:12Z</time>
      </trkpt>
      <trkpt lat="-11.6507210" lon="166.9520720">
        <ele>18.6</ele>
        <time>2020-04-19T14:22:13Z</time>
      </trkpt>
      <trkpt lat="-11.6507480" lon="166.9519650">
        <ele>18.0</ele>
        <time>2020-04-19T14:22:14Z</time>
      </trkpt>
      <trkpt lat="-11.6507650" lon="166.9518470">
        <ele>17.6</ele>
        <time>2020-04-19T14:22:15Z</time>
      </trkpt>
      <trkpt lat="-11.6507690" lon="166.9517290">
        <ele>17.0</ele>
        <time>2020-04-19T14:22:16Z</time>
      </trkpt>
      <trkpt lat="-11.6507720" lon="166.9516220">
        <ele>16.6</ele>
        <time>2020-04-19T14:22:17Z</time>
      </trkpt>
      <trkpt lat="-11.6507810" lon="166.9514820">
        <ele>16.0</ele>
        <time>2020-04-19T14:22:18Z</time>
      </trkpt>
      <trkpt lat="-11.6508070" lon="166.9513640">
        <ele>15.6</ele>
        <time>2020-04-19T14:22:19Z</time>
      </trkpt>
      <trkpt lat="-11.6508550" lon="166.9512570">
        <ele>15.2</ele>
        <time>2020-04-19T14:22:20Z</time>
      </trkpt>
      <trkpt lat="-11.6509220" lon="166.9511280">
        <ele>14.8</ele>
        <time>2020-04-19T14:22:21Z</time>
      </trkpt>
      <trkpt lat="-11.6510040" lon="166.9510420">
        <ele>14.6</ele>
        <time>2020-04-19T14:22:22Z</time>
      </trkpt>
      <trkpt lat="-11.6510880" lon="166.9509350">
        <ele>14.4</ele>
        <time>2020-04-19T14:22:23Z</time>
      </trkpt>
      <trkpt lat="-11.6511750" lon="166.9508390">
        <ele>14.2</ele>
        <time>2020-04-19T14:22:24Z</time>
      </trkpt>
      <trkpt lat="-11.6512600" lon="166.9507530">
        <ele>14.2</ele>
        <time>2020-04-19T14:22:25Z</time>
      </trkpt>
      <trkpt lat="-11.6513430" lon="166.9506560">
        <ele>14.0</ele>
        <time>2020-04-19T14:22:26Z</time>
      </trkpt>
      <trkpt lat="-11.6514130" lon="166.9505700">
        <ele>13.8</ele>
        <time>2020-04-19T14:22:27Z</time>
      </trkpt>
      <trkpt lat="-11.6514650" lon="166.9504630">
        <ele>13.8</ele>
        <time>2020-04-19T14:22:28Z</time>
      </trkpt>
      <trkpt lat="-11.6514990" lon="166.9503340">
        <ele>13.8</ele>
        <time>2020-04-19T14:22:29Z</time>
      </trkpt>
      <trkpt lat="-11.6515110" lon="166.9502270">
        <ele>13.8</ele>
        <time>2020-04-19T14:22:30Z</time>
      </trkpt>
      <trkpt lat="-11.6514960" lon="166.9501090">
        <ele>13.8</ele>
        <time>2020-04-19T14:22:31Z</time>
      </trkpt>
      <trkpt lat="-11.6514480" lon="166.9500020">
        <ele>13.6</ele>
        <time>2020-04-19T14:22:32Z</time>
      </trkpt>
      <trkpt lat="-11.6513630" lon="166.9499270">
        <ele>13.2</ele>
        <time>2020-04-19T14:22:33Z</time>
      </trkpt>
      <trkpt lat="-11.6512580" lon="166.9498840">
        <ele>12.6</ele>
        <time>2020-04-19T14:22:34Z</time>
      </trkpt>
      <trkpt lat="-11.6511470" lon="166.9498520">
        <ele>12.0</ele>
        <time>2020-04-19T14:22:35Z</time>
      </trkpt>
      <trkpt lat="-11.6510300" lon="166.9498190">
        <ele>11.4</ele>
        <time>2020-04-19T14:22:36Z</time>
      </trkpt>
      <trkpt lat="-11.6509120" lon="166.9497870">
        <ele>10.8</ele>
        <time>2020-04-19T14:22:37Z</time>
      </trkpt>
      <trkpt lat="-11.6508020" lon="166.9497440">
        <ele>10.4</ele>
        <time>2020-04-19T14:22:38Z</time>
      </trkpt>
      <trkpt lat="-11.6507260" lon="166.9496480">
        <ele>10.0</ele>
        <time>2020-04-19T14:22:39Z</time>
      </trkpt>
      <trkpt lat="-11.6507190" lon="166.9495080">
        <ele>9.8</ele>
        <time>2020-04-19T14:22:40Z</time>
      </trkpt>
      <trkpt lat="-11.6507540" lon="166.9494010">
        <ele>10.0</ele>
        <time>2020-04-19T14:22:41Z</time>
      </trkpt>
      <trkpt lat="-11.6508010" lon="166.9492830">
        <ele>10.0</ele>
        <time>2020-04-19T14:22:42Z</time>
      </trkpt>
      <trkpt lat="-11.6508520" lon="166.9491760">
        <ele>10.2</ele>
        <time>2020-04-19T14:22:43Z</time>
      </trkpt>
      <trkpt lat="-11.6508980" lon="166.9490680">
        <ele>10.6</ele>
        <time>2020-04-19T14:22:44Z</time>
      </trkpt>
      <trkpt lat="-11.6509420" lon="166.9489610">
        <ele>10.6</ele>
        <time>2020-04-19T14:22:45Z</time>
      </trkpt>
      <trkpt lat="-11.6509940" lon="166.9488750">
        <ele>10.8</ele>
        <time>2020-04-19T14:22:46Z</time>
      </trkpt>
      <trkpt lat="-11.6510490" lon="166.9487790">
        <ele>10.8</ele>
        <time>2020-04-19T14:22:47Z</time>
      </trkpt>
      <trkpt lat="-11.6511230" lon="166.9487040">
        <ele>10.8</ele>
        <time>2020-04-19T14:22:48Z</time>
      </trkpt>
      <trkpt lat="-11.6512140" lon="166.9486610">
        <ele>11.0</ele>
        <time>2020-04-19T14:22:49Z</time>
      </trkpt>
      <trkpt lat="-11.6513120" lon="166.9486280">
        <ele>10.8</ele>
        <time>2020-04-19T14:22:50Z</time>
      </trkpt>
      <trkpt lat="-11.6514130" lon="166.9486280">
        <ele>11.0</ele>
        <time>2020-04-19T14:22:51Z</time>
      </trkpt>
      <trkpt lat="-11.6515120" lon="166.9486610">
        <ele>11.0</ele>
        <time>2020-04-19T14:22:52Z</time>
      </trkpt>
      <trkpt lat="-11.6516070" lon="166.9486390">
        <ele>10.8</ele>
        <time>2020-04-19T14:22:53Z</time>
      </trkpt>
      <trkpt lat="-11.6516810" lon="166.9485860">
        <ele>10.6</ele>
        <time>2020-04-19T14:22:54Z</time>
      </trkpt>
      <trkpt lat="-11.6517240" lon="166.9484890">
        <ele>10.4</ele>
        <time>2020-04-19T14:22:55Z</time>
      </trkpt>
      <trkpt lat="-11.6517130" lon="166.9484030">
        <ele>10.2</ele>
        <time>2020-04-19T14:22:56Z</time>
      </trkpt>
      <trkpt lat="-11.6516660" lon="166.9483070">
        <ele>9.8</ele>
        <time>2020-04-19T14:22:57Z</time>
      </trkpt>
      <trkpt lat="-11.6515910" lon="166.9482420">
        <ele>9.6</ele>
        <time>2020-04-19T14:22:58Z</time>
      </trkpt>
      <trkpt lat="-11.6514950" lon="166.9482310">
        <ele>9.2</ele>
        <time>2020-04-19T14:22:59Z</time>
      </trkpt>
      <trkpt lat="-11.6513970" lon="166.9482420">
        <ele>9.0</ele>
        <time>2020-04-19T14:23:00Z</time>
      </trkpt>
      <trkpt lat="-11.6513010" lon="166.9482740">
        <ele>8.6</ele>
        <time>2020-04-19T14:23:01Z</time>
      </trkpt>
      <trkpt lat="-11.6512020" lon="166.9482740">
        <ele>8.4</ele>
        <time>2020-04-19T14:23:02Z</time>
      </trkpt>
      <trkpt lat="-11.6511070" lon="166.9482640">
        <ele>8.2</ele>
        <time>2020-04-19T14:23:03Z</time>
      </trkpt>
      <trkpt lat="-11.6510120" lon="166.9482420">
        <ele>7.8</ele>
        <time>2020-04-19T14:23:04Z</time>
      </trkpt>
      <trkpt lat="-11.6509220" lon="166.9481990">
        <ele>7.6</ele>
        <time>2020-04-19T14:23:05Z</time>
      </trkpt>
      <trkpt lat="-11.6508680" lon="166.9481240">
        <ele>7.4</ele>
        <time>2020-04-19T14:23:06Z</time>
      </trkpt>
      <trkpt lat="-11.6508790" lon="166.9480280">
        <ele>7.0</ele>
        <time>2020-04-19T14:23:07Z</time>
      </trkpt>
      <trkpt lat="-11.6509500" lon="166.9479740">
        <ele>6.8</ele>
        <time>2020-04-19T14:23:08Z</time>
      </trkpt>
      <trkpt lat="-11.6510400" lon="166.9479420">
        <ele>6.6</ele>
        <time>2020-04-19T14:23:09Z</time>
      </trkpt>
      <trkpt lat="-11.6511320" lon="166.9479100">
        <ele>6.4</ele>
        <time>2020-04-19T14:23:10Z</time>
      </trkpt>
      <trkpt lat="-11.6512090" lon="166.9478450">
        <ele>6.2</ele>
        <time>2020-04-19T14:23:11Z</time>
      </trkpt>
      <trkpt lat="-11.6512490" lon="166.9477700">
        <ele>6.2</ele>
        <time>2020-04-19T14:23:12Z</time>
      </trkpt>
      <trkpt lat="-11.6512380" lon="166.9476630">
        <ele>5.8</ele>
        <time>2020-04-19T14:23:13Z</time>
      </trkpt>
      <trkpt lat="-11.6511780" lon="166.9476090">
        <ele>5.4</ele>
        <time>2020-04-19T14:23:14Z</time>
      </trkpt>
      <trkpt lat="-11.6510890" lon="166.9475560">
        <ele>5.0</ele>
        <time>2020-04-19T14:23:15Z</time>
      </trkpt>
      <trkpt lat="-11.6509930" lon="166.9475560">
        <ele>4.6</ele>
        <time>2020-04-19T14:23:16Z</time>
      </trkpt>
      <trkpt lat="-11.6508950" lon="166.9475770">
        <ele>4.4</ele>
        <time>2020-04-19T14:23:17Z</time>
      </trkpt>
      <trkpt lat="-11.6508040" lon="166.9476090">
        <ele>4.0</ele>
        <time>2020-04-19T14:23:18Z</time>
      </trkpt>
      <trkpt lat="-11.6507150" lon="166.9476520">
        <ele>3.6</ele>
        <time>2020-04-19T14:23:19Z</time>
      </trkpt>
      <trkpt lat="-11.6506380" lon="166.9477160">
        <ele>3.4</ele>
        <time>2020-04-19T14:23:20Z</time>
      </trkpt>
      <trkpt lat="-11.6505570" lon="166.9477700">
        <ele>3.0</ele>
        <time>2020-04-19T14:23:21Z</time>
      </trkpt>
      <trkpt lat="-11.6504650" lon="166.9478020">
        <ele>2.8</ele>
        <time>2020-04-19T14:23:22Z</time>
      </trkpt>
      <trkpt lat="-11.6503670" lon="166.9478240">
        <ele>2.4</ele>
        <time>2020-04-19T14:23:23Z</time>
      </trkpt>
      <trkpt lat="-11.6502660" lon="166.9478240">
        <ele>2.0</ele>
        <time>2020-04-19T14:23:24Z</time>
      </trkpt>
      <trkpt lat="-11.6501680" lon="166.9478020">
        <ele>1.8</ele>
        <time>2020-04-19T14:23:25Z</time>
      </trkpt>
      <trkpt lat="-11.6500720" lon="166.9477700">
        <ele>1.8</ele>
        <time>2020-04-19T14:23:26Z</time>
      </trkpt>
      <trkpt lat="-11.6499800" lon="166.9477380">
        <ele>1.6</ele>
        <time>2020-04-19T14:23:27Z</time>
      </trkpt>
      <trkpt lat="-11.6498910" lon="166.9477160">
        <ele>1.8</ele>
        <time>2020-04-19T14:23:28Z</time>
      </trkpt>
      <trkpt lat="-11.6498070" lon="166.9476840">
        <ele>1.8</ele>
        <time>2020-04-19T14:23:29Z</time>
      </trkpt>
      <trkpt lat="-11.6497260" lon="166.9476310">
        <ele>1.8</ele>
        <time>2020-04-19T14:23:30Z</time>
      </trkpt>
      <trkpt lat="-11.6496500" lon="166.9475880">
        <ele>2.0</ele>
        <time>2020-04-19T14:23:31Z</time>
      </trkpt>
      <trkpt lat="-11.6495790" lon="166.9475450">
        <ele>2.0</ele>
        <time>2020-04-19T14:23:32Z</time>
      </trkpt>
      <trkpt lat="-11.6495150" lon="166.9475020">
        <ele>2.0</ele>
        <time>2020-04-19T14:23:33Z</time>
      </trkpt>
      <trkpt lat="-11.6494610" lon="166.9474270">
        <ele>1.8</ele>
        <time>2020-04-19T14:23:34Z</time>
      </trkpt>
      <trkpt lat="-11.6494160" lon="166.9473620">
        <ele>1.6</ele>
        <time>2020-04-19T14:23:35Z</time>
      </trkpt>
      <trkpt lat="-11.6493720" lon="166.9472870">
        <ele>1.4</ele>
        <time>2020-04-19T14:23:36Z</time>
      </trkpt>
      <trkpt lat="-11.6493260" lon="166.9472120">
        <ele>1.4</ele>
        <time>2020-04-19T14:23:37Z</time>
      </trkpt>
      <trkpt lat="-11.6492740" lon="166.9471480">
        <ele>1.2</ele>
        <time>2020-04-19T14:23:38Z</time>
      </trkpt>
      <trkpt lat="-11.6492150" lon="166.9470830">
        <ele>1.2</ele>
        <time>2020-04-19T14:23:39Z</time>
      </trkpt>
      <trkpt lat="-11.6491500" lon="166.9470300">
        <ele>1.2</ele>
        <time>2020-04-19T14:23:40Z</time>
      </trkpt>
      <trkpt lat="-11.6490850" lon="166.9469760">
        <ele>1.2</ele>
        <time>2020-04-19T14:23:41Z</time>
      </trkpt>
      <trkpt lat="-11.6490160" lon="166.9469330">
        <ele>1.2</ele>
        <time>2020-04-19T14:23:42Z</time>
      </trkpt>
      <trkpt lat="-11.6489500" lon="166.9468900">
        <ele>1.2</ele>
        <time>2020-04-19T14:23:43Z</time>
      </trkpt>
      <trkpt lat="-11.6488810" lon="166.9468470">
        <ele>1.2</ele>
        <time>2020-04-19T14:23:44Z</time>
      </trkpt>
      <trkpt lat="-11.6488150" lon="166.9467940">
        <ele>1.2</ele>
        <time>2020-04-19T14:23:45Z</time>
      </trkpt>
      <trkpt lat="-11.6487480" lon="166.9467510">
        <ele>1.2</ele>
        <time>2020-04-19T14:23:46Z</time>
      </trkpt>
      <trkpt lat="-11.6486820" lon="166.9467080">
        <ele>1.2</ele>
        <time>2020-04-19T14:23:47Z</time>
      </trkpt>
      <trkpt lat="-11.6486160" lon="166.9466540">
        <ele>1.2</ele>
        <time>2020-04-19T14:23:48Z</time>
      </trkpt>
      <trkpt lat="-11.6485530" lon="166.9466010">
        <ele>1.2</ele>
        <time>2020-04-19T14:23:49Z</time>
      </trkpt>
      <trkpt lat="-11.6484920" lon="166.9465360">
        <ele>1.2</ele>
        <time>2020-04-19T14:23:50Z</time>
      </trkpt>
      <trkpt lat="-11.6484310" lon="166.9464720">
        <ele>1.2</ele>
        <time>2020-04-19T14:23:51Z</time>
      </trkpt>
      <trkpt lat="-11.6483760" lon="166.9464180">
        <ele>1.2</ele>
        <time>2020-04-19T14:23:52Z</time>
      </trkpt>
      <trkpt lat="-11.6483250" lon="166.9463430">
        <ele>1.2</ele>
        <time>2020-04-19T14:23:53Z</time>
      </trkpt>
      <trkpt lat="-11.6482800" lon="166.9462570">
        <ele>1.2</ele>
        <time>2020-04-19T14:23:54Z</time>
      </trkpt>
      <trkpt lat="-11.6482370" lon="166.9461720">
        <ele>1.2</ele>
        <time>2020-04-19T14:23:55Z</time>
      </trkpt>
      <trkpt lat="-11.6481980" lon="166.9460960">
        <ele>1.2</ele>
        <time>2020-04-19T14:23:56Z</time>
      </trkpt>
      <trkpt lat="-11.6481620" lon="166.9460000">
        <ele>1.2</ele>
        <time>2020-04-19T14:23:57Z</time>
      </trkpt>
      <trkpt lat="-11.6481270" lon="166.9459140">
        <ele>1.2</ele>
        <time>2020-04-19T14:23:58Z</time>
      </trkpt>
      <trkpt lat="-11.6480960" lon="166.9458170">
        <ele>1.2</ele>
        <time>2020-04-19T14:23:59Z</time>
      </trkpt>
      <trkpt lat="-11.6480680" lon="166.9457320">
        <ele>1.2</ele>
        <time>2020-04-19T14:24:00Z</time>
      </trkpt>
      <trkpt lat="-11.6480400" lon="166.9456240">
        <ele>1.2</ele>
        <time>2020-04-19T14:24:01Z</time>
      </trkpt>
      <trkpt lat="-11.6480140" lon="166.9455280">
        <ele>1.2</ele>
        <time>2020-04-19T14:24:02Z</time>
      </trkpt>
      <trkpt lat="-11.6479900" lon="166.9454420">
        <ele>1.2</ele>
        <time>2020-04-19T14:24:03Z</time>
      </trkpt>
      <trkpt lat="-11.6479660" lon="166.9453350">
        <ele>1.2</ele>
        <time>2020-04-19T14:24:04Z</time>
      </trkpt>
      <trkpt lat="-11.6479430" lon="166.9452380">
        <ele>1.2</ele>
        <time>2020-04-19T14:24:05Z</time>
      </trkpt>
      <trkpt lat="-11.6479200" lon="166.9451520">
        <ele>1.2</ele>
        <time>2020-04-19T14:24:06Z</time>
      </trkpt>
      <trkpt lat="-11.6478980" lon="166.9450560">
        <ele>1.2</ele>
        <time>2020-04-19T14:24:07Z</time>
      </trkpt>
      <trkpt lat="-11.6478760" lon="166.9449480">
        <ele>1.2</ele>
        <time>2020-04-19T14:24:08Z</time>
      </trkpt>
      <trkpt lat="-11.6478550" lon="166.9448630">
        <ele>1.2</ele>
        <time>2020-04-19T14:24:09Z</time>
      </trkpt>
      <trkpt lat="-11.6478350" lon="166.9447660">
        <ele>1.2</ele>
        <time>2020-04-19T14:24:10Z</time>
      </trkpt>
      <trkpt lat="-11.6478160" lon="166.9446800">
        <ele>1.2</ele>
        <time>2020-04-19T14:24:11Z</time>
      </trkpt>
      <trkpt lat="-11.6477980" lon="166.9445730">
        <ele>1.2</ele>
        <time>2020-04-19T14:24:12Z</time>
      </trkpt>
      <trkpt lat="-11.6477810" lon="166.9444760">
        <ele>1.2</ele>
        <time>2020-04-19T14:24:13Z</time>
      </trkpt>
      <trkpt lat="-11.6477650" lon="166.9443910">
        <ele>1.2</ele>
        <time>2020-04-19T14:24:14Z</time>
      </trkpt>
      <trkpt lat="-11.6477530" lon="166.9442940">
        <ele>1.2</ele>
        <time>2020-04-19T14:24:15Z</time>
      </trkpt>
      <trkpt lat="-11.6477420" lon="166.9441970">
        <ele>1.2</ele>
        <time>2020-04-19T14:24:16Z</time>
      </trkpt>
      <trkpt lat="-11.6477330" lon="166.9441010">
        <ele>1.2</ele>
        <time>2020-04-19T14:24:17Z</time>
      </trkpt>
      <trkpt lat="-11.6477250" lon="166.9440040">
        <ele>1.2</ele>
        <time>2020-04-19T14:24:18Z</time>
      </trkpt>
      <trkpt lat="-11.6477190" lon="166.9439080">
        <ele>1.2</ele>
        <time>2020-04-19T14:24:19Z</time>
      </trkpt>
      <trkpt lat="-11.6477140" lon="166.9438220">
        <ele>1.2</ele>
        <time>2020-04-19T14:24:20Z</time>
      </trkpt>
      <trkpt lat="-11.6477130" lon="166.9437250">
        <ele>1.2</ele>
        <time>2020-04-19T14:24:21Z</time>
      </trkpt>
      <trkpt lat="-11.6477110" lon="166.9436400">
        <ele>1.2</ele>
        <time>2020-04-19T14:24:22Z</time>
      </trkpt>
      <trkpt lat="-11.6477130" lon="166.9435320">
        <ele>1.2</ele>
        <time>2020-04-19T14:24:23Z</time>
      </trkpt>
      <trkpt lat="-11.6477180" lon="166.9434360">
        <ele>1.2</ele>
        <time>2020-04-19T14:24:24Z</time>
      </trkpt>
      <trkpt lat="-11.6477260" lon="166.9433280">
        <ele>1.2</ele>
        <time>2020-04-19T14:24:25Z</time>
      </trkpt>
      <trkpt lat="-11.6477350" lon="166.9432430">
        <ele>1.2</ele>
        <time>2020-04-19T14:24:26Z</time>
      </trkpt>
      <trkpt lat="-11.6477450" lon="166.9431350">
        <ele>1.2</ele>
        <time>2020-04-19T14:24:27Z</time>
      </trkpt>
      <trkpt lat="-11.6477580" lon="166.9430390">
        <ele>1.2</ele>
        <time>2020-04-19T14:24:28Z</time>
      </trkpt>
      <trkpt lat="-11.6477720" lon="166.9429310">
        <ele>1.0</ele>
        <time>2020-04-19T14:24:29Z</time>
      </trkpt>
      <trkpt lat="-11.6477850" lon="166.9428460">
        <ele>1.0</ele>
        <time>2020-04-19T14:24:30Z</time>
      </trkpt>
      <trkpt lat="-11.6477980" lon="166.9427380">
        <ele>1.0</ele>
        <time>2020-04-19T14:24:31Z</time>
      </trkpt>
      <trkpt lat="-11.6478150" lon="166.9426420">
        <ele>1.0</ele>
        <time>2020-04-19T14:24:32Z</time>
      </trkpt>
      <trkpt lat="-11.6478290" lon="166.9425340">
        <ele>1.0</ele>
        <time>2020-04-19T14:24:33Z</time>
      </trkpt>
      <trkpt lat="-11.6478440" lon="166.9424490">
        <ele>1.0</ele>
        <time>2020-04-19T14:24:34Z</time>
      </trkpt>
      <trkpt lat="-11.6478590" lon="166.9423410">
        <ele>1.0</ele>
        <time>2020-04-19T14:24:35Z</time>
      </trkpt>
      <trkpt lat="-11.6478740" lon="166.9422340">
        <ele>1.0</ele>
        <time>2020-04-19T14:24:36Z</time>
      </trkpt>
      <trkpt lat="-11.6478880" lon="166.9421370">
        <ele>0.8</ele>
        <time>2020-04-19T14:24:37Z</time>
      </trkpt>
      <trkpt lat="-11.6479000" lon="166.9420410">
        <ele>0.8</ele>
        <time>2020-04-19T14:24:38Z</time>
      </trkpt>
      <trkpt lat="-11.6479190" lon="166.9419440">
        <ele>0.8</ele>
        <time>2020-04-19T14:24:39Z</time>
      </trkpt>
      <trkpt lat="-11.6479430" lon="166.9418370">
        <ele>0.8</ele>
        <time>2020-04-19T14:24:40Z</time>
      </trkpt>
      <trkpt lat="-11.6479500" lon="166.9417510">
        <ele>0.8</ele>
        <time>2020-04-19T14:24:41Z</time>
      </trkpt>
      <trkpt lat="-11.6479510" lon="166.9416440">
        <ele>0.8</ele>
        <time>2020-04-19T14:24:42Z</time>
      </trkpt>
      <trkpt lat="-11.6479500" lon="166.9415370">
        <ele>0.8</ele>
        <time>2020-04-19T14:24:43Z</time>
      </trkpt>
      <trkpt lat="-11.6479470" lon="166.9414400">
        <ele>1.0</ele>
        <time>2020-04-19T14:24:44Z</time>
      </trkpt>
      <trkpt lat="-11.6479410" lon="166.9413330">
        <ele>1.0</ele>
        <time>2020-04-19T14:24:45Z</time>
      </trkpt>
      <trkpt lat="-11.6479340" lon="166.9412260">
        <ele>1.0</ele>
        <time>2020-04-19T14:24:46Z</time>
      </trkpt>
      <trkpt lat="-11.6479260" lon="166.9411400">
        <ele>1.0</ele>
        <time>2020-04-19T14:24:47Z</time>
      </trkpt>
      <trkpt lat="-11.6479180" lon="166.9410320">
        <ele>1.2</ele>
        <time>2020-04-19T14:24:48Z</time>
      </trkpt>
      <trkpt lat="-11.6479120" lon="166.9409250">
        <ele>1.2</ele>
        <time>2020-04-19T14:24:49Z</time>
      </trkpt>
      <trkpt lat="-11.6478990" lon="166.9408290">
        <ele>1.4</ele>
        <time>2020-04-19T14:24:50Z</time>
      </trkpt>
      <trkpt lat="-11.6478790" lon="166.9407430">
        <ele>1.4</ele>
        <time>2020-04-19T14:24:51Z</time>
      </trkpt>
      <trkpt lat="-11.6478590" lon="166.9406350">
        <ele>1.6</ele>
        <time>2020-04-19T14:24:52Z</time>
      </trkpt>
      <trkpt lat="-11.6478390" lon="166.9405390">
        <ele>1.6</ele>
        <time>2020-04-19T14:24:53Z</time>
      </trkpt>
      <trkpt lat="-11.6478190" lon="166.9404530">
        <ele>1.8</ele>
        <time>2020-04-19T14:24:54Z</time>
      </trkpt>
      <trkpt lat="-11.6477980" lon="166.9403560">
        <ele>1.8</ele>
        <time>2020-04-19T14:24:55Z</time>
      </trkpt>
      <trkpt lat="-11.6477730" lon="166.9402710">
        <ele>2.0</ele>
        <time>2020-04-19T14:24:56Z</time>
      </trkpt>
      <trkpt lat="-11.6477420" lon="166.9401740">
        <ele>2.0</ele>
        <time>2020-04-19T14:24:57Z</time>
      </trkpt>
      <trkpt lat="-11.6477130" lon="166.9400990">
        <ele>2.2</ele>
        <time>2020-04-19T14:24:58Z</time>
      </trkpt>
      <trkpt lat="-11.6476800" lon="166.9400020">
        <ele>2.2</ele>
        <time>2020-04-19T14:24:59Z</time>
      </trkpt>
      <trkpt lat="-11.6476500" lon="166.9399270">
        <ele>2.2</ele>
        <time>2020-04-19T14:25:00Z</time>
      </trkpt>
      <trkpt lat="-11.6476160" lon="166.9398420">
        <ele>2.4</ele>
        <time>2020-04-19T14:25:01Z</time>
      </trkpt>
      <trkpt lat="-11.6475810" lon="166.9397660">
        <ele>2.4</ele>
        <time>2020-04-19T14:25:02Z</time>
      </trkpt>
      <trkpt lat="-11.6475420" lon="166.9396910">
        <ele>2.4</ele>
        <time>2020-04-19T14:25:03Z</time>
      </trkpt>
      <trkpt lat="-11.6475010" lon="166.9396050">
        <ele>2.4</ele>
        <time>2020-04-19T14:25:04Z</time>
      </trkpt>
      <trkpt lat="-11.6474550" lon="166.9395300">
        <ele>2.4</ele>
        <time>2020-04-19T14:25:05Z</time>
      </trkpt>
      <trkpt lat="-11.6474080" lon="166.9394550">
        <ele>2.4</ele>
        <time>2020-04-19T14:25:06Z</time>
      </trkpt>
      <trkpt lat="-11.6473590" lon="166.9393800">
        <ele>2.4</ele>
        <time>2020-04-19T14:25:07Z</time>
      </trkpt>
      <trkpt lat="-11.6473060" lon="166.9393050">
        <ele>2.4</ele>
        <time>2020-04-19T14:25:08Z</time>
      </trkpt>
      <trkpt lat="-11.6472540" lon="166.9392410">
        <ele>2.4</ele>
        <time>2020-04-19T14:25:09Z</time>
      </trkpt>
      <trkpt lat="-11.6472000" lon="166.9391660">
        <ele>2.4</ele>
        <time>2020-04-19T14:25:10Z</time>
      </trkpt>
      <trkpt lat="-11.6471480" lon="166.9390900">
        <ele>2.4</ele>
        <time>2020-04-19T14:25:11Z</time>
      </trkpt>
      <trkpt lat="-11.6470930" lon="166.9390150">
        <ele>2.4</ele>
        <time>2020-04-19T14:25:12Z</time>
      </trkpt>
      <trkpt lat="-11.6470430" lon="166.9389400">
        <ele>2.4</ele>
        <time>2020-04-19T14:25:13Z</time>
      </trkpt>
      <trkpt lat="-11.6469920" lon="166.9388650">
        <ele>2.4</ele>
        <time>2020-04-19T14:25:14Z</time>
      </trkpt>
      <trkpt lat="-11.6469410" lon="166.9387900">
        <ele>2.4</ele>
        <time>2020-04-19T14:25:15Z</time>
      </trkpt>
      <trkpt lat="-11.6468900" lon="166.9387040">
        <ele>2.4</ele>
        <time>2020-04-19T14:25:16Z</time>
      </trkpt>
      <trkpt lat="-11.6468410" lon="166.9386180">
        <ele>2.4</ele>
        <time>2020-04-19T14:25:17Z</time>
      </trkpt>
      <trkpt lat="-11.6467980" lon="166.9385430">
        <ele>2.4</ele>
        <time>2020-04-19T14:25:18Z</time>
      </trkpt>
      <trkpt lat="-11.6467550" lon="166.9384680">
        <ele>2.4</ele>
        <time>2020-04-19T14:25:19Z</time>
      </trkpt>
      <trkpt lat="-11.6467080" lon="166.9383930">
        <ele>2.4</ele>
        <time>2020-04-19T14:25:20Z</time>
      </trkpt>
      <trkpt lat="-11.6466600" lon="166.9382970">
        <ele>2.4</ele>
        <time>2020-04-19T14:25:21Z</time>
      </trkpt>
      <trkpt lat="-11.6466080" lon="166.9382210">
        <ele>2.4</ele>
        <time>2020-04-19T14:25:22Z</time>
      </trkpt>
      <trkpt lat="-11.6465590" lon="166.9381460">
        <ele>2.4</ele>
        <time>2020-04-19T14:25:23Z</time>
      </trkpt>
      <trkpt lat="-11.6465100" lon="166.9380710">
        <ele>2.4</ele>
        <time>2020-04-19T14:25:24Z</time>
      </trkpt>
      <trkpt lat="-11.6464590" lon="166.9379750">
        <ele>2.4</ele>
        <time>2020-04-19T14:25:25Z</time>
      </trkpt>
      <trkpt lat="-11.6464080" lon="166.9379000">
        <ele>2.4</ele>
        <time>2020-04-19T14:25:26Z</time>
      </trkpt>
      <trkpt lat="-11.6463540" lon="166.9378240">
        <ele>2.4</ele>
        <time>2020-04-19T14:25:27Z</time>
      </trkpt>
      <trkpt lat="-11.6462960" lon="166.9377490">
        <ele>2.4</ele>
        <time>2020-04-19T14:25:28Z</time>
      </trkpt>
      <trkpt lat="-11.6462280" lon="166.9376850">
        <ele>2.4</ele>
        <time>2020-04-19T14:25:29Z</time>
      </trkpt>
      <trkpt lat="-11.6461500" lon="166.9376310">
        <ele>2.4</ele>
        <time>2020-04-19T14:25:30Z</time>
      </trkpt>
      <trkpt lat="-11.6460680" lon="166.9375780">
        <ele>2.4</ele>
        <time>2020-04-19T14:25:31Z</time>
      </trkpt>
      <trkpt lat="-11.6459870" lon="166.9375240">
        <ele>2.4</ele>
        <time>2020-04-19T14:25:32Z</time>
      </trkpt>
      <trkpt lat="-11.6459090" lon="166.9374600">
        <ele>2.4</ele>
        <time>2020-04-19T14:25:33Z</time>
      </trkpt>
      <trkpt lat="-11.6458420" lon="166.9373950">
        <ele>2.4</ele>
        <time>2020-04-19T14:25:34Z</time>
      </trkpt>
      <trkpt lat="-11.6457880" lon="166.9373100">
        <ele>2.4</ele>
        <time>2020-04-19T14:25:35Z</time>
      </trkpt>
      <trkpt lat="-11.6457510" lon="166.9372130">
        <ele>2.2</ele>
        <time>2020-04-19T14:25:36Z</time>
      </trkpt>
      <trkpt lat="-11.6457210" lon="166.9371270">
        <ele>2.2</ele>
        <time>2020-04-19T14:25:37Z</time>
      </trkpt>
      <trkpt lat="-11.6456970" lon="166.9370310">
        <ele>2.2</ele>
        <time>2020-04-19T14:25:38Z</time>
      </trkpt>
      <trkpt lat="-11.6456750" lon="166.9369450">
        <ele>2.2</ele>
        <time>2020-04-19T14:25:39Z</time>
      </trkpt>
      <trkpt lat="-11.6456550" lon="166.9368370">
        <ele>2.2</ele>
        <time>2020-04-19T14:25:40Z</time>
      </trkpt>
      <trkpt lat="-11.6456350" lon="166.9367410">
        <ele>2.2</ele>
        <time>2020-04-19T14:25:41Z</time>
      </trkpt>
      <trkpt lat="-11.6456100" lon="166.9366440">
        <ele>2.2</ele>
        <time>2020-04-19T14:25:42Z</time>
      </trkpt>
      <trkpt lat="-11.6455830" lon="166.9365480">
        <ele>2.2</ele>
        <time>2020-04-19T14:25:43Z</time>
      </trkpt>
      <trkpt lat="-11.6455440" lon="166.9364510">
        <ele>2.2</ele>
        <time>2020-04-19T14:25:44Z</time>
      </trkpt>
      <trkpt lat="-11.6454980" lon="166.9363760">
        <ele>2.2</ele>
        <time>2020-04-19T14:25:45Z</time>
      </trkpt>
      <trkpt lat="-11.6454410" lon="166.9363010">
        <ele>2.2</ele>
        <time>2020-04-19T14:25:46Z</time>
      </trkpt>
      <trkpt lat="-11.6453750" lon="166.9362260">
        <ele>2.2</ele>
        <time>2020-04-19T14:25:47Z</time>
      </trkpt>
      <trkpt lat="-11.6453050" lon="166.9361620">
        <ele>2.2</ele>
        <time>2020-04-19T14:25:48Z</time>
      </trkpt>
      <trkpt lat="-11.6452330" lon="166.9360970">
        <ele>2.2</ele>
        <time>2020-04-19T14:25:49Z</time>
      </trkpt>
      <trkpt lat="-11.6451580" lon="166.9360440">
        <ele>2.2</ele>
        <time>2020-04-19T14:25:50Z</time>
      </trkpt>
      <trkpt lat="-11.6450770" lon="166.9359790">
        <ele>2.2</ele>
        <time>2020-04-19T14:25:51Z</time>
      </trkpt>
      <trkpt lat="-11.6449980" lon="166.9359360">
        <ele>2.2</ele>
        <time>2020-04-19T14:25:52Z</time>
      </trkpt>
      <trkpt lat="-11.6449150" lon="166.9358830">
        <ele>2.2</ele>
        <time>2020-04-19T14:25:53Z</time>
      </trkpt>
      <trkpt lat="-11.6448280" lon="166.9358290">
        <ele>2.2</ele>
        <time>2020-04-19T14:25:54Z</time>
      </trkpt>
      <trkpt lat="-11.6447430" lon="166.9357750">
        <ele>2.2</ele>
        <time>2020-04-19T14:25:55Z</time>
      </trkpt>
      <trkpt lat="-11.6446550" lon="166.9357540">
        <ele>2.2</ele>
        <time>2020-04-19T14:25:56Z</time>
      </trkpt>
      <trkpt lat="-11.6445650" lon="166.9357000">
        <ele>2.2</ele>
        <time>2020-04-19T14:25:57Z</time>
      </trkpt>
      <trkpt lat="-11.6444740" lon="166.9356570">
        <ele>2.2</ele>
        <time>2020-04-19T14:25:58Z</time>
      </trkpt>
      <trkpt lat="-11.6443800" lon="166.9356250">
        <ele>2.2</ele>
        <time>2020-04-19T14:25:59Z</time>
      </trkpt>
      <trkpt lat="-11.6442850" lon="166.9355930">
        <ele>2.2</ele>
        <time>2020-04-19T14:26:00Z</time>
      </trkpt>
      <trkpt lat="-11.6441870" lon="166.9355820">
        <ele>2.2</ele>
        <time>2020-04-19T14:26:01Z</time>
      </trkpt>
      <trkpt lat="-11.6440880" lon="166.9355820">
        <ele>2.2</ele>
        <time>2020-04-19T14:26:02Z</time>
      </trkpt>
      <trkpt lat="-11.6439920" lon="166.9355930">
        <ele>2.2</ele>
        <time>2020-04-19T14:26:03Z</time>
      </trkpt>
      <trkpt lat="-11.6438940" lon="166.9355930">
        <ele>2.2</ele>
        <time>2020-04-19T14:26:04Z</time>
      </trkpt>
      <trkpt lat="-11.6438010" lon="166.9356250">
        <ele>2.2</ele>
        <time>2020-04-19T14:26:05Z</time>
      </trkpt>
      <trkpt lat="-11.6437070" lon="166.9356470">
        <ele>2.2</ele>
        <time>2020-04-19T14:26:06Z</time>
      </trkpt>
      <trkpt lat="-11.6436140" lon="166.9356570">
        <ele>2.2</ele>
        <time>2020-04-19T14:26:07Z</time>
      </trkpt>
      <trkpt lat="-11.6435200" lon="166.9356680">
        <ele>2.2</ele>
        <time>2020-04-19T14:26:08Z</time>
      </trkpt>
      <trkpt lat="-11.6434250" lon="166.9356890">
        <ele>2.2</ele>
        <time>2020-04-19T14:26:09Z</time>
      </trkpt>
      <trkpt lat="-11.6433310" lon="166.9357000">
        <ele>2.2</ele>
        <time>2020-04-19T14:26:10Z</time>
      </trkpt>
      <trkpt lat="-11.6432390" lon="166.9357220">
        <ele>2.2</ele>
        <time>2020-04-19T14:26:11Z</time>
      </trkpt>
      <trkpt lat="-11.6431430" lon="166.9357000">
        <ele>2.2</ele>
        <time>2020-04-19T14:26:12Z</time>
      </trkpt>
      <trkpt lat="-11.6430540" lon="166.9356680">
        <ele>2.2</ele>
        <time>2020-04-19T14:26:13Z</time>
      </trkpt>
      <trkpt lat="-11.6429650" lon="166.9356250">
        <ele>2.2</ele>
        <time>2020-04-19T14:26:14Z</time>
      </trkpt>
      <trkpt lat="-11.6428730" lon="166.9356140">
        <ele>2.4</ele>
        <time>2020-04-19T14:26:15Z</time>
      </trkpt>
      <trkpt lat="-11.6427970" lon="166.9356680">
        <ele>2.6</ele>
        <time>2020-04-19T14:26:16Z</time>
      </trkpt>
      <trkpt lat="-11.6427920" lon="166.9357540">
        <ele>3.2</ele>
        <time>2020-04-19T14:26:17Z</time>
      </trkpt>
      <trkpt lat="-11.6428560" lon="166.9358070">
        <ele>3.8</ele>
        <time>2020-04-19T14:26:18Z</time>
      </trkpt>
      <trkpt lat="-11.6429290" lon="166.9358610">
        <ele>4.4</ele>
        <time>2020-04-19T14:26:19Z</time>
      </trkpt>
      <trkpt lat="-11.6430010" lon="166.9358830">
        <ele>4.8</ele>
        <time>2020-04-19T14:26:20Z</time>
      </trkpt>
      <trkpt lat="-11.6430720" lon="166.9359150">
        <ele>5.2</ele>
        <time>2020-04-19T14:26:21Z</time>
      </trkpt>
      <trkpt lat="-11.6431420" lon="166.9359470">
        <ele>5.6</ele>
        <time>2020-04-19T14:26:22Z</time>
      </trkpt>
      <trkpt lat="-11.6432090" lon="166.9359580">
        <ele>6.0</ele>
        <time>2020-04-19T14:26:23Z</time>
      </trkpt>
      <trkpt lat="-11.6432800" lon="166.9359790">
        <ele>6.4</ele>
        <time>2020-04-19T14:26:24Z</time>
      </trkpt>
      <trkpt lat="-11.6433460" lon="166.9359900">
        <ele>6.8</ele>
        <time>2020-04-19T14:26:25Z</time>
      </trkpt>
      <trkpt lat="-11.6434140" lon="166.9359900">
        <ele>7.0</ele>
        <time>2020-04-19T14:26:26Z</time>
      </trkpt>
      <trkpt lat="-11.6434790" lon="166.9359900">
        <ele>7.4</ele>
        <time>2020-04-19T14:26:27Z</time>
      </trkpt>
      <trkpt lat="-11.6435430" lon="166.9360110">
        <ele>7.6</ele>
        <time>2020-04-19T14:26:28Z</time>
      </trkpt>
      <trkpt lat="-11.6436060" lon="166.9360110">
        <ele>8.0</ele>
        <time>2020-04-19T14:26:29Z</time>
      </trkpt>
      <trkpt lat="-11.6436680" lon="166.9360220">
        <ele>8.2</ele>
        <time>2020-04-19T14:26:30Z</time>
      </trkpt>
      <trkpt lat="-11.6437280" lon="166.9360440">
        <ele>8.6</ele>
        <time>2020-04-19T14:26:31Z</time>
      </trkpt>
      <trkpt lat="-11.6437740" lon="166.9360860">
        <ele>9.0</ele>
        <time>2020-04-19T14:26:32Z</time>
      </trkpt>
      <trkpt lat="-11.6437970" lon="166.9361510">
        <ele>9.2</ele>
        <time>2020-04-19T14:26:33Z</time>
      </trkpt>
      <trkpt lat="-11.6437940" lon="166.9362040">
        <ele>9.4</ele>
        <time>2020-04-19T14:26:34Z</time>
      </trkpt>
      <trkpt lat="-11.6437740" lon="166.9362690">
        <ele>9.4</ele>
        <time>2020-04-19T14:26:35Z</time>
      </trkpt>
      <trkpt lat="-11.6437430" lon="166.9363330">
        <ele>9.4</ele>
        <time>2020-04-19T14:26:36Z</time>
      </trkpt>
      <trkpt lat="-11.6437010" lon="166.9363760">
        <ele>9.6</ele>
        <time>2020-04-19T14:26:37Z</time>
      </trkpt>
      <trkpt lat="-11.6436500" lon="166.9364400">
        <ele>9.6</ele>
        <time>2020-04-19T14:26:38Z</time>
      </trkpt>
      <trkpt lat="-11.6435850" lon="166.9364620">
        <ele>9.6</ele>
        <time>2020-04-19T14:26:39Z</time>
      </trkpt>
      <trkpt lat="-11.6435140" lon="166.9364830">
        <ele>9.6</ele>
        <time>2020-04-19T14:26:40Z</time>
      </trkpt>
      <trkpt lat="-11.6434370" lon="166.9364620">
        <ele>9.6</ele>
        <time>2020-04-19T14:26:41Z</time>
      </trkpt>
      <trkpt lat="-11.6433650" lon="166.9364510">
        <ele>9.6</ele>
        <time>2020-04-19T14:26:42Z</time>
      </trkpt>
      <trkpt lat="-11.6432920" lon="166.9364190">
        <ele>9.6</ele>
        <time>2020-04-19T14:26:43Z</time>
      </trkpt>
      <trkpt lat="-11.6432190" lon="166.9363870">
        <ele>9.6</ele>
        <time>2020-04-19T14:26:44Z</time>
      </trkpt>
      <trkpt lat="-11.6431470" lon="166.9363550">
        <ele>9.6</ele>
        <time>2020-04-19T14:26:45Z</time>
      </trkpt>
      <trkpt lat="-11.6430750" lon="166.9363120">
        <ele>9.6</ele>
        <time>2020-04-19T14:26:46Z</time>
      </trkpt>
      <trkpt lat="-11.6430000" lon="166.9362800">
        <ele>9.6</ele>
        <time>2020-04-19T14:26:47Z</time>
      </trkpt>
      <trkpt lat="-11.6429260" lon="166.9362370">
        <ele>9.6</ele>
        <time>2020-04-19T14:26:48Z</time>
      </trkpt>
      <trkpt lat="-11.6428510" lon="166.9362040">
        <ele>9.6</ele>
        <time>2020-04-19T14:26:49Z</time>
      </trkpt>
      <trkpt lat="-11.6427730" lon="166.9361620">
        <ele>9.6</ele>
        <time>2020-04-19T14:26:50Z</time>
      </trkpt>
      <trkpt lat="-11.6426980" lon="166.9361190">
        <ele>9.6</ele>
        <time>2020-04-19T14:26:51Z</time>
      </trkpt>
      <trkpt lat="-11.6426190" lon="166.9360860">
        <ele>9.6</ele>
        <time>2020-04-19T14:26:52Z</time>
      </trkpt>
      <trkpt lat="-11.6425400" lon="166.9360440">
        <ele>9.6</ele>
        <time>2020-04-19T14:26:53Z</time>
      </trkpt>
      <trkpt lat="-11.6424640" lon="166.9360110">
        <ele>9.6</ele>
        <time>2020-04-19T14:26:54Z</time>
      </trkpt>
      <trkpt lat="-11.6423840" lon="166.9359580">
        <ele>9.6</ele>
        <time>2020-04-19T14:26:55Z</time>
      </trkpt>
      <trkpt lat="-11.6423010" lon="166.9359360">
        <ele>9.6</ele>
        <time>2020-04-19T14:26:56Z</time>
      </trkpt>
      <trkpt lat="-11.6422110" lon="166.9359360">
        <ele>9.6</ele>
        <time>2020-04-19T14:26:57Z</time>
      </trkpt>
      <trkpt lat="-11.6421260" lon="166.9359470">
        <ele>9.6</ele>
        <time>2020-04-19T14:26:58Z</time>
      </trkpt>
      <trkpt lat="-11.6420420" lon="166.9359790">
        <ele>9.4</ele>
        <time>2020-04-19T14:26:59Z</time>
      </trkpt>
      <trkpt lat="-11.6419620" lon="166.9360220">
        <ele>9.4</ele>
        <time>2020-04-19T14:27:00Z</time>
      </trkpt>
      <trkpt lat="-11.6418850" lon="166.9360650">
        <ele>9.4</ele>
        <time>2020-04-19T14:27:01Z</time>
      </trkpt>
      <trkpt lat="-11.6418180" lon="166.9361510">
        <ele>9.4</ele>
        <time>2020-04-19T14:27:02Z</time>
      </trkpt>
      <trkpt lat="-11.6417540" lon="166.9362040">
        <ele>9.8</ele>
        <time>2020-04-19T14:27:03Z</time>
      </trkpt>
      <trkpt lat="-11.6416870" lon="166.9362690">
        <ele>10.2</ele>
        <time>2020-04-19T14:27:04Z</time>
      </trkpt>
      <trkpt lat="-11.6416210" lon="166.9363120">
        <ele>10.6</ele>
        <time>2020-04-19T14:27:05Z</time>
      </trkpt>
      <trkpt lat="-11.6415580" lon="166.9363550">
        <ele>11.0</ele>
        <time>2020-04-19T14:27:06Z</time>
      </trkpt>
      <trkpt lat="-11.6414980" lon="166.9364190">
        <ele>11.4</ele>
        <time>2020-04-19T14:27:07Z</time>
      </trkpt>
      <trkpt lat="-11.6414400" lon="166.9364620">
        <ele>11.8</ele>
        <time>2020-04-19T14:27:08Z</time>
      </trkpt>
      <trkpt lat="-11.6413870" lon="166.9365160">
        <ele>12.2</ele>
        <time>2020-04-19T14:27:09Z</time>
      </trkpt>
      <trkpt lat="-11.6413330" lon="166.9365580">
        <ele>12.4</ele>
        <time>2020-04-19T14:27:10Z</time>
      </trkpt>
      <trkpt lat="-11.6412810" lon="166.9366230">
        <ele>12.4</ele>
        <time>2020-04-19T14:27:11Z</time>
      </trkpt>
      <trkpt lat="-11.6412240" lon="166.9366660">
        <ele>12.4</ele>
        <time>2020-04-19T14:27:12Z</time>
      </trkpt>
      <trkpt lat="-11.6411690" lon="166.9367090">
        <ele>12.4</ele>
        <time>2020-04-19T14:27:13Z</time>
      </trkpt>
      <trkpt lat="-11.6411290" lon="166.9367730">
        <ele>12.4</ele>
        <time>2020-04-19T14:27:14Z</time>
      </trkpt>
      <trkpt lat="-11.6411100" lon="166.9368480">
        <ele>12.4</ele>
        <time>2020-04-19T14:27:15Z</time>
      </trkpt>
      <trkpt lat="-11.6411040" lon="166.9369450">
        <ele>12.4</ele>
        <time>2020-04-19T14:27:16Z</time>
      </trkpt>
      <trkpt lat="-11.6411040" lon="166.9370200">
        <ele>12.4</ele>
        <time>2020-04-19T14:27:17Z</time>
      </trkpt>
      <trkpt lat="-11.6411040" lon="166.9371060">
        <ele>12.4</ele>
        <time>2020-04-19T14:27:18Z</time>
      </trkpt>
      <trkpt lat="-11.6411100" lon="166.9371810">
        <ele>12.4</ele>
        <time>2020-04-19T14:27:19Z</time>
      </trkpt>
      <trkpt lat="-11.6411200" lon="166.9372770">
        <ele>12.4</ele>
        <time>2020-04-19T14:27:20Z</time>
      </trkpt>
      <trkpt lat="-11.6411400" lon="166.9373630">
        <ele>12.4</ele>
        <time>2020-04-19T14:27:21Z</time>
      </trkpt>
      <trkpt lat="-11.6411670" lon="166.9374380">
        <ele>12.4</ele>
        <time>2020-04-19T14:27:22Z</time>
      </trkpt>
      <trkpt lat="-11.6412100" lon="166.9375240">
        <ele>12.2</ele>
        <time>2020-04-19T14:27:23Z</time>
      </trkpt>
      <trkpt lat="-11.6412890" lon="166.9375670">
        <ele>11.8</ele>
        <time>2020-04-19T14:27:24Z</time>
      </trkpt>
      <trkpt lat="-11.6413810" lon="166.9375670">
        <ele>11.2</ele>
        <time>2020-04-19T14:27:25Z</time>
      </trkpt>
      <trkpt lat="-11.6414800" lon="166.9375670">
        <ele>10.6</ele>
        <time>2020-04-19T14:27:26Z</time>
      </trkpt>
      <trkpt lat="-11.6415820" lon="166.9375780">
        <ele>10.0</ele>
        <time>2020-04-19T14:27:27Z</time>
      </trkpt>
      <trkpt lat="-11.6416710" lon="166.9376310">
        <ele>9.6</ele>
        <time>2020-04-19T14:27:28Z</time>
      </trkpt>
      <trkpt lat="-11.6417170" lon="166.9377280">
        <ele>9.4</ele>
        <time>2020-04-19T14:27:29Z</time>
      </trkpt>
      <trkpt lat="-11.6417230" lon="166.9378350">
        <ele>9.4</ele>
        <time>2020-04-19T14:27:30Z</time>
      </trkpt>
      <trkpt lat="-11.6417150" lon="166.9379430">
        <ele>9.4</ele>
        <time>2020-04-19T14:27:31Z</time>
      </trkpt>
      <trkpt lat="-11.6417040" lon="166.9380500">
        <ele>9.6</ele>
        <time>2020-04-19T14:27:32Z</time>
      </trkpt>
      <trkpt lat="-11.6416960" lon="166.9381570">
        <ele>9.6</ele>
        <time>2020-04-19T14:27:33Z</time>
      </trkpt>
      <trkpt lat="-11.6417070" lon="166.9382640">
        <ele>9.6</ele>
        <time>2020-04-19T14:27:34Z</time>
      </trkpt>
      <trkpt lat="-11.6417330" lon="166.9383610">
        <ele>9.6</ele>
        <time>2020-04-19T14:27:35Z</time>
      </trkpt>
      <trkpt lat="-11.6417610" lon="166.9384680">
        <ele>9.6</ele>
        <time>2020-04-19T14:27:36Z</time>
      </trkpt>
      <trkpt lat="-11.6417700" lon="166.9385760">
        <ele>9.6</ele>
        <time>2020-04-19T14:27:37Z</time>
      </trkpt>
      <trkpt lat="-11.6417670" lon="166.9386830">
        <ele>9.6</ele>
        <time>2020-04-19T14:27:38Z</time>
      </trkpt>
      <trkpt lat="-11.6417540" lon="166.9387690">
        <ele>9.6</ele>
        <time>2020-04-19T14:27:39Z</time>
      </trkpt>
      <trkpt lat="-11.6417350" lon="166.9388760">
        <ele>9.6</ele>
        <time>2020-04-19T14:27:40Z</time>
      </trkpt>
      <trkpt lat="-11.6417150" lon="166.9389720">
        <ele>9.6</ele>
        <time>2020-04-19T14:27:41Z</time>
      </trkpt>
      <trkpt lat="-11.6416940" lon="166.9390580">
        <ele>9.6</ele>
        <time>2020-04-19T14:27:42Z</time>
      </trkpt>
      <trkpt lat="-11.6416720" lon="166.9391660">
        <ele>9.6</ele>
        <time>2020-04-19T14:27:43Z</time>
      </trkpt>
      <trkpt lat="-11.6416550" lon="166.9392620">
        <ele>9.6</ele>
        <time>2020-04-19T14:27:44Z</time>
      </trkpt>
      <trkpt lat="-11.6416390" lon="166.9393480">
        <ele>9.6</ele>
        <time>2020-04-19T14:27:45Z</time>
      </trkpt>
      <trkpt lat="-11.6416190" lon="166.9394450">
        <ele>9.6</ele>
        <time>2020-04-19T14:27:46Z</time>
      </trkpt>
      <trkpt lat="-11.6415860" lon="166.9395300">
        <ele>9.6</ele>
        <time>2020-04-19T14:27:47Z</time>
      </trkpt>
      <trkpt lat="-11.6415370" lon="166.9396270">
        <ele>9.6</ele>
        <time>2020-04-19T14:27:48Z</time>
      </trkpt>
      <trkpt lat="-11.6414720" lon="166.9397020">
        <ele>9.4</ele>
        <time>2020-04-19T14:27:49Z</time>
      </trkpt>
      <trkpt lat="-11.6413970" lon="166.9397660">
        <ele>9.4</ele>
        <time>2020-04-19T14:27:50Z</time>
      </trkpt>
      <trkpt lat="-11.6413140" lon="166.9398200">
        <ele>9.4</ele>
        <time>2020-04-19T14:27:51Z</time>
      </trkpt>
      <trkpt lat="-11.6412230" lon="166.9398520">
        <ele>9.4</ele>
        <time>2020-04-19T14:27:52Z</time>
      </trkpt>
      <trkpt lat="-11.6411240" lon="166.9398740">
        <ele>9.4</ele>
        <time>2020-04-19T14:27:53Z</time>
      </trkpt>
      <trkpt lat="-11.6410300" lon="166.9398420">
        <ele>9.4</ele>
        <time>2020-04-19T14:27:54Z</time>
      </trkpt>
      <trkpt lat="-11.6409450" lon="166.9397770">
        <ele>9.4</ele>
        <time>2020-04-19T14:27:55Z</time>
      </trkpt>
      <trkpt lat="-11.6408650" lon="166.9397130">
        <ele>9.4</ele>
        <time>2020-04-19T14:27:56Z</time>
      </trkpt>
      <trkpt lat="-11.6407800" lon="166.9396700">
        <ele>9.6</ele>
        <time>2020-04-19T14:27:57Z</time>
      </trkpt>
      <trkpt lat="-11.6406840" lon="166.9396380">
        <ele>9.6</ele>
        <time>2020-04-19T14:27:58Z</time>
      </trkpt>
      <trkpt lat="-11.6405850" lon="166.9396380">
        <ele>9.6</ele>
        <time>2020-04-19T14:27:59Z</time>
      </trkpt>
      <trkpt lat="-11.6404840" lon="166.9396380">
        <ele>9.6</ele>
        <time>2020-04-19T14:28:00Z</time>
      </trkpt>
      <trkpt lat="-11.6403910" lon="166.9395950">
        <ele>9.6</ele>
        <time>2020-04-19T14:28:01Z</time>
      </trkpt>
      <trkpt lat="-11.6403240" lon="166.9395200">
        <ele>9.6</ele>
        <time>2020-04-19T14:28:02Z</time>
      </trkpt>
      <trkpt lat="-11.6402820" lon="166.9394450">
        <ele>9.6</ele>
        <time>2020-04-19T14:28:03Z</time>
      </trkpt>
      <trkpt lat="-11.6402450" lon="166.9393480">
        <ele>9.6</ele>
        <time>2020-04-19T14:28:04Z</time>
      </trkpt>
      <trkpt lat="-11.6402120" lon="166.9392410">
        <ele>9.6</ele>
        <time>2020-04-19T14:28:05Z</time>
      </trkpt>
      <trkpt lat="-11.6401760" lon="166.9391660">
        <ele>9.6</ele>
        <time>2020-04-19T14:28:06Z</time>
      </trkpt>
      <trkpt lat="-11.6401140" lon="166.9390800">
        <ele>9.6</ele>
        <time>2020-04-19T14:28:07Z</time>
      </trkpt>
      <trkpt lat="-11.6400290" lon="166.9390260">
        <ele>9.6</ele>
        <time>2020-04-19T14:28:08Z</time>
      </trkpt>
      <trkpt lat="-11.6399370" lon="166.9390050">
        <ele>9.6</ele>
        <time>2020-04-19T14:28:09Z</time>
      </trkpt>
      <trkpt lat="-11.6398360" lon="166.9389720">
        <ele>9.6</ele>
        <time>2020-04-19T14:28:10Z</time>
      </trkpt>
      <trkpt lat="-11.6397380" lon="166.9389720">
        <ele>9.6</ele>
        <time>2020-04-19T14:28:11Z</time>
      </trkpt>
      <trkpt lat="-11.6396470" lon="166.9390050">
        <ele>9.6</ele>
        <time>2020-04-19T14:28:12Z</time>
      </trkpt>
      <trkpt lat="-11.6395650" lon="166.9390480">
        <ele>9.6</ele>
        <time>2020-04-19T14:28:13Z</time>
      </trkpt>
      <trkpt lat="-11.6395060" lon="166.9391230">
        <ele>9.6</ele>
        <time>2020-04-19T14:28:14Z</time>
      </trkpt>
      <trkpt lat="-11.6394610" lon="166.9391980">
        <ele>9.6</ele>
        <time>2020-04-19T14:28:15Z</time>
      </trkpt>
      <trkpt lat="-11.6394230" lon="166.9392940">
        <ele>9.6</ele>
        <time>2020-04-19T14:28:16Z</time>
      </trkpt>
      <trkpt lat="-11.6393870" lon="166.9393800">
        <ele>9.6</ele>
        <time>2020-04-19T14:28:17Z</time>
      </trkpt>
      <trkpt lat="-11.6393530" lon="166.9394770">
        <ele>9.6</ele>
        <time>2020-04-19T14:28:18Z</time>
      </trkpt>
      <trkpt lat="-11.6393210" lon="166.9395630">
        <ele>9.6</ele>
        <time>2020-04-19T14:28:19Z</time>
      </trkpt>
      <trkpt lat="-11.6392850" lon="166.9396590">
        <ele>9.6</ele>
        <time>2020-04-19T14:28:20Z</time>
      </trkpt>
      <trkpt lat="-11.6392520" lon="166.9397660">
        <ele>9.6</ele>
        <time>2020-04-19T14:28:21Z</time>
      </trkpt>
      <trkpt lat="-11.6392180" lon="166.9398520">
        <ele>9.6</ele>
        <time>2020-04-19T14:28:22Z</time>
      </trkpt>
      <trkpt lat="-11.6391720" lon="166.9399490">
        <ele>9.6</ele>
        <time>2020-04-19T14:28:23Z</time>
      </trkpt>
      <trkpt lat="-11.6391160" lon="166.9400350">
        <ele>9.6</ele>
        <time>2020-04-19T14:28:24Z</time>
      </trkpt>
      <trkpt lat="-11.6390570" lon="166.9401100">
        <ele>9.6</ele>
        <time>2020-04-19T14:28:25Z</time>
      </trkpt>
      <trkpt lat="-11.6389970" lon="166.9402060">
        <ele>9.6</ele>
        <time>2020-04-19T14:28:26Z</time>
      </trkpt>
      <trkpt lat="-11.6389540" lon="166.9402920">
        <ele>9.6</ele>
        <time>2020-04-19T14:28:27Z</time>
      </trkpt>
      <trkpt lat="-11.6389350" lon="166.9403990">
        <ele>9.6</ele>
        <time>2020-04-19T14:28:28Z</time>
      </trkpt>
      <trkpt lat="-11.6389460" lon="166.9405070">
        <ele>9.6</ele>
        <time>2020-04-19T14:28:29Z</time>
      </trkpt>
      <trkpt lat="-11.6389770" lon="166.9406030">
        <ele>9.8</ele>
        <time>2020-04-19T14:28:30Z</time>
      </trkpt>
      <trkpt lat="-11.6390160" lon="166.9406890">
        <ele>9.8</ele>
        <time>2020-04-19T14:28:31Z</time>
      </trkpt>
      <trkpt lat="-11.6390600" lon="166.9407860">
        <ele>10.0</ele>
        <time>2020-04-19T14:28:32Z</time>
      </trkpt>
      <trkpt lat="-11.6391050" lon="166.9408710">
        <ele>10.0</ele>
        <time>2020-04-19T14:28:33Z</time>
      </trkpt>
      <trkpt lat="-11.6391550" lon="166.9409680">
        <ele>10.2</ele>
        <time>2020-04-19T14:28:34Z</time>
      </trkpt>
      <trkpt lat="-11.6392100" lon="166.9410650">
        <ele>10.2</ele>
        <time>2020-04-19T14:28:35Z</time>
      </trkpt>
      <trkpt lat="-11.6392660" lon="166.9411400">
        <ele>10.4</ele>
        <time>2020-04-19T14:28:36Z</time>
      </trkpt>
      <trkpt lat="-11.6393290" lon="166.9412150">
        <ele>10.4</ele>
        <time>2020-04-19T14:28:37Z</time>
      </trkpt>
      <trkpt lat="-11.6393960" lon="166.9412900">
        <ele>10.4</ele>
        <time>2020-04-19T14:28:38Z</time>
      </trkpt>
      <trkpt lat="-11.6394730" lon="166.9413540">
        <ele>10.4</ele>
        <time>2020-04-19T14:28:39Z</time>
      </trkpt>
      <trkpt lat="-11.6395530" lon="166.9414080">
        <ele>10.4</ele>
        <time>2020-04-19T14:28:40Z</time>
      </trkpt>
      <trkpt lat="-11.6396310" lon="166.9414720">
        <ele>10.4</ele>
        <time>2020-04-19T14:28:41Z</time>
      </trkpt>
      <trkpt lat="-11.6396940" lon="166.9415470">
        <ele>10.4</ele>
        <time>2020-04-19T14:28:42Z</time>
      </trkpt>
      <trkpt lat="-11.6397410" lon="166.9416440">
        <ele>10.4</ele>
        <time>2020-04-19T14:28:43Z</time>
      </trkpt>
      <trkpt lat="-11.6397670" lon="166.9417300">
        <ele>10.4</ele>
        <time>2020-04-19T14:28:44Z</time>
      </trkpt>
      <trkpt lat="-11.6397800" lon="166.9418370">
        <ele>10.4</ele>
        <time>2020-04-19T14:28:45Z</time>
      </trkpt>
      <trkpt lat="-11.6397930" lon="166.9419340">
        <ele>10.4</ele>
        <time>2020-04-19T14:28:46Z</time>
      </trkpt>
      <trkpt lat="-11.6398260" lon="166.9420190">
        <ele>10.4</ele>
        <time>2020-04-19T14:28:47Z</time>
      </trkpt>
      <trkpt lat="-11.6398820" lon="166.9420950">
        <ele>10.4</ele>
        <time>2020-04-19T14:28:48Z</time>
      </trkpt>
      <trkpt lat="-11.6399480" lon="166.9421590">
        <ele>10.4</ele>
        <time>2020-04-19T14:28:49Z</time>
      </trkpt>
      <trkpt lat="-11.6400170" lon="166.9422230">
        <ele>10.4</ele>
        <time>2020-04-19T14:28:50Z</time>
      </trkpt>
      <trkpt lat="-11.6400870" lon="166.9422770">
        <ele>10.4</ele>
        <time>2020-04-19T14:28:51Z</time>
      </trkpt>
      <trkpt lat="-11.6401460" lon="166.9423520">
        <ele>10.4</ele>
        <time>2020-04-19T14:28:52Z</time>
      </trkpt>
      <trkpt lat="-11.6401820" lon="166.9424380">
        <ele>10.4</ele>
        <time>2020-04-19T14:28:53Z</time>
      </trkpt>
      <trkpt lat="-11.6401920" lon="166.9425240">
        <ele>10.4</ele>
        <time>2020-04-19T14:28:54Z</time>
      </trkpt>
      <trkpt lat="-11.6401760" lon="166.9426200">
        <ele>10.4</ele>
        <time>2020-04-19T14:28:55Z</time>
      </trkpt>
      <trkpt lat="-11.6401460" lon="166.9427060">
        <ele>10.4</ele>
        <time>2020-04-19T14:28:56Z</time>
      </trkpt>
      <trkpt lat="-11.6401110" lon="166.9428030">
        <ele>10.4</ele>
        <time>2020-04-19T14:28:57Z</time>
      </trkpt>
      <trkpt lat="-11.6400760" lon="166.9428880">
        <ele>10.4</ele>
        <time>2020-04-19T14:28:58Z</time>
      </trkpt>
      <trkpt lat="-11.6400350" lon="166.9429640">
        <ele>10.4</ele>
        <time>2020-04-19T14:28:59Z</time>
      </trkpt>
      <trkpt lat="-11.6399860" lon="166.9430600">
        <ele>10.4</ele>
        <time>2020-04-19T14:29:00Z</time>
      </trkpt>
      <trkpt lat="-11.6399380" lon="166.9431350">
        <ele>10.4</ele>
        <time>2020-04-19T14:29:01Z</time>
      </trkpt>
      <trkpt lat="-11.6398950" lon="166.9432210">
        <ele>10.4</ele>
        <time>2020-04-19T14:29:02Z</time>
      </trkpt>
      <trkpt lat="-11.6398550" lon="166.9433180">
        <ele>10.4</ele>
        <time>2020-04-19T14:29:03Z</time>
      </trkpt>
      <trkpt lat="-11.6398130" lon="166.9433930">
        <ele>10.4</ele>
        <time>2020-04-19T14:29:04Z</time>
      </trkpt>
      <trkpt lat="-11.6397730" lon="166.9434890">
        <ele>10.4</ele>
        <time>2020-04-19T14:29:05Z</time>
      </trkpt>
      <trkpt lat="-11.6397320" lon="166.9435750">
        <ele>10.4</ele>
        <time>2020-04-19T14:29:06Z</time>
      </trkpt>
      <trkpt lat="-11.6396900" lon="166.9436720">
        <ele>10.4</ele>
        <time>2020-04-19T14:29:07Z</time>
      </trkpt>
      <trkpt lat="-11.6396500" lon="166.9437580">
        <ele>10.4</ele>
        <time>2020-04-19T14:29:08Z</time>
      </trkpt>
      <trkpt lat="-11.6396070" lon="166.9438540">
        <ele>10.4</ele>
        <time>2020-04-19T14:29:09Z</time>
      </trkpt>
      <trkpt lat="-11.6395650" lon="166.9439400">
        <ele>10.4</ele>
        <time>2020-04-19T14:29:10Z</time>
      </trkpt>
      <trkpt lat="-11.6395220" lon="166.9440360">
        <ele>10.4</ele>
        <time>2020-04-19T14:29:11Z</time>
      </trkpt>
      <trkpt lat="-11.6394800" lon="166.9441220">
        <ele>10.4</ele>
        <time>2020-04-19T14:29:12Z</time>
      </trkpt>
      <trkpt lat="-11.6394370" lon="166.9442190">
        <ele>10.4</ele>
        <time>2020-04-19T14:29:13Z</time>
      </trkpt>
      <trkpt lat="-11.6393940" lon="166.9443050">
        <ele>10.4</ele>
        <time>2020-04-19T14:29:14Z</time>
      </trkpt>
      <trkpt lat="-11.6393510" lon="166.9444010">
        <ele>10.4</ele>
        <time>2020-04-19T14:29:15Z</time>
      </trkpt>
      <trkpt lat="-11.6393120" lon="166.9445090">
        <ele>10.4</ele>
        <time>2020-04-19T14:29:16Z</time>
      </trkpt>
      <trkpt lat="-11.6392740" lon="166.9445940">
        <ele>10.4</ele>
        <time>2020-04-19T14:29:17Z</time>
      </trkpt>
      <trkpt lat="-11.6392350" lon="166.9446910">
        <ele>10.4</ele>
        <time>2020-04-19T14:29:18Z</time>
      </trkpt>
      <trkpt lat="-11.6391950" lon="166.9447880">
        <ele>10.4</ele>
        <time>2020-04-19T14:29:19Z</time>
      </trkpt>
      <trkpt lat="-11.6391540" lon="166.9448730">
        <ele>10.4</ele>
        <time>2020-04-19T14:29:20Z</time>
      </trkpt>
      <trkpt lat="-11.6391150" lon="166.9449700">
        <ele>10.4</ele>
        <time>2020-04-19T14:29:21Z</time>
      </trkpt>
      <trkpt lat="-11.6390770" lon="166.9450770">
        <ele>10.4</ele>
        <time>2020-04-19T14:29:22Z</time>
      </trkpt>
      <trkpt lat="-11.6390440" lon="166.9451630">
        <ele>10.4</ele>
        <time>2020-04-19T14:29:23Z</time>
      </trkpt>
      <trkpt lat="-11.6390070" lon="166.9452600">
        <ele>10.4</ele>
        <time>2020-04-19T14:29:24Z</time>
      </trkpt>
      <trkpt lat="-11.6389670" lon="166.9453450">
        <ele>10.4</ele>
        <time>2020-04-19T14:29:25Z</time>
      </trkpt>
      <trkpt lat="-11.6389280" lon="166.9454530">
        <ele>10.4</ele>
        <time>2020-04-19T14:29:26Z</time>
      </trkpt>
      <trkpt lat="-11.6388910" lon="166.9455490">
        <ele>10.4</ele>
        <time>2020-04-19T14:29:27Z</time>
      </trkpt>
      <trkpt lat="-11.6388550" lon="166.9456350">
        <ele>10.4</ele>
        <time>2020-04-19T14:29:28Z</time>
      </trkpt>
      <trkpt lat="-11.6388250" lon="166.9457420">
        <ele>10.4</ele>
        <time>2020-04-19T14:29:29Z</time>
      </trkpt>
      <trkpt lat="-11.6387960" lon="166.9458390">
        <ele>10.4</ele>
        <time>2020-04-19T14:29:30Z</time>
      </trkpt>
      <trkpt lat="-11.6387750" lon="166.9459460">
        <ele>10.4</ele>
        <time>2020-04-19T14:29:31Z</time>
      </trkpt>
      <trkpt lat="-11.6387630" lon="166.9460320">
        <ele>10.4</ele>
        <time>2020-04-19T14:29:32Z</time>
      </trkpt>
      <trkpt lat="-11.6387660" lon="166.9461390">
        <ele>10.4</ele>
        <time>2020-04-19T14:29:33Z</time>
      </trkpt>
      <trkpt lat="-11.6387920" lon="166.9462470">
        <ele>10.2</ele>
        <time>2020-04-19T14:29:34Z</time>
      </trkpt>
      <trkpt lat="-11.6388380" lon="166.9463430">
        <ele>10.2</ele>
        <time>2020-04-19T14:29:35Z</time>
      </trkpt>
      <trkpt lat="-11.6388990" lon="166.9464290">
        <ele>10.2</ele>
        <time>2020-04-19T14:29:36Z</time>
      </trkpt>
      <trkpt lat="-11.6389770" lon="166.9464930">
        <ele>10.2</ele>
        <time>2020-04-19T14:29:37Z</time>
      </trkpt>
      <trkpt lat="-11.6390640" lon="166.9465580">
        <ele>10.4</ele>
        <time>2020-04-19T14:29:38Z</time>
      </trkpt>
      <trkpt lat="-11.6391590" lon="166.9466010">
        <ele>10.6</ele>
        <time>2020-04-19T14:29:39Z</time>
      </trkpt>
      <trkpt lat="-11.6392610" lon="166.9466330">
        <ele>10.8</ele>
        <time>2020-04-19T14:29:40Z</time>
      </trkpt>
      <trkpt lat="-11.6393630" lon="166.9466440">
        <ele>11.2</ele>
        <time>2020-04-19T14:29:41Z</time>
      </trkpt>
      <trkpt lat="-11.6394620" lon="166.9466330">
        <ele>11.4</ele>
        <time>2020-04-19T14:29:42Z</time>
      </trkpt>
      <trkpt lat="-11.6395570" lon="166.9466010">
        <ele>11.8</ele>
        <time>2020-04-19T14:29:43Z</time>
      </trkpt>
      <trkpt lat="-11.6396490" lon="166.9465680">
        <ele>12.0</ele>
        <time>2020-04-19T14:29:44Z</time>
      </trkpt>
      <trkpt lat="-11.6397330" lon="166.9465260">
        <ele>12.2</ele>
        <time>2020-04-19T14:29:45Z</time>
      </trkpt>
      <trkpt lat="-11.6398110" lon="166.9464610">
        <ele>12.4</ele>
        <time>2020-04-19T14:29:46Z</time>
      </trkpt>
      <trkpt lat="-11.6398830" lon="166.9463970">
        <ele>12.4</ele>
        <time>2020-04-19T14:29:47Z</time>
      </trkpt>
      <trkpt lat="-11.6399480" lon="166.9463220">
        <ele>12.4</ele>
        <time>2020-04-19T14:29:48Z</time>
      </trkpt>
      <trkpt lat="-11.6400070" lon="166.9462470">
        <ele>12.6</ele>
        <time>2020-04-19T14:29:49Z</time>
      </trkpt>
      <trkpt lat="-11.6400680" lon="166.9461720">
        <ele>12.6</ele>
        <time>2020-04-19T14:29:50Z</time>
      </trkpt>
      <trkpt lat="-11.6401330" lon="166.9460960">
        <ele>12.6</ele>
        <time>2020-04-19T14:29:51Z</time>
      </trkpt>
      <trkpt lat="-11.6402020" lon="166.9460320">
        <ele>12.6</ele>
        <time>2020-04-19T14:29:52Z</time>
      </trkpt>
      <trkpt lat="-11.6402910" lon="166.9460000">
        <ele>12.6</ele>
        <time>2020-04-19T14:29:53Z</time>
      </trkpt>
      <trkpt lat="-11.6403830" lon="166.9460320">
        <ele>12.8</ele>
        <time>2020-04-19T14:29:54Z</time>
      </trkpt>
      <trkpt lat="-11.6404520" lon="166.9460960">
        <ele>13.0</ele>
        <time>2020-04-19T14:29:55Z</time>
      </trkpt>
      <trkpt lat="-11.6404750" lon="166.9461820">
        <ele>13.2</ele>
        <time>2020-04-19T14:29:56Z</time>
      </trkpt>
      <trkpt lat="-11.6404630" lon="166.9462790">
        <ele>13.4</ele>
        <time>2020-04-19T14:29:57Z</time>
      </trkpt>
      <trkpt lat="-11.6404320" lon="166.9463650">
        <ele>13.4</ele>
        <time>2020-04-19T14:29:58Z</time>
      </trkpt>
      <trkpt lat="-11.6403830" lon="166.9464500">
        <ele>13.4</ele>
        <time>2020-04-19T14:29:59Z</time>
      </trkpt>
      <trkpt lat="-11.6403260" lon="166.9465260">
        <ele>13.2</ele>
        <time>2020-04-19T14:30:00Z</time>
      </trkpt>
      <trkpt lat="-11.6402720" lon="166.9466010">
        <ele>13.2</ele>
        <time>2020-04-19T14:30:01Z</time>
      </trkpt>
      <trkpt lat="-11.6402250" lon="166.9466870">
        <ele>12.8</ele>
        <time>2020-04-19T14:30:02Z</time>
      </trkpt>
      <trkpt lat="-11.6401780" lon="166.9467830">
        <ele>12.6</ele>
        <time>2020-04-19T14:30:03Z</time>
      </trkpt>
      <trkpt lat="-11.6401230" lon="166.9468690">
        <ele>12.4</ele>
        <time>2020-04-19T14:30:04Z</time>
      </trkpt>
      <trkpt lat="-11.6400760" lon="166.9469650">
        <ele>12.0</ele>
        <time>2020-04-19T14:30:05Z</time>
      </trkpt>
      <trkpt lat="-11.6400370" lon="166.9470730">
        <ele>11.6</ele>
        <time>2020-04-19T14:30:06Z</time>
      </trkpt>
      <trkpt lat="-11.6400010" lon="166.9471590">
        <ele>11.4</ele>
        <time>2020-04-19T14:30:07Z</time>
      </trkpt>
      <trkpt lat="-11.6399580" lon="166.9472660">
        <ele>11.0</ele>
        <time>2020-04-19T14:30:08Z</time>
      </trkpt>
      <trkpt lat="-11.6399140" lon="166.9473730">
        <ele>10.6</ele>
        <time>2020-04-19T14:30:09Z</time>
      </trkpt>
      <trkpt lat="-11.6398710" lon="166.9474800">
        <ele>10.4</ele>
        <time>2020-04-19T14:30:10Z</time>
      </trkpt>
      <trkpt lat="-11.6398260" lon="166.9475880">
        <ele>10.0</ele>
        <time>2020-04-19T14:30:11Z</time>
      </trkpt>
      <trkpt lat="-11.6397710" lon="166.9476950">
        <ele>9.6</ele>
        <time>2020-04-19T14:30:12Z</time>
      </trkpt>
      <trkpt lat="-11.6397170" lon="166.9478020">
        <ele>9.2</ele>
        <time>2020-04-19T14:30:13Z</time>
      </trkpt>
      <trkpt lat="-11.6396630" lon="166.9479310">
        <ele>8.8</ele>
        <time>2020-04-19T14:30:14Z</time>
      </trkpt>
      <trkpt lat="-11.6395960" lon="166.9480280">
        <ele>8.4</ele>
        <time>2020-04-19T14:30:15Z</time>
      </trkpt>
      <trkpt lat="-11.6395240" lon="166.9481350">
        <ele>7.8</ele>
        <time>2020-04-19T14:30:16Z</time>
      </trkpt>
      <trkpt lat="-11.6394500" lon="166.9482420">
        <ele>7.4</ele>
        <time>2020-04-19T14:30:17Z</time>
      </trkpt>
      <trkpt lat="-11.6393630" lon="166.9483490">
        <ele>6.8</ele>
        <time>2020-04-19T14:30:18Z</time>
      </trkpt>
      <trkpt lat="-11.6392620" lon="166.9484460">
        <ele>6.4</ele>
        <time>2020-04-19T14:30:19Z</time>
      </trkpt>
      <trkpt lat="-11.6391510" lon="166.9485210">
        <ele>5.8</ele>
        <time>2020-04-19T14:30:20Z</time>
      </trkpt>
      <trkpt lat="-11.6390340" lon="166.9485960">
        <ele>5.4</ele>
        <time>2020-04-19T14:30:21Z</time>
      </trkpt>
      <trkpt lat="-11.6389150" lon="166.9486610">
        <ele>5.2</ele>
        <time>2020-04-19T14:30:22Z</time>
      </trkpt>
      <trkpt lat="-11.6387880" lon="166.9487140">
        <ele>4.8</ele>
        <time>2020-04-19T14:30:23Z</time>
      </trkpt>
      <trkpt lat="-11.6386570" lon="166.9487680">
        <ele>4.4</ele>
        <time>2020-04-19T14:30:24Z</time>
      </trkpt>
      <trkpt lat="-11.6385220" lon="166.9488220">
        <ele>4.0</ele>
        <time>2020-04-19T14:30:25Z</time>
      </trkpt>
      <trkpt lat="-11.6383910" lon="166.9488750">
        <ele>3.8</ele>
        <time>2020-04-19T14:30:26Z</time>
      </trkpt>
      <trkpt lat="-11.6382550" lon="166.9489180">
        <ele>3.4</ele>
        <time>2020-04-19T14:30:27Z</time>
      </trkpt>
      <trkpt lat="-11.6381210" lon="166.9489610">
        <ele>3.0</ele>
        <time>2020-04-19T14:30:28Z</time>
      </trkpt>
      <trkpt lat="-11.6379870" lon="166.9490250">
        <ele>2.8</ele>
        <time>2020-04-19T14:30:29Z</time>
      </trkpt>
      <trkpt lat="-11.6378490" lon="166.9490680">
        <ele>2.6</ele>
        <time>2020-04-19T14:30:30Z</time>
      </trkpt>
      <trkpt lat="-11.6377160" lon="166.9491110">
        <ele>2.2</ele>
        <time>2020-04-19T14:30:31Z</time>
      </trkpt>
      <trkpt lat="-11.6375890" lon="166.9491760">
        <ele>2.0</ele>
        <time>2020-04-19T14:30:32Z</time>
      </trkpt>
      <trkpt lat="-11.6374570" lon="166.9492510">
        <ele>1.8</ele>
        <time>2020-04-19T14:30:33Z</time>
      </trkpt>
      <trkpt lat="-11.6373350" lon="166.9493150">
        <ele>1.6</ele>
        <time>2020-04-19T14:30:34Z</time>
      </trkpt>
      <trkpt lat="-11.6372160" lon="166.9493900">
        <ele>1.4</ele>
        <time>2020-04-19T14:30:35Z</time>
      </trkpt>
      <trkpt lat="-11.6370990" lon="166.9494650">
        <ele>1.4</ele>
        <time>2020-04-19T14:30:36Z</time>
      </trkpt>
      <trkpt lat="-11.6369810" lon="166.9495400">
        <ele>1.4</ele>
        <time>2020-04-19T14:30:37Z</time>
      </trkpt>
      <trkpt lat="-11.6368630" lon="166.9496150">
        <ele>1.2</ele>
        <time>2020-04-19T14:30:38Z</time>
      </trkpt>
      <trkpt lat="-11.6367440" lon="166.9496910">
        <ele>1.2</ele>
        <time>2020-04-19T14:30:39Z</time>
      </trkpt>
      <trkpt lat="-11.6366300" lon="166.9497760">
        <ele>1.2</ele>
        <time>2020-04-19T14:30:40Z</time>
      </trkpt>
      <trkpt lat="-11.6365260" lon="166.9498620">
        <ele>1.4</ele>
        <time>2020-04-19T14:30:41Z</time>
      </trkpt>
      <trkpt lat="-11.6364230" lon="166.9499590">
        <ele>1.4</ele>
        <time>2020-04-19T14:30:42Z</time>
      </trkpt>
      <trkpt lat="-11.6363270" lon="166.9500450">
        <ele>1.4</ele>
        <time>2020-04-19T14:30:43Z</time>
      </trkpt>
      <trkpt lat="-11.6362340" lon="166.9501520">
        <ele>1.4</ele>
        <time>2020-04-19T14:30:44Z</time>
      </trkpt>
      <trkpt lat="-11.6361400" lon="166.9502480">
        <ele>1.4</ele>
        <time>2020-04-19T14:30:45Z</time>
      </trkpt>
      <trkpt lat="-11.6360560" lon="166.9503560">
        <ele>1.6</ele>
        <time>2020-04-19T14:30:46Z</time>
      </trkpt>
      <trkpt lat="-11.6359830" lon="166.9504630">
        <ele>1.6</ele>
        <time>2020-04-19T14:30:47Z</time>
      </trkpt>
      <trkpt lat="-11.6359200" lon="166.9505810">
        <ele>1.6</ele>
        <time>2020-04-19T14:30:48Z</time>
      </trkpt>
      <trkpt lat="-11.6358600" lon="166.9506990">
        <ele>1.6</ele>
        <time>2020-04-19T14:30:49Z</time>
      </trkpt>
      <trkpt lat="-11.6358010" lon="166.9508280">
        <ele>1.6</ele>
        <time>2020-04-19T14:30:50Z</time>
      </trkpt>
      <trkpt lat="-11.6357460" lon="166.9509460">
        <ele>1.6</ele>
        <time>2020-04-19T14:30:51Z</time>
      </trkpt>
      <trkpt lat="-11.6356920" lon="166.9510640">
        <ele>1.6</ele>
        <time>2020-04-19T14:30:52Z</time>
      </trkpt>
      <trkpt lat="-11.6356400" lon="166.9511930">
        <ele>1.6</ele>
        <time>2020-04-19T14:30:53Z</time>
      </trkpt>
      <trkpt lat="-11.6355970" lon="166.9513110">
        <ele>1.6</ele>
        <time>2020-04-19T14:30:54Z</time>
      </trkpt>
      <trkpt lat="-11.6355570" lon="166.9514500">
        <ele>1.6</ele>
        <time>2020-04-19T14:30:55Z</time>
      </trkpt>
      <trkpt lat="-11.6355270" lon="166.9515900">
        <ele>1.6</ele>
        <time>2020-04-19T14:30:56Z</time>
      </trkpt>
      <trkpt lat="-11.6355060" lon="166.9517080">
        <ele>1.6</ele>
        <time>2020-04-19T14:30:57Z</time>
      </trkpt>
      <trkpt lat="-11.6354900" lon="166.9518470">
        <ele>1.6</ele>
        <time>2020-04-19T14:30:58Z</time>
      </trkpt>
      <trkpt lat="-11.6354840" lon="166.9519870">
        <ele>1.6</ele>
        <time>2020-04-19T14:30:59Z</time>
      </trkpt>
      <trkpt lat="-11.6354820" lon="166.9521260">
        <ele>1.6</ele>
        <time>2020-04-19T14:31:00Z</time>
      </trkpt>
      <trkpt lat="-11.6355030" lon="166.9522550">
        <ele>1.6</ele>
        <time>2020-04-19T14:31:01Z</time>
      </trkpt>
      <trkpt lat="-11.6355450" lon="166.9523840">
        <ele>1.6</ele>
        <time>2020-04-19T14:31:02Z</time>
      </trkpt>
      <trkpt lat="-11.6356040" lon="166.9525020">
        <ele>1.6</ele>
        <time>2020-04-19T14:31:03Z</time>
      </trkpt>
      <trkpt lat="-11.6356780" lon="166.9526090">
        <ele>1.6</ele>
        <time>2020-04-19T14:31:04Z</time>
      </trkpt>
      <trkpt lat="-11.6357590" lon="166.9527050">
        <ele>1.6</ele>
        <time>2020-04-19T14:31:05Z</time>
      </trkpt>
      <trkpt lat="-11.6358410" lon="166.9527910">
        <ele>1.6</ele>
        <time>2020-04-19T14:31:06Z</time>
      </trkpt>
      <trkpt lat="-11.6359320" lon="166.9528660">
        <ele>1.6</ele>
        <time>2020-04-19T14:31:07Z</time>
      </trkpt>
      <trkpt lat="-11.6360260" lon="166.9529410">
        <ele>1.6</ele>
        <time>2020-04-19T14:31:08Z</time>
      </trkpt>
      <trkpt lat="-11.6361210" lon="166.9530270">
        <ele>1.6</ele>
        <time>2020-04-19T14:31:09Z</time>
      </trkpt>
      <trkpt lat="-11.6362110" lon="166.9531020">
        <ele>1.6</ele>
        <time>2020-04-19T14:31:10Z</time>
      </trkpt>
      <trkpt lat="-11.6363040" lon="166.9531560">
        <ele>1.6</ele>
        <time>2020-04-19T14:31:11Z</time>
      </trkpt>
      <trkpt lat="-11.6363940" lon="166.9532310">
        <ele>1.6</ele>
        <time>2020-04-19T14:31:12Z</time>
      </trkpt>
      <trkpt lat="-11.6364850" lon="166.9532950">
        <ele>1.6</ele>
        <time>2020-04-19T14:31:13Z</time>
      </trkpt>
      <trkpt lat="-11.6365720" lon="166.9533600">
        <ele>1.6</ele>
        <time>2020-04-19T14:31:14Z</time>
      </trkpt>
      <trkpt lat="-11.6366630" lon="166.9534240">
        <ele>1.6</ele>
        <time>2020-04-19T14:31:15Z</time>
      </trkpt>
      <trkpt lat="-11.6367450" lon="166.9534780">
        <ele>1.6</ele>
        <time>2020-04-19T14:31:16Z</time>
      </trkpt>
      <trkpt lat="-11.6368280" lon="166.9535210">
        <ele>1.6</ele>
        <time>2020-04-19T14:31:17Z</time>
      </trkpt>
      <trkpt lat="-11.6369010" lon="166.9535850">
        <ele>1.6</ele>
        <time>2020-04-19T14:31:18Z</time>
      </trkpt>
      <trkpt lat="-11.6369640" lon="166.9536170">
        <ele>1.6</ele>
        <time>2020-04-19T14:31:19Z</time>
      </trkpt>
      <trkpt lat="-11.6370200" lon="166.9536600">
        <ele>1.6</ele>
        <time>2020-04-19T14:31:20Z</time>
      </trkpt>
      <trkpt lat="-11.6370670" lon="166.9537140">
        <ele>1.6</ele>
        <time>2020-04-19T14:31:21Z</time>
      </trkpt>
      <trkpt lat="-11.6371100" lon="166.9537350">
        <ele>1.6</ele>
        <time>2020-04-19T14:31:22Z</time>
      </trkpt>
      <trkpt lat="-11.6371390" lon="166.9537890">
        <ele>1.6</ele>
        <time>2020-04-19T14:31:23Z</time>
      </trkpt>
      <trkpt lat="-11.6371660" lon="166.9538100">
        <ele>1.6</ele>
        <time>2020-04-19T14:31:24Z</time>
      </trkpt>
      <trkpt lat="-11.6371930" lon="166.9538320">
        <ele>1.6</ele>
        <time>2020-04-19T14:31:25Z</time>
      </trkpt>
      <trkpt lat="-11.6372160" lon="166.9538640">
        <ele>1.6</ele>
        <time>2020-04-19T14:31:26Z</time>
      </trkpt>
      <trkpt lat="-11.6372320" lon="166.9538640">
        <ele>1.6</ele>
        <time>2020-04-19T14:31:27Z</time>
      </trkpt>
      <trkpt lat="-11.6372440" lon="166.9538750">
        <ele>1.6</ele>
        <time>2020-04-19T14:31:28Z</time>
      </trkpt>
      <trkpt lat="-11.6372510" lon="166.9538750">
        <ele>1.6</ele>
        <time>2020-04-19T14:31:29Z</time>
      </trkpt>
      <trkpt lat="-11.6372510" lon="166.9538750">
        <ele>1.6</ele>
        <time>2020-04-19T14:31:30Z</time>
      </trkpt>
      <trkpt lat="-11.6372510" lon="166.9538750">
        <ele>1.6</ele>
        <time>2020-04-19T14:31:31Z</time>
      </trkpt>
      <trkpt lat="-11.6372510" lon="166.9538750">
        <ele>1.6</ele>
        <time>2020-04-19T14:31:32Z</time>
      </trkpt>
    </trkseg>
  </trk>
</gpx>
